<?xml version="1.0" encoding="UTF-8" standalone="no" ?>
<gpx xmlns="http://www.topografix.com/GPX/1/1" xmlns:xsi="http://www.w3.org/2001/XMLSchema-instance" xsi:schemaLocation="http://www.topografix.com/GPX/1/1 http://www.topografix.com/GPX/1/1/gpx.xsd" version="1.1" creator="VisuGPX - https://www.visugpx.com">
  <metadata>
    <name>Beton &amp; Mont Vaudois</name>
    <desc><![CDATA[Belle sortie gelée vers le mt Vaudois ]]></desc>
  </metadata>
  <trk>
    <name><![CDATA[18 Rue Antoine Coysevox]]></name>
    <desc><![CDATA[]]></desc>
    <trkseg>
      <trkpt lat="47.51805" lon="6.77473">
        <ele>388</ele>
        <time>2016-12-04T08:23:43.299Z</time>
      </trkpt>
      <trkpt lat="47.51805" lon="6.77473">
        <ele>388</ele>
        <time>2016-12-04T08:24:03.999Z</time>
      </trkpt>
      <trkpt lat="47.51808" lon="6.77464">
        <ele>388</ele>
        <time>2016-12-04T08:24:04.999Z</time>
      </trkpt>
      <trkpt lat="47.51808" lon="6.77464">
        <ele>388</ele>
        <time>2016-12-04T08:25:48.999Z</time>
      </trkpt>
      <trkpt lat="47.51809" lon="6.77479">
        <ele>388</ele>
        <time>2016-12-04T08:25:49.999Z</time>
      </trkpt>
      <trkpt lat="47.51809" lon="6.77479">
        <ele>388</ele>
        <time>2016-12-04T08:26:19.999Z</time>
      </trkpt>
      <trkpt lat="47.51808" lon="6.77489">
        <ele>388</ele>
        <time>2016-12-04T08:26:20.999Z</time>
      </trkpt>
      <trkpt lat="47.5181" lon="6.77493">
        <ele>388</ele>
        <time>2016-12-04T08:26:22.999Z</time>
      </trkpt>
      <trkpt lat="47.51811" lon="6.77494">
        <ele>388</ele>
        <time>2016-12-04T08:26:23.999Z</time>
      </trkpt>
      <trkpt lat="47.51813" lon="6.77497">
        <ele>388</ele>
        <time>2016-12-04T08:26:24.999Z</time>
      </trkpt>
      <trkpt lat="47.51816" lon="6.77498">
        <ele>387</ele>
        <time>2016-12-04T08:26:25.999Z</time>
      </trkpt>
      <trkpt lat="47.51819" lon="6.775">
        <ele>387</ele>
        <time>2016-12-04T08:26:26.999Z</time>
      </trkpt>
      <trkpt lat="47.51822" lon="6.77501">
        <ele>388</ele>
        <time>2016-12-04T08:26:27.999Z</time>
      </trkpt>
      <trkpt lat="47.51826" lon="6.77503">
        <ele>388</ele>
        <time>2016-12-04T08:26:28.999Z</time>
      </trkpt>
      <trkpt lat="47.5183" lon="6.77504">
        <ele>387</ele>
        <time>2016-12-04T08:26:29.999Z</time>
      </trkpt>
      <trkpt lat="47.51833" lon="6.77505">
        <ele>387</ele>
        <time>2016-12-04T08:26:30.999Z</time>
      </trkpt>
      <trkpt lat="47.51837" lon="6.77505">
        <ele>387</ele>
        <time>2016-12-04T08:26:31.999Z</time>
      </trkpt>
      <trkpt lat="47.51841" lon="6.77506">
        <ele>388</ele>
        <time>2016-12-04T08:26:32.999Z</time>
      </trkpt>
      <trkpt lat="47.51846" lon="6.77506">
        <ele>388</ele>
        <time>2016-12-04T08:26:33.999Z</time>
      </trkpt>
      <trkpt lat="47.5185" lon="6.77506">
        <ele>388</ele>
        <time>2016-12-04T08:26:34.999Z</time>
      </trkpt>
      <trkpt lat="47.51854" lon="6.77505">
        <ele>388</ele>
        <time>2016-12-04T08:26:35.999Z</time>
      </trkpt>
      <trkpt lat="47.51858" lon="6.77504">
        <ele>388</ele>
        <time>2016-12-04T08:26:36.999Z</time>
      </trkpt>
      <trkpt lat="47.51862" lon="6.77503">
        <ele>388</ele>
        <time>2016-12-04T08:26:37.999Z</time>
      </trkpt>
      <trkpt lat="47.51866" lon="6.77503">
        <ele>388</ele>
        <time>2016-12-04T08:26:38.999Z</time>
      </trkpt>
      <trkpt lat="47.5187" lon="6.77503">
        <ele>388</ele>
        <time>2016-12-04T08:26:39.999Z</time>
      </trkpt>
      <trkpt lat="47.51874" lon="6.77504">
        <ele>388</ele>
        <time>2016-12-04T08:26:40.999Z</time>
      </trkpt>
      <trkpt lat="47.51878" lon="6.77505">
        <ele>388</ele>
        <time>2016-12-04T08:26:41.999Z</time>
      </trkpt>
      <trkpt lat="47.51882" lon="6.77506">
        <ele>388</ele>
        <time>2016-12-04T08:26:42.999Z</time>
      </trkpt>
      <trkpt lat="47.51886" lon="6.77507">
        <ele>388</ele>
        <time>2016-12-04T08:26:43.999Z</time>
      </trkpt>
      <trkpt lat="47.51889" lon="6.77508">
        <ele>388</ele>
        <time>2016-12-04T08:26:44.999Z</time>
      </trkpt>
      <trkpt lat="47.51893" lon="6.77508">
        <ele>388</ele>
        <time>2016-12-04T08:26:45.999Z</time>
      </trkpt>
      <trkpt lat="47.51896" lon="6.77509">
        <ele>388</ele>
        <time>2016-12-04T08:26:46.999Z</time>
      </trkpt>
      <trkpt lat="47.51899" lon="6.77509">
        <ele>388</ele>
        <time>2016-12-04T08:26:47.999Z</time>
      </trkpt>
      <trkpt lat="47.51903" lon="6.7751">
        <ele>388</ele>
        <time>2016-12-04T08:26:48.999Z</time>
      </trkpt>
      <trkpt lat="47.51907" lon="6.77511">
        <ele>388</ele>
        <time>2016-12-04T08:26:49.999Z</time>
      </trkpt>
      <trkpt lat="47.5191" lon="6.77512">
        <ele>388</ele>
        <time>2016-12-04T08:26:50.999Z</time>
      </trkpt>
      <trkpt lat="47.51913" lon="6.77513">
        <ele>388</ele>
        <time>2016-12-04T08:26:51.999Z</time>
      </trkpt>
      <trkpt lat="47.51917" lon="6.77514">
        <ele>389</ele>
        <time>2016-12-04T08:26:52.999Z</time>
      </trkpt>
      <trkpt lat="47.51921" lon="6.77516">
        <ele>389</ele>
        <time>2016-12-04T08:26:53.999Z</time>
      </trkpt>
      <trkpt lat="47.51924" lon="6.77516">
        <ele>389</ele>
        <time>2016-12-04T08:26:54.999Z</time>
      </trkpt>
      <trkpt lat="47.51928" lon="6.77517">
        <ele>389</ele>
        <time>2016-12-04T08:26:55.999Z</time>
      </trkpt>
      <trkpt lat="47.51931" lon="6.77518">
        <ele>389</ele>
        <time>2016-12-04T08:26:56.999Z</time>
      </trkpt>
      <trkpt lat="47.51936" lon="6.77519">
        <ele>389</ele>
        <time>2016-12-04T08:26:57.999Z</time>
      </trkpt>
      <trkpt lat="47.5194" lon="6.77519">
        <ele>389</ele>
        <time>2016-12-04T08:26:58.999Z</time>
      </trkpt>
      <trkpt lat="47.51943" lon="6.77521">
        <ele>389</ele>
        <time>2016-12-04T08:26:59.999Z</time>
      </trkpt>
      <trkpt lat="47.51948" lon="6.77521">
        <ele>390</ele>
        <time>2016-12-04T08:27:00.999Z</time>
      </trkpt>
      <trkpt lat="47.51952" lon="6.77523">
        <ele>390</ele>
        <time>2016-12-04T08:27:01.999Z</time>
      </trkpt>
      <trkpt lat="47.51956" lon="6.77524">
        <ele>390</ele>
        <time>2016-12-04T08:27:02.999Z</time>
      </trkpt>
      <trkpt lat="47.51961" lon="6.77526">
        <ele>390</ele>
        <time>2016-12-04T08:27:03.999Z</time>
      </trkpt>
      <trkpt lat="47.51965" lon="6.77527">
        <ele>390</ele>
        <time>2016-12-04T08:27:04.999Z</time>
      </trkpt>
      <trkpt lat="47.51969" lon="6.77528">
        <ele>390</ele>
        <time>2016-12-04T08:27:05.999Z</time>
      </trkpt>
      <trkpt lat="47.51972" lon="6.7753">
        <ele>390</ele>
        <time>2016-12-04T08:27:06.999Z</time>
      </trkpt>
      <trkpt lat="47.51976" lon="6.77531">
        <ele>390</ele>
        <time>2016-12-04T08:27:07.999Z</time>
      </trkpt>
      <trkpt lat="47.5198" lon="6.77531">
        <ele>390</ele>
        <time>2016-12-04T08:27:08.999Z</time>
      </trkpt>
      <trkpt lat="47.51984" lon="6.77532">
        <ele>390</ele>
        <time>2016-12-04T08:27:09.999Z</time>
      </trkpt>
      <trkpt lat="47.51989" lon="6.77533">
        <ele>390</ele>
        <time>2016-12-04T08:27:10.999Z</time>
      </trkpt>
      <trkpt lat="47.51993" lon="6.77534">
        <ele>390</ele>
        <time>2016-12-04T08:27:11.999Z</time>
      </trkpt>
      <trkpt lat="47.51998" lon="6.77535">
        <ele>390</ele>
        <time>2016-12-04T08:27:12.999Z</time>
      </trkpt>
      <trkpt lat="47.52002" lon="6.77535">
        <ele>390</ele>
        <time>2016-12-04T08:27:13.999Z</time>
      </trkpt>
      <trkpt lat="47.52006" lon="6.77536">
        <ele>390</ele>
        <time>2016-12-04T08:27:14.999Z</time>
      </trkpt>
      <trkpt lat="47.52008" lon="6.77536">
        <ele>390</ele>
        <time>2016-12-04T08:27:15.999Z</time>
      </trkpt>
      <trkpt lat="47.52012" lon="6.77537">
        <ele>390</ele>
        <time>2016-12-04T08:27:16.999Z</time>
      </trkpt>
      <trkpt lat="47.52016" lon="6.77537">
        <ele>390</ele>
        <time>2016-12-04T08:27:17.999Z</time>
      </trkpt>
      <trkpt lat="47.52019" lon="6.77537">
        <ele>390</ele>
        <time>2016-12-04T08:27:18.999Z</time>
      </trkpt>
      <trkpt lat="47.52024" lon="6.77538">
        <ele>390</ele>
        <time>2016-12-04T08:27:19.999Z</time>
      </trkpt>
      <trkpt lat="47.52028" lon="6.77539">
        <ele>390</ele>
        <time>2016-12-04T08:27:20.999Z</time>
      </trkpt>
      <trkpt lat="47.52031" lon="6.7754">
        <ele>390</ele>
        <time>2016-12-04T08:27:21.999Z</time>
      </trkpt>
      <trkpt lat="47.52034" lon="6.7754">
        <ele>390</ele>
        <time>2016-12-04T08:27:22.999Z</time>
      </trkpt>
      <trkpt lat="47.52039" lon="6.77541">
        <ele>390</ele>
        <time>2016-12-04T08:27:23.999Z</time>
      </trkpt>
      <trkpt lat="47.52043" lon="6.77542">
        <ele>390</ele>
        <time>2016-12-04T08:27:24.999Z</time>
      </trkpt>
      <trkpt lat="47.52047" lon="6.77542">
        <ele>391</ele>
        <time>2016-12-04T08:27:25.999Z</time>
      </trkpt>
      <trkpt lat="47.52051" lon="6.77543">
        <ele>391</ele>
        <time>2016-12-04T08:27:26.999Z</time>
      </trkpt>
      <trkpt lat="47.52054" lon="6.77543">
        <ele>391</ele>
        <time>2016-12-04T08:27:27.999Z</time>
      </trkpt>
      <trkpt lat="47.52058" lon="6.77544">
        <ele>391</ele>
        <time>2016-12-04T08:27:28.999Z</time>
      </trkpt>
      <trkpt lat="47.52062" lon="6.77546">
        <ele>391</ele>
        <time>2016-12-04T08:27:29.999Z</time>
      </trkpt>
      <trkpt lat="47.52066" lon="6.77548">
        <ele>391</ele>
        <time>2016-12-04T08:27:30.999Z</time>
      </trkpt>
      <trkpt lat="47.5207" lon="6.7755">
        <ele>391</ele>
        <time>2016-12-04T08:27:31.999Z</time>
      </trkpt>
      <trkpt lat="47.52074" lon="6.77551">
        <ele>391</ele>
        <time>2016-12-04T08:27:32.999Z</time>
      </trkpt>
      <trkpt lat="47.52078" lon="6.77551">
        <ele>391</ele>
        <time>2016-12-04T08:27:33.999Z</time>
      </trkpt>
      <trkpt lat="47.52082" lon="6.77552">
        <ele>391</ele>
        <time>2016-12-04T08:27:34.999Z</time>
      </trkpt>
      <trkpt lat="47.52085" lon="6.77554">
        <ele>390</ele>
        <time>2016-12-04T08:27:35.999Z</time>
      </trkpt>
      <trkpt lat="47.52089" lon="6.77556">
        <ele>390</ele>
        <time>2016-12-04T08:27:36.999Z</time>
      </trkpt>
      <trkpt lat="47.52092" lon="6.7756">
        <ele>390</ele>
        <time>2016-12-04T08:27:37.999Z</time>
      </trkpt>
      <trkpt lat="47.52095" lon="6.77565">
        <ele>390</ele>
        <time>2016-12-04T08:27:38.999Z</time>
      </trkpt>
      <trkpt lat="47.52096" lon="6.77572">
        <ele>390</ele>
        <time>2016-12-04T08:27:39.999Z</time>
      </trkpt>
      <trkpt lat="47.52097" lon="6.77579">
        <ele>391</ele>
        <time>2016-12-04T08:27:40.999Z</time>
      </trkpt>
      <trkpt lat="47.52097" lon="6.77586">
        <ele>391</ele>
        <time>2016-12-04T08:27:41.999Z</time>
      </trkpt>
      <trkpt lat="47.52098" lon="6.77593">
        <ele>391</ele>
        <time>2016-12-04T08:27:42.999Z</time>
      </trkpt>
      <trkpt lat="47.52098" lon="6.77599">
        <ele>391</ele>
        <time>2016-12-04T08:27:43.999Z</time>
      </trkpt>
      <trkpt lat="47.52098" lon="6.77605">
        <ele>391</ele>
        <time>2016-12-04T08:27:44.999Z</time>
      </trkpt>
      <trkpt lat="47.52097" lon="6.77611">
        <ele>391</ele>
        <time>2016-12-04T08:27:45.999Z</time>
      </trkpt>
      <trkpt lat="47.52097" lon="6.77616">
        <ele>391</ele>
        <time>2016-12-04T08:27:46.999Z</time>
      </trkpt>
      <trkpt lat="47.52097" lon="6.77624">
        <ele>391</ele>
        <time>2016-12-04T08:27:47.999Z</time>
      </trkpt>
      <trkpt lat="47.52097" lon="6.7763">
        <ele>391</ele>
        <time>2016-12-04T08:27:48.999Z</time>
      </trkpt>
      <trkpt lat="47.52097" lon="6.77636">
        <ele>391</ele>
        <time>2016-12-04T08:27:49.999Z</time>
      </trkpt>
      <trkpt lat="47.52097" lon="6.77641">
        <ele>391</ele>
        <time>2016-12-04T08:27:50.999Z</time>
      </trkpt>
      <trkpt lat="47.52098" lon="6.77647">
        <ele>391</ele>
        <time>2016-12-04T08:27:51.999Z</time>
      </trkpt>
      <trkpt lat="47.52097" lon="6.77651">
        <ele>392</ele>
        <time>2016-12-04T08:27:52.999Z</time>
      </trkpt>
      <trkpt lat="47.52097" lon="6.77658">
        <ele>392</ele>
        <time>2016-12-04T08:27:53.999Z</time>
      </trkpt>
      <trkpt lat="47.52096" lon="6.77664">
        <ele>392</ele>
        <time>2016-12-04T08:27:54.999Z</time>
      </trkpt>
      <trkpt lat="47.52096" lon="6.77669">
        <ele>392</ele>
        <time>2016-12-04T08:27:55.999Z</time>
      </trkpt>
      <trkpt lat="47.52097" lon="6.77673">
        <ele>392</ele>
        <time>2016-12-04T08:27:56.999Z</time>
      </trkpt>
      <trkpt lat="47.52099" lon="6.77676">
        <ele>392</ele>
        <time>2016-12-04T08:27:57.999Z</time>
      </trkpt>
      <trkpt lat="47.52101" lon="6.77677">
        <ele>392</ele>
        <time>2016-12-04T08:27:58.999Z</time>
      </trkpt>
      <trkpt lat="47.52105" lon="6.77674">
        <ele>391</ele>
        <time>2016-12-04T08:27:59.999Z</time>
      </trkpt>
      <trkpt lat="47.52109" lon="6.7767">
        <ele>391</ele>
        <time>2016-12-04T08:28:00.999Z</time>
      </trkpt>
      <trkpt lat="47.52111" lon="6.77667">
        <ele>391</ele>
        <time>2016-12-04T08:28:01.999Z</time>
      </trkpt>
      <trkpt lat="47.52115" lon="6.77665">
        <ele>391</ele>
        <time>2016-12-04T08:28:02.999Z</time>
      </trkpt>
      <trkpt lat="47.52119" lon="6.77662">
        <ele>391</ele>
        <time>2016-12-04T08:28:03.999Z</time>
      </trkpt>
      <trkpt lat="47.52123" lon="6.77659">
        <ele>391</ele>
        <time>2016-12-04T08:28:04.999Z</time>
      </trkpt>
      <trkpt lat="47.52127" lon="6.77655">
        <ele>391</ele>
        <time>2016-12-04T08:28:05.999Z</time>
      </trkpt>
      <trkpt lat="47.52132" lon="6.77652">
        <ele>390</ele>
        <time>2016-12-04T08:28:06.999Z</time>
      </trkpt>
      <trkpt lat="47.52138" lon="6.77648">
        <ele>390</ele>
        <time>2016-12-04T08:28:07.999Z</time>
      </trkpt>
      <trkpt lat="47.52143" lon="6.77645">
        <ele>390</ele>
        <time>2016-12-04T08:28:08.999Z</time>
      </trkpt>
      <trkpt lat="47.52149" lon="6.77642">
        <ele>390</ele>
        <time>2016-12-04T08:28:09.999Z</time>
      </trkpt>
      <trkpt lat="47.52154" lon="6.77638">
        <ele>390</ele>
        <time>2016-12-04T08:28:10.999Z</time>
      </trkpt>
      <trkpt lat="47.52159" lon="6.77635">
        <ele>390</ele>
        <time>2016-12-04T08:28:11.999Z</time>
      </trkpt>
      <trkpt lat="47.52164" lon="6.77632">
        <ele>390</ele>
        <time>2016-12-04T08:28:12.999Z</time>
      </trkpt>
      <trkpt lat="47.5217" lon="6.77629">
        <ele>387</ele>
        <time>2016-12-04T08:28:13.999Z</time>
      </trkpt>
      <trkpt lat="47.52176" lon="6.77626">
        <ele>387</ele>
        <time>2016-12-04T08:28:14.999Z</time>
      </trkpt>
      <trkpt lat="47.52181" lon="6.77623">
        <ele>387</ele>
        <time>2016-12-04T08:28:15.999Z</time>
      </trkpt>
      <trkpt lat="47.52187" lon="6.7762">
        <ele>387</ele>
        <time>2016-12-04T08:28:16.999Z</time>
      </trkpt>
      <trkpt lat="47.52194" lon="6.77616">
        <ele>387</ele>
        <time>2016-12-04T08:28:17.999Z</time>
      </trkpt>
      <trkpt lat="47.52199" lon="6.77613">
        <ele>387</ele>
        <time>2016-12-04T08:28:18.999Z</time>
      </trkpt>
      <trkpt lat="47.52203" lon="6.77609">
        <ele>387</ele>
        <time>2016-12-04T08:28:19.999Z</time>
      </trkpt>
      <trkpt lat="47.52209" lon="6.77606">
        <ele>387</ele>
        <time>2016-12-04T08:28:20.999Z</time>
      </trkpt>
      <trkpt lat="47.52214" lon="6.77602">
        <ele>387</ele>
        <time>2016-12-04T08:28:21.999Z</time>
      </trkpt>
      <trkpt lat="47.52218" lon="6.77598">
        <ele>386</ele>
        <time>2016-12-04T08:28:22.999Z</time>
      </trkpt>
      <trkpt lat="47.52223" lon="6.77595">
        <ele>386</ele>
        <time>2016-12-04T08:28:23.999Z</time>
      </trkpt>
      <trkpt lat="47.52228" lon="6.77592">
        <ele>386</ele>
        <time>2016-12-04T08:28:24.999Z</time>
      </trkpt>
      <trkpt lat="47.52234" lon="6.77589">
        <ele>386</ele>
        <time>2016-12-04T08:28:25.999Z</time>
      </trkpt>
      <trkpt lat="47.52239" lon="6.77586">
        <ele>386</ele>
        <time>2016-12-04T08:28:26.999Z</time>
      </trkpt>
      <trkpt lat="47.52245" lon="6.77583">
        <ele>386</ele>
        <time>2016-12-04T08:28:27.999Z</time>
      </trkpt>
      <trkpt lat="47.5225" lon="6.7758">
        <ele>386</ele>
        <time>2016-12-04T08:28:28.999Z</time>
      </trkpt>
      <trkpt lat="47.52255" lon="6.77577">
        <ele>386</ele>
        <time>2016-12-04T08:28:29.999Z</time>
      </trkpt>
      <trkpt lat="47.5226" lon="6.77574">
        <ele>387</ele>
        <time>2016-12-04T08:28:30.999Z</time>
      </trkpt>
      <trkpt lat="47.52264" lon="6.77572">
        <ele>387</ele>
        <time>2016-12-04T08:28:31.999Z</time>
      </trkpt>
      <trkpt lat="47.52269" lon="6.77569">
        <ele>387</ele>
        <time>2016-12-04T08:28:32.999Z</time>
      </trkpt>
      <trkpt lat="47.52272" lon="6.77566">
        <ele>387</ele>
        <time>2016-12-04T08:28:33.999Z</time>
      </trkpt>
      <trkpt lat="47.52276" lon="6.77563">
        <ele>387</ele>
        <time>2016-12-04T08:28:34.999Z</time>
      </trkpt>
      <trkpt lat="47.52281" lon="6.7756">
        <ele>387</ele>
        <time>2016-12-04T08:28:35.999Z</time>
      </trkpt>
      <trkpt lat="47.52285" lon="6.77557">
        <ele>387</ele>
        <time>2016-12-04T08:28:36.999Z</time>
      </trkpt>
      <trkpt lat="47.5229" lon="6.77554">
        <ele>387</ele>
        <time>2016-12-04T08:28:37.999Z</time>
      </trkpt>
      <trkpt lat="47.52294" lon="6.77551">
        <ele>387</ele>
        <time>2016-12-04T08:28:38.999Z</time>
      </trkpt>
      <trkpt lat="47.52298" lon="6.77548">
        <ele>387</ele>
        <time>2016-12-04T08:28:39.999Z</time>
      </trkpt>
      <trkpt lat="47.52302" lon="6.77546">
        <ele>387</ele>
        <time>2016-12-04T08:28:40.999Z</time>
      </trkpt>
      <trkpt lat="47.52306" lon="6.77543">
        <ele>387</ele>
        <time>2016-12-04T08:28:41.999Z</time>
      </trkpt>
      <trkpt lat="47.5231" lon="6.7754">
        <ele>387</ele>
        <time>2016-12-04T08:28:42.999Z</time>
      </trkpt>
      <trkpt lat="47.52314" lon="6.77537">
        <ele>387</ele>
        <time>2016-12-04T08:28:43.999Z</time>
      </trkpt>
      <trkpt lat="47.52318" lon="6.77533">
        <ele>388</ele>
        <time>2016-12-04T08:28:44.999Z</time>
      </trkpt>
      <trkpt lat="47.52322" lon="6.7753">
        <ele>388</ele>
        <time>2016-12-04T08:28:45.999Z</time>
      </trkpt>
      <trkpt lat="47.52326" lon="6.77528">
        <ele>388</ele>
        <time>2016-12-04T08:28:46.999Z</time>
      </trkpt>
      <trkpt lat="47.5233" lon="6.77525">
        <ele>388</ele>
        <time>2016-12-04T08:28:47.999Z</time>
      </trkpt>
      <trkpt lat="47.52334" lon="6.77522">
        <ele>389</ele>
        <time>2016-12-04T08:28:48.999Z</time>
      </trkpt>
      <trkpt lat="47.52338" lon="6.77519">
        <ele>389</ele>
        <time>2016-12-04T08:28:49.999Z</time>
      </trkpt>
      <trkpt lat="47.52341" lon="6.77516">
        <ele>389</ele>
        <time>2016-12-04T08:28:50.999Z</time>
      </trkpt>
      <trkpt lat="47.52345" lon="6.77514">
        <ele>389</ele>
        <time>2016-12-04T08:28:51.999Z</time>
      </trkpt>
      <trkpt lat="47.52348" lon="6.77512">
        <ele>389</ele>
        <time>2016-12-04T08:28:52.999Z</time>
      </trkpt>
      <trkpt lat="47.52351" lon="6.7751">
        <ele>389</ele>
        <time>2016-12-04T08:28:53.999Z</time>
      </trkpt>
      <trkpt lat="47.52355" lon="6.77508">
        <ele>389</ele>
        <time>2016-12-04T08:28:54.999Z</time>
      </trkpt>
      <trkpt lat="47.52358" lon="6.77506">
        <ele>389</ele>
        <time>2016-12-04T08:28:55.999Z</time>
      </trkpt>
      <trkpt lat="47.52362" lon="6.77504">
        <ele>389</ele>
        <time>2016-12-04T08:28:56.999Z</time>
      </trkpt>
      <trkpt lat="47.52365" lon="6.77503">
        <ele>389</ele>
        <time>2016-12-04T08:28:57.999Z</time>
      </trkpt>
      <trkpt lat="47.52367" lon="6.77502">
        <ele>389</ele>
        <time>2016-12-04T08:28:58.999Z</time>
      </trkpt>
      <trkpt lat="47.52369" lon="6.77501">
        <ele>389</ele>
        <time>2016-12-04T08:28:59.999Z</time>
      </trkpt>
      <trkpt lat="47.52371" lon="6.775">
        <ele>391</ele>
        <time>2016-12-04T08:29:00.999Z</time>
      </trkpt>
      <trkpt lat="47.52374" lon="6.77498">
        <ele>391</ele>
        <time>2016-12-04T08:29:01.999Z</time>
      </trkpt>
      <trkpt lat="47.52377" lon="6.77497">
        <ele>391</ele>
        <time>2016-12-04T08:29:02.999Z</time>
      </trkpt>
      <trkpt lat="47.5238" lon="6.77495">
        <ele>391</ele>
        <time>2016-12-04T08:29:03.999Z</time>
      </trkpt>
      <trkpt lat="47.52383" lon="6.77494">
        <ele>391</ele>
        <time>2016-12-04T08:29:04.999Z</time>
      </trkpt>
      <trkpt lat="47.52384" lon="6.77492">
        <ele>391</ele>
        <time>2016-12-04T08:29:05.999Z</time>
      </trkpt>
      <trkpt lat="47.52386" lon="6.7749">
        <ele>391</ele>
        <time>2016-12-04T08:29:06.999Z</time>
      </trkpt>
      <trkpt lat="47.52388" lon="6.77488">
        <ele>391</ele>
        <time>2016-12-04T08:29:07.999Z</time>
      </trkpt>
      <trkpt lat="47.5239" lon="6.77486">
        <ele>391</ele>
        <time>2016-12-04T08:29:08.999Z</time>
      </trkpt>
      <trkpt lat="47.52393" lon="6.77484">
        <ele>391</ele>
        <time>2016-12-04T08:29:09.999Z</time>
      </trkpt>
      <trkpt lat="47.52397" lon="6.77481">
        <ele>391</ele>
        <time>2016-12-04T08:29:10.999Z</time>
      </trkpt>
      <trkpt lat="47.524" lon="6.77478">
        <ele>391</ele>
        <time>2016-12-04T08:29:11.999Z</time>
      </trkpt>
      <trkpt lat="47.52404" lon="6.77475">
        <ele>391</ele>
        <time>2016-12-04T08:29:12.999Z</time>
      </trkpt>
      <trkpt lat="47.52408" lon="6.77472">
        <ele>391</ele>
        <time>2016-12-04T08:29:13.999Z</time>
      </trkpt>
      <trkpt lat="47.5241" lon="6.77469">
        <ele>391</ele>
        <time>2016-12-04T08:29:14.999Z</time>
      </trkpt>
      <trkpt lat="47.52412" lon="6.77466">
        <ele>391</ele>
        <time>2016-12-04T08:29:15.999Z</time>
      </trkpt>
      <trkpt lat="47.52414" lon="6.77465">
        <ele>391</ele>
        <time>2016-12-04T08:29:16.999Z</time>
      </trkpt>
      <trkpt lat="47.52418" lon="6.77463">
        <ele>392</ele>
        <time>2016-12-04T08:29:17.999Z</time>
      </trkpt>
      <trkpt lat="47.52418" lon="6.77461">
        <ele>392</ele>
        <time>2016-12-04T08:29:18.999Z</time>
      </trkpt>
      <trkpt lat="47.52422" lon="6.7746">
        <ele>392</ele>
        <time>2016-12-04T08:29:24.999Z</time>
      </trkpt>
      <trkpt lat="47.52423" lon="6.77459">
        <ele>392</ele>
        <time>2016-12-04T08:29:25.999Z</time>
      </trkpt>
      <trkpt lat="47.52426" lon="6.77458">
        <ele>393</ele>
        <time>2016-12-04T08:29:26.999Z</time>
      </trkpt>
      <trkpt lat="47.52428" lon="6.77458">
        <ele>393</ele>
        <time>2016-12-04T08:29:27.999Z</time>
      </trkpt>
      <trkpt lat="47.52426" lon="6.77456">
        <ele>393</ele>
        <time>2016-12-04T08:29:29.999Z</time>
      </trkpt>
      <trkpt lat="47.52428" lon="6.7745">
        <ele>393</ele>
        <time>2016-12-04T08:29:30.999Z</time>
      </trkpt>
      <trkpt lat="47.52431" lon="6.77444">
        <ele>393</ele>
        <time>2016-12-04T08:29:31.999Z</time>
      </trkpt>
      <trkpt lat="47.52434" lon="6.77438">
        <ele>393</ele>
        <time>2016-12-04T08:29:32.999Z</time>
      </trkpt>
      <trkpt lat="47.52437" lon="6.7743">
        <ele>393</ele>
        <time>2016-12-04T08:29:33.999Z</time>
      </trkpt>
      <trkpt lat="47.5244" lon="6.77424">
        <ele>393</ele>
        <time>2016-12-04T08:29:34.999Z</time>
      </trkpt>
      <trkpt lat="47.52443" lon="6.77418">
        <ele>393</ele>
        <time>2016-12-04T08:29:35.999Z</time>
      </trkpt>
      <trkpt lat="47.52446" lon="6.77415">
        <ele>391</ele>
        <time>2016-12-04T08:29:36.999Z</time>
      </trkpt>
      <trkpt lat="47.5245" lon="6.77411">
        <ele>391</ele>
        <time>2016-12-04T08:29:37.999Z</time>
      </trkpt>
      <trkpt lat="47.52454" lon="6.77408">
        <ele>391</ele>
        <time>2016-12-04T08:29:38.999Z</time>
      </trkpt>
      <trkpt lat="47.52459" lon="6.77406">
        <ele>391</ele>
        <time>2016-12-04T08:29:39.999Z</time>
      </trkpt>
      <trkpt lat="47.52465" lon="6.77405">
        <ele>391</ele>
        <time>2016-12-04T08:29:40.999Z</time>
      </trkpt>
      <trkpt lat="47.5247" lon="6.77403">
        <ele>391</ele>
        <time>2016-12-04T08:29:41.999Z</time>
      </trkpt>
      <trkpt lat="47.52475" lon="6.77402">
        <ele>391</ele>
        <time>2016-12-04T08:29:42.999Z</time>
      </trkpt>
      <trkpt lat="47.52481" lon="6.77399">
        <ele>391</ele>
        <time>2016-12-04T08:29:43.999Z</time>
      </trkpt>
      <trkpt lat="47.52488" lon="6.77395">
        <ele>391</ele>
        <time>2016-12-04T08:29:44.999Z</time>
      </trkpt>
      <trkpt lat="47.52494" lon="6.77391">
        <ele>390</ele>
        <time>2016-12-04T08:29:45.999Z</time>
      </trkpt>
      <trkpt lat="47.525" lon="6.77388">
        <ele>389</ele>
        <time>2016-12-04T08:29:46.999Z</time>
      </trkpt>
      <trkpt lat="47.52507" lon="6.77384">
        <ele>389</ele>
        <time>2016-12-04T08:29:47.999Z</time>
      </trkpt>
      <trkpt lat="47.52513" lon="6.7738">
        <ele>389</ele>
        <time>2016-12-04T08:29:48.999Z</time>
      </trkpt>
      <trkpt lat="47.52518" lon="6.77375">
        <ele>389</ele>
        <time>2016-12-04T08:29:49.999Z</time>
      </trkpt>
      <trkpt lat="47.52524" lon="6.77372">
        <ele>388</ele>
        <time>2016-12-04T08:29:50.999Z</time>
      </trkpt>
      <trkpt lat="47.52531" lon="6.77369">
        <ele>388</ele>
        <time>2016-12-04T08:29:51.999Z</time>
      </trkpt>
      <trkpt lat="47.52537" lon="6.77365">
        <ele>388</ele>
        <time>2016-12-04T08:29:52.999Z</time>
      </trkpt>
      <trkpt lat="47.52543" lon="6.77362">
        <ele>388</ele>
        <time>2016-12-04T08:29:53.999Z</time>
      </trkpt>
      <trkpt lat="47.52547" lon="6.77359">
        <ele>388</ele>
        <time>2016-12-04T08:29:54.999Z</time>
      </trkpt>
      <trkpt lat="47.52552" lon="6.77354">
        <ele>388</ele>
        <time>2016-12-04T08:29:55.999Z</time>
      </trkpt>
      <trkpt lat="47.52557" lon="6.77349">
        <ele>388</ele>
        <time>2016-12-04T08:29:56.999Z</time>
      </trkpt>
      <trkpt lat="47.5256" lon="6.77346">
        <ele>387</ele>
        <time>2016-12-04T08:29:57.999Z</time>
      </trkpt>
      <trkpt lat="47.52564" lon="6.77342">
        <ele>387</ele>
        <time>2016-12-04T08:29:58.999Z</time>
      </trkpt>
      <trkpt lat="47.5257" lon="6.77338">
        <ele>387</ele>
        <time>2016-12-04T08:29:59.999Z</time>
      </trkpt>
      <trkpt lat="47.52575" lon="6.77334">
        <ele>387</ele>
        <time>2016-12-04T08:30:00.999Z</time>
      </trkpt>
      <trkpt lat="47.52577" lon="6.77328">
        <ele>386</ele>
        <time>2016-12-04T08:30:01.999Z</time>
      </trkpt>
      <trkpt lat="47.52582" lon="6.77323">
        <ele>386</ele>
        <time>2016-12-04T08:30:02.999Z</time>
      </trkpt>
      <trkpt lat="47.52587" lon="6.77319">
        <ele>387</ele>
        <time>2016-12-04T08:30:03.999Z</time>
      </trkpt>
      <trkpt lat="47.52591" lon="6.77315">
        <ele>387</ele>
        <time>2016-12-04T08:30:04.999Z</time>
      </trkpt>
      <trkpt lat="47.52596" lon="6.77311">
        <ele>387</ele>
        <time>2016-12-04T08:30:05.999Z</time>
      </trkpt>
      <trkpt lat="47.526" lon="6.77307">
        <ele>387</ele>
        <time>2016-12-04T08:30:06.999Z</time>
      </trkpt>
      <trkpt lat="47.52603" lon="6.77304">
        <ele>387</ele>
        <time>2016-12-04T08:30:07.999Z</time>
      </trkpt>
      <trkpt lat="47.52607" lon="6.77301">
        <ele>387</ele>
        <time>2016-12-04T08:30:08.999Z</time>
      </trkpt>
      <trkpt lat="47.52611" lon="6.77298">
        <ele>387</ele>
        <time>2016-12-04T08:30:09.999Z</time>
      </trkpt>
      <trkpt lat="47.52614" lon="6.77294">
        <ele>387</ele>
        <time>2016-12-04T08:30:11.999Z</time>
      </trkpt>
      <trkpt lat="47.52615" lon="6.77293">
        <ele>387</ele>
        <time>2016-12-04T08:30:12.999Z</time>
      </trkpt>
      <trkpt lat="47.52617" lon="6.77292">
        <ele>387</ele>
        <time>2016-12-04T08:30:14.999Z</time>
      </trkpt>
      <trkpt lat="47.52619" lon="6.77291">
        <ele>387</ele>
        <time>2016-12-04T08:30:15.999Z</time>
      </trkpt>
      <trkpt lat="47.52623" lon="6.77292">
        <ele>387</ele>
        <time>2016-12-04T08:30:17.999Z</time>
      </trkpt>
      <trkpt lat="47.52626" lon="6.77292">
        <ele>388</ele>
        <time>2016-12-04T08:30:18.999Z</time>
      </trkpt>
      <trkpt lat="47.52628" lon="6.77292">
        <ele>388</ele>
        <time>2016-12-04T08:30:20.999Z</time>
      </trkpt>
      <trkpt lat="47.52632" lon="6.77294">
        <ele>388</ele>
        <time>2016-12-04T08:30:21.999Z</time>
      </trkpt>
      <trkpt lat="47.52636" lon="6.77297">
        <ele>388</ele>
        <time>2016-12-04T08:30:22.999Z</time>
      </trkpt>
      <trkpt lat="47.52639" lon="6.77302">
        <ele>388</ele>
        <time>2016-12-04T08:30:24.999Z</time>
      </trkpt>
      <trkpt lat="47.52638" lon="6.77304">
        <ele>388</ele>
        <time>2016-12-04T08:30:25.999Z</time>
      </trkpt>
      <trkpt lat="47.52637" lon="6.77305">
        <ele>388</ele>
        <time>2016-12-04T08:30:32.999Z</time>
      </trkpt>
      <trkpt lat="47.52631" lon="6.77301">
        <ele>388</ele>
        <time>2016-12-04T08:30:33.999Z</time>
      </trkpt>
      <trkpt lat="47.52631" lon="6.77301">
        <ele>388</ele>
        <time>2016-12-04T08:33:03.000Z</time>
      </trkpt>
      <trkpt lat="47.52615" lon="6.77293">
        <ele>387</ele>
        <time>2016-12-04T08:33:04.000Z</time>
      </trkpt>
      <trkpt lat="47.52615" lon="6.77293">
        <ele>387</ele>
        <time>2016-12-04T08:33:12.000Z</time>
      </trkpt>
      <trkpt lat="47.52601" lon="6.77295">
        <ele>387</ele>
        <time>2016-12-04T08:33:13.000Z</time>
      </trkpt>
      <trkpt lat="47.52601" lon="6.77295">
        <ele>387</ele>
        <time>2016-12-04T08:33:27.000Z</time>
      </trkpt>
      <trkpt lat="47.52596" lon="6.77315">
        <ele>387</ele>
        <time>2016-12-04T08:33:28.000Z</time>
      </trkpt>
      <trkpt lat="47.52594" lon="6.77317">
        <ele>387</ele>
        <time>2016-12-04T08:33:29.000Z</time>
      </trkpt>
      <trkpt lat="47.52592" lon="6.7732">
        <ele>387</ele>
        <time>2016-12-04T08:33:30.000Z</time>
      </trkpt>
      <trkpt lat="47.5259" lon="6.77323">
        <ele>387</ele>
        <time>2016-12-04T08:33:31.000Z</time>
      </trkpt>
      <trkpt lat="47.52587" lon="6.77327">
        <ele>386</ele>
        <time>2016-12-04T08:33:32.000Z</time>
      </trkpt>
      <trkpt lat="47.52584" lon="6.7733">
        <ele>386</ele>
        <time>2016-12-04T08:33:33.000Z</time>
      </trkpt>
      <trkpt lat="47.52581" lon="6.77333">
        <ele>386</ele>
        <time>2016-12-04T08:33:34.000Z</time>
      </trkpt>
      <trkpt lat="47.52579" lon="6.77336">
        <ele>386</ele>
        <time>2016-12-04T08:33:35.000Z</time>
      </trkpt>
      <trkpt lat="47.52577" lon="6.77338">
        <ele>387</ele>
        <time>2016-12-04T08:33:36.000Z</time>
      </trkpt>
      <trkpt lat="47.52573" lon="6.77339">
        <ele>387</ele>
        <time>2016-12-04T08:33:37.000Z</time>
      </trkpt>
      <trkpt lat="47.5257" lon="6.7734">
        <ele>387</ele>
        <time>2016-12-04T08:33:38.000Z</time>
      </trkpt>
      <trkpt lat="47.52567" lon="6.77342">
        <ele>387</ele>
        <time>2016-12-04T08:33:39.000Z</time>
      </trkpt>
      <trkpt lat="47.52563" lon="6.77345">
        <ele>387</ele>
        <time>2016-12-04T08:33:40.000Z</time>
      </trkpt>
      <trkpt lat="47.52561" lon="6.77348">
        <ele>388</ele>
        <time>2016-12-04T08:33:41.000Z</time>
      </trkpt>
      <trkpt lat="47.52558" lon="6.7735">
        <ele>388</ele>
        <time>2016-12-04T08:33:42.000Z</time>
      </trkpt>
      <trkpt lat="47.52556" lon="6.77352">
        <ele>388</ele>
        <time>2016-12-04T08:33:43.000Z</time>
      </trkpt>
      <trkpt lat="47.52553" lon="6.77354">
        <ele>388</ele>
        <time>2016-12-04T08:33:44.000Z</time>
      </trkpt>
      <trkpt lat="47.52551" lon="6.77355">
        <ele>388</ele>
        <time>2016-12-04T08:33:45.000Z</time>
      </trkpt>
      <trkpt lat="47.52548" lon="6.77357">
        <ele>388</ele>
        <time>2016-12-04T08:33:46.000Z</time>
      </trkpt>
      <trkpt lat="47.52545" lon="6.77359">
        <ele>388</ele>
        <time>2016-12-04T08:33:48.000Z</time>
      </trkpt>
      <trkpt lat="47.52542" lon="6.7736">
        <ele>388</ele>
        <time>2016-12-04T08:33:49.000Z</time>
      </trkpt>
      <trkpt lat="47.52539" lon="6.77362">
        <ele>388</ele>
        <time>2016-12-04T08:33:50.000Z</time>
      </trkpt>
      <trkpt lat="47.52535" lon="6.77365">
        <ele>388</ele>
        <time>2016-12-04T08:33:51.000Z</time>
      </trkpt>
      <trkpt lat="47.52532" lon="6.77366">
        <ele>388</ele>
        <time>2016-12-04T08:33:52.000Z</time>
      </trkpt>
      <trkpt lat="47.52528" lon="6.77369">
        <ele>388</ele>
        <time>2016-12-04T08:33:53.000Z</time>
      </trkpt>
      <trkpt lat="47.52525" lon="6.77371">
        <ele>388</ele>
        <time>2016-12-04T08:33:54.000Z</time>
      </trkpt>
      <trkpt lat="47.52522" lon="6.77373">
        <ele>388</ele>
        <time>2016-12-04T08:33:55.000Z</time>
      </trkpt>
      <trkpt lat="47.52519" lon="6.77375">
        <ele>388</ele>
        <time>2016-12-04T08:33:56.000Z</time>
      </trkpt>
      <trkpt lat="47.52517" lon="6.77377">
        <ele>389</ele>
        <time>2016-12-04T08:33:57.000Z</time>
      </trkpt>
      <trkpt lat="47.52513" lon="6.77379">
        <ele>389</ele>
        <time>2016-12-04T08:33:58.000Z</time>
      </trkpt>
      <trkpt lat="47.5251" lon="6.7738">
        <ele>389</ele>
        <time>2016-12-04T08:33:59.000Z</time>
      </trkpt>
      <trkpt lat="47.52507" lon="6.77383">
        <ele>389</ele>
        <time>2016-12-04T08:34:00.000Z</time>
      </trkpt>
      <trkpt lat="47.52504" lon="6.77385">
        <ele>389</ele>
        <time>2016-12-04T08:34:01.000Z</time>
      </trkpt>
      <trkpt lat="47.525" lon="6.77387">
        <ele>390</ele>
        <time>2016-12-04T08:34:03.000Z</time>
      </trkpt>
      <trkpt lat="47.52497" lon="6.77389">
        <ele>390</ele>
        <time>2016-12-04T08:34:04.000Z</time>
      </trkpt>
      <trkpt lat="47.52494" lon="6.7739">
        <ele>390</ele>
        <time>2016-12-04T08:34:05.000Z</time>
      </trkpt>
      <trkpt lat="47.52489" lon="6.77391">
        <ele>390</ele>
        <time>2016-12-04T08:34:06.000Z</time>
      </trkpt>
      <trkpt lat="47.52486" lon="6.77393">
        <ele>391</ele>
        <time>2016-12-04T08:34:07.000Z</time>
      </trkpt>
      <trkpt lat="47.52483" lon="6.77394">
        <ele>391</ele>
        <time>2016-12-04T08:34:08.000Z</time>
      </trkpt>
      <trkpt lat="47.5248" lon="6.77394">
        <ele>391</ele>
        <time>2016-12-04T08:34:09.000Z</time>
      </trkpt>
      <trkpt lat="47.52477" lon="6.77395">
        <ele>391</ele>
        <time>2016-12-04T08:34:10.000Z</time>
      </trkpt>
      <trkpt lat="47.52474" lon="6.77396">
        <ele>391</ele>
        <time>2016-12-04T08:34:11.000Z</time>
      </trkpt>
      <trkpt lat="47.52472" lon="6.77398">
        <ele>391</ele>
        <time>2016-12-04T08:34:12.000Z</time>
      </trkpt>
      <trkpt lat="47.52468" lon="6.774">
        <ele>391</ele>
        <time>2016-12-04T08:34:14.000Z</time>
      </trkpt>
      <trkpt lat="47.52464" lon="6.77402">
        <ele>391</ele>
        <time>2016-12-04T08:34:15.000Z</time>
      </trkpt>
      <trkpt lat="47.52462" lon="6.77403">
        <ele>391</ele>
        <time>2016-12-04T08:34:16.000Z</time>
      </trkpt>
      <trkpt lat="47.5246" lon="6.77404">
        <ele>391</ele>
        <time>2016-12-04T08:34:17.000Z</time>
      </trkpt>
      <trkpt lat="47.52458" lon="6.77406">
        <ele>391</ele>
        <time>2016-12-04T08:34:18.000Z</time>
      </trkpt>
      <trkpt lat="47.52456" lon="6.77407">
        <ele>391</ele>
        <time>2016-12-04T08:34:19.000Z</time>
      </trkpt>
      <trkpt lat="47.52454" lon="6.77408">
        <ele>391</ele>
        <time>2016-12-04T08:34:20.000Z</time>
      </trkpt>
      <trkpt lat="47.5245" lon="6.77409">
        <ele>391</ele>
        <time>2016-12-04T08:34:21.000Z</time>
      </trkpt>
      <trkpt lat="47.52448" lon="6.7741">
        <ele>391</ele>
        <time>2016-12-04T08:34:22.000Z</time>
      </trkpt>
      <trkpt lat="47.52446" lon="6.77411">
        <ele>391</ele>
        <time>2016-12-04T08:34:23.000Z</time>
      </trkpt>
      <trkpt lat="47.52441" lon="6.77413">
        <ele>391</ele>
        <time>2016-12-04T08:34:25.000Z</time>
      </trkpt>
      <trkpt lat="47.5244" lon="6.77414">
        <ele>392</ele>
        <time>2016-12-04T08:34:26.000Z</time>
      </trkpt>
      <trkpt lat="47.52436" lon="6.77417">
        <ele>393</ele>
        <time>2016-12-04T08:34:28.000Z</time>
      </trkpt>
      <trkpt lat="47.52434" lon="6.77419">
        <ele>393</ele>
        <time>2016-12-04T08:34:29.000Z</time>
      </trkpt>
      <trkpt lat="47.52431" lon="6.77422">
        <ele>393</ele>
        <time>2016-12-04T08:34:31.000Z</time>
      </trkpt>
      <trkpt lat="47.52431" lon="6.77424">
        <ele>393</ele>
        <time>2016-12-04T08:34:32.000Z</time>
      </trkpt>
      <trkpt lat="47.52429" lon="6.77428">
        <ele>393</ele>
        <time>2016-12-04T08:34:33.000Z</time>
      </trkpt>
      <trkpt lat="47.52427" lon="6.77431">
        <ele>393</ele>
        <time>2016-12-04T08:34:34.000Z</time>
      </trkpt>
      <trkpt lat="47.52426" lon="6.77433">
        <ele>393</ele>
        <time>2016-12-04T08:34:35.000Z</time>
      </trkpt>
      <trkpt lat="47.52424" lon="6.77437">
        <ele>393</ele>
        <time>2016-12-04T08:34:36.000Z</time>
      </trkpt>
      <trkpt lat="47.52421" lon="6.77437">
        <ele>393</ele>
        <time>2016-12-04T08:34:39.000Z</time>
      </trkpt>
      <trkpt lat="47.52419" lon="6.77435">
        <ele>393</ele>
        <time>2016-12-04T08:34:40.000Z</time>
      </trkpt>
      <trkpt lat="47.52418" lon="6.77429">
        <ele>393</ele>
        <time>2016-12-04T08:34:43.000Z</time>
      </trkpt>
      <trkpt lat="47.52417" lon="6.77425">
        <ele>393</ele>
        <time>2016-12-04T08:34:44.000Z</time>
      </trkpt>
      <trkpt lat="47.52415" lon="6.77419">
        <ele>393</ele>
        <time>2016-12-04T08:34:46.000Z</time>
      </trkpt>
      <trkpt lat="47.52414" lon="6.77417">
        <ele>393</ele>
        <time>2016-12-04T08:34:47.000Z</time>
      </trkpt>
      <trkpt lat="47.5241" lon="6.77416">
        <ele>393</ele>
        <time>2016-12-04T08:34:52.000Z</time>
      </trkpt>
      <trkpt lat="47.52408" lon="6.77418">
        <ele>392</ele>
        <time>2016-12-04T08:34:53.000Z</time>
      </trkpt>
      <trkpt lat="47.52409" lon="6.77422">
        <ele>392</ele>
        <time>2016-12-04T08:34:54.000Z</time>
      </trkpt>
      <trkpt lat="47.52411" lon="6.77426">
        <ele>392</ele>
        <time>2016-12-04T08:34:55.000Z</time>
      </trkpt>
      <trkpt lat="47.52412" lon="6.77431">
        <ele>392</ele>
        <time>2016-12-04T08:34:56.000Z</time>
      </trkpt>
      <trkpt lat="47.52414" lon="6.77434">
        <ele>392</ele>
        <time>2016-12-04T08:34:57.000Z</time>
      </trkpt>
      <trkpt lat="47.52416" lon="6.77437">
        <ele>392</ele>
        <time>2016-12-04T08:34:58.000Z</time>
      </trkpt>
      <trkpt lat="47.52418" lon="6.77438">
        <ele>393</ele>
        <time>2016-12-04T08:34:59.000Z</time>
      </trkpt>
      <trkpt lat="47.52421" lon="6.77441">
        <ele>393</ele>
        <time>2016-12-04T08:35:06.000Z</time>
      </trkpt>
      <trkpt lat="47.52422" lon="6.77443">
        <ele>393</ele>
        <time>2016-12-04T08:35:07.000Z</time>
      </trkpt>
      <trkpt lat="47.52426" lon="6.77445">
        <ele>393</ele>
        <time>2016-12-04T08:35:13.000Z</time>
      </trkpt>
      <trkpt lat="47.52427" lon="6.77443">
        <ele>393</ele>
        <time>2016-12-04T08:35:14.000Z</time>
      </trkpt>
      <trkpt lat="47.52429" lon="6.77437">
        <ele>393</ele>
        <time>2016-12-04T08:35:17.000Z</time>
      </trkpt>
      <trkpt lat="47.52428" lon="6.77433">
        <ele>393</ele>
        <time>2016-12-04T08:35:18.000Z</time>
      </trkpt>
      <trkpt lat="47.52427" lon="6.77429">
        <ele>393</ele>
        <time>2016-12-04T08:35:20.000Z</time>
      </trkpt>
      <trkpt lat="47.52425" lon="6.77428">
        <ele>393</ele>
        <time>2016-12-04T08:35:21.000Z</time>
      </trkpt>
      <trkpt lat="47.5242" lon="6.77426">
        <ele>393</ele>
        <time>2016-12-04T08:35:24.000Z</time>
      </trkpt>
      <trkpt lat="47.52419" lon="6.77427">
        <ele>393</ele>
        <time>2016-12-04T08:35:25.000Z</time>
      </trkpt>
      <trkpt lat="47.52418" lon="6.77432">
        <ele>393</ele>
        <time>2016-12-04T08:35:27.000Z</time>
      </trkpt>
      <trkpt lat="47.52418" lon="6.77434">
        <ele>393</ele>
        <time>2016-12-04T08:35:28.000Z</time>
      </trkpt>
      <trkpt lat="47.5242" lon="6.7744">
        <ele>393</ele>
        <time>2016-12-04T08:35:41.000Z</time>
      </trkpt>
      <trkpt lat="47.5242" lon="6.7744">
        <ele>393</ele>
        <time>2016-12-04T08:35:42.000Z</time>
      </trkpt>
      <trkpt lat="47.52416" lon="6.77439">
        <ele>392</ele>
        <time>2016-12-04T08:35:46.000Z</time>
      </trkpt>
      <trkpt lat="47.52415" lon="6.77437">
        <ele>392</ele>
        <time>2016-12-04T08:35:47.000Z</time>
      </trkpt>
      <trkpt lat="47.52419" lon="6.77434">
        <ele>393</ele>
        <time>2016-12-04T08:35:53.000Z</time>
      </trkpt>
      <trkpt lat="47.5242" lon="6.77433">
        <ele>393</ele>
        <time>2016-12-04T08:35:54.000Z</time>
      </trkpt>
      <trkpt lat="47.52423" lon="6.77434">
        <ele>393</ele>
        <time>2016-12-04T08:35:59.000Z</time>
      </trkpt>
      <trkpt lat="47.52424" lon="6.77434">
        <ele>393</ele>
        <time>2016-12-04T08:36:00.000Z</time>
      </trkpt>
      <trkpt lat="47.5242" lon="6.77432">
        <ele>393</ele>
        <time>2016-12-04T08:36:10.000Z</time>
      </trkpt>
      <trkpt lat="47.52418" lon="6.77433">
        <ele>393</ele>
        <time>2016-12-04T08:36:11.000Z</time>
      </trkpt>
      <trkpt lat="47.52417" lon="6.77437">
        <ele>393</ele>
        <time>2016-12-04T08:36:13.000Z</time>
      </trkpt>
      <trkpt lat="47.52417" lon="6.7744">
        <ele>393</ele>
        <time>2016-12-04T08:36:14.000Z</time>
      </trkpt>
      <trkpt lat="47.5242" lon="6.77445">
        <ele>393</ele>
        <time>2016-12-04T08:36:18.000Z</time>
      </trkpt>
      <trkpt lat="47.52421" lon="6.77446">
        <ele>393</ele>
        <time>2016-12-04T08:36:19.000Z</time>
      </trkpt>
      <trkpt lat="47.52424" lon="6.77443">
        <ele>393</ele>
        <time>2016-12-04T08:36:21.000Z</time>
      </trkpt>
      <trkpt lat="47.52424" lon="6.77441">
        <ele>393</ele>
        <time>2016-12-04T08:36:22.000Z</time>
      </trkpt>
      <trkpt lat="47.52426" lon="6.77436">
        <ele>393</ele>
        <time>2016-12-04T08:36:25.000Z</time>
      </trkpt>
      <trkpt lat="47.52426" lon="6.77433">
        <ele>393</ele>
        <time>2016-12-04T08:36:26.000Z</time>
      </trkpt>
      <trkpt lat="47.52424" lon="6.77428">
        <ele>393</ele>
        <time>2016-12-04T08:36:28.000Z</time>
      </trkpt>
      <trkpt lat="47.52422" lon="6.77426">
        <ele>393</ele>
        <time>2016-12-04T08:36:29.000Z</time>
      </trkpt>
      <trkpt lat="47.52419" lon="6.7743">
        <ele>393</ele>
        <time>2016-12-04T08:36:33.000Z</time>
      </trkpt>
      <trkpt lat="47.52418" lon="6.77432">
        <ele>393</ele>
        <time>2016-12-04T08:36:34.000Z</time>
      </trkpt>
      <trkpt lat="47.52419" lon="6.77438">
        <ele>393</ele>
        <time>2016-12-04T08:36:40.000Z</time>
      </trkpt>
      <trkpt lat="47.52419" lon="6.77438">
        <ele>393</ele>
        <time>2016-12-04T08:36:41.000Z</time>
      </trkpt>
      <trkpt lat="47.52423" lon="6.77436">
        <ele>393</ele>
        <time>2016-12-04T08:36:47.000Z</time>
      </trkpt>
      <trkpt lat="47.52425" lon="6.77434">
        <ele>393</ele>
        <time>2016-12-04T08:36:48.000Z</time>
      </trkpt>
      <trkpt lat="47.52424" lon="6.77428">
        <ele>393</ele>
        <time>2016-12-04T08:36:53.000Z</time>
      </trkpt>
      <trkpt lat="47.52422" lon="6.77427">
        <ele>393</ele>
        <time>2016-12-04T08:36:54.000Z</time>
      </trkpt>
      <trkpt lat="47.52419" lon="6.77428">
        <ele>393</ele>
        <time>2016-12-04T08:36:56.000Z</time>
      </trkpt>
      <trkpt lat="47.52415" lon="6.77428">
        <ele>392</ele>
        <time>2016-12-04T08:36:57.000Z</time>
      </trkpt>
      <trkpt lat="47.52412" lon="6.77429">
        <ele>392</ele>
        <time>2016-12-04T08:36:59.000Z</time>
      </trkpt>
      <trkpt lat="47.5241" lon="6.77424">
        <ele>392</ele>
        <time>2016-12-04T08:37:00.000Z</time>
      </trkpt>
      <trkpt lat="47.5241" lon="6.77418">
        <ele>393</ele>
        <time>2016-12-04T08:37:03.000Z</time>
      </trkpt>
      <trkpt lat="47.52411" lon="6.77417">
        <ele>393</ele>
        <time>2016-12-04T08:37:04.000Z</time>
      </trkpt>
      <trkpt lat="47.52414" lon="6.77421">
        <ele>393</ele>
        <time>2016-12-04T08:37:06.000Z</time>
      </trkpt>
      <trkpt lat="47.52415" lon="6.77423">
        <ele>393</ele>
        <time>2016-12-04T08:37:07.000Z</time>
      </trkpt>
      <trkpt lat="47.52417" lon="6.77428">
        <ele>393</ele>
        <time>2016-12-04T08:37:09.000Z</time>
      </trkpt>
      <trkpt lat="47.52418" lon="6.7743">
        <ele>393</ele>
        <time>2016-12-04T08:37:10.000Z</time>
      </trkpt>
      <trkpt lat="47.5242" lon="6.77436">
        <ele>393</ele>
        <time>2016-12-04T08:37:13.000Z</time>
      </trkpt>
      <trkpt lat="47.52421" lon="6.77438">
        <ele>393</ele>
        <time>2016-12-04T08:37:14.000Z</time>
      </trkpt>
      <trkpt lat="47.52422" lon="6.77443">
        <ele>393</ele>
        <time>2016-12-04T08:37:16.000Z</time>
      </trkpt>
      <trkpt lat="47.52421" lon="6.77445">
        <ele>393</ele>
        <time>2016-12-04T08:37:17.000Z</time>
      </trkpt>
      <trkpt lat="47.52421" lon="6.7744">
        <ele>393</ele>
        <time>2016-12-04T08:37:23.000Z</time>
      </trkpt>
      <trkpt lat="47.52421" lon="6.77436">
        <ele>393</ele>
        <time>2016-12-04T08:37:24.000Z</time>
      </trkpt>
      <trkpt lat="47.52423" lon="6.77432">
        <ele>393</ele>
        <time>2016-12-04T08:37:25.000Z</time>
      </trkpt>
      <trkpt lat="47.52424" lon="6.77429">
        <ele>393</ele>
        <time>2016-12-04T08:37:26.000Z</time>
      </trkpt>
      <trkpt lat="47.52425" lon="6.77427">
        <ele>393</ele>
        <time>2016-12-04T08:37:27.000Z</time>
      </trkpt>
      <trkpt lat="47.52427" lon="6.77423">
        <ele>393</ele>
        <time>2016-12-04T08:37:28.000Z</time>
      </trkpt>
      <trkpt lat="47.52429" lon="6.77425">
        <ele>393</ele>
        <time>2016-12-04T08:37:33.000Z</time>
      </trkpt>
      <trkpt lat="47.5243" lon="6.77429">
        <ele>393</ele>
        <time>2016-12-04T08:37:34.000Z</time>
      </trkpt>
      <trkpt lat="47.52428" lon="6.77433">
        <ele>393</ele>
        <time>2016-12-04T08:37:35.000Z</time>
      </trkpt>
      <trkpt lat="47.52426" lon="6.77435">
        <ele>393</ele>
        <time>2016-12-04T08:37:36.000Z</time>
      </trkpt>
      <trkpt lat="47.52424" lon="6.77437">
        <ele>393</ele>
        <time>2016-12-04T08:37:37.000Z</time>
      </trkpt>
      <trkpt lat="47.52423" lon="6.77441">
        <ele>393</ele>
        <time>2016-12-04T08:37:38.000Z</time>
      </trkpt>
      <trkpt lat="47.52424" lon="6.77445">
        <ele>393</ele>
        <time>2016-12-04T08:37:39.000Z</time>
      </trkpt>
      <trkpt lat="47.52426" lon="6.77451">
        <ele>393</ele>
        <time>2016-12-04T08:37:40.000Z</time>
      </trkpt>
      <trkpt lat="47.52428" lon="6.77456">
        <ele>393</ele>
        <time>2016-12-04T08:37:41.000Z</time>
      </trkpt>
      <trkpt lat="47.5243" lon="6.77461">
        <ele>392</ele>
        <time>2016-12-04T08:37:42.000Z</time>
      </trkpt>
      <trkpt lat="47.52433" lon="6.77463">
        <ele>392</ele>
        <time>2016-12-04T08:37:44.000Z</time>
      </trkpt>
      <trkpt lat="47.52435" lon="6.77464">
        <ele>393</ele>
        <time>2016-12-04T08:37:45.000Z</time>
      </trkpt>
      <trkpt lat="47.52439" lon="6.77466">
        <ele>393</ele>
        <time>2016-12-04T08:37:47.000Z</time>
      </trkpt>
      <trkpt lat="47.52441" lon="6.77467">
        <ele>393</ele>
        <time>2016-12-04T08:37:48.000Z</time>
      </trkpt>
      <trkpt lat="47.52443" lon="6.77468">
        <ele>393</ele>
        <time>2016-12-04T08:37:49.000Z</time>
      </trkpt>
      <trkpt lat="47.52445" lon="6.77469">
        <ele>393</ele>
        <time>2016-12-04T08:37:50.000Z</time>
      </trkpt>
      <trkpt lat="47.52448" lon="6.7747">
        <ele>393</ele>
        <time>2016-12-04T08:37:51.000Z</time>
      </trkpt>
      <trkpt lat="47.52449" lon="6.77471">
        <ele>393</ele>
        <time>2016-12-04T08:37:52.000Z</time>
      </trkpt>
      <trkpt lat="47.52453" lon="6.77472">
        <ele>393</ele>
        <time>2016-12-04T08:37:54.000Z</time>
      </trkpt>
      <trkpt lat="47.52455" lon="6.77473">
        <ele>393</ele>
        <time>2016-12-04T08:37:55.000Z</time>
      </trkpt>
      <trkpt lat="47.5246" lon="6.77475">
        <ele>393</ele>
        <time>2016-12-04T08:37:57.000Z</time>
      </trkpt>
      <trkpt lat="47.52463" lon="6.77475">
        <ele>393</ele>
        <time>2016-12-04T08:37:58.000Z</time>
      </trkpt>
      <trkpt lat="47.52467" lon="6.77475">
        <ele>393</ele>
        <time>2016-12-04T08:37:59.000Z</time>
      </trkpt>
      <trkpt lat="47.52469" lon="6.77475">
        <ele>393</ele>
        <time>2016-12-04T08:38:00.000Z</time>
      </trkpt>
      <trkpt lat="47.52473" lon="6.77475">
        <ele>393</ele>
        <time>2016-12-04T08:38:01.000Z</time>
      </trkpt>
      <trkpt lat="47.52476" lon="6.77474">
        <ele>393</ele>
        <time>2016-12-04T08:38:02.000Z</time>
      </trkpt>
      <trkpt lat="47.5248" lon="6.77473">
        <ele>393</ele>
        <time>2016-12-04T08:38:03.000Z</time>
      </trkpt>
      <trkpt lat="47.52483" lon="6.77473">
        <ele>393</ele>
        <time>2016-12-04T08:38:04.000Z</time>
      </trkpt>
      <trkpt lat="47.52486" lon="6.77474">
        <ele>393</ele>
        <time>2016-12-04T08:38:05.000Z</time>
      </trkpt>
      <trkpt lat="47.52489" lon="6.77475">
        <ele>393</ele>
        <time>2016-12-04T08:38:06.000Z</time>
      </trkpt>
      <trkpt lat="47.52492" lon="6.77475">
        <ele>393</ele>
        <time>2016-12-04T08:38:07.000Z</time>
      </trkpt>
      <trkpt lat="47.52495" lon="6.77476">
        <ele>393</ele>
        <time>2016-12-04T08:38:08.000Z</time>
      </trkpt>
      <trkpt lat="47.52498" lon="6.77477">
        <ele>394</ele>
        <time>2016-12-04T08:38:09.000Z</time>
      </trkpt>
      <trkpt lat="47.52501" lon="6.77479">
        <ele>394</ele>
        <time>2016-12-04T08:38:10.000Z</time>
      </trkpt>
      <trkpt lat="47.52505" lon="6.7748">
        <ele>394</ele>
        <time>2016-12-04T08:38:12.000Z</time>
      </trkpt>
      <trkpt lat="47.52508" lon="6.7748">
        <ele>394</ele>
        <time>2016-12-04T08:38:13.000Z</time>
      </trkpt>
      <trkpt lat="47.52512" lon="6.77481">
        <ele>394</ele>
        <time>2016-12-04T08:38:15.000Z</time>
      </trkpt>
      <trkpt lat="47.52514" lon="6.77482">
        <ele>394</ele>
        <time>2016-12-04T08:38:16.000Z</time>
      </trkpt>
      <trkpt lat="47.52517" lon="6.77482">
        <ele>394</ele>
        <time>2016-12-04T08:38:17.000Z</time>
      </trkpt>
      <trkpt lat="47.5252" lon="6.77482">
        <ele>394</ele>
        <time>2016-12-04T08:38:18.000Z</time>
      </trkpt>
      <trkpt lat="47.52523" lon="6.77481">
        <ele>394</ele>
        <time>2016-12-04T08:38:19.000Z</time>
      </trkpt>
      <trkpt lat="47.52526" lon="6.7748">
        <ele>394</ele>
        <time>2016-12-04T08:38:20.000Z</time>
      </trkpt>
      <trkpt lat="47.52528" lon="6.77479">
        <ele>394</ele>
        <time>2016-12-04T08:38:21.000Z</time>
      </trkpt>
      <trkpt lat="47.52531" lon="6.77478">
        <ele>394</ele>
        <time>2016-12-04T08:38:22.000Z</time>
      </trkpt>
      <trkpt lat="47.52533" lon="6.77476">
        <ele>394</ele>
        <time>2016-12-04T08:38:23.000Z</time>
      </trkpt>
      <trkpt lat="47.52537" lon="6.77476">
        <ele>394</ele>
        <time>2016-12-04T08:38:24.000Z</time>
      </trkpt>
      <trkpt lat="47.5254" lon="6.77476">
        <ele>394</ele>
        <time>2016-12-04T08:38:25.000Z</time>
      </trkpt>
      <trkpt lat="47.52543" lon="6.77476">
        <ele>394</ele>
        <time>2016-12-04T08:38:26.000Z</time>
      </trkpt>
      <trkpt lat="47.52546" lon="6.77476">
        <ele>394</ele>
        <time>2016-12-04T08:38:27.000Z</time>
      </trkpt>
      <trkpt lat="47.5255" lon="6.77478">
        <ele>394</ele>
        <time>2016-12-04T08:38:28.000Z</time>
      </trkpt>
      <trkpt lat="47.52553" lon="6.77479">
        <ele>394</ele>
        <time>2016-12-04T08:38:29.000Z</time>
      </trkpt>
      <trkpt lat="47.52556" lon="6.77479">
        <ele>394</ele>
        <time>2016-12-04T08:38:30.000Z</time>
      </trkpt>
      <trkpt lat="47.52559" lon="6.7748">
        <ele>395</ele>
        <time>2016-12-04T08:38:31.000Z</time>
      </trkpt>
      <trkpt lat="47.52562" lon="6.77481">
        <ele>395</ele>
        <time>2016-12-04T08:38:32.000Z</time>
      </trkpt>
      <trkpt lat="47.52565" lon="6.77482">
        <ele>395</ele>
        <time>2016-12-04T08:38:33.000Z</time>
      </trkpt>
      <trkpt lat="47.52568" lon="6.77482">
        <ele>395</ele>
        <time>2016-12-04T08:38:34.000Z</time>
      </trkpt>
      <trkpt lat="47.5257" lon="6.77483">
        <ele>395</ele>
        <time>2016-12-04T08:38:35.000Z</time>
      </trkpt>
      <trkpt lat="47.52573" lon="6.77483">
        <ele>395</ele>
        <time>2016-12-04T08:38:36.000Z</time>
      </trkpt>
      <trkpt lat="47.52576" lon="6.77485">
        <ele>395</ele>
        <time>2016-12-04T08:38:37.000Z</time>
      </trkpt>
      <trkpt lat="47.52579" lon="6.77486">
        <ele>395</ele>
        <time>2016-12-04T08:38:38.000Z</time>
      </trkpt>
      <trkpt lat="47.52581" lon="6.77486">
        <ele>396</ele>
        <time>2016-12-04T08:38:39.000Z</time>
      </trkpt>
      <trkpt lat="47.52584" lon="6.77486">
        <ele>397</ele>
        <time>2016-12-04T08:38:40.000Z</time>
      </trkpt>
      <trkpt lat="47.52588" lon="6.77487">
        <ele>397</ele>
        <time>2016-12-04T08:38:41.000Z</time>
      </trkpt>
      <trkpt lat="47.52592" lon="6.77489">
        <ele>397</ele>
        <time>2016-12-04T08:38:42.000Z</time>
      </trkpt>
      <trkpt lat="47.52595" lon="6.77491">
        <ele>397</ele>
        <time>2016-12-04T08:38:43.000Z</time>
      </trkpt>
      <trkpt lat="47.52599" lon="6.77493">
        <ele>397</ele>
        <time>2016-12-04T08:38:44.000Z</time>
      </trkpt>
      <trkpt lat="47.52601" lon="6.77496">
        <ele>397</ele>
        <time>2016-12-04T08:38:45.000Z</time>
      </trkpt>
      <trkpt lat="47.52604" lon="6.77498">
        <ele>397</ele>
        <time>2016-12-04T08:38:46.000Z</time>
      </trkpt>
      <trkpt lat="47.52608" lon="6.77499">
        <ele>397</ele>
        <time>2016-12-04T08:38:48.000Z</time>
      </trkpt>
      <trkpt lat="47.5261" lon="6.77498">
        <ele>397</ele>
        <time>2016-12-04T08:38:49.000Z</time>
      </trkpt>
      <trkpt lat="47.52612" lon="6.77496">
        <ele>397</ele>
        <time>2016-12-04T08:38:50.000Z</time>
      </trkpt>
      <trkpt lat="47.52615" lon="6.77492">
        <ele>397</ele>
        <time>2016-12-04T08:38:51.000Z</time>
      </trkpt>
      <trkpt lat="47.52617" lon="6.77488">
        <ele>397</ele>
        <time>2016-12-04T08:38:52.000Z</time>
      </trkpt>
      <trkpt lat="47.5262" lon="6.77483">
        <ele>397</ele>
        <time>2016-12-04T08:38:53.000Z</time>
      </trkpt>
      <trkpt lat="47.52622" lon="6.77479">
        <ele>397</ele>
        <time>2016-12-04T08:38:54.000Z</time>
      </trkpt>
      <trkpt lat="47.52624" lon="6.77475">
        <ele>397</ele>
        <time>2016-12-04T08:38:55.000Z</time>
      </trkpt>
      <trkpt lat="47.52627" lon="6.7747">
        <ele>397</ele>
        <time>2016-12-04T08:38:56.000Z</time>
      </trkpt>
      <trkpt lat="47.52628" lon="6.77465">
        <ele>397</ele>
        <time>2016-12-04T08:38:57.000Z</time>
      </trkpt>
      <trkpt lat="47.52631" lon="6.77461">
        <ele>397</ele>
        <time>2016-12-04T08:38:58.000Z</time>
      </trkpt>
      <trkpt lat="47.52635" lon="6.77456">
        <ele>397</ele>
        <time>2016-12-04T08:38:59.000Z</time>
      </trkpt>
      <trkpt lat="47.52637" lon="6.77454">
        <ele>397</ele>
        <time>2016-12-04T08:39:00.000Z</time>
      </trkpt>
      <trkpt lat="47.5264" lon="6.77452">
        <ele>397</ele>
        <time>2016-12-04T08:39:01.000Z</time>
      </trkpt>
      <trkpt lat="47.52644" lon="6.77451">
        <ele>398</ele>
        <time>2016-12-04T08:39:02.000Z</time>
      </trkpt>
      <trkpt lat="47.52648" lon="6.77449">
        <ele>398</ele>
        <time>2016-12-04T08:39:03.000Z</time>
      </trkpt>
      <trkpt lat="47.52652" lon="6.77448">
        <ele>398</ele>
        <time>2016-12-04T08:39:04.000Z</time>
      </trkpt>
      <trkpt lat="47.52656" lon="6.77448">
        <ele>398</ele>
        <time>2016-12-04T08:39:05.000Z</time>
      </trkpt>
      <trkpt lat="47.5266" lon="6.77448">
        <ele>398</ele>
        <time>2016-12-04T08:39:06.000Z</time>
      </trkpt>
      <trkpt lat="47.52663" lon="6.77447">
        <ele>398</ele>
        <time>2016-12-04T08:39:07.000Z</time>
      </trkpt>
      <trkpt lat="47.52666" lon="6.77445">
        <ele>398</ele>
        <time>2016-12-04T08:39:08.000Z</time>
      </trkpt>
      <trkpt lat="47.52668" lon="6.77446">
        <ele>400</ele>
        <time>2016-12-04T08:39:09.000Z</time>
      </trkpt>
      <trkpt lat="47.5267" lon="6.77448">
        <ele>400</ele>
        <time>2016-12-04T08:39:10.000Z</time>
      </trkpt>
      <trkpt lat="47.52674" lon="6.7745">
        <ele>400</ele>
        <time>2016-12-04T08:39:11.000Z</time>
      </trkpt>
      <trkpt lat="47.52678" lon="6.77452">
        <ele>400</ele>
        <time>2016-12-04T08:39:12.000Z</time>
      </trkpt>
      <trkpt lat="47.52681" lon="6.77454">
        <ele>400</ele>
        <time>2016-12-04T08:39:13.000Z</time>
      </trkpt>
      <trkpt lat="47.52684" lon="6.77456">
        <ele>400</ele>
        <time>2016-12-04T08:39:14.000Z</time>
      </trkpt>
      <trkpt lat="47.52687" lon="6.77457">
        <ele>400</ele>
        <time>2016-12-04T08:39:15.000Z</time>
      </trkpt>
      <trkpt lat="47.5269" lon="6.77459">
        <ele>400</ele>
        <time>2016-12-04T08:39:16.000Z</time>
      </trkpt>
      <trkpt lat="47.52692" lon="6.7746">
        <ele>400</ele>
        <time>2016-12-04T08:39:17.000Z</time>
      </trkpt>
      <trkpt lat="47.52694" lon="6.77462">
        <ele>400</ele>
        <time>2016-12-04T08:39:18.000Z</time>
      </trkpt>
      <trkpt lat="47.52697" lon="6.77463">
        <ele>400</ele>
        <time>2016-12-04T08:39:19.000Z</time>
      </trkpt>
      <trkpt lat="47.52701" lon="6.77465">
        <ele>400</ele>
        <time>2016-12-04T08:39:20.000Z</time>
      </trkpt>
      <trkpt lat="47.52703" lon="6.77468">
        <ele>400</ele>
        <time>2016-12-04T08:39:21.000Z</time>
      </trkpt>
      <trkpt lat="47.52706" lon="6.77471">
        <ele>400</ele>
        <time>2016-12-04T08:39:22.000Z</time>
      </trkpt>
      <trkpt lat="47.52709" lon="6.77474">
        <ele>400</ele>
        <time>2016-12-04T08:39:23.000Z</time>
      </trkpt>
      <trkpt lat="47.52711" lon="6.77477">
        <ele>400</ele>
        <time>2016-12-04T08:39:24.000Z</time>
      </trkpt>
      <trkpt lat="47.52713" lon="6.77478">
        <ele>400</ele>
        <time>2016-12-04T08:39:25.000Z</time>
      </trkpt>
      <trkpt lat="47.52717" lon="6.77479">
        <ele>400</ele>
        <time>2016-12-04T08:39:26.000Z</time>
      </trkpt>
      <trkpt lat="47.52721" lon="6.77481">
        <ele>400</ele>
        <time>2016-12-04T08:39:27.000Z</time>
      </trkpt>
      <trkpt lat="47.52724" lon="6.77483">
        <ele>400</ele>
        <time>2016-12-04T08:39:28.000Z</time>
      </trkpt>
      <trkpt lat="47.52726" lon="6.77486">
        <ele>400</ele>
        <time>2016-12-04T08:39:29.000Z</time>
      </trkpt>
      <trkpt lat="47.5273" lon="6.77489">
        <ele>400</ele>
        <time>2016-12-04T08:39:30.000Z</time>
      </trkpt>
      <trkpt lat="47.52733" lon="6.77492">
        <ele>400</ele>
        <time>2016-12-04T08:39:31.000Z</time>
      </trkpt>
      <trkpt lat="47.52736" lon="6.77494">
        <ele>400</ele>
        <time>2016-12-04T08:39:32.000Z</time>
      </trkpt>
      <trkpt lat="47.52738" lon="6.77496">
        <ele>400</ele>
        <time>2016-12-04T08:39:33.000Z</time>
      </trkpt>
      <trkpt lat="47.5274" lon="6.77497">
        <ele>400</ele>
        <time>2016-12-04T08:39:34.000Z</time>
      </trkpt>
      <trkpt lat="47.52743" lon="6.77498">
        <ele>400</ele>
        <time>2016-12-04T08:39:35.000Z</time>
      </trkpt>
      <trkpt lat="47.52746" lon="6.77499">
        <ele>400</ele>
        <time>2016-12-04T08:39:36.000Z</time>
      </trkpt>
      <trkpt lat="47.52749" lon="6.77501">
        <ele>400</ele>
        <time>2016-12-04T08:39:37.000Z</time>
      </trkpt>
      <trkpt lat="47.52752" lon="6.77503">
        <ele>400</ele>
        <time>2016-12-04T08:39:38.000Z</time>
      </trkpt>
      <trkpt lat="47.52754" lon="6.77506">
        <ele>400</ele>
        <time>2016-12-04T08:39:39.000Z</time>
      </trkpt>
      <trkpt lat="47.52758" lon="6.7751">
        <ele>400</ele>
        <time>2016-12-04T08:39:40.000Z</time>
      </trkpt>
      <trkpt lat="47.5276" lon="6.77513">
        <ele>400</ele>
        <time>2016-12-04T08:39:41.000Z</time>
      </trkpt>
      <trkpt lat="47.52762" lon="6.77517">
        <ele>400</ele>
        <time>2016-12-04T08:39:42.000Z</time>
      </trkpt>
      <trkpt lat="47.52764" lon="6.7752">
        <ele>400</ele>
        <time>2016-12-04T08:39:43.000Z</time>
      </trkpt>
      <trkpt lat="47.52767" lon="6.77523">
        <ele>400</ele>
        <time>2016-12-04T08:39:44.000Z</time>
      </trkpt>
      <trkpt lat="47.5277" lon="6.77525">
        <ele>400</ele>
        <time>2016-12-04T08:39:45.000Z</time>
      </trkpt>
      <trkpt lat="47.52773" lon="6.77527">
        <ele>400</ele>
        <time>2016-12-04T08:39:46.000Z</time>
      </trkpt>
      <trkpt lat="47.52776" lon="6.77528">
        <ele>400</ele>
        <time>2016-12-04T08:39:47.000Z</time>
      </trkpt>
      <trkpt lat="47.52778" lon="6.77529">
        <ele>400</ele>
        <time>2016-12-04T08:39:48.000Z</time>
      </trkpt>
      <trkpt lat="47.52781" lon="6.77531">
        <ele>400</ele>
        <time>2016-12-04T08:39:49.000Z</time>
      </trkpt>
      <trkpt lat="47.52786" lon="6.77533">
        <ele>400</ele>
        <time>2016-12-04T08:39:50.000Z</time>
      </trkpt>
      <trkpt lat="47.52791" lon="6.77535">
        <ele>400</ele>
        <time>2016-12-04T08:39:51.000Z</time>
      </trkpt>
      <trkpt lat="47.52796" lon="6.77538">
        <ele>400</ele>
        <time>2016-12-04T08:39:52.000Z</time>
      </trkpt>
      <trkpt lat="47.52801" lon="6.7754">
        <ele>400</ele>
        <time>2016-12-04T08:39:53.000Z</time>
      </trkpt>
      <trkpt lat="47.52805" lon="6.77543">
        <ele>400</ele>
        <time>2016-12-04T08:39:54.000Z</time>
      </trkpt>
      <trkpt lat="47.52807" lon="6.77544">
        <ele>400</ele>
        <time>2016-12-04T08:39:55.000Z</time>
      </trkpt>
      <trkpt lat="47.5281" lon="6.77547">
        <ele>400</ele>
        <time>2016-12-04T08:39:56.000Z</time>
      </trkpt>
      <trkpt lat="47.52813" lon="6.77549">
        <ele>400</ele>
        <time>2016-12-04T08:39:57.000Z</time>
      </trkpt>
      <trkpt lat="47.52818" lon="6.7755">
        <ele>400</ele>
        <time>2016-12-04T08:39:58.000Z</time>
      </trkpt>
      <trkpt lat="47.52821" lon="6.77551">
        <ele>400</ele>
        <time>2016-12-04T08:39:59.000Z</time>
      </trkpt>
      <trkpt lat="47.52824" lon="6.77552">
        <ele>400</ele>
        <time>2016-12-04T08:40:00.000Z</time>
      </trkpt>
      <trkpt lat="47.52828" lon="6.77552">
        <ele>400</ele>
        <time>2016-12-04T08:40:01.000Z</time>
      </trkpt>
      <trkpt lat="47.52832" lon="6.77553">
        <ele>400</ele>
        <time>2016-12-04T08:40:02.000Z</time>
      </trkpt>
      <trkpt lat="47.52836" lon="6.77555">
        <ele>401</ele>
        <time>2016-12-04T08:40:03.000Z</time>
      </trkpt>
      <trkpt lat="47.52841" lon="6.77557">
        <ele>401</ele>
        <time>2016-12-04T08:40:04.000Z</time>
      </trkpt>
      <trkpt lat="47.52845" lon="6.77558">
        <ele>401</ele>
        <time>2016-12-04T08:40:05.000Z</time>
      </trkpt>
      <trkpt lat="47.52849" lon="6.77559">
        <ele>401</ele>
        <time>2016-12-04T08:40:06.000Z</time>
      </trkpt>
      <trkpt lat="47.52853" lon="6.7756">
        <ele>401</ele>
        <time>2016-12-04T08:40:07.000Z</time>
      </trkpt>
      <trkpt lat="47.52856" lon="6.77561">
        <ele>401</ele>
        <time>2016-12-04T08:40:08.000Z</time>
      </trkpt>
      <trkpt lat="47.5286" lon="6.77561">
        <ele>401</ele>
        <time>2016-12-04T08:40:09.000Z</time>
      </trkpt>
      <trkpt lat="47.52863" lon="6.77562">
        <ele>401</ele>
        <time>2016-12-04T08:40:10.000Z</time>
      </trkpt>
      <trkpt lat="47.52867" lon="6.77564">
        <ele>401</ele>
        <time>2016-12-04T08:40:11.000Z</time>
      </trkpt>
      <trkpt lat="47.52871" lon="6.77565">
        <ele>401</ele>
        <time>2016-12-04T08:40:12.000Z</time>
      </trkpt>
      <trkpt lat="47.52875" lon="6.77565">
        <ele>401</ele>
        <time>2016-12-04T08:40:13.000Z</time>
      </trkpt>
      <trkpt lat="47.52877" lon="6.77565">
        <ele>402</ele>
        <time>2016-12-04T08:40:14.000Z</time>
      </trkpt>
      <trkpt lat="47.5288" lon="6.77565">
        <ele>402</ele>
        <time>2016-12-04T08:40:15.000Z</time>
      </trkpt>
      <trkpt lat="47.52884" lon="6.77566">
        <ele>402</ele>
        <time>2016-12-04T08:40:16.000Z</time>
      </trkpt>
      <trkpt lat="47.52888" lon="6.77567">
        <ele>402</ele>
        <time>2016-12-04T08:40:17.000Z</time>
      </trkpt>
      <trkpt lat="47.52891" lon="6.77568">
        <ele>402</ele>
        <time>2016-12-04T08:40:18.000Z</time>
      </trkpt>
      <trkpt lat="47.52895" lon="6.77568">
        <ele>402</ele>
        <time>2016-12-04T08:40:19.000Z</time>
      </trkpt>
      <trkpt lat="47.52899" lon="6.77569">
        <ele>402</ele>
        <time>2016-12-04T08:40:20.000Z</time>
      </trkpt>
      <trkpt lat="47.52902" lon="6.77569">
        <ele>402</ele>
        <time>2016-12-04T08:40:21.000Z</time>
      </trkpt>
      <trkpt lat="47.52906" lon="6.77569">
        <ele>402</ele>
        <time>2016-12-04T08:40:22.000Z</time>
      </trkpt>
      <trkpt lat="47.5291" lon="6.77567">
        <ele>402</ele>
        <time>2016-12-04T08:40:23.000Z</time>
      </trkpt>
      <trkpt lat="47.52914" lon="6.77566">
        <ele>402</ele>
        <time>2016-12-04T08:40:24.000Z</time>
      </trkpt>
      <trkpt lat="47.52919" lon="6.77566">
        <ele>403</ele>
        <time>2016-12-04T08:40:25.000Z</time>
      </trkpt>
      <trkpt lat="47.52924" lon="6.77566">
        <ele>403</ele>
        <time>2016-12-04T08:40:26.000Z</time>
      </trkpt>
      <trkpt lat="47.52929" lon="6.77566">
        <ele>403</ele>
        <time>2016-12-04T08:40:27.000Z</time>
      </trkpt>
      <trkpt lat="47.52934" lon="6.77567">
        <ele>403</ele>
        <time>2016-12-04T08:40:28.000Z</time>
      </trkpt>
      <trkpt lat="47.52939" lon="6.77568">
        <ele>403</ele>
        <time>2016-12-04T08:40:29.000Z</time>
      </trkpt>
      <trkpt lat="47.52944" lon="6.77571">
        <ele>403</ele>
        <time>2016-12-04T08:40:30.000Z</time>
      </trkpt>
      <trkpt lat="47.52949" lon="6.77573">
        <ele>403</ele>
        <time>2016-12-04T08:40:31.000Z</time>
      </trkpt>
      <trkpt lat="47.52953" lon="6.77574">
        <ele>403</ele>
        <time>2016-12-04T08:40:32.000Z</time>
      </trkpt>
      <trkpt lat="47.52956" lon="6.77575">
        <ele>403</ele>
        <time>2016-12-04T08:40:33.000Z</time>
      </trkpt>
      <trkpt lat="47.5296" lon="6.77578">
        <ele>403</ele>
        <time>2016-12-04T08:40:34.000Z</time>
      </trkpt>
      <trkpt lat="47.52964" lon="6.77579">
        <ele>403</ele>
        <time>2016-12-04T08:40:35.000Z</time>
      </trkpt>
      <trkpt lat="47.52967" lon="6.77581">
        <ele>404</ele>
        <time>2016-12-04T08:40:36.000Z</time>
      </trkpt>
      <trkpt lat="47.52971" lon="6.77583">
        <ele>404</ele>
        <time>2016-12-04T08:40:37.000Z</time>
      </trkpt>
      <trkpt lat="47.52974" lon="6.77584">
        <ele>403</ele>
        <time>2016-12-04T08:40:38.000Z</time>
      </trkpt>
      <trkpt lat="47.52978" lon="6.77584">
        <ele>403</ele>
        <time>2016-12-04T08:40:39.000Z</time>
      </trkpt>
      <trkpt lat="47.52981" lon="6.77583">
        <ele>404</ele>
        <time>2016-12-04T08:40:40.000Z</time>
      </trkpt>
      <trkpt lat="47.52984" lon="6.77583">
        <ele>404</ele>
        <time>2016-12-04T08:40:41.000Z</time>
      </trkpt>
      <trkpt lat="47.52987" lon="6.77585">
        <ele>404</ele>
        <time>2016-12-04T08:40:42.000Z</time>
      </trkpt>
      <trkpt lat="47.5299" lon="6.77586">
        <ele>404</ele>
        <time>2016-12-04T08:40:43.000Z</time>
      </trkpt>
      <trkpt lat="47.52994" lon="6.77588">
        <ele>404</ele>
        <time>2016-12-04T08:40:44.000Z</time>
      </trkpt>
      <trkpt lat="47.52998" lon="6.7759">
        <ele>404</ele>
        <time>2016-12-04T08:40:45.000Z</time>
      </trkpt>
      <trkpt lat="47.53001" lon="6.77591">
        <ele>405</ele>
        <time>2016-12-04T08:40:46.000Z</time>
      </trkpt>
      <trkpt lat="47.53004" lon="6.77592">
        <ele>404</ele>
        <time>2016-12-04T08:40:47.000Z</time>
      </trkpt>
      <trkpt lat="47.53008" lon="6.77593">
        <ele>404</ele>
        <time>2016-12-04T08:40:48.000Z</time>
      </trkpt>
      <trkpt lat="47.53011" lon="6.77591">
        <ele>404</ele>
        <time>2016-12-04T08:40:59.000Z</time>
      </trkpt>
      <trkpt lat="47.53012" lon="6.7759">
        <ele>404</ele>
        <time>2016-12-04T08:41:00.000Z</time>
      </trkpt>
      <trkpt lat="47.53016" lon="6.7759">
        <ele>404</ele>
        <time>2016-12-04T08:41:10.000Z</time>
      </trkpt>
      <trkpt lat="47.53016" lon="6.77591">
        <ele>404</ele>
        <time>2016-12-04T08:41:11.000Z</time>
      </trkpt>
      <trkpt lat="47.53019" lon="6.77593">
        <ele>404</ele>
        <time>2016-12-04T08:41:13.000Z</time>
      </trkpt>
      <trkpt lat="47.53021" lon="6.77593">
        <ele>404</ele>
        <time>2016-12-04T08:41:14.000Z</time>
      </trkpt>
      <trkpt lat="47.53025" lon="6.77595">
        <ele>404</ele>
        <time>2016-12-04T08:41:16.000Z</time>
      </trkpt>
      <trkpt lat="47.53027" lon="6.77595">
        <ele>404</ele>
        <time>2016-12-04T08:41:17.000Z</time>
      </trkpt>
      <trkpt lat="47.53029" lon="6.77595">
        <ele>404</ele>
        <time>2016-12-04T08:41:19.000Z</time>
      </trkpt>
      <trkpt lat="47.53032" lon="6.77596">
        <ele>404</ele>
        <time>2016-12-04T08:41:20.000Z</time>
      </trkpt>
      <trkpt lat="47.53035" lon="6.77596">
        <ele>404</ele>
        <time>2016-12-04T08:41:21.000Z</time>
      </trkpt>
      <trkpt lat="47.53039" lon="6.77597">
        <ele>404</ele>
        <time>2016-12-04T08:41:22.000Z</time>
      </trkpt>
      <trkpt lat="47.53044" lon="6.77598">
        <ele>404</ele>
        <time>2016-12-04T08:41:23.000Z</time>
      </trkpt>
      <trkpt lat="47.53049" lon="6.77599">
        <ele>404</ele>
        <time>2016-12-04T08:41:24.000Z</time>
      </trkpt>
      <trkpt lat="47.53053" lon="6.77599">
        <ele>404</ele>
        <time>2016-12-04T08:41:25.000Z</time>
      </trkpt>
      <trkpt lat="47.53056" lon="6.77599">
        <ele>404</ele>
        <time>2016-12-04T08:41:26.000Z</time>
      </trkpt>
      <trkpt lat="47.5306" lon="6.77599">
        <ele>404</ele>
        <time>2016-12-04T08:41:27.000Z</time>
      </trkpt>
      <trkpt lat="47.53063" lon="6.77598">
        <ele>404</ele>
        <time>2016-12-04T08:41:28.000Z</time>
      </trkpt>
      <trkpt lat="47.53066" lon="6.77598">
        <ele>405</ele>
        <time>2016-12-04T08:41:29.000Z</time>
      </trkpt>
      <trkpt lat="47.5307" lon="6.77599">
        <ele>405</ele>
        <time>2016-12-04T08:41:30.000Z</time>
      </trkpt>
      <trkpt lat="47.53074" lon="6.776">
        <ele>405</ele>
        <time>2016-12-04T08:41:31.000Z</time>
      </trkpt>
      <trkpt lat="47.53078" lon="6.776">
        <ele>405</ele>
        <time>2016-12-04T08:41:32.000Z</time>
      </trkpt>
      <trkpt lat="47.53082" lon="6.77601">
        <ele>405</ele>
        <time>2016-12-04T08:41:33.000Z</time>
      </trkpt>
      <trkpt lat="47.53087" lon="6.77601">
        <ele>405</ele>
        <time>2016-12-04T08:41:34.000Z</time>
      </trkpt>
      <trkpt lat="47.53091" lon="6.77602">
        <ele>405</ele>
        <time>2016-12-04T08:41:35.000Z</time>
      </trkpt>
      <trkpt lat="47.53094" lon="6.77603">
        <ele>405</ele>
        <time>2016-12-04T08:41:36.000Z</time>
      </trkpt>
      <trkpt lat="47.53098" lon="6.77605">
        <ele>405</ele>
        <time>2016-12-04T08:41:37.000Z</time>
      </trkpt>
      <trkpt lat="47.53101" lon="6.77605">
        <ele>405</ele>
        <time>2016-12-04T08:41:38.000Z</time>
      </trkpt>
      <trkpt lat="47.53105" lon="6.77606">
        <ele>405</ele>
        <time>2016-12-04T08:41:39.000Z</time>
      </trkpt>
      <trkpt lat="47.53109" lon="6.77607">
        <ele>405</ele>
        <time>2016-12-04T08:41:40.000Z</time>
      </trkpt>
      <trkpt lat="47.53114" lon="6.77607">
        <ele>405</ele>
        <time>2016-12-04T08:41:41.000Z</time>
      </trkpt>
      <trkpt lat="47.53117" lon="6.77605">
        <ele>405</ele>
        <time>2016-12-04T08:41:42.000Z</time>
      </trkpt>
      <trkpt lat="47.53122" lon="6.77601">
        <ele>405</ele>
        <time>2016-12-04T08:41:43.000Z</time>
      </trkpt>
      <trkpt lat="47.53127" lon="6.77598">
        <ele>405</ele>
        <time>2016-12-04T08:41:44.000Z</time>
      </trkpt>
      <trkpt lat="47.53131" lon="6.77595">
        <ele>405</ele>
        <time>2016-12-04T08:41:45.000Z</time>
      </trkpt>
      <trkpt lat="47.53137" lon="6.77593">
        <ele>404</ele>
        <time>2016-12-04T08:41:46.000Z</time>
      </trkpt>
      <trkpt lat="47.53141" lon="6.7759">
        <ele>404</ele>
        <time>2016-12-04T08:41:47.000Z</time>
      </trkpt>
      <trkpt lat="47.53145" lon="6.77586">
        <ele>404</ele>
        <time>2016-12-04T08:41:48.000Z</time>
      </trkpt>
      <trkpt lat="47.5315" lon="6.77583">
        <ele>402</ele>
        <time>2016-12-04T08:41:49.000Z</time>
      </trkpt>
      <trkpt lat="47.53155" lon="6.77579">
        <ele>402</ele>
        <time>2016-12-04T08:41:50.000Z</time>
      </trkpt>
      <trkpt lat="47.53159" lon="6.77574">
        <ele>402</ele>
        <time>2016-12-04T08:41:51.000Z</time>
      </trkpt>
      <trkpt lat="47.53162" lon="6.77568">
        <ele>402</ele>
        <time>2016-12-04T08:41:52.000Z</time>
      </trkpt>
      <trkpt lat="47.53167" lon="6.77562">
        <ele>399</ele>
        <time>2016-12-04T08:41:53.000Z</time>
      </trkpt>
      <trkpt lat="47.53172" lon="6.77555">
        <ele>398</ele>
        <time>2016-12-04T08:41:54.000Z</time>
      </trkpt>
      <trkpt lat="47.53177" lon="6.77549">
        <ele>397</ele>
        <time>2016-12-04T08:41:55.000Z</time>
      </trkpt>
      <trkpt lat="47.53184" lon="6.77544">
        <ele>397</ele>
        <time>2016-12-04T08:41:56.000Z</time>
      </trkpt>
      <trkpt lat="47.53191" lon="6.77536">
        <ele>396</ele>
        <time>2016-12-04T08:41:57.000Z</time>
      </trkpt>
      <trkpt lat="47.53197" lon="6.77528">
        <ele>395</ele>
        <time>2016-12-04T08:41:58.000Z</time>
      </trkpt>
      <trkpt lat="47.53203" lon="6.77522">
        <ele>395</ele>
        <time>2016-12-04T08:41:59.000Z</time>
      </trkpt>
      <trkpt lat="47.53207" lon="6.77515">
        <ele>395</ele>
        <time>2016-12-04T08:42:00.000Z</time>
      </trkpt>
      <trkpt lat="47.53211" lon="6.77506">
        <ele>394</ele>
        <time>2016-12-04T08:42:01.000Z</time>
      </trkpt>
      <trkpt lat="47.53214" lon="6.77496">
        <ele>390</ele>
        <time>2016-12-04T08:42:02.000Z</time>
      </trkpt>
      <trkpt lat="47.53217" lon="6.77487">
        <ele>390</ele>
        <time>2016-12-04T08:42:03.000Z</time>
      </trkpt>
      <trkpt lat="47.53222" lon="6.77477">
        <ele>389</ele>
        <time>2016-12-04T08:42:04.000Z</time>
      </trkpt>
      <trkpt lat="47.53226" lon="6.77468">
        <ele>389</ele>
        <time>2016-12-04T08:42:05.000Z</time>
      </trkpt>
      <trkpt lat="47.53232" lon="6.77456">
        <ele>389</ele>
        <time>2016-12-04T08:42:06.000Z</time>
      </trkpt>
      <trkpt lat="47.53238" lon="6.77446">
        <ele>388</ele>
        <time>2016-12-04T08:42:07.000Z</time>
      </trkpt>
      <trkpt lat="47.53243" lon="6.77436">
        <ele>388</ele>
        <time>2016-12-04T08:42:08.000Z</time>
      </trkpt>
      <trkpt lat="47.53248" lon="6.77425">
        <ele>387</ele>
        <time>2016-12-04T08:42:09.000Z</time>
      </trkpt>
      <trkpt lat="47.53253" lon="6.77416">
        <ele>386</ele>
        <time>2016-12-04T08:42:10.000Z</time>
      </trkpt>
      <trkpt lat="47.53258" lon="6.7741">
        <ele>384</ele>
        <time>2016-12-04T08:42:11.000Z</time>
      </trkpt>
      <trkpt lat="47.53264" lon="6.77406">
        <ele>383</ele>
        <time>2016-12-04T08:42:12.000Z</time>
      </trkpt>
      <trkpt lat="47.5327" lon="6.77399">
        <ele>382</ele>
        <time>2016-12-04T08:42:13.000Z</time>
      </trkpt>
      <trkpt lat="47.53276" lon="6.77392">
        <ele>381</ele>
        <time>2016-12-04T08:42:14.000Z</time>
      </trkpt>
      <trkpt lat="47.5328" lon="6.77384">
        <ele>380</ele>
        <time>2016-12-04T08:42:15.000Z</time>
      </trkpt>
      <trkpt lat="47.53285" lon="6.77375">
        <ele>379</ele>
        <time>2016-12-04T08:42:16.000Z</time>
      </trkpt>
      <trkpt lat="47.53288" lon="6.77365">
        <ele>379</ele>
        <time>2016-12-04T08:42:17.000Z</time>
      </trkpt>
      <trkpt lat="47.53292" lon="6.77355">
        <ele>378</ele>
        <time>2016-12-04T08:42:18.000Z</time>
      </trkpt>
      <trkpt lat="47.53297" lon="6.77346">
        <ele>377</ele>
        <time>2016-12-04T08:42:19.000Z</time>
      </trkpt>
      <trkpt lat="47.53301" lon="6.77336">
        <ele>377</ele>
        <time>2016-12-04T08:42:20.000Z</time>
      </trkpt>
      <trkpt lat="47.53309" lon="6.77327">
        <ele>371</ele>
        <time>2016-12-04T08:42:21.000Z</time>
      </trkpt>
      <trkpt lat="47.53315" lon="6.77321">
        <ele>371</ele>
        <time>2016-12-04T08:42:22.000Z</time>
      </trkpt>
      <trkpt lat="47.5332" lon="6.77316">
        <ele>370</ele>
        <time>2016-12-04T08:42:23.000Z</time>
      </trkpt>
      <trkpt lat="47.53326" lon="6.77313">
        <ele>370</ele>
        <time>2016-12-04T08:42:24.000Z</time>
      </trkpt>
      <trkpt lat="47.53332" lon="6.77309">
        <ele>370</ele>
        <time>2016-12-04T08:42:25.000Z</time>
      </trkpt>
      <trkpt lat="47.53338" lon="6.77301">
        <ele>368</ele>
        <time>2016-12-04T08:42:26.000Z</time>
      </trkpt>
      <trkpt lat="47.53343" lon="6.77291">
        <ele>367</ele>
        <time>2016-12-04T08:42:27.000Z</time>
      </trkpt>
      <trkpt lat="47.53347" lon="6.77279">
        <ele>366</ele>
        <time>2016-12-04T08:42:28.000Z</time>
      </trkpt>
      <trkpt lat="47.53351" lon="6.77269">
        <ele>366</ele>
        <time>2016-12-04T08:42:29.000Z</time>
      </trkpt>
      <trkpt lat="47.53354" lon="6.7726">
        <ele>366</ele>
        <time>2016-12-04T08:42:30.000Z</time>
      </trkpt>
      <trkpt lat="47.53356" lon="6.77255">
        <ele>366</ele>
        <time>2016-12-04T08:42:31.000Z</time>
      </trkpt>
      <trkpt lat="47.53358" lon="6.77247">
        <ele>365</ele>
        <time>2016-12-04T08:42:32.000Z</time>
      </trkpt>
      <trkpt lat="47.53361" lon="6.77241">
        <ele>365</ele>
        <time>2016-12-04T08:42:33.000Z</time>
      </trkpt>
      <trkpt lat="47.53364" lon="6.77236">
        <ele>365</ele>
        <time>2016-12-04T08:42:34.000Z</time>
      </trkpt>
      <trkpt lat="47.53367" lon="6.77233">
        <ele>365</ele>
        <time>2016-12-04T08:42:35.000Z</time>
      </trkpt>
      <trkpt lat="47.5337" lon="6.7723">
        <ele>365</ele>
        <time>2016-12-04T08:42:36.000Z</time>
      </trkpt>
      <trkpt lat="47.53374" lon="6.77226">
        <ele>365</ele>
        <time>2016-12-04T08:42:37.000Z</time>
      </trkpt>
      <trkpt lat="47.53377" lon="6.77224">
        <ele>365</ele>
        <time>2016-12-04T08:42:38.000Z</time>
      </trkpt>
      <trkpt lat="47.53381" lon="6.7722">
        <ele>365</ele>
        <time>2016-12-04T08:42:39.000Z</time>
      </trkpt>
      <trkpt lat="47.53385" lon="6.7722">
        <ele>365</ele>
        <time>2016-12-04T08:42:41.000Z</time>
      </trkpt>
      <trkpt lat="47.53387" lon="6.77221">
        <ele>365</ele>
        <time>2016-12-04T08:42:42.000Z</time>
      </trkpt>
      <trkpt lat="47.53391" lon="6.77222">
        <ele>365</ele>
        <time>2016-12-04T08:42:43.000Z</time>
      </trkpt>
      <trkpt lat="47.53394" lon="6.77223">
        <ele>365</ele>
        <time>2016-12-04T08:42:44.000Z</time>
      </trkpt>
      <trkpt lat="47.53397" lon="6.77224">
        <ele>365</ele>
        <time>2016-12-04T08:42:45.000Z</time>
      </trkpt>
      <trkpt lat="47.53399" lon="6.77225">
        <ele>365</ele>
        <time>2016-12-04T08:42:46.000Z</time>
      </trkpt>
      <trkpt lat="47.53403" lon="6.77226">
        <ele>365</ele>
        <time>2016-12-04T08:42:48.000Z</time>
      </trkpt>
      <trkpt lat="47.53403" lon="6.77227">
        <ele>365</ele>
        <time>2016-12-04T08:42:49.000Z</time>
      </trkpt>
      <trkpt lat="47.53407" lon="6.77228">
        <ele>365</ele>
        <time>2016-12-04T08:42:52.000Z</time>
      </trkpt>
      <trkpt lat="47.53409" lon="6.77228">
        <ele>365</ele>
        <time>2016-12-04T08:42:53.000Z</time>
      </trkpt>
      <trkpt lat="47.53412" lon="6.77229">
        <ele>365</ele>
        <time>2016-12-04T08:42:55.000Z</time>
      </trkpt>
      <trkpt lat="47.53414" lon="6.77229">
        <ele>365</ele>
        <time>2016-12-04T08:42:56.000Z</time>
      </trkpt>
      <trkpt lat="47.53418" lon="6.77231">
        <ele>367</ele>
        <time>2016-12-04T08:42:59.000Z</time>
      </trkpt>
      <trkpt lat="47.5342" lon="6.77232">
        <ele>367</ele>
        <time>2016-12-04T08:43:00.000Z</time>
      </trkpt>
      <trkpt lat="47.53422" lon="6.77235">
        <ele>367</ele>
        <time>2016-12-04T08:43:01.000Z</time>
      </trkpt>
      <trkpt lat="47.53423" lon="6.77237">
        <ele>367</ele>
        <time>2016-12-04T08:43:02.000Z</time>
      </trkpt>
      <trkpt lat="47.53425" lon="6.77238">
        <ele>367</ele>
        <time>2016-12-04T08:43:10.000Z</time>
      </trkpt>
      <trkpt lat="47.53433" lon="6.77241">
        <ele>367</ele>
        <time>2016-12-04T08:43:11.000Z</time>
      </trkpt>
      <trkpt lat="47.53433" lon="6.77241">
        <ele>367</ele>
        <time>2016-12-04T08:43:13.000Z</time>
      </trkpt>
      <trkpt lat="47.53439" lon="6.77244">
        <ele>367</ele>
        <time>2016-12-04T08:43:14.000Z</time>
      </trkpt>
      <trkpt lat="47.53442" lon="6.77245">
        <ele>367</ele>
        <time>2016-12-04T08:43:16.000Z</time>
      </trkpt>
      <trkpt lat="47.53443" lon="6.77246">
        <ele>368</ele>
        <time>2016-12-04T08:43:17.000Z</time>
      </trkpt>
      <trkpt lat="47.53446" lon="6.77246">
        <ele>368</ele>
        <time>2016-12-04T08:43:21.000Z</time>
      </trkpt>
      <trkpt lat="47.53452" lon="6.77246">
        <ele>368</ele>
        <time>2016-12-04T08:43:22.000Z</time>
      </trkpt>
      <trkpt lat="47.53452" lon="6.77246">
        <ele>368</ele>
        <time>2016-12-04T08:43:26.000Z</time>
      </trkpt>
      <trkpt lat="47.5346" lon="6.77249">
        <ele>369</ele>
        <time>2016-12-04T08:43:27.000Z</time>
      </trkpt>
      <trkpt lat="47.5346" lon="6.77249">
        <ele>369</ele>
        <time>2016-12-04T08:43:30.000Z</time>
      </trkpt>
      <trkpt lat="47.53465" lon="6.77252">
        <ele>369</ele>
        <time>2016-12-04T08:43:31.000Z</time>
      </trkpt>
      <trkpt lat="47.53469" lon="6.77254">
        <ele>369</ele>
        <time>2016-12-04T08:43:33.000Z</time>
      </trkpt>
      <trkpt lat="47.53471" lon="6.77254">
        <ele>369</ele>
        <time>2016-12-04T08:43:34.000Z</time>
      </trkpt>
      <trkpt lat="47.53474" lon="6.77255">
        <ele>369</ele>
        <time>2016-12-04T08:43:36.000Z</time>
      </trkpt>
      <trkpt lat="47.53477" lon="6.77256">
        <ele>369</ele>
        <time>2016-12-04T08:43:37.000Z</time>
      </trkpt>
      <trkpt lat="47.53479" lon="6.77258">
        <ele>370</ele>
        <time>2016-12-04T08:43:39.000Z</time>
      </trkpt>
      <trkpt lat="47.53481" lon="6.77259">
        <ele>370</ele>
        <time>2016-12-04T08:43:40.000Z</time>
      </trkpt>
      <trkpt lat="47.53484" lon="6.77262">
        <ele>370</ele>
        <time>2016-12-04T08:43:42.000Z</time>
      </trkpt>
      <trkpt lat="47.53486" lon="6.77264">
        <ele>370</ele>
        <time>2016-12-04T08:43:43.000Z</time>
      </trkpt>
      <trkpt lat="47.53489" lon="6.77267">
        <ele>370</ele>
        <time>2016-12-04T08:43:46.000Z</time>
      </trkpt>
      <trkpt lat="47.5349" lon="6.77268">
        <ele>370</ele>
        <time>2016-12-04T08:43:47.000Z</time>
      </trkpt>
      <trkpt lat="47.53493" lon="6.7727">
        <ele>370</ele>
        <time>2016-12-04T08:43:52.000Z</time>
      </trkpt>
      <trkpt lat="47.53498" lon="6.77275">
        <ele>370</ele>
        <time>2016-12-04T08:43:53.000Z</time>
      </trkpt>
      <trkpt lat="47.535" lon="6.7728">
        <ele>375</ele>
        <time>2016-12-04T08:43:55.000Z</time>
      </trkpt>
      <trkpt lat="47.53502" lon="6.77282">
        <ele>375</ele>
        <time>2016-12-04T08:43:56.000Z</time>
      </trkpt>
      <trkpt lat="47.53505" lon="6.77286">
        <ele>375</ele>
        <time>2016-12-04T08:43:58.000Z</time>
      </trkpt>
      <trkpt lat="47.53506" lon="6.77288">
        <ele>375</ele>
        <time>2016-12-04T08:43:59.000Z</time>
      </trkpt>
      <trkpt lat="47.53509" lon="6.77291">
        <ele>375</ele>
        <time>2016-12-04T08:44:01.000Z</time>
      </trkpt>
      <trkpt lat="47.5351" lon="6.77294">
        <ele>375</ele>
        <time>2016-12-04T08:44:02.000Z</time>
      </trkpt>
      <trkpt lat="47.53513" lon="6.77298">
        <ele>375</ele>
        <time>2016-12-04T08:44:04.000Z</time>
      </trkpt>
      <trkpt lat="47.53513" lon="6.773">
        <ele>375</ele>
        <time>2016-12-04T08:44:05.000Z</time>
      </trkpt>
      <trkpt lat="47.53516" lon="6.77303">
        <ele>375</ele>
        <time>2016-12-04T08:44:07.000Z</time>
      </trkpt>
      <trkpt lat="47.53517" lon="6.77305">
        <ele>375</ele>
        <time>2016-12-04T08:44:08.000Z</time>
      </trkpt>
      <trkpt lat="47.53518" lon="6.77308">
        <ele>375</ele>
        <time>2016-12-04T08:44:09.000Z</time>
      </trkpt>
      <trkpt lat="47.5352" lon="6.77311">
        <ele>375</ele>
        <time>2016-12-04T08:44:10.000Z</time>
      </trkpt>
      <trkpt lat="47.53522" lon="6.77313">
        <ele>375</ele>
        <time>2016-12-04T08:44:11.000Z</time>
      </trkpt>
      <trkpt lat="47.53524" lon="6.77316">
        <ele>375</ele>
        <time>2016-12-04T08:44:12.000Z</time>
      </trkpt>
      <trkpt lat="47.53525" lon="6.7732">
        <ele>375</ele>
        <time>2016-12-04T08:44:13.000Z</time>
      </trkpt>
      <trkpt lat="47.53527" lon="6.77323">
        <ele>375</ele>
        <time>2016-12-04T08:44:14.000Z</time>
      </trkpt>
      <trkpt lat="47.53529" lon="6.77326">
        <ele>375</ele>
        <time>2016-12-04T08:44:15.000Z</time>
      </trkpt>
      <trkpt lat="47.53531" lon="6.7733">
        <ele>375</ele>
        <time>2016-12-04T08:44:16.000Z</time>
      </trkpt>
      <trkpt lat="47.53532" lon="6.77334">
        <ele>373</ele>
        <time>2016-12-04T08:44:17.000Z</time>
      </trkpt>
      <trkpt lat="47.53533" lon="6.77337">
        <ele>373</ele>
        <time>2016-12-04T08:44:18.000Z</time>
      </trkpt>
      <trkpt lat="47.53535" lon="6.7734">
        <ele>373</ele>
        <time>2016-12-04T08:44:19.000Z</time>
      </trkpt>
      <trkpt lat="47.53537" lon="6.77343">
        <ele>373</ele>
        <time>2016-12-04T08:44:20.000Z</time>
      </trkpt>
      <trkpt lat="47.53538" lon="6.77346">
        <ele>373</ele>
        <time>2016-12-04T08:44:21.000Z</time>
      </trkpt>
      <trkpt lat="47.5354" lon="6.7735">
        <ele>373</ele>
        <time>2016-12-04T08:44:22.000Z</time>
      </trkpt>
      <trkpt lat="47.53541" lon="6.77353">
        <ele>373</ele>
        <time>2016-12-04T08:44:23.000Z</time>
      </trkpt>
      <trkpt lat="47.53542" lon="6.77356">
        <ele>373</ele>
        <time>2016-12-04T08:44:24.000Z</time>
      </trkpt>
      <trkpt lat="47.53544" lon="6.77359">
        <ele>374</ele>
        <time>2016-12-04T08:44:25.000Z</time>
      </trkpt>
      <trkpt lat="47.53545" lon="6.77363">
        <ele>374</ele>
        <time>2016-12-04T08:44:26.000Z</time>
      </trkpt>
      <trkpt lat="47.53547" lon="6.77365">
        <ele>374</ele>
        <time>2016-12-04T08:44:27.000Z</time>
      </trkpt>
      <trkpt lat="47.53549" lon="6.77367">
        <ele>374</ele>
        <time>2016-12-04T08:44:28.000Z</time>
      </trkpt>
      <trkpt lat="47.53551" lon="6.77369">
        <ele>374</ele>
        <time>2016-12-04T08:44:29.000Z</time>
      </trkpt>
      <trkpt lat="47.53554" lon="6.77372">
        <ele>374</ele>
        <time>2016-12-04T08:44:30.000Z</time>
      </trkpt>
      <trkpt lat="47.53557" lon="6.77375">
        <ele>374</ele>
        <time>2016-12-04T08:44:31.000Z</time>
      </trkpt>
      <trkpt lat="47.5356" lon="6.77378">
        <ele>374</ele>
        <time>2016-12-04T08:44:32.000Z</time>
      </trkpt>
      <trkpt lat="47.53562" lon="6.77381">
        <ele>374</ele>
        <time>2016-12-04T08:44:33.000Z</time>
      </trkpt>
      <trkpt lat="47.53564" lon="6.77383">
        <ele>374</ele>
        <time>2016-12-04T08:44:34.000Z</time>
      </trkpt>
      <trkpt lat="47.53566" lon="6.77385">
        <ele>374</ele>
        <time>2016-12-04T08:44:35.000Z</time>
      </trkpt>
      <trkpt lat="47.53568" lon="6.77388">
        <ele>374</ele>
        <time>2016-12-04T08:44:36.000Z</time>
      </trkpt>
      <trkpt lat="47.5357" lon="6.77391">
        <ele>374</ele>
        <time>2016-12-04T08:44:37.000Z</time>
      </trkpt>
      <trkpt lat="47.53573" lon="6.77393">
        <ele>374</ele>
        <time>2016-12-04T08:44:38.000Z</time>
      </trkpt>
      <trkpt lat="47.53576" lon="6.77396">
        <ele>374</ele>
        <time>2016-12-04T08:44:39.000Z</time>
      </trkpt>
      <trkpt lat="47.53579" lon="6.77398">
        <ele>374</ele>
        <time>2016-12-04T08:44:40.000Z</time>
      </trkpt>
      <trkpt lat="47.53581" lon="6.77401">
        <ele>374</ele>
        <time>2016-12-04T08:44:41.000Z</time>
      </trkpt>
      <trkpt lat="47.53584" lon="6.77404">
        <ele>378</ele>
        <time>2016-12-04T08:44:42.000Z</time>
      </trkpt>
      <trkpt lat="47.53587" lon="6.77407">
        <ele>378</ele>
        <time>2016-12-04T08:44:43.000Z</time>
      </trkpt>
      <trkpt lat="47.53591" lon="6.77412">
        <ele>377</ele>
        <time>2016-12-04T08:44:44.000Z</time>
      </trkpt>
      <trkpt lat="47.53594" lon="6.77414">
        <ele>377</ele>
        <time>2016-12-04T08:44:45.000Z</time>
      </trkpt>
      <trkpt lat="47.53596" lon="6.77417">
        <ele>376</ele>
        <time>2016-12-04T08:44:46.000Z</time>
      </trkpt>
      <trkpt lat="47.536" lon="6.77421">
        <ele>376</ele>
        <time>2016-12-04T08:44:47.000Z</time>
      </trkpt>
      <trkpt lat="47.53603" lon="6.77424">
        <ele>376</ele>
        <time>2016-12-04T08:44:48.000Z</time>
      </trkpt>
      <trkpt lat="47.53607" lon="6.77429">
        <ele>376</ele>
        <time>2016-12-04T08:44:49.000Z</time>
      </trkpt>
      <trkpt lat="47.53611" lon="6.77434">
        <ele>376</ele>
        <time>2016-12-04T08:44:50.000Z</time>
      </trkpt>
      <trkpt lat="47.53615" lon="6.77436">
        <ele>377</ele>
        <time>2016-12-04T08:44:51.000Z</time>
      </trkpt>
      <trkpt lat="47.53618" lon="6.77442">
        <ele>377</ele>
        <time>2016-12-04T08:44:52.000Z</time>
      </trkpt>
      <trkpt lat="47.53621" lon="6.77448">
        <ele>377</ele>
        <time>2016-12-04T08:44:53.000Z</time>
      </trkpt>
      <trkpt lat="47.53625" lon="6.77452">
        <ele>377</ele>
        <time>2016-12-04T08:44:54.000Z</time>
      </trkpt>
      <trkpt lat="47.53628" lon="6.77456">
        <ele>377</ele>
        <time>2016-12-04T08:44:55.000Z</time>
      </trkpt>
      <trkpt lat="47.53632" lon="6.7746">
        <ele>377</ele>
        <time>2016-12-04T08:44:56.000Z</time>
      </trkpt>
      <trkpt lat="47.53635" lon="6.77464">
        <ele>377</ele>
        <time>2016-12-04T08:44:57.000Z</time>
      </trkpt>
      <trkpt lat="47.53639" lon="6.77469">
        <ele>377</ele>
        <time>2016-12-04T08:44:58.000Z</time>
      </trkpt>
      <trkpt lat="47.53641" lon="6.77474">
        <ele>377</ele>
        <time>2016-12-04T08:44:59.000Z</time>
      </trkpt>
      <trkpt lat="47.53645" lon="6.7748">
        <ele>377</ele>
        <time>2016-12-04T08:45:00.000Z</time>
      </trkpt>
      <trkpt lat="47.53649" lon="6.77486">
        <ele>377</ele>
        <time>2016-12-04T08:45:01.000Z</time>
      </trkpt>
      <trkpt lat="47.53654" lon="6.7749">
        <ele>378</ele>
        <time>2016-12-04T08:45:02.000Z</time>
      </trkpt>
      <trkpt lat="47.53657" lon="6.77497">
        <ele>378</ele>
        <time>2016-12-04T08:45:03.000Z</time>
      </trkpt>
      <trkpt lat="47.53661" lon="6.77504">
        <ele>377</ele>
        <time>2016-12-04T08:45:04.000Z</time>
      </trkpt>
      <trkpt lat="47.53665" lon="6.77512">
        <ele>375</ele>
        <time>2016-12-04T08:45:05.000Z</time>
      </trkpt>
      <trkpt lat="47.53668" lon="6.77519">
        <ele>378</ele>
        <time>2016-12-04T08:45:06.000Z</time>
      </trkpt>
      <trkpt lat="47.5367" lon="6.77527">
        <ele>377</ele>
        <time>2016-12-04T08:45:07.000Z</time>
      </trkpt>
      <trkpt lat="47.53673" lon="6.77535">
        <ele>377</ele>
        <time>2016-12-04T08:45:08.000Z</time>
      </trkpt>
      <trkpt lat="47.53679" lon="6.77542">
        <ele>377</ele>
        <time>2016-12-04T08:45:09.000Z</time>
      </trkpt>
      <trkpt lat="47.53683" lon="6.77551">
        <ele>376</ele>
        <time>2016-12-04T08:45:10.000Z</time>
      </trkpt>
      <trkpt lat="47.53687" lon="6.7756">
        <ele>375</ele>
        <time>2016-12-04T08:45:11.000Z</time>
      </trkpt>
      <trkpt lat="47.53692" lon="6.77568">
        <ele>375</ele>
        <time>2016-12-04T08:45:12.000Z</time>
      </trkpt>
      <trkpt lat="47.53696" lon="6.77576">
        <ele>375</ele>
        <time>2016-12-04T08:45:13.000Z</time>
      </trkpt>
      <trkpt lat="47.53702" lon="6.77584">
        <ele>369</ele>
        <time>2016-12-04T08:45:14.000Z</time>
      </trkpt>
      <trkpt lat="47.53706" lon="6.77592">
        <ele>369</ele>
        <time>2016-12-04T08:45:15.000Z</time>
      </trkpt>
      <trkpt lat="47.53712" lon="6.77603">
        <ele>369</ele>
        <time>2016-12-04T08:45:16.000Z</time>
      </trkpt>
      <trkpt lat="47.53718" lon="6.77614">
        <ele>369</ele>
        <time>2016-12-04T08:45:17.000Z</time>
      </trkpt>
      <trkpt lat="47.53724" lon="6.77628">
        <ele>368</ele>
        <time>2016-12-04T08:45:18.000Z</time>
      </trkpt>
      <trkpt lat="47.53728" lon="6.7764">
        <ele>367</ele>
        <time>2016-12-04T08:45:19.000Z</time>
      </trkpt>
      <trkpt lat="47.53733" lon="6.77653">
        <ele>367</ele>
        <time>2016-12-04T08:45:20.000Z</time>
      </trkpt>
      <trkpt lat="47.53738" lon="6.77665">
        <ele>366</ele>
        <time>2016-12-04T08:45:21.000Z</time>
      </trkpt>
      <trkpt lat="47.53742" lon="6.77678">
        <ele>363</ele>
        <time>2016-12-04T08:45:22.000Z</time>
      </trkpt>
      <trkpt lat="47.53747" lon="6.7769">
        <ele>362</ele>
        <time>2016-12-04T08:45:23.000Z</time>
      </trkpt>
      <trkpt lat="47.53751" lon="6.777">
        <ele>361</ele>
        <time>2016-12-04T08:45:24.000Z</time>
      </trkpt>
      <trkpt lat="47.53754" lon="6.77707">
        <ele>360</ele>
        <time>2016-12-04T08:45:25.000Z</time>
      </trkpt>
      <trkpt lat="47.53759" lon="6.77711">
        <ele>360</ele>
        <time>2016-12-04T08:45:26.000Z</time>
      </trkpt>
      <trkpt lat="47.53765" lon="6.77716">
        <ele>359</ele>
        <time>2016-12-04T08:45:27.000Z</time>
      </trkpt>
      <trkpt lat="47.53771" lon="6.77721">
        <ele>359</ele>
        <time>2016-12-04T08:45:28.000Z</time>
      </trkpt>
      <trkpt lat="47.53775" lon="6.77722">
        <ele>359</ele>
        <time>2016-12-04T08:45:29.000Z</time>
      </trkpt>
      <trkpt lat="47.53781" lon="6.7772">
        <ele>359</ele>
        <time>2016-12-04T08:45:30.000Z</time>
      </trkpt>
      <trkpt lat="47.53784" lon="6.77715">
        <ele>359</ele>
        <time>2016-12-04T08:45:31.000Z</time>
      </trkpt>
      <trkpt lat="47.53787" lon="6.77712">
        <ele>359</ele>
        <time>2016-12-04T08:45:32.000Z</time>
      </trkpt>
      <trkpt lat="47.53793" lon="6.77708">
        <ele>359</ele>
        <time>2016-12-04T08:45:33.000Z</time>
      </trkpt>
      <trkpt lat="47.53801" lon="6.77702">
        <ele>359</ele>
        <time>2016-12-04T08:45:34.000Z</time>
      </trkpt>
      <trkpt lat="47.53808" lon="6.77695">
        <ele>359</ele>
        <time>2016-12-04T08:45:35.000Z</time>
      </trkpt>
      <trkpt lat="47.53815" lon="6.7769">
        <ele>359</ele>
        <time>2016-12-04T08:45:36.000Z</time>
      </trkpt>
      <trkpt lat="47.53822" lon="6.77685">
        <ele>360</ele>
        <time>2016-12-04T08:45:37.000Z</time>
      </trkpt>
      <trkpt lat="47.53829" lon="6.7768">
        <ele>360</ele>
        <time>2016-12-04T08:45:38.000Z</time>
      </trkpt>
      <trkpt lat="47.53836" lon="6.77675">
        <ele>359</ele>
        <time>2016-12-04T08:45:39.000Z</time>
      </trkpt>
      <trkpt lat="47.53843" lon="6.77671">
        <ele>359</ele>
        <time>2016-12-04T08:45:40.000Z</time>
      </trkpt>
      <trkpt lat="47.53849" lon="6.77667">
        <ele>363</ele>
        <time>2016-12-04T08:45:41.000Z</time>
      </trkpt>
      <trkpt lat="47.53856" lon="6.77664">
        <ele>363</ele>
        <time>2016-12-04T08:45:42.000Z</time>
      </trkpt>
      <trkpt lat="47.53862" lon="6.7766">
        <ele>363</ele>
        <time>2016-12-04T08:45:43.000Z</time>
      </trkpt>
      <trkpt lat="47.53867" lon="6.77656">
        <ele>363</ele>
        <time>2016-12-04T08:45:44.000Z</time>
      </trkpt>
      <trkpt lat="47.53872" lon="6.77654">
        <ele>363</ele>
        <time>2016-12-04T08:45:45.000Z</time>
      </trkpt>
      <trkpt lat="47.53876" lon="6.77651">
        <ele>363</ele>
        <time>2016-12-04T08:45:46.000Z</time>
      </trkpt>
      <trkpt lat="47.5388" lon="6.77648">
        <ele>363</ele>
        <time>2016-12-04T08:45:47.000Z</time>
      </trkpt>
      <trkpt lat="47.53882" lon="6.77646">
        <ele>363</ele>
        <time>2016-12-04T08:45:48.000Z</time>
      </trkpt>
      <trkpt lat="47.53885" lon="6.77643">
        <ele>363</ele>
        <time>2016-12-04T08:45:49.000Z</time>
      </trkpt>
      <trkpt lat="47.53885" lon="6.7764">
        <ele>363</ele>
        <time>2016-12-04T08:45:50.000Z</time>
      </trkpt>
      <trkpt lat="47.53886" lon="6.77636">
        <ele>363</ele>
        <time>2016-12-04T08:45:51.000Z</time>
      </trkpt>
      <trkpt lat="47.53888" lon="6.77632">
        <ele>363</ele>
        <time>2016-12-04T08:45:52.000Z</time>
      </trkpt>
      <trkpt lat="47.53891" lon="6.77628">
        <ele>363</ele>
        <time>2016-12-04T08:45:53.000Z</time>
      </trkpt>
      <trkpt lat="47.53894" lon="6.77625">
        <ele>363</ele>
        <time>2016-12-04T08:45:54.000Z</time>
      </trkpt>
      <trkpt lat="47.53898" lon="6.77621">
        <ele>363</ele>
        <time>2016-12-04T08:45:55.000Z</time>
      </trkpt>
      <trkpt lat="47.53902" lon="6.77616">
        <ele>364</ele>
        <time>2016-12-04T08:45:56.000Z</time>
      </trkpt>
      <trkpt lat="47.53906" lon="6.77611">
        <ele>364</ele>
        <time>2016-12-04T08:45:57.000Z</time>
      </trkpt>
      <trkpt lat="47.53908" lon="6.77608">
        <ele>364</ele>
        <time>2016-12-04T08:45:58.000Z</time>
      </trkpt>
      <trkpt lat="47.5391" lon="6.77604">
        <ele>364</ele>
        <time>2016-12-04T08:45:59.000Z</time>
      </trkpt>
      <trkpt lat="47.53913" lon="6.77602">
        <ele>364</ele>
        <time>2016-12-04T08:46:00.000Z</time>
      </trkpt>
      <trkpt lat="47.53914" lon="6.77601">
        <ele>364</ele>
        <time>2016-12-04T08:46:01.000Z</time>
      </trkpt>
      <trkpt lat="47.53917" lon="6.77596">
        <ele>360</ele>
        <time>2016-12-04T08:46:03.000Z</time>
      </trkpt>
      <trkpt lat="47.53919" lon="6.77595">
        <ele>361</ele>
        <time>2016-12-04T08:46:04.000Z</time>
      </trkpt>
      <trkpt lat="47.53922" lon="6.77594">
        <ele>360</ele>
        <time>2016-12-04T08:46:05.000Z</time>
      </trkpt>
      <trkpt lat="47.53925" lon="6.77593">
        <ele>360</ele>
        <time>2016-12-04T08:46:06.000Z</time>
      </trkpt>
      <trkpt lat="47.53929" lon="6.77591">
        <ele>360</ele>
        <time>2016-12-04T08:46:07.000Z</time>
      </trkpt>
      <trkpt lat="47.53934" lon="6.77589">
        <ele>360</ele>
        <time>2016-12-04T08:46:08.000Z</time>
      </trkpt>
      <trkpt lat="47.53939" lon="6.77586">
        <ele>359</ele>
        <time>2016-12-04T08:46:09.000Z</time>
      </trkpt>
      <trkpt lat="47.53942" lon="6.77583">
        <ele>366</ele>
        <time>2016-12-04T08:46:10.000Z</time>
      </trkpt>
      <trkpt lat="47.53945" lon="6.77582">
        <ele>366</ele>
        <time>2016-12-04T08:46:11.000Z</time>
      </trkpt>
      <trkpt lat="47.53949" lon="6.7758">
        <ele>366</ele>
        <time>2016-12-04T08:46:12.000Z</time>
      </trkpt>
      <trkpt lat="47.53951" lon="6.77578">
        <ele>366</ele>
        <time>2016-12-04T08:46:13.000Z</time>
      </trkpt>
      <trkpt lat="47.53955" lon="6.77576">
        <ele>366</ele>
        <time>2016-12-04T08:46:14.000Z</time>
      </trkpt>
      <trkpt lat="47.53957" lon="6.77573">
        <ele>366</ele>
        <time>2016-12-04T08:46:15.000Z</time>
      </trkpt>
      <trkpt lat="47.53961" lon="6.77569">
        <ele>366</ele>
        <time>2016-12-04T08:46:17.000Z</time>
      </trkpt>
      <trkpt lat="47.53963" lon="6.77567">
        <ele>366</ele>
        <time>2016-12-04T08:46:18.000Z</time>
      </trkpt>
      <trkpt lat="47.53966" lon="6.77565">
        <ele>366</ele>
        <time>2016-12-04T08:46:19.000Z</time>
      </trkpt>
      <trkpt lat="47.53969" lon="6.77562">
        <ele>366</ele>
        <time>2016-12-04T08:46:20.000Z</time>
      </trkpt>
      <trkpt lat="47.53971" lon="6.77558">
        <ele>366</ele>
        <time>2016-12-04T08:46:21.000Z</time>
      </trkpt>
      <trkpt lat="47.53974" lon="6.77555">
        <ele>366</ele>
        <time>2016-12-04T08:46:22.000Z</time>
      </trkpt>
      <trkpt lat="47.53977" lon="6.77551">
        <ele>367</ele>
        <time>2016-12-04T08:46:24.000Z</time>
      </trkpt>
      <trkpt lat="47.53979" lon="6.7755">
        <ele>367</ele>
        <time>2016-12-04T08:46:25.000Z</time>
      </trkpt>
      <trkpt lat="47.53981" lon="6.77547">
        <ele>367</ele>
        <time>2016-12-04T08:46:26.000Z</time>
      </trkpt>
      <trkpt lat="47.53983" lon="6.77545">
        <ele>367</ele>
        <time>2016-12-04T08:46:27.000Z</time>
      </trkpt>
      <trkpt lat="47.53985" lon="6.77542">
        <ele>367</ele>
        <time>2016-12-04T08:46:28.000Z</time>
      </trkpt>
      <trkpt lat="47.53987" lon="6.77539">
        <ele>368</ele>
        <time>2016-12-04T08:46:29.000Z</time>
      </trkpt>
      <trkpt lat="47.53989" lon="6.77536">
        <ele>368</ele>
        <time>2016-12-04T08:46:30.000Z</time>
      </trkpt>
      <trkpt lat="47.5399" lon="6.77533">
        <ele>368</ele>
        <time>2016-12-04T08:46:31.000Z</time>
      </trkpt>
      <trkpt lat="47.53991" lon="6.7753">
        <ele>368</ele>
        <time>2016-12-04T08:46:32.000Z</time>
      </trkpt>
      <trkpt lat="47.53994" lon="6.77528">
        <ele>369</ele>
        <time>2016-12-04T08:46:33.000Z</time>
      </trkpt>
      <trkpt lat="47.53997" lon="6.77524">
        <ele>369</ele>
        <time>2016-12-04T08:46:35.000Z</time>
      </trkpt>
      <trkpt lat="47.53999" lon="6.7752">
        <ele>369</ele>
        <time>2016-12-04T08:46:36.000Z</time>
      </trkpt>
      <trkpt lat="47.54002" lon="6.77517">
        <ele>366</ele>
        <time>2016-12-04T08:46:37.000Z</time>
      </trkpt>
      <trkpt lat="47.54004" lon="6.77514">
        <ele>367</ele>
        <time>2016-12-04T08:46:38.000Z</time>
      </trkpt>
      <trkpt lat="47.54006" lon="6.77512">
        <ele>367</ele>
        <time>2016-12-04T08:46:39.000Z</time>
      </trkpt>
      <trkpt lat="47.5401" lon="6.7751">
        <ele>367</ele>
        <time>2016-12-04T08:46:40.000Z</time>
      </trkpt>
      <trkpt lat="47.54013" lon="6.77508">
        <ele>367</ele>
        <time>2016-12-04T08:46:41.000Z</time>
      </trkpt>
      <trkpt lat="47.54016" lon="6.77507">
        <ele>366</ele>
        <time>2016-12-04T08:46:42.000Z</time>
      </trkpt>
      <trkpt lat="47.54018" lon="6.77505">
        <ele>366</ele>
        <time>2016-12-04T08:46:43.000Z</time>
      </trkpt>
      <trkpt lat="47.5402" lon="6.77503">
        <ele>366</ele>
        <time>2016-12-04T08:46:44.000Z</time>
      </trkpt>
      <trkpt lat="47.54023" lon="6.77501">
        <ele>365</ele>
        <time>2016-12-04T08:46:45.000Z</time>
      </trkpt>
      <trkpt lat="47.54028" lon="6.775">
        <ele>374</ele>
        <time>2016-12-04T08:46:46.000Z</time>
      </trkpt>
      <trkpt lat="47.54033" lon="6.77499">
        <ele>374</ele>
        <time>2016-12-04T08:46:47.000Z</time>
      </trkpt>
      <trkpt lat="47.5404" lon="6.77497">
        <ele>373</ele>
        <time>2016-12-04T08:46:48.000Z</time>
      </trkpt>
      <trkpt lat="47.54047" lon="6.77495">
        <ele>373</ele>
        <time>2016-12-04T08:46:49.000Z</time>
      </trkpt>
      <trkpt lat="47.54055" lon="6.77493">
        <ele>372</ele>
        <time>2016-12-04T08:46:50.000Z</time>
      </trkpt>
      <trkpt lat="47.54066" lon="6.77491">
        <ele>370</ele>
        <time>2016-12-04T08:46:51.000Z</time>
      </trkpt>
      <trkpt lat="47.54077" lon="6.77491">
        <ele>368</ele>
        <time>2016-12-04T08:46:52.000Z</time>
      </trkpt>
      <trkpt lat="47.54085" lon="6.77491">
        <ele>364</ele>
        <time>2016-12-04T08:46:53.000Z</time>
      </trkpt>
      <trkpt lat="47.54095" lon="6.77489">
        <ele>365</ele>
        <time>2016-12-04T08:46:54.000Z</time>
      </trkpt>
      <trkpt lat="47.54104" lon="6.77487">
        <ele>366</ele>
        <time>2016-12-04T08:46:55.000Z</time>
      </trkpt>
      <trkpt lat="47.54112" lon="6.77485">
        <ele>367</ele>
        <time>2016-12-04T08:46:56.000Z</time>
      </trkpt>
      <trkpt lat="47.54119" lon="6.77485">
        <ele>367</ele>
        <time>2016-12-04T08:46:57.000Z</time>
      </trkpt>
      <trkpt lat="47.54127" lon="6.77484">
        <ele>367</ele>
        <time>2016-12-04T08:46:58.000Z</time>
      </trkpt>
      <trkpt lat="47.54134" lon="6.77484">
        <ele>366</ele>
        <time>2016-12-04T08:46:59.000Z</time>
      </trkpt>
      <trkpt lat="47.5414" lon="6.77485">
        <ele>366</ele>
        <time>2016-12-04T08:47:00.000Z</time>
      </trkpt>
      <trkpt lat="47.54146" lon="6.77485">
        <ele>365</ele>
        <time>2016-12-04T08:47:01.000Z</time>
      </trkpt>
      <trkpt lat="47.54153" lon="6.77484">
        <ele>364</ele>
        <time>2016-12-04T08:47:02.000Z</time>
      </trkpt>
      <trkpt lat="47.54159" lon="6.77485">
        <ele>364</ele>
        <time>2016-12-04T08:47:03.000Z</time>
      </trkpt>
      <trkpt lat="47.54166" lon="6.77485">
        <ele>363</ele>
        <time>2016-12-04T08:47:04.000Z</time>
      </trkpt>
      <trkpt lat="47.54173" lon="6.77485">
        <ele>361</ele>
        <time>2016-12-04T08:47:05.000Z</time>
      </trkpt>
      <trkpt lat="47.5418" lon="6.77486">
        <ele>361</ele>
        <time>2016-12-04T08:47:06.000Z</time>
      </trkpt>
      <trkpt lat="47.54187" lon="6.77485">
        <ele>361</ele>
        <time>2016-12-04T08:47:07.000Z</time>
      </trkpt>
      <trkpt lat="47.54193" lon="6.77485">
        <ele>362</ele>
        <time>2016-12-04T08:47:08.000Z</time>
      </trkpt>
      <trkpt lat="47.54199" lon="6.77484">
        <ele>362</ele>
        <time>2016-12-04T08:47:09.000Z</time>
      </trkpt>
      <trkpt lat="47.54204" lon="6.77483">
        <ele>362</ele>
        <time>2016-12-04T08:47:10.000Z</time>
      </trkpt>
      <trkpt lat="47.54209" lon="6.77482">
        <ele>362</ele>
        <time>2016-12-04T08:47:11.000Z</time>
      </trkpt>
      <trkpt lat="47.54215" lon="6.77481">
        <ele>362</ele>
        <time>2016-12-04T08:47:12.000Z</time>
      </trkpt>
      <trkpt lat="47.54219" lon="6.77478">
        <ele>362</ele>
        <time>2016-12-04T08:47:13.000Z</time>
      </trkpt>
      <trkpt lat="47.54223" lon="6.77476">
        <ele>362</ele>
        <time>2016-12-04T08:47:14.000Z</time>
      </trkpt>
      <trkpt lat="47.54227" lon="6.77473">
        <ele>362</ele>
        <time>2016-12-04T08:47:15.000Z</time>
      </trkpt>
      <trkpt lat="47.54231" lon="6.7747">
        <ele>362</ele>
        <time>2016-12-04T08:47:16.000Z</time>
      </trkpt>
      <trkpt lat="47.54235" lon="6.77467">
        <ele>362</ele>
        <time>2016-12-04T08:47:17.000Z</time>
      </trkpt>
      <trkpt lat="47.5424" lon="6.77463">
        <ele>362</ele>
        <time>2016-12-04T08:47:18.000Z</time>
      </trkpt>
      <trkpt lat="47.54243" lon="6.77461">
        <ele>362</ele>
        <time>2016-12-04T08:47:19.000Z</time>
      </trkpt>
      <trkpt lat="47.54246" lon="6.77459">
        <ele>362</ele>
        <time>2016-12-04T08:47:20.000Z</time>
      </trkpt>
      <trkpt lat="47.5425" lon="6.77458">
        <ele>362</ele>
        <time>2016-12-04T08:47:21.000Z</time>
      </trkpt>
      <trkpt lat="47.54254" lon="6.77457">
        <ele>358</ele>
        <time>2016-12-04T08:47:22.000Z</time>
      </trkpt>
      <trkpt lat="47.54258" lon="6.77456">
        <ele>357</ele>
        <time>2016-12-04T08:47:23.000Z</time>
      </trkpt>
      <trkpt lat="47.54262" lon="6.77457">
        <ele>357</ele>
        <time>2016-12-04T08:47:24.000Z</time>
      </trkpt>
      <trkpt lat="47.54266" lon="6.77458">
        <ele>357</ele>
        <time>2016-12-04T08:47:25.000Z</time>
      </trkpt>
      <trkpt lat="47.5427" lon="6.77458">
        <ele>357</ele>
        <time>2016-12-04T08:47:26.000Z</time>
      </trkpt>
      <trkpt lat="47.54274" lon="6.77458">
        <ele>357</ele>
        <time>2016-12-04T08:47:27.000Z</time>
      </trkpt>
      <trkpt lat="47.54277" lon="6.77457">
        <ele>357</ele>
        <time>2016-12-04T08:47:28.000Z</time>
      </trkpt>
      <trkpt lat="47.54279" lon="6.77457">
        <ele>357</ele>
        <time>2016-12-04T08:47:29.000Z</time>
      </trkpt>
      <trkpt lat="47.54282" lon="6.77456">
        <ele>356</ele>
        <time>2016-12-04T08:47:31.000Z</time>
      </trkpt>
      <trkpt lat="47.54284" lon="6.77455">
        <ele>356</ele>
        <time>2016-12-04T08:47:32.000Z</time>
      </trkpt>
      <trkpt lat="47.54288" lon="6.77454">
        <ele>356</ele>
        <time>2016-12-04T08:47:35.000Z</time>
      </trkpt>
      <trkpt lat="47.54289" lon="6.77454">
        <ele>356</ele>
        <time>2016-12-04T08:47:36.000Z</time>
      </trkpt>
      <trkpt lat="47.54292" lon="6.77452">
        <ele>356</ele>
        <time>2016-12-04T08:47:49.000Z</time>
      </trkpt>
      <trkpt lat="47.54298" lon="6.7745">
        <ele>356</ele>
        <time>2016-12-04T08:47:50.000Z</time>
      </trkpt>
      <trkpt lat="47.54301" lon="6.7745">
        <ele>356</ele>
        <time>2016-12-04T08:47:51.000Z</time>
      </trkpt>
      <trkpt lat="47.54304" lon="6.77449">
        <ele>355</ele>
        <time>2016-12-04T08:47:52.000Z</time>
      </trkpt>
      <trkpt lat="47.54308" lon="6.77448">
        <ele>355</ele>
        <time>2016-12-04T08:47:53.000Z</time>
      </trkpt>
      <trkpt lat="47.54311" lon="6.77448">
        <ele>355</ele>
        <time>2016-12-04T08:47:54.000Z</time>
      </trkpt>
      <trkpt lat="47.54315" lon="6.77447">
        <ele>355</ele>
        <time>2016-12-04T08:47:55.000Z</time>
      </trkpt>
      <trkpt lat="47.5432" lon="6.77446">
        <ele>355</ele>
        <time>2016-12-04T08:47:56.000Z</time>
      </trkpt>
      <trkpt lat="47.54323" lon="6.77445">
        <ele>354</ele>
        <time>2016-12-04T08:47:57.000Z</time>
      </trkpt>
      <trkpt lat="47.54327" lon="6.77443">
        <ele>354</ele>
        <time>2016-12-04T08:47:58.000Z</time>
      </trkpt>
      <trkpt lat="47.54331" lon="6.77442">
        <ele>354</ele>
        <time>2016-12-04T08:47:59.000Z</time>
      </trkpt>
      <trkpt lat="47.54336" lon="6.77441">
        <ele>350</ele>
        <time>2016-12-04T08:48:00.000Z</time>
      </trkpt>
      <trkpt lat="47.54341" lon="6.7744">
        <ele>350</ele>
        <time>2016-12-04T08:48:01.000Z</time>
      </trkpt>
      <trkpt lat="47.54346" lon="6.77439">
        <ele>350</ele>
        <time>2016-12-04T08:48:02.000Z</time>
      </trkpt>
      <trkpt lat="47.54352" lon="6.77437">
        <ele>350</ele>
        <time>2016-12-04T08:48:03.000Z</time>
      </trkpt>
      <trkpt lat="47.54358" lon="6.77436">
        <ele>350</ele>
        <time>2016-12-04T08:48:04.000Z</time>
      </trkpt>
      <trkpt lat="47.54363" lon="6.77434">
        <ele>349</ele>
        <time>2016-12-04T08:48:05.000Z</time>
      </trkpt>
      <trkpt lat="47.54369" lon="6.77433">
        <ele>349</ele>
        <time>2016-12-04T08:48:06.000Z</time>
      </trkpt>
      <trkpt lat="47.54376" lon="6.77433">
        <ele>349</ele>
        <time>2016-12-04T08:48:07.000Z</time>
      </trkpt>
      <trkpt lat="47.54382" lon="6.77435">
        <ele>349</ele>
        <time>2016-12-04T08:48:08.000Z</time>
      </trkpt>
      <trkpt lat="47.54387" lon="6.77439">
        <ele>349</ele>
        <time>2016-12-04T08:48:09.000Z</time>
      </trkpt>
      <trkpt lat="47.5439" lon="6.77449">
        <ele>349</ele>
        <time>2016-12-04T08:48:10.000Z</time>
      </trkpt>
      <trkpt lat="47.54392" lon="6.77457">
        <ele>349</ele>
        <time>2016-12-04T08:48:11.000Z</time>
      </trkpt>
      <trkpt lat="47.54394" lon="6.77466">
        <ele>349</ele>
        <time>2016-12-04T08:48:12.000Z</time>
      </trkpt>
      <trkpt lat="47.54395" lon="6.77474">
        <ele>349</ele>
        <time>2016-12-04T08:48:13.000Z</time>
      </trkpt>
      <trkpt lat="47.54397" lon="6.77482">
        <ele>349</ele>
        <time>2016-12-04T08:48:14.000Z</time>
      </trkpt>
      <trkpt lat="47.54399" lon="6.77491">
        <ele>348</ele>
        <time>2016-12-04T08:48:15.000Z</time>
      </trkpt>
      <trkpt lat="47.544" lon="6.77498">
        <ele>348</ele>
        <time>2016-12-04T08:48:16.000Z</time>
      </trkpt>
      <trkpt lat="47.54401" lon="6.77508">
        <ele>348</ele>
        <time>2016-12-04T08:48:17.000Z</time>
      </trkpt>
      <trkpt lat="47.54401" lon="6.77516">
        <ele>348</ele>
        <time>2016-12-04T08:48:18.000Z</time>
      </trkpt>
      <trkpt lat="47.54402" lon="6.77525">
        <ele>348</ele>
        <time>2016-12-04T08:48:19.000Z</time>
      </trkpt>
      <trkpt lat="47.54402" lon="6.77533">
        <ele>348</ele>
        <time>2016-12-04T08:48:20.000Z</time>
      </trkpt>
      <trkpt lat="47.54403" lon="6.77543">
        <ele>348</ele>
        <time>2016-12-04T08:48:21.000Z</time>
      </trkpt>
      <trkpt lat="47.54404" lon="6.77551">
        <ele>348</ele>
        <time>2016-12-04T08:48:22.000Z</time>
      </trkpt>
      <trkpt lat="47.54405" lon="6.77559">
        <ele>348</ele>
        <time>2016-12-04T08:48:23.000Z</time>
      </trkpt>
      <trkpt lat="47.54406" lon="6.77566">
        <ele>347</ele>
        <time>2016-12-04T08:48:24.000Z</time>
      </trkpt>
      <trkpt lat="47.54406" lon="6.77572">
        <ele>347</ele>
        <time>2016-12-04T08:48:25.000Z</time>
      </trkpt>
      <trkpt lat="47.54407" lon="6.77577">
        <ele>347</ele>
        <time>2016-12-04T08:48:26.000Z</time>
      </trkpt>
      <trkpt lat="47.54409" lon="6.77584">
        <ele>345</ele>
        <time>2016-12-04T08:48:27.000Z</time>
      </trkpt>
      <trkpt lat="47.54411" lon="6.77589">
        <ele>345</ele>
        <time>2016-12-04T08:48:28.000Z</time>
      </trkpt>
      <trkpt lat="47.54415" lon="6.77595">
        <ele>345</ele>
        <time>2016-12-04T08:48:29.000Z</time>
      </trkpt>
      <trkpt lat="47.5442" lon="6.776">
        <ele>344</ele>
        <time>2016-12-04T08:48:30.000Z</time>
      </trkpt>
      <trkpt lat="47.54424" lon="6.77604">
        <ele>344</ele>
        <time>2016-12-04T08:48:31.000Z</time>
      </trkpt>
      <trkpt lat="47.54431" lon="6.77609">
        <ele>344</ele>
        <time>2016-12-04T08:48:32.000Z</time>
      </trkpt>
      <trkpt lat="47.54438" lon="6.77614">
        <ele>344</ele>
        <time>2016-12-04T08:48:33.000Z</time>
      </trkpt>
      <trkpt lat="47.54447" lon="6.7762">
        <ele>344</ele>
        <time>2016-12-04T08:48:34.000Z</time>
      </trkpt>
      <trkpt lat="47.54451" lon="6.7763">
        <ele>344</ele>
        <time>2016-12-04T08:48:35.000Z</time>
      </trkpt>
      <trkpt lat="47.54456" lon="6.7764">
        <ele>343</ele>
        <time>2016-12-04T08:48:36.000Z</time>
      </trkpt>
      <trkpt lat="47.54458" lon="6.77652">
        <ele>343</ele>
        <time>2016-12-04T08:48:37.000Z</time>
      </trkpt>
      <trkpt lat="47.54461" lon="6.77664">
        <ele>343</ele>
        <time>2016-12-04T08:48:38.000Z</time>
      </trkpt>
      <trkpt lat="47.54463" lon="6.77675">
        <ele>340</ele>
        <time>2016-12-04T08:48:39.000Z</time>
      </trkpt>
      <trkpt lat="47.54466" lon="6.77687">
        <ele>340</ele>
        <time>2016-12-04T08:48:40.000Z</time>
      </trkpt>
      <trkpt lat="47.54468" lon="6.77697">
        <ele>340</ele>
        <time>2016-12-04T08:48:41.000Z</time>
      </trkpt>
      <trkpt lat="47.54471" lon="6.77708">
        <ele>340</ele>
        <time>2016-12-04T08:48:42.000Z</time>
      </trkpt>
      <trkpt lat="47.54474" lon="6.77719">
        <ele>339</ele>
        <time>2016-12-04T08:48:43.000Z</time>
      </trkpt>
      <trkpt lat="47.54475" lon="6.77732">
        <ele>339</ele>
        <time>2016-12-04T08:48:44.000Z</time>
      </trkpt>
      <trkpt lat="47.54476" lon="6.77743">
        <ele>339</ele>
        <time>2016-12-04T08:48:45.000Z</time>
      </trkpt>
      <trkpt lat="47.54476" lon="6.77754">
        <ele>336</ele>
        <time>2016-12-04T08:48:46.000Z</time>
      </trkpt>
      <trkpt lat="47.54476" lon="6.77761">
        <ele>336</ele>
        <time>2016-12-04T08:48:47.000Z</time>
      </trkpt>
      <trkpt lat="47.54476" lon="6.77768">
        <ele>335</ele>
        <time>2016-12-04T08:48:48.000Z</time>
      </trkpt>
      <trkpt lat="47.54476" lon="6.77775">
        <ele>335</ele>
        <time>2016-12-04T08:48:49.000Z</time>
      </trkpt>
      <trkpt lat="47.54476" lon="6.77783">
        <ele>335</ele>
        <time>2016-12-04T08:48:50.000Z</time>
      </trkpt>
      <trkpt lat="47.54476" lon="6.77792">
        <ele>334</ele>
        <time>2016-12-04T08:48:51.000Z</time>
      </trkpt>
      <trkpt lat="47.54476" lon="6.778">
        <ele>334</ele>
        <time>2016-12-04T08:48:52.000Z</time>
      </trkpt>
      <trkpt lat="47.54476" lon="6.77809">
        <ele>334</ele>
        <time>2016-12-04T08:48:53.000Z</time>
      </trkpt>
      <trkpt lat="47.54475" lon="6.77816">
        <ele>334</ele>
        <time>2016-12-04T08:48:54.000Z</time>
      </trkpt>
      <trkpt lat="47.54475" lon="6.77825">
        <ele>334</ele>
        <time>2016-12-04T08:48:55.000Z</time>
      </trkpt>
      <trkpt lat="47.54476" lon="6.77832">
        <ele>333</ele>
        <time>2016-12-04T08:48:56.000Z</time>
      </trkpt>
      <trkpt lat="47.54477" lon="6.77839">
        <ele>331</ele>
        <time>2016-12-04T08:48:57.000Z</time>
      </trkpt>
      <trkpt lat="47.54478" lon="6.77848">
        <ele>331</ele>
        <time>2016-12-04T08:48:58.000Z</time>
      </trkpt>
      <trkpt lat="47.54479" lon="6.77856">
        <ele>330</ele>
        <time>2016-12-04T08:48:59.000Z</time>
      </trkpt>
      <trkpt lat="47.54481" lon="6.77864">
        <ele>330</ele>
        <time>2016-12-04T08:49:00.000Z</time>
      </trkpt>
      <trkpt lat="47.54483" lon="6.77872">
        <ele>330</ele>
        <time>2016-12-04T08:49:01.000Z</time>
      </trkpt>
      <trkpt lat="47.54486" lon="6.77881">
        <ele>330</ele>
        <time>2016-12-04T08:49:02.000Z</time>
      </trkpt>
      <trkpt lat="47.54489" lon="6.77887">
        <ele>329</ele>
        <time>2016-12-04T08:49:03.000Z</time>
      </trkpt>
      <trkpt lat="47.54493" lon="6.77895">
        <ele>329</ele>
        <time>2016-12-04T08:49:04.000Z</time>
      </trkpt>
      <trkpt lat="47.54496" lon="6.77901">
        <ele>329</ele>
        <time>2016-12-04T08:49:05.000Z</time>
      </trkpt>
      <trkpt lat="47.545" lon="6.77908">
        <ele>328</ele>
        <time>2016-12-04T08:49:06.000Z</time>
      </trkpt>
      <trkpt lat="47.54504" lon="6.77913">
        <ele>329</ele>
        <time>2016-12-04T08:49:07.000Z</time>
      </trkpt>
      <trkpt lat="47.54508" lon="6.77918">
        <ele>328</ele>
        <time>2016-12-04T08:49:08.000Z</time>
      </trkpt>
      <trkpt lat="47.54512" lon="6.77923">
        <ele>328</ele>
        <time>2016-12-04T08:49:09.000Z</time>
      </trkpt>
      <trkpt lat="47.54517" lon="6.77927">
        <ele>328</ele>
        <time>2016-12-04T08:49:10.000Z</time>
      </trkpt>
      <trkpt lat="47.54521" lon="6.77931">
        <ele>328</ele>
        <time>2016-12-04T08:49:11.000Z</time>
      </trkpt>
      <trkpt lat="47.54524" lon="6.77935">
        <ele>328</ele>
        <time>2016-12-04T08:49:12.000Z</time>
      </trkpt>
      <trkpt lat="47.54528" lon="6.77939">
        <ele>329</ele>
        <time>2016-12-04T08:49:13.000Z</time>
      </trkpt>
      <trkpt lat="47.54532" lon="6.77942">
        <ele>329</ele>
        <time>2016-12-04T08:49:14.000Z</time>
      </trkpt>
      <trkpt lat="47.54536" lon="6.77945">
        <ele>329</ele>
        <time>2016-12-04T08:49:15.000Z</time>
      </trkpt>
      <trkpt lat="47.5454" lon="6.77948">
        <ele>329</ele>
        <time>2016-12-04T08:49:16.000Z</time>
      </trkpt>
      <trkpt lat="47.54544" lon="6.7795">
        <ele>329</ele>
        <time>2016-12-04T08:49:17.000Z</time>
      </trkpt>
      <trkpt lat="47.54548" lon="6.77952">
        <ele>329</ele>
        <time>2016-12-04T08:49:18.000Z</time>
      </trkpt>
      <trkpt lat="47.54553" lon="6.77954">
        <ele>329</ele>
        <time>2016-12-04T08:49:19.000Z</time>
      </trkpt>
      <trkpt lat="47.54556" lon="6.77955">
        <ele>329</ele>
        <time>2016-12-04T08:49:20.000Z</time>
      </trkpt>
      <trkpt lat="47.54561" lon="6.77957">
        <ele>329</ele>
        <time>2016-12-04T08:49:21.000Z</time>
      </trkpt>
      <trkpt lat="47.54566" lon="6.77959">
        <ele>329</ele>
        <time>2016-12-04T08:49:22.000Z</time>
      </trkpt>
      <trkpt lat="47.54571" lon="6.77962">
        <ele>329</ele>
        <time>2016-12-04T08:49:23.000Z</time>
      </trkpt>
      <trkpt lat="47.54574" lon="6.77967">
        <ele>329</ele>
        <time>2016-12-04T08:49:24.000Z</time>
      </trkpt>
      <trkpt lat="47.54575" lon="6.77972">
        <ele>329</ele>
        <time>2016-12-04T08:49:25.000Z</time>
      </trkpt>
      <trkpt lat="47.54576" lon="6.77977">
        <ele>329</ele>
        <time>2016-12-04T08:49:26.000Z</time>
      </trkpt>
      <trkpt lat="47.54577" lon="6.77983">
        <ele>328</ele>
        <time>2016-12-04T08:49:27.000Z</time>
      </trkpt>
      <trkpt lat="47.54578" lon="6.7799">
        <ele>328</ele>
        <time>2016-12-04T08:49:28.000Z</time>
      </trkpt>
      <trkpt lat="47.54579" lon="6.77995">
        <ele>328</ele>
        <time>2016-12-04T08:49:29.000Z</time>
      </trkpt>
      <trkpt lat="47.5458" lon="6.78001">
        <ele>328</ele>
        <time>2016-12-04T08:49:30.000Z</time>
      </trkpt>
      <trkpt lat="47.54581" lon="6.78007">
        <ele>327</ele>
        <time>2016-12-04T08:49:31.000Z</time>
      </trkpt>
      <trkpt lat="47.54582" lon="6.7801">
        <ele>327</ele>
        <time>2016-12-04T08:49:32.000Z</time>
      </trkpt>
      <trkpt lat="47.54586" lon="6.78013">
        <ele>328</ele>
        <time>2016-12-04T08:49:33.000Z</time>
      </trkpt>
      <trkpt lat="47.5459" lon="6.78016">
        <ele>327</ele>
        <time>2016-12-04T08:49:34.000Z</time>
      </trkpt>
      <trkpt lat="47.54594" lon="6.78019">
        <ele>327</ele>
        <time>2016-12-04T08:49:35.000Z</time>
      </trkpt>
      <trkpt lat="47.54598" lon="6.78023">
        <ele>327</ele>
        <time>2016-12-04T08:49:36.000Z</time>
      </trkpt>
      <trkpt lat="47.54603" lon="6.78025">
        <ele>327</ele>
        <time>2016-12-04T08:49:37.000Z</time>
      </trkpt>
      <trkpt lat="47.54607" lon="6.78026">
        <ele>327</ele>
        <time>2016-12-04T08:49:38.000Z</time>
      </trkpt>
      <trkpt lat="47.5461" lon="6.78026">
        <ele>327</ele>
        <time>2016-12-04T08:49:39.000Z</time>
      </trkpt>
      <trkpt lat="47.54613" lon="6.78027">
        <ele>327</ele>
        <time>2016-12-04T08:49:40.000Z</time>
      </trkpt>
      <trkpt lat="47.54617" lon="6.78028">
        <ele>327</ele>
        <time>2016-12-04T08:49:41.000Z</time>
      </trkpt>
      <trkpt lat="47.54622" lon="6.78029">
        <ele>327</ele>
        <time>2016-12-04T08:49:42.000Z</time>
      </trkpt>
      <trkpt lat="47.54626" lon="6.7803">
        <ele>327</ele>
        <time>2016-12-04T08:49:43.000Z</time>
      </trkpt>
      <trkpt lat="47.54632" lon="6.78032">
        <ele>327</ele>
        <time>2016-12-04T08:49:44.000Z</time>
      </trkpt>
      <trkpt lat="47.54636" lon="6.78036">
        <ele>327</ele>
        <time>2016-12-04T08:49:45.000Z</time>
      </trkpt>
      <trkpt lat="47.54641" lon="6.78038">
        <ele>327</ele>
        <time>2016-12-04T08:49:46.000Z</time>
      </trkpt>
      <trkpt lat="47.54645" lon="6.7804">
        <ele>327</ele>
        <time>2016-12-04T08:49:47.000Z</time>
      </trkpt>
      <trkpt lat="47.5465" lon="6.78043">
        <ele>327</ele>
        <time>2016-12-04T08:49:48.000Z</time>
      </trkpt>
      <trkpt lat="47.54655" lon="6.78045">
        <ele>327</ele>
        <time>2016-12-04T08:49:49.000Z</time>
      </trkpt>
      <trkpt lat="47.5466" lon="6.78044">
        <ele>327</ele>
        <time>2016-12-04T08:49:50.000Z</time>
      </trkpt>
      <trkpt lat="47.54665" lon="6.78045">
        <ele>327</ele>
        <time>2016-12-04T08:49:51.000Z</time>
      </trkpt>
      <trkpt lat="47.54671" lon="6.78047">
        <ele>327</ele>
        <time>2016-12-04T08:49:52.000Z</time>
      </trkpt>
      <trkpt lat="47.54676" lon="6.78049">
        <ele>327</ele>
        <time>2016-12-04T08:49:53.000Z</time>
      </trkpt>
      <trkpt lat="47.54681" lon="6.7805">
        <ele>327</ele>
        <time>2016-12-04T08:49:54.000Z</time>
      </trkpt>
      <trkpt lat="47.54687" lon="6.78049">
        <ele>327</ele>
        <time>2016-12-04T08:49:55.000Z</time>
      </trkpt>
      <trkpt lat="47.54693" lon="6.78049">
        <ele>327</ele>
        <time>2016-12-04T08:49:56.000Z</time>
      </trkpt>
      <trkpt lat="47.54698" lon="6.78048">
        <ele>327</ele>
        <time>2016-12-04T08:49:57.000Z</time>
      </trkpt>
      <trkpt lat="47.54702" lon="6.78046">
        <ele>327</ele>
        <time>2016-12-04T08:49:58.000Z</time>
      </trkpt>
      <trkpt lat="47.54706" lon="6.78043">
        <ele>327</ele>
        <time>2016-12-04T08:49:59.000Z</time>
      </trkpt>
      <trkpt lat="47.5471" lon="6.78041">
        <ele>327</ele>
        <time>2016-12-04T08:50:00.000Z</time>
      </trkpt>
      <trkpt lat="47.54713" lon="6.78038">
        <ele>327</ele>
        <time>2016-12-04T08:50:01.000Z</time>
      </trkpt>
      <trkpt lat="47.54717" lon="6.78036">
        <ele>327</ele>
        <time>2016-12-04T08:50:02.000Z</time>
      </trkpt>
      <trkpt lat="47.54721" lon="6.78034">
        <ele>327</ele>
        <time>2016-12-04T08:50:03.000Z</time>
      </trkpt>
      <trkpt lat="47.54724" lon="6.78031">
        <ele>327</ele>
        <time>2016-12-04T08:50:04.000Z</time>
      </trkpt>
      <trkpt lat="47.54729" lon="6.78028">
        <ele>327</ele>
        <time>2016-12-04T08:50:05.000Z</time>
      </trkpt>
      <trkpt lat="47.54734" lon="6.78025">
        <ele>327</ele>
        <time>2016-12-04T08:50:06.000Z</time>
      </trkpt>
      <trkpt lat="47.54739" lon="6.78023">
        <ele>328</ele>
        <time>2016-12-04T08:50:07.000Z</time>
      </trkpt>
      <trkpt lat="47.54744" lon="6.7802">
        <ele>328</ele>
        <time>2016-12-04T08:50:08.000Z</time>
      </trkpt>
      <trkpt lat="47.54749" lon="6.78017">
        <ele>328</ele>
        <time>2016-12-04T08:50:09.000Z</time>
      </trkpt>
      <trkpt lat="47.54754" lon="6.78014">
        <ele>328</ele>
        <time>2016-12-04T08:50:10.000Z</time>
      </trkpt>
      <trkpt lat="47.54758" lon="6.78012">
        <ele>328</ele>
        <time>2016-12-04T08:50:11.000Z</time>
      </trkpt>
      <trkpt lat="47.54763" lon="6.78009">
        <ele>328</ele>
        <time>2016-12-04T08:50:12.000Z</time>
      </trkpt>
      <trkpt lat="47.54769" lon="6.78006">
        <ele>328</ele>
        <time>2016-12-04T08:50:13.000Z</time>
      </trkpt>
      <trkpt lat="47.54774" lon="6.78006">
        <ele>327</ele>
        <time>2016-12-04T08:50:14.000Z</time>
      </trkpt>
      <trkpt lat="47.54779" lon="6.78008">
        <ele>327</ele>
        <time>2016-12-04T08:50:15.000Z</time>
      </trkpt>
      <trkpt lat="47.54782" lon="6.78014">
        <ele>327</ele>
        <time>2016-12-04T08:50:16.000Z</time>
      </trkpt>
      <trkpt lat="47.54783" lon="6.78021">
        <ele>327</ele>
        <time>2016-12-04T08:50:17.000Z</time>
      </trkpt>
      <trkpt lat="47.54783" lon="6.78029">
        <ele>327</ele>
        <time>2016-12-04T08:50:18.000Z</time>
      </trkpt>
      <trkpt lat="47.54783" lon="6.78036">
        <ele>327</ele>
        <time>2016-12-04T08:50:19.000Z</time>
      </trkpt>
      <trkpt lat="47.54783" lon="6.78043">
        <ele>326</ele>
        <time>2016-12-04T08:50:20.000Z</time>
      </trkpt>
      <trkpt lat="47.54783" lon="6.78049">
        <ele>326</ele>
        <time>2016-12-04T08:50:21.000Z</time>
      </trkpt>
      <trkpt lat="47.54783" lon="6.78057">
        <ele>326</ele>
        <time>2016-12-04T08:50:22.000Z</time>
      </trkpt>
      <trkpt lat="47.54784" lon="6.78064">
        <ele>326</ele>
        <time>2016-12-04T08:50:23.000Z</time>
      </trkpt>
      <trkpt lat="47.54783" lon="6.78071">
        <ele>326</ele>
        <time>2016-12-04T08:50:24.000Z</time>
      </trkpt>
      <trkpt lat="47.54783" lon="6.78077">
        <ele>326</ele>
        <time>2016-12-04T08:50:25.000Z</time>
      </trkpt>
      <trkpt lat="47.54782" lon="6.78085">
        <ele>324</ele>
        <time>2016-12-04T08:50:26.000Z</time>
      </trkpt>
      <trkpt lat="47.54781" lon="6.78092">
        <ele>324</ele>
        <time>2016-12-04T08:50:27.000Z</time>
      </trkpt>
      <trkpt lat="47.54779" lon="6.78101">
        <ele>324</ele>
        <time>2016-12-04T08:50:28.000Z</time>
      </trkpt>
      <trkpt lat="47.54777" lon="6.78108">
        <ele>324</ele>
        <time>2016-12-04T08:50:29.000Z</time>
      </trkpt>
      <trkpt lat="47.54774" lon="6.78115">
        <ele>324</ele>
        <time>2016-12-04T08:50:30.000Z</time>
      </trkpt>
      <trkpt lat="47.54772" lon="6.78123">
        <ele>324</ele>
        <time>2016-12-04T08:50:31.000Z</time>
      </trkpt>
      <trkpt lat="47.54769" lon="6.7813">
        <ele>323</ele>
        <time>2016-12-04T08:50:32.000Z</time>
      </trkpt>
      <trkpt lat="47.54767" lon="6.78136">
        <ele>323</ele>
        <time>2016-12-04T08:50:33.000Z</time>
      </trkpt>
      <trkpt lat="47.54763" lon="6.78143">
        <ele>323</ele>
        <time>2016-12-04T08:50:34.000Z</time>
      </trkpt>
      <trkpt lat="47.54761" lon="6.78149">
        <ele>323</ele>
        <time>2016-12-04T08:50:35.000Z</time>
      </trkpt>
      <trkpt lat="47.54758" lon="6.78156">
        <ele>322</ele>
        <time>2016-12-04T08:50:36.000Z</time>
      </trkpt>
      <trkpt lat="47.54755" lon="6.78162">
        <ele>322</ele>
        <time>2016-12-04T08:50:37.000Z</time>
      </trkpt>
      <trkpt lat="47.54753" lon="6.78169">
        <ele>321</ele>
        <time>2016-12-04T08:50:38.000Z</time>
      </trkpt>
      <trkpt lat="47.5475" lon="6.78175">
        <ele>321</ele>
        <time>2016-12-04T08:50:39.000Z</time>
      </trkpt>
      <trkpt lat="47.54748" lon="6.78182">
        <ele>321</ele>
        <time>2016-12-04T08:50:40.000Z</time>
      </trkpt>
      <trkpt lat="47.54745" lon="6.78188">
        <ele>321</ele>
        <time>2016-12-04T08:50:41.000Z</time>
      </trkpt>
      <trkpt lat="47.54743" lon="6.78195">
        <ele>321</ele>
        <time>2016-12-04T08:50:42.000Z</time>
      </trkpt>
      <trkpt lat="47.54741" lon="6.78202">
        <ele>321</ele>
        <time>2016-12-04T08:50:43.000Z</time>
      </trkpt>
      <trkpt lat="47.54738" lon="6.78209">
        <ele>321</ele>
        <time>2016-12-04T08:50:44.000Z</time>
      </trkpt>
      <trkpt lat="47.54736" lon="6.78216">
        <ele>321</ele>
        <time>2016-12-04T08:50:45.000Z</time>
      </trkpt>
      <trkpt lat="47.54734" lon="6.78223">
        <ele>321</ele>
        <time>2016-12-04T08:50:46.000Z</time>
      </trkpt>
      <trkpt lat="47.54732" lon="6.78231">
        <ele>321</ele>
        <time>2016-12-04T08:50:47.000Z</time>
      </trkpt>
      <trkpt lat="47.54729" lon="6.78238">
        <ele>321</ele>
        <time>2016-12-04T08:50:48.000Z</time>
      </trkpt>
      <trkpt lat="47.54728" lon="6.78244">
        <ele>321</ele>
        <time>2016-12-04T08:50:49.000Z</time>
      </trkpt>
      <trkpt lat="47.54726" lon="6.78251">
        <ele>321</ele>
        <time>2016-12-04T08:50:50.000Z</time>
      </trkpt>
      <trkpt lat="47.54724" lon="6.78257">
        <ele>321</ele>
        <time>2016-12-04T08:50:51.000Z</time>
      </trkpt>
      <trkpt lat="47.54721" lon="6.78265">
        <ele>321</ele>
        <time>2016-12-04T08:50:52.000Z</time>
      </trkpt>
      <trkpt lat="47.54719" lon="6.78271">
        <ele>321</ele>
        <time>2016-12-04T08:50:53.000Z</time>
      </trkpt>
      <trkpt lat="47.54717" lon="6.78276">
        <ele>321</ele>
        <time>2016-12-04T08:50:54.000Z</time>
      </trkpt>
      <trkpt lat="47.54715" lon="6.78282">
        <ele>321</ele>
        <time>2016-12-04T08:50:55.000Z</time>
      </trkpt>
      <trkpt lat="47.54713" lon="6.78289">
        <ele>321</ele>
        <time>2016-12-04T08:50:56.000Z</time>
      </trkpt>
      <trkpt lat="47.5471" lon="6.78295">
        <ele>321</ele>
        <time>2016-12-04T08:50:57.000Z</time>
      </trkpt>
      <trkpt lat="47.54708" lon="6.78302">
        <ele>321</ele>
        <time>2016-12-04T08:50:58.000Z</time>
      </trkpt>
      <trkpt lat="47.54706" lon="6.78308">
        <ele>321</ele>
        <time>2016-12-04T08:50:59.000Z</time>
      </trkpt>
      <trkpt lat="47.54704" lon="6.78313">
        <ele>321</ele>
        <time>2016-12-04T08:51:00.000Z</time>
      </trkpt>
      <trkpt lat="47.54702" lon="6.7832">
        <ele>321</ele>
        <time>2016-12-04T08:51:01.000Z</time>
      </trkpt>
      <trkpt lat="47.547" lon="6.78327">
        <ele>321</ele>
        <time>2016-12-04T08:51:02.000Z</time>
      </trkpt>
      <trkpt lat="47.54697" lon="6.78335">
        <ele>322</ele>
        <time>2016-12-04T08:51:03.000Z</time>
      </trkpt>
      <trkpt lat="47.54695" lon="6.78343">
        <ele>322</ele>
        <time>2016-12-04T08:51:04.000Z</time>
      </trkpt>
      <trkpt lat="47.54693" lon="6.78348">
        <ele>322</ele>
        <time>2016-12-04T08:51:05.000Z</time>
      </trkpt>
      <trkpt lat="47.5469" lon="6.78355">
        <ele>322</ele>
        <time>2016-12-04T08:51:06.000Z</time>
      </trkpt>
      <trkpt lat="47.54687" lon="6.78361">
        <ele>322</ele>
        <time>2016-12-04T08:51:07.000Z</time>
      </trkpt>
      <trkpt lat="47.54684" lon="6.78366">
        <ele>322</ele>
        <time>2016-12-04T08:51:08.000Z</time>
      </trkpt>
      <trkpt lat="47.54681" lon="6.78372">
        <ele>322</ele>
        <time>2016-12-04T08:51:09.000Z</time>
      </trkpt>
      <trkpt lat="47.54678" lon="6.78376">
        <ele>322</ele>
        <time>2016-12-04T08:51:10.000Z</time>
      </trkpt>
      <trkpt lat="47.54674" lon="6.7838">
        <ele>322</ele>
        <time>2016-12-04T08:51:11.000Z</time>
      </trkpt>
      <trkpt lat="47.54669" lon="6.78383">
        <ele>322</ele>
        <time>2016-12-04T08:51:12.000Z</time>
      </trkpt>
      <trkpt lat="47.54664" lon="6.78387">
        <ele>322</ele>
        <time>2016-12-04T08:51:13.000Z</time>
      </trkpt>
      <trkpt lat="47.54659" lon="6.78391">
        <ele>322</ele>
        <time>2016-12-04T08:51:14.000Z</time>
      </trkpt>
      <trkpt lat="47.54655" lon="6.78394">
        <ele>322</ele>
        <time>2016-12-04T08:51:15.000Z</time>
      </trkpt>
      <trkpt lat="47.54652" lon="6.78398">
        <ele>322</ele>
        <time>2016-12-04T08:51:16.000Z</time>
      </trkpt>
      <trkpt lat="47.54649" lon="6.78402">
        <ele>322</ele>
        <time>2016-12-04T08:51:17.000Z</time>
      </trkpt>
      <trkpt lat="47.54646" lon="6.78407">
        <ele>322</ele>
        <time>2016-12-04T08:51:18.000Z</time>
      </trkpt>
      <trkpt lat="47.54643" lon="6.78416">
        <ele>322</ele>
        <time>2016-12-04T08:51:19.000Z</time>
      </trkpt>
      <trkpt lat="47.54642" lon="6.78422">
        <ele>323</ele>
        <time>2016-12-04T08:51:20.000Z</time>
      </trkpt>
      <trkpt lat="47.54642" lon="6.78426">
        <ele>323</ele>
        <time>2016-12-04T08:51:21.000Z</time>
      </trkpt>
      <trkpt lat="47.54641" lon="6.78431">
        <ele>323</ele>
        <time>2016-12-04T08:51:22.000Z</time>
      </trkpt>
      <trkpt lat="47.5464" lon="6.78436">
        <ele>323</ele>
        <time>2016-12-04T08:51:23.000Z</time>
      </trkpt>
      <trkpt lat="47.54638" lon="6.78442">
        <ele>323</ele>
        <time>2016-12-04T08:51:24.000Z</time>
      </trkpt>
      <trkpt lat="47.54637" lon="6.78449">
        <ele>323</ele>
        <time>2016-12-04T08:51:25.000Z</time>
      </trkpt>
      <trkpt lat="47.54636" lon="6.78455">
        <ele>323</ele>
        <time>2016-12-04T08:51:26.000Z</time>
      </trkpt>
      <trkpt lat="47.54635" lon="6.78459">
        <ele>323</ele>
        <time>2016-12-04T08:51:27.000Z</time>
      </trkpt>
      <trkpt lat="47.54634" lon="6.78465">
        <ele>323</ele>
        <time>2016-12-04T08:51:28.000Z</time>
      </trkpt>
      <trkpt lat="47.54633" lon="6.7847">
        <ele>323</ele>
        <time>2016-12-04T08:51:29.000Z</time>
      </trkpt>
      <trkpt lat="47.54632" lon="6.78475">
        <ele>323</ele>
        <time>2016-12-04T08:51:30.000Z</time>
      </trkpt>
      <trkpt lat="47.54632" lon="6.78481">
        <ele>323</ele>
        <time>2016-12-04T08:51:31.000Z</time>
      </trkpt>
      <trkpt lat="47.54631" lon="6.78486">
        <ele>323</ele>
        <time>2016-12-04T08:51:32.000Z</time>
      </trkpt>
      <trkpt lat="47.54631" lon="6.7849">
        <ele>323</ele>
        <time>2016-12-04T08:51:33.000Z</time>
      </trkpt>
      <trkpt lat="47.54631" lon="6.78495">
        <ele>323</ele>
        <time>2016-12-04T08:51:34.000Z</time>
      </trkpt>
      <trkpt lat="47.54631" lon="6.78498">
        <ele>323</ele>
        <time>2016-12-04T08:51:35.000Z</time>
      </trkpt>
      <trkpt lat="47.54631" lon="6.78502">
        <ele>325</ele>
        <time>2016-12-04T08:51:36.000Z</time>
      </trkpt>
      <trkpt lat="47.54632" lon="6.78506">
        <ele>325</ele>
        <time>2016-12-04T08:51:37.000Z</time>
      </trkpt>
      <trkpt lat="47.54632" lon="6.7851">
        <ele>325</ele>
        <time>2016-12-04T08:51:38.000Z</time>
      </trkpt>
      <trkpt lat="47.54633" lon="6.78514">
        <ele>325</ele>
        <time>2016-12-04T08:51:39.000Z</time>
      </trkpt>
      <trkpt lat="47.54635" lon="6.7852">
        <ele>325</ele>
        <time>2016-12-04T08:51:40.000Z</time>
      </trkpt>
      <trkpt lat="47.54639" lon="6.78524">
        <ele>325</ele>
        <time>2016-12-04T08:51:41.000Z</time>
      </trkpt>
      <trkpt lat="47.54642" lon="6.78527">
        <ele>325</ele>
        <time>2016-12-04T08:51:42.000Z</time>
      </trkpt>
      <trkpt lat="47.54646" lon="6.78531">
        <ele>325</ele>
        <time>2016-12-04T08:51:43.000Z</time>
      </trkpt>
      <trkpt lat="47.5465" lon="6.78536">
        <ele>325</ele>
        <time>2016-12-04T08:51:44.000Z</time>
      </trkpt>
      <trkpt lat="47.54653" lon="6.7854">
        <ele>325</ele>
        <time>2016-12-04T08:51:45.000Z</time>
      </trkpt>
      <trkpt lat="47.54656" lon="6.78544">
        <ele>325</ele>
        <time>2016-12-04T08:51:46.000Z</time>
      </trkpt>
      <trkpt lat="47.54659" lon="6.78548">
        <ele>325</ele>
        <time>2016-12-04T08:51:47.000Z</time>
      </trkpt>
      <trkpt lat="47.54662" lon="6.78554">
        <ele>325</ele>
        <time>2016-12-04T08:51:48.000Z</time>
      </trkpt>
      <trkpt lat="47.54665" lon="6.7856">
        <ele>325</ele>
        <time>2016-12-04T08:51:49.000Z</time>
      </trkpt>
      <trkpt lat="47.54667" lon="6.78566">
        <ele>327</ele>
        <time>2016-12-04T08:51:50.000Z</time>
      </trkpt>
      <trkpt lat="47.54669" lon="6.78572">
        <ele>327</ele>
        <time>2016-12-04T08:51:51.000Z</time>
      </trkpt>
      <trkpt lat="47.54671" lon="6.78577">
        <ele>327</ele>
        <time>2016-12-04T08:51:52.000Z</time>
      </trkpt>
      <trkpt lat="47.54674" lon="6.78582">
        <ele>327</ele>
        <time>2016-12-04T08:51:53.000Z</time>
      </trkpt>
      <trkpt lat="47.54676" lon="6.78586">
        <ele>328</ele>
        <time>2016-12-04T08:51:54.000Z</time>
      </trkpt>
      <trkpt lat="47.54677" lon="6.7859">
        <ele>329</ele>
        <time>2016-12-04T08:51:55.000Z</time>
      </trkpt>
      <trkpt lat="47.54679" lon="6.78595">
        <ele>329</ele>
        <time>2016-12-04T08:51:56.000Z</time>
      </trkpt>
      <trkpt lat="47.54681" lon="6.78598">
        <ele>330</ele>
        <time>2016-12-04T08:51:57.000Z</time>
      </trkpt>
      <trkpt lat="47.54682" lon="6.78601">
        <ele>330</ele>
        <time>2016-12-04T08:51:58.000Z</time>
      </trkpt>
      <trkpt lat="47.54683" lon="6.78605">
        <ele>330</ele>
        <time>2016-12-04T08:51:59.000Z</time>
      </trkpt>
      <trkpt lat="47.54684" lon="6.7861">
        <ele>331</ele>
        <time>2016-12-04T08:52:00.000Z</time>
      </trkpt>
      <trkpt lat="47.54685" lon="6.78614">
        <ele>331</ele>
        <time>2016-12-04T08:52:01.000Z</time>
      </trkpt>
      <trkpt lat="47.54686" lon="6.78617">
        <ele>331</ele>
        <time>2016-12-04T08:52:02.000Z</time>
      </trkpt>
      <trkpt lat="47.54687" lon="6.78622">
        <ele>331</ele>
        <time>2016-12-04T08:52:03.000Z</time>
      </trkpt>
      <trkpt lat="47.54688" lon="6.78625">
        <ele>331</ele>
        <time>2016-12-04T08:52:04.000Z</time>
      </trkpt>
      <trkpt lat="47.54689" lon="6.7863">
        <ele>332</ele>
        <time>2016-12-04T08:52:05.000Z</time>
      </trkpt>
      <trkpt lat="47.54689" lon="6.78633">
        <ele>332</ele>
        <time>2016-12-04T08:52:06.000Z</time>
      </trkpt>
      <trkpt lat="47.5469" lon="6.78637">
        <ele>332</ele>
        <time>2016-12-04T08:52:07.000Z</time>
      </trkpt>
      <trkpt lat="47.54691" lon="6.78642">
        <ele>332</ele>
        <time>2016-12-04T08:52:08.000Z</time>
      </trkpt>
      <trkpt lat="47.54691" lon="6.78645">
        <ele>332</ele>
        <time>2016-12-04T08:52:09.000Z</time>
      </trkpt>
      <trkpt lat="47.54693" lon="6.7865">
        <ele>332</ele>
        <time>2016-12-04T08:52:10.000Z</time>
      </trkpt>
      <trkpt lat="47.54694" lon="6.78653">
        <ele>332</ele>
        <time>2016-12-04T08:52:11.000Z</time>
      </trkpt>
      <trkpt lat="47.54695" lon="6.78657">
        <ele>332</ele>
        <time>2016-12-04T08:52:12.000Z</time>
      </trkpt>
      <trkpt lat="47.54696" lon="6.78662">
        <ele>332</ele>
        <time>2016-12-04T08:52:13.000Z</time>
      </trkpt>
      <trkpt lat="47.54698" lon="6.78665">
        <ele>332</ele>
        <time>2016-12-04T08:52:14.000Z</time>
      </trkpt>
      <trkpt lat="47.54698" lon="6.78668">
        <ele>334</ele>
        <time>2016-12-04T08:52:15.000Z</time>
      </trkpt>
      <trkpt lat="47.54699" lon="6.78671">
        <ele>334</ele>
        <time>2016-12-04T08:52:16.000Z</time>
      </trkpt>
      <trkpt lat="47.54699" lon="6.78674">
        <ele>334</ele>
        <time>2016-12-04T08:52:17.000Z</time>
      </trkpt>
      <trkpt lat="47.54701" lon="6.78678">
        <ele>334</ele>
        <time>2016-12-04T08:52:18.000Z</time>
      </trkpt>
      <trkpt lat="47.54702" lon="6.78682">
        <ele>334</ele>
        <time>2016-12-04T08:52:19.000Z</time>
      </trkpt>
      <trkpt lat="47.54703" lon="6.78685">
        <ele>334</ele>
        <time>2016-12-04T08:52:20.000Z</time>
      </trkpt>
      <trkpt lat="47.54704" lon="6.78688">
        <ele>334</ele>
        <time>2016-12-04T08:52:21.000Z</time>
      </trkpt>
      <trkpt lat="47.54705" lon="6.78693">
        <ele>335</ele>
        <time>2016-12-04T08:52:22.000Z</time>
      </trkpt>
      <trkpt lat="47.54707" lon="6.78697">
        <ele>335</ele>
        <time>2016-12-04T08:52:23.000Z</time>
      </trkpt>
      <trkpt lat="47.54708" lon="6.787">
        <ele>335</ele>
        <time>2016-12-04T08:52:24.000Z</time>
      </trkpt>
      <trkpt lat="47.54709" lon="6.78704">
        <ele>335</ele>
        <time>2016-12-04T08:52:25.000Z</time>
      </trkpt>
      <trkpt lat="47.5471" lon="6.78707">
        <ele>335</ele>
        <time>2016-12-04T08:52:26.000Z</time>
      </trkpt>
      <trkpt lat="47.54712" lon="6.78711">
        <ele>335</ele>
        <time>2016-12-04T08:52:27.000Z</time>
      </trkpt>
      <trkpt lat="47.54713" lon="6.78714">
        <ele>335</ele>
        <time>2016-12-04T08:52:28.000Z</time>
      </trkpt>
      <trkpt lat="47.54714" lon="6.78717">
        <ele>335</ele>
        <time>2016-12-04T08:52:29.000Z</time>
      </trkpt>
      <trkpt lat="47.54716" lon="6.78721">
        <ele>335</ele>
        <time>2016-12-04T08:52:30.000Z</time>
      </trkpt>
      <trkpt lat="47.54717" lon="6.78724">
        <ele>335</ele>
        <time>2016-12-04T08:52:31.000Z</time>
      </trkpt>
      <trkpt lat="47.54718" lon="6.78729">
        <ele>335</ele>
        <time>2016-12-04T08:52:32.000Z</time>
      </trkpt>
      <trkpt lat="47.5472" lon="6.78733">
        <ele>335</ele>
        <time>2016-12-04T08:52:33.000Z</time>
      </trkpt>
      <trkpt lat="47.54721" lon="6.78737">
        <ele>335</ele>
        <time>2016-12-04T08:52:34.000Z</time>
      </trkpt>
      <trkpt lat="47.54722" lon="6.78742">
        <ele>335</ele>
        <time>2016-12-04T08:52:35.000Z</time>
      </trkpt>
      <trkpt lat="47.54723" lon="6.78745">
        <ele>335</ele>
        <time>2016-12-04T08:52:36.000Z</time>
      </trkpt>
      <trkpt lat="47.54724" lon="6.78749">
        <ele>335</ele>
        <time>2016-12-04T08:52:37.000Z</time>
      </trkpt>
      <trkpt lat="47.54725" lon="6.78753">
        <ele>336</ele>
        <time>2016-12-04T08:52:38.000Z</time>
      </trkpt>
      <trkpt lat="47.54726" lon="6.78757">
        <ele>336</ele>
        <time>2016-12-04T08:52:39.000Z</time>
      </trkpt>
      <trkpt lat="47.54727" lon="6.7876">
        <ele>336</ele>
        <time>2016-12-04T08:52:40.000Z</time>
      </trkpt>
      <trkpt lat="47.54728" lon="6.78764">
        <ele>336</ele>
        <time>2016-12-04T08:52:41.000Z</time>
      </trkpt>
      <trkpt lat="47.5473" lon="6.7877">
        <ele>337</ele>
        <time>2016-12-04T08:52:43.000Z</time>
      </trkpt>
      <trkpt lat="47.54731" lon="6.78774">
        <ele>337</ele>
        <time>2016-12-04T08:52:44.000Z</time>
      </trkpt>
      <trkpt lat="47.54732" lon="6.78778">
        <ele>337</ele>
        <time>2016-12-04T08:52:45.000Z</time>
      </trkpt>
      <trkpt lat="47.54734" lon="6.78782">
        <ele>337</ele>
        <time>2016-12-04T08:52:46.000Z</time>
      </trkpt>
      <trkpt lat="47.54736" lon="6.78787">
        <ele>337</ele>
        <time>2016-12-04T08:52:48.000Z</time>
      </trkpt>
      <trkpt lat="47.54737" lon="6.78791">
        <ele>337</ele>
        <time>2016-12-04T08:52:49.000Z</time>
      </trkpt>
      <trkpt lat="47.54739" lon="6.78794">
        <ele>337</ele>
        <time>2016-12-04T08:52:50.000Z</time>
      </trkpt>
      <trkpt lat="47.5474" lon="6.78797">
        <ele>337</ele>
        <time>2016-12-04T08:52:51.000Z</time>
      </trkpt>
      <trkpt lat="47.54741" lon="6.78802">
        <ele>337</ele>
        <time>2016-12-04T08:52:53.000Z</time>
      </trkpt>
      <trkpt lat="47.54742" lon="6.78805">
        <ele>337</ele>
        <time>2016-12-04T08:52:54.000Z</time>
      </trkpt>
      <trkpt lat="47.54743" lon="6.78811">
        <ele>337</ele>
        <time>2016-12-04T08:52:56.000Z</time>
      </trkpt>
      <trkpt lat="47.54744" lon="6.78814">
        <ele>338</ele>
        <time>2016-12-04T08:52:57.000Z</time>
      </trkpt>
      <trkpt lat="47.54745" lon="6.78818">
        <ele>338</ele>
        <time>2016-12-04T08:52:59.000Z</time>
      </trkpt>
      <trkpt lat="47.54746" lon="6.78821">
        <ele>338</ele>
        <time>2016-12-04T08:53:00.000Z</time>
      </trkpt>
      <trkpt lat="47.54747" lon="6.78827">
        <ele>338</ele>
        <time>2016-12-04T08:53:02.000Z</time>
      </trkpt>
      <trkpt lat="47.54747" lon="6.78829">
        <ele>338</ele>
        <time>2016-12-04T08:53:03.000Z</time>
      </trkpt>
      <trkpt lat="47.54748" lon="6.78833">
        <ele>338</ele>
        <time>2016-12-04T08:53:05.000Z</time>
      </trkpt>
      <trkpt lat="47.54749" lon="6.78836">
        <ele>338</ele>
        <time>2016-12-04T08:53:06.000Z</time>
      </trkpt>
      <trkpt lat="47.5475" lon="6.78841">
        <ele>339</ele>
        <time>2016-12-04T08:53:08.000Z</time>
      </trkpt>
      <trkpt lat="47.54751" lon="6.78843">
        <ele>339</ele>
        <time>2016-12-04T08:53:09.000Z</time>
      </trkpt>
      <trkpt lat="47.54751" lon="6.7885">
        <ele>340</ele>
        <time>2016-12-04T08:53:12.000Z</time>
      </trkpt>
      <trkpt lat="47.54752" lon="6.78852">
        <ele>340</ele>
        <time>2016-12-04T08:53:13.000Z</time>
      </trkpt>
      <trkpt lat="47.54752" lon="6.78858">
        <ele>340</ele>
        <time>2016-12-04T08:53:15.000Z</time>
      </trkpt>
      <trkpt lat="47.54753" lon="6.78861">
        <ele>340</ele>
        <time>2016-12-04T08:53:16.000Z</time>
      </trkpt>
      <trkpt lat="47.54753" lon="6.78867">
        <ele>341</ele>
        <time>2016-12-04T08:53:18.000Z</time>
      </trkpt>
      <trkpt lat="47.54753" lon="6.78869">
        <ele>341</ele>
        <time>2016-12-04T08:53:19.000Z</time>
      </trkpt>
      <trkpt lat="47.54754" lon="6.78874">
        <ele>341</ele>
        <time>2016-12-04T08:53:21.000Z</time>
      </trkpt>
      <trkpt lat="47.54755" lon="6.78876">
        <ele>341</ele>
        <time>2016-12-04T08:53:22.000Z</time>
      </trkpt>
      <trkpt lat="47.54756" lon="6.78882">
        <ele>342</ele>
        <time>2016-12-04T08:53:24.000Z</time>
      </trkpt>
      <trkpt lat="47.54757" lon="6.78884">
        <ele>342</ele>
        <time>2016-12-04T08:53:25.000Z</time>
      </trkpt>
      <trkpt lat="47.54758" lon="6.78888">
        <ele>342</ele>
        <time>2016-12-04T08:53:27.000Z</time>
      </trkpt>
      <trkpt lat="47.54758" lon="6.78891">
        <ele>342</ele>
        <time>2016-12-04T08:53:28.000Z</time>
      </trkpt>
      <trkpt lat="47.54759" lon="6.78896">
        <ele>342</ele>
        <time>2016-12-04T08:53:30.000Z</time>
      </trkpt>
      <trkpt lat="47.5476" lon="6.78898">
        <ele>342</ele>
        <time>2016-12-04T08:53:31.000Z</time>
      </trkpt>
      <trkpt lat="47.54761" lon="6.78904">
        <ele>343</ele>
        <time>2016-12-04T08:53:34.000Z</time>
      </trkpt>
      <trkpt lat="47.54761" lon="6.78906">
        <ele>343</ele>
        <time>2016-12-04T08:53:35.000Z</time>
      </trkpt>
      <trkpt lat="47.54762" lon="6.78912">
        <ele>343</ele>
        <time>2016-12-04T08:53:37.000Z</time>
      </trkpt>
      <trkpt lat="47.54763" lon="6.78915">
        <ele>343</ele>
        <time>2016-12-04T08:53:38.000Z</time>
      </trkpt>
      <trkpt lat="47.54764" lon="6.78918">
        <ele>345</ele>
        <time>2016-12-04T08:53:39.000Z</time>
      </trkpt>
      <trkpt lat="47.54765" lon="6.78921">
        <ele>345</ele>
        <time>2016-12-04T08:53:40.000Z</time>
      </trkpt>
      <trkpt lat="47.54766" lon="6.78926">
        <ele>345</ele>
        <time>2016-12-04T08:53:42.000Z</time>
      </trkpt>
      <trkpt lat="47.54766" lon="6.78928">
        <ele>345</ele>
        <time>2016-12-04T08:53:43.000Z</time>
      </trkpt>
      <trkpt lat="47.54768" lon="6.78933">
        <ele>346</ele>
        <time>2016-12-04T08:53:45.000Z</time>
      </trkpt>
      <trkpt lat="47.54769" lon="6.78935">
        <ele>346</ele>
        <time>2016-12-04T08:53:46.000Z</time>
      </trkpt>
      <trkpt lat="47.5477" lon="6.78937">
        <ele>346</ele>
        <time>2016-12-04T08:53:47.000Z</time>
      </trkpt>
      <trkpt lat="47.54771" lon="6.78941">
        <ele>346</ele>
        <time>2016-12-04T08:53:48.000Z</time>
      </trkpt>
      <trkpt lat="47.54773" lon="6.78946">
        <ele>346</ele>
        <time>2016-12-04T08:53:50.000Z</time>
      </trkpt>
      <trkpt lat="47.54774" lon="6.78948">
        <ele>346</ele>
        <time>2016-12-04T08:53:51.000Z</time>
      </trkpt>
      <trkpt lat="47.54776" lon="6.78953">
        <ele>347</ele>
        <time>2016-12-04T08:53:53.000Z</time>
      </trkpt>
      <trkpt lat="47.54777" lon="6.78956">
        <ele>347</ele>
        <time>2016-12-04T08:53:54.000Z</time>
      </trkpt>
      <trkpt lat="47.54779" lon="6.7896">
        <ele>347</ele>
        <time>2016-12-04T08:53:55.000Z</time>
      </trkpt>
      <trkpt lat="47.5478" lon="6.78962">
        <ele>347</ele>
        <time>2016-12-04T08:53:56.000Z</time>
      </trkpt>
      <trkpt lat="47.54782" lon="6.78966">
        <ele>347</ele>
        <time>2016-12-04T08:53:58.000Z</time>
      </trkpt>
      <trkpt lat="47.54783" lon="6.78969">
        <ele>347</ele>
        <time>2016-12-04T08:53:59.000Z</time>
      </trkpt>
      <trkpt lat="47.54785" lon="6.78974">
        <ele>347</ele>
        <time>2016-12-04T08:54:01.000Z</time>
      </trkpt>
      <trkpt lat="47.54786" lon="6.78977">
        <ele>348</ele>
        <time>2016-12-04T08:54:02.000Z</time>
      </trkpt>
      <trkpt lat="47.54789" lon="6.78983">
        <ele>348</ele>
        <time>2016-12-04T08:54:04.000Z</time>
      </trkpt>
      <trkpt lat="47.5479" lon="6.78985">
        <ele>348</ele>
        <time>2016-12-04T08:54:05.000Z</time>
      </trkpt>
      <trkpt lat="47.54792" lon="6.78989">
        <ele>348</ele>
        <time>2016-12-04T08:54:07.000Z</time>
      </trkpt>
      <trkpt lat="47.54793" lon="6.78992">
        <ele>348</ele>
        <time>2016-12-04T08:54:08.000Z</time>
      </trkpt>
      <trkpt lat="47.54796" lon="6.78998">
        <ele>348</ele>
        <time>2016-12-04T08:54:10.000Z</time>
      </trkpt>
      <trkpt lat="47.54797" lon="6.79001">
        <ele>352</ele>
        <time>2016-12-04T08:54:11.000Z</time>
      </trkpt>
      <trkpt lat="47.54798" lon="6.79005">
        <ele>352</ele>
        <time>2016-12-04T08:54:12.000Z</time>
      </trkpt>
      <trkpt lat="47.54799" lon="6.79007">
        <ele>352</ele>
        <time>2016-12-04T08:54:13.000Z</time>
      </trkpt>
      <trkpt lat="47.54801" lon="6.79012">
        <ele>352</ele>
        <time>2016-12-04T08:54:15.000Z</time>
      </trkpt>
      <trkpt lat="47.54802" lon="6.79015">
        <ele>352</ele>
        <time>2016-12-04T08:54:16.000Z</time>
      </trkpt>
      <trkpt lat="47.54804" lon="6.7902">
        <ele>352</ele>
        <time>2016-12-04T08:54:18.000Z</time>
      </trkpt>
      <trkpt lat="47.54805" lon="6.79023">
        <ele>352</ele>
        <time>2016-12-04T08:54:19.000Z</time>
      </trkpt>
      <trkpt lat="47.54806" lon="6.79025">
        <ele>352</ele>
        <time>2016-12-04T08:54:20.000Z</time>
      </trkpt>
      <trkpt lat="47.54808" lon="6.79029">
        <ele>352</ele>
        <time>2016-12-04T08:54:21.000Z</time>
      </trkpt>
      <trkpt lat="47.54809" lon="6.79033">
        <ele>352</ele>
        <time>2016-12-04T08:54:22.000Z</time>
      </trkpt>
      <trkpt lat="47.5481" lon="6.79037">
        <ele>353</ele>
        <time>2016-12-04T08:54:23.000Z</time>
      </trkpt>
      <trkpt lat="47.54811" lon="6.79042">
        <ele>353</ele>
        <time>2016-12-04T08:54:25.000Z</time>
      </trkpt>
      <trkpt lat="47.54812" lon="6.79045">
        <ele>353</ele>
        <time>2016-12-04T08:54:26.000Z</time>
      </trkpt>
      <trkpt lat="47.54813" lon="6.79051">
        <ele>353</ele>
        <time>2016-12-04T08:54:28.000Z</time>
      </trkpt>
      <trkpt lat="47.54814" lon="6.79055">
        <ele>353</ele>
        <time>2016-12-04T08:54:29.000Z</time>
      </trkpt>
      <trkpt lat="47.54815" lon="6.79058">
        <ele>353</ele>
        <time>2016-12-04T08:54:30.000Z</time>
      </trkpt>
      <trkpt lat="47.54816" lon="6.79062">
        <ele>354</ele>
        <time>2016-12-04T08:54:31.000Z</time>
      </trkpt>
      <trkpt lat="47.54817" lon="6.79066">
        <ele>354</ele>
        <time>2016-12-04T08:54:32.000Z</time>
      </trkpt>
      <trkpt lat="47.54818" lon="6.79068">
        <ele>354</ele>
        <time>2016-12-04T08:54:33.000Z</time>
      </trkpt>
      <trkpt lat="47.54819" lon="6.79072">
        <ele>354</ele>
        <time>2016-12-04T08:54:34.000Z</time>
      </trkpt>
      <trkpt lat="47.5482" lon="6.79075">
        <ele>354</ele>
        <time>2016-12-04T08:54:35.000Z</time>
      </trkpt>
      <trkpt lat="47.54821" lon="6.79078">
        <ele>354</ele>
        <time>2016-12-04T08:54:36.000Z</time>
      </trkpt>
      <trkpt lat="47.54822" lon="6.79081">
        <ele>354</ele>
        <time>2016-12-04T08:54:37.000Z</time>
      </trkpt>
      <trkpt lat="47.54823" lon="6.79083">
        <ele>354</ele>
        <time>2016-12-04T08:54:38.000Z</time>
      </trkpt>
      <trkpt lat="47.54825" lon="6.79086">
        <ele>356</ele>
        <time>2016-12-04T08:54:39.000Z</time>
      </trkpt>
      <trkpt lat="47.54827" lon="6.79089">
        <ele>356</ele>
        <time>2016-12-04T08:54:40.000Z</time>
      </trkpt>
      <trkpt lat="47.54828" lon="6.79092">
        <ele>356</ele>
        <time>2016-12-04T08:54:41.000Z</time>
      </trkpt>
      <trkpt lat="47.5483" lon="6.79097">
        <ele>356</ele>
        <time>2016-12-04T08:54:43.000Z</time>
      </trkpt>
      <trkpt lat="47.54831" lon="6.791">
        <ele>356</ele>
        <time>2016-12-04T08:54:44.000Z</time>
      </trkpt>
      <trkpt lat="47.54833" lon="6.79105">
        <ele>356</ele>
        <time>2016-12-04T08:54:46.000Z</time>
      </trkpt>
      <trkpt lat="47.54834" lon="6.79107">
        <ele>356</ele>
        <time>2016-12-04T08:54:47.000Z</time>
      </trkpt>
      <trkpt lat="47.54836" lon="6.79111">
        <ele>356</ele>
        <time>2016-12-04T08:54:48.000Z</time>
      </trkpt>
      <trkpt lat="47.54838" lon="6.79114">
        <ele>356</ele>
        <time>2016-12-04T08:54:49.000Z</time>
      </trkpt>
      <trkpt lat="47.54839" lon="6.79117">
        <ele>356</ele>
        <time>2016-12-04T08:54:50.000Z</time>
      </trkpt>
      <trkpt lat="47.5484" lon="6.7912">
        <ele>356</ele>
        <time>2016-12-04T08:54:51.000Z</time>
      </trkpt>
      <trkpt lat="47.54842" lon="6.79124">
        <ele>356</ele>
        <time>2016-12-04T08:54:52.000Z</time>
      </trkpt>
      <trkpt lat="47.54843" lon="6.79127">
        <ele>356</ele>
        <time>2016-12-04T08:54:53.000Z</time>
      </trkpt>
      <trkpt lat="47.54845" lon="6.79131">
        <ele>356</ele>
        <time>2016-12-04T08:54:55.000Z</time>
      </trkpt>
      <trkpt lat="47.54846" lon="6.79134">
        <ele>356</ele>
        <time>2016-12-04T08:54:56.000Z</time>
      </trkpt>
      <trkpt lat="47.54847" lon="6.79138">
        <ele>356</ele>
        <time>2016-12-04T08:54:57.000Z</time>
      </trkpt>
      <trkpt lat="47.54848" lon="6.79141">
        <ele>356</ele>
        <time>2016-12-04T08:54:58.000Z</time>
      </trkpt>
      <trkpt lat="47.54849" lon="6.79144">
        <ele>356</ele>
        <time>2016-12-04T08:54:59.000Z</time>
      </trkpt>
      <trkpt lat="47.5485" lon="6.79148">
        <ele>357</ele>
        <time>2016-12-04T08:55:00.000Z</time>
      </trkpt>
      <trkpt lat="47.54851" lon="6.79152">
        <ele>357</ele>
        <time>2016-12-04T08:55:01.000Z</time>
      </trkpt>
      <trkpt lat="47.54852" lon="6.79156">
        <ele>357</ele>
        <time>2016-12-04T08:55:02.000Z</time>
      </trkpt>
      <trkpt lat="47.54853" lon="6.79159">
        <ele>357</ele>
        <time>2016-12-04T08:55:03.000Z</time>
      </trkpt>
      <trkpt lat="47.54854" lon="6.79163">
        <ele>357</ele>
        <time>2016-12-04T08:55:04.000Z</time>
      </trkpt>
      <trkpt lat="47.54855" lon="6.79167">
        <ele>358</ele>
        <time>2016-12-04T08:55:05.000Z</time>
      </trkpt>
      <trkpt lat="47.54856" lon="6.79171">
        <ele>358</ele>
        <time>2016-12-04T08:55:06.000Z</time>
      </trkpt>
      <trkpt lat="47.54857" lon="6.79174">
        <ele>358</ele>
        <time>2016-12-04T08:55:07.000Z</time>
      </trkpt>
      <trkpt lat="47.54858" lon="6.79178">
        <ele>358</ele>
        <time>2016-12-04T08:55:08.000Z</time>
      </trkpt>
      <trkpt lat="47.54858" lon="6.79182">
        <ele>358</ele>
        <time>2016-12-04T08:55:09.000Z</time>
      </trkpt>
      <trkpt lat="47.54859" lon="6.79186">
        <ele>358</ele>
        <time>2016-12-04T08:55:10.000Z</time>
      </trkpt>
      <trkpt lat="47.54861" lon="6.79191">
        <ele>358</ele>
        <time>2016-12-04T08:55:11.000Z</time>
      </trkpt>
      <trkpt lat="47.54862" lon="6.79194">
        <ele>358</ele>
        <time>2016-12-04T08:55:12.000Z</time>
      </trkpt>
      <trkpt lat="47.54863" lon="6.79197">
        <ele>358</ele>
        <time>2016-12-04T08:55:13.000Z</time>
      </trkpt>
      <trkpt lat="47.54864" lon="6.79201">
        <ele>358</ele>
        <time>2016-12-04T08:55:14.000Z</time>
      </trkpt>
      <trkpt lat="47.54865" lon="6.79205">
        <ele>358</ele>
        <time>2016-12-04T08:55:15.000Z</time>
      </trkpt>
      <trkpt lat="47.54865" lon="6.79208">
        <ele>358</ele>
        <time>2016-12-04T08:55:16.000Z</time>
      </trkpt>
      <trkpt lat="47.54867" lon="6.79214">
        <ele>358</ele>
        <time>2016-12-04T08:55:18.000Z</time>
      </trkpt>
      <trkpt lat="47.54868" lon="6.79218">
        <ele>358</ele>
        <time>2016-12-04T08:55:19.000Z</time>
      </trkpt>
      <trkpt lat="47.54869" lon="6.79223">
        <ele>358</ele>
        <time>2016-12-04T08:55:20.000Z</time>
      </trkpt>
      <trkpt lat="47.5487" lon="6.79229">
        <ele>358</ele>
        <time>2016-12-04T08:55:21.000Z</time>
      </trkpt>
      <trkpt lat="47.54871" lon="6.79232">
        <ele>358</ele>
        <time>2016-12-04T08:55:22.000Z</time>
      </trkpt>
      <trkpt lat="47.54872" lon="6.79237">
        <ele>358</ele>
        <time>2016-12-04T08:55:23.000Z</time>
      </trkpt>
      <trkpt lat="47.54873" lon="6.79241">
        <ele>359</ele>
        <time>2016-12-04T08:55:24.000Z</time>
      </trkpt>
      <trkpt lat="47.54874" lon="6.79247">
        <ele>359</ele>
        <time>2016-12-04T08:55:25.000Z</time>
      </trkpt>
      <trkpt lat="47.54875" lon="6.79253">
        <ele>359</ele>
        <time>2016-12-04T08:55:26.000Z</time>
      </trkpt>
      <trkpt lat="47.54876" lon="6.79259">
        <ele>359</ele>
        <time>2016-12-04T08:55:27.000Z</time>
      </trkpt>
      <trkpt lat="47.54877" lon="6.79264">
        <ele>358</ele>
        <time>2016-12-04T08:55:28.000Z</time>
      </trkpt>
      <trkpt lat="47.54878" lon="6.79268">
        <ele>358</ele>
        <time>2016-12-04T08:55:29.000Z</time>
      </trkpt>
      <trkpt lat="47.54879" lon="6.79272">
        <ele>358</ele>
        <time>2016-12-04T08:55:30.000Z</time>
      </trkpt>
      <trkpt lat="47.5488" lon="6.79277">
        <ele>358</ele>
        <time>2016-12-04T08:55:31.000Z</time>
      </trkpt>
      <trkpt lat="47.54881" lon="6.79281">
        <ele>358</ele>
        <time>2016-12-04T08:55:32.000Z</time>
      </trkpt>
      <trkpt lat="47.54882" lon="6.79286">
        <ele>358</ele>
        <time>2016-12-04T08:55:33.000Z</time>
      </trkpt>
      <trkpt lat="47.54883" lon="6.79292">
        <ele>358</ele>
        <time>2016-12-04T08:55:34.000Z</time>
      </trkpt>
      <trkpt lat="47.54884" lon="6.79297">
        <ele>358</ele>
        <time>2016-12-04T08:55:35.000Z</time>
      </trkpt>
      <trkpt lat="47.54885" lon="6.79301">
        <ele>358</ele>
        <time>2016-12-04T08:55:36.000Z</time>
      </trkpt>
      <trkpt lat="47.54886" lon="6.79307">
        <ele>358</ele>
        <time>2016-12-04T08:55:37.000Z</time>
      </trkpt>
      <trkpt lat="47.54887" lon="6.79311">
        <ele>358</ele>
        <time>2016-12-04T08:55:38.000Z</time>
      </trkpt>
      <trkpt lat="47.54888" lon="6.79315">
        <ele>358</ele>
        <time>2016-12-04T08:55:39.000Z</time>
      </trkpt>
      <trkpt lat="47.54889" lon="6.79321">
        <ele>358</ele>
        <time>2016-12-04T08:55:40.000Z</time>
      </trkpt>
      <trkpt lat="47.5489" lon="6.79325">
        <ele>358</ele>
        <time>2016-12-04T08:55:41.000Z</time>
      </trkpt>
      <trkpt lat="47.54891" lon="6.79329">
        <ele>358</ele>
        <time>2016-12-04T08:55:42.000Z</time>
      </trkpt>
      <trkpt lat="47.54892" lon="6.79333">
        <ele>358</ele>
        <time>2016-12-04T08:55:43.000Z</time>
      </trkpt>
      <trkpt lat="47.54893" lon="6.79337">
        <ele>357</ele>
        <time>2016-12-04T08:55:44.000Z</time>
      </trkpt>
      <trkpt lat="47.54894" lon="6.79342">
        <ele>357</ele>
        <time>2016-12-04T08:55:45.000Z</time>
      </trkpt>
      <trkpt lat="47.54895" lon="6.79345">
        <ele>357</ele>
        <time>2016-12-04T08:55:46.000Z</time>
      </trkpt>
      <trkpt lat="47.54896" lon="6.79349">
        <ele>357</ele>
        <time>2016-12-04T08:55:47.000Z</time>
      </trkpt>
      <trkpt lat="47.54897" lon="6.79354">
        <ele>357</ele>
        <time>2016-12-04T08:55:49.000Z</time>
      </trkpt>
      <trkpt lat="47.54897" lon="6.79356">
        <ele>357</ele>
        <time>2016-12-04T08:55:50.000Z</time>
      </trkpt>
      <trkpt lat="47.54897" lon="6.79361">
        <ele>356</ele>
        <time>2016-12-04T08:55:52.000Z</time>
      </trkpt>
      <trkpt lat="47.54895" lon="6.79365">
        <ele>356</ele>
        <time>2016-12-04T08:55:53.000Z</time>
      </trkpt>
      <trkpt lat="47.54893" lon="6.7937">
        <ele>356</ele>
        <time>2016-12-04T08:55:54.000Z</time>
      </trkpt>
      <trkpt lat="47.54892" lon="6.79372">
        <ele>356</ele>
        <time>2016-12-04T08:55:55.000Z</time>
      </trkpt>
      <trkpt lat="47.54889" lon="6.79374">
        <ele>356</ele>
        <time>2016-12-04T08:55:56.000Z</time>
      </trkpt>
      <trkpt lat="47.54886" lon="6.79378">
        <ele>356</ele>
        <time>2016-12-04T08:55:57.000Z</time>
      </trkpt>
      <trkpt lat="47.54883" lon="6.79379">
        <ele>356</ele>
        <time>2016-12-04T08:55:58.000Z</time>
      </trkpt>
      <trkpt lat="47.5488" lon="6.79381">
        <ele>356</ele>
        <time>2016-12-04T08:55:59.000Z</time>
      </trkpt>
      <trkpt lat="47.54876" lon="6.79383">
        <ele>356</ele>
        <time>2016-12-04T08:56:00.000Z</time>
      </trkpt>
      <trkpt lat="47.54872" lon="6.79384">
        <ele>356</ele>
        <time>2016-12-04T08:56:01.000Z</time>
      </trkpt>
      <trkpt lat="47.54869" lon="6.79386">
        <ele>356</ele>
        <time>2016-12-04T08:56:02.000Z</time>
      </trkpt>
      <trkpt lat="47.54866" lon="6.79387">
        <ele>356</ele>
        <time>2016-12-04T08:56:03.000Z</time>
      </trkpt>
      <trkpt lat="47.54863" lon="6.79388">
        <ele>356</ele>
        <time>2016-12-04T08:56:04.000Z</time>
      </trkpt>
      <trkpt lat="47.54859" lon="6.7939">
        <ele>356</ele>
        <time>2016-12-04T08:56:05.000Z</time>
      </trkpt>
      <trkpt lat="47.54856" lon="6.79392">
        <ele>356</ele>
        <time>2016-12-04T08:56:06.000Z</time>
      </trkpt>
      <trkpt lat="47.54853" lon="6.79394">
        <ele>356</ele>
        <time>2016-12-04T08:56:07.000Z</time>
      </trkpt>
      <trkpt lat="47.5485" lon="6.79398">
        <ele>356</ele>
        <time>2016-12-04T08:56:08.000Z</time>
      </trkpt>
      <trkpt lat="47.54847" lon="6.79399">
        <ele>356</ele>
        <time>2016-12-04T08:56:09.000Z</time>
      </trkpt>
      <trkpt lat="47.54845" lon="6.79401">
        <ele>356</ele>
        <time>2016-12-04T08:56:10.000Z</time>
      </trkpt>
      <trkpt lat="47.54843" lon="6.79403">
        <ele>355</ele>
        <time>2016-12-04T08:56:11.000Z</time>
      </trkpt>
      <trkpt lat="47.54841" lon="6.79405">
        <ele>355</ele>
        <time>2016-12-04T08:56:12.000Z</time>
      </trkpt>
      <trkpt lat="47.54838" lon="6.79407">
        <ele>355</ele>
        <time>2016-12-04T08:56:13.000Z</time>
      </trkpt>
      <trkpt lat="47.54836" lon="6.79408">
        <ele>355</ele>
        <time>2016-12-04T08:56:14.000Z</time>
      </trkpt>
      <trkpt lat="47.54834" lon="6.7941">
        <ele>355</ele>
        <time>2016-12-04T08:56:15.000Z</time>
      </trkpt>
      <trkpt lat="47.54831" lon="6.79414">
        <ele>355</ele>
        <time>2016-12-04T08:56:17.000Z</time>
      </trkpt>
      <trkpt lat="47.54829" lon="6.79416">
        <ele>355</ele>
        <time>2016-12-04T08:56:18.000Z</time>
      </trkpt>
      <trkpt lat="47.54825" lon="6.79419">
        <ele>356</ele>
        <time>2016-12-04T08:56:20.000Z</time>
      </trkpt>
      <trkpt lat="47.54823" lon="6.79421">
        <ele>356</ele>
        <time>2016-12-04T08:56:21.000Z</time>
      </trkpt>
      <trkpt lat="47.54821" lon="6.79424">
        <ele>356</ele>
        <time>2016-12-04T08:56:22.000Z</time>
      </trkpt>
      <trkpt lat="47.5482" lon="6.79426">
        <ele>356</ele>
        <time>2016-12-04T08:56:23.000Z</time>
      </trkpt>
      <trkpt lat="47.54817" lon="6.79429">
        <ele>356</ele>
        <time>2016-12-04T08:56:24.000Z</time>
      </trkpt>
      <trkpt lat="47.54815" lon="6.79432">
        <ele>357</ele>
        <time>2016-12-04T08:56:25.000Z</time>
      </trkpt>
      <trkpt lat="47.54812" lon="6.79436">
        <ele>357</ele>
        <time>2016-12-04T08:56:27.000Z</time>
      </trkpt>
      <trkpt lat="47.54811" lon="6.79438">
        <ele>357</ele>
        <time>2016-12-04T08:56:28.000Z</time>
      </trkpt>
      <trkpt lat="47.54808" lon="6.79443">
        <ele>357</ele>
        <time>2016-12-04T08:56:30.000Z</time>
      </trkpt>
      <trkpt lat="47.54805" lon="6.79445">
        <ele>357</ele>
        <time>2016-12-04T08:56:31.000Z</time>
      </trkpt>
      <trkpt lat="47.54801" lon="6.79447">
        <ele>357</ele>
        <time>2016-12-04T08:56:32.000Z</time>
      </trkpt>
      <trkpt lat="47.54799" lon="6.79448">
        <ele>357</ele>
        <time>2016-12-04T08:56:33.000Z</time>
      </trkpt>
      <trkpt lat="47.54795" lon="6.7945">
        <ele>357</ele>
        <time>2016-12-04T08:56:35.000Z</time>
      </trkpt>
      <trkpt lat="47.54795" lon="6.79453">
        <ele>357</ele>
        <time>2016-12-04T08:56:36.000Z</time>
      </trkpt>
      <trkpt lat="47.54794" lon="6.79456">
        <ele>357</ele>
        <time>2016-12-04T08:56:37.000Z</time>
      </trkpt>
      <trkpt lat="47.54795" lon="6.79463">
        <ele>358</ele>
        <time>2016-12-04T08:56:38.000Z</time>
      </trkpt>
      <trkpt lat="47.54797" lon="6.79467">
        <ele>358</ele>
        <time>2016-12-04T08:56:39.000Z</time>
      </trkpt>
      <trkpt lat="47.548" lon="6.79473">
        <ele>358</ele>
        <time>2016-12-04T08:56:40.000Z</time>
      </trkpt>
      <trkpt lat="47.54801" lon="6.79478">
        <ele>358</ele>
        <time>2016-12-04T08:56:41.000Z</time>
      </trkpt>
      <trkpt lat="47.54803" lon="6.79482">
        <ele>358</ele>
        <time>2016-12-04T08:56:42.000Z</time>
      </trkpt>
      <trkpt lat="47.54804" lon="6.79486">
        <ele>358</ele>
        <time>2016-12-04T08:56:43.000Z</time>
      </trkpt>
      <trkpt lat="47.54805" lon="6.7949">
        <ele>358</ele>
        <time>2016-12-04T08:56:44.000Z</time>
      </trkpt>
      <trkpt lat="47.54806" lon="6.79496">
        <ele>358</ele>
        <time>2016-12-04T08:56:45.000Z</time>
      </trkpt>
      <trkpt lat="47.54808" lon="6.79501">
        <ele>360</ele>
        <time>2016-12-04T08:56:46.000Z</time>
      </trkpt>
      <trkpt lat="47.5481" lon="6.79505">
        <ele>360</ele>
        <time>2016-12-04T08:56:47.000Z</time>
      </trkpt>
      <trkpt lat="47.54812" lon="6.79507">
        <ele>360</ele>
        <time>2016-12-04T08:56:48.000Z</time>
      </trkpt>
      <trkpt lat="47.54814" lon="6.7951">
        <ele>360</ele>
        <time>2016-12-04T08:56:49.000Z</time>
      </trkpt>
      <trkpt lat="47.54818" lon="6.79514">
        <ele>360</ele>
        <time>2016-12-04T08:56:50.000Z</time>
      </trkpt>
      <trkpt lat="47.54822" lon="6.79518">
        <ele>360</ele>
        <time>2016-12-04T08:56:51.000Z</time>
      </trkpt>
      <trkpt lat="47.54826" lon="6.79522">
        <ele>360</ele>
        <time>2016-12-04T08:56:52.000Z</time>
      </trkpt>
      <trkpt lat="47.54829" lon="6.79526">
        <ele>360</ele>
        <time>2016-12-04T08:56:53.000Z</time>
      </trkpt>
      <trkpt lat="47.54832" lon="6.7953">
        <ele>360</ele>
        <time>2016-12-04T08:56:54.000Z</time>
      </trkpt>
      <trkpt lat="47.54835" lon="6.79535">
        <ele>358</ele>
        <time>2016-12-04T08:56:55.000Z</time>
      </trkpt>
      <trkpt lat="47.54837" lon="6.79539">
        <ele>358</ele>
        <time>2016-12-04T08:56:56.000Z</time>
      </trkpt>
      <trkpt lat="47.54839" lon="6.79543">
        <ele>358</ele>
        <time>2016-12-04T08:56:57.000Z</time>
      </trkpt>
      <trkpt lat="47.54842" lon="6.79548">
        <ele>358</ele>
        <time>2016-12-04T08:56:58.000Z</time>
      </trkpt>
      <trkpt lat="47.54844" lon="6.79553">
        <ele>358</ele>
        <time>2016-12-04T08:56:59.000Z</time>
      </trkpt>
      <trkpt lat="47.54847" lon="6.79559">
        <ele>358</ele>
        <time>2016-12-04T08:57:00.000Z</time>
      </trkpt>
      <trkpt lat="47.54848" lon="6.79564">
        <ele>358</ele>
        <time>2016-12-04T08:57:01.000Z</time>
      </trkpt>
      <trkpt lat="47.5485" lon="6.7957">
        <ele>358</ele>
        <time>2016-12-04T08:57:02.000Z</time>
      </trkpt>
      <trkpt lat="47.54852" lon="6.79575">
        <ele>358</ele>
        <time>2016-12-04T08:57:03.000Z</time>
      </trkpt>
      <trkpt lat="47.54854" lon="6.79581">
        <ele>358</ele>
        <time>2016-12-04T08:57:04.000Z</time>
      </trkpt>
      <trkpt lat="47.54856" lon="6.79586">
        <ele>358</ele>
        <time>2016-12-04T08:57:05.000Z</time>
      </trkpt>
      <trkpt lat="47.54858" lon="6.79592">
        <ele>358</ele>
        <time>2016-12-04T08:57:06.000Z</time>
      </trkpt>
      <trkpt lat="47.5486" lon="6.79598">
        <ele>358</ele>
        <time>2016-12-04T08:57:07.000Z</time>
      </trkpt>
      <trkpt lat="47.54863" lon="6.79602">
        <ele>358</ele>
        <time>2016-12-04T08:57:08.000Z</time>
      </trkpt>
      <trkpt lat="47.54865" lon="6.79604">
        <ele>357</ele>
        <time>2016-12-04T08:57:09.000Z</time>
      </trkpt>
      <trkpt lat="47.54867" lon="6.79607">
        <ele>357</ele>
        <time>2016-12-04T08:57:10.000Z</time>
      </trkpt>
      <trkpt lat="47.54868" lon="6.79613">
        <ele>357</ele>
        <time>2016-12-04T08:57:11.000Z</time>
      </trkpt>
      <trkpt lat="47.54869" lon="6.79619">
        <ele>357</ele>
        <time>2016-12-04T08:57:12.000Z</time>
      </trkpt>
      <trkpt lat="47.54871" lon="6.79624">
        <ele>357</ele>
        <time>2016-12-04T08:57:13.000Z</time>
      </trkpt>
      <trkpt lat="47.54874" lon="6.7963">
        <ele>357</ele>
        <time>2016-12-04T08:57:14.000Z</time>
      </trkpt>
      <trkpt lat="47.54877" lon="6.79634">
        <ele>357</ele>
        <time>2016-12-04T08:57:15.000Z</time>
      </trkpt>
      <trkpt lat="47.5488" lon="6.79639">
        <ele>357</ele>
        <time>2016-12-04T08:57:16.000Z</time>
      </trkpt>
      <trkpt lat="47.54884" lon="6.79643">
        <ele>357</ele>
        <time>2016-12-04T08:57:17.000Z</time>
      </trkpt>
      <trkpt lat="47.54887" lon="6.79647">
        <ele>357</ele>
        <time>2016-12-04T08:57:18.000Z</time>
      </trkpt>
      <trkpt lat="47.5489" lon="6.79649">
        <ele>357</ele>
        <time>2016-12-04T08:57:19.000Z</time>
      </trkpt>
      <trkpt lat="47.54893" lon="6.79652">
        <ele>357</ele>
        <time>2016-12-04T08:57:20.000Z</time>
      </trkpt>
      <trkpt lat="47.54897" lon="6.79656">
        <ele>357</ele>
        <time>2016-12-04T08:57:21.000Z</time>
      </trkpt>
      <trkpt lat="47.54901" lon="6.79661">
        <ele>357</ele>
        <time>2016-12-04T08:57:22.000Z</time>
      </trkpt>
      <trkpt lat="47.54903" lon="6.79667">
        <ele>357</ele>
        <time>2016-12-04T08:57:23.000Z</time>
      </trkpt>
      <trkpt lat="47.54906" lon="6.79672">
        <ele>357</ele>
        <time>2016-12-04T08:57:24.000Z</time>
      </trkpt>
      <trkpt lat="47.54909" lon="6.79677">
        <ele>357</ele>
        <time>2016-12-04T08:57:25.000Z</time>
      </trkpt>
      <trkpt lat="47.5491" lon="6.79681">
        <ele>358</ele>
        <time>2016-12-04T08:57:26.000Z</time>
      </trkpt>
      <trkpt lat="47.54913" lon="6.79687">
        <ele>358</ele>
        <time>2016-12-04T08:57:27.000Z</time>
      </trkpt>
      <trkpt lat="47.54915" lon="6.79693">
        <ele>358</ele>
        <time>2016-12-04T08:57:28.000Z</time>
      </trkpt>
      <trkpt lat="47.54918" lon="6.797">
        <ele>359</ele>
        <time>2016-12-04T08:57:29.000Z</time>
      </trkpt>
      <trkpt lat="47.5492" lon="6.79705">
        <ele>359</ele>
        <time>2016-12-04T08:57:30.000Z</time>
      </trkpt>
      <trkpt lat="47.54923" lon="6.79709">
        <ele>359</ele>
        <time>2016-12-04T08:57:31.000Z</time>
      </trkpt>
      <trkpt lat="47.54926" lon="6.79714">
        <ele>359</ele>
        <time>2016-12-04T08:57:32.000Z</time>
      </trkpt>
      <trkpt lat="47.54928" lon="6.79718">
        <ele>359</ele>
        <time>2016-12-04T08:57:33.000Z</time>
      </trkpt>
      <trkpt lat="47.54929" lon="6.79721">
        <ele>359</ele>
        <time>2016-12-04T08:57:34.000Z</time>
      </trkpt>
      <trkpt lat="47.54931" lon="6.79724">
        <ele>359</ele>
        <time>2016-12-04T08:57:35.000Z</time>
      </trkpt>
      <trkpt lat="47.54933" lon="6.79729">
        <ele>359</ele>
        <time>2016-12-04T08:57:36.000Z</time>
      </trkpt>
      <trkpt lat="47.54935" lon="6.79733">
        <ele>359</ele>
        <time>2016-12-04T08:57:37.000Z</time>
      </trkpt>
      <trkpt lat="47.54936" lon="6.79736">
        <ele>359</ele>
        <time>2016-12-04T08:57:38.000Z</time>
      </trkpt>
      <trkpt lat="47.54941" lon="6.79736">
        <ele>359</ele>
        <time>2016-12-04T08:57:41.000Z</time>
      </trkpt>
      <trkpt lat="47.54944" lon="6.79736">
        <ele>359</ele>
        <time>2016-12-04T08:57:42.000Z</time>
      </trkpt>
      <trkpt lat="47.54947" lon="6.79733">
        <ele>359</ele>
        <time>2016-12-04T08:57:44.000Z</time>
      </trkpt>
      <trkpt lat="47.54949" lon="6.79731">
        <ele>359</ele>
        <time>2016-12-04T08:57:45.000Z</time>
      </trkpt>
      <trkpt lat="47.54951" lon="6.79729">
        <ele>359</ele>
        <time>2016-12-04T08:57:47.000Z</time>
      </trkpt>
      <trkpt lat="47.54953" lon="6.79728">
        <ele>360</ele>
        <time>2016-12-04T08:57:48.000Z</time>
      </trkpt>
      <trkpt lat="47.54956" lon="6.79725">
        <ele>360</ele>
        <time>2016-12-04T08:57:49.000Z</time>
      </trkpt>
      <trkpt lat="47.54959" lon="6.79724">
        <ele>360</ele>
        <time>2016-12-04T08:57:50.000Z</time>
      </trkpt>
      <trkpt lat="47.54962" lon="6.79721">
        <ele>360</ele>
        <time>2016-12-04T08:57:51.000Z</time>
      </trkpt>
      <trkpt lat="47.54966" lon="6.7972">
        <ele>360</ele>
        <time>2016-12-04T08:57:52.000Z</time>
      </trkpt>
      <trkpt lat="47.5497" lon="6.79718">
        <ele>360</ele>
        <time>2016-12-04T08:57:53.000Z</time>
      </trkpt>
      <trkpt lat="47.54973" lon="6.79715">
        <ele>360</ele>
        <time>2016-12-04T08:57:54.000Z</time>
      </trkpt>
      <trkpt lat="47.54976" lon="6.79713">
        <ele>360</ele>
        <time>2016-12-04T08:57:55.000Z</time>
      </trkpt>
      <trkpt lat="47.5498" lon="6.79712">
        <ele>360</ele>
        <time>2016-12-04T08:57:56.000Z</time>
      </trkpt>
      <trkpt lat="47.54983" lon="6.79711">
        <ele>360</ele>
        <time>2016-12-04T08:57:57.000Z</time>
      </trkpt>
      <trkpt lat="47.54987" lon="6.79712">
        <ele>360</ele>
        <time>2016-12-04T08:57:58.000Z</time>
      </trkpt>
      <trkpt lat="47.54991" lon="6.79712">
        <ele>360</ele>
        <time>2016-12-04T08:57:59.000Z</time>
      </trkpt>
      <trkpt lat="47.54994" lon="6.79713">
        <ele>360</ele>
        <time>2016-12-04T08:58:00.000Z</time>
      </trkpt>
      <trkpt lat="47.54998" lon="6.79714">
        <ele>360</ele>
        <time>2016-12-04T08:58:01.000Z</time>
      </trkpt>
      <trkpt lat="47.55001" lon="6.79715">
        <ele>364</ele>
        <time>2016-12-04T08:58:02.000Z</time>
      </trkpt>
      <trkpt lat="47.55004" lon="6.79715">
        <ele>364</ele>
        <time>2016-12-04T08:58:03.000Z</time>
      </trkpt>
      <trkpt lat="47.55007" lon="6.79717">
        <ele>364</ele>
        <time>2016-12-04T08:58:04.000Z</time>
      </trkpt>
      <trkpt lat="47.55009" lon="6.79717">
        <ele>364</ele>
        <time>2016-12-04T08:58:05.000Z</time>
      </trkpt>
      <trkpt lat="47.55012" lon="6.79718">
        <ele>364</ele>
        <time>2016-12-04T08:58:06.000Z</time>
      </trkpt>
      <trkpt lat="47.55014" lon="6.79719">
        <ele>364</ele>
        <time>2016-12-04T08:58:07.000Z</time>
      </trkpt>
      <trkpt lat="47.55018" lon="6.7972">
        <ele>364</ele>
        <time>2016-12-04T08:58:08.000Z</time>
      </trkpt>
      <trkpt lat="47.55021" lon="6.7972">
        <ele>365</ele>
        <time>2016-12-04T08:58:09.000Z</time>
      </trkpt>
      <trkpt lat="47.55023" lon="6.79721">
        <ele>365</ele>
        <time>2016-12-04T08:58:10.000Z</time>
      </trkpt>
      <trkpt lat="47.55026" lon="6.79721">
        <ele>365</ele>
        <time>2016-12-04T08:58:11.000Z</time>
      </trkpt>
      <trkpt lat="47.55028" lon="6.79722">
        <ele>365</ele>
        <time>2016-12-04T08:58:12.000Z</time>
      </trkpt>
      <trkpt lat="47.55031" lon="6.79724">
        <ele>365</ele>
        <time>2016-12-04T08:58:13.000Z</time>
      </trkpt>
      <trkpt lat="47.55035" lon="6.79726">
        <ele>365</ele>
        <time>2016-12-04T08:58:14.000Z</time>
      </trkpt>
      <trkpt lat="47.55039" lon="6.79728">
        <ele>365</ele>
        <time>2016-12-04T08:58:15.000Z</time>
      </trkpt>
      <trkpt lat="47.55044" lon="6.7973">
        <ele>366</ele>
        <time>2016-12-04T08:58:16.000Z</time>
      </trkpt>
      <trkpt lat="47.55048" lon="6.79732">
        <ele>366</ele>
        <time>2016-12-04T08:58:17.000Z</time>
      </trkpt>
      <trkpt lat="47.55051" lon="6.79735">
        <ele>366</ele>
        <time>2016-12-04T08:58:18.000Z</time>
      </trkpt>
      <trkpt lat="47.55054" lon="6.79736">
        <ele>366</ele>
        <time>2016-12-04T08:58:19.000Z</time>
      </trkpt>
      <trkpt lat="47.55056" lon="6.79738">
        <ele>366</ele>
        <time>2016-12-04T08:58:20.000Z</time>
      </trkpt>
      <trkpt lat="47.55059" lon="6.79739">
        <ele>366</ele>
        <time>2016-12-04T08:58:21.000Z</time>
      </trkpt>
      <trkpt lat="47.55061" lon="6.7974">
        <ele>366</ele>
        <time>2016-12-04T08:58:22.000Z</time>
      </trkpt>
      <trkpt lat="47.55064" lon="6.79742">
        <ele>367</ele>
        <time>2016-12-04T08:58:23.000Z</time>
      </trkpt>
      <trkpt lat="47.55066" lon="6.79743">
        <ele>367</ele>
        <time>2016-12-04T08:58:24.000Z</time>
      </trkpt>
      <trkpt lat="47.55069" lon="6.79745">
        <ele>367</ele>
        <time>2016-12-04T08:58:25.000Z</time>
      </trkpt>
      <trkpt lat="47.55072" lon="6.79746">
        <ele>367</ele>
        <time>2016-12-04T08:58:26.000Z</time>
      </trkpt>
      <trkpt lat="47.55075" lon="6.79747">
        <ele>367</ele>
        <time>2016-12-04T08:58:27.000Z</time>
      </trkpt>
      <trkpt lat="47.55077" lon="6.79749">
        <ele>367</ele>
        <time>2016-12-04T08:58:28.000Z</time>
      </trkpt>
      <trkpt lat="47.55079" lon="6.7975">
        <ele>368</ele>
        <time>2016-12-04T08:58:29.000Z</time>
      </trkpt>
      <trkpt lat="47.55082" lon="6.79752">
        <ele>368</ele>
        <time>2016-12-04T08:58:30.000Z</time>
      </trkpt>
      <trkpt lat="47.55084" lon="6.79753">
        <ele>368</ele>
        <time>2016-12-04T08:58:31.000Z</time>
      </trkpt>
      <trkpt lat="47.55087" lon="6.79755">
        <ele>368</ele>
        <time>2016-12-04T08:58:32.000Z</time>
      </trkpt>
      <trkpt lat="47.55091" lon="6.79759">
        <ele>369</ele>
        <time>2016-12-04T08:58:34.000Z</time>
      </trkpt>
      <trkpt lat="47.55093" lon="6.79761">
        <ele>369</ele>
        <time>2016-12-04T08:58:35.000Z</time>
      </trkpt>
      <trkpt lat="47.55094" lon="6.79762">
        <ele>369</ele>
        <time>2016-12-04T08:58:36.000Z</time>
      </trkpt>
      <trkpt lat="47.55097" lon="6.79765">
        <ele>369</ele>
        <time>2016-12-04T08:58:37.000Z</time>
      </trkpt>
      <trkpt lat="47.55099" lon="6.79767">
        <ele>369</ele>
        <time>2016-12-04T08:58:38.000Z</time>
      </trkpt>
      <trkpt lat="47.55102" lon="6.7977">
        <ele>369</ele>
        <time>2016-12-04T08:58:39.000Z</time>
      </trkpt>
      <trkpt lat="47.55104" lon="6.79774">
        <ele>369</ele>
        <time>2016-12-04T08:58:40.000Z</time>
      </trkpt>
      <trkpt lat="47.55107" lon="6.79777">
        <ele>369</ele>
        <time>2016-12-04T08:58:41.000Z</time>
      </trkpt>
      <trkpt lat="47.55109" lon="6.79781">
        <ele>369</ele>
        <time>2016-12-04T08:58:42.000Z</time>
      </trkpt>
      <trkpt lat="47.55111" lon="6.79785">
        <ele>369</ele>
        <time>2016-12-04T08:58:43.000Z</time>
      </trkpt>
      <trkpt lat="47.55113" lon="6.7979">
        <ele>369</ele>
        <time>2016-12-04T08:58:44.000Z</time>
      </trkpt>
      <trkpt lat="47.55115" lon="6.79796">
        <ele>369</ele>
        <time>2016-12-04T08:58:45.000Z</time>
      </trkpt>
      <trkpt lat="47.55116" lon="6.79802">
        <ele>369</ele>
        <time>2016-12-04T08:58:46.000Z</time>
      </trkpt>
      <trkpt lat="47.55119" lon="6.79809">
        <ele>369</ele>
        <time>2016-12-04T08:58:47.000Z</time>
      </trkpt>
      <trkpt lat="47.55121" lon="6.79815">
        <ele>369</ele>
        <time>2016-12-04T08:58:48.000Z</time>
      </trkpt>
      <trkpt lat="47.55123" lon="6.79819">
        <ele>369</ele>
        <time>2016-12-04T08:58:49.000Z</time>
      </trkpt>
      <trkpt lat="47.55124" lon="6.79822">
        <ele>369</ele>
        <time>2016-12-04T08:58:50.000Z</time>
      </trkpt>
      <trkpt lat="47.55126" lon="6.79826">
        <ele>369</ele>
        <time>2016-12-04T08:58:51.000Z</time>
      </trkpt>
      <trkpt lat="47.55129" lon="6.7983">
        <ele>369</ele>
        <time>2016-12-04T08:58:52.000Z</time>
      </trkpt>
      <trkpt lat="47.55132" lon="6.79833">
        <ele>369</ele>
        <time>2016-12-04T08:58:53.000Z</time>
      </trkpt>
      <trkpt lat="47.55133" lon="6.79835">
        <ele>366</ele>
        <time>2016-12-04T08:58:54.000Z</time>
      </trkpt>
      <trkpt lat="47.55136" lon="6.79837">
        <ele>366</ele>
        <time>2016-12-04T08:58:55.000Z</time>
      </trkpt>
      <trkpt lat="47.55138" lon="6.79838">
        <ele>366</ele>
        <time>2016-12-04T08:58:56.000Z</time>
      </trkpt>
      <trkpt lat="47.5514" lon="6.79839">
        <ele>366</ele>
        <time>2016-12-04T08:58:57.000Z</time>
      </trkpt>
      <trkpt lat="47.55142" lon="6.79841">
        <ele>367</ele>
        <time>2016-12-04T08:58:58.000Z</time>
      </trkpt>
      <trkpt lat="47.55145" lon="6.79843">
        <ele>367</ele>
        <time>2016-12-04T08:58:59.000Z</time>
      </trkpt>
      <trkpt lat="47.55148" lon="6.79845">
        <ele>367</ele>
        <time>2016-12-04T08:59:00.000Z</time>
      </trkpt>
      <trkpt lat="47.55153" lon="6.79848">
        <ele>367</ele>
        <time>2016-12-04T08:59:01.000Z</time>
      </trkpt>
      <trkpt lat="47.55156" lon="6.79849">
        <ele>367</ele>
        <time>2016-12-04T08:59:02.000Z</time>
      </trkpt>
      <trkpt lat="47.5516" lon="6.7985">
        <ele>367</ele>
        <time>2016-12-04T08:59:03.000Z</time>
      </trkpt>
      <trkpt lat="47.55163" lon="6.79851">
        <ele>367</ele>
        <time>2016-12-04T08:59:04.000Z</time>
      </trkpt>
      <trkpt lat="47.55166" lon="6.79851">
        <ele>367</ele>
        <time>2016-12-04T08:59:05.000Z</time>
      </trkpt>
      <trkpt lat="47.55169" lon="6.79853">
        <ele>370</ele>
        <time>2016-12-04T08:59:06.000Z</time>
      </trkpt>
      <trkpt lat="47.55172" lon="6.79854">
        <ele>370</ele>
        <time>2016-12-04T08:59:07.000Z</time>
      </trkpt>
      <trkpt lat="47.55175" lon="6.79855">
        <ele>370</ele>
        <time>2016-12-04T08:59:08.000Z</time>
      </trkpt>
      <trkpt lat="47.55178" lon="6.79857">
        <ele>370</ele>
        <time>2016-12-04T08:59:09.000Z</time>
      </trkpt>
      <trkpt lat="47.55181" lon="6.79859">
        <ele>370</ele>
        <time>2016-12-04T08:59:10.000Z</time>
      </trkpt>
      <trkpt lat="47.55183" lon="6.7986">
        <ele>370</ele>
        <time>2016-12-04T08:59:11.000Z</time>
      </trkpt>
      <trkpt lat="47.55185" lon="6.79862">
        <ele>370</ele>
        <time>2016-12-04T08:59:12.000Z</time>
      </trkpt>
      <trkpt lat="47.55187" lon="6.79865">
        <ele>370</ele>
        <time>2016-12-04T08:59:13.000Z</time>
      </trkpt>
      <trkpt lat="47.5519" lon="6.79868">
        <ele>370</ele>
        <time>2016-12-04T08:59:14.000Z</time>
      </trkpt>
      <trkpt lat="47.55193" lon="6.79871">
        <ele>370</ele>
        <time>2016-12-04T08:59:15.000Z</time>
      </trkpt>
      <trkpt lat="47.55197" lon="6.79874">
        <ele>370</ele>
        <time>2016-12-04T08:59:16.000Z</time>
      </trkpt>
      <trkpt lat="47.55201" lon="6.79877">
        <ele>370</ele>
        <time>2016-12-04T08:59:17.000Z</time>
      </trkpt>
      <trkpt lat="47.55205" lon="6.79883">
        <ele>370</ele>
        <time>2016-12-04T08:59:18.000Z</time>
      </trkpt>
      <trkpt lat="47.55209" lon="6.79889">
        <ele>369</ele>
        <time>2016-12-04T08:59:19.000Z</time>
      </trkpt>
      <trkpt lat="47.55212" lon="6.79893">
        <ele>369</ele>
        <time>2016-12-04T08:59:20.000Z</time>
      </trkpt>
      <trkpt lat="47.55215" lon="6.79897">
        <ele>369</ele>
        <time>2016-12-04T08:59:21.000Z</time>
      </trkpt>
      <trkpt lat="47.55217" lon="6.79902">
        <ele>369</ele>
        <time>2016-12-04T08:59:22.000Z</time>
      </trkpt>
      <trkpt lat="47.55221" lon="6.79907">
        <ele>369</ele>
        <time>2016-12-04T08:59:23.000Z</time>
      </trkpt>
      <trkpt lat="47.55223" lon="6.79913">
        <ele>369</ele>
        <time>2016-12-04T08:59:24.000Z</time>
      </trkpt>
      <trkpt lat="47.55227" lon="6.79917">
        <ele>369</ele>
        <time>2016-12-04T08:59:25.000Z</time>
      </trkpt>
      <trkpt lat="47.55231" lon="6.7992">
        <ele>367</ele>
        <time>2016-12-04T08:59:26.000Z</time>
      </trkpt>
      <trkpt lat="47.55235" lon="6.79923">
        <ele>367</ele>
        <time>2016-12-04T08:59:27.000Z</time>
      </trkpt>
      <trkpt lat="47.55238" lon="6.79929">
        <ele>367</ele>
        <time>2016-12-04T08:59:28.000Z</time>
      </trkpt>
      <trkpt lat="47.5524" lon="6.79935">
        <ele>367</ele>
        <time>2016-12-04T08:59:29.000Z</time>
      </trkpt>
      <trkpt lat="47.55243" lon="6.79942">
        <ele>366</ele>
        <time>2016-12-04T08:59:30.000Z</time>
      </trkpt>
      <trkpt lat="47.55246" lon="6.79947">
        <ele>366</ele>
        <time>2016-12-04T08:59:31.000Z</time>
      </trkpt>
      <trkpt lat="47.5525" lon="6.7995">
        <ele>366</ele>
        <time>2016-12-04T08:59:32.000Z</time>
      </trkpt>
      <trkpt lat="47.55252" lon="6.79953">
        <ele>369</ele>
        <time>2016-12-04T08:59:33.000Z</time>
      </trkpt>
      <trkpt lat="47.55255" lon="6.79956">
        <ele>369</ele>
        <time>2016-12-04T08:59:34.000Z</time>
      </trkpt>
      <trkpt lat="47.55258" lon="6.79959">
        <ele>369</ele>
        <time>2016-12-04T08:59:35.000Z</time>
      </trkpt>
      <trkpt lat="47.55262" lon="6.79962">
        <ele>369</ele>
        <time>2016-12-04T08:59:36.000Z</time>
      </trkpt>
      <trkpt lat="47.55266" lon="6.79965">
        <ele>369</ele>
        <time>2016-12-04T08:59:37.000Z</time>
      </trkpt>
      <trkpt lat="47.5527" lon="6.79969">
        <ele>369</ele>
        <time>2016-12-04T08:59:38.000Z</time>
      </trkpt>
      <trkpt lat="47.55274" lon="6.79973">
        <ele>369</ele>
        <time>2016-12-04T08:59:39.000Z</time>
      </trkpt>
      <trkpt lat="47.55279" lon="6.79976">
        <ele>369</ele>
        <time>2016-12-04T08:59:40.000Z</time>
      </trkpt>
      <trkpt lat="47.55282" lon="6.79977">
        <ele>369</ele>
        <time>2016-12-04T08:59:41.000Z</time>
      </trkpt>
      <trkpt lat="47.55284" lon="6.79978">
        <ele>370</ele>
        <time>2016-12-04T08:59:42.000Z</time>
      </trkpt>
      <trkpt lat="47.55287" lon="6.79979">
        <ele>370</ele>
        <time>2016-12-04T08:59:43.000Z</time>
      </trkpt>
      <trkpt lat="47.5529" lon="6.79981">
        <ele>370</ele>
        <time>2016-12-04T08:59:44.000Z</time>
      </trkpt>
      <trkpt lat="47.55294" lon="6.79984">
        <ele>370</ele>
        <time>2016-12-04T08:59:46.000Z</time>
      </trkpt>
      <trkpt lat="47.55296" lon="6.79985">
        <ele>370</ele>
        <time>2016-12-04T08:59:47.000Z</time>
      </trkpt>
      <trkpt lat="47.55298" lon="6.79987">
        <ele>370</ele>
        <time>2016-12-04T08:59:48.000Z</time>
      </trkpt>
      <trkpt lat="47.55301" lon="6.79988">
        <ele>370</ele>
        <time>2016-12-04T08:59:49.000Z</time>
      </trkpt>
      <trkpt lat="47.55303" lon="6.7999">
        <ele>370</ele>
        <time>2016-12-04T08:59:50.000Z</time>
      </trkpt>
      <trkpt lat="47.55305" lon="6.79992">
        <ele>370</ele>
        <time>2016-12-04T08:59:51.000Z</time>
      </trkpt>
      <trkpt lat="47.55308" lon="6.79993">
        <ele>370</ele>
        <time>2016-12-04T08:59:52.000Z</time>
      </trkpt>
      <trkpt lat="47.55311" lon="6.79994">
        <ele>370</ele>
        <time>2016-12-04T08:59:53.000Z</time>
      </trkpt>
      <trkpt lat="47.55313" lon="6.79996">
        <ele>370</ele>
        <time>2016-12-04T08:59:54.000Z</time>
      </trkpt>
      <trkpt lat="47.55315" lon="6.79997">
        <ele>371</ele>
        <time>2016-12-04T08:59:55.000Z</time>
      </trkpt>
      <trkpt lat="47.55318" lon="6.79998">
        <ele>371</ele>
        <time>2016-12-04T08:59:56.000Z</time>
      </trkpt>
      <trkpt lat="47.5532" lon="6.79999">
        <ele>371</ele>
        <time>2016-12-04T08:59:57.000Z</time>
      </trkpt>
      <trkpt lat="47.55322" lon="6.79999">
        <ele>371</ele>
        <time>2016-12-04T08:59:58.000Z</time>
      </trkpt>
      <trkpt lat="47.55324" lon="6.8">
        <ele>370</ele>
        <time>2016-12-04T08:59:59.000Z</time>
      </trkpt>
      <trkpt lat="47.55326" lon="6.80001">
        <ele>370</ele>
        <time>2016-12-04T09:00:00.000Z</time>
      </trkpt>
      <trkpt lat="47.55329" lon="6.80003">
        <ele>371</ele>
        <time>2016-12-04T09:00:01.000Z</time>
      </trkpt>
      <trkpt lat="47.55331" lon="6.80004">
        <ele>371</ele>
        <time>2016-12-04T09:00:02.000Z</time>
      </trkpt>
      <trkpt lat="47.55333" lon="6.80004">
        <ele>371</ele>
        <time>2016-12-04T09:00:03.000Z</time>
      </trkpt>
      <trkpt lat="47.55337" lon="6.80006">
        <ele>372</ele>
        <time>2016-12-04T09:00:05.000Z</time>
      </trkpt>
      <trkpt lat="47.55339" lon="6.80007">
        <ele>372</ele>
        <time>2016-12-04T09:00:06.000Z</time>
      </trkpt>
      <trkpt lat="47.55342" lon="6.80008">
        <ele>373</ele>
        <time>2016-12-04T09:00:07.000Z</time>
      </trkpt>
      <trkpt lat="47.55344" lon="6.8001">
        <ele>373</ele>
        <time>2016-12-04T09:00:08.000Z</time>
      </trkpt>
      <trkpt lat="47.55348" lon="6.80012">
        <ele>373</ele>
        <time>2016-12-04T09:00:10.000Z</time>
      </trkpt>
      <trkpt lat="47.55349" lon="6.80012">
        <ele>373</ele>
        <time>2016-12-04T09:00:11.000Z</time>
      </trkpt>
      <trkpt lat="47.55353" lon="6.80012">
        <ele>374</ele>
        <time>2016-12-04T09:00:13.000Z</time>
      </trkpt>
      <trkpt lat="47.55355" lon="6.80013">
        <ele>374</ele>
        <time>2016-12-04T09:00:14.000Z</time>
      </trkpt>
      <trkpt lat="47.55357" lon="6.80013">
        <ele>374</ele>
        <time>2016-12-04T09:00:15.000Z</time>
      </trkpt>
      <trkpt lat="47.55359" lon="6.80014">
        <ele>374</ele>
        <time>2016-12-04T09:00:16.000Z</time>
      </trkpt>
      <trkpt lat="47.55362" lon="6.80015">
        <ele>374</ele>
        <time>2016-12-04T09:00:17.000Z</time>
      </trkpt>
      <trkpt lat="47.55364" lon="6.80016">
        <ele>374</ele>
        <time>2016-12-04T09:00:18.000Z</time>
      </trkpt>
      <trkpt lat="47.55367" lon="6.80018">
        <ele>375</ele>
        <time>2016-12-04T09:00:19.000Z</time>
      </trkpt>
      <trkpt lat="47.5537" lon="6.8002">
        <ele>375</ele>
        <time>2016-12-04T09:00:20.000Z</time>
      </trkpt>
      <trkpt lat="47.55373" lon="6.80022">
        <ele>375</ele>
        <time>2016-12-04T09:00:21.000Z</time>
      </trkpt>
      <trkpt lat="47.55376" lon="6.80025">
        <ele>375</ele>
        <time>2016-12-04T09:00:22.000Z</time>
      </trkpt>
      <trkpt lat="47.55379" lon="6.80027">
        <ele>375</ele>
        <time>2016-12-04T09:00:23.000Z</time>
      </trkpt>
      <trkpt lat="47.55382" lon="6.8003">
        <ele>376</ele>
        <time>2016-12-04T09:00:24.000Z</time>
      </trkpt>
      <trkpt lat="47.55384" lon="6.80032">
        <ele>376</ele>
        <time>2016-12-04T09:00:25.000Z</time>
      </trkpt>
      <trkpt lat="47.55387" lon="6.80034">
        <ele>376</ele>
        <time>2016-12-04T09:00:26.000Z</time>
      </trkpt>
      <trkpt lat="47.5539" lon="6.80035">
        <ele>376</ele>
        <time>2016-12-04T09:00:27.000Z</time>
      </trkpt>
      <trkpt lat="47.55393" lon="6.80037">
        <ele>376</ele>
        <time>2016-12-04T09:00:28.000Z</time>
      </trkpt>
      <trkpt lat="47.55396" lon="6.8004">
        <ele>376</ele>
        <time>2016-12-04T09:00:29.000Z</time>
      </trkpt>
      <trkpt lat="47.55398" lon="6.80042">
        <ele>376</ele>
        <time>2016-12-04T09:00:30.000Z</time>
      </trkpt>
      <trkpt lat="47.55401" lon="6.80045">
        <ele>376</ele>
        <time>2016-12-04T09:00:31.000Z</time>
      </trkpt>
      <trkpt lat="47.55404" lon="6.80047">
        <ele>376</ele>
        <time>2016-12-04T09:00:32.000Z</time>
      </trkpt>
      <trkpt lat="47.55406" lon="6.8005">
        <ele>376</ele>
        <time>2016-12-04T09:00:33.000Z</time>
      </trkpt>
      <trkpt lat="47.55408" lon="6.80052">
        <ele>376</ele>
        <time>2016-12-04T09:00:34.000Z</time>
      </trkpt>
      <trkpt lat="47.55409" lon="6.80055">
        <ele>376</ele>
        <time>2016-12-04T09:00:35.000Z</time>
      </trkpt>
      <trkpt lat="47.55411" lon="6.80057">
        <ele>376</ele>
        <time>2016-12-04T09:00:36.000Z</time>
      </trkpt>
      <trkpt lat="47.55413" lon="6.80059">
        <ele>376</ele>
        <time>2016-12-04T09:00:37.000Z</time>
      </trkpt>
      <trkpt lat="47.55415" lon="6.80062">
        <ele>376</ele>
        <time>2016-12-04T09:00:38.000Z</time>
      </trkpt>
      <trkpt lat="47.55418" lon="6.80064">
        <ele>379</ele>
        <time>2016-12-04T09:00:39.000Z</time>
      </trkpt>
      <trkpt lat="47.55421" lon="6.80067">
        <ele>379</ele>
        <time>2016-12-04T09:00:40.000Z</time>
      </trkpt>
      <trkpt lat="47.55423" lon="6.8007">
        <ele>379</ele>
        <time>2016-12-04T09:00:41.000Z</time>
      </trkpt>
      <trkpt lat="47.55424" lon="6.80072">
        <ele>379</ele>
        <time>2016-12-04T09:00:42.000Z</time>
      </trkpt>
      <trkpt lat="47.55426" lon="6.80075">
        <ele>379</ele>
        <time>2016-12-04T09:00:43.000Z</time>
      </trkpt>
      <trkpt lat="47.55429" lon="6.80078">
        <ele>379</ele>
        <time>2016-12-04T09:00:44.000Z</time>
      </trkpt>
      <trkpt lat="47.55432" lon="6.80082">
        <ele>379</ele>
        <time>2016-12-04T09:00:45.000Z</time>
      </trkpt>
      <trkpt lat="47.55434" lon="6.80086">
        <ele>376</ele>
        <time>2016-12-04T09:00:46.000Z</time>
      </trkpt>
      <trkpt lat="47.55437" lon="6.8009">
        <ele>376</ele>
        <time>2016-12-04T09:00:47.000Z</time>
      </trkpt>
      <trkpt lat="47.55439" lon="6.80093">
        <ele>376</ele>
        <time>2016-12-04T09:00:48.000Z</time>
      </trkpt>
      <trkpt lat="47.55441" lon="6.80095">
        <ele>376</ele>
        <time>2016-12-04T09:00:49.000Z</time>
      </trkpt>
      <trkpt lat="47.55443" lon="6.80097">
        <ele>376</ele>
        <time>2016-12-04T09:00:50.000Z</time>
      </trkpt>
      <trkpt lat="47.55446" lon="6.80098">
        <ele>376</ele>
        <time>2016-12-04T09:00:51.000Z</time>
      </trkpt>
      <trkpt lat="47.5545" lon="6.801">
        <ele>376</ele>
        <time>2016-12-04T09:00:52.000Z</time>
      </trkpt>
      <trkpt lat="47.55454" lon="6.801">
        <ele>376</ele>
        <time>2016-12-04T09:00:53.000Z</time>
      </trkpt>
      <trkpt lat="47.55457" lon="6.801">
        <ele>376</ele>
        <time>2016-12-04T09:00:54.000Z</time>
      </trkpt>
      <trkpt lat="47.5546" lon="6.80099">
        <ele>376</ele>
        <time>2016-12-04T09:00:55.000Z</time>
      </trkpt>
      <trkpt lat="47.55463" lon="6.80097">
        <ele>376</ele>
        <time>2016-12-04T09:00:56.000Z</time>
      </trkpt>
      <trkpt lat="47.55467" lon="6.80095">
        <ele>376</ele>
        <time>2016-12-04T09:00:57.000Z</time>
      </trkpt>
      <trkpt lat="47.55472" lon="6.80093">
        <ele>376</ele>
        <time>2016-12-04T09:00:58.000Z</time>
      </trkpt>
      <trkpt lat="47.55477" lon="6.80093">
        <ele>377</ele>
        <time>2016-12-04T09:00:59.000Z</time>
      </trkpt>
      <trkpt lat="47.55482" lon="6.80094">
        <ele>377</ele>
        <time>2016-12-04T09:01:00.000Z</time>
      </trkpt>
      <trkpt lat="47.55487" lon="6.80095">
        <ele>377</ele>
        <time>2016-12-04T09:01:01.000Z</time>
      </trkpt>
      <trkpt lat="47.55492" lon="6.80095">
        <ele>377</ele>
        <time>2016-12-04T09:01:02.000Z</time>
      </trkpt>
      <trkpt lat="47.55498" lon="6.80096">
        <ele>377</ele>
        <time>2016-12-04T09:01:03.000Z</time>
      </trkpt>
      <trkpt lat="47.55502" lon="6.80097">
        <ele>377</ele>
        <time>2016-12-04T09:01:04.000Z</time>
      </trkpt>
      <trkpt lat="47.55506" lon="6.80097">
        <ele>377</ele>
        <time>2016-12-04T09:01:05.000Z</time>
      </trkpt>
      <trkpt lat="47.5551" lon="6.80096">
        <ele>377</ele>
        <time>2016-12-04T09:01:06.000Z</time>
      </trkpt>
      <trkpt lat="47.55515" lon="6.80098">
        <ele>377</ele>
        <time>2016-12-04T09:01:07.000Z</time>
      </trkpt>
      <trkpt lat="47.55521" lon="6.80101">
        <ele>377</ele>
        <time>2016-12-04T09:01:08.000Z</time>
      </trkpt>
      <trkpt lat="47.55524" lon="6.80103">
        <ele>377</ele>
        <time>2016-12-04T09:01:09.000Z</time>
      </trkpt>
      <trkpt lat="47.55528" lon="6.80106">
        <ele>377</ele>
        <time>2016-12-04T09:01:10.000Z</time>
      </trkpt>
      <trkpt lat="47.55532" lon="6.80109">
        <ele>377</ele>
        <time>2016-12-04T09:01:11.000Z</time>
      </trkpt>
      <trkpt lat="47.55537" lon="6.80114">
        <ele>377</ele>
        <time>2016-12-04T09:01:12.000Z</time>
      </trkpt>
      <trkpt lat="47.55541" lon="6.80121">
        <ele>377</ele>
        <time>2016-12-04T09:01:13.000Z</time>
      </trkpt>
      <trkpt lat="47.55543" lon="6.80125">
        <ele>377</ele>
        <time>2016-12-04T09:01:14.000Z</time>
      </trkpt>
      <trkpt lat="47.55546" lon="6.80128">
        <ele>377</ele>
        <time>2016-12-04T09:01:15.000Z</time>
      </trkpt>
      <trkpt lat="47.55549" lon="6.80132">
        <ele>377</ele>
        <time>2016-12-04T09:01:16.000Z</time>
      </trkpt>
      <trkpt lat="47.55551" lon="6.80135">
        <ele>377</ele>
        <time>2016-12-04T09:01:17.000Z</time>
      </trkpt>
      <trkpt lat="47.55554" lon="6.80139">
        <ele>377</ele>
        <time>2016-12-04T09:01:18.000Z</time>
      </trkpt>
      <trkpt lat="47.55557" lon="6.80144">
        <ele>377</ele>
        <time>2016-12-04T09:01:19.000Z</time>
      </trkpt>
      <trkpt lat="47.5556" lon="6.80148">
        <ele>377</ele>
        <time>2016-12-04T09:01:20.000Z</time>
      </trkpt>
      <trkpt lat="47.55563" lon="6.80151">
        <ele>377</ele>
        <time>2016-12-04T09:01:21.000Z</time>
      </trkpt>
      <trkpt lat="47.55567" lon="6.80153">
        <ele>377</ele>
        <time>2016-12-04T09:01:22.000Z</time>
      </trkpt>
      <trkpt lat="47.55569" lon="6.80153">
        <ele>377</ele>
        <time>2016-12-04T09:01:23.000Z</time>
      </trkpt>
      <trkpt lat="47.55573" lon="6.80152">
        <ele>377</ele>
        <time>2016-12-04T09:01:25.000Z</time>
      </trkpt>
      <trkpt lat="47.55575" lon="6.80151">
        <ele>377</ele>
        <time>2016-12-04T09:01:26.000Z</time>
      </trkpt>
      <trkpt lat="47.55578" lon="6.80149">
        <ele>377</ele>
        <time>2016-12-04T09:01:28.000Z</time>
      </trkpt>
      <trkpt lat="47.5558" lon="6.80148">
        <ele>377</ele>
        <time>2016-12-04T09:01:29.000Z</time>
      </trkpt>
      <trkpt lat="47.55584" lon="6.80145">
        <ele>379</ele>
        <time>2016-12-04T09:01:31.000Z</time>
      </trkpt>
      <trkpt lat="47.55586" lon="6.80144">
        <ele>379</ele>
        <time>2016-12-04T09:01:32.000Z</time>
      </trkpt>
      <trkpt lat="47.55589" lon="6.80143">
        <ele>380</ele>
        <time>2016-12-04T09:01:33.000Z</time>
      </trkpt>
      <trkpt lat="47.55591" lon="6.80142">
        <ele>380</ele>
        <time>2016-12-04T09:01:34.000Z</time>
      </trkpt>
      <trkpt lat="47.55594" lon="6.80141">
        <ele>380</ele>
        <time>2016-12-04T09:01:35.000Z</time>
      </trkpt>
      <trkpt lat="47.55596" lon="6.80141">
        <ele>380</ele>
        <time>2016-12-04T09:01:36.000Z</time>
      </trkpt>
      <trkpt lat="47.556" lon="6.80142">
        <ele>380</ele>
        <time>2016-12-04T09:01:38.000Z</time>
      </trkpt>
      <trkpt lat="47.55601" lon="6.80143">
        <ele>380</ele>
        <time>2016-12-04T09:01:39.000Z</time>
      </trkpt>
      <trkpt lat="47.55604" lon="6.80144">
        <ele>380</ele>
        <time>2016-12-04T09:01:40.000Z</time>
      </trkpt>
      <trkpt lat="47.55606" lon="6.80145">
        <ele>380</ele>
        <time>2016-12-04T09:01:41.000Z</time>
      </trkpt>
      <trkpt lat="47.55609" lon="6.80146">
        <ele>380</ele>
        <time>2016-12-04T09:01:42.000Z</time>
      </trkpt>
      <trkpt lat="47.55611" lon="6.80147">
        <ele>380</ele>
        <time>2016-12-04T09:01:43.000Z</time>
      </trkpt>
      <trkpt lat="47.55614" lon="6.8015">
        <ele>380</ele>
        <time>2016-12-04T09:01:45.000Z</time>
      </trkpt>
      <trkpt lat="47.55616" lon="6.80152">
        <ele>381</ele>
        <time>2016-12-04T09:01:46.000Z</time>
      </trkpt>
      <trkpt lat="47.5562" lon="6.80153">
        <ele>381</ele>
        <time>2016-12-04T09:01:49.000Z</time>
      </trkpt>
      <trkpt lat="47.55621" lon="6.80154">
        <ele>381</ele>
        <time>2016-12-04T09:01:50.000Z</time>
      </trkpt>
      <trkpt lat="47.55623" lon="6.80157">
        <ele>381</ele>
        <time>2016-12-04T09:01:51.000Z</time>
      </trkpt>
      <trkpt lat="47.55624" lon="6.8016">
        <ele>381</ele>
        <time>2016-12-04T09:01:52.000Z</time>
      </trkpt>
      <trkpt lat="47.55628" lon="6.80161">
        <ele>381</ele>
        <time>2016-12-04T09:01:54.000Z</time>
      </trkpt>
      <trkpt lat="47.55629" lon="6.80162">
        <ele>381</ele>
        <time>2016-12-04T09:01:55.000Z</time>
      </trkpt>
      <trkpt lat="47.55633" lon="6.80164">
        <ele>381</ele>
        <time>2016-12-04T09:01:58.000Z</time>
      </trkpt>
      <trkpt lat="47.55634" lon="6.80166">
        <ele>381</ele>
        <time>2016-12-04T09:01:59.000Z</time>
      </trkpt>
      <trkpt lat="47.55637" lon="6.80168">
        <ele>382</ele>
        <time>2016-12-04T09:02:05.000Z</time>
      </trkpt>
      <trkpt lat="47.55639" lon="6.80168">
        <ele>382</ele>
        <time>2016-12-04T09:02:06.000Z</time>
      </trkpt>
      <trkpt lat="47.55643" lon="6.80166">
        <ele>382</ele>
        <time>2016-12-04T09:02:08.000Z</time>
      </trkpt>
      <trkpt lat="47.55646" lon="6.80166">
        <ele>382</ele>
        <time>2016-12-04T09:02:09.000Z</time>
      </trkpt>
      <trkpt lat="47.55648" lon="6.80166">
        <ele>382</ele>
        <time>2016-12-04T09:02:10.000Z</time>
      </trkpt>
      <trkpt lat="47.55651" lon="6.80166">
        <ele>383</ele>
        <time>2016-12-04T09:02:11.000Z</time>
      </trkpt>
      <trkpt lat="47.55653" lon="6.80166">
        <ele>383</ele>
        <time>2016-12-04T09:02:12.000Z</time>
      </trkpt>
      <trkpt lat="47.55656" lon="6.80168">
        <ele>383</ele>
        <time>2016-12-04T09:02:13.000Z</time>
      </trkpt>
      <trkpt lat="47.55658" lon="6.80168">
        <ele>383</ele>
        <time>2016-12-04T09:02:15.000Z</time>
      </trkpt>
      <trkpt lat="47.55661" lon="6.8017">
        <ele>383</ele>
        <time>2016-12-04T09:02:16.000Z</time>
      </trkpt>
      <trkpt lat="47.55665" lon="6.80174">
        <ele>383</ele>
        <time>2016-12-04T09:02:19.000Z</time>
      </trkpt>
      <trkpt lat="47.55666" lon="6.80175">
        <ele>383</ele>
        <time>2016-12-04T09:02:20.000Z</time>
      </trkpt>
      <trkpt lat="47.55668" lon="6.80177">
        <ele>385</ele>
        <time>2016-12-04T09:02:23.000Z</time>
      </trkpt>
      <trkpt lat="47.5567" lon="6.80178">
        <ele>385</ele>
        <time>2016-12-04T09:02:24.000Z</time>
      </trkpt>
      <trkpt lat="47.55674" lon="6.80181">
        <ele>386</ele>
        <time>2016-12-04T09:02:29.000Z</time>
      </trkpt>
      <trkpt lat="47.55674" lon="6.80182">
        <ele>386</ele>
        <time>2016-12-04T09:02:30.000Z</time>
      </trkpt>
      <trkpt lat="47.55678" lon="6.80186">
        <ele>386</ele>
        <time>2016-12-04T09:02:35.000Z</time>
      </trkpt>
      <trkpt lat="47.55678" lon="6.80186">
        <ele>386</ele>
        <time>2016-12-04T09:02:36.000Z</time>
      </trkpt>
      <trkpt lat="47.55682" lon="6.80187">
        <ele>386</ele>
        <time>2016-12-04T09:02:38.000Z</time>
      </trkpt>
      <trkpt lat="47.55685" lon="6.80189">
        <ele>387</ele>
        <time>2016-12-04T09:02:39.000Z</time>
      </trkpt>
      <trkpt lat="47.55687" lon="6.80192">
        <ele>387</ele>
        <time>2016-12-04T09:02:40.000Z</time>
      </trkpt>
      <trkpt lat="47.5569" lon="6.80193">
        <ele>387</ele>
        <time>2016-12-04T09:02:41.000Z</time>
      </trkpt>
      <trkpt lat="47.55693" lon="6.80195">
        <ele>387</ele>
        <time>2016-12-04T09:02:43.000Z</time>
      </trkpt>
      <trkpt lat="47.55695" lon="6.80196">
        <ele>387</ele>
        <time>2016-12-04T09:02:44.000Z</time>
      </trkpt>
      <trkpt lat="47.55699" lon="6.80197">
        <ele>387</ele>
        <time>2016-12-04T09:02:46.000Z</time>
      </trkpt>
      <trkpt lat="47.557" lon="6.80198">
        <ele>388</ele>
        <time>2016-12-04T09:02:47.000Z</time>
      </trkpt>
      <trkpt lat="47.55704" lon="6.80198">
        <ele>388</ele>
        <time>2016-12-04T09:02:50.000Z</time>
      </trkpt>
      <trkpt lat="47.55705" lon="6.80199">
        <ele>388</ele>
        <time>2016-12-04T09:02:51.000Z</time>
      </trkpt>
      <trkpt lat="47.55708" lon="6.80197">
        <ele>388</ele>
        <time>2016-12-04T09:02:55.000Z</time>
      </trkpt>
      <trkpt lat="47.5571" lon="6.80196">
        <ele>388</ele>
        <time>2016-12-04T09:02:56.000Z</time>
      </trkpt>
      <trkpt lat="47.55713" lon="6.80194">
        <ele>388</ele>
        <time>2016-12-04T09:02:58.000Z</time>
      </trkpt>
      <trkpt lat="47.55714" lon="6.80193">
        <ele>388</ele>
        <time>2016-12-04T09:02:59.000Z</time>
      </trkpt>
      <trkpt lat="47.55718" lon="6.80192">
        <ele>388</ele>
        <time>2016-12-04T09:03:01.000Z</time>
      </trkpt>
      <trkpt lat="47.5572" lon="6.80191">
        <ele>388</ele>
        <time>2016-12-04T09:03:02.000Z</time>
      </trkpt>
      <trkpt lat="47.55724" lon="6.8019">
        <ele>388</ele>
        <time>2016-12-04T09:03:04.000Z</time>
      </trkpt>
      <trkpt lat="47.55726" lon="6.8019">
        <ele>388</ele>
        <time>2016-12-04T09:03:05.000Z</time>
      </trkpt>
      <trkpt lat="47.55729" lon="6.8019">
        <ele>388</ele>
        <time>2016-12-04T09:03:07.000Z</time>
      </trkpt>
      <trkpt lat="47.5573" lon="6.8019">
        <ele>388</ele>
        <time>2016-12-04T09:03:08.000Z</time>
      </trkpt>
      <trkpt lat="47.55734" lon="6.8019">
        <ele>388</ele>
        <time>2016-12-04T09:03:10.000Z</time>
      </trkpt>
      <trkpt lat="47.55735" lon="6.8019">
        <ele>389</ele>
        <time>2016-12-04T09:03:11.000Z</time>
      </trkpt>
      <trkpt lat="47.55739" lon="6.80188">
        <ele>389</ele>
        <time>2016-12-04T09:03:14.000Z</time>
      </trkpt>
      <trkpt lat="47.5574" lon="6.80187">
        <ele>389</ele>
        <time>2016-12-04T09:03:15.000Z</time>
      </trkpt>
      <trkpt lat="47.55744" lon="6.80186">
        <ele>389</ele>
        <time>2016-12-04T09:03:22.000Z</time>
      </trkpt>
      <trkpt lat="47.55745" lon="6.80186">
        <ele>389</ele>
        <time>2016-12-04T09:03:23.000Z</time>
      </trkpt>
      <trkpt lat="47.55749" lon="6.80189">
        <ele>389</ele>
        <time>2016-12-04T09:03:30.000Z</time>
      </trkpt>
      <trkpt lat="47.55749" lon="6.80189">
        <ele>389</ele>
        <time>2016-12-04T09:03:31.000Z</time>
      </trkpt>
      <trkpt lat="47.55753" lon="6.8019">
        <ele>391</ele>
        <time>2016-12-04T09:04:00.000Z</time>
      </trkpt>
      <trkpt lat="47.55755" lon="6.80191">
        <ele>391</ele>
        <time>2016-12-04T09:04:01.000Z</time>
      </trkpt>
      <trkpt lat="47.55758" lon="6.80192">
        <ele>391</ele>
        <time>2016-12-04T09:04:03.000Z</time>
      </trkpt>
      <trkpt lat="47.5576" lon="6.80192">
        <ele>391</ele>
        <time>2016-12-04T09:04:04.000Z</time>
      </trkpt>
      <trkpt lat="47.55763" lon="6.80192">
        <ele>391</ele>
        <time>2016-12-04T09:04:06.000Z</time>
      </trkpt>
      <trkpt lat="47.55764" lon="6.80191">
        <ele>391</ele>
        <time>2016-12-04T09:04:07.000Z</time>
      </trkpt>
      <trkpt lat="47.55768" lon="6.80187">
        <ele>391</ele>
        <time>2016-12-04T09:04:10.000Z</time>
      </trkpt>
      <trkpt lat="47.55769" lon="6.80187">
        <ele>391</ele>
        <time>2016-12-04T09:04:11.000Z</time>
      </trkpt>
      <trkpt lat="47.55773" lon="6.80186">
        <ele>391</ele>
        <time>2016-12-04T09:04:13.000Z</time>
      </trkpt>
      <trkpt lat="47.55775" lon="6.80187">
        <ele>391</ele>
        <time>2016-12-04T09:04:14.000Z</time>
      </trkpt>
      <trkpt lat="47.55779" lon="6.80186">
        <ele>391</ele>
        <time>2016-12-04T09:04:17.000Z</time>
      </trkpt>
      <trkpt lat="47.5578" lon="6.80185">
        <ele>391</ele>
        <time>2016-12-04T09:04:18.000Z</time>
      </trkpt>
      <trkpt lat="47.55784" lon="6.80186">
        <ele>391</ele>
        <time>2016-12-04T09:04:20.000Z</time>
      </trkpt>
      <trkpt lat="47.55786" lon="6.80187">
        <ele>391</ele>
        <time>2016-12-04T09:04:21.000Z</time>
      </trkpt>
      <trkpt lat="47.5579" lon="6.80189">
        <ele>391</ele>
        <time>2016-12-04T09:04:23.000Z</time>
      </trkpt>
      <trkpt lat="47.55792" lon="6.80191">
        <ele>391</ele>
        <time>2016-12-04T09:04:24.000Z</time>
      </trkpt>
      <trkpt lat="47.55795" lon="6.80191">
        <ele>391</ele>
        <time>2016-12-04T09:04:25.000Z</time>
      </trkpt>
      <trkpt lat="47.55797" lon="6.80192">
        <ele>391</ele>
        <time>2016-12-04T09:04:26.000Z</time>
      </trkpt>
      <trkpt lat="47.55799" lon="6.80194">
        <ele>391</ele>
        <time>2016-12-04T09:04:27.000Z</time>
      </trkpt>
      <trkpt lat="47.55802" lon="6.80197">
        <ele>391</ele>
        <time>2016-12-04T09:04:28.000Z</time>
      </trkpt>
      <trkpt lat="47.55806" lon="6.80199">
        <ele>391</ele>
        <time>2016-12-04T09:04:29.000Z</time>
      </trkpt>
      <trkpt lat="47.55809" lon="6.80201">
        <ele>391</ele>
        <time>2016-12-04T09:04:30.000Z</time>
      </trkpt>
      <trkpt lat="47.55812" lon="6.80204">
        <ele>391</ele>
        <time>2016-12-04T09:04:31.000Z</time>
      </trkpt>
      <trkpt lat="47.55815" lon="6.80206">
        <ele>392</ele>
        <time>2016-12-04T09:04:32.000Z</time>
      </trkpt>
      <trkpt lat="47.55817" lon="6.80208">
        <ele>392</ele>
        <time>2016-12-04T09:04:33.000Z</time>
      </trkpt>
      <trkpt lat="47.5582" lon="6.80209">
        <ele>392</ele>
        <time>2016-12-04T09:04:34.000Z</time>
      </trkpt>
      <trkpt lat="47.55823" lon="6.8021">
        <ele>392</ele>
        <time>2016-12-04T09:04:35.000Z</time>
      </trkpt>
      <trkpt lat="47.55828" lon="6.8021">
        <ele>392</ele>
        <time>2016-12-04T09:04:36.000Z</time>
      </trkpt>
      <trkpt lat="47.55832" lon="6.80212">
        <ele>392</ele>
        <time>2016-12-04T09:04:37.000Z</time>
      </trkpt>
      <trkpt lat="47.55835" lon="6.80213">
        <ele>392</ele>
        <time>2016-12-04T09:04:38.000Z</time>
      </trkpt>
      <trkpt lat="47.55839" lon="6.80214">
        <ele>392</ele>
        <time>2016-12-04T09:04:39.000Z</time>
      </trkpt>
      <trkpt lat="47.55843" lon="6.80215">
        <ele>392</ele>
        <time>2016-12-04T09:04:40.000Z</time>
      </trkpt>
      <trkpt lat="47.55847" lon="6.80215">
        <ele>392</ele>
        <time>2016-12-04T09:04:41.000Z</time>
      </trkpt>
      <trkpt lat="47.5585" lon="6.80217">
        <ele>392</ele>
        <time>2016-12-04T09:04:42.000Z</time>
      </trkpt>
      <trkpt lat="47.55853" lon="6.80216">
        <ele>392</ele>
        <time>2016-12-04T09:04:43.000Z</time>
      </trkpt>
      <trkpt lat="47.55856" lon="6.80217">
        <ele>392</ele>
        <time>2016-12-04T09:04:44.000Z</time>
      </trkpt>
      <trkpt lat="47.5586" lon="6.80217">
        <ele>392</ele>
        <time>2016-12-04T09:04:45.000Z</time>
      </trkpt>
      <trkpt lat="47.55863" lon="6.80219">
        <ele>392</ele>
        <time>2016-12-04T09:04:46.000Z</time>
      </trkpt>
      <trkpt lat="47.55867" lon="6.8022">
        <ele>392</ele>
        <time>2016-12-04T09:04:47.000Z</time>
      </trkpt>
      <trkpt lat="47.55869" lon="6.80219">
        <ele>392</ele>
        <time>2016-12-04T09:04:48.000Z</time>
      </trkpt>
      <trkpt lat="47.55873" lon="6.80219">
        <ele>392</ele>
        <time>2016-12-04T09:04:49.000Z</time>
      </trkpt>
      <trkpt lat="47.55876" lon="6.80219">
        <ele>392</ele>
        <time>2016-12-04T09:04:50.000Z</time>
      </trkpt>
      <trkpt lat="47.55879" lon="6.80218">
        <ele>392</ele>
        <time>2016-12-04T09:04:51.000Z</time>
      </trkpt>
      <trkpt lat="47.55883" lon="6.80216">
        <ele>392</ele>
        <time>2016-12-04T09:04:52.000Z</time>
      </trkpt>
      <trkpt lat="47.55887" lon="6.80215">
        <ele>392</ele>
        <time>2016-12-04T09:04:53.000Z</time>
      </trkpt>
      <trkpt lat="47.55889" lon="6.80214">
        <ele>392</ele>
        <time>2016-12-04T09:04:54.000Z</time>
      </trkpt>
      <trkpt lat="47.55892" lon="6.80213">
        <ele>392</ele>
        <time>2016-12-04T09:04:55.000Z</time>
      </trkpt>
      <trkpt lat="47.55896" lon="6.80211">
        <ele>391</ele>
        <time>2016-12-04T09:04:56.000Z</time>
      </trkpt>
      <trkpt lat="47.55899" lon="6.80208">
        <ele>391</ele>
        <time>2016-12-04T09:04:57.000Z</time>
      </trkpt>
      <trkpt lat="47.55903" lon="6.80205">
        <ele>391</ele>
        <time>2016-12-04T09:04:58.000Z</time>
      </trkpt>
      <trkpt lat="47.55907" lon="6.80201">
        <ele>391</ele>
        <time>2016-12-04T09:04:59.000Z</time>
      </trkpt>
      <trkpt lat="47.5591" lon="6.80198">
        <ele>391</ele>
        <time>2016-12-04T09:05:00.000Z</time>
      </trkpt>
      <trkpt lat="47.55913" lon="6.80195">
        <ele>391</ele>
        <time>2016-12-04T09:05:01.000Z</time>
      </trkpt>
      <trkpt lat="47.55917" lon="6.8019">
        <ele>389</ele>
        <time>2016-12-04T09:05:02.000Z</time>
      </trkpt>
      <trkpt lat="47.5592" lon="6.80185">
        <ele>389</ele>
        <time>2016-12-04T09:05:03.000Z</time>
      </trkpt>
      <trkpt lat="47.55923" lon="6.80181">
        <ele>388</ele>
        <time>2016-12-04T09:05:04.000Z</time>
      </trkpt>
      <trkpt lat="47.55927" lon="6.80178">
        <ele>388</ele>
        <time>2016-12-04T09:05:05.000Z</time>
      </trkpt>
      <trkpt lat="47.55932" lon="6.80175">
        <ele>388</ele>
        <time>2016-12-04T09:05:06.000Z</time>
      </trkpt>
      <trkpt lat="47.55936" lon="6.80172">
        <ele>388</ele>
        <time>2016-12-04T09:05:07.000Z</time>
      </trkpt>
      <trkpt lat="47.5594" lon="6.80171">
        <ele>388</ele>
        <time>2016-12-04T09:05:08.000Z</time>
      </trkpt>
      <trkpt lat="47.55944" lon="6.8017">
        <ele>388</ele>
        <time>2016-12-04T09:05:09.000Z</time>
      </trkpt>
      <trkpt lat="47.5595" lon="6.8017">
        <ele>387</ele>
        <time>2016-12-04T09:05:10.000Z</time>
      </trkpt>
      <trkpt lat="47.55955" lon="6.80169">
        <ele>387</ele>
        <time>2016-12-04T09:05:11.000Z</time>
      </trkpt>
      <trkpt lat="47.55961" lon="6.80168">
        <ele>387</ele>
        <time>2016-12-04T09:05:12.000Z</time>
      </trkpt>
      <trkpt lat="47.55968" lon="6.80167">
        <ele>386</ele>
        <time>2016-12-04T09:05:13.000Z</time>
      </trkpt>
      <trkpt lat="47.55974" lon="6.80167">
        <ele>384</ele>
        <time>2016-12-04T09:05:14.000Z</time>
      </trkpt>
      <trkpt lat="47.5598" lon="6.80167">
        <ele>385</ele>
        <time>2016-12-04T09:05:15.000Z</time>
      </trkpt>
      <trkpt lat="47.55985" lon="6.8017">
        <ele>385</ele>
        <time>2016-12-04T09:05:16.000Z</time>
      </trkpt>
      <trkpt lat="47.5599" lon="6.80172">
        <ele>384</ele>
        <time>2016-12-04T09:05:17.000Z</time>
      </trkpt>
      <trkpt lat="47.55995" lon="6.80174">
        <ele>384</ele>
        <time>2016-12-04T09:05:18.000Z</time>
      </trkpt>
      <trkpt lat="47.55999" lon="6.80175">
        <ele>384</ele>
        <time>2016-12-04T09:05:19.000Z</time>
      </trkpt>
      <trkpt lat="47.56003" lon="6.80176">
        <ele>382</ele>
        <time>2016-12-04T09:05:20.000Z</time>
      </trkpt>
      <trkpt lat="47.56006" lon="6.80178">
        <ele>382</ele>
        <time>2016-12-04T09:05:21.000Z</time>
      </trkpt>
      <trkpt lat="47.56008" lon="6.80179">
        <ele>383</ele>
        <time>2016-12-04T09:05:22.000Z</time>
      </trkpt>
      <trkpt lat="47.56011" lon="6.80182">
        <ele>383</ele>
        <time>2016-12-04T09:05:24.000Z</time>
      </trkpt>
      <trkpt lat="47.56013" lon="6.80185">
        <ele>383</ele>
        <time>2016-12-04T09:05:25.000Z</time>
      </trkpt>
      <trkpt lat="47.56015" lon="6.80188">
        <ele>383</ele>
        <time>2016-12-04T09:05:26.000Z</time>
      </trkpt>
      <trkpt lat="47.56016" lon="6.80191">
        <ele>383</ele>
        <time>2016-12-04T09:05:27.000Z</time>
      </trkpt>
      <trkpt lat="47.56017" lon="6.80194">
        <ele>383</ele>
        <time>2016-12-04T09:05:28.000Z</time>
      </trkpt>
      <trkpt lat="47.56019" lon="6.80197">
        <ele>383</ele>
        <time>2016-12-04T09:05:29.000Z</time>
      </trkpt>
      <trkpt lat="47.56019" lon="6.802">
        <ele>383</ele>
        <time>2016-12-04T09:05:30.000Z</time>
      </trkpt>
      <trkpt lat="47.56021" lon="6.80203">
        <ele>383</ele>
        <time>2016-12-04T09:05:31.000Z</time>
      </trkpt>
      <trkpt lat="47.56025" lon="6.80206">
        <ele>383</ele>
        <time>2016-12-04T09:05:33.000Z</time>
      </trkpt>
      <trkpt lat="47.56027" lon="6.80207">
        <ele>383</ele>
        <time>2016-12-04T09:05:34.000Z</time>
      </trkpt>
      <trkpt lat="47.5603" lon="6.80206">
        <ele>383</ele>
        <time>2016-12-04T09:05:35.000Z</time>
      </trkpt>
      <trkpt lat="47.56033" lon="6.80206">
        <ele>383</ele>
        <time>2016-12-04T09:05:36.000Z</time>
      </trkpt>
      <trkpt lat="47.56036" lon="6.80206">
        <ele>383</ele>
        <time>2016-12-04T09:05:37.000Z</time>
      </trkpt>
      <trkpt lat="47.56038" lon="6.80206">
        <ele>383</ele>
        <time>2016-12-04T09:05:38.000Z</time>
      </trkpt>
      <trkpt lat="47.56041" lon="6.80206">
        <ele>383</ele>
        <time>2016-12-04T09:05:39.000Z</time>
      </trkpt>
      <trkpt lat="47.56044" lon="6.80206">
        <ele>383</ele>
        <time>2016-12-04T09:05:40.000Z</time>
      </trkpt>
      <trkpt lat="47.56047" lon="6.80207">
        <ele>383</ele>
        <time>2016-12-04T09:05:41.000Z</time>
      </trkpt>
      <trkpt lat="47.56049" lon="6.80208">
        <ele>383</ele>
        <time>2016-12-04T09:05:42.000Z</time>
      </trkpt>
      <trkpt lat="47.56053" lon="6.80209">
        <ele>383</ele>
        <time>2016-12-04T09:05:43.000Z</time>
      </trkpt>
      <trkpt lat="47.56056" lon="6.80209">
        <ele>383</ele>
        <time>2016-12-04T09:05:44.000Z</time>
      </trkpt>
      <trkpt lat="47.5606" lon="6.80209">
        <ele>383</ele>
        <time>2016-12-04T09:05:46.000Z</time>
      </trkpt>
      <trkpt lat="47.56063" lon="6.80208">
        <ele>383</ele>
        <time>2016-12-04T09:05:47.000Z</time>
      </trkpt>
      <trkpt lat="47.56067" lon="6.80208">
        <ele>383</ele>
        <time>2016-12-04T09:05:48.000Z</time>
      </trkpt>
      <trkpt lat="47.5607" lon="6.80207">
        <ele>383</ele>
        <time>2016-12-04T09:05:49.000Z</time>
      </trkpt>
      <trkpt lat="47.56074" lon="6.80205">
        <ele>382</ele>
        <time>2016-12-04T09:05:50.000Z</time>
      </trkpt>
      <trkpt lat="47.56076" lon="6.80203">
        <ele>382</ele>
        <time>2016-12-04T09:05:51.000Z</time>
      </trkpt>
      <trkpt lat="47.5608" lon="6.80202">
        <ele>382</ele>
        <time>2016-12-04T09:05:52.000Z</time>
      </trkpt>
      <trkpt lat="47.56084" lon="6.80199">
        <ele>381</ele>
        <time>2016-12-04T09:05:53.000Z</time>
      </trkpt>
      <trkpt lat="47.56088" lon="6.80196">
        <ele>381</ele>
        <time>2016-12-04T09:05:54.000Z</time>
      </trkpt>
      <trkpt lat="47.56092" lon="6.80191">
        <ele>381</ele>
        <time>2016-12-04T09:05:55.000Z</time>
      </trkpt>
      <trkpt lat="47.56095" lon="6.80186">
        <ele>381</ele>
        <time>2016-12-04T09:05:56.000Z</time>
      </trkpt>
      <trkpt lat="47.56099" lon="6.80181">
        <ele>380</ele>
        <time>2016-12-04T09:05:57.000Z</time>
      </trkpt>
      <trkpt lat="47.56103" lon="6.80175">
        <ele>380</ele>
        <time>2016-12-04T09:05:58.000Z</time>
      </trkpt>
      <trkpt lat="47.56107" lon="6.80169">
        <ele>380</ele>
        <time>2016-12-04T09:05:59.000Z</time>
      </trkpt>
      <trkpt lat="47.56112" lon="6.80165">
        <ele>379</ele>
        <time>2016-12-04T09:06:00.000Z</time>
      </trkpt>
      <trkpt lat="47.56116" lon="6.8016">
        <ele>379</ele>
        <time>2016-12-04T09:06:01.000Z</time>
      </trkpt>
      <trkpt lat="47.56119" lon="6.80157">
        <ele>379</ele>
        <time>2016-12-04T09:06:02.000Z</time>
      </trkpt>
      <trkpt lat="47.56123" lon="6.80155">
        <ele>379</ele>
        <time>2016-12-04T09:06:03.000Z</time>
      </trkpt>
      <trkpt lat="47.56127" lon="6.80153">
        <ele>379</ele>
        <time>2016-12-04T09:06:04.000Z</time>
      </trkpt>
      <trkpt lat="47.56131" lon="6.80152">
        <ele>379</ele>
        <time>2016-12-04T09:06:05.000Z</time>
      </trkpt>
      <trkpt lat="47.56135" lon="6.80151">
        <ele>379</ele>
        <time>2016-12-04T09:06:06.000Z</time>
      </trkpt>
      <trkpt lat="47.56139" lon="6.8015">
        <ele>379</ele>
        <time>2016-12-04T09:06:07.000Z</time>
      </trkpt>
      <trkpt lat="47.56145" lon="6.8015">
        <ele>379</ele>
        <time>2016-12-04T09:06:08.000Z</time>
      </trkpt>
      <trkpt lat="47.56149" lon="6.80149">
        <ele>379</ele>
        <time>2016-12-04T09:06:09.000Z</time>
      </trkpt>
      <trkpt lat="47.56153" lon="6.80148">
        <ele>379</ele>
        <time>2016-12-04T09:06:10.000Z</time>
      </trkpt>
      <trkpt lat="47.56157" lon="6.80148">
        <ele>379</ele>
        <time>2016-12-04T09:06:11.000Z</time>
      </trkpt>
      <trkpt lat="47.56161" lon="6.80148">
        <ele>379</ele>
        <time>2016-12-04T09:06:12.000Z</time>
      </trkpt>
      <trkpt lat="47.56164" lon="6.80147">
        <ele>379</ele>
        <time>2016-12-04T09:06:13.000Z</time>
      </trkpt>
      <trkpt lat="47.56168" lon="6.80146">
        <ele>379</ele>
        <time>2016-12-04T09:06:14.000Z</time>
      </trkpt>
      <trkpt lat="47.56171" lon="6.80146">
        <ele>379</ele>
        <time>2016-12-04T09:06:15.000Z</time>
      </trkpt>
      <trkpt lat="47.56175" lon="6.80146">
        <ele>379</ele>
        <time>2016-12-04T09:06:16.000Z</time>
      </trkpt>
      <trkpt lat="47.56178" lon="6.80148">
        <ele>379</ele>
        <time>2016-12-04T09:06:17.000Z</time>
      </trkpt>
      <trkpt lat="47.56182" lon="6.80151">
        <ele>379</ele>
        <time>2016-12-04T09:06:18.000Z</time>
      </trkpt>
      <trkpt lat="47.56185" lon="6.80154">
        <ele>379</ele>
        <time>2016-12-04T09:06:19.000Z</time>
      </trkpt>
      <trkpt lat="47.56188" lon="6.80157">
        <ele>379</ele>
        <time>2016-12-04T09:06:20.000Z</time>
      </trkpt>
      <trkpt lat="47.56191" lon="6.8016">
        <ele>379</ele>
        <time>2016-12-04T09:06:21.000Z</time>
      </trkpt>
      <trkpt lat="47.56195" lon="6.80162">
        <ele>379</ele>
        <time>2016-12-04T09:06:22.000Z</time>
      </trkpt>
      <trkpt lat="47.562" lon="6.80164">
        <ele>379</ele>
        <time>2016-12-04T09:06:23.000Z</time>
      </trkpt>
      <trkpt lat="47.56204" lon="6.80164">
        <ele>379</ele>
        <time>2016-12-04T09:06:24.000Z</time>
      </trkpt>
      <trkpt lat="47.56209" lon="6.80163">
        <ele>379</ele>
        <time>2016-12-04T09:06:25.000Z</time>
      </trkpt>
      <trkpt lat="47.56213" lon="6.80162">
        <ele>379</ele>
        <time>2016-12-04T09:06:26.000Z</time>
      </trkpt>
      <trkpt lat="47.56219" lon="6.80161">
        <ele>379</ele>
        <time>2016-12-04T09:06:27.000Z</time>
      </trkpt>
      <trkpt lat="47.56224" lon="6.80159">
        <ele>379</ele>
        <time>2016-12-04T09:06:28.000Z</time>
      </trkpt>
      <trkpt lat="47.56229" lon="6.80158">
        <ele>379</ele>
        <time>2016-12-04T09:06:29.000Z</time>
      </trkpt>
      <trkpt lat="47.56234" lon="6.80156">
        <ele>379</ele>
        <time>2016-12-04T09:06:30.000Z</time>
      </trkpt>
      <trkpt lat="47.56239" lon="6.80155">
        <ele>380</ele>
        <time>2016-12-04T09:06:31.000Z</time>
      </trkpt>
      <trkpt lat="47.56243" lon="6.80153">
        <ele>380</ele>
        <time>2016-12-04T09:06:32.000Z</time>
      </trkpt>
      <trkpt lat="47.56246" lon="6.80151">
        <ele>380</ele>
        <time>2016-12-04T09:06:33.000Z</time>
      </trkpt>
      <trkpt lat="47.56249" lon="6.80149">
        <ele>380</ele>
        <time>2016-12-04T09:06:34.000Z</time>
      </trkpt>
      <trkpt lat="47.56252" lon="6.80148">
        <ele>380</ele>
        <time>2016-12-04T09:06:35.000Z</time>
      </trkpt>
      <trkpt lat="47.56255" lon="6.80146">
        <ele>379</ele>
        <time>2016-12-04T09:06:36.000Z</time>
      </trkpt>
      <trkpt lat="47.56257" lon="6.80143">
        <ele>379</ele>
        <time>2016-12-04T09:06:37.000Z</time>
      </trkpt>
      <trkpt lat="47.5626" lon="6.8014">
        <ele>379</ele>
        <time>2016-12-04T09:06:38.000Z</time>
      </trkpt>
      <trkpt lat="47.56265" lon="6.80137">
        <ele>379</ele>
        <time>2016-12-04T09:06:39.000Z</time>
      </trkpt>
      <trkpt lat="47.5627" lon="6.80134">
        <ele>379</ele>
        <time>2016-12-04T09:06:40.000Z</time>
      </trkpt>
      <trkpt lat="47.56274" lon="6.80133">
        <ele>379</ele>
        <time>2016-12-04T09:06:41.000Z</time>
      </trkpt>
      <trkpt lat="47.56278" lon="6.80131">
        <ele>379</ele>
        <time>2016-12-04T09:06:42.000Z</time>
      </trkpt>
      <trkpt lat="47.56282" lon="6.8013">
        <ele>379</ele>
        <time>2016-12-04T09:06:43.000Z</time>
      </trkpt>
      <trkpt lat="47.56286" lon="6.80129">
        <ele>379</ele>
        <time>2016-12-04T09:06:44.000Z</time>
      </trkpt>
      <trkpt lat="47.5629" lon="6.80129">
        <ele>379</ele>
        <time>2016-12-04T09:06:45.000Z</time>
      </trkpt>
      <trkpt lat="47.56294" lon="6.80127">
        <ele>379</ele>
        <time>2016-12-04T09:06:46.000Z</time>
      </trkpt>
      <trkpt lat="47.56298" lon="6.80126">
        <ele>379</ele>
        <time>2016-12-04T09:06:47.000Z</time>
      </trkpt>
      <trkpt lat="47.56302" lon="6.80124">
        <ele>379</ele>
        <time>2016-12-04T09:06:48.000Z</time>
      </trkpt>
      <trkpt lat="47.56306" lon="6.80121">
        <ele>379</ele>
        <time>2016-12-04T09:06:49.000Z</time>
      </trkpt>
      <trkpt lat="47.56311" lon="6.80119">
        <ele>379</ele>
        <time>2016-12-04T09:06:50.000Z</time>
      </trkpt>
      <trkpt lat="47.56316" lon="6.80117">
        <ele>379</ele>
        <time>2016-12-04T09:06:51.000Z</time>
      </trkpt>
      <trkpt lat="47.5632" lon="6.80115">
        <ele>378</ele>
        <time>2016-12-04T09:06:52.000Z</time>
      </trkpt>
      <trkpt lat="47.56323" lon="6.80114">
        <ele>378</ele>
        <time>2016-12-04T09:06:53.000Z</time>
      </trkpt>
      <trkpt lat="47.56326" lon="6.80113">
        <ele>378</ele>
        <time>2016-12-04T09:06:54.000Z</time>
      </trkpt>
      <trkpt lat="47.56328" lon="6.80113">
        <ele>378</ele>
        <time>2016-12-04T09:06:55.000Z</time>
      </trkpt>
      <trkpt lat="47.56332" lon="6.80113">
        <ele>378</ele>
        <time>2016-12-04T09:06:57.000Z</time>
      </trkpt>
      <trkpt lat="47.56334" lon="6.80114">
        <ele>378</ele>
        <time>2016-12-04T09:06:58.000Z</time>
      </trkpt>
      <trkpt lat="47.56337" lon="6.80115">
        <ele>378</ele>
        <time>2016-12-04T09:06:59.000Z</time>
      </trkpt>
      <trkpt lat="47.5634" lon="6.80116">
        <ele>378</ele>
        <time>2016-12-04T09:07:00.000Z</time>
      </trkpt>
      <trkpt lat="47.56343" lon="6.80117">
        <ele>378</ele>
        <time>2016-12-04T09:07:01.000Z</time>
      </trkpt>
      <trkpt lat="47.56345" lon="6.80118">
        <ele>378</ele>
        <time>2016-12-04T09:07:02.000Z</time>
      </trkpt>
      <trkpt lat="47.56347" lon="6.80119">
        <ele>378</ele>
        <time>2016-12-04T09:07:03.000Z</time>
      </trkpt>
      <trkpt lat="47.5635" lon="6.8012">
        <ele>378</ele>
        <time>2016-12-04T09:07:04.000Z</time>
      </trkpt>
      <trkpt lat="47.56353" lon="6.80121">
        <ele>378</ele>
        <time>2016-12-04T09:07:05.000Z</time>
      </trkpt>
      <trkpt lat="47.56355" lon="6.80122">
        <ele>378</ele>
        <time>2016-12-04T09:07:06.000Z</time>
      </trkpt>
      <trkpt lat="47.56358" lon="6.80124">
        <ele>378</ele>
        <time>2016-12-04T09:07:07.000Z</time>
      </trkpt>
      <trkpt lat="47.5636" lon="6.80125">
        <ele>378</ele>
        <time>2016-12-04T09:07:08.000Z</time>
      </trkpt>
      <trkpt lat="47.56363" lon="6.80126">
        <ele>378</ele>
        <time>2016-12-04T09:07:09.000Z</time>
      </trkpt>
      <trkpt lat="47.56366" lon="6.80127">
        <ele>378</ele>
        <time>2016-12-04T09:07:10.000Z</time>
      </trkpt>
      <trkpt lat="47.56369" lon="6.80127">
        <ele>378</ele>
        <time>2016-12-04T09:07:11.000Z</time>
      </trkpt>
      <trkpt lat="47.56372" lon="6.80128">
        <ele>378</ele>
        <time>2016-12-04T09:07:12.000Z</time>
      </trkpt>
      <trkpt lat="47.56375" lon="6.80129">
        <ele>378</ele>
        <time>2016-12-04T09:07:13.000Z</time>
      </trkpt>
      <trkpt lat="47.56378" lon="6.80129">
        <ele>378</ele>
        <time>2016-12-04T09:07:14.000Z</time>
      </trkpt>
      <trkpt lat="47.56381" lon="6.8013">
        <ele>378</ele>
        <time>2016-12-04T09:07:15.000Z</time>
      </trkpt>
      <trkpt lat="47.56384" lon="6.80131">
        <ele>378</ele>
        <time>2016-12-04T09:07:16.000Z</time>
      </trkpt>
      <trkpt lat="47.56387" lon="6.80131">
        <ele>378</ele>
        <time>2016-12-04T09:07:17.000Z</time>
      </trkpt>
      <trkpt lat="47.5639" lon="6.80132">
        <ele>378</ele>
        <time>2016-12-04T09:07:18.000Z</time>
      </trkpt>
      <trkpt lat="47.56393" lon="6.80132">
        <ele>378</ele>
        <time>2016-12-04T09:07:19.000Z</time>
      </trkpt>
      <trkpt lat="47.56395" lon="6.80133">
        <ele>378</ele>
        <time>2016-12-04T09:07:20.000Z</time>
      </trkpt>
      <trkpt lat="47.56398" lon="6.80134">
        <ele>378</ele>
        <time>2016-12-04T09:07:21.000Z</time>
      </trkpt>
      <trkpt lat="47.564" lon="6.80135">
        <ele>378</ele>
        <time>2016-12-04T09:07:22.000Z</time>
      </trkpt>
      <trkpt lat="47.56402" lon="6.80136">
        <ele>378</ele>
        <time>2016-12-04T09:07:23.000Z</time>
      </trkpt>
      <trkpt lat="47.56405" lon="6.80136">
        <ele>378</ele>
        <time>2016-12-04T09:07:24.000Z</time>
      </trkpt>
      <trkpt lat="47.56408" lon="6.80137">
        <ele>378</ele>
        <time>2016-12-04T09:07:25.000Z</time>
      </trkpt>
      <trkpt lat="47.5641" lon="6.80138">
        <ele>378</ele>
        <time>2016-12-04T09:07:26.000Z</time>
      </trkpt>
      <trkpt lat="47.56413" lon="6.80138">
        <ele>378</ele>
        <time>2016-12-04T09:07:27.000Z</time>
      </trkpt>
      <trkpt lat="47.56416" lon="6.80139">
        <ele>378</ele>
        <time>2016-12-04T09:07:28.000Z</time>
      </trkpt>
      <trkpt lat="47.56419" lon="6.80139">
        <ele>378</ele>
        <time>2016-12-04T09:07:29.000Z</time>
      </trkpt>
      <trkpt lat="47.56422" lon="6.8014">
        <ele>378</ele>
        <time>2016-12-04T09:07:30.000Z</time>
      </trkpt>
      <trkpt lat="47.56424" lon="6.80141">
        <ele>378</ele>
        <time>2016-12-04T09:07:31.000Z</time>
      </trkpt>
      <trkpt lat="47.56428" lon="6.80141">
        <ele>378</ele>
        <time>2016-12-04T09:07:32.000Z</time>
      </trkpt>
      <trkpt lat="47.56431" lon="6.80141">
        <ele>378</ele>
        <time>2016-12-04T09:07:33.000Z</time>
      </trkpt>
      <trkpt lat="47.56433" lon="6.80141">
        <ele>378</ele>
        <time>2016-12-04T09:07:34.000Z</time>
      </trkpt>
      <trkpt lat="47.56437" lon="6.80142">
        <ele>378</ele>
        <time>2016-12-04T09:07:35.000Z</time>
      </trkpt>
      <trkpt lat="47.56441" lon="6.80142">
        <ele>378</ele>
        <time>2016-12-04T09:07:36.000Z</time>
      </trkpt>
      <trkpt lat="47.56444" lon="6.80142">
        <ele>377</ele>
        <time>2016-12-04T09:07:37.000Z</time>
      </trkpt>
      <trkpt lat="47.56448" lon="6.80142">
        <ele>377</ele>
        <time>2016-12-04T09:07:38.000Z</time>
      </trkpt>
      <trkpt lat="47.5645" lon="6.80141">
        <ele>377</ele>
        <time>2016-12-04T09:07:39.000Z</time>
      </trkpt>
      <trkpt lat="47.56453" lon="6.8014">
        <ele>377</ele>
        <time>2016-12-04T09:07:40.000Z</time>
      </trkpt>
      <trkpt lat="47.56456" lon="6.80139">
        <ele>377</ele>
        <time>2016-12-04T09:07:41.000Z</time>
      </trkpt>
      <trkpt lat="47.56459" lon="6.80139">
        <ele>377</ele>
        <time>2016-12-04T09:07:42.000Z</time>
      </trkpt>
      <trkpt lat="47.56463" lon="6.80138">
        <ele>377</ele>
        <time>2016-12-04T09:07:43.000Z</time>
      </trkpt>
      <trkpt lat="47.56466" lon="6.80138">
        <ele>377</ele>
        <time>2016-12-04T09:07:44.000Z</time>
      </trkpt>
      <trkpt lat="47.56469" lon="6.80137">
        <ele>377</ele>
        <time>2016-12-04T09:07:45.000Z</time>
      </trkpt>
      <trkpt lat="47.56472" lon="6.80136">
        <ele>377</ele>
        <time>2016-12-04T09:07:46.000Z</time>
      </trkpt>
      <trkpt lat="47.56476" lon="6.80135">
        <ele>377</ele>
        <time>2016-12-04T09:07:47.000Z</time>
      </trkpt>
      <trkpt lat="47.56479" lon="6.80134">
        <ele>377</ele>
        <time>2016-12-04T09:07:48.000Z</time>
      </trkpt>
      <trkpt lat="47.56482" lon="6.80133">
        <ele>377</ele>
        <time>2016-12-04T09:07:49.000Z</time>
      </trkpt>
      <trkpt lat="47.56486" lon="6.80132">
        <ele>377</ele>
        <time>2016-12-04T09:07:50.000Z</time>
      </trkpt>
      <trkpt lat="47.56489" lon="6.80132">
        <ele>377</ele>
        <time>2016-12-04T09:07:51.000Z</time>
      </trkpt>
      <trkpt lat="47.56491" lon="6.80131">
        <ele>377</ele>
        <time>2016-12-04T09:07:52.000Z</time>
      </trkpt>
      <trkpt lat="47.56494" lon="6.80131">
        <ele>377</ele>
        <time>2016-12-04T09:07:53.000Z</time>
      </trkpt>
      <trkpt lat="47.56497" lon="6.8013">
        <ele>377</ele>
        <time>2016-12-04T09:07:54.000Z</time>
      </trkpt>
      <trkpt lat="47.56501" lon="6.80129">
        <ele>379</ele>
        <time>2016-12-04T09:07:55.000Z</time>
      </trkpt>
      <trkpt lat="47.56504" lon="6.80128">
        <ele>379</ele>
        <time>2016-12-04T09:07:56.000Z</time>
      </trkpt>
      <trkpt lat="47.56507" lon="6.80127">
        <ele>379</ele>
        <time>2016-12-04T09:07:57.000Z</time>
      </trkpt>
      <trkpt lat="47.5651" lon="6.80126">
        <ele>379</ele>
        <time>2016-12-04T09:07:58.000Z</time>
      </trkpt>
      <trkpt lat="47.56514" lon="6.80126">
        <ele>379</ele>
        <time>2016-12-04T09:07:59.000Z</time>
      </trkpt>
      <trkpt lat="47.56517" lon="6.80125">
        <ele>379</ele>
        <time>2016-12-04T09:08:00.000Z</time>
      </trkpt>
      <trkpt lat="47.56519" lon="6.80123">
        <ele>379</ele>
        <time>2016-12-04T09:08:01.000Z</time>
      </trkpt>
      <trkpt lat="47.56522" lon="6.80122">
        <ele>379</ele>
        <time>2016-12-04T09:08:02.000Z</time>
      </trkpt>
      <trkpt lat="47.56525" lon="6.80121">
        <ele>379</ele>
        <time>2016-12-04T09:08:03.000Z</time>
      </trkpt>
      <trkpt lat="47.56528" lon="6.8012">
        <ele>379</ele>
        <time>2016-12-04T09:08:04.000Z</time>
      </trkpt>
      <trkpt lat="47.56531" lon="6.80118">
        <ele>379</ele>
        <time>2016-12-04T09:08:05.000Z</time>
      </trkpt>
      <trkpt lat="47.56534" lon="6.80118">
        <ele>379</ele>
        <time>2016-12-04T09:08:06.000Z</time>
      </trkpt>
      <trkpt lat="47.56537" lon="6.80118">
        <ele>379</ele>
        <time>2016-12-04T09:08:07.000Z</time>
      </trkpt>
      <trkpt lat="47.5654" lon="6.80118">
        <ele>379</ele>
        <time>2016-12-04T09:08:08.000Z</time>
      </trkpt>
      <trkpt lat="47.56543" lon="6.80118">
        <ele>379</ele>
        <time>2016-12-04T09:08:09.000Z</time>
      </trkpt>
      <trkpt lat="47.56546" lon="6.80117">
        <ele>379</ele>
        <time>2016-12-04T09:08:10.000Z</time>
      </trkpt>
      <trkpt lat="47.5655" lon="6.80116">
        <ele>379</ele>
        <time>2016-12-04T09:08:11.000Z</time>
      </trkpt>
      <trkpt lat="47.56553" lon="6.80116">
        <ele>380</ele>
        <time>2016-12-04T09:08:12.000Z</time>
      </trkpt>
      <trkpt lat="47.56558" lon="6.80114">
        <ele>380</ele>
        <time>2016-12-04T09:08:14.000Z</time>
      </trkpt>
      <trkpt lat="47.5656" lon="6.80114">
        <ele>380</ele>
        <time>2016-12-04T09:08:15.000Z</time>
      </trkpt>
      <trkpt lat="47.56562" lon="6.80113">
        <ele>380</ele>
        <time>2016-12-04T09:08:16.000Z</time>
      </trkpt>
      <trkpt lat="47.56564" lon="6.80112">
        <ele>380</ele>
        <time>2016-12-04T09:08:17.000Z</time>
      </trkpt>
      <trkpt lat="47.56566" lon="6.80111">
        <ele>380</ele>
        <time>2016-12-04T09:08:18.000Z</time>
      </trkpt>
      <trkpt lat="47.56569" lon="6.80111">
        <ele>380</ele>
        <time>2016-12-04T09:08:19.000Z</time>
      </trkpt>
      <trkpt lat="47.56571" lon="6.8011">
        <ele>380</ele>
        <time>2016-12-04T09:08:20.000Z</time>
      </trkpt>
      <trkpt lat="47.56574" lon="6.80109">
        <ele>380</ele>
        <time>2016-12-04T09:08:21.000Z</time>
      </trkpt>
      <trkpt lat="47.56577" lon="6.80109">
        <ele>380</ele>
        <time>2016-12-04T09:08:22.000Z</time>
      </trkpt>
      <trkpt lat="47.56579" lon="6.80108">
        <ele>380</ele>
        <time>2016-12-04T09:08:23.000Z</time>
      </trkpt>
      <trkpt lat="47.56582" lon="6.80108">
        <ele>380</ele>
        <time>2016-12-04T09:08:24.000Z</time>
      </trkpt>
      <trkpt lat="47.56585" lon="6.80107">
        <ele>382</ele>
        <time>2016-12-04T09:08:25.000Z</time>
      </trkpt>
      <trkpt lat="47.56587" lon="6.80107">
        <ele>382</ele>
        <time>2016-12-04T09:08:26.000Z</time>
      </trkpt>
      <trkpt lat="47.5659" lon="6.80107">
        <ele>382</ele>
        <time>2016-12-04T09:08:27.000Z</time>
      </trkpt>
      <trkpt lat="47.56593" lon="6.80107">
        <ele>382</ele>
        <time>2016-12-04T09:08:28.000Z</time>
      </trkpt>
      <trkpt lat="47.56595" lon="6.80108">
        <ele>382</ele>
        <time>2016-12-04T09:08:29.000Z</time>
      </trkpt>
      <trkpt lat="47.56597" lon="6.80108">
        <ele>382</ele>
        <time>2016-12-04T09:08:30.000Z</time>
      </trkpt>
      <trkpt lat="47.566" lon="6.80109">
        <ele>382</ele>
        <time>2016-12-04T09:08:31.000Z</time>
      </trkpt>
      <trkpt lat="47.56603" lon="6.8011">
        <ele>382</ele>
        <time>2016-12-04T09:08:32.000Z</time>
      </trkpt>
      <trkpt lat="47.56606" lon="6.80111">
        <ele>383</ele>
        <time>2016-12-04T09:08:33.000Z</time>
      </trkpt>
      <trkpt lat="47.56609" lon="6.80112">
        <ele>383</ele>
        <time>2016-12-04T09:08:34.000Z</time>
      </trkpt>
      <trkpt lat="47.56611" lon="6.80114">
        <ele>383</ele>
        <time>2016-12-04T09:08:35.000Z</time>
      </trkpt>
      <trkpt lat="47.56614" lon="6.80116">
        <ele>383</ele>
        <time>2016-12-04T09:08:36.000Z</time>
      </trkpt>
      <trkpt lat="47.56615" lon="6.80118">
        <ele>383</ele>
        <time>2016-12-04T09:08:37.000Z</time>
      </trkpt>
      <trkpt lat="47.56617" lon="6.8012">
        <ele>383</ele>
        <time>2016-12-04T09:08:38.000Z</time>
      </trkpt>
      <trkpt lat="47.56619" lon="6.80122">
        <ele>383</ele>
        <time>2016-12-04T09:08:39.000Z</time>
      </trkpt>
      <trkpt lat="47.56622" lon="6.80124">
        <ele>383</ele>
        <time>2016-12-04T09:08:40.000Z</time>
      </trkpt>
      <trkpt lat="47.56624" lon="6.80127">
        <ele>383</ele>
        <time>2016-12-04T09:08:41.000Z</time>
      </trkpt>
      <trkpt lat="47.56627" lon="6.80129">
        <ele>383</ele>
        <time>2016-12-04T09:08:42.000Z</time>
      </trkpt>
      <trkpt lat="47.56629" lon="6.80131">
        <ele>383</ele>
        <time>2016-12-04T09:08:43.000Z</time>
      </trkpt>
      <trkpt lat="47.56631" lon="6.80134">
        <ele>383</ele>
        <time>2016-12-04T09:08:44.000Z</time>
      </trkpt>
      <trkpt lat="47.56634" lon="6.80136">
        <ele>383</ele>
        <time>2016-12-04T09:08:45.000Z</time>
      </trkpt>
      <trkpt lat="47.56636" lon="6.80137">
        <ele>383</ele>
        <time>2016-12-04T09:08:46.000Z</time>
      </trkpt>
      <trkpt lat="47.56639" lon="6.80139">
        <ele>383</ele>
        <time>2016-12-04T09:08:47.000Z</time>
      </trkpt>
      <trkpt lat="47.56641" lon="6.8014">
        <ele>383</ele>
        <time>2016-12-04T09:08:48.000Z</time>
      </trkpt>
      <trkpt lat="47.56644" lon="6.80142">
        <ele>383</ele>
        <time>2016-12-04T09:08:49.000Z</time>
      </trkpt>
      <trkpt lat="47.56647" lon="6.80143">
        <ele>383</ele>
        <time>2016-12-04T09:08:50.000Z</time>
      </trkpt>
      <trkpt lat="47.5665" lon="6.80145">
        <ele>383</ele>
        <time>2016-12-04T09:08:51.000Z</time>
      </trkpt>
      <trkpt lat="47.56653" lon="6.80147">
        <ele>383</ele>
        <time>2016-12-04T09:08:52.000Z</time>
      </trkpt>
      <trkpt lat="47.56656" lon="6.80148">
        <ele>384</ele>
        <time>2016-12-04T09:08:53.000Z</time>
      </trkpt>
      <trkpt lat="47.56659" lon="6.8015">
        <ele>384</ele>
        <time>2016-12-04T09:08:54.000Z</time>
      </trkpt>
      <trkpt lat="47.56662" lon="6.80152">
        <ele>384</ele>
        <time>2016-12-04T09:08:55.000Z</time>
      </trkpt>
      <trkpt lat="47.56664" lon="6.80153">
        <ele>384</ele>
        <time>2016-12-04T09:08:56.000Z</time>
      </trkpt>
      <trkpt lat="47.56667" lon="6.80154">
        <ele>386</ele>
        <time>2016-12-04T09:08:57.000Z</time>
      </trkpt>
      <trkpt lat="47.5667" lon="6.80156">
        <ele>385</ele>
        <time>2016-12-04T09:08:58.000Z</time>
      </trkpt>
      <trkpt lat="47.56672" lon="6.80157">
        <ele>385</ele>
        <time>2016-12-04T09:08:59.000Z</time>
      </trkpt>
      <trkpt lat="47.56674" lon="6.80159">
        <ele>385</ele>
        <time>2016-12-04T09:09:00.000Z</time>
      </trkpt>
      <trkpt lat="47.56676" lon="6.8016">
        <ele>386</ele>
        <time>2016-12-04T09:09:01.000Z</time>
      </trkpt>
      <trkpt lat="47.5668" lon="6.80163">
        <ele>386</ele>
        <time>2016-12-04T09:09:03.000Z</time>
      </trkpt>
      <trkpt lat="47.56681" lon="6.80165">
        <ele>386</ele>
        <time>2016-12-04T09:09:04.000Z</time>
      </trkpt>
      <trkpt lat="47.56684" lon="6.80166">
        <ele>386</ele>
        <time>2016-12-04T09:09:05.000Z</time>
      </trkpt>
      <trkpt lat="47.56686" lon="6.80168">
        <ele>386</ele>
        <time>2016-12-04T09:09:06.000Z</time>
      </trkpt>
      <trkpt lat="47.56689" lon="6.80171">
        <ele>387</ele>
        <time>2016-12-04T09:09:08.000Z</time>
      </trkpt>
      <trkpt lat="47.56691" lon="6.80173">
        <ele>387</ele>
        <time>2016-12-04T09:09:09.000Z</time>
      </trkpt>
      <trkpt lat="47.56694" lon="6.80175">
        <ele>387</ele>
        <time>2016-12-04T09:09:10.000Z</time>
      </trkpt>
      <trkpt lat="47.56696" lon="6.80177">
        <ele>387</ele>
        <time>2016-12-04T09:09:11.000Z</time>
      </trkpt>
      <trkpt lat="47.56698" lon="6.80179">
        <ele>388</ele>
        <time>2016-12-04T09:09:12.000Z</time>
      </trkpt>
      <trkpt lat="47.567" lon="6.80181">
        <ele>388</ele>
        <time>2016-12-04T09:09:13.000Z</time>
      </trkpt>
      <trkpt lat="47.56703" lon="6.80184">
        <ele>388</ele>
        <time>2016-12-04T09:09:15.000Z</time>
      </trkpt>
      <trkpt lat="47.56705" lon="6.80185">
        <ele>388</ele>
        <time>2016-12-04T09:09:16.000Z</time>
      </trkpt>
      <trkpt lat="47.56708" lon="6.80187">
        <ele>388</ele>
        <time>2016-12-04T09:09:17.000Z</time>
      </trkpt>
      <trkpt lat="47.56709" lon="6.80188">
        <ele>388</ele>
        <time>2016-12-04T09:09:18.000Z</time>
      </trkpt>
      <trkpt lat="47.56712" lon="6.80189">
        <ele>388</ele>
        <time>2016-12-04T09:09:19.000Z</time>
      </trkpt>
      <trkpt lat="47.56714" lon="6.80191">
        <ele>389</ele>
        <time>2016-12-04T09:09:20.000Z</time>
      </trkpt>
      <trkpt lat="47.56716" lon="6.80193">
        <ele>389</ele>
        <time>2016-12-04T09:09:21.000Z</time>
      </trkpt>
      <trkpt lat="47.56719" lon="6.80195">
        <ele>389</ele>
        <time>2016-12-04T09:09:22.000Z</time>
      </trkpt>
      <trkpt lat="47.56721" lon="6.80197">
        <ele>389</ele>
        <time>2016-12-04T09:09:24.000Z</time>
      </trkpt>
      <trkpt lat="47.56723" lon="6.80199">
        <ele>389</ele>
        <time>2016-12-04T09:09:25.000Z</time>
      </trkpt>
      <trkpt lat="47.56726" lon="6.80202">
        <ele>389</ele>
        <time>2016-12-04T09:09:27.000Z</time>
      </trkpt>
      <trkpt lat="47.56727" lon="6.80203">
        <ele>389</ele>
        <time>2016-12-04T09:09:28.000Z</time>
      </trkpt>
      <trkpt lat="47.5673" lon="6.80206">
        <ele>389</ele>
        <time>2016-12-04T09:09:30.000Z</time>
      </trkpt>
      <trkpt lat="47.56733" lon="6.80208">
        <ele>389</ele>
        <time>2016-12-04T09:09:31.000Z</time>
      </trkpt>
      <trkpt lat="47.56735" lon="6.8021">
        <ele>390</ele>
        <time>2016-12-04T09:09:32.000Z</time>
      </trkpt>
      <trkpt lat="47.56737" lon="6.80211">
        <ele>390</ele>
        <time>2016-12-04T09:09:33.000Z</time>
      </trkpt>
      <trkpt lat="47.56739" lon="6.80215">
        <ele>390</ele>
        <time>2016-12-04T09:09:35.000Z</time>
      </trkpt>
      <trkpt lat="47.56741" lon="6.80217">
        <ele>390</ele>
        <time>2016-12-04T09:09:36.000Z</time>
      </trkpt>
      <trkpt lat="47.56744" lon="6.80221">
        <ele>390</ele>
        <time>2016-12-04T09:09:38.000Z</time>
      </trkpt>
      <trkpt lat="47.56746" lon="6.80223">
        <ele>390</ele>
        <time>2016-12-04T09:09:39.000Z</time>
      </trkpt>
      <trkpt lat="47.56748" lon="6.80225">
        <ele>390</ele>
        <time>2016-12-04T09:09:41.000Z</time>
      </trkpt>
      <trkpt lat="47.5675" lon="6.80227">
        <ele>391</ele>
        <time>2016-12-04T09:09:42.000Z</time>
      </trkpt>
      <trkpt lat="47.56753" lon="6.80231">
        <ele>395</ele>
        <time>2016-12-04T09:09:44.000Z</time>
      </trkpt>
      <trkpt lat="47.56754" lon="6.80232">
        <ele>395</ele>
        <time>2016-12-04T09:09:45.000Z</time>
      </trkpt>
      <trkpt lat="47.56755" lon="6.80235">
        <ele>395</ele>
        <time>2016-12-04T09:09:47.000Z</time>
      </trkpt>
      <trkpt lat="47.56757" lon="6.80237">
        <ele>395</ele>
        <time>2016-12-04T09:09:48.000Z</time>
      </trkpt>
      <trkpt lat="47.5676" lon="6.8024">
        <ele>395</ele>
        <time>2016-12-04T09:09:50.000Z</time>
      </trkpt>
      <trkpt lat="47.56762" lon="6.80242">
        <ele>395</ele>
        <time>2016-12-04T09:09:51.000Z</time>
      </trkpt>
      <trkpt lat="47.56765" lon="6.80244">
        <ele>395</ele>
        <time>2016-12-04T09:09:53.000Z</time>
      </trkpt>
      <trkpt lat="47.56766" lon="6.80246">
        <ele>395</ele>
        <time>2016-12-04T09:09:54.000Z</time>
      </trkpt>
      <trkpt lat="47.5677" lon="6.80249">
        <ele>395</ele>
        <time>2016-12-04T09:09:56.000Z</time>
      </trkpt>
      <trkpt lat="47.56772" lon="6.80251">
        <ele>396</ele>
        <time>2016-12-04T09:09:57.000Z</time>
      </trkpt>
      <trkpt lat="47.56775" lon="6.80254">
        <ele>397</ele>
        <time>2016-12-04T09:09:59.000Z</time>
      </trkpt>
      <trkpt lat="47.56776" lon="6.80255">
        <ele>397</ele>
        <time>2016-12-04T09:10:00.000Z</time>
      </trkpt>
      <trkpt lat="47.5678" lon="6.80258">
        <ele>397</ele>
        <time>2016-12-04T09:10:02.000Z</time>
      </trkpt>
      <trkpt lat="47.56781" lon="6.8026">
        <ele>397</ele>
        <time>2016-12-04T09:10:03.000Z</time>
      </trkpt>
      <trkpt lat="47.56785" lon="6.80263">
        <ele>397</ele>
        <time>2016-12-04T09:10:05.000Z</time>
      </trkpt>
      <trkpt lat="47.56786" lon="6.80264">
        <ele>398</ele>
        <time>2016-12-04T09:10:06.000Z</time>
      </trkpt>
      <trkpt lat="47.5679" lon="6.80267">
        <ele>398</ele>
        <time>2016-12-04T09:10:08.000Z</time>
      </trkpt>
      <trkpt lat="47.56791" lon="6.80269">
        <ele>398</ele>
        <time>2016-12-04T09:10:09.000Z</time>
      </trkpt>
      <trkpt lat="47.56795" lon="6.80271">
        <ele>398</ele>
        <time>2016-12-04T09:10:11.000Z</time>
      </trkpt>
      <trkpt lat="47.56796" lon="6.80272">
        <ele>398</ele>
        <time>2016-12-04T09:10:12.000Z</time>
      </trkpt>
      <trkpt lat="47.568" lon="6.80273">
        <ele>399</ele>
        <time>2016-12-04T09:10:14.000Z</time>
      </trkpt>
      <trkpt lat="47.56801" lon="6.80273">
        <ele>399</ele>
        <time>2016-12-04T09:10:15.000Z</time>
      </trkpt>
      <trkpt lat="47.56805" lon="6.80276">
        <ele>399</ele>
        <time>2016-12-04T09:10:17.000Z</time>
      </trkpt>
      <trkpt lat="47.56806" lon="6.80277">
        <ele>399</ele>
        <time>2016-12-04T09:10:18.000Z</time>
      </trkpt>
      <trkpt lat="47.56809" lon="6.80279">
        <ele>399</ele>
        <time>2016-12-04T09:10:20.000Z</time>
      </trkpt>
      <trkpt lat="47.56811" lon="6.8028">
        <ele>399</ele>
        <time>2016-12-04T09:10:21.000Z</time>
      </trkpt>
      <trkpt lat="47.56812" lon="6.80282">
        <ele>399</ele>
        <time>2016-12-04T09:10:22.000Z</time>
      </trkpt>
      <trkpt lat="47.56815" lon="6.80284">
        <ele>399</ele>
        <time>2016-12-04T09:10:23.000Z</time>
      </trkpt>
      <trkpt lat="47.56818" lon="6.80287">
        <ele>399</ele>
        <time>2016-12-04T09:10:25.000Z</time>
      </trkpt>
      <trkpt lat="47.5682" lon="6.80288">
        <ele>399</ele>
        <time>2016-12-04T09:10:26.000Z</time>
      </trkpt>
      <trkpt lat="47.56824" lon="6.80289">
        <ele>400</ele>
        <time>2016-12-04T09:10:28.000Z</time>
      </trkpt>
      <trkpt lat="47.56826" lon="6.8029">
        <ele>400</ele>
        <time>2016-12-04T09:10:29.000Z</time>
      </trkpt>
      <trkpt lat="47.56828" lon="6.80291">
        <ele>400</ele>
        <time>2016-12-04T09:10:30.000Z</time>
      </trkpt>
      <trkpt lat="47.5683" lon="6.80292">
        <ele>400</ele>
        <time>2016-12-04T09:10:31.000Z</time>
      </trkpt>
      <trkpt lat="47.56832" lon="6.80294">
        <ele>400</ele>
        <time>2016-12-04T09:10:33.000Z</time>
      </trkpt>
      <trkpt lat="47.56834" lon="6.80295">
        <ele>404</ele>
        <time>2016-12-04T09:10:34.000Z</time>
      </trkpt>
      <trkpt lat="47.56837" lon="6.80297">
        <ele>404</ele>
        <time>2016-12-04T09:10:36.000Z</time>
      </trkpt>
      <trkpt lat="47.56839" lon="6.80298">
        <ele>404</ele>
        <time>2016-12-04T09:10:37.000Z</time>
      </trkpt>
      <trkpt lat="47.56842" lon="6.803">
        <ele>404</ele>
        <time>2016-12-04T09:10:39.000Z</time>
      </trkpt>
      <trkpt lat="47.56844" lon="6.80301">
        <ele>404</ele>
        <time>2016-12-04T09:10:40.000Z</time>
      </trkpt>
      <trkpt lat="47.56848" lon="6.80303">
        <ele>404</ele>
        <time>2016-12-04T09:10:42.000Z</time>
      </trkpt>
      <trkpt lat="47.5685" lon="6.80304">
        <ele>404</ele>
        <time>2016-12-04T09:10:43.000Z</time>
      </trkpt>
      <trkpt lat="47.56854" lon="6.80307">
        <ele>404</ele>
        <time>2016-12-04T09:10:45.000Z</time>
      </trkpt>
      <trkpt lat="47.56856" lon="6.80307">
        <ele>405</ele>
        <time>2016-12-04T09:10:46.000Z</time>
      </trkpt>
      <trkpt lat="47.56859" lon="6.8031">
        <ele>405</ele>
        <time>2016-12-04T09:10:48.000Z</time>
      </trkpt>
      <trkpt lat="47.5686" lon="6.80311">
        <ele>405</ele>
        <time>2016-12-04T09:10:49.000Z</time>
      </trkpt>
      <trkpt lat="47.56864" lon="6.80313">
        <ele>405</ele>
        <time>2016-12-04T09:10:51.000Z</time>
      </trkpt>
      <trkpt lat="47.56866" lon="6.80315">
        <ele>405</ele>
        <time>2016-12-04T09:10:52.000Z</time>
      </trkpt>
      <trkpt lat="47.56869" lon="6.80317">
        <ele>405</ele>
        <time>2016-12-04T09:10:54.000Z</time>
      </trkpt>
      <trkpt lat="47.56871" lon="6.80318">
        <ele>405</ele>
        <time>2016-12-04T09:10:55.000Z</time>
      </trkpt>
      <trkpt lat="47.56874" lon="6.8032">
        <ele>405</ele>
        <time>2016-12-04T09:10:57.000Z</time>
      </trkpt>
      <trkpt lat="47.56876" lon="6.80321">
        <ele>405</ele>
        <time>2016-12-04T09:10:58.000Z</time>
      </trkpt>
      <trkpt lat="47.5688" lon="6.80322">
        <ele>406</ele>
        <time>2016-12-04T09:11:00.000Z</time>
      </trkpt>
      <trkpt lat="47.56882" lon="6.80323">
        <ele>406</ele>
        <time>2016-12-04T09:11:01.000Z</time>
      </trkpt>
      <trkpt lat="47.56885" lon="6.80324">
        <ele>406</ele>
        <time>2016-12-04T09:11:03.000Z</time>
      </trkpt>
      <trkpt lat="47.56887" lon="6.80324">
        <ele>406</ele>
        <time>2016-12-04T09:11:04.000Z</time>
      </trkpt>
      <trkpt lat="47.5689" lon="6.80325">
        <ele>406</ele>
        <time>2016-12-04T09:11:05.000Z</time>
      </trkpt>
      <trkpt lat="47.56892" lon="6.80326">
        <ele>406</ele>
        <time>2016-12-04T09:11:06.000Z</time>
      </trkpt>
      <trkpt lat="47.56896" lon="6.80327">
        <ele>407</ele>
        <time>2016-12-04T09:11:08.000Z</time>
      </trkpt>
      <trkpt lat="47.56898" lon="6.80327">
        <ele>407</ele>
        <time>2016-12-04T09:11:09.000Z</time>
      </trkpt>
      <trkpt lat="47.569" lon="6.80327">
        <ele>407</ele>
        <time>2016-12-04T09:11:10.000Z</time>
      </trkpt>
      <trkpt lat="47.56903" lon="6.80327">
        <ele>407</ele>
        <time>2016-12-04T09:11:11.000Z</time>
      </trkpt>
      <trkpt lat="47.56907" lon="6.80327">
        <ele>407</ele>
        <time>2016-12-04T09:11:13.000Z</time>
      </trkpt>
      <trkpt lat="47.56909" lon="6.80327">
        <ele>408</ele>
        <time>2016-12-04T09:11:14.000Z</time>
      </trkpt>
      <trkpt lat="47.56914" lon="6.80326">
        <ele>408</ele>
        <time>2016-12-04T09:11:16.000Z</time>
      </trkpt>
      <trkpt lat="47.56916" lon="6.80326">
        <ele>408</ele>
        <time>2016-12-04T09:11:17.000Z</time>
      </trkpt>
      <trkpt lat="47.5692" lon="6.80326">
        <ele>409</ele>
        <time>2016-12-04T09:11:19.000Z</time>
      </trkpt>
      <trkpt lat="47.56922" lon="6.80327">
        <ele>409</ele>
        <time>2016-12-04T09:11:20.000Z</time>
      </trkpt>
      <trkpt lat="47.56926" lon="6.80328">
        <ele>409</ele>
        <time>2016-12-04T09:11:22.000Z</time>
      </trkpt>
      <trkpt lat="47.56928" lon="6.80328">
        <ele>409</ele>
        <time>2016-12-04T09:11:23.000Z</time>
      </trkpt>
      <trkpt lat="47.56933" lon="6.80328">
        <ele>409</ele>
        <time>2016-12-04T09:11:25.000Z</time>
      </trkpt>
      <trkpt lat="47.56934" lon="6.80329">
        <ele>409</ele>
        <time>2016-12-04T09:11:26.000Z</time>
      </trkpt>
      <trkpt lat="47.56939" lon="6.80328">
        <ele>409</ele>
        <time>2016-12-04T09:11:28.000Z</time>
      </trkpt>
      <trkpt lat="47.56941" lon="6.80328">
        <ele>409</ele>
        <time>2016-12-04T09:11:29.000Z</time>
      </trkpt>
      <trkpt lat="47.56943" lon="6.80328">
        <ele>409</ele>
        <time>2016-12-04T09:11:30.000Z</time>
      </trkpt>
      <trkpt lat="47.56946" lon="6.80328">
        <ele>410</ele>
        <time>2016-12-04T09:11:31.000Z</time>
      </trkpt>
      <trkpt lat="47.56949" lon="6.80328">
        <ele>410</ele>
        <time>2016-12-04T09:11:32.000Z</time>
      </trkpt>
      <trkpt lat="47.56951" lon="6.80328">
        <ele>410</ele>
        <time>2016-12-04T09:11:33.000Z</time>
      </trkpt>
      <trkpt lat="47.56954" lon="6.80328">
        <ele>410</ele>
        <time>2016-12-04T09:11:34.000Z</time>
      </trkpt>
      <trkpt lat="47.56957" lon="6.80328">
        <ele>410</ele>
        <time>2016-12-04T09:11:35.000Z</time>
      </trkpt>
      <trkpt lat="47.5696" lon="6.80328">
        <ele>410</ele>
        <time>2016-12-04T09:11:36.000Z</time>
      </trkpt>
      <trkpt lat="47.56963" lon="6.80328">
        <ele>410</ele>
        <time>2016-12-04T09:11:37.000Z</time>
      </trkpt>
      <trkpt lat="47.56966" lon="6.80328">
        <ele>410</ele>
        <time>2016-12-04T09:11:38.000Z</time>
      </trkpt>
      <trkpt lat="47.56969" lon="6.80329">
        <ele>410</ele>
        <time>2016-12-04T09:11:39.000Z</time>
      </trkpt>
      <trkpt lat="47.56972" lon="6.80329">
        <ele>410</ele>
        <time>2016-12-04T09:11:40.000Z</time>
      </trkpt>
      <trkpt lat="47.56976" lon="6.80329">
        <ele>411</ele>
        <time>2016-12-04T09:11:41.000Z</time>
      </trkpt>
      <trkpt lat="47.56979" lon="6.80329">
        <ele>411</ele>
        <time>2016-12-04T09:11:42.000Z</time>
      </trkpt>
      <trkpt lat="47.56982" lon="6.8033">
        <ele>411</ele>
        <time>2016-12-04T09:11:43.000Z</time>
      </trkpt>
      <trkpt lat="47.56985" lon="6.8033">
        <ele>411</ele>
        <time>2016-12-04T09:11:44.000Z</time>
      </trkpt>
      <trkpt lat="47.56989" lon="6.8033">
        <ele>412</ele>
        <time>2016-12-04T09:11:45.000Z</time>
      </trkpt>
      <trkpt lat="47.56993" lon="6.80331">
        <ele>412</ele>
        <time>2016-12-04T09:11:46.000Z</time>
      </trkpt>
      <trkpt lat="47.56996" lon="6.8033">
        <ele>412</ele>
        <time>2016-12-04T09:11:47.000Z</time>
      </trkpt>
      <trkpt lat="47.57" lon="6.80331">
        <ele>413</ele>
        <time>2016-12-04T09:11:48.000Z</time>
      </trkpt>
      <trkpt lat="47.57005" lon="6.80331">
        <ele>413</ele>
        <time>2016-12-04T09:11:49.000Z</time>
      </trkpt>
      <trkpt lat="47.57008" lon="6.8033">
        <ele>412</ele>
        <time>2016-12-04T09:11:50.000Z</time>
      </trkpt>
      <trkpt lat="47.57011" lon="6.80329">
        <ele>412</ele>
        <time>2016-12-04T09:11:51.000Z</time>
      </trkpt>
      <trkpt lat="47.57015" lon="6.80328">
        <ele>412</ele>
        <time>2016-12-04T09:11:52.000Z</time>
      </trkpt>
      <trkpt lat="47.57018" lon="6.80326">
        <ele>412</ele>
        <time>2016-12-04T09:11:53.000Z</time>
      </trkpt>
      <trkpt lat="47.57021" lon="6.80324">
        <ele>412</ele>
        <time>2016-12-04T09:11:54.000Z</time>
      </trkpt>
      <trkpt lat="47.57024" lon="6.80323">
        <ele>412</ele>
        <time>2016-12-04T09:11:55.000Z</time>
      </trkpt>
      <trkpt lat="47.57027" lon="6.80321">
        <ele>412</ele>
        <time>2016-12-04T09:11:56.000Z</time>
      </trkpt>
      <trkpt lat="47.5703" lon="6.80319">
        <ele>411</ele>
        <time>2016-12-04T09:11:57.000Z</time>
      </trkpt>
      <trkpt lat="47.57033" lon="6.80316">
        <ele>411</ele>
        <time>2016-12-04T09:11:58.000Z</time>
      </trkpt>
      <trkpt lat="47.57036" lon="6.80315">
        <ele>411</ele>
        <time>2016-12-04T09:11:59.000Z</time>
      </trkpt>
      <trkpt lat="47.57038" lon="6.80318">
        <ele>411</ele>
        <time>2016-12-04T09:12:00.000Z</time>
      </trkpt>
      <trkpt lat="47.57039" lon="6.80322">
        <ele>411</ele>
        <time>2016-12-04T09:12:01.000Z</time>
      </trkpt>
      <trkpt lat="47.57039" lon="6.80326">
        <ele>411</ele>
        <time>2016-12-04T09:12:02.000Z</time>
      </trkpt>
      <trkpt lat="47.57038" lon="6.80331">
        <ele>411</ele>
        <time>2016-12-04T09:12:03.000Z</time>
      </trkpt>
      <trkpt lat="47.57038" lon="6.80335">
        <ele>413</ele>
        <time>2016-12-04T09:12:04.000Z</time>
      </trkpt>
      <trkpt lat="47.57037" lon="6.80339">
        <ele>413</ele>
        <time>2016-12-04T09:12:05.000Z</time>
      </trkpt>
      <trkpt lat="47.57037" lon="6.80343">
        <ele>413</ele>
        <time>2016-12-04T09:12:06.000Z</time>
      </trkpt>
      <trkpt lat="47.57037" lon="6.80348">
        <ele>413</ele>
        <time>2016-12-04T09:12:07.000Z</time>
      </trkpt>
      <trkpt lat="47.57036" lon="6.80353">
        <ele>413</ele>
        <time>2016-12-04T09:12:09.000Z</time>
      </trkpt>
      <trkpt lat="47.57036" lon="6.80356">
        <ele>413</ele>
        <time>2016-12-04T09:12:10.000Z</time>
      </trkpt>
      <trkpt lat="47.57036" lon="6.8036">
        <ele>413</ele>
        <time>2016-12-04T09:12:11.000Z</time>
      </trkpt>
      <trkpt lat="47.57037" lon="6.80364">
        <ele>413</ele>
        <time>2016-12-04T09:12:12.000Z</time>
      </trkpt>
      <trkpt lat="47.57038" lon="6.80368">
        <ele>413</ele>
        <time>2016-12-04T09:12:13.000Z</time>
      </trkpt>
      <trkpt lat="47.57038" lon="6.80371">
        <ele>413</ele>
        <time>2016-12-04T09:12:14.000Z</time>
      </trkpt>
      <trkpt lat="47.57038" lon="6.80375">
        <ele>413</ele>
        <time>2016-12-04T09:12:15.000Z</time>
      </trkpt>
      <trkpt lat="47.57038" lon="6.80379">
        <ele>413</ele>
        <time>2016-12-04T09:12:16.000Z</time>
      </trkpt>
      <trkpt lat="47.57039" lon="6.80384">
        <ele>413</ele>
        <time>2016-12-04T09:12:17.000Z</time>
      </trkpt>
      <trkpt lat="47.5704" lon="6.80387">
        <ele>413</ele>
        <time>2016-12-04T09:12:18.000Z</time>
      </trkpt>
      <trkpt lat="47.57041" lon="6.80392">
        <ele>414</ele>
        <time>2016-12-04T09:12:19.000Z</time>
      </trkpt>
      <trkpt lat="47.57044" lon="6.80396">
        <ele>413</ele>
        <time>2016-12-04T09:12:20.000Z</time>
      </trkpt>
      <trkpt lat="47.57047" lon="6.80399">
        <ele>413</ele>
        <time>2016-12-04T09:12:21.000Z</time>
      </trkpt>
      <trkpt lat="47.57049" lon="6.80403">
        <ele>413</ele>
        <time>2016-12-04T09:12:22.000Z</time>
      </trkpt>
      <trkpt lat="47.57052" lon="6.80408">
        <ele>413</ele>
        <time>2016-12-04T09:12:23.000Z</time>
      </trkpt>
      <trkpt lat="47.57055" lon="6.80413">
        <ele>413</ele>
        <time>2016-12-04T09:12:24.000Z</time>
      </trkpt>
      <trkpt lat="47.57057" lon="6.80416">
        <ele>413</ele>
        <time>2016-12-04T09:12:25.000Z</time>
      </trkpt>
      <trkpt lat="47.5706" lon="6.8042">
        <ele>415</ele>
        <time>2016-12-04T09:12:26.000Z</time>
      </trkpt>
      <trkpt lat="47.57062" lon="6.80423">
        <ele>415</ele>
        <time>2016-12-04T09:12:27.000Z</time>
      </trkpt>
      <trkpt lat="47.57066" lon="6.80427">
        <ele>414</ele>
        <time>2016-12-04T09:12:28.000Z</time>
      </trkpt>
      <trkpt lat="47.57068" lon="6.80431">
        <ele>414</ele>
        <time>2016-12-04T09:12:29.000Z</time>
      </trkpt>
      <trkpt lat="47.57071" lon="6.80434">
        <ele>415</ele>
        <time>2016-12-04T09:12:30.000Z</time>
      </trkpt>
      <trkpt lat="47.57074" lon="6.80438">
        <ele>415</ele>
        <time>2016-12-04T09:12:31.000Z</time>
      </trkpt>
      <trkpt lat="47.57077" lon="6.80441">
        <ele>415</ele>
        <time>2016-12-04T09:12:32.000Z</time>
      </trkpt>
      <trkpt lat="47.5708" lon="6.80445">
        <ele>415</ele>
        <time>2016-12-04T09:12:33.000Z</time>
      </trkpt>
      <trkpt lat="47.57082" lon="6.80448">
        <ele>415</ele>
        <time>2016-12-04T09:12:34.000Z</time>
      </trkpt>
      <trkpt lat="47.57085" lon="6.80451">
        <ele>412</ele>
        <time>2016-12-04T09:12:35.000Z</time>
      </trkpt>
      <trkpt lat="47.57088" lon="6.80455">
        <ele>413</ele>
        <time>2016-12-04T09:12:36.000Z</time>
      </trkpt>
      <trkpt lat="47.57091" lon="6.80458">
        <ele>413</ele>
        <time>2016-12-04T09:12:37.000Z</time>
      </trkpt>
      <trkpt lat="47.57093" lon="6.80462">
        <ele>413</ele>
        <time>2016-12-04T09:12:38.000Z</time>
      </trkpt>
      <trkpt lat="47.57097" lon="6.80468">
        <ele>413</ele>
        <time>2016-12-04T09:12:39.000Z</time>
      </trkpt>
      <trkpt lat="47.57099" lon="6.80473">
        <ele>413</ele>
        <time>2016-12-04T09:12:40.000Z</time>
      </trkpt>
      <trkpt lat="47.57101" lon="6.80477">
        <ele>413</ele>
        <time>2016-12-04T09:12:41.000Z</time>
      </trkpt>
      <trkpt lat="47.57103" lon="6.8048">
        <ele>413</ele>
        <time>2016-12-04T09:12:42.000Z</time>
      </trkpt>
      <trkpt lat="47.57105" lon="6.80483">
        <ele>414</ele>
        <time>2016-12-04T09:12:43.000Z</time>
      </trkpt>
      <trkpt lat="47.57106" lon="6.80488">
        <ele>414</ele>
        <time>2016-12-04T09:12:44.000Z</time>
      </trkpt>
      <trkpt lat="47.57108" lon="6.80493">
        <ele>414</ele>
        <time>2016-12-04T09:12:45.000Z</time>
      </trkpt>
      <trkpt lat="47.57111" lon="6.80496">
        <ele>414</ele>
        <time>2016-12-04T09:12:46.000Z</time>
      </trkpt>
      <trkpt lat="47.57114" lon="6.80501">
        <ele>416</ele>
        <time>2016-12-04T09:12:47.000Z</time>
      </trkpt>
      <trkpt lat="47.57117" lon="6.80503">
        <ele>415</ele>
        <time>2016-12-04T09:12:48.000Z</time>
      </trkpt>
      <trkpt lat="47.57121" lon="6.80505">
        <ele>415</ele>
        <time>2016-12-04T09:12:49.000Z</time>
      </trkpt>
      <trkpt lat="47.57125" lon="6.80506">
        <ele>415</ele>
        <time>2016-12-04T09:12:50.000Z</time>
      </trkpt>
      <trkpt lat="47.57128" lon="6.80507">
        <ele>415</ele>
        <time>2016-12-04T09:12:51.000Z</time>
      </trkpt>
      <trkpt lat="47.57131" lon="6.8051">
        <ele>415</ele>
        <time>2016-12-04T09:12:52.000Z</time>
      </trkpt>
      <trkpt lat="47.57134" lon="6.80513">
        <ele>415</ele>
        <time>2016-12-04T09:12:53.000Z</time>
      </trkpt>
      <trkpt lat="47.57137" lon="6.80516">
        <ele>415</ele>
        <time>2016-12-04T09:12:54.000Z</time>
      </trkpt>
      <trkpt lat="47.5714" lon="6.80519">
        <ele>415</ele>
        <time>2016-12-04T09:12:55.000Z</time>
      </trkpt>
      <trkpt lat="47.57142" lon="6.80523">
        <ele>415</ele>
        <time>2016-12-04T09:12:56.000Z</time>
      </trkpt>
      <trkpt lat="47.57144" lon="6.80527">
        <ele>415</ele>
        <time>2016-12-04T09:12:57.000Z</time>
      </trkpt>
      <trkpt lat="47.57145" lon="6.80531">
        <ele>415</ele>
        <time>2016-12-04T09:12:58.000Z</time>
      </trkpt>
      <trkpt lat="47.57146" lon="6.80536">
        <ele>415</ele>
        <time>2016-12-04T09:12:59.000Z</time>
      </trkpt>
      <trkpt lat="47.57146" lon="6.80542">
        <ele>415</ele>
        <time>2016-12-04T09:13:00.000Z</time>
      </trkpt>
      <trkpt lat="47.57147" lon="6.80549">
        <ele>415</ele>
        <time>2016-12-04T09:13:01.000Z</time>
      </trkpt>
      <trkpt lat="47.57148" lon="6.80555">
        <ele>415</ele>
        <time>2016-12-04T09:13:02.000Z</time>
      </trkpt>
      <trkpt lat="47.57148" lon="6.80559">
        <ele>415</ele>
        <time>2016-12-04T09:13:03.000Z</time>
      </trkpt>
      <trkpt lat="47.57149" lon="6.80563">
        <ele>415</ele>
        <time>2016-12-04T09:13:04.000Z</time>
      </trkpt>
      <trkpt lat="47.5715" lon="6.80568">
        <ele>415</ele>
        <time>2016-12-04T09:13:05.000Z</time>
      </trkpt>
      <trkpt lat="47.57152" lon="6.80571">
        <ele>415</ele>
        <time>2016-12-04T09:13:06.000Z</time>
      </trkpt>
      <trkpt lat="47.57154" lon="6.80574">
        <ele>415</ele>
        <time>2016-12-04T09:13:07.000Z</time>
      </trkpt>
      <trkpt lat="47.57157" lon="6.80578">
        <ele>414</ele>
        <time>2016-12-04T09:13:08.000Z</time>
      </trkpt>
      <trkpt lat="47.57159" lon="6.80581">
        <ele>414</ele>
        <time>2016-12-04T09:13:09.000Z</time>
      </trkpt>
      <trkpt lat="47.57161" lon="6.80584">
        <ele>414</ele>
        <time>2016-12-04T09:13:10.000Z</time>
      </trkpt>
      <trkpt lat="47.57164" lon="6.80588">
        <ele>414</ele>
        <time>2016-12-04T09:13:11.000Z</time>
      </trkpt>
      <trkpt lat="47.57166" lon="6.80591">
        <ele>414</ele>
        <time>2016-12-04T09:13:12.000Z</time>
      </trkpt>
      <trkpt lat="47.57167" lon="6.80594">
        <ele>412</ele>
        <time>2016-12-04T09:13:13.000Z</time>
      </trkpt>
      <trkpt lat="47.57169" lon="6.80598">
        <ele>411</ele>
        <time>2016-12-04T09:13:14.000Z</time>
      </trkpt>
      <trkpt lat="47.5717" lon="6.80601">
        <ele>411</ele>
        <time>2016-12-04T09:13:15.000Z</time>
      </trkpt>
      <trkpt lat="47.57173" lon="6.80604">
        <ele>410</ele>
        <time>2016-12-04T09:13:16.000Z</time>
      </trkpt>
      <trkpt lat="47.57176" lon="6.80609">
        <ele>410</ele>
        <time>2016-12-04T09:13:17.000Z</time>
      </trkpt>
      <trkpt lat="47.57179" lon="6.80613">
        <ele>410</ele>
        <time>2016-12-04T09:13:18.000Z</time>
      </trkpt>
      <trkpt lat="47.57182" lon="6.80619">
        <ele>409</ele>
        <time>2016-12-04T09:13:19.000Z</time>
      </trkpt>
      <trkpt lat="47.57184" lon="6.80626">
        <ele>409</ele>
        <time>2016-12-04T09:13:20.000Z</time>
      </trkpt>
      <trkpt lat="47.57187" lon="6.80632">
        <ele>409</ele>
        <time>2016-12-04T09:13:21.000Z</time>
      </trkpt>
      <trkpt lat="47.57189" lon="6.80636">
        <ele>409</ele>
        <time>2016-12-04T09:13:22.000Z</time>
      </trkpt>
      <trkpt lat="47.57192" lon="6.8064">
        <ele>409</ele>
        <time>2016-12-04T09:13:23.000Z</time>
      </trkpt>
      <trkpt lat="47.57194" lon="6.80643">
        <ele>408</ele>
        <time>2016-12-04T09:13:24.000Z</time>
      </trkpt>
      <trkpt lat="47.57198" lon="6.80648">
        <ele>408</ele>
        <time>2016-12-04T09:13:25.000Z</time>
      </trkpt>
      <trkpt lat="47.57201" lon="6.80652">
        <ele>408</ele>
        <time>2016-12-04T09:13:26.000Z</time>
      </trkpt>
      <trkpt lat="47.57204" lon="6.80657">
        <ele>408</ele>
        <time>2016-12-04T09:13:27.000Z</time>
      </trkpt>
      <trkpt lat="47.57206" lon="6.80663">
        <ele>408</ele>
        <time>2016-12-04T09:13:28.000Z</time>
      </trkpt>
      <trkpt lat="47.57209" lon="6.8067">
        <ele>407</ele>
        <time>2016-12-04T09:13:29.000Z</time>
      </trkpt>
      <trkpt lat="47.57212" lon="6.80674">
        <ele>407</ele>
        <time>2016-12-04T09:13:30.000Z</time>
      </trkpt>
      <trkpt lat="47.57216" lon="6.80677">
        <ele>407</ele>
        <time>2016-12-04T09:13:31.000Z</time>
      </trkpt>
      <trkpt lat="47.57219" lon="6.80681">
        <ele>406</ele>
        <time>2016-12-04T09:13:32.000Z</time>
      </trkpt>
      <trkpt lat="47.57221" lon="6.80684">
        <ele>406</ele>
        <time>2016-12-04T09:13:33.000Z</time>
      </trkpt>
      <trkpt lat="47.57223" lon="6.80689">
        <ele>406</ele>
        <time>2016-12-04T09:13:34.000Z</time>
      </trkpt>
      <trkpt lat="47.57225" lon="6.80692">
        <ele>406</ele>
        <time>2016-12-04T09:13:35.000Z</time>
      </trkpt>
      <trkpt lat="47.57227" lon="6.80696">
        <ele>406</ele>
        <time>2016-12-04T09:13:36.000Z</time>
      </trkpt>
      <trkpt lat="47.57229" lon="6.80701">
        <ele>406</ele>
        <time>2016-12-04T09:13:37.000Z</time>
      </trkpt>
      <trkpt lat="47.57231" lon="6.80706">
        <ele>406</ele>
        <time>2016-12-04T09:13:38.000Z</time>
      </trkpt>
      <trkpt lat="47.57235" lon="6.80709">
        <ele>406</ele>
        <time>2016-12-04T09:13:39.000Z</time>
      </trkpt>
      <trkpt lat="47.57239" lon="6.80713">
        <ele>406</ele>
        <time>2016-12-04T09:13:40.000Z</time>
      </trkpt>
      <trkpt lat="47.57242" lon="6.80718">
        <ele>406</ele>
        <time>2016-12-04T09:13:41.000Z</time>
      </trkpt>
      <trkpt lat="47.57246" lon="6.80723">
        <ele>405</ele>
        <time>2016-12-04T09:13:42.000Z</time>
      </trkpt>
      <trkpt lat="47.57249" lon="6.80728">
        <ele>405</ele>
        <time>2016-12-04T09:13:43.000Z</time>
      </trkpt>
      <trkpt lat="47.57252" lon="6.80737">
        <ele>403</ele>
        <time>2016-12-04T09:13:44.000Z</time>
      </trkpt>
      <trkpt lat="47.57255" lon="6.80743">
        <ele>403</ele>
        <time>2016-12-04T09:13:45.000Z</time>
      </trkpt>
      <trkpt lat="47.57259" lon="6.80752">
        <ele>402</ele>
        <time>2016-12-04T09:13:46.000Z</time>
      </trkpt>
      <trkpt lat="47.57263" lon="6.80761">
        <ele>401</ele>
        <time>2016-12-04T09:13:47.000Z</time>
      </trkpt>
      <trkpt lat="47.57266" lon="6.8077">
        <ele>401</ele>
        <time>2016-12-04T09:13:48.000Z</time>
      </trkpt>
      <trkpt lat="47.57269" lon="6.80779">
        <ele>400</ele>
        <time>2016-12-04T09:13:49.000Z</time>
      </trkpt>
      <trkpt lat="47.57272" lon="6.80788">
        <ele>400</ele>
        <time>2016-12-04T09:13:50.000Z</time>
      </trkpt>
      <trkpt lat="47.57273" lon="6.80798">
        <ele>400</ele>
        <time>2016-12-04T09:13:51.000Z</time>
      </trkpt>
      <trkpt lat="47.57273" lon="6.80807">
        <ele>399</ele>
        <time>2016-12-04T09:13:52.000Z</time>
      </trkpt>
      <trkpt lat="47.57275" lon="6.80814">
        <ele>399</ele>
        <time>2016-12-04T09:13:53.000Z</time>
      </trkpt>
      <trkpt lat="47.57276" lon="6.80822">
        <ele>399</ele>
        <time>2016-12-04T09:13:54.000Z</time>
      </trkpt>
      <trkpt lat="47.57277" lon="6.80828">
        <ele>399</ele>
        <time>2016-12-04T09:13:55.000Z</time>
      </trkpt>
      <trkpt lat="47.5728" lon="6.80834">
        <ele>396</ele>
        <time>2016-12-04T09:13:56.000Z</time>
      </trkpt>
      <trkpt lat="47.57284" lon="6.80842">
        <ele>396</ele>
        <time>2016-12-04T09:13:57.000Z</time>
      </trkpt>
      <trkpt lat="47.57288" lon="6.80851">
        <ele>396</ele>
        <time>2016-12-04T09:13:58.000Z</time>
      </trkpt>
      <trkpt lat="47.57293" lon="6.80859">
        <ele>395</ele>
        <time>2016-12-04T09:13:59.000Z</time>
      </trkpt>
      <trkpt lat="47.57297" lon="6.80867">
        <ele>395</ele>
        <time>2016-12-04T09:14:00.000Z</time>
      </trkpt>
      <trkpt lat="47.57302" lon="6.80876">
        <ele>395</ele>
        <time>2016-12-04T09:14:01.000Z</time>
      </trkpt>
      <trkpt lat="47.57306" lon="6.80887">
        <ele>395</ele>
        <time>2016-12-04T09:14:02.000Z</time>
      </trkpt>
      <trkpt lat="47.57311" lon="6.80896">
        <ele>394</ele>
        <time>2016-12-04T09:14:03.000Z</time>
      </trkpt>
      <trkpt lat="47.57315" lon="6.80903">
        <ele>394</ele>
        <time>2016-12-04T09:14:04.000Z</time>
      </trkpt>
      <trkpt lat="47.57319" lon="6.8091">
        <ele>393</ele>
        <time>2016-12-04T09:14:05.000Z</time>
      </trkpt>
      <trkpt lat="47.57324" lon="6.80917">
        <ele>392</ele>
        <time>2016-12-04T09:14:06.000Z</time>
      </trkpt>
      <trkpt lat="47.57328" lon="6.80924">
        <ele>392</ele>
        <time>2016-12-04T09:14:07.000Z</time>
      </trkpt>
      <trkpt lat="47.5733" lon="6.80933">
        <ele>392</ele>
        <time>2016-12-04T09:14:08.000Z</time>
      </trkpt>
      <trkpt lat="47.57332" lon="6.80942">
        <ele>392</ele>
        <time>2016-12-04T09:14:09.000Z</time>
      </trkpt>
      <trkpt lat="47.57332" lon="6.80948">
        <ele>392</ele>
        <time>2016-12-04T09:14:10.000Z</time>
      </trkpt>
      <trkpt lat="47.57332" lon="6.80952">
        <ele>392</ele>
        <time>2016-12-04T09:14:11.000Z</time>
      </trkpt>
      <trkpt lat="47.57332" lon="6.80958">
        <ele>392</ele>
        <time>2016-12-04T09:14:12.000Z</time>
      </trkpt>
      <trkpt lat="47.57334" lon="6.80962">
        <ele>394</ele>
        <time>2016-12-04T09:14:13.000Z</time>
      </trkpt>
      <trkpt lat="47.57336" lon="6.80965">
        <ele>394</ele>
        <time>2016-12-04T09:14:15.000Z</time>
      </trkpt>
      <trkpt lat="47.57338" lon="6.80967">
        <ele>394</ele>
        <time>2016-12-04T09:14:16.000Z</time>
      </trkpt>
      <trkpt lat="47.5734" lon="6.80971">
        <ele>394</ele>
        <time>2016-12-04T09:14:17.000Z</time>
      </trkpt>
      <trkpt lat="47.57341" lon="6.80973">
        <ele>394</ele>
        <time>2016-12-04T09:14:18.000Z</time>
      </trkpt>
      <trkpt lat="47.57345" lon="6.80975">
        <ele>394</ele>
        <time>2016-12-04T09:14:20.000Z</time>
      </trkpt>
      <trkpt lat="47.57346" lon="6.80974">
        <ele>394</ele>
        <time>2016-12-04T09:14:21.000Z</time>
      </trkpt>
      <trkpt lat="47.57348" lon="6.80971">
        <ele>394</ele>
        <time>2016-12-04T09:14:22.000Z</time>
      </trkpt>
      <trkpt lat="47.5735" lon="6.80968">
        <ele>394</ele>
        <time>2016-12-04T09:14:23.000Z</time>
      </trkpt>
      <trkpt lat="47.5735" lon="6.80965">
        <ele>394</ele>
        <time>2016-12-04T09:14:24.000Z</time>
      </trkpt>
      <trkpt lat="47.57352" lon="6.80961">
        <ele>394</ele>
        <time>2016-12-04T09:14:25.000Z</time>
      </trkpt>
      <trkpt lat="47.57353" lon="6.80957">
        <ele>395</ele>
        <time>2016-12-04T09:14:26.000Z</time>
      </trkpt>
      <trkpt lat="47.57354" lon="6.80954">
        <ele>395</ele>
        <time>2016-12-04T09:14:27.000Z</time>
      </trkpt>
      <trkpt lat="47.57357" lon="6.8095">
        <ele>395</ele>
        <time>2016-12-04T09:14:29.000Z</time>
      </trkpt>
      <trkpt lat="47.5736" lon="6.80947">
        <ele>395</ele>
        <time>2016-12-04T09:14:30.000Z</time>
      </trkpt>
      <trkpt lat="47.57362" lon="6.80945">
        <ele>395</ele>
        <time>2016-12-04T09:14:31.000Z</time>
      </trkpt>
      <trkpt lat="47.57364" lon="6.80942">
        <ele>395</ele>
        <time>2016-12-04T09:14:32.000Z</time>
      </trkpt>
      <trkpt lat="47.57366" lon="6.8094">
        <ele>395</ele>
        <time>2016-12-04T09:14:33.000Z</time>
      </trkpt>
      <trkpt lat="47.57367" lon="6.80937">
        <ele>395</ele>
        <time>2016-12-04T09:14:34.000Z</time>
      </trkpt>
      <trkpt lat="47.5737" lon="6.80933">
        <ele>395</ele>
        <time>2016-12-04T09:14:36.000Z</time>
      </trkpt>
      <trkpt lat="47.57371" lon="6.80931">
        <ele>396</ele>
        <time>2016-12-04T09:14:37.000Z</time>
      </trkpt>
      <trkpt lat="47.57373" lon="6.80926">
        <ele>396</ele>
        <time>2016-12-04T09:14:39.000Z</time>
      </trkpt>
      <trkpt lat="47.57374" lon="6.80924">
        <ele>396</ele>
        <time>2016-12-04T09:14:40.000Z</time>
      </trkpt>
      <trkpt lat="47.57376" lon="6.80922">
        <ele>396</ele>
        <time>2016-12-04T09:14:41.000Z</time>
      </trkpt>
      <trkpt lat="47.57378" lon="6.80919">
        <ele>396</ele>
        <time>2016-12-04T09:14:42.000Z</time>
      </trkpt>
      <trkpt lat="47.5738" lon="6.80916">
        <ele>397</ele>
        <time>2016-12-04T09:14:43.000Z</time>
      </trkpt>
      <trkpt lat="47.57382" lon="6.80912">
        <ele>397</ele>
        <time>2016-12-04T09:14:44.000Z</time>
      </trkpt>
      <trkpt lat="47.57384" lon="6.80909">
        <ele>397</ele>
        <time>2016-12-04T09:14:45.000Z</time>
      </trkpt>
      <trkpt lat="47.57385" lon="6.80907">
        <ele>397</ele>
        <time>2016-12-04T09:14:46.000Z</time>
      </trkpt>
      <trkpt lat="47.57387" lon="6.80902">
        <ele>397</ele>
        <time>2016-12-04T09:14:49.000Z</time>
      </trkpt>
      <trkpt lat="47.57388" lon="6.809">
        <ele>397</ele>
        <time>2016-12-04T09:14:50.000Z</time>
      </trkpt>
      <trkpt lat="47.5739" lon="6.80897">
        <ele>398</ele>
        <time>2016-12-04T09:14:51.000Z</time>
      </trkpt>
      <trkpt lat="47.57392" lon="6.80894">
        <ele>398</ele>
        <time>2016-12-04T09:14:52.000Z</time>
      </trkpt>
      <trkpt lat="47.57394" lon="6.80891">
        <ele>398</ele>
        <time>2016-12-04T09:14:53.000Z</time>
      </trkpt>
      <trkpt lat="47.57396" lon="6.80887">
        <ele>398</ele>
        <time>2016-12-04T09:14:54.000Z</time>
      </trkpt>
      <trkpt lat="47.57399" lon="6.80885">
        <ele>398</ele>
        <time>2016-12-04T09:14:55.000Z</time>
      </trkpt>
      <trkpt lat="47.574" lon="6.80883">
        <ele>398</ele>
        <time>2016-12-04T09:14:56.000Z</time>
      </trkpt>
      <trkpt lat="47.57402" lon="6.80879">
        <ele>398</ele>
        <time>2016-12-04T09:14:58.000Z</time>
      </trkpt>
      <trkpt lat="47.57402" lon="6.80877">
        <ele>398</ele>
        <time>2016-12-04T09:14:59.000Z</time>
      </trkpt>
      <trkpt lat="47.57404" lon="6.80874">
        <ele>398</ele>
        <time>2016-12-04T09:15:00.000Z</time>
      </trkpt>
      <trkpt lat="47.57406" lon="6.80872">
        <ele>398</ele>
        <time>2016-12-04T09:15:01.000Z</time>
      </trkpt>
      <trkpt lat="47.57409" lon="6.80869">
        <ele>398</ele>
        <time>2016-12-04T09:15:02.000Z</time>
      </trkpt>
      <trkpt lat="47.57411" lon="6.80866">
        <ele>398</ele>
        <time>2016-12-04T09:15:03.000Z</time>
      </trkpt>
      <trkpt lat="47.57413" lon="6.80863">
        <ele>398</ele>
        <time>2016-12-04T09:15:04.000Z</time>
      </trkpt>
      <trkpt lat="47.57415" lon="6.8086">
        <ele>398</ele>
        <time>2016-12-04T09:15:05.000Z</time>
      </trkpt>
      <trkpt lat="47.57417" lon="6.80857">
        <ele>403</ele>
        <time>2016-12-04T09:15:06.000Z</time>
      </trkpt>
      <trkpt lat="47.57418" lon="6.80854">
        <ele>403</ele>
        <time>2016-12-04T09:15:07.000Z</time>
      </trkpt>
      <trkpt lat="47.5742" lon="6.8085">
        <ele>403</ele>
        <time>2016-12-04T09:15:08.000Z</time>
      </trkpt>
      <trkpt lat="47.57422" lon="6.80847">
        <ele>403</ele>
        <time>2016-12-04T09:15:09.000Z</time>
      </trkpt>
      <trkpt lat="47.57424" lon="6.80842">
        <ele>402</ele>
        <time>2016-12-04T09:15:11.000Z</time>
      </trkpt>
      <trkpt lat="47.57426" lon="6.8084">
        <ele>402</ele>
        <time>2016-12-04T09:15:12.000Z</time>
      </trkpt>
      <trkpt lat="47.57428" lon="6.80834">
        <ele>402</ele>
        <time>2016-12-04T09:15:14.000Z</time>
      </trkpt>
      <trkpt lat="47.5743" lon="6.80831">
        <ele>404</ele>
        <time>2016-12-04T09:15:15.000Z</time>
      </trkpt>
      <trkpt lat="47.57432" lon="6.80827">
        <ele>404</ele>
        <time>2016-12-04T09:15:16.000Z</time>
      </trkpt>
      <trkpt lat="47.57433" lon="6.80824">
        <ele>405</ele>
        <time>2016-12-04T09:15:17.000Z</time>
      </trkpt>
      <trkpt lat="47.57435" lon="6.80819">
        <ele>405</ele>
        <time>2016-12-04T09:15:19.000Z</time>
      </trkpt>
      <trkpt lat="47.57435" lon="6.80817">
        <ele>405</ele>
        <time>2016-12-04T09:15:20.000Z</time>
      </trkpt>
      <trkpt lat="47.57436" lon="6.80813">
        <ele>406</ele>
        <time>2016-12-04T09:15:21.000Z</time>
      </trkpt>
      <trkpt lat="47.57436" lon="6.80809">
        <ele>406</ele>
        <time>2016-12-04T09:15:22.000Z</time>
      </trkpt>
      <trkpt lat="47.57437" lon="6.80805">
        <ele>406</ele>
        <time>2016-12-04T09:15:23.000Z</time>
      </trkpt>
      <trkpt lat="47.57437" lon="6.80801">
        <ele>407</ele>
        <time>2016-12-04T09:15:24.000Z</time>
      </trkpt>
      <trkpt lat="47.57438" lon="6.80797">
        <ele>407</ele>
        <time>2016-12-04T09:15:25.000Z</time>
      </trkpt>
      <trkpt lat="47.57438" lon="6.80793">
        <ele>407</ele>
        <time>2016-12-04T09:15:26.000Z</time>
      </trkpt>
      <trkpt lat="47.57438" lon="6.80789">
        <ele>407</ele>
        <time>2016-12-04T09:15:27.000Z</time>
      </trkpt>
      <trkpt lat="47.57439" lon="6.80785">
        <ele>407</ele>
        <time>2016-12-04T09:15:28.000Z</time>
      </trkpt>
      <trkpt lat="47.57438" lon="6.80779">
        <ele>407</ele>
        <time>2016-12-04T09:15:30.000Z</time>
      </trkpt>
      <trkpt lat="47.57438" lon="6.80775">
        <ele>407</ele>
        <time>2016-12-04T09:15:31.000Z</time>
      </trkpt>
      <trkpt lat="47.57437" lon="6.80771">
        <ele>407</ele>
        <time>2016-12-04T09:15:32.000Z</time>
      </trkpt>
      <trkpt lat="47.57436" lon="6.80767">
        <ele>407</ele>
        <time>2016-12-04T09:15:33.000Z</time>
      </trkpt>
      <trkpt lat="47.57436" lon="6.80763">
        <ele>407</ele>
        <time>2016-12-04T09:15:34.000Z</time>
      </trkpt>
      <trkpt lat="47.57437" lon="6.8076">
        <ele>407</ele>
        <time>2016-12-04T09:15:35.000Z</time>
      </trkpt>
      <trkpt lat="47.57437" lon="6.80757">
        <ele>407</ele>
        <time>2016-12-04T09:15:36.000Z</time>
      </trkpt>
      <trkpt lat="47.57436" lon="6.80753">
        <ele>407</ele>
        <time>2016-12-04T09:15:37.000Z</time>
      </trkpt>
      <trkpt lat="47.57436" lon="6.8075">
        <ele>409</ele>
        <time>2016-12-04T09:15:38.000Z</time>
      </trkpt>
      <trkpt lat="47.57436" lon="6.80745">
        <ele>409</ele>
        <time>2016-12-04T09:15:39.000Z</time>
      </trkpt>
      <trkpt lat="47.57435" lon="6.80741">
        <ele>409</ele>
        <time>2016-12-04T09:15:40.000Z</time>
      </trkpt>
      <trkpt lat="47.57435" lon="6.80737">
        <ele>410</ele>
        <time>2016-12-04T09:15:41.000Z</time>
      </trkpt>
      <trkpt lat="47.57435" lon="6.80732">
        <ele>410</ele>
        <time>2016-12-04T09:15:42.000Z</time>
      </trkpt>
      <trkpt lat="47.57435" lon="6.80727">
        <ele>410</ele>
        <time>2016-12-04T09:15:43.000Z</time>
      </trkpt>
      <trkpt lat="47.57435" lon="6.80721">
        <ele>410</ele>
        <time>2016-12-04T09:15:44.000Z</time>
      </trkpt>
      <trkpt lat="47.57434" lon="6.80715">
        <ele>411</ele>
        <time>2016-12-04T09:15:45.000Z</time>
      </trkpt>
      <trkpt lat="47.57434" lon="6.80712">
        <ele>411</ele>
        <time>2016-12-04T09:15:46.000Z</time>
      </trkpt>
      <trkpt lat="47.57433" lon="6.80708">
        <ele>411</ele>
        <time>2016-12-04T09:15:47.000Z</time>
      </trkpt>
      <trkpt lat="47.57432" lon="6.80703">
        <ele>411</ele>
        <time>2016-12-04T09:15:48.000Z</time>
      </trkpt>
      <trkpt lat="47.57432" lon="6.80698">
        <ele>411</ele>
        <time>2016-12-04T09:15:49.000Z</time>
      </trkpt>
      <trkpt lat="47.57431" lon="6.80694">
        <ele>411</ele>
        <time>2016-12-04T09:15:50.000Z</time>
      </trkpt>
      <trkpt lat="47.57431" lon="6.8069">
        <ele>412</ele>
        <time>2016-12-04T09:15:51.000Z</time>
      </trkpt>
      <trkpt lat="47.57431" lon="6.80685">
        <ele>412</ele>
        <time>2016-12-04T09:15:52.000Z</time>
      </trkpt>
      <trkpt lat="47.57431" lon="6.8068">
        <ele>412</ele>
        <time>2016-12-04T09:15:53.000Z</time>
      </trkpt>
      <trkpt lat="47.57431" lon="6.80676">
        <ele>412</ele>
        <time>2016-12-04T09:15:54.000Z</time>
      </trkpt>
      <trkpt lat="47.57432" lon="6.80672">
        <ele>412</ele>
        <time>2016-12-04T09:15:55.000Z</time>
      </trkpt>
      <trkpt lat="47.57432" lon="6.80668">
        <ele>412</ele>
        <time>2016-12-04T09:15:56.000Z</time>
      </trkpt>
      <trkpt lat="47.57433" lon="6.80664">
        <ele>413</ele>
        <time>2016-12-04T09:15:57.000Z</time>
      </trkpt>
      <trkpt lat="47.57435" lon="6.80659">
        <ele>413</ele>
        <time>2016-12-04T09:15:58.000Z</time>
      </trkpt>
      <trkpt lat="47.57436" lon="6.80655">
        <ele>413</ele>
        <time>2016-12-04T09:15:59.000Z</time>
      </trkpt>
      <trkpt lat="47.57438" lon="6.8065">
        <ele>413</ele>
        <time>2016-12-04T09:16:00.000Z</time>
      </trkpt>
      <trkpt lat="47.57439" lon="6.80645">
        <ele>413</ele>
        <time>2016-12-04T09:16:01.000Z</time>
      </trkpt>
      <trkpt lat="47.5744" lon="6.8064">
        <ele>413</ele>
        <time>2016-12-04T09:16:02.000Z</time>
      </trkpt>
      <trkpt lat="47.57442" lon="6.80635">
        <ele>413</ele>
        <time>2016-12-04T09:16:03.000Z</time>
      </trkpt>
      <trkpt lat="47.57444" lon="6.80631">
        <ele>413</ele>
        <time>2016-12-04T09:16:04.000Z</time>
      </trkpt>
      <trkpt lat="47.57445" lon="6.80626">
        <ele>413</ele>
        <time>2016-12-04T09:16:05.000Z</time>
      </trkpt>
      <trkpt lat="47.57447" lon="6.80622">
        <ele>413</ele>
        <time>2016-12-04T09:16:06.000Z</time>
      </trkpt>
      <trkpt lat="47.57448" lon="6.80617">
        <ele>413</ele>
        <time>2016-12-04T09:16:07.000Z</time>
      </trkpt>
      <trkpt lat="47.5745" lon="6.80614">
        <ele>413</ele>
        <time>2016-12-04T09:16:08.000Z</time>
      </trkpt>
      <trkpt lat="47.57452" lon="6.80609">
        <ele>413</ele>
        <time>2016-12-04T09:16:09.000Z</time>
      </trkpt>
      <trkpt lat="47.57454" lon="6.80604">
        <ele>413</ele>
        <time>2016-12-04T09:16:10.000Z</time>
      </trkpt>
      <trkpt lat="47.57456" lon="6.80599">
        <ele>413</ele>
        <time>2016-12-04T09:16:11.000Z</time>
      </trkpt>
      <trkpt lat="47.57458" lon="6.80595">
        <ele>413</ele>
        <time>2016-12-04T09:16:12.000Z</time>
      </trkpt>
      <trkpt lat="47.5746" lon="6.80592">
        <ele>413</ele>
        <time>2016-12-04T09:16:13.000Z</time>
      </trkpt>
      <trkpt lat="47.57462" lon="6.80588">
        <ele>413</ele>
        <time>2016-12-04T09:16:14.000Z</time>
      </trkpt>
      <trkpt lat="47.57464" lon="6.80583">
        <ele>412</ele>
        <time>2016-12-04T09:16:15.000Z</time>
      </trkpt>
      <trkpt lat="47.57467" lon="6.80579">
        <ele>412</ele>
        <time>2016-12-04T09:16:16.000Z</time>
      </trkpt>
      <trkpt lat="47.57469" lon="6.80575">
        <ele>412</ele>
        <time>2016-12-04T09:16:17.000Z</time>
      </trkpt>
      <trkpt lat="47.57471" lon="6.80571">
        <ele>412</ele>
        <time>2016-12-04T09:16:18.000Z</time>
      </trkpt>
      <trkpt lat="47.57472" lon="6.80567">
        <ele>412</ele>
        <time>2016-12-04T09:16:19.000Z</time>
      </trkpt>
      <trkpt lat="47.57474" lon="6.80562">
        <ele>412</ele>
        <time>2016-12-04T09:16:20.000Z</time>
      </trkpt>
      <trkpt lat="47.57476" lon="6.80557">
        <ele>412</ele>
        <time>2016-12-04T09:16:21.000Z</time>
      </trkpt>
      <trkpt lat="47.57477" lon="6.80552">
        <ele>412</ele>
        <time>2016-12-04T09:16:22.000Z</time>
      </trkpt>
      <trkpt lat="47.5748" lon="6.80546">
        <ele>411</ele>
        <time>2016-12-04T09:16:23.000Z</time>
      </trkpt>
      <trkpt lat="47.57481" lon="6.80541">
        <ele>411</ele>
        <time>2016-12-04T09:16:24.000Z</time>
      </trkpt>
      <trkpt lat="47.57482" lon="6.80538">
        <ele>411</ele>
        <time>2016-12-04T09:16:25.000Z</time>
      </trkpt>
      <trkpt lat="47.57483" lon="6.80535">
        <ele>411</ele>
        <time>2016-12-04T09:16:26.000Z</time>
      </trkpt>
      <trkpt lat="47.57484" lon="6.80531">
        <ele>411</ele>
        <time>2016-12-04T09:16:27.000Z</time>
      </trkpt>
      <trkpt lat="47.57486" lon="6.80526">
        <ele>411</ele>
        <time>2016-12-04T09:16:28.000Z</time>
      </trkpt>
      <trkpt lat="47.57487" lon="6.80523">
        <ele>411</ele>
        <time>2016-12-04T09:16:29.000Z</time>
      </trkpt>
      <trkpt lat="47.57489" lon="6.80519">
        <ele>411</ele>
        <time>2016-12-04T09:16:30.000Z</time>
      </trkpt>
      <trkpt lat="47.5749" lon="6.80515">
        <ele>411</ele>
        <time>2016-12-04T09:16:31.000Z</time>
      </trkpt>
      <trkpt lat="47.57492" lon="6.80511">
        <ele>411</ele>
        <time>2016-12-04T09:16:32.000Z</time>
      </trkpt>
      <trkpt lat="47.57494" lon="6.80507">
        <ele>410</ele>
        <time>2016-12-04T09:16:33.000Z</time>
      </trkpt>
      <trkpt lat="47.57496" lon="6.80503">
        <ele>410</ele>
        <time>2016-12-04T09:16:34.000Z</time>
      </trkpt>
      <trkpt lat="47.57498" lon="6.805">
        <ele>410</ele>
        <time>2016-12-04T09:16:35.000Z</time>
      </trkpt>
      <trkpt lat="47.575" lon="6.80497">
        <ele>410</ele>
        <time>2016-12-04T09:16:36.000Z</time>
      </trkpt>
      <trkpt lat="47.57501" lon="6.80494">
        <ele>410</ele>
        <time>2016-12-04T09:16:37.000Z</time>
      </trkpt>
      <trkpt lat="47.57503" lon="6.80489">
        <ele>411</ele>
        <time>2016-12-04T09:16:38.000Z</time>
      </trkpt>
      <trkpt lat="47.57506" lon="6.80486">
        <ele>411</ele>
        <time>2016-12-04T09:16:39.000Z</time>
      </trkpt>
      <trkpt lat="47.57508" lon="6.80483">
        <ele>411</ele>
        <time>2016-12-04T09:16:40.000Z</time>
      </trkpt>
      <trkpt lat="47.5751" lon="6.8048">
        <ele>411</ele>
        <time>2016-12-04T09:16:41.000Z</time>
      </trkpt>
      <trkpt lat="47.57512" lon="6.80477">
        <ele>411</ele>
        <time>2016-12-04T09:16:42.000Z</time>
      </trkpt>
      <trkpt lat="47.57514" lon="6.80474">
        <ele>411</ele>
        <time>2016-12-04T09:16:43.000Z</time>
      </trkpt>
      <trkpt lat="47.57517" lon="6.80472">
        <ele>411</ele>
        <time>2016-12-04T09:16:44.000Z</time>
      </trkpt>
      <trkpt lat="47.57519" lon="6.8047">
        <ele>411</ele>
        <time>2016-12-04T09:16:45.000Z</time>
      </trkpt>
      <trkpt lat="47.57522" lon="6.80468">
        <ele>411</ele>
        <time>2016-12-04T09:16:46.000Z</time>
      </trkpt>
      <trkpt lat="47.57525" lon="6.80465">
        <ele>412</ele>
        <time>2016-12-04T09:16:47.000Z</time>
      </trkpt>
      <trkpt lat="47.57528" lon="6.80462">
        <ele>412</ele>
        <time>2016-12-04T09:16:48.000Z</time>
      </trkpt>
      <trkpt lat="47.5753" lon="6.8046">
        <ele>412</ele>
        <time>2016-12-04T09:16:49.000Z</time>
      </trkpt>
      <trkpt lat="47.57532" lon="6.80459">
        <ele>412</ele>
        <time>2016-12-04T09:16:50.000Z</time>
      </trkpt>
      <trkpt lat="47.57535" lon="6.80457">
        <ele>412</ele>
        <time>2016-12-04T09:16:51.000Z</time>
      </trkpt>
      <trkpt lat="47.57538" lon="6.80455">
        <ele>412</ele>
        <time>2016-12-04T09:16:52.000Z</time>
      </trkpt>
      <trkpt lat="47.5754" lon="6.80452">
        <ele>412</ele>
        <time>2016-12-04T09:16:53.000Z</time>
      </trkpt>
      <trkpt lat="47.57543" lon="6.80449">
        <ele>412</ele>
        <time>2016-12-04T09:16:54.000Z</time>
      </trkpt>
      <trkpt lat="47.57545" lon="6.80447">
        <ele>412</ele>
        <time>2016-12-04T09:16:55.000Z</time>
      </trkpt>
      <trkpt lat="47.57547" lon="6.80444">
        <ele>412</ele>
        <time>2016-12-04T09:16:56.000Z</time>
      </trkpt>
      <trkpt lat="47.5755" lon="6.80443">
        <ele>412</ele>
        <time>2016-12-04T09:16:57.000Z</time>
      </trkpt>
      <trkpt lat="47.57554" lon="6.8044">
        <ele>412</ele>
        <time>2016-12-04T09:16:58.000Z</time>
      </trkpt>
      <trkpt lat="47.57558" lon="6.80437">
        <ele>412</ele>
        <time>2016-12-04T09:16:59.000Z</time>
      </trkpt>
      <trkpt lat="47.57561" lon="6.80435">
        <ele>412</ele>
        <time>2016-12-04T09:17:00.000Z</time>
      </trkpt>
      <trkpt lat="47.57565" lon="6.80434">
        <ele>412</ele>
        <time>2016-12-04T09:17:01.000Z</time>
      </trkpt>
      <trkpt lat="47.57568" lon="6.80432">
        <ele>412</ele>
        <time>2016-12-04T09:17:02.000Z</time>
      </trkpt>
      <trkpt lat="47.57572" lon="6.8043">
        <ele>413</ele>
        <time>2016-12-04T09:17:03.000Z</time>
      </trkpt>
      <trkpt lat="47.57575" lon="6.80429">
        <ele>413</ele>
        <time>2016-12-04T09:17:04.000Z</time>
      </trkpt>
      <trkpt lat="47.57579" lon="6.80428">
        <ele>413</ele>
        <time>2016-12-04T09:17:05.000Z</time>
      </trkpt>
      <trkpt lat="47.57582" lon="6.80428">
        <ele>413</ele>
        <time>2016-12-04T09:17:06.000Z</time>
      </trkpt>
      <trkpt lat="47.57584" lon="6.80428">
        <ele>415</ele>
        <time>2016-12-04T09:17:07.000Z</time>
      </trkpt>
      <trkpt lat="47.57588" lon="6.80428">
        <ele>415</ele>
        <time>2016-12-04T09:17:08.000Z</time>
      </trkpt>
      <trkpt lat="47.57591" lon="6.80429">
        <ele>416</ele>
        <time>2016-12-04T09:17:09.000Z</time>
      </trkpt>
      <trkpt lat="47.57594" lon="6.8043">
        <ele>416</ele>
        <time>2016-12-04T09:17:10.000Z</time>
      </trkpt>
      <trkpt lat="47.57597" lon="6.80431">
        <ele>416</ele>
        <time>2016-12-04T09:17:11.000Z</time>
      </trkpt>
      <trkpt lat="47.57601" lon="6.80431">
        <ele>416</ele>
        <time>2016-12-04T09:17:12.000Z</time>
      </trkpt>
      <trkpt lat="47.57604" lon="6.80431">
        <ele>417</ele>
        <time>2016-12-04T09:17:13.000Z</time>
      </trkpt>
      <trkpt lat="47.57606" lon="6.80431">
        <ele>417</ele>
        <time>2016-12-04T09:17:14.000Z</time>
      </trkpt>
      <trkpt lat="47.57609" lon="6.80433">
        <ele>417</ele>
        <time>2016-12-04T09:17:15.000Z</time>
      </trkpt>
      <trkpt lat="47.57611" lon="6.80434">
        <ele>417</ele>
        <time>2016-12-04T09:17:16.000Z</time>
      </trkpt>
      <trkpt lat="47.57614" lon="6.80434">
        <ele>418</ele>
        <time>2016-12-04T09:17:17.000Z</time>
      </trkpt>
      <trkpt lat="47.57616" lon="6.80434">
        <ele>418</ele>
        <time>2016-12-04T09:17:18.000Z</time>
      </trkpt>
      <trkpt lat="47.57619" lon="6.80434">
        <ele>418</ele>
        <time>2016-12-04T09:17:19.000Z</time>
      </trkpt>
      <trkpt lat="47.57622" lon="6.80435">
        <ele>418</ele>
        <time>2016-12-04T09:17:20.000Z</time>
      </trkpt>
      <trkpt lat="47.57626" lon="6.80436">
        <ele>419</ele>
        <time>2016-12-04T09:17:21.000Z</time>
      </trkpt>
      <trkpt lat="47.5763" lon="6.80435">
        <ele>419</ele>
        <time>2016-12-04T09:17:22.000Z</time>
      </trkpt>
      <trkpt lat="47.57634" lon="6.80436">
        <ele>419</ele>
        <time>2016-12-04T09:17:23.000Z</time>
      </trkpt>
      <trkpt lat="47.57637" lon="6.80437">
        <ele>419</ele>
        <time>2016-12-04T09:17:24.000Z</time>
      </trkpt>
      <trkpt lat="47.5764" lon="6.80437">
        <ele>419</ele>
        <time>2016-12-04T09:17:25.000Z</time>
      </trkpt>
      <trkpt lat="47.57642" lon="6.80437">
        <ele>419</ele>
        <time>2016-12-04T09:17:26.000Z</time>
      </trkpt>
      <trkpt lat="47.57645" lon="6.80437">
        <ele>420</ele>
        <time>2016-12-04T09:17:27.000Z</time>
      </trkpt>
      <trkpt lat="47.57647" lon="6.80437">
        <ele>420</ele>
        <time>2016-12-04T09:17:28.000Z</time>
      </trkpt>
      <trkpt lat="47.5765" lon="6.80437">
        <ele>420</ele>
        <time>2016-12-04T09:17:29.000Z</time>
      </trkpt>
      <trkpt lat="47.57652" lon="6.80438">
        <ele>420</ele>
        <time>2016-12-04T09:17:30.000Z</time>
      </trkpt>
      <trkpt lat="47.57654" lon="6.80438">
        <ele>420</ele>
        <time>2016-12-04T09:17:31.000Z</time>
      </trkpt>
      <trkpt lat="47.57658" lon="6.80439">
        <ele>420</ele>
        <time>2016-12-04T09:17:33.000Z</time>
      </trkpt>
      <trkpt lat="47.57661" lon="6.80438">
        <ele>420</ele>
        <time>2016-12-04T09:17:34.000Z</time>
      </trkpt>
      <trkpt lat="47.57663" lon="6.80439">
        <ele>420</ele>
        <time>2016-12-04T09:17:35.000Z</time>
      </trkpt>
      <trkpt lat="47.57666" lon="6.80438">
        <ele>420</ele>
        <time>2016-12-04T09:17:36.000Z</time>
      </trkpt>
      <trkpt lat="47.57669" lon="6.80438">
        <ele>423</ele>
        <time>2016-12-04T09:17:37.000Z</time>
      </trkpt>
      <trkpt lat="47.57671" lon="6.80438">
        <ele>423</ele>
        <time>2016-12-04T09:17:38.000Z</time>
      </trkpt>
      <trkpt lat="47.57674" lon="6.80441">
        <ele>423</ele>
        <time>2016-12-04T09:17:39.000Z</time>
      </trkpt>
      <trkpt lat="47.57678" lon="6.80442">
        <ele>423</ele>
        <time>2016-12-04T09:17:40.000Z</time>
      </trkpt>
      <trkpt lat="47.57682" lon="6.80443">
        <ele>424</ele>
        <time>2016-12-04T09:17:41.000Z</time>
      </trkpt>
      <trkpt lat="47.57687" lon="6.80443">
        <ele>424</ele>
        <time>2016-12-04T09:17:42.000Z</time>
      </trkpt>
      <trkpt lat="47.57692" lon="6.80443">
        <ele>424</ele>
        <time>2016-12-04T09:17:43.000Z</time>
      </trkpt>
      <trkpt lat="47.57695" lon="6.80443">
        <ele>424</ele>
        <time>2016-12-04T09:17:44.000Z</time>
      </trkpt>
      <trkpt lat="47.57699" lon="6.80444">
        <ele>424</ele>
        <time>2016-12-04T09:17:45.000Z</time>
      </trkpt>
      <trkpt lat="47.57702" lon="6.80444">
        <ele>424</ele>
        <time>2016-12-04T09:17:46.000Z</time>
      </trkpt>
      <trkpt lat="47.57705" lon="6.80444">
        <ele>424</ele>
        <time>2016-12-04T09:17:47.000Z</time>
      </trkpt>
      <trkpt lat="47.57708" lon="6.80444">
        <ele>424</ele>
        <time>2016-12-04T09:17:48.000Z</time>
      </trkpt>
      <trkpt lat="47.57712" lon="6.80445">
        <ele>424</ele>
        <time>2016-12-04T09:17:49.000Z</time>
      </trkpt>
      <trkpt lat="47.57716" lon="6.80445">
        <ele>425</ele>
        <time>2016-12-04T09:17:50.000Z</time>
      </trkpt>
      <trkpt lat="47.5772" lon="6.80444">
        <ele>425</ele>
        <time>2016-12-04T09:17:51.000Z</time>
      </trkpt>
      <trkpt lat="47.57724" lon="6.80444">
        <ele>425</ele>
        <time>2016-12-04T09:17:52.000Z</time>
      </trkpt>
      <trkpt lat="47.57727" lon="6.80444">
        <ele>425</ele>
        <time>2016-12-04T09:17:53.000Z</time>
      </trkpt>
      <trkpt lat="47.5773" lon="6.80443">
        <ele>425</ele>
        <time>2016-12-04T09:17:54.000Z</time>
      </trkpt>
      <trkpt lat="47.57733" lon="6.80444">
        <ele>425</ele>
        <time>2016-12-04T09:17:55.000Z</time>
      </trkpt>
      <trkpt lat="47.57736" lon="6.80444">
        <ele>425</ele>
        <time>2016-12-04T09:17:56.000Z</time>
      </trkpt>
      <trkpt lat="47.57738" lon="6.80443">
        <ele>425</ele>
        <time>2016-12-04T09:17:57.000Z</time>
      </trkpt>
      <trkpt lat="47.57742" lon="6.80442">
        <ele>425</ele>
        <time>2016-12-04T09:17:59.000Z</time>
      </trkpt>
      <trkpt lat="47.57744" lon="6.80442">
        <ele>425</ele>
        <time>2016-12-04T09:18:00.000Z</time>
      </trkpt>
      <trkpt lat="47.57747" lon="6.80442">
        <ele>425</ele>
        <time>2016-12-04T09:18:01.000Z</time>
      </trkpt>
      <trkpt lat="47.57749" lon="6.80442">
        <ele>425</ele>
        <time>2016-12-04T09:18:02.000Z</time>
      </trkpt>
      <trkpt lat="47.57752" lon="6.80443">
        <ele>426</ele>
        <time>2016-12-04T09:18:03.000Z</time>
      </trkpt>
      <trkpt lat="47.57756" lon="6.80444">
        <ele>426</ele>
        <time>2016-12-04T09:18:04.000Z</time>
      </trkpt>
      <trkpt lat="47.57758" lon="6.80444">
        <ele>426</ele>
        <time>2016-12-04T09:18:05.000Z</time>
      </trkpt>
      <trkpt lat="47.57761" lon="6.80444">
        <ele>426</ele>
        <time>2016-12-04T09:18:06.000Z</time>
      </trkpt>
      <trkpt lat="47.57764" lon="6.80446">
        <ele>426</ele>
        <time>2016-12-04T09:18:08.000Z</time>
      </trkpt>
      <trkpt lat="47.57765" lon="6.80446">
        <ele>426</ele>
        <time>2016-12-04T09:18:09.000Z</time>
      </trkpt>
      <trkpt lat="47.5777" lon="6.80446">
        <ele>426</ele>
        <time>2016-12-04T09:18:13.000Z</time>
      </trkpt>
      <trkpt lat="47.5777" lon="6.80446">
        <ele>426</ele>
        <time>2016-12-04T09:18:14.000Z</time>
      </trkpt>
      <trkpt lat="47.57774" lon="6.80447">
        <ele>426</ele>
        <time>2016-12-04T09:18:18.000Z</time>
      </trkpt>
      <trkpt lat="47.57776" lon="6.80447">
        <ele>426</ele>
        <time>2016-12-04T09:18:19.000Z</time>
      </trkpt>
      <trkpt lat="47.57779" lon="6.80448">
        <ele>426</ele>
        <time>2016-12-04T09:18:21.000Z</time>
      </trkpt>
      <trkpt lat="47.5778" lon="6.80448">
        <ele>426</ele>
        <time>2016-12-04T09:18:22.000Z</time>
      </trkpt>
      <trkpt lat="47.57776" lon="6.80451">
        <ele>426</ele>
        <time>2016-12-04T09:18:33.000Z</time>
      </trkpt>
      <trkpt lat="47.57773" lon="6.80449">
        <ele>426</ele>
        <time>2016-12-04T09:18:34.000Z</time>
      </trkpt>
      <trkpt lat="47.57772" lon="6.80444">
        <ele>426</ele>
        <time>2016-12-04T09:18:36.000Z</time>
      </trkpt>
      <trkpt lat="47.57771" lon="6.8044">
        <ele>426</ele>
        <time>2016-12-04T09:18:37.000Z</time>
      </trkpt>
      <trkpt lat="47.57771" lon="6.80435">
        <ele>426</ele>
        <time>2016-12-04T09:18:38.000Z</time>
      </trkpt>
      <trkpt lat="47.57772" lon="6.80428">
        <ele>426</ele>
        <time>2016-12-04T09:18:39.000Z</time>
      </trkpt>
      <trkpt lat="47.57772" lon="6.80423">
        <ele>427</ele>
        <time>2016-12-04T09:18:40.000Z</time>
      </trkpt>
      <trkpt lat="47.57773" lon="6.80419">
        <ele>427</ele>
        <time>2016-12-04T09:18:41.000Z</time>
      </trkpt>
      <trkpt lat="47.57775" lon="6.80414">
        <ele>428</ele>
        <time>2016-12-04T09:18:43.000Z</time>
      </trkpt>
      <trkpt lat="47.57777" lon="6.80412">
        <ele>428</ele>
        <time>2016-12-04T09:18:44.000Z</time>
      </trkpt>
      <trkpt lat="47.57779" lon="6.80408">
        <ele>428</ele>
        <time>2016-12-04T09:18:45.000Z</time>
      </trkpt>
      <trkpt lat="47.5778" lon="6.80405">
        <ele>428</ele>
        <time>2016-12-04T09:18:46.000Z</time>
      </trkpt>
      <trkpt lat="47.57782" lon="6.80401">
        <ele>428</ele>
        <time>2016-12-04T09:18:47.000Z</time>
      </trkpt>
      <trkpt lat="47.57783" lon="6.80399">
        <ele>428</ele>
        <time>2016-12-04T09:18:48.000Z</time>
      </trkpt>
      <trkpt lat="47.57785" lon="6.80397">
        <ele>428</ele>
        <time>2016-12-04T09:18:49.000Z</time>
      </trkpt>
      <trkpt lat="47.57787" lon="6.80394">
        <ele>428</ele>
        <time>2016-12-04T09:18:50.000Z</time>
      </trkpt>
      <trkpt lat="47.5779" lon="6.80391">
        <ele>428</ele>
        <time>2016-12-04T09:18:52.000Z</time>
      </trkpt>
      <trkpt lat="47.57791" lon="6.80387">
        <ele>428</ele>
        <time>2016-12-04T09:18:53.000Z</time>
      </trkpt>
      <trkpt lat="47.57793" lon="6.80383">
        <ele>428</ele>
        <time>2016-12-04T09:18:54.000Z</time>
      </trkpt>
      <trkpt lat="47.57794" lon="6.8038">
        <ele>428</ele>
        <time>2016-12-04T09:18:55.000Z</time>
      </trkpt>
      <trkpt lat="47.57795" lon="6.80376">
        <ele>428</ele>
        <time>2016-12-04T09:18:56.000Z</time>
      </trkpt>
      <trkpt lat="47.57795" lon="6.80373">
        <ele>428</ele>
        <time>2016-12-04T09:18:57.000Z</time>
      </trkpt>
      <trkpt lat="47.57796" lon="6.80369">
        <ele>428</ele>
        <time>2016-12-04T09:18:58.000Z</time>
      </trkpt>
      <trkpt lat="47.57796" lon="6.80365">
        <ele>429</ele>
        <time>2016-12-04T09:18:59.000Z</time>
      </trkpt>
      <trkpt lat="47.57797" lon="6.80361">
        <ele>429</ele>
        <time>2016-12-04T09:19:00.000Z</time>
      </trkpt>
      <trkpt lat="47.57798" lon="6.80358">
        <ele>429</ele>
        <time>2016-12-04T09:19:01.000Z</time>
      </trkpt>
      <trkpt lat="47.578" lon="6.80354">
        <ele>429</ele>
        <time>2016-12-04T09:19:02.000Z</time>
      </trkpt>
      <trkpt lat="47.57801" lon="6.8035">
        <ele>429</ele>
        <time>2016-12-04T09:19:03.000Z</time>
      </trkpt>
      <trkpt lat="47.57801" lon="6.80345">
        <ele>429</ele>
        <time>2016-12-04T09:19:05.000Z</time>
      </trkpt>
      <trkpt lat="47.57802" lon="6.80341">
        <ele>429</ele>
        <time>2016-12-04T09:19:06.000Z</time>
      </trkpt>
      <trkpt lat="47.57802" lon="6.80338">
        <ele>429</ele>
        <time>2016-12-04T09:19:07.000Z</time>
      </trkpt>
      <trkpt lat="47.57801" lon="6.80334">
        <ele>429</ele>
        <time>2016-12-04T09:19:08.000Z</time>
      </trkpt>
      <trkpt lat="47.57801" lon="6.80329">
        <ele>430</ele>
        <time>2016-12-04T09:19:10.000Z</time>
      </trkpt>
      <trkpt lat="47.578" lon="6.80327">
        <ele>430</ele>
        <time>2016-12-04T09:19:11.000Z</time>
      </trkpt>
      <trkpt lat="47.57798" lon="6.80323">
        <ele>430</ele>
        <time>2016-12-04T09:19:13.000Z</time>
      </trkpt>
      <trkpt lat="47.57797" lon="6.8032">
        <ele>430</ele>
        <time>2016-12-04T09:19:14.000Z</time>
      </trkpt>
      <trkpt lat="47.57796" lon="6.80316">
        <ele>430</ele>
        <time>2016-12-04T09:19:15.000Z</time>
      </trkpt>
      <trkpt lat="47.57795" lon="6.80312">
        <ele>430</ele>
        <time>2016-12-04T09:19:16.000Z</time>
      </trkpt>
      <trkpt lat="47.57794" lon="6.80309">
        <ele>430</ele>
        <time>2016-12-04T09:19:17.000Z</time>
      </trkpt>
      <trkpt lat="47.57793" lon="6.80306">
        <ele>429</ele>
        <time>2016-12-04T09:19:18.000Z</time>
      </trkpt>
      <trkpt lat="47.57791" lon="6.803">
        <ele>429</ele>
        <time>2016-12-04T09:19:22.000Z</time>
      </trkpt>
      <trkpt lat="47.57791" lon="6.80298">
        <ele>429</ele>
        <time>2016-12-04T09:19:23.000Z</time>
      </trkpt>
      <trkpt lat="47.5779" lon="6.80292">
        <ele>429</ele>
        <time>2016-12-04T09:19:24.000Z</time>
      </trkpt>
      <trkpt lat="47.57788" lon="6.80287">
        <ele>429</ele>
        <time>2016-12-04T09:19:25.000Z</time>
      </trkpt>
      <trkpt lat="47.57787" lon="6.8028">
        <ele>429</ele>
        <time>2016-12-04T09:19:26.000Z</time>
      </trkpt>
      <trkpt lat="47.57786" lon="6.80275">
        <ele>429</ele>
        <time>2016-12-04T09:19:27.000Z</time>
      </trkpt>
      <trkpt lat="47.57786" lon="6.8027">
        <ele>429</ele>
        <time>2016-12-04T09:19:28.000Z</time>
      </trkpt>
      <trkpt lat="47.57786" lon="6.80265">
        <ele>429</ele>
        <time>2016-12-04T09:19:29.000Z</time>
      </trkpt>
      <trkpt lat="47.57786" lon="6.8026">
        <ele>429</ele>
        <time>2016-12-04T09:19:30.000Z</time>
      </trkpt>
      <trkpt lat="47.57788" lon="6.80255">
        <ele>429</ele>
        <time>2016-12-04T09:19:31.000Z</time>
      </trkpt>
      <trkpt lat="47.57788" lon="6.8025">
        <ele>429</ele>
        <time>2016-12-04T09:19:34.000Z</time>
      </trkpt>
      <trkpt lat="47.57787" lon="6.80248">
        <ele>431</ele>
        <time>2016-12-04T09:19:35.000Z</time>
      </trkpt>
      <trkpt lat="47.57786" lon="6.80244">
        <ele>431</ele>
        <time>2016-12-04T09:19:37.000Z</time>
      </trkpt>
      <trkpt lat="47.57786" lon="6.80241">
        <ele>431</ele>
        <time>2016-12-04T09:19:38.000Z</time>
      </trkpt>
      <trkpt lat="47.57784" lon="6.80235">
        <ele>431</ele>
        <time>2016-12-04T09:19:40.000Z</time>
      </trkpt>
      <trkpt lat="47.57782" lon="6.80232">
        <ele>431</ele>
        <time>2016-12-04T09:19:41.000Z</time>
      </trkpt>
      <trkpt lat="47.57781" lon="6.80228">
        <ele>431</ele>
        <time>2016-12-04T09:19:42.000Z</time>
      </trkpt>
      <trkpt lat="47.5778" lon="6.80225">
        <ele>431</ele>
        <time>2016-12-04T09:19:43.000Z</time>
      </trkpt>
      <trkpt lat="47.57778" lon="6.80222">
        <ele>431</ele>
        <time>2016-12-04T09:19:44.000Z</time>
      </trkpt>
      <trkpt lat="47.57776" lon="6.80219">
        <ele>431</ele>
        <time>2016-12-04T09:19:45.000Z</time>
      </trkpt>
      <trkpt lat="47.57774" lon="6.80214">
        <ele>431</ele>
        <time>2016-12-04T09:19:46.000Z</time>
      </trkpt>
      <trkpt lat="47.57772" lon="6.80208">
        <ele>431</ele>
        <time>2016-12-04T09:19:47.000Z</time>
      </trkpt>
      <trkpt lat="47.5777" lon="6.80202">
        <ele>431</ele>
        <time>2016-12-04T09:19:48.000Z</time>
      </trkpt>
      <trkpt lat="47.57769" lon="6.80197">
        <ele>431</ele>
        <time>2016-12-04T09:19:49.000Z</time>
      </trkpt>
      <trkpt lat="47.57767" lon="6.80193">
        <ele>431</ele>
        <time>2016-12-04T09:19:50.000Z</time>
      </trkpt>
      <trkpt lat="47.57766" lon="6.80189">
        <ele>431</ele>
        <time>2016-12-04T09:19:51.000Z</time>
      </trkpt>
      <trkpt lat="47.57765" lon="6.80186">
        <ele>431</ele>
        <time>2016-12-04T09:19:52.000Z</time>
      </trkpt>
      <trkpt lat="47.57763" lon="6.80183">
        <ele>431</ele>
        <time>2016-12-04T09:19:53.000Z</time>
      </trkpt>
      <trkpt lat="47.57762" lon="6.80179">
        <ele>431</ele>
        <time>2016-12-04T09:19:54.000Z</time>
      </trkpt>
      <trkpt lat="47.57761" lon="6.80176">
        <ele>431</ele>
        <time>2016-12-04T09:19:55.000Z</time>
      </trkpt>
      <trkpt lat="47.57761" lon="6.80172">
        <ele>431</ele>
        <time>2016-12-04T09:19:56.000Z</time>
      </trkpt>
      <trkpt lat="47.5776" lon="6.80168">
        <ele>431</ele>
        <time>2016-12-04T09:19:57.000Z</time>
      </trkpt>
      <trkpt lat="47.57759" lon="6.80164">
        <ele>432</ele>
        <time>2016-12-04T09:19:58.000Z</time>
      </trkpt>
      <trkpt lat="47.57759" lon="6.8016">
        <ele>432</ele>
        <time>2016-12-04T09:19:59.000Z</time>
      </trkpt>
      <trkpt lat="47.57757" lon="6.80156">
        <ele>432</ele>
        <time>2016-12-04T09:20:00.000Z</time>
      </trkpt>
      <trkpt lat="47.57756" lon="6.8015">
        <ele>432</ele>
        <time>2016-12-04T09:20:01.000Z</time>
      </trkpt>
      <trkpt lat="47.57756" lon="6.80146">
        <ele>433</ele>
        <time>2016-12-04T09:20:02.000Z</time>
      </trkpt>
      <trkpt lat="47.57756" lon="6.80139">
        <ele>433</ele>
        <time>2016-12-04T09:20:03.000Z</time>
      </trkpt>
      <trkpt lat="47.57756" lon="6.80133">
        <ele>434</ele>
        <time>2016-12-04T09:20:04.000Z</time>
      </trkpt>
      <trkpt lat="47.57756" lon="6.80128">
        <ele>434</ele>
        <time>2016-12-04T09:20:05.000Z</time>
      </trkpt>
      <trkpt lat="47.57756" lon="6.80124">
        <ele>434</ele>
        <time>2016-12-04T09:20:06.000Z</time>
      </trkpt>
      <trkpt lat="47.57756" lon="6.80119">
        <ele>434</ele>
        <time>2016-12-04T09:20:07.000Z</time>
      </trkpt>
      <trkpt lat="47.57755" lon="6.80114">
        <ele>434</ele>
        <time>2016-12-04T09:20:08.000Z</time>
      </trkpt>
      <trkpt lat="47.57755" lon="6.8011">
        <ele>434</ele>
        <time>2016-12-04T09:20:09.000Z</time>
      </trkpt>
      <trkpt lat="47.57755" lon="6.80105">
        <ele>434</ele>
        <time>2016-12-04T09:20:10.000Z</time>
      </trkpt>
      <trkpt lat="47.57754" lon="6.801">
        <ele>434</ele>
        <time>2016-12-04T09:20:12.000Z</time>
      </trkpt>
      <trkpt lat="47.57754" lon="6.80098">
        <ele>434</ele>
        <time>2016-12-04T09:20:13.000Z</time>
      </trkpt>
      <trkpt lat="47.57757" lon="6.80092">
        <ele>434</ele>
        <time>2016-12-04T09:20:16.000Z</time>
      </trkpt>
      <trkpt lat="47.57758" lon="6.8009">
        <ele>434</ele>
        <time>2016-12-04T09:20:17.000Z</time>
      </trkpt>
      <trkpt lat="47.57761" lon="6.80085">
        <ele>434</ele>
        <time>2016-12-04T09:20:50.000Z</time>
      </trkpt>
      <trkpt lat="47.57761" lon="6.80085">
        <ele>434</ele>
        <time>2016-12-04T09:20:51.000Z</time>
      </trkpt>
      <trkpt lat="47.57757" lon="6.80088">
        <ele>434</ele>
        <time>2016-12-04T09:21:12.999Z</time>
      </trkpt>
      <trkpt lat="47.57757" lon="6.8009">
        <ele>434</ele>
        <time>2016-12-04T09:21:13.999Z</time>
      </trkpt>
      <trkpt lat="47.5776" lon="6.80086">
        <ele>434</ele>
        <time>2016-12-04T09:23:45.999Z</time>
      </trkpt>
      <trkpt lat="47.57758" lon="6.80083">
        <ele>434</ele>
        <time>2016-12-04T09:23:46.999Z</time>
      </trkpt>
      <trkpt lat="47.57754" lon="6.80081">
        <ele>434</ele>
        <time>2016-12-04T09:23:50.999Z</time>
      </trkpt>
      <trkpt lat="47.57753" lon="6.80081">
        <ele>434</ele>
        <time>2016-12-04T09:23:51.999Z</time>
      </trkpt>
      <trkpt lat="47.5775" lon="6.80077">
        <ele>434</ele>
        <time>2016-12-04T09:24:08.999Z</time>
      </trkpt>
      <trkpt lat="47.57749" lon="6.80076">
        <ele>432</ele>
        <time>2016-12-04T09:24:09.999Z</time>
      </trkpt>
      <trkpt lat="47.57748" lon="6.80072">
        <ele>432</ele>
        <time>2016-12-04T09:24:11.999Z</time>
      </trkpt>
      <trkpt lat="47.57748" lon="6.80067">
        <ele>431</ele>
        <time>2016-12-04T09:24:12.999Z</time>
      </trkpt>
      <trkpt lat="47.57749" lon="6.80061">
        <ele>431</ele>
        <time>2016-12-04T09:24:13.999Z</time>
      </trkpt>
      <trkpt lat="47.57749" lon="6.80055">
        <ele>430</ele>
        <time>2016-12-04T09:24:14.999Z</time>
      </trkpt>
      <trkpt lat="47.57751" lon="6.80044">
        <ele>434</ele>
        <time>2016-12-04T09:24:15.999Z</time>
      </trkpt>
      <trkpt lat="47.57754" lon="6.80039">
        <ele>434</ele>
        <time>2016-12-04T09:24:16.999Z</time>
      </trkpt>
      <trkpt lat="47.57756" lon="6.80033">
        <ele>434</ele>
        <time>2016-12-04T09:24:17.999Z</time>
      </trkpt>
      <trkpt lat="47.57757" lon="6.80029">
        <ele>434</ele>
        <time>2016-12-04T09:24:18.999Z</time>
      </trkpt>
      <trkpt lat="47.57757" lon="6.80025">
        <ele>433</ele>
        <time>2016-12-04T09:24:19.999Z</time>
      </trkpt>
      <trkpt lat="47.57755" lon="6.8002">
        <ele>433</ele>
        <time>2016-12-04T09:24:20.999Z</time>
      </trkpt>
      <trkpt lat="47.57754" lon="6.80016">
        <ele>433</ele>
        <time>2016-12-04T09:24:21.999Z</time>
      </trkpt>
      <trkpt lat="47.57752" lon="6.80011">
        <ele>433</ele>
        <time>2016-12-04T09:24:22.999Z</time>
      </trkpt>
      <trkpt lat="47.57749" lon="6.80004">
        <ele>431</ele>
        <time>2016-12-04T09:24:23.999Z</time>
      </trkpt>
      <trkpt lat="47.57746" lon="6.79999">
        <ele>431</ele>
        <time>2016-12-04T09:24:24.999Z</time>
      </trkpt>
      <trkpt lat="47.57744" lon="6.79993">
        <ele>430</ele>
        <time>2016-12-04T09:24:25.999Z</time>
      </trkpt>
      <trkpt lat="47.5774" lon="6.79982">
        <ele>427</ele>
        <time>2016-12-04T09:24:26.999Z</time>
      </trkpt>
      <trkpt lat="47.5774" lon="6.79973">
        <ele>426</ele>
        <time>2016-12-04T09:24:27.999Z</time>
      </trkpt>
      <trkpt lat="47.57739" lon="6.79958">
        <ele>425</ele>
        <time>2016-12-04T09:24:28.999Z</time>
      </trkpt>
      <trkpt lat="47.57741" lon="6.79949">
        <ele>425</ele>
        <time>2016-12-04T09:24:29.999Z</time>
      </trkpt>
      <trkpt lat="47.57743" lon="6.79944">
        <ele>424</ele>
        <time>2016-12-04T09:24:30.999Z</time>
      </trkpt>
      <trkpt lat="47.57745" lon="6.79941">
        <ele>424</ele>
        <time>2016-12-04T09:24:31.999Z</time>
      </trkpt>
      <trkpt lat="47.57748" lon="6.79939">
        <ele>424</ele>
        <time>2016-12-04T09:24:32.999Z</time>
      </trkpt>
      <trkpt lat="47.57751" lon="6.79935">
        <ele>426</ele>
        <time>2016-12-04T09:24:33.999Z</time>
      </trkpt>
      <trkpt lat="47.57754" lon="6.79932">
        <ele>426</ele>
        <time>2016-12-04T09:24:34.999Z</time>
      </trkpt>
      <trkpt lat="47.57757" lon="6.79929">
        <ele>425</ele>
        <time>2016-12-04T09:24:35.999Z</time>
      </trkpt>
      <trkpt lat="47.5776" lon="6.79927">
        <ele>425</ele>
        <time>2016-12-04T09:24:36.999Z</time>
      </trkpt>
      <trkpt lat="47.57763" lon="6.79925">
        <ele>426</ele>
        <time>2016-12-04T09:24:37.999Z</time>
      </trkpt>
      <trkpt lat="47.57767" lon="6.79923">
        <ele>426</ele>
        <time>2016-12-04T09:24:38.999Z</time>
      </trkpt>
      <trkpt lat="47.5777" lon="6.79922">
        <ele>426</ele>
        <time>2016-12-04T09:24:39.999Z</time>
      </trkpt>
      <trkpt lat="47.57772" lon="6.79921">
        <ele>426</ele>
        <time>2016-12-04T09:24:40.999Z</time>
      </trkpt>
      <trkpt lat="47.57775" lon="6.7992">
        <ele>426</ele>
        <time>2016-12-04T09:24:41.999Z</time>
      </trkpt>
      <trkpt lat="47.57779" lon="6.79918">
        <ele>426</ele>
        <time>2016-12-04T09:24:42.999Z</time>
      </trkpt>
      <trkpt lat="47.57782" lon="6.79916">
        <ele>422</ele>
        <time>2016-12-04T09:24:43.999Z</time>
      </trkpt>
      <trkpt lat="47.57785" lon="6.79916">
        <ele>422</ele>
        <time>2016-12-04T09:24:44.999Z</time>
      </trkpt>
      <trkpt lat="47.57788" lon="6.79914">
        <ele>422</ele>
        <time>2016-12-04T09:24:45.999Z</time>
      </trkpt>
      <trkpt lat="47.57791" lon="6.79912">
        <ele>422</ele>
        <time>2016-12-04T09:24:46.999Z</time>
      </trkpt>
      <trkpt lat="47.57794" lon="6.79911">
        <ele>422</ele>
        <time>2016-12-04T09:24:47.999Z</time>
      </trkpt>
      <trkpt lat="47.57798" lon="6.7991">
        <ele>423</ele>
        <time>2016-12-04T09:24:48.999Z</time>
      </trkpt>
      <trkpt lat="47.57804" lon="6.79907">
        <ele>423</ele>
        <time>2016-12-04T09:24:49.999Z</time>
      </trkpt>
      <trkpt lat="47.57808" lon="6.79905">
        <ele>423</ele>
        <time>2016-12-04T09:24:50.999Z</time>
      </trkpt>
      <trkpt lat="47.57812" lon="6.79903">
        <ele>423</ele>
        <time>2016-12-04T09:24:51.999Z</time>
      </trkpt>
      <trkpt lat="47.57815" lon="6.79898">
        <ele>423</ele>
        <time>2016-12-04T09:24:52.999Z</time>
      </trkpt>
      <trkpt lat="47.57818" lon="6.79892">
        <ele>423</ele>
        <time>2016-12-04T09:24:53.999Z</time>
      </trkpt>
      <trkpt lat="47.57819" lon="6.79885">
        <ele>422</ele>
        <time>2016-12-04T09:24:54.999Z</time>
      </trkpt>
      <trkpt lat="47.57821" lon="6.79877">
        <ele>422</ele>
        <time>2016-12-04T09:24:55.999Z</time>
      </trkpt>
      <trkpt lat="47.57822" lon="6.79868">
        <ele>421</ele>
        <time>2016-12-04T09:24:56.999Z</time>
      </trkpt>
      <trkpt lat="47.57823" lon="6.7986">
        <ele>421</ele>
        <time>2016-12-04T09:24:57.999Z</time>
      </trkpt>
      <trkpt lat="47.57823" lon="6.79852">
        <ele>420</ele>
        <time>2016-12-04T09:24:58.999Z</time>
      </trkpt>
      <trkpt lat="47.57824" lon="6.79844">
        <ele>420</ele>
        <time>2016-12-04T09:24:59.999Z</time>
      </trkpt>
      <trkpt lat="47.57825" lon="6.79837">
        <ele>420</ele>
        <time>2016-12-04T09:25:00.999Z</time>
      </trkpt>
      <trkpt lat="47.57826" lon="6.79831">
        <ele>418</ele>
        <time>2016-12-04T09:25:01.999Z</time>
      </trkpt>
      <trkpt lat="47.57826" lon="6.79823">
        <ele>418</ele>
        <time>2016-12-04T09:25:02.999Z</time>
      </trkpt>
      <trkpt lat="47.57827" lon="6.79816">
        <ele>418</ele>
        <time>2016-12-04T09:25:03.999Z</time>
      </trkpt>
      <trkpt lat="47.57829" lon="6.7981">
        <ele>418</ele>
        <time>2016-12-04T09:25:04.999Z</time>
      </trkpt>
      <trkpt lat="47.5783" lon="6.79803">
        <ele>417</ele>
        <time>2016-12-04T09:25:05.999Z</time>
      </trkpt>
      <trkpt lat="47.57833" lon="6.79798">
        <ele>417</ele>
        <time>2016-12-04T09:25:06.999Z</time>
      </trkpt>
      <trkpt lat="47.57836" lon="6.79794">
        <ele>416</ele>
        <time>2016-12-04T09:25:07.999Z</time>
      </trkpt>
      <trkpt lat="47.5784" lon="6.7979">
        <ele>416</ele>
        <time>2016-12-04T09:25:08.999Z</time>
      </trkpt>
      <trkpt lat="47.57845" lon="6.79786">
        <ele>416</ele>
        <time>2016-12-04T09:25:09.999Z</time>
      </trkpt>
      <trkpt lat="47.57849" lon="6.79783">
        <ele>416</ele>
        <time>2016-12-04T09:25:10.999Z</time>
      </trkpt>
      <trkpt lat="47.57854" lon="6.79779">
        <ele>416</ele>
        <time>2016-12-04T09:25:11.999Z</time>
      </trkpt>
      <trkpt lat="47.57859" lon="6.79775">
        <ele>416</ele>
        <time>2016-12-04T09:25:12.999Z</time>
      </trkpt>
      <trkpt lat="47.57865" lon="6.79771">
        <ele>416</ele>
        <time>2016-12-04T09:25:13.999Z</time>
      </trkpt>
      <trkpt lat="47.57869" lon="6.79766">
        <ele>415</ele>
        <time>2016-12-04T09:25:14.999Z</time>
      </trkpt>
      <trkpt lat="47.57874" lon="6.79761">
        <ele>415</ele>
        <time>2016-12-04T09:25:15.999Z</time>
      </trkpt>
      <trkpt lat="47.57878" lon="6.79752">
        <ele>415</ele>
        <time>2016-12-04T09:25:16.999Z</time>
      </trkpt>
      <trkpt lat="47.57881" lon="6.79742">
        <ele>413</ele>
        <time>2016-12-04T09:25:17.999Z</time>
      </trkpt>
      <trkpt lat="47.57881" lon="6.79731">
        <ele>413</ele>
        <time>2016-12-04T09:25:18.999Z</time>
      </trkpt>
      <trkpt lat="47.5788" lon="6.79719">
        <ele>413</ele>
        <time>2016-12-04T09:25:19.999Z</time>
      </trkpt>
      <trkpt lat="47.57878" lon="6.79711">
        <ele>413</ele>
        <time>2016-12-04T09:25:20.999Z</time>
      </trkpt>
      <trkpt lat="47.57876" lon="6.79702">
        <ele>413</ele>
        <time>2016-12-04T09:25:21.999Z</time>
      </trkpt>
      <trkpt lat="47.57874" lon="6.79692">
        <ele>413</ele>
        <time>2016-12-04T09:25:22.999Z</time>
      </trkpt>
      <trkpt lat="47.57873" lon="6.79681">
        <ele>413</ele>
        <time>2016-12-04T09:25:23.999Z</time>
      </trkpt>
      <trkpt lat="47.57874" lon="6.79669">
        <ele>413</ele>
        <time>2016-12-04T09:25:24.999Z</time>
      </trkpt>
      <trkpt lat="47.57875" lon="6.79658">
        <ele>411</ele>
        <time>2016-12-04T09:25:25.999Z</time>
      </trkpt>
      <trkpt lat="47.57876" lon="6.79649">
        <ele>411</ele>
        <time>2016-12-04T09:25:26.999Z</time>
      </trkpt>
      <trkpt lat="47.57877" lon="6.79641">
        <ele>411</ele>
        <time>2016-12-04T09:25:27.999Z</time>
      </trkpt>
      <trkpt lat="47.57878" lon="6.79631">
        <ele>411</ele>
        <time>2016-12-04T09:25:28.999Z</time>
      </trkpt>
      <trkpt lat="47.57882" lon="6.79621">
        <ele>411</ele>
        <time>2016-12-04T09:25:29.999Z</time>
      </trkpt>
      <trkpt lat="47.57885" lon="6.79613">
        <ele>410</ele>
        <time>2016-12-04T09:25:30.999Z</time>
      </trkpt>
      <trkpt lat="47.57889" lon="6.79606">
        <ele>410</ele>
        <time>2016-12-04T09:25:31.999Z</time>
      </trkpt>
      <trkpt lat="47.57892" lon="6.79598">
        <ele>410</ele>
        <time>2016-12-04T09:25:32.999Z</time>
      </trkpt>
      <trkpt lat="47.57893" lon="6.79589">
        <ele>410</ele>
        <time>2016-12-04T09:25:33.999Z</time>
      </trkpt>
      <trkpt lat="47.57892" lon="6.79578">
        <ele>409</ele>
        <time>2016-12-04T09:25:34.999Z</time>
      </trkpt>
      <trkpt lat="47.57891" lon="6.79567">
        <ele>409</ele>
        <time>2016-12-04T09:25:35.999Z</time>
      </trkpt>
      <trkpt lat="47.5789" lon="6.79555">
        <ele>409</ele>
        <time>2016-12-04T09:25:36.999Z</time>
      </trkpt>
      <trkpt lat="47.57888" lon="6.79545">
        <ele>409</ele>
        <time>2016-12-04T09:25:37.999Z</time>
      </trkpt>
      <trkpt lat="47.57886" lon="6.79535">
        <ele>409</ele>
        <time>2016-12-04T09:25:38.999Z</time>
      </trkpt>
      <trkpt lat="47.57884" lon="6.79525">
        <ele>409</ele>
        <time>2016-12-04T09:25:39.999Z</time>
      </trkpt>
      <trkpt lat="47.57882" lon="6.79515">
        <ele>409</ele>
        <time>2016-12-04T09:25:40.999Z</time>
      </trkpt>
      <trkpt lat="47.57881" lon="6.79505">
        <ele>409</ele>
        <time>2016-12-04T09:25:41.999Z</time>
      </trkpt>
      <trkpt lat="47.57879" lon="6.79496">
        <ele>407</ele>
        <time>2016-12-04T09:25:42.999Z</time>
      </trkpt>
      <trkpt lat="47.57877" lon="6.79487">
        <ele>407</ele>
        <time>2016-12-04T09:25:43.999Z</time>
      </trkpt>
      <trkpt lat="47.57875" lon="6.79476">
        <ele>406</ele>
        <time>2016-12-04T09:25:44.999Z</time>
      </trkpt>
      <trkpt lat="47.57873" lon="6.79466">
        <ele>406</ele>
        <time>2016-12-04T09:25:45.999Z</time>
      </trkpt>
      <trkpt lat="47.57871" lon="6.79456">
        <ele>406</ele>
        <time>2016-12-04T09:25:46.999Z</time>
      </trkpt>
      <trkpt lat="47.57869" lon="6.79443">
        <ele>406</ele>
        <time>2016-12-04T09:25:47.999Z</time>
      </trkpt>
      <trkpt lat="47.57866" lon="6.7943">
        <ele>405</ele>
        <time>2016-12-04T09:25:48.999Z</time>
      </trkpt>
      <trkpt lat="47.57864" lon="6.79417">
        <ele>405</ele>
        <time>2016-12-04T09:25:49.999Z</time>
      </trkpt>
      <trkpt lat="47.57862" lon="6.79406">
        <ele>402</ele>
        <time>2016-12-04T09:25:50.999Z</time>
      </trkpt>
      <trkpt lat="47.57859" lon="6.79394">
        <ele>402</ele>
        <time>2016-12-04T09:25:51.999Z</time>
      </trkpt>
      <trkpt lat="47.57856" lon="6.79381">
        <ele>401</ele>
        <time>2016-12-04T09:25:52.999Z</time>
      </trkpt>
      <trkpt lat="47.57854" lon="6.79368">
        <ele>401</ele>
        <time>2016-12-04T09:25:53.999Z</time>
      </trkpt>
      <trkpt lat="47.57851" lon="6.79355">
        <ele>400</ele>
        <time>2016-12-04T09:25:54.999Z</time>
      </trkpt>
      <trkpt lat="47.57849" lon="6.79341">
        <ele>400</ele>
        <time>2016-12-04T09:25:55.999Z</time>
      </trkpt>
      <trkpt lat="47.57847" lon="6.79329">
        <ele>398</ele>
        <time>2016-12-04T09:25:56.999Z</time>
      </trkpt>
      <trkpt lat="47.57844" lon="6.79315">
        <ele>397</ele>
        <time>2016-12-04T09:25:57.999Z</time>
      </trkpt>
      <trkpt lat="47.57841" lon="6.79301">
        <ele>397</ele>
        <time>2016-12-04T09:25:58.999Z</time>
      </trkpt>
      <trkpt lat="47.57839" lon="6.79288">
        <ele>397</ele>
        <time>2016-12-04T09:25:59.999Z</time>
      </trkpt>
      <trkpt lat="47.57836" lon="6.79274">
        <ele>397</ele>
        <time>2016-12-04T09:26:00.999Z</time>
      </trkpt>
      <trkpt lat="47.57833" lon="6.79261">
        <ele>396</ele>
        <time>2016-12-04T09:26:01.999Z</time>
      </trkpt>
      <trkpt lat="47.5783" lon="6.79247">
        <ele>396</ele>
        <time>2016-12-04T09:26:02.999Z</time>
      </trkpt>
      <trkpt lat="47.57828" lon="6.79233">
        <ele>395</ele>
        <time>2016-12-04T09:26:03.999Z</time>
      </trkpt>
      <trkpt lat="47.57826" lon="6.7922">
        <ele>394</ele>
        <time>2016-12-04T09:26:04.999Z</time>
      </trkpt>
      <trkpt lat="47.57824" lon="6.79208">
        <ele>394</ele>
        <time>2016-12-04T09:26:05.999Z</time>
      </trkpt>
      <trkpt lat="47.57824" lon="6.79195">
        <ele>394</ele>
        <time>2016-12-04T09:26:06.999Z</time>
      </trkpt>
      <trkpt lat="47.57825" lon="6.79182">
        <ele>393</ele>
        <time>2016-12-04T09:26:07.999Z</time>
      </trkpt>
      <trkpt lat="47.57827" lon="6.7917">
        <ele>393</ele>
        <time>2016-12-04T09:26:08.999Z</time>
      </trkpt>
      <trkpt lat="47.5783" lon="6.79158">
        <ele>392</ele>
        <time>2016-12-04T09:26:09.999Z</time>
      </trkpt>
      <trkpt lat="47.57833" lon="6.79146">
        <ele>393</ele>
        <time>2016-12-04T09:26:10.999Z</time>
      </trkpt>
      <trkpt lat="47.57838" lon="6.79136">
        <ele>393</ele>
        <time>2016-12-04T09:26:11.999Z</time>
      </trkpt>
      <trkpt lat="47.57843" lon="6.79127">
        <ele>393</ele>
        <time>2016-12-04T09:26:12.999Z</time>
      </trkpt>
      <trkpt lat="47.5785" lon="6.79121">
        <ele>393</ele>
        <time>2016-12-04T09:26:13.999Z</time>
      </trkpt>
      <trkpt lat="47.57857" lon="6.79118">
        <ele>394</ele>
        <time>2016-12-04T09:26:14.999Z</time>
      </trkpt>
      <trkpt lat="47.57864" lon="6.79116">
        <ele>394</ele>
        <time>2016-12-04T09:26:15.999Z</time>
      </trkpt>
      <trkpt lat="47.57871" lon="6.79114">
        <ele>394</ele>
        <time>2016-12-04T09:26:16.999Z</time>
      </trkpt>
      <trkpt lat="47.57879" lon="6.79111">
        <ele>394</ele>
        <time>2016-12-04T09:26:17.999Z</time>
      </trkpt>
      <trkpt lat="47.57887" lon="6.7911">
        <ele>395</ele>
        <time>2016-12-04T09:26:18.999Z</time>
      </trkpt>
      <trkpt lat="47.57895" lon="6.79108">
        <ele>395</ele>
        <time>2016-12-04T09:26:19.999Z</time>
      </trkpt>
      <trkpt lat="47.57902" lon="6.7911">
        <ele>395</ele>
        <time>2016-12-04T09:26:20.999Z</time>
      </trkpt>
      <trkpt lat="47.5791" lon="6.79112">
        <ele>395</ele>
        <time>2016-12-04T09:26:21.999Z</time>
      </trkpt>
      <trkpt lat="47.57917" lon="6.7911">
        <ele>392</ele>
        <time>2016-12-04T09:26:22.999Z</time>
      </trkpt>
      <trkpt lat="47.57923" lon="6.79111">
        <ele>392</ele>
        <time>2016-12-04T09:26:23.999Z</time>
      </trkpt>
      <trkpt lat="47.57928" lon="6.79112">
        <ele>391</ele>
        <time>2016-12-04T09:26:24.999Z</time>
      </trkpt>
      <trkpt lat="47.57934" lon="6.79111">
        <ele>391</ele>
        <time>2016-12-04T09:26:25.999Z</time>
      </trkpt>
      <trkpt lat="47.57938" lon="6.79111">
        <ele>391</ele>
        <time>2016-12-04T09:26:26.999Z</time>
      </trkpt>
      <trkpt lat="47.57943" lon="6.79106">
        <ele>390</ele>
        <time>2016-12-04T09:26:27.999Z</time>
      </trkpt>
      <trkpt lat="47.57947" lon="6.79103">
        <ele>390</ele>
        <time>2016-12-04T09:26:28.999Z</time>
      </trkpt>
      <trkpt lat="47.57953" lon="6.79102">
        <ele>389</ele>
        <time>2016-12-04T09:26:29.999Z</time>
      </trkpt>
      <trkpt lat="47.57958" lon="6.791">
        <ele>389</ele>
        <time>2016-12-04T09:26:30.999Z</time>
      </trkpt>
      <trkpt lat="47.57965" lon="6.79099">
        <ele>388</ele>
        <time>2016-12-04T09:26:31.999Z</time>
      </trkpt>
      <trkpt lat="47.5797" lon="6.79102">
        <ele>387</ele>
        <time>2016-12-04T09:26:32.999Z</time>
      </trkpt>
      <trkpt lat="47.57973" lon="6.79108">
        <ele>387</ele>
        <time>2016-12-04T09:26:33.999Z</time>
      </trkpt>
      <trkpt lat="47.57978" lon="6.79115">
        <ele>387</ele>
        <time>2016-12-04T09:26:34.999Z</time>
      </trkpt>
      <trkpt lat="47.57982" lon="6.79122">
        <ele>386</ele>
        <time>2016-12-04T09:26:35.999Z</time>
      </trkpt>
      <trkpt lat="47.57985" lon="6.7913">
        <ele>386</ele>
        <time>2016-12-04T09:26:36.999Z</time>
      </trkpt>
      <trkpt lat="47.57987" lon="6.79137">
        <ele>386</ele>
        <time>2016-12-04T09:26:37.999Z</time>
      </trkpt>
      <trkpt lat="47.5799" lon="6.79141">
        <ele>385</ele>
        <time>2016-12-04T09:26:38.999Z</time>
      </trkpt>
      <trkpt lat="47.57992" lon="6.79146">
        <ele>385</ele>
        <time>2016-12-04T09:26:39.999Z</time>
      </trkpt>
      <trkpt lat="47.57996" lon="6.79147">
        <ele>384</ele>
        <time>2016-12-04T09:26:40.999Z</time>
      </trkpt>
      <trkpt lat="47.57999" lon="6.79148">
        <ele>384</ele>
        <time>2016-12-04T09:26:41.999Z</time>
      </trkpt>
      <trkpt lat="47.58002" lon="6.79148">
        <ele>376</ele>
        <time>2016-12-04T09:26:42.999Z</time>
      </trkpt>
      <trkpt lat="47.58007" lon="6.79147">
        <ele>376</ele>
        <time>2016-12-04T09:26:43.999Z</time>
      </trkpt>
      <trkpt lat="47.58011" lon="6.79145">
        <ele>376</ele>
        <time>2016-12-04T09:26:44.999Z</time>
      </trkpt>
      <trkpt lat="47.58017" lon="6.79145">
        <ele>375</ele>
        <time>2016-12-04T09:26:45.999Z</time>
      </trkpt>
      <trkpt lat="47.58024" lon="6.79143">
        <ele>374</ele>
        <time>2016-12-04T09:26:46.999Z</time>
      </trkpt>
      <trkpt lat="47.58031" lon="6.79142">
        <ele>374</ele>
        <time>2016-12-04T09:26:47.999Z</time>
      </trkpt>
      <trkpt lat="47.58038" lon="6.79141">
        <ele>373</ele>
        <time>2016-12-04T09:26:48.999Z</time>
      </trkpt>
      <trkpt lat="47.58044" lon="6.79143">
        <ele>372</ele>
        <time>2016-12-04T09:26:49.999Z</time>
      </trkpt>
      <trkpt lat="47.58048" lon="6.79149">
        <ele>372</ele>
        <time>2016-12-04T09:26:50.999Z</time>
      </trkpt>
      <trkpt lat="47.58053" lon="6.79157">
        <ele>371</ele>
        <time>2016-12-04T09:26:51.999Z</time>
      </trkpt>
      <trkpt lat="47.58059" lon="6.79162">
        <ele>370</ele>
        <time>2016-12-04T09:26:52.999Z</time>
      </trkpt>
      <trkpt lat="47.58061" lon="6.79166">
        <ele>370</ele>
        <time>2016-12-04T09:26:53.999Z</time>
      </trkpt>
      <trkpt lat="47.58064" lon="6.79168">
        <ele>371</ele>
        <time>2016-12-04T09:26:54.999Z</time>
      </trkpt>
      <trkpt lat="47.58066" lon="6.79173">
        <ele>371</ele>
        <time>2016-12-04T09:26:55.999Z</time>
      </trkpt>
      <trkpt lat="47.58067" lon="6.79178">
        <ele>371</ele>
        <time>2016-12-04T09:26:56.999Z</time>
      </trkpt>
      <trkpt lat="47.58067" lon="6.79179">
        <ele>371</ele>
        <time>2016-12-04T09:27:00.999Z</time>
      </trkpt>
      <trkpt lat="47.58072" lon="6.79181">
        <ele>371</ele>
        <time>2016-12-04T09:27:01.999Z</time>
      </trkpt>
      <trkpt lat="47.58075" lon="6.79182">
        <ele>371</ele>
        <time>2016-12-04T09:27:02.999Z</time>
      </trkpt>
      <trkpt lat="47.5808" lon="6.79184">
        <ele>370</ele>
        <time>2016-12-04T09:27:03.999Z</time>
      </trkpt>
      <trkpt lat="47.58087" lon="6.79188">
        <ele>365</ele>
        <time>2016-12-04T09:27:04.999Z</time>
      </trkpt>
      <trkpt lat="47.58091" lon="6.79193">
        <ele>365</ele>
        <time>2016-12-04T09:27:05.999Z</time>
      </trkpt>
      <trkpt lat="47.58093" lon="6.79196">
        <ele>365</ele>
        <time>2016-12-04T09:27:06.999Z</time>
      </trkpt>
      <trkpt lat="47.58095" lon="6.79197">
        <ele>365</ele>
        <time>2016-12-04T09:27:07.999Z</time>
      </trkpt>
      <trkpt lat="47.58099" lon="6.79198">
        <ele>365</ele>
        <time>2016-12-04T09:27:09.999Z</time>
      </trkpt>
      <trkpt lat="47.58101" lon="6.79198">
        <ele>365</ele>
        <time>2016-12-04T09:27:10.999Z</time>
      </trkpt>
      <trkpt lat="47.58104" lon="6.792">
        <ele>364</ele>
        <time>2016-12-04T09:27:11.999Z</time>
      </trkpt>
      <trkpt lat="47.58106" lon="6.79203">
        <ele>364</ele>
        <time>2016-12-04T09:27:12.999Z</time>
      </trkpt>
      <trkpt lat="47.5811" lon="6.79205">
        <ele>364</ele>
        <time>2016-12-04T09:27:13.999Z</time>
      </trkpt>
      <trkpt lat="47.58113" lon="6.79208">
        <ele>364</ele>
        <time>2016-12-04T09:27:14.999Z</time>
      </trkpt>
      <trkpt lat="47.58118" lon="6.7921">
        <ele>364</ele>
        <time>2016-12-04T09:27:15.999Z</time>
      </trkpt>
      <trkpt lat="47.58123" lon="6.79212">
        <ele>364</ele>
        <time>2016-12-04T09:27:16.999Z</time>
      </trkpt>
      <trkpt lat="47.58127" lon="6.79214">
        <ele>364</ele>
        <time>2016-12-04T09:27:17.999Z</time>
      </trkpt>
      <trkpt lat="47.58131" lon="6.79218">
        <ele>364</ele>
        <time>2016-12-04T09:27:18.999Z</time>
      </trkpt>
      <trkpt lat="47.58133" lon="6.79218">
        <ele>364</ele>
        <time>2016-12-04T09:27:19.999Z</time>
      </trkpt>
      <trkpt lat="47.58137" lon="6.79219">
        <ele>363</ele>
        <time>2016-12-04T09:27:20.999Z</time>
      </trkpt>
      <trkpt lat="47.58141" lon="6.79219">
        <ele>363</ele>
        <time>2016-12-04T09:27:21.999Z</time>
      </trkpt>
      <trkpt lat="47.58145" lon="6.79219">
        <ele>363</ele>
        <time>2016-12-04T09:27:22.999Z</time>
      </trkpt>
      <trkpt lat="47.58148" lon="6.79221">
        <ele>363</ele>
        <time>2016-12-04T09:27:23.999Z</time>
      </trkpt>
      <trkpt lat="47.58151" lon="6.79221">
        <ele>363</ele>
        <time>2016-12-04T09:27:24.999Z</time>
      </trkpt>
      <trkpt lat="47.58155" lon="6.79222">
        <ele>363</ele>
        <time>2016-12-04T09:27:25.999Z</time>
      </trkpt>
      <trkpt lat="47.58159" lon="6.7922">
        <ele>363</ele>
        <time>2016-12-04T09:27:26.999Z</time>
      </trkpt>
      <trkpt lat="47.58164" lon="6.7922">
        <ele>363</ele>
        <time>2016-12-04T09:27:27.999Z</time>
      </trkpt>
      <trkpt lat="47.5817" lon="6.79221">
        <ele>359</ele>
        <time>2016-12-04T09:27:28.999Z</time>
      </trkpt>
      <trkpt lat="47.58175" lon="6.79221">
        <ele>359</ele>
        <time>2016-12-04T09:27:29.999Z</time>
      </trkpt>
      <trkpt lat="47.58181" lon="6.79222">
        <ele>359</ele>
        <time>2016-12-04T09:27:30.999Z</time>
      </trkpt>
      <trkpt lat="47.58187" lon="6.7922">
        <ele>359</ele>
        <time>2016-12-04T09:27:31.999Z</time>
      </trkpt>
      <trkpt lat="47.58194" lon="6.7922">
        <ele>358</ele>
        <time>2016-12-04T09:27:32.999Z</time>
      </trkpt>
      <trkpt lat="47.58202" lon="6.7922">
        <ele>358</ele>
        <time>2016-12-04T09:27:33.999Z</time>
      </trkpt>
      <trkpt lat="47.58209" lon="6.79221">
        <ele>358</ele>
        <time>2016-12-04T09:27:34.999Z</time>
      </trkpt>
      <trkpt lat="47.58217" lon="6.79222">
        <ele>358</ele>
        <time>2016-12-04T09:27:35.999Z</time>
      </trkpt>
      <trkpt lat="47.58223" lon="6.79223">
        <ele>358</ele>
        <time>2016-12-04T09:27:36.999Z</time>
      </trkpt>
      <trkpt lat="47.58229" lon="6.79223">
        <ele>358</ele>
        <time>2016-12-04T09:27:37.999Z</time>
      </trkpt>
      <trkpt lat="47.58236" lon="6.79222">
        <ele>358</ele>
        <time>2016-12-04T09:27:38.999Z</time>
      </trkpt>
      <trkpt lat="47.58243" lon="6.79222">
        <ele>357</ele>
        <time>2016-12-04T09:27:39.999Z</time>
      </trkpt>
      <trkpt lat="47.5825" lon="6.79221">
        <ele>357</ele>
        <time>2016-12-04T09:27:40.999Z</time>
      </trkpt>
      <trkpt lat="47.58257" lon="6.79219">
        <ele>355</ele>
        <time>2016-12-04T09:27:41.999Z</time>
      </trkpt>
      <trkpt lat="47.58265" lon="6.79218">
        <ele>355</ele>
        <time>2016-12-04T09:27:42.999Z</time>
      </trkpt>
      <trkpt lat="47.58272" lon="6.79217">
        <ele>355</ele>
        <time>2016-12-04T09:27:43.999Z</time>
      </trkpt>
      <trkpt lat="47.58278" lon="6.79216">
        <ele>354</ele>
        <time>2016-12-04T09:27:44.999Z</time>
      </trkpt>
      <trkpt lat="47.58285" lon="6.79215">
        <ele>354</ele>
        <time>2016-12-04T09:27:45.999Z</time>
      </trkpt>
      <trkpt lat="47.58292" lon="6.79215">
        <ele>354</ele>
        <time>2016-12-04T09:27:46.999Z</time>
      </trkpt>
      <trkpt lat="47.58297" lon="6.79215">
        <ele>354</ele>
        <time>2016-12-04T09:27:47.999Z</time>
      </trkpt>
      <trkpt lat="47.58303" lon="6.79215">
        <ele>354</ele>
        <time>2016-12-04T09:27:48.999Z</time>
      </trkpt>
      <trkpt lat="47.58309" lon="6.79215">
        <ele>354</ele>
        <time>2016-12-04T09:27:49.999Z</time>
      </trkpt>
      <trkpt lat="47.58315" lon="6.79214">
        <ele>354</ele>
        <time>2016-12-04T09:27:50.999Z</time>
      </trkpt>
      <trkpt lat="47.58322" lon="6.79214">
        <ele>354</ele>
        <time>2016-12-04T09:27:51.999Z</time>
      </trkpt>
      <trkpt lat="47.58328" lon="6.79214">
        <ele>354</ele>
        <time>2016-12-04T09:27:52.999Z</time>
      </trkpt>
      <trkpt lat="47.58335" lon="6.79213">
        <ele>353</ele>
        <time>2016-12-04T09:27:53.999Z</time>
      </trkpt>
      <trkpt lat="47.58341" lon="6.79213">
        <ele>353</ele>
        <time>2016-12-04T09:27:54.999Z</time>
      </trkpt>
      <trkpt lat="47.58346" lon="6.79212">
        <ele>353</ele>
        <time>2016-12-04T09:27:55.999Z</time>
      </trkpt>
      <trkpt lat="47.58352" lon="6.79211">
        <ele>353</ele>
        <time>2016-12-04T09:27:56.999Z</time>
      </trkpt>
      <trkpt lat="47.58357" lon="6.79211">
        <ele>354</ele>
        <time>2016-12-04T09:27:57.999Z</time>
      </trkpt>
      <trkpt lat="47.58363" lon="6.7921">
        <ele>354</ele>
        <time>2016-12-04T09:27:58.999Z</time>
      </trkpt>
      <trkpt lat="47.58367" lon="6.79209">
        <ele>354</ele>
        <time>2016-12-04T09:27:59.999Z</time>
      </trkpt>
      <trkpt lat="47.58373" lon="6.79208">
        <ele>354</ele>
        <time>2016-12-04T09:28:00.999Z</time>
      </trkpt>
      <trkpt lat="47.58377" lon="6.79207">
        <ele>354</ele>
        <time>2016-12-04T09:28:01.999Z</time>
      </trkpt>
      <trkpt lat="47.58382" lon="6.79206">
        <ele>354</ele>
        <time>2016-12-04T09:28:02.999Z</time>
      </trkpt>
      <trkpt lat="47.58385" lon="6.79205">
        <ele>354</ele>
        <time>2016-12-04T09:28:03.999Z</time>
      </trkpt>
      <trkpt lat="47.58389" lon="6.79204">
        <ele>354</ele>
        <time>2016-12-04T09:28:04.999Z</time>
      </trkpt>
      <trkpt lat="47.58394" lon="6.79203">
        <ele>354</ele>
        <time>2016-12-04T09:28:05.999Z</time>
      </trkpt>
      <trkpt lat="47.58399" lon="6.79202">
        <ele>354</ele>
        <time>2016-12-04T09:28:06.999Z</time>
      </trkpt>
      <trkpt lat="47.58402" lon="6.79201">
        <ele>354</ele>
        <time>2016-12-04T09:28:07.999Z</time>
      </trkpt>
      <trkpt lat="47.58406" lon="6.792">
        <ele>354</ele>
        <time>2016-12-04T09:28:08.999Z</time>
      </trkpt>
      <trkpt lat="47.5841" lon="6.79199">
        <ele>354</ele>
        <time>2016-12-04T09:28:09.999Z</time>
      </trkpt>
      <trkpt lat="47.58415" lon="6.79197">
        <ele>354</ele>
        <time>2016-12-04T09:28:10.999Z</time>
      </trkpt>
      <trkpt lat="47.5842" lon="6.79196">
        <ele>355</ele>
        <time>2016-12-04T09:28:11.999Z</time>
      </trkpt>
      <trkpt lat="47.58424" lon="6.79194">
        <ele>355</ele>
        <time>2016-12-04T09:28:12.999Z</time>
      </trkpt>
      <trkpt lat="47.58429" lon="6.79193">
        <ele>355</ele>
        <time>2016-12-04T09:28:13.999Z</time>
      </trkpt>
      <trkpt lat="47.58434" lon="6.79193">
        <ele>355</ele>
        <time>2016-12-04T09:28:14.999Z</time>
      </trkpt>
      <trkpt lat="47.58437" lon="6.79193">
        <ele>355</ele>
        <time>2016-12-04T09:28:15.999Z</time>
      </trkpt>
      <trkpt lat="47.58442" lon="6.79194">
        <ele>355</ele>
        <time>2016-12-04T09:28:16.999Z</time>
      </trkpt>
      <trkpt lat="47.58447" lon="6.79196">
        <ele>355</ele>
        <time>2016-12-04T09:28:17.999Z</time>
      </trkpt>
      <trkpt lat="47.58451" lon="6.79199">
        <ele>355</ele>
        <time>2016-12-04T09:28:18.999Z</time>
      </trkpt>
      <trkpt lat="47.58456" lon="6.79201">
        <ele>355</ele>
        <time>2016-12-04T09:28:19.999Z</time>
      </trkpt>
      <trkpt lat="47.5846" lon="6.79203">
        <ele>355</ele>
        <time>2016-12-04T09:28:20.999Z</time>
      </trkpt>
      <trkpt lat="47.58464" lon="6.79205">
        <ele>355</ele>
        <time>2016-12-04T09:28:21.999Z</time>
      </trkpt>
      <trkpt lat="47.58467" lon="6.79206">
        <ele>356</ele>
        <time>2016-12-04T09:28:22.999Z</time>
      </trkpt>
      <trkpt lat="47.58471" lon="6.79208">
        <ele>356</ele>
        <time>2016-12-04T09:28:23.999Z</time>
      </trkpt>
      <trkpt lat="47.58474" lon="6.7921">
        <ele>356</ele>
        <time>2016-12-04T09:28:24.999Z</time>
      </trkpt>
      <trkpt lat="47.58479" lon="6.79212">
        <ele>356</ele>
        <time>2016-12-04T09:28:25.999Z</time>
      </trkpt>
      <trkpt lat="47.58484" lon="6.79214">
        <ele>356</ele>
        <time>2016-12-04T09:28:26.999Z</time>
      </trkpt>
      <trkpt lat="47.58488" lon="6.79215">
        <ele>356</ele>
        <time>2016-12-04T09:28:27.999Z</time>
      </trkpt>
      <trkpt lat="47.58492" lon="6.79216">
        <ele>356</ele>
        <time>2016-12-04T09:28:28.999Z</time>
      </trkpt>
      <trkpt lat="47.58497" lon="6.79217">
        <ele>356</ele>
        <time>2016-12-04T09:28:29.999Z</time>
      </trkpt>
      <trkpt lat="47.58502" lon="6.79218">
        <ele>356</ele>
        <time>2016-12-04T09:28:30.999Z</time>
      </trkpt>
      <trkpt lat="47.58506" lon="6.79218">
        <ele>356</ele>
        <time>2016-12-04T09:28:31.999Z</time>
      </trkpt>
      <trkpt lat="47.58511" lon="6.79217">
        <ele>356</ele>
        <time>2016-12-04T09:28:32.999Z</time>
      </trkpt>
      <trkpt lat="47.58516" lon="6.79217">
        <ele>356</ele>
        <time>2016-12-04T09:28:33.999Z</time>
      </trkpt>
      <trkpt lat="47.58521" lon="6.79216">
        <ele>356</ele>
        <time>2016-12-04T09:28:34.999Z</time>
      </trkpt>
      <trkpt lat="47.58526" lon="6.79215">
        <ele>356</ele>
        <time>2016-12-04T09:28:35.999Z</time>
      </trkpt>
      <trkpt lat="47.58529" lon="6.79214">
        <ele>356</ele>
        <time>2016-12-04T09:28:36.999Z</time>
      </trkpt>
      <trkpt lat="47.58533" lon="6.79212">
        <ele>356</ele>
        <time>2016-12-04T09:28:37.999Z</time>
      </trkpt>
      <trkpt lat="47.58537" lon="6.7921">
        <ele>356</ele>
        <time>2016-12-04T09:28:38.999Z</time>
      </trkpt>
      <trkpt lat="47.58541" lon="6.79208">
        <ele>356</ele>
        <time>2016-12-04T09:28:39.999Z</time>
      </trkpt>
      <trkpt lat="47.58545" lon="6.79206">
        <ele>356</ele>
        <time>2016-12-04T09:28:40.999Z</time>
      </trkpt>
      <trkpt lat="47.58549" lon="6.79204">
        <ele>356</ele>
        <time>2016-12-04T09:28:41.999Z</time>
      </trkpt>
      <trkpt lat="47.58554" lon="6.79201">
        <ele>356</ele>
        <time>2016-12-04T09:28:42.999Z</time>
      </trkpt>
      <trkpt lat="47.58559" lon="6.79198">
        <ele>356</ele>
        <time>2016-12-04T09:28:43.999Z</time>
      </trkpt>
      <trkpt lat="47.58563" lon="6.79195">
        <ele>356</ele>
        <time>2016-12-04T09:28:44.999Z</time>
      </trkpt>
      <trkpt lat="47.58568" lon="6.79192">
        <ele>356</ele>
        <time>2016-12-04T09:28:45.999Z</time>
      </trkpt>
      <trkpt lat="47.58573" lon="6.79189">
        <ele>356</ele>
        <time>2016-12-04T09:28:46.999Z</time>
      </trkpt>
      <trkpt lat="47.58578" lon="6.79186">
        <ele>356</ele>
        <time>2016-12-04T09:28:47.999Z</time>
      </trkpt>
      <trkpt lat="47.58583" lon="6.79183">
        <ele>356</ele>
        <time>2016-12-04T09:28:48.999Z</time>
      </trkpt>
      <trkpt lat="47.58589" lon="6.79181">
        <ele>356</ele>
        <time>2016-12-04T09:28:49.999Z</time>
      </trkpt>
      <trkpt lat="47.58595" lon="6.79177">
        <ele>356</ele>
        <time>2016-12-04T09:28:50.999Z</time>
      </trkpt>
      <trkpt lat="47.58601" lon="6.79173">
        <ele>356</ele>
        <time>2016-12-04T09:28:51.999Z</time>
      </trkpt>
      <trkpt lat="47.58607" lon="6.79169">
        <ele>355</ele>
        <time>2016-12-04T09:28:52.999Z</time>
      </trkpt>
      <trkpt lat="47.58613" lon="6.79166">
        <ele>355</ele>
        <time>2016-12-04T09:28:53.999Z</time>
      </trkpt>
      <trkpt lat="47.58618" lon="6.79163">
        <ele>355</ele>
        <time>2016-12-04T09:28:54.999Z</time>
      </trkpt>
      <trkpt lat="47.58624" lon="6.79159">
        <ele>355</ele>
        <time>2016-12-04T09:28:55.999Z</time>
      </trkpt>
      <trkpt lat="47.58629" lon="6.79154">
        <ele>355</ele>
        <time>2016-12-04T09:28:56.999Z</time>
      </trkpt>
      <trkpt lat="47.58635" lon="6.79149">
        <ele>355</ele>
        <time>2016-12-04T09:28:57.999Z</time>
      </trkpt>
      <trkpt lat="47.58641" lon="6.79145">
        <ele>354</ele>
        <time>2016-12-04T09:28:58.999Z</time>
      </trkpt>
      <trkpt lat="47.58648" lon="6.79141">
        <ele>354</ele>
        <time>2016-12-04T09:28:59.999Z</time>
      </trkpt>
      <trkpt lat="47.58653" lon="6.79137">
        <ele>354</ele>
        <time>2016-12-04T09:29:00.999Z</time>
      </trkpt>
      <trkpt lat="47.58658" lon="6.79134">
        <ele>354</ele>
        <time>2016-12-04T09:29:01.999Z</time>
      </trkpt>
      <trkpt lat="47.58664" lon="6.7913">
        <ele>354</ele>
        <time>2016-12-04T09:29:02.999Z</time>
      </trkpt>
      <trkpt lat="47.5867" lon="6.79127">
        <ele>354</ele>
        <time>2016-12-04T09:29:03.999Z</time>
      </trkpt>
      <trkpt lat="47.58676" lon="6.79123">
        <ele>354</ele>
        <time>2016-12-04T09:29:04.999Z</time>
      </trkpt>
      <trkpt lat="47.58681" lon="6.79119">
        <ele>354</ele>
        <time>2016-12-04T09:29:05.999Z</time>
      </trkpt>
      <trkpt lat="47.58686" lon="6.79116">
        <ele>354</ele>
        <time>2016-12-04T09:29:06.999Z</time>
      </trkpt>
      <trkpt lat="47.5869" lon="6.79113">
        <ele>354</ele>
        <time>2016-12-04T09:29:07.999Z</time>
      </trkpt>
      <trkpt lat="47.58694" lon="6.7911">
        <ele>354</ele>
        <time>2016-12-04T09:29:08.999Z</time>
      </trkpt>
      <trkpt lat="47.58698" lon="6.79108">
        <ele>354</ele>
        <time>2016-12-04T09:29:09.999Z</time>
      </trkpt>
      <trkpt lat="47.587" lon="6.79106">
        <ele>354</ele>
        <time>2016-12-04T09:29:10.999Z</time>
      </trkpt>
      <trkpt lat="47.58704" lon="6.79104">
        <ele>354</ele>
        <time>2016-12-04T09:29:11.999Z</time>
      </trkpt>
      <trkpt lat="47.58708" lon="6.79101">
        <ele>354</ele>
        <time>2016-12-04T09:29:12.999Z</time>
      </trkpt>
      <trkpt lat="47.58712" lon="6.79098">
        <ele>354</ele>
        <time>2016-12-04T09:29:13.999Z</time>
      </trkpt>
      <trkpt lat="47.58715" lon="6.79094">
        <ele>354</ele>
        <time>2016-12-04T09:29:14.999Z</time>
      </trkpt>
      <trkpt lat="47.5872" lon="6.79091">
        <ele>354</ele>
        <time>2016-12-04T09:29:15.999Z</time>
      </trkpt>
      <trkpt lat="47.58725" lon="6.79086">
        <ele>354</ele>
        <time>2016-12-04T09:29:16.999Z</time>
      </trkpt>
      <trkpt lat="47.58729" lon="6.79082">
        <ele>354</ele>
        <time>2016-12-04T09:29:17.999Z</time>
      </trkpt>
      <trkpt lat="47.58734" lon="6.79078">
        <ele>354</ele>
        <time>2016-12-04T09:29:18.999Z</time>
      </trkpt>
      <trkpt lat="47.58739" lon="6.79076">
        <ele>354</ele>
        <time>2016-12-04T09:29:19.999Z</time>
      </trkpt>
      <trkpt lat="47.58744" lon="6.79074">
        <ele>354</ele>
        <time>2016-12-04T09:29:20.999Z</time>
      </trkpt>
      <trkpt lat="47.58749" lon="6.79072">
        <ele>354</ele>
        <time>2016-12-04T09:29:21.999Z</time>
      </trkpt>
      <trkpt lat="47.58754" lon="6.79069">
        <ele>354</ele>
        <time>2016-12-04T09:29:22.999Z</time>
      </trkpt>
      <trkpt lat="47.58757" lon="6.79068">
        <ele>354</ele>
        <time>2016-12-04T09:29:23.999Z</time>
      </trkpt>
      <trkpt lat="47.58759" lon="6.79067">
        <ele>354</ele>
        <time>2016-12-04T09:29:24.999Z</time>
      </trkpt>
      <trkpt lat="47.58761" lon="6.79066">
        <ele>354</ele>
        <time>2016-12-04T09:29:25.999Z</time>
      </trkpt>
      <trkpt lat="47.58765" lon="6.79066">
        <ele>354</ele>
        <time>2016-12-04T09:29:26.999Z</time>
      </trkpt>
      <trkpt lat="47.5877" lon="6.79067">
        <ele>354</ele>
        <time>2016-12-04T09:29:27.999Z</time>
      </trkpt>
      <trkpt lat="47.58776" lon="6.79067">
        <ele>354</ele>
        <time>2016-12-04T09:29:28.999Z</time>
      </trkpt>
      <trkpt lat="47.58781" lon="6.79067">
        <ele>354</ele>
        <time>2016-12-04T09:29:29.999Z</time>
      </trkpt>
      <trkpt lat="47.58785" lon="6.79067">
        <ele>354</ele>
        <time>2016-12-04T09:29:30.999Z</time>
      </trkpt>
      <trkpt lat="47.5879" lon="6.79066">
        <ele>354</ele>
        <time>2016-12-04T09:29:31.999Z</time>
      </trkpt>
      <trkpt lat="47.58795" lon="6.79066">
        <ele>354</ele>
        <time>2016-12-04T09:29:32.999Z</time>
      </trkpt>
      <trkpt lat="47.58799" lon="6.79066">
        <ele>354</ele>
        <time>2016-12-04T09:29:33.999Z</time>
      </trkpt>
      <trkpt lat="47.58803" lon="6.79067">
        <ele>354</ele>
        <time>2016-12-04T09:29:34.999Z</time>
      </trkpt>
      <trkpt lat="47.58807" lon="6.79067">
        <ele>354</ele>
        <time>2016-12-04T09:29:35.999Z</time>
      </trkpt>
      <trkpt lat="47.58812" lon="6.79067">
        <ele>354</ele>
        <time>2016-12-04T09:29:36.999Z</time>
      </trkpt>
      <trkpt lat="47.58817" lon="6.79068">
        <ele>354</ele>
        <time>2016-12-04T09:29:37.999Z</time>
      </trkpt>
      <trkpt lat="47.58822" lon="6.79068">
        <ele>354</ele>
        <time>2016-12-04T09:29:38.999Z</time>
      </trkpt>
      <trkpt lat="47.58827" lon="6.79068">
        <ele>354</ele>
        <time>2016-12-04T09:29:39.999Z</time>
      </trkpt>
      <trkpt lat="47.58831" lon="6.79067">
        <ele>354</ele>
        <time>2016-12-04T09:29:40.999Z</time>
      </trkpt>
      <trkpt lat="47.58835" lon="6.79066">
        <ele>355</ele>
        <time>2016-12-04T09:29:41.999Z</time>
      </trkpt>
      <trkpt lat="47.58839" lon="6.79065">
        <ele>356</ele>
        <time>2016-12-04T09:29:42.999Z</time>
      </trkpt>
      <trkpt lat="47.58844" lon="6.79063">
        <ele>356</ele>
        <time>2016-12-04T09:29:43.999Z</time>
      </trkpt>
      <trkpt lat="47.58848" lon="6.79061">
        <ele>356</ele>
        <time>2016-12-04T09:29:44.999Z</time>
      </trkpt>
      <trkpt lat="47.58851" lon="6.79059">
        <ele>356</ele>
        <time>2016-12-04T09:29:45.999Z</time>
      </trkpt>
      <trkpt lat="47.58855" lon="6.79056">
        <ele>356</ele>
        <time>2016-12-04T09:29:46.999Z</time>
      </trkpt>
      <trkpt lat="47.58858" lon="6.79054">
        <ele>357</ele>
        <time>2016-12-04T09:29:47.999Z</time>
      </trkpt>
      <trkpt lat="47.58862" lon="6.79052">
        <ele>357</ele>
        <time>2016-12-04T09:29:48.999Z</time>
      </trkpt>
      <trkpt lat="47.58865" lon="6.79049">
        <ele>357</ele>
        <time>2016-12-04T09:29:49.999Z</time>
      </trkpt>
      <trkpt lat="47.58869" lon="6.79045">
        <ele>357</ele>
        <time>2016-12-04T09:29:50.999Z</time>
      </trkpt>
      <trkpt lat="47.58872" lon="6.79043">
        <ele>357</ele>
        <time>2016-12-04T09:29:51.999Z</time>
      </trkpt>
      <trkpt lat="47.58876" lon="6.7904">
        <ele>357</ele>
        <time>2016-12-04T09:29:52.999Z</time>
      </trkpt>
      <trkpt lat="47.5888" lon="6.79038">
        <ele>357</ele>
        <time>2016-12-04T09:29:53.999Z</time>
      </trkpt>
      <trkpt lat="47.58883" lon="6.79036">
        <ele>358</ele>
        <time>2016-12-04T09:29:54.999Z</time>
      </trkpt>
      <trkpt lat="47.58885" lon="6.79034">
        <ele>358</ele>
        <time>2016-12-04T09:29:55.999Z</time>
      </trkpt>
      <trkpt lat="47.58888" lon="6.79033">
        <ele>358</ele>
        <time>2016-12-04T09:29:56.999Z</time>
      </trkpt>
      <trkpt lat="47.58891" lon="6.79031">
        <ele>358</ele>
        <time>2016-12-04T09:29:57.999Z</time>
      </trkpt>
      <trkpt lat="47.58894" lon="6.79029">
        <ele>358</ele>
        <time>2016-12-04T09:29:58.999Z</time>
      </trkpt>
      <trkpt lat="47.58896" lon="6.79026">
        <ele>358</ele>
        <time>2016-12-04T09:29:59.999Z</time>
      </trkpt>
      <trkpt lat="47.58899" lon="6.79024">
        <ele>359</ele>
        <time>2016-12-04T09:30:00.999Z</time>
      </trkpt>
      <trkpt lat="47.58901" lon="6.79022">
        <ele>359</ele>
        <time>2016-12-04T09:30:01.999Z</time>
      </trkpt>
      <trkpt lat="47.58904" lon="6.79021">
        <ele>359</ele>
        <time>2016-12-04T09:30:02.999Z</time>
      </trkpt>
      <trkpt lat="47.58906" lon="6.79018">
        <ele>359</ele>
        <time>2016-12-04T09:30:03.999Z</time>
      </trkpt>
      <trkpt lat="47.5891" lon="6.79016">
        <ele>360</ele>
        <time>2016-12-04T09:30:05.999Z</time>
      </trkpt>
      <trkpt lat="47.58912" lon="6.79014">
        <ele>360</ele>
        <time>2016-12-04T09:30:06.999Z</time>
      </trkpt>
      <trkpt lat="47.58914" lon="6.79012">
        <ele>360</ele>
        <time>2016-12-04T09:30:07.999Z</time>
      </trkpt>
      <trkpt lat="47.58917" lon="6.7901">
        <ele>363</ele>
        <time>2016-12-04T09:30:08.999Z</time>
      </trkpt>
      <trkpt lat="47.58921" lon="6.79007">
        <ele>363</ele>
        <time>2016-12-04T09:30:10.999Z</time>
      </trkpt>
      <trkpt lat="47.58922" lon="6.79006">
        <ele>363</ele>
        <time>2016-12-04T09:30:11.999Z</time>
      </trkpt>
      <trkpt lat="47.58925" lon="6.79004">
        <ele>363</ele>
        <time>2016-12-04T09:30:13.999Z</time>
      </trkpt>
      <trkpt lat="47.58927" lon="6.79003">
        <ele>363</ele>
        <time>2016-12-04T09:30:14.999Z</time>
      </trkpt>
      <trkpt lat="47.5893" lon="6.79">
        <ele>363</ele>
        <time>2016-12-04T09:30:16.999Z</time>
      </trkpt>
      <trkpt lat="47.58932" lon="6.79">
        <ele>363</ele>
        <time>2016-12-04T09:30:17.999Z</time>
      </trkpt>
      <trkpt lat="47.58936" lon="6.78999">
        <ele>365</ele>
        <time>2016-12-04T09:30:19.999Z</time>
      </trkpt>
      <trkpt lat="47.58938" lon="6.78999">
        <ele>365</ele>
        <time>2016-12-04T09:30:20.999Z</time>
      </trkpt>
      <trkpt lat="47.58942" lon="6.78997">
        <ele>365</ele>
        <time>2016-12-04T09:30:22.999Z</time>
      </trkpt>
      <trkpt lat="47.58943" lon="6.78996">
        <ele>365</ele>
        <time>2016-12-04T09:30:23.999Z</time>
      </trkpt>
      <trkpt lat="47.58946" lon="6.78995">
        <ele>366</ele>
        <time>2016-12-04T09:30:25.999Z</time>
      </trkpt>
      <trkpt lat="47.58947" lon="6.78994">
        <ele>366</ele>
        <time>2016-12-04T09:30:26.999Z</time>
      </trkpt>
      <trkpt lat="47.58951" lon="6.78992">
        <ele>366</ele>
        <time>2016-12-04T09:30:28.999Z</time>
      </trkpt>
      <trkpt lat="47.58952" lon="6.78991">
        <ele>366</ele>
        <time>2016-12-04T09:30:29.999Z</time>
      </trkpt>
      <trkpt lat="47.58956" lon="6.7899">
        <ele>366</ele>
        <time>2016-12-04T09:30:31.999Z</time>
      </trkpt>
      <trkpt lat="47.58958" lon="6.78989">
        <ele>367</ele>
        <time>2016-12-04T09:30:32.999Z</time>
      </trkpt>
      <trkpt lat="47.58962" lon="6.78988">
        <ele>367</ele>
        <time>2016-12-04T09:30:34.999Z</time>
      </trkpt>
      <trkpt lat="47.58963" lon="6.78987">
        <ele>367</ele>
        <time>2016-12-04T09:30:35.999Z</time>
      </trkpt>
      <trkpt lat="47.58967" lon="6.78985">
        <ele>367</ele>
        <time>2016-12-04T09:30:37.999Z</time>
      </trkpt>
      <trkpt lat="47.58969" lon="6.78984">
        <ele>367</ele>
        <time>2016-12-04T09:30:38.999Z</time>
      </trkpt>
      <trkpt lat="47.58972" lon="6.78983">
        <ele>368</ele>
        <time>2016-12-04T09:30:40.999Z</time>
      </trkpt>
      <trkpt lat="47.58973" lon="6.78982">
        <ele>368</ele>
        <time>2016-12-04T09:30:41.999Z</time>
      </trkpt>
      <trkpt lat="47.58977" lon="6.7898">
        <ele>368</ele>
        <time>2016-12-04T09:30:43.999Z</time>
      </trkpt>
      <trkpt lat="47.58978" lon="6.78979">
        <ele>368</ele>
        <time>2016-12-04T09:30:44.999Z</time>
      </trkpt>
      <trkpt lat="47.58982" lon="6.78979">
        <ele>368</ele>
        <time>2016-12-04T09:30:46.999Z</time>
      </trkpt>
      <trkpt lat="47.58983" lon="6.78979">
        <ele>368</ele>
        <time>2016-12-04T09:30:47.999Z</time>
      </trkpt>
      <trkpt lat="47.58987" lon="6.78979">
        <ele>368</ele>
        <time>2016-12-04T09:30:49.999Z</time>
      </trkpt>
      <trkpt lat="47.58989" lon="6.78978">
        <ele>368</ele>
        <time>2016-12-04T09:30:50.999Z</time>
      </trkpt>
      <trkpt lat="47.58991" lon="6.78978">
        <ele>368</ele>
        <time>2016-12-04T09:30:51.999Z</time>
      </trkpt>
      <trkpt lat="47.58994" lon="6.78977">
        <ele>369</ele>
        <time>2016-12-04T09:30:52.999Z</time>
      </trkpt>
      <trkpt lat="47.58999" lon="6.78977">
        <ele>369</ele>
        <time>2016-12-04T09:30:54.999Z</time>
      </trkpt>
      <trkpt lat="47.59001" lon="6.78977">
        <ele>372</ele>
        <time>2016-12-04T09:30:55.999Z</time>
      </trkpt>
      <trkpt lat="47.59004" lon="6.78976">
        <ele>372</ele>
        <time>2016-12-04T09:30:57.999Z</time>
      </trkpt>
      <trkpt lat="47.59006" lon="6.78976">
        <ele>372</ele>
        <time>2016-12-04T09:30:58.999Z</time>
      </trkpt>
      <trkpt lat="47.59009" lon="6.78976">
        <ele>372</ele>
        <time>2016-12-04T09:30:59.999Z</time>
      </trkpt>
      <trkpt lat="47.59011" lon="6.78976">
        <ele>372</ele>
        <time>2016-12-04T09:31:00.999Z</time>
      </trkpt>
      <trkpt lat="47.59013" lon="6.78976">
        <ele>372</ele>
        <time>2016-12-04T09:31:01.999Z</time>
      </trkpt>
      <trkpt lat="47.59016" lon="6.78975">
        <ele>372</ele>
        <time>2016-12-04T09:31:02.999Z</time>
      </trkpt>
      <trkpt lat="47.59019" lon="6.78974">
        <ele>372</ele>
        <time>2016-12-04T09:31:04.999Z</time>
      </trkpt>
      <trkpt lat="47.59021" lon="6.78973">
        <ele>372</ele>
        <time>2016-12-04T09:31:05.999Z</time>
      </trkpt>
      <trkpt lat="47.59025" lon="6.78972">
        <ele>372</ele>
        <time>2016-12-04T09:31:07.999Z</time>
      </trkpt>
      <trkpt lat="47.59027" lon="6.78971">
        <ele>372</ele>
        <time>2016-12-04T09:31:08.999Z</time>
      </trkpt>
      <trkpt lat="47.59031" lon="6.7897">
        <ele>372</ele>
        <time>2016-12-04T09:31:10.999Z</time>
      </trkpt>
      <trkpt lat="47.59033" lon="6.7897">
        <ele>372</ele>
        <time>2016-12-04T09:31:11.999Z</time>
      </trkpt>
      <trkpt lat="47.59037" lon="6.78968">
        <ele>372</ele>
        <time>2016-12-04T09:31:13.999Z</time>
      </trkpt>
      <trkpt lat="47.59038" lon="6.78968">
        <ele>373</ele>
        <time>2016-12-04T09:31:14.999Z</time>
      </trkpt>
      <trkpt lat="47.59043" lon="6.78967">
        <ele>373</ele>
        <time>2016-12-04T09:31:16.999Z</time>
      </trkpt>
      <trkpt lat="47.59045" lon="6.78967">
        <ele>373</ele>
        <time>2016-12-04T09:31:17.999Z</time>
      </trkpt>
      <trkpt lat="47.59049" lon="6.78966">
        <ele>373</ele>
        <time>2016-12-04T09:31:19.999Z</time>
      </trkpt>
      <trkpt lat="47.59051" lon="6.78964">
        <ele>373</ele>
        <time>2016-12-04T09:31:20.999Z</time>
      </trkpt>
      <trkpt lat="47.59053" lon="6.78963">
        <ele>373</ele>
        <time>2016-12-04T09:31:21.999Z</time>
      </trkpt>
      <trkpt lat="47.59055" lon="6.78962">
        <ele>373</ele>
        <time>2016-12-04T09:31:22.999Z</time>
      </trkpt>
      <trkpt lat="47.59058" lon="6.78961">
        <ele>373</ele>
        <time>2016-12-04T09:31:24.999Z</time>
      </trkpt>
      <trkpt lat="47.5906" lon="6.7896">
        <ele>373</ele>
        <time>2016-12-04T09:31:25.999Z</time>
      </trkpt>
      <trkpt lat="47.59064" lon="6.78958">
        <ele>373</ele>
        <time>2016-12-04T09:31:27.999Z</time>
      </trkpt>
      <trkpt lat="47.59066" lon="6.78958">
        <ele>373</ele>
        <time>2016-12-04T09:31:28.999Z</time>
      </trkpt>
      <trkpt lat="47.5907" lon="6.78957">
        <ele>373</ele>
        <time>2016-12-04T09:31:30.999Z</time>
      </trkpt>
      <trkpt lat="47.59073" lon="6.78956">
        <ele>373</ele>
        <time>2016-12-04T09:31:31.999Z</time>
      </trkpt>
      <trkpt lat="47.59076" lon="6.78955">
        <ele>373</ele>
        <time>2016-12-04T09:31:32.999Z</time>
      </trkpt>
      <trkpt lat="47.59079" lon="6.78954">
        <ele>373</ele>
        <time>2016-12-04T09:31:33.999Z</time>
      </trkpt>
      <trkpt lat="47.59081" lon="6.78953">
        <ele>373</ele>
        <time>2016-12-04T09:31:34.999Z</time>
      </trkpt>
      <trkpt lat="47.59084" lon="6.78952">
        <ele>376</ele>
        <time>2016-12-04T09:31:35.999Z</time>
      </trkpt>
      <trkpt lat="47.59087" lon="6.78952">
        <ele>376</ele>
        <time>2016-12-04T09:31:36.999Z</time>
      </trkpt>
      <trkpt lat="47.59091" lon="6.78951">
        <ele>376</ele>
        <time>2016-12-04T09:31:37.999Z</time>
      </trkpt>
      <trkpt lat="47.59094" lon="6.7895">
        <ele>376</ele>
        <time>2016-12-04T09:31:38.999Z</time>
      </trkpt>
      <trkpt lat="47.59097" lon="6.7895">
        <ele>376</ele>
        <time>2016-12-04T09:31:39.999Z</time>
      </trkpt>
      <trkpt lat="47.59101" lon="6.78949">
        <ele>376</ele>
        <time>2016-12-04T09:31:40.999Z</time>
      </trkpt>
      <trkpt lat="47.59103" lon="6.78947">
        <ele>376</ele>
        <time>2016-12-04T09:31:41.999Z</time>
      </trkpt>
      <trkpt lat="47.59106" lon="6.78946">
        <ele>376</ele>
        <time>2016-12-04T09:31:42.999Z</time>
      </trkpt>
      <trkpt lat="47.5911" lon="6.78945">
        <ele>376</ele>
        <time>2016-12-04T09:31:43.999Z</time>
      </trkpt>
      <trkpt lat="47.59113" lon="6.78944">
        <ele>376</ele>
        <time>2016-12-04T09:31:44.999Z</time>
      </trkpt>
      <trkpt lat="47.59116" lon="6.78943">
        <ele>376</ele>
        <time>2016-12-04T09:31:45.999Z</time>
      </trkpt>
      <trkpt lat="47.59119" lon="6.78942">
        <ele>376</ele>
        <time>2016-12-04T09:31:46.999Z</time>
      </trkpt>
      <trkpt lat="47.59123" lon="6.78942">
        <ele>376</ele>
        <time>2016-12-04T09:31:47.999Z</time>
      </trkpt>
      <trkpt lat="47.59126" lon="6.78941">
        <ele>376</ele>
        <time>2016-12-04T09:31:48.999Z</time>
      </trkpt>
      <trkpt lat="47.59129" lon="6.7894">
        <ele>376</ele>
        <time>2016-12-04T09:31:49.999Z</time>
      </trkpt>
      <trkpt lat="47.59132" lon="6.78939">
        <ele>376</ele>
        <time>2016-12-04T09:31:50.999Z</time>
      </trkpt>
      <trkpt lat="47.59136" lon="6.78938">
        <ele>376</ele>
        <time>2016-12-04T09:31:51.999Z</time>
      </trkpt>
      <trkpt lat="47.5914" lon="6.78937">
        <ele>376</ele>
        <time>2016-12-04T09:31:52.999Z</time>
      </trkpt>
      <trkpt lat="47.59144" lon="6.78935">
        <ele>376</ele>
        <time>2016-12-04T09:31:53.999Z</time>
      </trkpt>
      <trkpt lat="47.59148" lon="6.78934">
        <ele>376</ele>
        <time>2016-12-04T09:31:54.999Z</time>
      </trkpt>
      <trkpt lat="47.59152" lon="6.78933">
        <ele>376</ele>
        <time>2016-12-04T09:31:55.999Z</time>
      </trkpt>
      <trkpt lat="47.59155" lon="6.78932">
        <ele>376</ele>
        <time>2016-12-04T09:31:56.999Z</time>
      </trkpt>
      <trkpt lat="47.59159" lon="6.78931">
        <ele>376</ele>
        <time>2016-12-04T09:31:57.999Z</time>
      </trkpt>
      <trkpt lat="47.59163" lon="6.78929">
        <ele>376</ele>
        <time>2016-12-04T09:31:58.999Z</time>
      </trkpt>
      <trkpt lat="47.59168" lon="6.78928">
        <ele>377</ele>
        <time>2016-12-04T09:31:59.999Z</time>
      </trkpt>
      <trkpt lat="47.59173" lon="6.78927">
        <ele>377</ele>
        <time>2016-12-04T09:32:00.999Z</time>
      </trkpt>
      <trkpt lat="47.59177" lon="6.78925">
        <ele>377</ele>
        <time>2016-12-04T09:32:01.999Z</time>
      </trkpt>
      <trkpt lat="47.59183" lon="6.78924">
        <ele>378</ele>
        <time>2016-12-04T09:32:02.999Z</time>
      </trkpt>
      <trkpt lat="47.59188" lon="6.78923">
        <ele>378</ele>
        <time>2016-12-04T09:32:03.999Z</time>
      </trkpt>
      <trkpt lat="47.59192" lon="6.78922">
        <ele>378</ele>
        <time>2016-12-04T09:32:04.999Z</time>
      </trkpt>
      <trkpt lat="47.59198" lon="6.78921">
        <ele>378</ele>
        <time>2016-12-04T09:32:05.999Z</time>
      </trkpt>
      <trkpt lat="47.59202" lon="6.7892">
        <ele>378</ele>
        <time>2016-12-04T09:32:06.999Z</time>
      </trkpt>
      <trkpt lat="47.59206" lon="6.78919">
        <ele>379</ele>
        <time>2016-12-04T09:32:07.999Z</time>
      </trkpt>
      <trkpt lat="47.5921" lon="6.78917">
        <ele>379</ele>
        <time>2016-12-04T09:32:08.999Z</time>
      </trkpt>
      <trkpt lat="47.59215" lon="6.78916">
        <ele>378</ele>
        <time>2016-12-04T09:32:09.999Z</time>
      </trkpt>
      <trkpt lat="47.5922" lon="6.78915">
        <ele>378</ele>
        <time>2016-12-04T09:32:10.999Z</time>
      </trkpt>
      <trkpt lat="47.59224" lon="6.78914">
        <ele>378</ele>
        <time>2016-12-04T09:32:11.999Z</time>
      </trkpt>
      <trkpt lat="47.59228" lon="6.78913">
        <ele>378</ele>
        <time>2016-12-04T09:32:12.999Z</time>
      </trkpt>
      <trkpt lat="47.59231" lon="6.78911">
        <ele>378</ele>
        <time>2016-12-04T09:32:13.999Z</time>
      </trkpt>
      <trkpt lat="47.59234" lon="6.7891">
        <ele>378</ele>
        <time>2016-12-04T09:32:14.999Z</time>
      </trkpt>
      <trkpt lat="47.59238" lon="6.78909">
        <ele>378</ele>
        <time>2016-12-04T09:32:15.999Z</time>
      </trkpt>
      <trkpt lat="47.59242" lon="6.78908">
        <ele>378</ele>
        <time>2016-12-04T09:32:16.999Z</time>
      </trkpt>
      <trkpt lat="47.59245" lon="6.78907">
        <ele>379</ele>
        <time>2016-12-04T09:32:17.999Z</time>
      </trkpt>
      <trkpt lat="47.59248" lon="6.78907">
        <ele>379</ele>
        <time>2016-12-04T09:32:18.999Z</time>
      </trkpt>
      <trkpt lat="47.59251" lon="6.78906">
        <ele>380</ele>
        <time>2016-12-04T09:32:19.999Z</time>
      </trkpt>
      <trkpt lat="47.59254" lon="6.78906">
        <ele>380</ele>
        <time>2016-12-04T09:32:20.999Z</time>
      </trkpt>
      <trkpt lat="47.59257" lon="6.78906">
        <ele>380</ele>
        <time>2016-12-04T09:32:21.999Z</time>
      </trkpt>
      <trkpt lat="47.5926" lon="6.78905">
        <ele>380</ele>
        <time>2016-12-04T09:32:22.999Z</time>
      </trkpt>
      <trkpt lat="47.59262" lon="6.78904">
        <ele>380</ele>
        <time>2016-12-04T09:32:23.999Z</time>
      </trkpt>
      <trkpt lat="47.59266" lon="6.78903">
        <ele>380</ele>
        <time>2016-12-04T09:32:24.999Z</time>
      </trkpt>
      <trkpt lat="47.5927" lon="6.78902">
        <ele>380</ele>
        <time>2016-12-04T09:32:25.999Z</time>
      </trkpt>
      <trkpt lat="47.59273" lon="6.78901">
        <ele>381</ele>
        <time>2016-12-04T09:32:26.999Z</time>
      </trkpt>
      <trkpt lat="47.59276" lon="6.789">
        <ele>381</ele>
        <time>2016-12-04T09:32:27.999Z</time>
      </trkpt>
      <trkpt lat="47.59279" lon="6.78899">
        <ele>381</ele>
        <time>2016-12-04T09:32:28.999Z</time>
      </trkpt>
      <trkpt lat="47.59282" lon="6.78899">
        <ele>381</ele>
        <time>2016-12-04T09:32:29.999Z</time>
      </trkpt>
      <trkpt lat="47.59286" lon="6.78897">
        <ele>381</ele>
        <time>2016-12-04T09:32:30.999Z</time>
      </trkpt>
      <trkpt lat="47.59289" lon="6.78895">
        <ele>381</ele>
        <time>2016-12-04T09:32:31.999Z</time>
      </trkpt>
      <trkpt lat="47.59292" lon="6.78893">
        <ele>381</ele>
        <time>2016-12-04T09:32:32.999Z</time>
      </trkpt>
      <trkpt lat="47.59295" lon="6.78892">
        <ele>381</ele>
        <time>2016-12-04T09:32:33.999Z</time>
      </trkpt>
      <trkpt lat="47.59298" lon="6.78891">
        <ele>381</ele>
        <time>2016-12-04T09:32:34.999Z</time>
      </trkpt>
      <trkpt lat="47.59301" lon="6.7889">
        <ele>381</ele>
        <time>2016-12-04T09:32:35.999Z</time>
      </trkpt>
      <trkpt lat="47.59304" lon="6.7889">
        <ele>381</ele>
        <time>2016-12-04T09:32:36.999Z</time>
      </trkpt>
      <trkpt lat="47.59306" lon="6.78889">
        <ele>381</ele>
        <time>2016-12-04T09:32:37.999Z</time>
      </trkpt>
      <trkpt lat="47.59309" lon="6.78888">
        <ele>381</ele>
        <time>2016-12-04T09:32:38.999Z</time>
      </trkpt>
      <trkpt lat="47.59312" lon="6.78888">
        <ele>381</ele>
        <time>2016-12-04T09:32:39.999Z</time>
      </trkpt>
      <trkpt lat="47.59314" lon="6.78888">
        <ele>381</ele>
        <time>2016-12-04T09:32:40.999Z</time>
      </trkpt>
      <trkpt lat="47.59319" lon="6.78886">
        <ele>381</ele>
        <time>2016-12-04T09:32:42.999Z</time>
      </trkpt>
      <trkpt lat="47.59323" lon="6.78885">
        <ele>381</ele>
        <time>2016-12-04T09:32:43.999Z</time>
      </trkpt>
      <trkpt lat="47.59327" lon="6.78884">
        <ele>381</ele>
        <time>2016-12-04T09:32:44.999Z</time>
      </trkpt>
      <trkpt lat="47.5933" lon="6.78882">
        <ele>382</ele>
        <time>2016-12-04T09:32:45.999Z</time>
      </trkpt>
      <trkpt lat="47.59334" lon="6.78881">
        <ele>382</ele>
        <time>2016-12-04T09:32:46.999Z</time>
      </trkpt>
      <trkpt lat="47.59339" lon="6.7888">
        <ele>382</ele>
        <time>2016-12-04T09:32:47.999Z</time>
      </trkpt>
      <trkpt lat="47.59344" lon="6.78878">
        <ele>382</ele>
        <time>2016-12-04T09:32:48.999Z</time>
      </trkpt>
      <trkpt lat="47.59348" lon="6.78877">
        <ele>382</ele>
        <time>2016-12-04T09:32:49.999Z</time>
      </trkpt>
      <trkpt lat="47.59354" lon="6.78876">
        <ele>382</ele>
        <time>2016-12-04T09:32:50.999Z</time>
      </trkpt>
      <trkpt lat="47.59359" lon="6.78875">
        <ele>382</ele>
        <time>2016-12-04T09:32:51.999Z</time>
      </trkpt>
      <trkpt lat="47.59365" lon="6.78873">
        <ele>382</ele>
        <time>2016-12-04T09:32:52.999Z</time>
      </trkpt>
      <trkpt lat="47.59372" lon="6.78871">
        <ele>382</ele>
        <time>2016-12-04T09:32:53.999Z</time>
      </trkpt>
      <trkpt lat="47.59379" lon="6.78868">
        <ele>381</ele>
        <time>2016-12-04T09:32:54.999Z</time>
      </trkpt>
      <trkpt lat="47.59386" lon="6.78866">
        <ele>381</ele>
        <time>2016-12-04T09:32:55.999Z</time>
      </trkpt>
      <trkpt lat="47.59394" lon="6.78862">
        <ele>381</ele>
        <time>2016-12-04T09:32:56.999Z</time>
      </trkpt>
      <trkpt lat="47.59403" lon="6.78858">
        <ele>381</ele>
        <time>2016-12-04T09:32:57.999Z</time>
      </trkpt>
      <trkpt lat="47.5941" lon="6.78854">
        <ele>381</ele>
        <time>2016-12-04T09:32:58.999Z</time>
      </trkpt>
      <trkpt lat="47.59417" lon="6.78849">
        <ele>383</ele>
        <time>2016-12-04T09:32:59.999Z</time>
      </trkpt>
      <trkpt lat="47.59423" lon="6.78845">
        <ele>382</ele>
        <time>2016-12-04T09:33:00.999Z</time>
      </trkpt>
      <trkpt lat="47.59429" lon="6.78841">
        <ele>383</ele>
        <time>2016-12-04T09:33:01.999Z</time>
      </trkpt>
      <trkpt lat="47.59433" lon="6.78837">
        <ele>383</ele>
        <time>2016-12-04T09:33:02.999Z</time>
      </trkpt>
      <trkpt lat="47.59437" lon="6.78831">
        <ele>382</ele>
        <time>2016-12-04T09:33:03.999Z</time>
      </trkpt>
      <trkpt lat="47.59441" lon="6.78828">
        <ele>383</ele>
        <time>2016-12-04T09:33:04.999Z</time>
      </trkpt>
      <trkpt lat="47.59444" lon="6.78825">
        <ele>383</ele>
        <time>2016-12-04T09:33:05.999Z</time>
      </trkpt>
      <trkpt lat="47.59447" lon="6.78824">
        <ele>383</ele>
        <time>2016-12-04T09:33:06.999Z</time>
      </trkpt>
      <trkpt lat="47.59451" lon="6.78821">
        <ele>384</ele>
        <time>2016-12-04T09:33:07.999Z</time>
      </trkpt>
      <trkpt lat="47.59455" lon="6.78819">
        <ele>384</ele>
        <time>2016-12-04T09:33:08.999Z</time>
      </trkpt>
      <trkpt lat="47.59459" lon="6.78819">
        <ele>384</ele>
        <time>2016-12-04T09:33:09.999Z</time>
      </trkpt>
      <trkpt lat="47.59463" lon="6.78815">
        <ele>385</ele>
        <time>2016-12-04T09:33:11.999Z</time>
      </trkpt>
      <trkpt lat="47.59465" lon="6.78814">
        <ele>385</ele>
        <time>2016-12-04T09:33:12.999Z</time>
      </trkpt>
      <trkpt lat="47.59467" lon="6.78813">
        <ele>385</ele>
        <time>2016-12-04T09:33:13.999Z</time>
      </trkpt>
      <trkpt lat="47.5947" lon="6.78812">
        <ele>385</ele>
        <time>2016-12-04T09:33:14.999Z</time>
      </trkpt>
      <trkpt lat="47.59473" lon="6.78811">
        <ele>385</ele>
        <time>2016-12-04T09:33:15.999Z</time>
      </trkpt>
      <trkpt lat="47.59476" lon="6.78811">
        <ele>385</ele>
        <time>2016-12-04T09:33:16.999Z</time>
      </trkpt>
      <trkpt lat="47.59479" lon="6.78811">
        <ele>386</ele>
        <time>2016-12-04T09:33:17.999Z</time>
      </trkpt>
      <trkpt lat="47.59482" lon="6.7881">
        <ele>386</ele>
        <time>2016-12-04T09:33:18.999Z</time>
      </trkpt>
      <trkpt lat="47.59487" lon="6.78809">
        <ele>386</ele>
        <time>2016-12-04T09:33:19.999Z</time>
      </trkpt>
      <trkpt lat="47.59492" lon="6.78807">
        <ele>386</ele>
        <time>2016-12-04T09:33:20.999Z</time>
      </trkpt>
      <trkpt lat="47.59495" lon="6.78806">
        <ele>386</ele>
        <time>2016-12-04T09:33:21.999Z</time>
      </trkpt>
      <trkpt lat="47.59497" lon="6.78805">
        <ele>386</ele>
        <time>2016-12-04T09:33:22.999Z</time>
      </trkpt>
      <trkpt lat="47.595" lon="6.78803">
        <ele>386</ele>
        <time>2016-12-04T09:33:24.999Z</time>
      </trkpt>
      <trkpt lat="47.59502" lon="6.78802">
        <ele>389</ele>
        <time>2016-12-04T09:33:25.999Z</time>
      </trkpt>
      <trkpt lat="47.59506" lon="6.78801">
        <ele>389</ele>
        <time>2016-12-04T09:33:27.999Z</time>
      </trkpt>
      <trkpt lat="47.59508" lon="6.78801">
        <ele>389</ele>
        <time>2016-12-04T09:33:28.999Z</time>
      </trkpt>
      <trkpt lat="47.59512" lon="6.788">
        <ele>389</ele>
        <time>2016-12-04T09:33:30.999Z</time>
      </trkpt>
      <trkpt lat="47.59515" lon="6.788">
        <ele>389</ele>
        <time>2016-12-04T09:33:31.999Z</time>
      </trkpt>
      <trkpt lat="47.59518" lon="6.788">
        <ele>389</ele>
        <time>2016-12-04T09:33:32.999Z</time>
      </trkpt>
      <trkpt lat="47.59521" lon="6.788">
        <ele>389</ele>
        <time>2016-12-04T09:33:33.999Z</time>
      </trkpt>
      <trkpt lat="47.59523" lon="6.788">
        <ele>389</ele>
        <time>2016-12-04T09:33:34.999Z</time>
      </trkpt>
      <trkpt lat="47.59525" lon="6.78802">
        <ele>389</ele>
        <time>2016-12-04T09:33:35.999Z</time>
      </trkpt>
      <trkpt lat="47.59529" lon="6.78803">
        <ele>390</ele>
        <time>2016-12-04T09:33:36.999Z</time>
      </trkpt>
      <trkpt lat="47.59533" lon="6.78803">
        <ele>390</ele>
        <time>2016-12-04T09:33:37.999Z</time>
      </trkpt>
      <trkpt lat="47.59539" lon="6.78802">
        <ele>390</ele>
        <time>2016-12-04T09:33:38.999Z</time>
      </trkpt>
      <trkpt lat="47.59543" lon="6.78803">
        <ele>390</ele>
        <time>2016-12-04T09:33:39.999Z</time>
      </trkpt>
      <trkpt lat="47.59547" lon="6.78802">
        <ele>390</ele>
        <time>2016-12-04T09:33:40.999Z</time>
      </trkpt>
      <trkpt lat="47.5955" lon="6.78799">
        <ele>390</ele>
        <time>2016-12-04T09:33:41.999Z</time>
      </trkpt>
      <trkpt lat="47.59554" lon="6.78795">
        <ele>390</ele>
        <time>2016-12-04T09:33:42.999Z</time>
      </trkpt>
      <trkpt lat="47.59556" lon="6.78791">
        <ele>390</ele>
        <time>2016-12-04T09:33:43.999Z</time>
      </trkpt>
      <trkpt lat="47.59559" lon="6.78787">
        <ele>390</ele>
        <time>2016-12-04T09:33:44.999Z</time>
      </trkpt>
      <trkpt lat="47.5956" lon="6.78782">
        <ele>390</ele>
        <time>2016-12-04T09:33:45.999Z</time>
      </trkpt>
      <trkpt lat="47.59562" lon="6.78777">
        <ele>390</ele>
        <time>2016-12-04T09:33:46.999Z</time>
      </trkpt>
      <trkpt lat="47.59564" lon="6.78771">
        <ele>390</ele>
        <time>2016-12-04T09:33:47.999Z</time>
      </trkpt>
      <trkpt lat="47.59565" lon="6.78766">
        <ele>390</ele>
        <time>2016-12-04T09:33:48.999Z</time>
      </trkpt>
      <trkpt lat="47.59567" lon="6.78759">
        <ele>390</ele>
        <time>2016-12-04T09:33:49.999Z</time>
      </trkpt>
      <trkpt lat="47.59568" lon="6.78754">
        <ele>390</ele>
        <time>2016-12-04T09:33:50.999Z</time>
      </trkpt>
      <trkpt lat="47.5957" lon="6.78749">
        <ele>389</ele>
        <time>2016-12-04T09:33:51.999Z</time>
      </trkpt>
      <trkpt lat="47.59571" lon="6.78744">
        <ele>389</ele>
        <time>2016-12-04T09:33:52.999Z</time>
      </trkpt>
      <trkpt lat="47.59572" lon="6.78738">
        <ele>389</ele>
        <time>2016-12-04T09:33:53.999Z</time>
      </trkpt>
      <trkpt lat="47.59573" lon="6.78732">
        <ele>388</ele>
        <time>2016-12-04T09:33:54.999Z</time>
      </trkpt>
      <trkpt lat="47.59574" lon="6.7873">
        <ele>388</ele>
        <time>2016-12-04T09:33:55.999Z</time>
      </trkpt>
      <trkpt lat="47.59575" lon="6.78725">
        <ele>388</ele>
        <time>2016-12-04T09:33:56.999Z</time>
      </trkpt>
      <trkpt lat="47.59576" lon="6.78717">
        <ele>388</ele>
        <time>2016-12-04T09:33:57.999Z</time>
      </trkpt>
      <trkpt lat="47.59577" lon="6.78713">
        <ele>388</ele>
        <time>2016-12-04T09:33:58.999Z</time>
      </trkpt>
      <trkpt lat="47.59578" lon="6.78707">
        <ele>388</ele>
        <time>2016-12-04T09:33:59.999Z</time>
      </trkpt>
      <trkpt lat="47.5958" lon="6.78701">
        <ele>388</ele>
        <time>2016-12-04T09:34:00.999Z</time>
      </trkpt>
      <trkpt lat="47.59581" lon="6.78696">
        <ele>388</ele>
        <time>2016-12-04T09:34:01.999Z</time>
      </trkpt>
      <trkpt lat="47.59582" lon="6.78693">
        <ele>388</ele>
        <time>2016-12-04T09:34:02.999Z</time>
      </trkpt>
      <trkpt lat="47.59583" lon="6.78687">
        <ele>388</ele>
        <time>2016-12-04T09:34:03.999Z</time>
      </trkpt>
      <trkpt lat="47.59584" lon="6.78682">
        <ele>391</ele>
        <time>2016-12-04T09:34:04.999Z</time>
      </trkpt>
      <trkpt lat="47.59585" lon="6.78679">
        <ele>390</ele>
        <time>2016-12-04T09:34:05.999Z</time>
      </trkpt>
      <trkpt lat="47.59587" lon="6.78676">
        <ele>390</ele>
        <time>2016-12-04T09:34:06.999Z</time>
      </trkpt>
      <trkpt lat="47.59589" lon="6.78671">
        <ele>390</ele>
        <time>2016-12-04T09:34:07.999Z</time>
      </trkpt>
      <trkpt lat="47.5959" lon="6.78666">
        <ele>390</ele>
        <time>2016-12-04T09:34:08.999Z</time>
      </trkpt>
      <trkpt lat="47.5959" lon="6.78662">
        <ele>390</ele>
        <time>2016-12-04T09:34:09.999Z</time>
      </trkpt>
      <trkpt lat="47.5959" lon="6.78657">
        <ele>390</ele>
        <time>2016-12-04T09:34:10.999Z</time>
      </trkpt>
      <trkpt lat="47.5959" lon="6.78651">
        <ele>391</ele>
        <time>2016-12-04T09:34:11.999Z</time>
      </trkpt>
      <trkpt lat="47.59588" lon="6.78649">
        <ele>391</ele>
        <time>2016-12-04T09:34:12.999Z</time>
      </trkpt>
      <trkpt lat="47.59587" lon="6.78645">
        <ele>391</ele>
        <time>2016-12-04T09:34:13.999Z</time>
      </trkpt>
      <trkpt lat="47.59587" lon="6.7864">
        <ele>391</ele>
        <time>2016-12-04T09:34:14.999Z</time>
      </trkpt>
      <trkpt lat="47.59587" lon="6.78634">
        <ele>391</ele>
        <time>2016-12-04T09:34:15.999Z</time>
      </trkpt>
      <trkpt lat="47.59587" lon="6.78628">
        <ele>391</ele>
        <time>2016-12-04T09:34:16.999Z</time>
      </trkpt>
      <trkpt lat="47.59588" lon="6.78622">
        <ele>391</ele>
        <time>2016-12-04T09:34:17.999Z</time>
      </trkpt>
      <trkpt lat="47.59589" lon="6.78617">
        <ele>391</ele>
        <time>2016-12-04T09:34:18.999Z</time>
      </trkpt>
      <trkpt lat="47.59591" lon="6.78612">
        <ele>391</ele>
        <time>2016-12-04T09:34:19.999Z</time>
      </trkpt>
      <trkpt lat="47.59592" lon="6.78605">
        <ele>390</ele>
        <time>2016-12-04T09:34:20.999Z</time>
      </trkpt>
      <trkpt lat="47.59593" lon="6.78601">
        <ele>390</ele>
        <time>2016-12-04T09:34:21.999Z</time>
      </trkpt>
      <trkpt lat="47.59595" lon="6.78596">
        <ele>390</ele>
        <time>2016-12-04T09:34:22.999Z</time>
      </trkpt>
      <trkpt lat="47.59596" lon="6.78592">
        <ele>390</ele>
        <time>2016-12-04T09:34:23.999Z</time>
      </trkpt>
      <trkpt lat="47.59598" lon="6.78586">
        <ele>390</ele>
        <time>2016-12-04T09:34:24.999Z</time>
      </trkpt>
      <trkpt lat="47.596" lon="6.78581">
        <ele>390</ele>
        <time>2016-12-04T09:34:25.999Z</time>
      </trkpt>
      <trkpt lat="47.59601" lon="6.78579">
        <ele>390</ele>
        <time>2016-12-04T09:34:26.999Z</time>
      </trkpt>
      <trkpt lat="47.59604" lon="6.78575">
        <ele>391</ele>
        <time>2016-12-04T09:34:27.999Z</time>
      </trkpt>
      <trkpt lat="47.59606" lon="6.78572">
        <ele>391</ele>
        <time>2016-12-04T09:34:28.999Z</time>
      </trkpt>
      <trkpt lat="47.59608" lon="6.78569">
        <ele>391</ele>
        <time>2016-12-04T09:34:29.999Z</time>
      </trkpt>
      <trkpt lat="47.59611" lon="6.78566">
        <ele>391</ele>
        <time>2016-12-04T09:34:30.999Z</time>
      </trkpt>
      <trkpt lat="47.59612" lon="6.78561">
        <ele>392</ele>
        <time>2016-12-04T09:34:31.999Z</time>
      </trkpt>
      <trkpt lat="47.59614" lon="6.78557">
        <ele>392</ele>
        <time>2016-12-04T09:34:32.999Z</time>
      </trkpt>
      <trkpt lat="47.59617" lon="6.78552">
        <ele>392</ele>
        <time>2016-12-04T09:34:34.999Z</time>
      </trkpt>
      <trkpt lat="47.59618" lon="6.78549">
        <ele>392</ele>
        <time>2016-12-04T09:34:35.999Z</time>
      </trkpt>
      <trkpt lat="47.5962" lon="6.78544">
        <ele>392</ele>
        <time>2016-12-04T09:34:36.999Z</time>
      </trkpt>
      <trkpt lat="47.59622" lon="6.78538">
        <ele>393</ele>
        <time>2016-12-04T09:34:37.999Z</time>
      </trkpt>
      <trkpt lat="47.59623" lon="6.78534">
        <ele>393</ele>
        <time>2016-12-04T09:34:38.999Z</time>
      </trkpt>
      <trkpt lat="47.59625" lon="6.78529">
        <ele>393</ele>
        <time>2016-12-04T09:34:39.999Z</time>
      </trkpt>
      <trkpt lat="47.59626" lon="6.78524">
        <ele>393</ele>
        <time>2016-12-04T09:34:40.999Z</time>
      </trkpt>
      <trkpt lat="47.59627" lon="6.78521">
        <ele>393</ele>
        <time>2016-12-04T09:34:41.999Z</time>
      </trkpt>
      <trkpt lat="47.59628" lon="6.78516">
        <ele>393</ele>
        <time>2016-12-04T09:34:42.999Z</time>
      </trkpt>
      <trkpt lat="47.59629" lon="6.78511">
        <ele>393</ele>
        <time>2016-12-04T09:34:43.999Z</time>
      </trkpt>
      <trkpt lat="47.5963" lon="6.78508">
        <ele>393</ele>
        <time>2016-12-04T09:34:44.999Z</time>
      </trkpt>
      <trkpt lat="47.5963" lon="6.78504">
        <ele>393</ele>
        <time>2016-12-04T09:34:45.999Z</time>
      </trkpt>
      <trkpt lat="47.59632" lon="6.78499">
        <ele>394</ele>
        <time>2016-12-04T09:34:46.999Z</time>
      </trkpt>
      <trkpt lat="47.59633" lon="6.78495">
        <ele>394</ele>
        <time>2016-12-04T09:34:47.999Z</time>
      </trkpt>
      <trkpt lat="47.59635" lon="6.78489">
        <ele>394</ele>
        <time>2016-12-04T09:34:48.999Z</time>
      </trkpt>
      <trkpt lat="47.59636" lon="6.78485">
        <ele>394</ele>
        <time>2016-12-04T09:34:49.999Z</time>
      </trkpt>
      <trkpt lat="47.59639" lon="6.78479">
        <ele>394</ele>
        <time>2016-12-04T09:34:50.999Z</time>
      </trkpt>
      <trkpt lat="47.59642" lon="6.78475">
        <ele>394</ele>
        <time>2016-12-04T09:34:51.999Z</time>
      </trkpt>
      <trkpt lat="47.59644" lon="6.78472">
        <ele>394</ele>
        <time>2016-12-04T09:34:52.999Z</time>
      </trkpt>
      <trkpt lat="47.59646" lon="6.78469">
        <ele>394</ele>
        <time>2016-12-04T09:34:53.999Z</time>
      </trkpt>
      <trkpt lat="47.59648" lon="6.78464">
        <ele>394</ele>
        <time>2016-12-04T09:34:54.999Z</time>
      </trkpt>
      <trkpt lat="47.59649" lon="6.78461">
        <ele>394</ele>
        <time>2016-12-04T09:34:55.999Z</time>
      </trkpt>
      <trkpt lat="47.59651" lon="6.78456">
        <ele>394</ele>
        <time>2016-12-04T09:34:56.999Z</time>
      </trkpt>
      <trkpt lat="47.59652" lon="6.78452">
        <ele>394</ele>
        <time>2016-12-04T09:34:57.999Z</time>
      </trkpt>
      <trkpt lat="47.59654" lon="6.78448">
        <ele>394</ele>
        <time>2016-12-04T09:34:58.999Z</time>
      </trkpt>
      <trkpt lat="47.59656" lon="6.78444">
        <ele>395</ele>
        <time>2016-12-04T09:34:59.999Z</time>
      </trkpt>
      <trkpt lat="47.59658" lon="6.78439">
        <ele>395</ele>
        <time>2016-12-04T09:35:00.999Z</time>
      </trkpt>
      <trkpt lat="47.59659" lon="6.78435">
        <ele>395</ele>
        <time>2016-12-04T09:35:01.999Z</time>
      </trkpt>
      <trkpt lat="47.59661" lon="6.7843">
        <ele>395</ele>
        <time>2016-12-04T09:35:02.999Z</time>
      </trkpt>
      <trkpt lat="47.59662" lon="6.78426">
        <ele>396</ele>
        <time>2016-12-04T09:35:03.999Z</time>
      </trkpt>
      <trkpt lat="47.59664" lon="6.78423">
        <ele>396</ele>
        <time>2016-12-04T09:35:04.999Z</time>
      </trkpt>
      <trkpt lat="47.59667" lon="6.78418">
        <ele>397</ele>
        <time>2016-12-04T09:35:06.999Z</time>
      </trkpt>
      <trkpt lat="47.59669" lon="6.78416">
        <ele>397</ele>
        <time>2016-12-04T09:35:07.999Z</time>
      </trkpt>
      <trkpt lat="47.59672" lon="6.78412">
        <ele>397</ele>
        <time>2016-12-04T09:35:09.999Z</time>
      </trkpt>
      <trkpt lat="47.59674" lon="6.7841">
        <ele>397</ele>
        <time>2016-12-04T09:35:10.999Z</time>
      </trkpt>
      <trkpt lat="47.59677" lon="6.78408">
        <ele>397</ele>
        <time>2016-12-04T09:35:11.999Z</time>
      </trkpt>
      <trkpt lat="47.59681" lon="6.78405">
        <ele>397</ele>
        <time>2016-12-04T09:35:12.999Z</time>
      </trkpt>
      <trkpt lat="47.59684" lon="6.78403">
        <ele>397</ele>
        <time>2016-12-04T09:35:13.999Z</time>
      </trkpt>
      <trkpt lat="47.59687" lon="6.78402">
        <ele>397</ele>
        <time>2016-12-04T09:35:14.999Z</time>
      </trkpt>
      <trkpt lat="47.59689" lon="6.78401">
        <ele>397</ele>
        <time>2016-12-04T09:35:15.999Z</time>
      </trkpt>
      <trkpt lat="47.59692" lon="6.78399">
        <ele>397</ele>
        <time>2016-12-04T09:35:16.999Z</time>
      </trkpt>
      <trkpt lat="47.59695" lon="6.78398">
        <ele>397</ele>
        <time>2016-12-04T09:35:17.999Z</time>
      </trkpt>
      <trkpt lat="47.59698" lon="6.78396">
        <ele>397</ele>
        <time>2016-12-04T09:35:18.999Z</time>
      </trkpt>
      <trkpt lat="47.59701" lon="6.78396">
        <ele>397</ele>
        <time>2016-12-04T09:35:19.999Z</time>
      </trkpt>
      <trkpt lat="47.59704" lon="6.78395">
        <ele>398</ele>
        <time>2016-12-04T09:35:20.999Z</time>
      </trkpt>
      <trkpt lat="47.59707" lon="6.78394">
        <ele>398</ele>
        <time>2016-12-04T09:35:21.999Z</time>
      </trkpt>
      <trkpt lat="47.5971" lon="6.78393">
        <ele>398</ele>
        <time>2016-12-04T09:35:22.999Z</time>
      </trkpt>
      <trkpt lat="47.59713" lon="6.78392">
        <ele>398</ele>
        <time>2016-12-04T09:35:23.999Z</time>
      </trkpt>
      <trkpt lat="47.59716" lon="6.78392">
        <ele>398</ele>
        <time>2016-12-04T09:35:24.999Z</time>
      </trkpt>
      <trkpt lat="47.59717" lon="6.78391">
        <ele>398</ele>
        <time>2016-12-04T09:35:25.999Z</time>
      </trkpt>
      <trkpt lat="47.5972" lon="6.78389">
        <ele>398</ele>
        <time>2016-12-04T09:35:26.999Z</time>
      </trkpt>
      <trkpt lat="47.59722" lon="6.78387">
        <ele>398</ele>
        <time>2016-12-04T09:35:27.999Z</time>
      </trkpt>
      <trkpt lat="47.59725" lon="6.78385">
        <ele>398</ele>
        <time>2016-12-04T09:35:28.999Z</time>
      </trkpt>
      <trkpt lat="47.59728" lon="6.78384">
        <ele>398</ele>
        <time>2016-12-04T09:35:29.999Z</time>
      </trkpt>
      <trkpt lat="47.59731" lon="6.78382">
        <ele>398</ele>
        <time>2016-12-04T09:35:30.999Z</time>
      </trkpt>
      <trkpt lat="47.59734" lon="6.78381">
        <ele>398</ele>
        <time>2016-12-04T09:35:31.999Z</time>
      </trkpt>
      <trkpt lat="47.59736" lon="6.78379">
        <ele>398</ele>
        <time>2016-12-04T09:35:32.999Z</time>
      </trkpt>
      <trkpt lat="47.5974" lon="6.78378">
        <ele>398</ele>
        <time>2016-12-04T09:35:34.999Z</time>
      </trkpt>
      <trkpt lat="47.59742" lon="6.78377">
        <ele>398</ele>
        <time>2016-12-04T09:35:35.999Z</time>
      </trkpt>
      <trkpt lat="47.59745" lon="6.78376">
        <ele>398</ele>
        <time>2016-12-04T09:35:36.999Z</time>
      </trkpt>
      <trkpt lat="47.59748" lon="6.78375">
        <ele>398</ele>
        <time>2016-12-04T09:35:37.999Z</time>
      </trkpt>
      <trkpt lat="47.59751" lon="6.78374">
        <ele>401</ele>
        <time>2016-12-04T09:35:38.999Z</time>
      </trkpt>
      <trkpt lat="47.59754" lon="6.78373">
        <ele>401</ele>
        <time>2016-12-04T09:35:39.999Z</time>
      </trkpt>
      <trkpt lat="47.59756" lon="6.78372">
        <ele>401</ele>
        <time>2016-12-04T09:35:40.999Z</time>
      </trkpt>
      <trkpt lat="47.59759" lon="6.78371">
        <ele>401</ele>
        <time>2016-12-04T09:35:41.999Z</time>
      </trkpt>
      <trkpt lat="47.59762" lon="6.7837">
        <ele>401</ele>
        <time>2016-12-04T09:35:42.999Z</time>
      </trkpt>
      <trkpt lat="47.59765" lon="6.78367">
        <ele>401</ele>
        <time>2016-12-04T09:35:43.999Z</time>
      </trkpt>
      <trkpt lat="47.59768" lon="6.78365">
        <ele>401</ele>
        <time>2016-12-04T09:35:44.999Z</time>
      </trkpt>
      <trkpt lat="47.59771" lon="6.78362">
        <ele>401</ele>
        <time>2016-12-04T09:35:45.999Z</time>
      </trkpt>
      <trkpt lat="47.59773" lon="6.7836">
        <ele>401</ele>
        <time>2016-12-04T09:35:46.999Z</time>
      </trkpt>
      <trkpt lat="47.59775" lon="6.78358">
        <ele>400</ele>
        <time>2016-12-04T09:35:47.999Z</time>
      </trkpt>
      <trkpt lat="47.59778" lon="6.78354">
        <ele>400</ele>
        <time>2016-12-04T09:35:49.999Z</time>
      </trkpt>
      <trkpt lat="47.59779" lon="6.7835">
        <ele>400</ele>
        <time>2016-12-04T09:35:50.999Z</time>
      </trkpt>
      <trkpt lat="47.59781" lon="6.78346">
        <ele>400</ele>
        <time>2016-12-04T09:35:52.999Z</time>
      </trkpt>
      <trkpt lat="47.59782" lon="6.78344">
        <ele>400</ele>
        <time>2016-12-04T09:35:53.999Z</time>
      </trkpt>
      <trkpt lat="47.59782" lon="6.78344">
        <ele>400</ele>
        <time>2016-12-04T09:35:56.999Z</time>
      </trkpt>
      <trkpt lat="47.59783" lon="6.78334">
        <ele>400</ele>
        <time>2016-12-04T09:35:57.999Z</time>
      </trkpt>
      <trkpt lat="47.59783" lon="6.78328">
        <ele>393</ele>
        <time>2016-12-04T09:36:00.999Z</time>
      </trkpt>
      <trkpt lat="47.59784" lon="6.78326">
        <ele>393</ele>
        <time>2016-12-04T09:36:01.999Z</time>
      </trkpt>
      <trkpt lat="47.59783" lon="6.7832">
        <ele>392</ele>
        <time>2016-12-04T09:38:01.999Z</time>
      </trkpt>
      <trkpt lat="47.59781" lon="6.78318">
        <ele>392</ele>
        <time>2016-12-04T09:38:02.999Z</time>
      </trkpt>
      <trkpt lat="47.59783" lon="6.78313">
        <ele>392</ele>
        <time>2016-12-04T09:38:05.999Z</time>
      </trkpt>
      <trkpt lat="47.59783" lon="6.78312">
        <ele>392</ele>
        <time>2016-12-04T09:38:06.999Z</time>
      </trkpt>
      <trkpt lat="47.59781" lon="6.78312">
        <ele>392</ele>
        <time>2016-12-04T09:38:08.999Z</time>
      </trkpt>
      <trkpt lat="47.59778" lon="6.78311">
        <ele>392</ele>
        <time>2016-12-04T09:38:09.999Z</time>
      </trkpt>
      <trkpt lat="47.59774" lon="6.7831">
        <ele>392</ele>
        <time>2016-12-04T09:38:10.999Z</time>
      </trkpt>
      <trkpt lat="47.59771" lon="6.78309">
        <ele>392</ele>
        <time>2016-12-04T09:38:11.999Z</time>
      </trkpt>
      <trkpt lat="47.59766" lon="6.78308">
        <ele>391</ele>
        <time>2016-12-04T09:38:12.999Z</time>
      </trkpt>
      <trkpt lat="47.59762" lon="6.78306">
        <ele>391</ele>
        <time>2016-12-04T09:38:13.999Z</time>
      </trkpt>
      <trkpt lat="47.59758" lon="6.78305">
        <ele>391</ele>
        <time>2016-12-04T09:38:14.999Z</time>
      </trkpt>
      <trkpt lat="47.59755" lon="6.78304">
        <ele>391</ele>
        <time>2016-12-04T09:38:15.999Z</time>
      </trkpt>
      <trkpt lat="47.5975" lon="6.78304">
        <ele>391</ele>
        <time>2016-12-04T09:38:16.999Z</time>
      </trkpt>
      <trkpt lat="47.59746" lon="6.78305">
        <ele>389</ele>
        <time>2016-12-04T09:38:17.999Z</time>
      </trkpt>
      <trkpt lat="47.59742" lon="6.78307">
        <ele>389</ele>
        <time>2016-12-04T09:38:18.999Z</time>
      </trkpt>
      <trkpt lat="47.59739" lon="6.78307">
        <ele>389</ele>
        <time>2016-12-04T09:38:19.999Z</time>
      </trkpt>
      <trkpt lat="47.59734" lon="6.78308">
        <ele>389</ele>
        <time>2016-12-04T09:38:20.999Z</time>
      </trkpt>
      <trkpt lat="47.59729" lon="6.78308">
        <ele>389</ele>
        <time>2016-12-04T09:38:21.999Z</time>
      </trkpt>
      <trkpt lat="47.59726" lon="6.78308">
        <ele>388</ele>
        <time>2016-12-04T09:38:22.999Z</time>
      </trkpt>
      <trkpt lat="47.59722" lon="6.78308">
        <ele>388</ele>
        <time>2016-12-04T09:38:23.999Z</time>
      </trkpt>
      <trkpt lat="47.59717" lon="6.78309">
        <ele>388</ele>
        <time>2016-12-04T09:38:24.999Z</time>
      </trkpt>
      <trkpt lat="47.59712" lon="6.7831">
        <ele>388</ele>
        <time>2016-12-04T09:38:25.999Z</time>
      </trkpt>
      <trkpt lat="47.59706" lon="6.78311">
        <ele>388</ele>
        <time>2016-12-04T09:38:26.999Z</time>
      </trkpt>
      <trkpt lat="47.59701" lon="6.78311">
        <ele>388</ele>
        <time>2016-12-04T09:38:27.999Z</time>
      </trkpt>
      <trkpt lat="47.59695" lon="6.78311">
        <ele>388</ele>
        <time>2016-12-04T09:38:28.999Z</time>
      </trkpt>
      <trkpt lat="47.5969" lon="6.78312">
        <ele>388</ele>
        <time>2016-12-04T09:38:29.999Z</time>
      </trkpt>
      <trkpt lat="47.59683" lon="6.78314">
        <ele>388</ele>
        <time>2016-12-04T09:38:30.999Z</time>
      </trkpt>
      <trkpt lat="47.59677" lon="6.78315">
        <ele>388</ele>
        <time>2016-12-04T09:38:31.999Z</time>
      </trkpt>
      <trkpt lat="47.59671" lon="6.78316">
        <ele>388</ele>
        <time>2016-12-04T09:38:32.999Z</time>
      </trkpt>
      <trkpt lat="47.59666" lon="6.78318">
        <ele>386</ele>
        <time>2016-12-04T09:38:33.999Z</time>
      </trkpt>
      <trkpt lat="47.5966" lon="6.78319">
        <ele>386</ele>
        <time>2016-12-04T09:38:34.999Z</time>
      </trkpt>
      <trkpt lat="47.59654" lon="6.7832">
        <ele>385</ele>
        <time>2016-12-04T09:38:35.999Z</time>
      </trkpt>
      <trkpt lat="47.59648" lon="6.78322">
        <ele>384</ele>
        <time>2016-12-04T09:38:36.999Z</time>
      </trkpt>
      <trkpt lat="47.59641" lon="6.78326">
        <ele>384</ele>
        <time>2016-12-04T09:38:37.999Z</time>
      </trkpt>
      <trkpt lat="47.59635" lon="6.78329">
        <ele>383</ele>
        <time>2016-12-04T09:38:38.999Z</time>
      </trkpt>
      <trkpt lat="47.59629" lon="6.78331">
        <ele>382</ele>
        <time>2016-12-04T09:38:39.999Z</time>
      </trkpt>
      <trkpt lat="47.59622" lon="6.78334">
        <ele>389</ele>
        <time>2016-12-04T09:38:40.999Z</time>
      </trkpt>
      <trkpt lat="47.59617" lon="6.78337">
        <ele>389</ele>
        <time>2016-12-04T09:38:41.999Z</time>
      </trkpt>
      <trkpt lat="47.59612" lon="6.78341">
        <ele>388</ele>
        <time>2016-12-04T09:38:42.999Z</time>
      </trkpt>
      <trkpt lat="47.59607" lon="6.78345">
        <ele>388</ele>
        <time>2016-12-04T09:38:43.999Z</time>
      </trkpt>
      <trkpt lat="47.59602" lon="6.78348">
        <ele>388</ele>
        <time>2016-12-04T09:38:44.999Z</time>
      </trkpt>
      <trkpt lat="47.59597" lon="6.78351">
        <ele>388</ele>
        <time>2016-12-04T09:38:45.999Z</time>
      </trkpt>
      <trkpt lat="47.59592" lon="6.78355">
        <ele>388</ele>
        <time>2016-12-04T09:38:46.999Z</time>
      </trkpt>
      <trkpt lat="47.59587" lon="6.7836">
        <ele>388</ele>
        <time>2016-12-04T09:38:47.999Z</time>
      </trkpt>
      <trkpt lat="47.59581" lon="6.78367">
        <ele>384</ele>
        <time>2016-12-04T09:38:48.999Z</time>
      </trkpt>
      <trkpt lat="47.59578" lon="6.78373">
        <ele>384</ele>
        <time>2016-12-04T09:38:49.999Z</time>
      </trkpt>
      <trkpt lat="47.59574" lon="6.78379">
        <ele>384</ele>
        <time>2016-12-04T09:38:50.999Z</time>
      </trkpt>
      <trkpt lat="47.5957" lon="6.78386">
        <ele>384</ele>
        <time>2016-12-04T09:38:51.999Z</time>
      </trkpt>
      <trkpt lat="47.59564" lon="6.78393">
        <ele>385</ele>
        <time>2016-12-04T09:38:52.999Z</time>
      </trkpt>
      <trkpt lat="47.59558" lon="6.78398">
        <ele>384</ele>
        <time>2016-12-04T09:38:53.999Z</time>
      </trkpt>
      <trkpt lat="47.59551" lon="6.78402">
        <ele>384</ele>
        <time>2016-12-04T09:38:54.999Z</time>
      </trkpt>
      <trkpt lat="47.59544" lon="6.78404">
        <ele>383</ele>
        <time>2016-12-04T09:38:55.999Z</time>
      </trkpt>
      <trkpt lat="47.59536" lon="6.78404">
        <ele>383</ele>
        <time>2016-12-04T09:38:56.999Z</time>
      </trkpt>
      <trkpt lat="47.59531" lon="6.78399">
        <ele>383</ele>
        <time>2016-12-04T09:38:57.999Z</time>
      </trkpt>
      <trkpt lat="47.59527" lon="6.78393">
        <ele>382</ele>
        <time>2016-12-04T09:38:58.999Z</time>
      </trkpt>
      <trkpt lat="47.59524" lon="6.78388">
        <ele>382</ele>
        <time>2016-12-04T09:38:59.999Z</time>
      </trkpt>
      <trkpt lat="47.59522" lon="6.7838">
        <ele>382</ele>
        <time>2016-12-04T09:39:00.999Z</time>
      </trkpt>
      <trkpt lat="47.5952" lon="6.78372">
        <ele>382</ele>
        <time>2016-12-04T09:39:01.999Z</time>
      </trkpt>
      <trkpt lat="47.5952" lon="6.78366">
        <ele>382</ele>
        <time>2016-12-04T09:39:02.999Z</time>
      </trkpt>
      <trkpt lat="47.59521" lon="6.7836">
        <ele>381</ele>
        <time>2016-12-04T09:39:03.999Z</time>
      </trkpt>
      <trkpt lat="47.59522" lon="6.78354">
        <ele>381</ele>
        <time>2016-12-04T09:39:04.999Z</time>
      </trkpt>
      <trkpt lat="47.59525" lon="6.7835">
        <ele>381</ele>
        <time>2016-12-04T09:39:05.999Z</time>
      </trkpt>
      <trkpt lat="47.59526" lon="6.78343">
        <ele>381</ele>
        <time>2016-12-04T09:39:06.999Z</time>
      </trkpt>
      <trkpt lat="47.59528" lon="6.78339">
        <ele>381</ele>
        <time>2016-12-04T09:39:07.999Z</time>
      </trkpt>
      <trkpt lat="47.59534" lon="6.78336">
        <ele>382</ele>
        <time>2016-12-04T09:39:08.999Z</time>
      </trkpt>
      <trkpt lat="47.5954" lon="6.78335">
        <ele>382</ele>
        <time>2016-12-04T09:39:09.999Z</time>
      </trkpt>
      <trkpt lat="47.59547" lon="6.78333">
        <ele>377</ele>
        <time>2016-12-04T09:39:10.999Z</time>
      </trkpt>
      <trkpt lat="47.59553" lon="6.7833">
        <ele>377</ele>
        <time>2016-12-04T09:39:11.999Z</time>
      </trkpt>
      <trkpt lat="47.5956" lon="6.78327">
        <ele>378</ele>
        <time>2016-12-04T09:39:12.999Z</time>
      </trkpt>
      <trkpt lat="47.59568" lon="6.78323">
        <ele>378</ele>
        <time>2016-12-04T09:39:13.999Z</time>
      </trkpt>
      <trkpt lat="47.59575" lon="6.78322">
        <ele>379</ele>
        <time>2016-12-04T09:39:14.999Z</time>
      </trkpt>
      <trkpt lat="47.59581" lon="6.78319">
        <ele>379</ele>
        <time>2016-12-04T09:39:15.999Z</time>
      </trkpt>
      <trkpt lat="47.59588" lon="6.78316">
        <ele>381</ele>
        <time>2016-12-04T09:39:16.999Z</time>
      </trkpt>
      <trkpt lat="47.59594" lon="6.78312">
        <ele>380</ele>
        <time>2016-12-04T09:39:17.999Z</time>
      </trkpt>
      <trkpt lat="47.59599" lon="6.78306">
        <ele>380</ele>
        <time>2016-12-04T09:39:18.999Z</time>
      </trkpt>
      <trkpt lat="47.59605" lon="6.78299">
        <ele>379</ele>
        <time>2016-12-04T09:39:19.999Z</time>
      </trkpt>
      <trkpt lat="47.59612" lon="6.78294">
        <ele>379</ele>
        <time>2016-12-04T09:39:20.999Z</time>
      </trkpt>
      <trkpt lat="47.5962" lon="6.78285">
        <ele>378</ele>
        <time>2016-12-04T09:39:21.999Z</time>
      </trkpt>
      <trkpt lat="47.59626" lon="6.78277">
        <ele>378</ele>
        <time>2016-12-04T09:39:22.999Z</time>
      </trkpt>
      <trkpt lat="47.59631" lon="6.78268">
        <ele>377</ele>
        <time>2016-12-04T09:39:23.999Z</time>
      </trkpt>
      <trkpt lat="47.59637" lon="6.7826">
        <ele>377</ele>
        <time>2016-12-04T09:39:24.999Z</time>
      </trkpt>
      <trkpt lat="47.59642" lon="6.78251">
        <ele>377</ele>
        <time>2016-12-04T09:39:25.999Z</time>
      </trkpt>
      <trkpt lat="47.59648" lon="6.78241">
        <ele>372</ele>
        <time>2016-12-04T09:39:26.999Z</time>
      </trkpt>
      <trkpt lat="47.59653" lon="6.78233">
        <ele>372</ele>
        <time>2016-12-04T09:39:27.999Z</time>
      </trkpt>
      <trkpt lat="47.59658" lon="6.78226">
        <ele>371</ele>
        <time>2016-12-04T09:39:28.999Z</time>
      </trkpt>
      <trkpt lat="47.59665" lon="6.78216">
        <ele>370</ele>
        <time>2016-12-04T09:39:29.999Z</time>
      </trkpt>
      <trkpt lat="47.59672" lon="6.7821">
        <ele>372</ele>
        <time>2016-12-04T09:39:30.999Z</time>
      </trkpt>
      <trkpt lat="47.59678" lon="6.78204">
        <ele>372</ele>
        <time>2016-12-04T09:39:31.999Z</time>
      </trkpt>
      <trkpt lat="47.59684" lon="6.78199">
        <ele>371</ele>
        <time>2016-12-04T09:39:32.999Z</time>
      </trkpt>
      <trkpt lat="47.59689" lon="6.78195">
        <ele>371</ele>
        <time>2016-12-04T09:39:33.999Z</time>
      </trkpt>
      <trkpt lat="47.59697" lon="6.78193">
        <ele>371</ele>
        <time>2016-12-04T09:39:34.999Z</time>
      </trkpt>
      <trkpt lat="47.59705" lon="6.78192">
        <ele>371</ele>
        <time>2016-12-04T09:39:35.999Z</time>
      </trkpt>
      <trkpt lat="47.59714" lon="6.78191">
        <ele>372</ele>
        <time>2016-12-04T09:39:36.999Z</time>
      </trkpt>
      <trkpt lat="47.59721" lon="6.78187">
        <ele>371</ele>
        <time>2016-12-04T09:39:37.999Z</time>
      </trkpt>
      <trkpt lat="47.59726" lon="6.78181">
        <ele>371</ele>
        <time>2016-12-04T09:39:38.999Z</time>
      </trkpt>
      <trkpt lat="47.59727" lon="6.7817">
        <ele>370</ele>
        <time>2016-12-04T09:39:39.999Z</time>
      </trkpt>
      <trkpt lat="47.59727" lon="6.78163">
        <ele>370</ele>
        <time>2016-12-04T09:39:40.999Z</time>
      </trkpt>
      <trkpt lat="47.59727" lon="6.78155">
        <ele>370</ele>
        <time>2016-12-04T09:39:41.999Z</time>
      </trkpt>
      <trkpt lat="47.59726" lon="6.78146">
        <ele>371</ele>
        <time>2016-12-04T09:39:42.999Z</time>
      </trkpt>
      <trkpt lat="47.59724" lon="6.78139">
        <ele>371</ele>
        <time>2016-12-04T09:39:43.999Z</time>
      </trkpt>
      <trkpt lat="47.59722" lon="6.78133">
        <ele>372</ele>
        <time>2016-12-04T09:39:44.999Z</time>
      </trkpt>
      <trkpt lat="47.59719" lon="6.78132">
        <ele>372</ele>
        <time>2016-12-04T09:39:45.999Z</time>
      </trkpt>
      <trkpt lat="47.59715" lon="6.7813">
        <ele>372</ele>
        <time>2016-12-04T09:39:46.999Z</time>
      </trkpt>
      <trkpt lat="47.59711" lon="6.78129">
        <ele>372</ele>
        <time>2016-12-04T09:39:47.999Z</time>
      </trkpt>
      <trkpt lat="47.59709" lon="6.7813">
        <ele>372</ele>
        <time>2016-12-04T09:39:48.999Z</time>
      </trkpt>
      <trkpt lat="47.59704" lon="6.78132">
        <ele>372</ele>
        <time>2016-12-04T09:39:49.999Z</time>
      </trkpt>
      <trkpt lat="47.597" lon="6.78134">
        <ele>372</ele>
        <time>2016-12-04T09:39:50.999Z</time>
      </trkpt>
      <trkpt lat="47.59696" lon="6.78136">
        <ele>372</ele>
        <time>2016-12-04T09:39:51.999Z</time>
      </trkpt>
      <trkpt lat="47.59692" lon="6.78139">
        <ele>371</ele>
        <time>2016-12-04T09:39:52.999Z</time>
      </trkpt>
      <trkpt lat="47.59688" lon="6.78141">
        <ele>371</ele>
        <time>2016-12-04T09:39:53.999Z</time>
      </trkpt>
      <trkpt lat="47.59685" lon="6.78142">
        <ele>371</ele>
        <time>2016-12-04T09:39:54.999Z</time>
      </trkpt>
      <trkpt lat="47.59682" lon="6.78142">
        <ele>371</ele>
        <time>2016-12-04T09:39:55.999Z</time>
      </trkpt>
      <trkpt lat="47.5968" lon="6.78142">
        <ele>371</ele>
        <time>2016-12-04T09:39:56.999Z</time>
      </trkpt>
      <trkpt lat="47.59677" lon="6.78143">
        <ele>370</ele>
        <time>2016-12-04T09:39:57.999Z</time>
      </trkpt>
      <trkpt lat="47.59674" lon="6.78143">
        <ele>370</ele>
        <time>2016-12-04T09:39:58.999Z</time>
      </trkpt>
      <trkpt lat="47.59672" lon="6.78144">
        <ele>370</ele>
        <time>2016-12-04T09:39:59.999Z</time>
      </trkpt>
      <trkpt lat="47.59668" lon="6.78143">
        <ele>370</ele>
        <time>2016-12-04T09:40:01.999Z</time>
      </trkpt>
      <trkpt lat="47.59666" lon="6.78143">
        <ele>372</ele>
        <time>2016-12-04T09:40:02.999Z</time>
      </trkpt>
      <trkpt lat="47.59663" lon="6.78142">
        <ele>372</ele>
        <time>2016-12-04T09:40:03.999Z</time>
      </trkpt>
      <trkpt lat="47.59661" lon="6.78141">
        <ele>372</ele>
        <time>2016-12-04T09:40:04.999Z</time>
      </trkpt>
      <trkpt lat="47.59659" lon="6.78139">
        <ele>373</ele>
        <time>2016-12-04T09:40:05.999Z</time>
      </trkpt>
      <trkpt lat="47.59656" lon="6.78139">
        <ele>373</ele>
        <time>2016-12-04T09:40:06.999Z</time>
      </trkpt>
      <trkpt lat="47.59653" lon="6.78138">
        <ele>373</ele>
        <time>2016-12-04T09:40:07.999Z</time>
      </trkpt>
      <trkpt lat="47.5965" lon="6.78137">
        <ele>373</ele>
        <time>2016-12-04T09:40:08.999Z</time>
      </trkpt>
      <trkpt lat="47.59647" lon="6.78136">
        <ele>374</ele>
        <time>2016-12-04T09:40:10.999Z</time>
      </trkpt>
      <trkpt lat="47.59645" lon="6.78136">
        <ele>374</ele>
        <time>2016-12-04T09:40:11.999Z</time>
      </trkpt>
      <trkpt lat="47.59642" lon="6.78136">
        <ele>374</ele>
        <time>2016-12-04T09:40:12.999Z</time>
      </trkpt>
      <trkpt lat="47.5964" lon="6.78136">
        <ele>374</ele>
        <time>2016-12-04T09:40:13.999Z</time>
      </trkpt>
      <trkpt lat="47.59637" lon="6.78136">
        <ele>374</ele>
        <time>2016-12-04T09:40:14.999Z</time>
      </trkpt>
      <trkpt lat="47.59635" lon="6.78138">
        <ele>374</ele>
        <time>2016-12-04T09:40:15.999Z</time>
      </trkpt>
      <trkpt lat="47.59632" lon="6.78139">
        <ele>374</ele>
        <time>2016-12-04T09:40:16.999Z</time>
      </trkpt>
      <trkpt lat="47.59629" lon="6.78139">
        <ele>374</ele>
        <time>2016-12-04T09:40:17.999Z</time>
      </trkpt>
      <trkpt lat="47.59627" lon="6.7814">
        <ele>374</ele>
        <time>2016-12-04T09:40:18.999Z</time>
      </trkpt>
      <trkpt lat="47.59624" lon="6.78141">
        <ele>374</ele>
        <time>2016-12-04T09:40:19.999Z</time>
      </trkpt>
      <trkpt lat="47.59621" lon="6.78141">
        <ele>374</ele>
        <time>2016-12-04T09:40:20.999Z</time>
      </trkpt>
      <trkpt lat="47.59617" lon="6.78141">
        <ele>374</ele>
        <time>2016-12-04T09:40:21.999Z</time>
      </trkpt>
      <trkpt lat="47.59612" lon="6.78141">
        <ele>374</ele>
        <time>2016-12-04T09:40:22.999Z</time>
      </trkpt>
      <trkpt lat="47.59609" lon="6.78142">
        <ele>374</ele>
        <time>2016-12-04T09:40:23.999Z</time>
      </trkpt>
      <trkpt lat="47.59606" lon="6.78143">
        <ele>374</ele>
        <time>2016-12-04T09:40:24.999Z</time>
      </trkpt>
      <trkpt lat="47.59602" lon="6.78145">
        <ele>374</ele>
        <time>2016-12-04T09:40:25.999Z</time>
      </trkpt>
      <trkpt lat="47.59599" lon="6.78147">
        <ele>374</ele>
        <time>2016-12-04T09:40:26.999Z</time>
      </trkpt>
      <trkpt lat="47.59595" lon="6.78149">
        <ele>373</ele>
        <time>2016-12-04T09:40:27.999Z</time>
      </trkpt>
      <trkpt lat="47.59592" lon="6.78151">
        <ele>373</ele>
        <time>2016-12-04T09:40:28.999Z</time>
      </trkpt>
      <trkpt lat="47.5959" lon="6.78153">
        <ele>372</ele>
        <time>2016-12-04T09:40:29.999Z</time>
      </trkpt>
      <trkpt lat="47.59587" lon="6.78155">
        <ele>372</ele>
        <time>2016-12-04T09:40:30.999Z</time>
      </trkpt>
      <trkpt lat="47.59584" lon="6.78157">
        <ele>371</ele>
        <time>2016-12-04T09:40:31.999Z</time>
      </trkpt>
      <trkpt lat="47.59582" lon="6.78159">
        <ele>372</ele>
        <time>2016-12-04T09:40:32.999Z</time>
      </trkpt>
      <trkpt lat="47.59579" lon="6.7816">
        <ele>372</ele>
        <time>2016-12-04T09:40:33.999Z</time>
      </trkpt>
      <trkpt lat="47.59577" lon="6.7816">
        <ele>372</ele>
        <time>2016-12-04T09:40:34.999Z</time>
      </trkpt>
      <trkpt lat="47.59574" lon="6.78161">
        <ele>373</ele>
        <time>2016-12-04T09:40:35.999Z</time>
      </trkpt>
      <trkpt lat="47.59572" lon="6.78163">
        <ele>373</ele>
        <time>2016-12-04T09:40:36.999Z</time>
      </trkpt>
      <trkpt lat="47.5957" lon="6.78164">
        <ele>373</ele>
        <time>2016-12-04T09:40:37.999Z</time>
      </trkpt>
      <trkpt lat="47.59566" lon="6.78167">
        <ele>369</ele>
        <time>2016-12-04T09:40:39.999Z</time>
      </trkpt>
      <trkpt lat="47.59565" lon="6.78168">
        <ele>369</ele>
        <time>2016-12-04T09:40:40.999Z</time>
      </trkpt>
      <trkpt lat="47.59562" lon="6.78171">
        <ele>369</ele>
        <time>2016-12-04T09:40:41.999Z</time>
      </trkpt>
      <trkpt lat="47.5956" lon="6.78172">
        <ele>369</ele>
        <time>2016-12-04T09:40:42.999Z</time>
      </trkpt>
      <trkpt lat="47.59557" lon="6.78174">
        <ele>369</ele>
        <time>2016-12-04T09:40:43.999Z</time>
      </trkpt>
      <trkpt lat="47.59553" lon="6.78177">
        <ele>369</ele>
        <time>2016-12-04T09:40:44.999Z</time>
      </trkpt>
      <trkpt lat="47.5955" lon="6.78178">
        <ele>369</ele>
        <time>2016-12-04T09:40:45.999Z</time>
      </trkpt>
      <trkpt lat="47.59548" lon="6.78178">
        <ele>369</ele>
        <time>2016-12-04T09:40:46.999Z</time>
      </trkpt>
      <trkpt lat="47.59546" lon="6.78178">
        <ele>369</ele>
        <time>2016-12-04T09:40:47.999Z</time>
      </trkpt>
      <trkpt lat="47.59543" lon="6.78177">
        <ele>369</ele>
        <time>2016-12-04T09:40:48.999Z</time>
      </trkpt>
      <trkpt lat="47.5954" lon="6.78176">
        <ele>370</ele>
        <time>2016-12-04T09:40:49.999Z</time>
      </trkpt>
      <trkpt lat="47.59537" lon="6.78176">
        <ele>370</ele>
        <time>2016-12-04T09:40:50.999Z</time>
      </trkpt>
      <trkpt lat="47.59534" lon="6.78175">
        <ele>370</ele>
        <time>2016-12-04T09:40:51.999Z</time>
      </trkpt>
      <trkpt lat="47.59532" lon="6.78173">
        <ele>370</ele>
        <time>2016-12-04T09:40:52.999Z</time>
      </trkpt>
      <trkpt lat="47.59531" lon="6.78171">
        <ele>370</ele>
        <time>2016-12-04T09:40:53.999Z</time>
      </trkpt>
      <trkpt lat="47.59529" lon="6.78169">
        <ele>370</ele>
        <time>2016-12-04T09:40:54.999Z</time>
      </trkpt>
      <trkpt lat="47.59529" lon="6.78165">
        <ele>377</ele>
        <time>2016-12-04T09:40:55.999Z</time>
      </trkpt>
      <trkpt lat="47.59527" lon="6.78162">
        <ele>377</ele>
        <time>2016-12-04T09:40:56.999Z</time>
      </trkpt>
      <trkpt lat="47.59526" lon="6.78158">
        <ele>377</ele>
        <time>2016-12-04T09:40:57.999Z</time>
      </trkpt>
      <trkpt lat="47.59525" lon="6.78155">
        <ele>377</ele>
        <time>2016-12-04T09:40:58.999Z</time>
      </trkpt>
      <trkpt lat="47.59525" lon="6.78151">
        <ele>377</ele>
        <time>2016-12-04T09:40:59.999Z</time>
      </trkpt>
      <trkpt lat="47.59526" lon="6.78147">
        <ele>378</ele>
        <time>2016-12-04T09:41:00.999Z</time>
      </trkpt>
      <trkpt lat="47.59527" lon="6.78144">
        <ele>378</ele>
        <time>2016-12-04T09:41:01.999Z</time>
      </trkpt>
      <trkpt lat="47.59527" lon="6.78141">
        <ele>378</ele>
        <time>2016-12-04T09:41:02.999Z</time>
      </trkpt>
      <trkpt lat="47.5953" lon="6.78136">
        <ele>379</ele>
        <time>2016-12-04T09:41:04.999Z</time>
      </trkpt>
      <trkpt lat="47.59533" lon="6.78133">
        <ele>379</ele>
        <time>2016-12-04T09:41:05.999Z</time>
      </trkpt>
      <trkpt lat="47.59536" lon="6.78129">
        <ele>379</ele>
        <time>2016-12-04T09:41:07.999Z</time>
      </trkpt>
      <trkpt lat="47.59538" lon="6.78127">
        <ele>380</ele>
        <time>2016-12-04T09:41:08.999Z</time>
      </trkpt>
      <trkpt lat="47.59542" lon="6.78129">
        <ele>379</ele>
        <time>2016-12-04T09:41:10.999Z</time>
      </trkpt>
      <trkpt lat="47.59545" lon="6.78129">
        <ele>379</ele>
        <time>2016-12-04T09:41:11.999Z</time>
      </trkpt>
      <trkpt lat="47.59548" lon="6.78129">
        <ele>379</ele>
        <time>2016-12-04T09:41:12.999Z</time>
      </trkpt>
      <trkpt lat="47.59552" lon="6.78129">
        <ele>379</ele>
        <time>2016-12-04T09:41:13.999Z</time>
      </trkpt>
      <trkpt lat="47.59555" lon="6.78132">
        <ele>379</ele>
        <time>2016-12-04T09:41:14.999Z</time>
      </trkpt>
      <trkpt lat="47.59558" lon="6.78133">
        <ele>378</ele>
        <time>2016-12-04T09:41:15.999Z</time>
      </trkpt>
      <trkpt lat="47.59562" lon="6.78134">
        <ele>378</ele>
        <time>2016-12-04T09:41:16.999Z</time>
      </trkpt>
      <trkpt lat="47.59564" lon="6.78136">
        <ele>378</ele>
        <time>2016-12-04T09:41:17.999Z</time>
      </trkpt>
      <trkpt lat="47.59568" lon="6.78136">
        <ele>378</ele>
        <time>2016-12-04T09:41:18.999Z</time>
      </trkpt>
      <trkpt lat="47.59572" lon="6.78136">
        <ele>378</ele>
        <time>2016-12-04T09:41:19.999Z</time>
      </trkpt>
      <trkpt lat="47.59575" lon="6.78135">
        <ele>378</ele>
        <time>2016-12-04T09:41:20.999Z</time>
      </trkpt>
      <trkpt lat="47.59578" lon="6.78132">
        <ele>378</ele>
        <time>2016-12-04T09:41:21.999Z</time>
      </trkpt>
      <trkpt lat="47.59581" lon="6.78129">
        <ele>379</ele>
        <time>2016-12-04T09:41:22.999Z</time>
      </trkpt>
      <trkpt lat="47.59584" lon="6.78126">
        <ele>377</ele>
        <time>2016-12-04T09:41:23.999Z</time>
      </trkpt>
      <trkpt lat="47.59587" lon="6.78123">
        <ele>377</ele>
        <time>2016-12-04T09:41:24.999Z</time>
      </trkpt>
      <trkpt lat="47.59589" lon="6.7812">
        <ele>378</ele>
        <time>2016-12-04T09:41:25.999Z</time>
      </trkpt>
      <trkpt lat="47.59592" lon="6.78119">
        <ele>378</ele>
        <time>2016-12-04T09:41:26.999Z</time>
      </trkpt>
      <trkpt lat="47.59595" lon="6.78117">
        <ele>378</ele>
        <time>2016-12-04T09:41:27.999Z</time>
      </trkpt>
      <trkpt lat="47.59597" lon="6.78115">
        <ele>378</ele>
        <time>2016-12-04T09:41:28.999Z</time>
      </trkpt>
      <trkpt lat="47.596" lon="6.78113">
        <ele>378</ele>
        <time>2016-12-04T09:41:29.999Z</time>
      </trkpt>
      <trkpt lat="47.59603" lon="6.78112">
        <ele>378</ele>
        <time>2016-12-04T09:41:30.999Z</time>
      </trkpt>
      <trkpt lat="47.59605" lon="6.7811">
        <ele>379</ele>
        <time>2016-12-04T09:41:31.999Z</time>
      </trkpt>
      <trkpt lat="47.59607" lon="6.78107">
        <ele>379</ele>
        <time>2016-12-04T09:41:32.999Z</time>
      </trkpt>
      <trkpt lat="47.5961" lon="6.78105">
        <ele>379</ele>
        <time>2016-12-04T09:41:33.999Z</time>
      </trkpt>
      <trkpt lat="47.59612" lon="6.78102">
        <ele>379</ele>
        <time>2016-12-04T09:41:34.999Z</time>
      </trkpt>
      <trkpt lat="47.59613" lon="6.781">
        <ele>379</ele>
        <time>2016-12-04T09:41:35.999Z</time>
      </trkpt>
      <trkpt lat="47.59615" lon="6.78096">
        <ele>379</ele>
        <time>2016-12-04T09:41:36.999Z</time>
      </trkpt>
      <trkpt lat="47.59618" lon="6.78093">
        <ele>379</ele>
        <time>2016-12-04T09:41:37.999Z</time>
      </trkpt>
      <trkpt lat="47.59619" lon="6.78089">
        <ele>379</ele>
        <time>2016-12-04T09:41:38.999Z</time>
      </trkpt>
      <trkpt lat="47.59621" lon="6.78085">
        <ele>379</ele>
        <time>2016-12-04T09:41:39.999Z</time>
      </trkpt>
      <trkpt lat="47.59623" lon="6.78082">
        <ele>389</ele>
        <time>2016-12-04T09:41:40.999Z</time>
      </trkpt>
      <trkpt lat="47.59625" lon="6.7808">
        <ele>389</ele>
        <time>2016-12-04T09:41:41.999Z</time>
      </trkpt>
      <trkpt lat="47.59626" lon="6.78078">
        <ele>389</ele>
        <time>2016-12-04T09:41:42.999Z</time>
      </trkpt>
      <trkpt lat="47.59628" lon="6.78076">
        <ele>389</ele>
        <time>2016-12-04T09:41:43.999Z</time>
      </trkpt>
      <trkpt lat="47.59631" lon="6.78074">
        <ele>389</ele>
        <time>2016-12-04T09:41:44.999Z</time>
      </trkpt>
      <trkpt lat="47.59632" lon="6.78072">
        <ele>389</ele>
        <time>2016-12-04T09:41:45.999Z</time>
      </trkpt>
      <trkpt lat="47.59635" lon="6.78071">
        <ele>389</ele>
        <time>2016-12-04T09:41:46.999Z</time>
      </trkpt>
      <trkpt lat="47.59638" lon="6.78069">
        <ele>389</ele>
        <time>2016-12-04T09:41:47.999Z</time>
      </trkpt>
      <trkpt lat="47.59641" lon="6.78067">
        <ele>388</ele>
        <time>2016-12-04T09:41:48.999Z</time>
      </trkpt>
      <trkpt lat="47.59645" lon="6.78065">
        <ele>388</ele>
        <time>2016-12-04T09:41:49.999Z</time>
      </trkpt>
      <trkpt lat="47.59648" lon="6.78063">
        <ele>388</ele>
        <time>2016-12-04T09:41:50.999Z</time>
      </trkpt>
      <trkpt lat="47.59651" lon="6.78062">
        <ele>388</ele>
        <time>2016-12-04T09:41:51.999Z</time>
      </trkpt>
      <trkpt lat="47.59653" lon="6.78061">
        <ele>388</ele>
        <time>2016-12-04T09:41:52.999Z</time>
      </trkpt>
      <trkpt lat="47.59657" lon="6.7806">
        <ele>388</ele>
        <time>2016-12-04T09:41:53.999Z</time>
      </trkpt>
      <trkpt lat="47.5966" lon="6.78059">
        <ele>388</ele>
        <time>2016-12-04T09:41:54.999Z</time>
      </trkpt>
      <trkpt lat="47.59663" lon="6.78058">
        <ele>388</ele>
        <time>2016-12-04T09:41:55.999Z</time>
      </trkpt>
      <trkpt lat="47.59665" lon="6.78056">
        <ele>388</ele>
        <time>2016-12-04T09:41:56.999Z</time>
      </trkpt>
      <trkpt lat="47.59668" lon="6.78055">
        <ele>386</ele>
        <time>2016-12-04T09:41:57.999Z</time>
      </trkpt>
      <trkpt lat="47.59672" lon="6.78052">
        <ele>386</ele>
        <time>2016-12-04T09:41:59.999Z</time>
      </trkpt>
      <trkpt lat="47.59673" lon="6.78051">
        <ele>386</ele>
        <time>2016-12-04T09:42:00.999Z</time>
      </trkpt>
      <trkpt lat="47.59677" lon="6.78047">
        <ele>386</ele>
        <time>2016-12-04T09:42:02.999Z</time>
      </trkpt>
      <trkpt lat="47.59679" lon="6.78045">
        <ele>387</ele>
        <time>2016-12-04T09:42:03.999Z</time>
      </trkpt>
      <trkpt lat="47.5968" lon="6.78043">
        <ele>387</ele>
        <time>2016-12-04T09:42:04.999Z</time>
      </trkpt>
      <trkpt lat="47.59682" lon="6.7804">
        <ele>387</ele>
        <time>2016-12-04T09:42:05.999Z</time>
      </trkpt>
      <trkpt lat="47.59684" lon="6.78037">
        <ele>388</ele>
        <time>2016-12-04T09:42:06.999Z</time>
      </trkpt>
      <trkpt lat="47.59685" lon="6.78034">
        <ele>388</ele>
        <time>2016-12-04T09:42:07.999Z</time>
      </trkpt>
      <trkpt lat="47.59688" lon="6.78031">
        <ele>388</ele>
        <time>2016-12-04T09:42:09.999Z</time>
      </trkpt>
      <trkpt lat="47.5969" lon="6.7803">
        <ele>388</ele>
        <time>2016-12-04T09:42:10.999Z</time>
      </trkpt>
      <trkpt lat="47.59692" lon="6.78024">
        <ele>389</ele>
        <time>2016-12-04T09:42:12.999Z</time>
      </trkpt>
      <trkpt lat="47.59695" lon="6.78022">
        <ele>389</ele>
        <time>2016-12-04T09:42:13.999Z</time>
      </trkpt>
      <trkpt lat="47.59697" lon="6.7802">
        <ele>389</ele>
        <time>2016-12-04T09:42:14.999Z</time>
      </trkpt>
      <trkpt lat="47.59699" lon="6.78018">
        <ele>389</ele>
        <time>2016-12-04T09:42:15.999Z</time>
      </trkpt>
      <trkpt lat="47.59702" lon="6.78016">
        <ele>389</ele>
        <time>2016-12-04T09:42:16.999Z</time>
      </trkpt>
      <trkpt lat="47.59703" lon="6.78014">
        <ele>389</ele>
        <time>2016-12-04T09:42:17.999Z</time>
      </trkpt>
      <trkpt lat="47.59706" lon="6.78013">
        <ele>389</ele>
        <time>2016-12-04T09:42:19.999Z</time>
      </trkpt>
      <trkpt lat="47.59708" lon="6.78013">
        <ele>389</ele>
        <time>2016-12-04T09:42:20.999Z</time>
      </trkpt>
      <trkpt lat="47.59712" lon="6.78012">
        <ele>389</ele>
        <time>2016-12-04T09:42:22.999Z</time>
      </trkpt>
      <trkpt lat="47.59714" lon="6.78011">
        <ele>389</ele>
        <time>2016-12-04T09:42:23.999Z</time>
      </trkpt>
      <trkpt lat="47.59717" lon="6.7801">
        <ele>388</ele>
        <time>2016-12-04T09:42:24.999Z</time>
      </trkpt>
      <trkpt lat="47.5972" lon="6.78008">
        <ele>389</ele>
        <time>2016-12-04T09:42:25.999Z</time>
      </trkpt>
      <trkpt lat="47.59723" lon="6.78006">
        <ele>389</ele>
        <time>2016-12-04T09:42:26.999Z</time>
      </trkpt>
      <trkpt lat="47.59725" lon="6.78005">
        <ele>389</ele>
        <time>2016-12-04T09:42:27.999Z</time>
      </trkpt>
      <trkpt lat="47.59729" lon="6.78001">
        <ele>389</ele>
        <time>2016-12-04T09:42:29.999Z</time>
      </trkpt>
      <trkpt lat="47.59731" lon="6.78">
        <ele>396</ele>
        <time>2016-12-04T09:42:30.999Z</time>
      </trkpt>
      <trkpt lat="47.59734" lon="6.77996">
        <ele>395</ele>
        <time>2016-12-04T09:42:32.999Z</time>
      </trkpt>
      <trkpt lat="47.59736" lon="6.77994">
        <ele>395</ele>
        <time>2016-12-04T09:42:33.999Z</time>
      </trkpt>
      <trkpt lat="47.59739" lon="6.7799">
        <ele>395</ele>
        <time>2016-12-04T09:42:35.999Z</time>
      </trkpt>
      <trkpt lat="47.5974" lon="6.77988">
        <ele>395</ele>
        <time>2016-12-04T09:42:36.999Z</time>
      </trkpt>
      <trkpt lat="47.59743" lon="6.77983">
        <ele>396</ele>
        <time>2016-12-04T09:42:38.999Z</time>
      </trkpt>
      <trkpt lat="47.59744" lon="6.77981">
        <ele>396</ele>
        <time>2016-12-04T09:42:39.999Z</time>
      </trkpt>
      <trkpt lat="47.59746" lon="6.77976">
        <ele>397</ele>
        <time>2016-12-04T09:42:41.999Z</time>
      </trkpt>
      <trkpt lat="47.59747" lon="6.77974">
        <ele>397</ele>
        <time>2016-12-04T09:42:42.999Z</time>
      </trkpt>
      <trkpt lat="47.59749" lon="6.77971">
        <ele>397</ele>
        <time>2016-12-04T09:42:43.999Z</time>
      </trkpt>
      <trkpt lat="47.59751" lon="6.77969">
        <ele>393</ele>
        <time>2016-12-04T09:42:44.999Z</time>
      </trkpt>
      <trkpt lat="47.59755" lon="6.77966">
        <ele>393</ele>
        <time>2016-12-04T09:42:46.999Z</time>
      </trkpt>
      <trkpt lat="47.59756" lon="6.77964">
        <ele>393</ele>
        <time>2016-12-04T09:42:47.999Z</time>
      </trkpt>
      <trkpt lat="47.59758" lon="6.77962">
        <ele>393</ele>
        <time>2016-12-04T09:42:48.999Z</time>
      </trkpt>
      <trkpt lat="47.5976" lon="6.7796">
        <ele>393</ele>
        <time>2016-12-04T09:42:49.999Z</time>
      </trkpt>
      <trkpt lat="47.59764" lon="6.77957">
        <ele>394</ele>
        <time>2016-12-04T09:42:51.999Z</time>
      </trkpt>
      <trkpt lat="47.59765" lon="6.77955">
        <ele>394</ele>
        <time>2016-12-04T09:42:52.999Z</time>
      </trkpt>
      <trkpt lat="47.59768" lon="6.77952">
        <ele>394</ele>
        <time>2016-12-04T09:42:54.999Z</time>
      </trkpt>
      <trkpt lat="47.59769" lon="6.77951">
        <ele>394</ele>
        <time>2016-12-04T09:42:55.999Z</time>
      </trkpt>
      <trkpt lat="47.59773" lon="6.77947">
        <ele>394</ele>
        <time>2016-12-04T09:42:57.999Z</time>
      </trkpt>
      <trkpt lat="47.59774" lon="6.77945">
        <ele>394</ele>
        <time>2016-12-04T09:42:58.999Z</time>
      </trkpt>
      <trkpt lat="47.59777" lon="6.77942">
        <ele>394</ele>
        <time>2016-12-04T09:43:00.999Z</time>
      </trkpt>
      <trkpt lat="47.59779" lon="6.77942">
        <ele>394</ele>
        <time>2016-12-04T09:43:01.999Z</time>
      </trkpt>
      <trkpt lat="47.59782" lon="6.77937">
        <ele>394</ele>
        <time>2016-12-04T09:43:03.999Z</time>
      </trkpt>
      <trkpt lat="47.59783" lon="6.77934">
        <ele>394</ele>
        <time>2016-12-04T09:43:04.999Z</time>
      </trkpt>
      <trkpt lat="47.59785" lon="6.77929">
        <ele>394</ele>
        <time>2016-12-04T09:43:06.999Z</time>
      </trkpt>
      <trkpt lat="47.59785" lon="6.77926">
        <ele>394</ele>
        <time>2016-12-04T09:43:07.999Z</time>
      </trkpt>
      <trkpt lat="47.59786" lon="6.77923">
        <ele>394</ele>
        <time>2016-12-04T09:43:08.999Z</time>
      </trkpt>
      <trkpt lat="47.59786" lon="6.77919">
        <ele>394</ele>
        <time>2016-12-04T09:43:09.999Z</time>
      </trkpt>
      <trkpt lat="47.59787" lon="6.77913">
        <ele>399</ele>
        <time>2016-12-04T09:43:11.999Z</time>
      </trkpt>
      <trkpt lat="47.59787" lon="6.77909">
        <ele>399</ele>
        <time>2016-12-04T09:43:12.999Z</time>
      </trkpt>
      <trkpt lat="47.59787" lon="6.77905">
        <ele>399</ele>
        <time>2016-12-04T09:43:13.999Z</time>
      </trkpt>
      <trkpt lat="47.59787" lon="6.77902">
        <ele>399</ele>
        <time>2016-12-04T09:43:14.999Z</time>
      </trkpt>
      <trkpt lat="47.59787" lon="6.77899">
        <ele>399</ele>
        <time>2016-12-04T09:43:15.999Z</time>
      </trkpt>
      <trkpt lat="47.59787" lon="6.77895">
        <ele>399</ele>
        <time>2016-12-04T09:43:16.999Z</time>
      </trkpt>
      <trkpt lat="47.59787" lon="6.7789">
        <ele>399</ele>
        <time>2016-12-04T09:43:18.999Z</time>
      </trkpt>
      <trkpt lat="47.59787" lon="6.77886">
        <ele>400</ele>
        <time>2016-12-04T09:43:19.999Z</time>
      </trkpt>
      <trkpt lat="47.59787" lon="6.77882">
        <ele>400</ele>
        <time>2016-12-04T09:43:21.999Z</time>
      </trkpt>
      <trkpt lat="47.59787" lon="6.77878">
        <ele>400</ele>
        <time>2016-12-04T09:43:22.999Z</time>
      </trkpt>
      <trkpt lat="47.59787" lon="6.77873">
        <ele>400</ele>
        <time>2016-12-04T09:43:23.999Z</time>
      </trkpt>
      <trkpt lat="47.59787" lon="6.77871">
        <ele>400</ele>
        <time>2016-12-04T09:43:24.999Z</time>
      </trkpt>
      <trkpt lat="47.59787" lon="6.77868">
        <ele>400</ele>
        <time>2016-12-04T09:43:25.999Z</time>
      </trkpt>
      <trkpt lat="47.59788" lon="6.77863">
        <ele>400</ele>
        <time>2016-12-04T09:43:26.999Z</time>
      </trkpt>
      <trkpt lat="47.59788" lon="6.7786">
        <ele>400</ele>
        <time>2016-12-04T09:43:27.999Z</time>
      </trkpt>
      <trkpt lat="47.59788" lon="6.77856">
        <ele>400</ele>
        <time>2016-12-04T09:43:28.999Z</time>
      </trkpt>
      <trkpt lat="47.59788" lon="6.77852">
        <ele>400</ele>
        <time>2016-12-04T09:43:29.999Z</time>
      </trkpt>
      <trkpt lat="47.59789" lon="6.77849">
        <ele>400</ele>
        <time>2016-12-04T09:43:30.999Z</time>
      </trkpt>
      <trkpt lat="47.59789" lon="6.77846">
        <ele>400</ele>
        <time>2016-12-04T09:43:31.999Z</time>
      </trkpt>
      <trkpt lat="47.59789" lon="6.77842">
        <ele>400</ele>
        <time>2016-12-04T09:43:32.999Z</time>
      </trkpt>
      <trkpt lat="47.59789" lon="6.77837">
        <ele>400</ele>
        <time>2016-12-04T09:43:34.999Z</time>
      </trkpt>
      <trkpt lat="47.5979" lon="6.77834">
        <ele>400</ele>
        <time>2016-12-04T09:43:35.999Z</time>
      </trkpt>
      <trkpt lat="47.59791" lon="6.7783">
        <ele>404</ele>
        <time>2016-12-04T09:43:37.999Z</time>
      </trkpt>
      <trkpt lat="47.59792" lon="6.77827">
        <ele>404</ele>
        <time>2016-12-04T09:43:38.999Z</time>
      </trkpt>
      <trkpt lat="47.59794" lon="6.77821">
        <ele>404</ele>
        <time>2016-12-04T09:43:40.999Z</time>
      </trkpt>
      <trkpt lat="47.59796" lon="6.77817">
        <ele>403</ele>
        <time>2016-12-04T09:43:41.999Z</time>
      </trkpt>
      <trkpt lat="47.59798" lon="6.77814">
        <ele>403</ele>
        <time>2016-12-04T09:43:42.999Z</time>
      </trkpt>
      <trkpt lat="47.59799" lon="6.77811">
        <ele>403</ele>
        <time>2016-12-04T09:43:43.999Z</time>
      </trkpt>
      <trkpt lat="47.59801" lon="6.77807">
        <ele>403</ele>
        <time>2016-12-04T09:43:44.999Z</time>
      </trkpt>
      <trkpt lat="47.59802" lon="6.77803">
        <ele>403</ele>
        <time>2016-12-04T09:43:45.999Z</time>
      </trkpt>
      <trkpt lat="47.59803" lon="6.778">
        <ele>403</ele>
        <time>2016-12-04T09:43:46.999Z</time>
      </trkpt>
      <trkpt lat="47.59803" lon="6.77796">
        <ele>404</ele>
        <time>2016-12-04T09:43:47.999Z</time>
      </trkpt>
      <trkpt lat="47.59804" lon="6.7779">
        <ele>404</ele>
        <time>2016-12-04T09:43:49.999Z</time>
      </trkpt>
      <trkpt lat="47.59803" lon="6.77787">
        <ele>404</ele>
        <time>2016-12-04T09:43:50.999Z</time>
      </trkpt>
      <trkpt lat="47.598" lon="6.77783">
        <ele>404</ele>
        <time>2016-12-04T09:43:52.999Z</time>
      </trkpt>
      <trkpt lat="47.59798" lon="6.77782">
        <ele>405</ele>
        <time>2016-12-04T09:43:53.999Z</time>
      </trkpt>
      <trkpt lat="47.59794" lon="6.77781">
        <ele>405</ele>
        <time>2016-12-04T09:43:55.999Z</time>
      </trkpt>
      <trkpt lat="47.59794" lon="6.77781">
        <ele>405</ele>
        <time>2016-12-04T09:43:56.999Z</time>
      </trkpt>
      <trkpt lat="47.59794" lon="6.77782">
        <ele>405</ele>
        <time>2016-12-04T09:44:00.999Z</time>
      </trkpt>
      <trkpt lat="47.59789" lon="6.77791">
        <ele>405</ele>
        <time>2016-12-04T09:44:01.999Z</time>
      </trkpt>
      <trkpt lat="47.59788" lon="6.77794">
        <ele>405</ele>
        <time>2016-12-04T09:44:02.999Z</time>
      </trkpt>
      <trkpt lat="47.59787" lon="6.77796">
        <ele>405</ele>
        <time>2016-12-04T09:44:03.999Z</time>
      </trkpt>
      <trkpt lat="47.59785" lon="6.77801">
        <ele>405</ele>
        <time>2016-12-04T09:44:06.999Z</time>
      </trkpt>
      <trkpt lat="47.59783" lon="6.77805">
        <ele>405</ele>
        <time>2016-12-04T09:44:07.999Z</time>
      </trkpt>
      <trkpt lat="47.59781" lon="6.77808">
        <ele>406</ele>
        <time>2016-12-04T09:44:08.999Z</time>
      </trkpt>
      <trkpt lat="47.59779" lon="6.77813">
        <ele>406</ele>
        <time>2016-12-04T09:44:09.999Z</time>
      </trkpt>
      <trkpt lat="47.59778" lon="6.77819">
        <ele>406</ele>
        <time>2016-12-04T09:44:11.999Z</time>
      </trkpt>
      <trkpt lat="47.59778" lon="6.77821">
        <ele>406</ele>
        <time>2016-12-04T09:44:12.999Z</time>
      </trkpt>
      <trkpt lat="47.59777" lon="6.77825">
        <ele>406</ele>
        <time>2016-12-04T09:44:13.999Z</time>
      </trkpt>
      <trkpt lat="47.59776" lon="6.77829">
        <ele>406</ele>
        <time>2016-12-04T09:44:14.999Z</time>
      </trkpt>
      <trkpt lat="47.59775" lon="6.77834">
        <ele>403</ele>
        <time>2016-12-04T09:44:16.999Z</time>
      </trkpt>
      <trkpt lat="47.59775" lon="6.77836">
        <ele>403</ele>
        <time>2016-12-04T09:44:17.999Z</time>
      </trkpt>
      <trkpt lat="47.59773" lon="6.7784">
        <ele>404</ele>
        <time>2016-12-04T09:44:19.999Z</time>
      </trkpt>
      <trkpt lat="47.59772" lon="6.77842">
        <ele>404</ele>
        <time>2016-12-04T09:44:20.999Z</time>
      </trkpt>
      <trkpt lat="47.5977" lon="6.77844">
        <ele>404</ele>
        <time>2016-12-04T09:44:21.999Z</time>
      </trkpt>
      <trkpt lat="47.59768" lon="6.77846">
        <ele>404</ele>
        <time>2016-12-04T09:44:22.999Z</time>
      </trkpt>
      <trkpt lat="47.59766" lon="6.77848">
        <ele>404</ele>
        <time>2016-12-04T09:44:23.999Z</time>
      </trkpt>
      <trkpt lat="47.59763" lon="6.7785">
        <ele>404</ele>
        <time>2016-12-04T09:44:24.999Z</time>
      </trkpt>
      <trkpt lat="47.59761" lon="6.77853">
        <ele>404</ele>
        <time>2016-12-04T09:44:34.999Z</time>
      </trkpt>
      <trkpt lat="47.59747" lon="6.77866">
        <ele>409</ele>
        <time>2016-12-04T09:44:35.999Z</time>
      </trkpt>
      <trkpt lat="47.59747" lon="6.77866">
        <ele>409</ele>
        <time>2016-12-04T09:44:36.999Z</time>
      </trkpt>
      <trkpt lat="47.59743" lon="6.77871">
        <ele>408</ele>
        <time>2016-12-04T09:44:37.999Z</time>
      </trkpt>
      <trkpt lat="47.5974" lon="6.77875">
        <ele>408</ele>
        <time>2016-12-04T09:44:39.999Z</time>
      </trkpt>
      <trkpt lat="47.59738" lon="6.77876">
        <ele>408</ele>
        <time>2016-12-04T09:44:40.999Z</time>
      </trkpt>
      <trkpt lat="47.59734" lon="6.77879">
        <ele>408</ele>
        <time>2016-12-04T09:44:43.999Z</time>
      </trkpt>
      <trkpt lat="47.59733" lon="6.7788">
        <ele>408</ele>
        <time>2016-12-04T09:44:44.999Z</time>
      </trkpt>
      <trkpt lat="47.59729" lon="6.77881">
        <ele>408</ele>
        <time>2016-12-04T09:44:47.999Z</time>
      </trkpt>
      <trkpt lat="47.59728" lon="6.77881">
        <ele>408</ele>
        <time>2016-12-04T09:44:48.999Z</time>
      </trkpt>
      <trkpt lat="47.59725" lon="6.77883">
        <ele>408</ele>
        <time>2016-12-04T09:44:50.999Z</time>
      </trkpt>
      <trkpt lat="47.59723" lon="6.77884">
        <ele>408</ele>
        <time>2016-12-04T09:44:51.999Z</time>
      </trkpt>
      <trkpt lat="47.59718" lon="6.77884">
        <ele>408</ele>
        <time>2016-12-04T09:44:55.999Z</time>
      </trkpt>
      <trkpt lat="47.59717" lon="6.77885">
        <ele>408</ele>
        <time>2016-12-04T09:44:56.999Z</time>
      </trkpt>
      <trkpt lat="47.59713" lon="6.77886">
        <ele>408</ele>
        <time>2016-12-04T09:44:58.999Z</time>
      </trkpt>
      <trkpt lat="47.59712" lon="6.77886">
        <ele>408</ele>
        <time>2016-12-04T09:44:59.999Z</time>
      </trkpt>
      <trkpt lat="47.59712" lon="6.77892">
        <ele>408</ele>
        <time>2016-12-04T09:45:44.999Z</time>
      </trkpt>
      <trkpt lat="47.59712" lon="6.77892">
        <ele>408</ele>
        <time>2016-12-04T09:45:45.999Z</time>
      </trkpt>
      <trkpt lat="47.59709" lon="6.77888">
        <ele>408</ele>
        <time>2016-12-04T09:46:05.999Z</time>
      </trkpt>
      <trkpt lat="47.59709" lon="6.77887">
        <ele>408</ele>
        <time>2016-12-04T09:46:06.999Z</time>
      </trkpt>
      <trkpt lat="47.59711" lon="6.77891">
        <ele>408</ele>
        <time>2016-12-04T09:46:14.999Z</time>
      </trkpt>
      <trkpt lat="47.59712" lon="6.77893">
        <ele>408</ele>
        <time>2016-12-04T09:46:15.999Z</time>
      </trkpt>
      <trkpt lat="47.59714" lon="6.77898">
        <ele>407</ele>
        <time>2016-12-04T09:46:19.999Z</time>
      </trkpt>
      <trkpt lat="47.59714" lon="6.77899">
        <ele>407</ele>
        <time>2016-12-04T09:46:20.999Z</time>
      </trkpt>
      <trkpt lat="47.5971" lon="6.77902">
        <ele>407</ele>
        <time>2016-12-04T09:46:24.999Z</time>
      </trkpt>
      <trkpt lat="47.5971" lon="6.77902">
        <ele>407</ele>
        <time>2016-12-04T09:46:25.999Z</time>
      </trkpt>
      <trkpt lat="47.59714" lon="6.77903">
        <ele>407</ele>
        <time>2016-12-04T09:47:09.999Z</time>
      </trkpt>
      <trkpt lat="47.59714" lon="6.77902">
        <ele>407</ele>
        <time>2016-12-04T09:47:10.999Z</time>
      </trkpt>
      <trkpt lat="47.59712" lon="6.77897">
        <ele>407</ele>
        <time>2016-12-04T09:48:38.999Z</time>
      </trkpt>
      <trkpt lat="47.5971" lon="6.77896">
        <ele>407</ele>
        <time>2016-12-04T09:48:39.999Z</time>
      </trkpt>
      <trkpt lat="47.59708" lon="6.77895">
        <ele>407</ele>
        <time>2016-12-04T09:48:40.999Z</time>
      </trkpt>
      <trkpt lat="47.59705" lon="6.77893">
        <ele>407</ele>
        <time>2016-12-04T09:48:41.999Z</time>
      </trkpt>
      <trkpt lat="47.59703" lon="6.77891">
        <ele>407</ele>
        <time>2016-12-04T09:48:42.999Z</time>
      </trkpt>
      <trkpt lat="47.59701" lon="6.77889">
        <ele>408</ele>
        <time>2016-12-04T09:48:43.999Z</time>
      </trkpt>
      <trkpt lat="47.59699" lon="6.77887">
        <ele>408</ele>
        <time>2016-12-04T09:48:44.999Z</time>
      </trkpt>
      <trkpt lat="47.59696" lon="6.77883">
        <ele>408</ele>
        <time>2016-12-04T09:48:45.999Z</time>
      </trkpt>
      <trkpt lat="47.59694" lon="6.7788">
        <ele>408</ele>
        <time>2016-12-04T09:48:46.999Z</time>
      </trkpt>
      <trkpt lat="47.5969" lon="6.77877">
        <ele>408</ele>
        <time>2016-12-04T09:48:47.999Z</time>
      </trkpt>
      <trkpt lat="47.59688" lon="6.77873">
        <ele>408</ele>
        <time>2016-12-04T09:48:48.999Z</time>
      </trkpt>
      <trkpt lat="47.59685" lon="6.7787">
        <ele>408</ele>
        <time>2016-12-04T09:48:49.999Z</time>
      </trkpt>
      <trkpt lat="47.59683" lon="6.77867">
        <ele>408</ele>
        <time>2016-12-04T09:48:50.999Z</time>
      </trkpt>
      <trkpt lat="47.59681" lon="6.77864">
        <ele>408</ele>
        <time>2016-12-04T09:48:51.999Z</time>
      </trkpt>
      <trkpt lat="47.59678" lon="6.77862">
        <ele>408</ele>
        <time>2016-12-04T09:48:52.999Z</time>
      </trkpt>
      <trkpt lat="47.59675" lon="6.77859">
        <ele>409</ele>
        <time>2016-12-04T09:48:53.999Z</time>
      </trkpt>
      <trkpt lat="47.59672" lon="6.77855">
        <ele>409</ele>
        <time>2016-12-04T09:48:54.999Z</time>
      </trkpt>
      <trkpt lat="47.59669" lon="6.77852">
        <ele>409</ele>
        <time>2016-12-04T09:48:55.999Z</time>
      </trkpt>
      <trkpt lat="47.59664" lon="6.77848">
        <ele>408</ele>
        <time>2016-12-04T09:48:56.999Z</time>
      </trkpt>
      <trkpt lat="47.5966" lon="6.77844">
        <ele>408</ele>
        <time>2016-12-04T09:48:57.999Z</time>
      </trkpt>
      <trkpt lat="47.59656" lon="6.77838">
        <ele>408</ele>
        <time>2016-12-04T09:48:58.999Z</time>
      </trkpt>
      <trkpt lat="47.59651" lon="6.77831">
        <ele>411</ele>
        <time>2016-12-04T09:48:59.999Z</time>
      </trkpt>
      <trkpt lat="47.59646" lon="6.77825">
        <ele>411</ele>
        <time>2016-12-04T09:49:00.999Z</time>
      </trkpt>
      <trkpt lat="47.59643" lon="6.7782">
        <ele>411</ele>
        <time>2016-12-04T09:49:01.999Z</time>
      </trkpt>
      <trkpt lat="47.59641" lon="6.77816">
        <ele>411</ele>
        <time>2016-12-04T09:49:02.999Z</time>
      </trkpt>
      <trkpt lat="47.59638" lon="6.77812">
        <ele>411</ele>
        <time>2016-12-04T09:49:03.999Z</time>
      </trkpt>
      <trkpt lat="47.59636" lon="6.77809">
        <ele>411</ele>
        <time>2016-12-04T09:49:04.999Z</time>
      </trkpt>
      <trkpt lat="47.59634" lon="6.77806">
        <ele>412</ele>
        <time>2016-12-04T09:49:05.999Z</time>
      </trkpt>
      <trkpt lat="47.59632" lon="6.77803">
        <ele>412</ele>
        <time>2016-12-04T09:49:06.999Z</time>
      </trkpt>
      <trkpt lat="47.5963" lon="6.778">
        <ele>412</ele>
        <time>2016-12-04T09:49:07.999Z</time>
      </trkpt>
      <trkpt lat="47.59628" lon="6.77795">
        <ele>412</ele>
        <time>2016-12-04T09:49:09.999Z</time>
      </trkpt>
      <trkpt lat="47.59627" lon="6.77793">
        <ele>412</ele>
        <time>2016-12-04T09:49:10.999Z</time>
      </trkpt>
      <trkpt lat="47.59625" lon="6.7779">
        <ele>412</ele>
        <time>2016-12-04T09:49:11.999Z</time>
      </trkpt>
      <trkpt lat="47.59623" lon="6.77786">
        <ele>412</ele>
        <time>2016-12-04T09:49:12.999Z</time>
      </trkpt>
      <trkpt lat="47.5962" lon="6.77784">
        <ele>412</ele>
        <time>2016-12-04T09:49:13.999Z</time>
      </trkpt>
      <trkpt lat="47.59613" lon="6.77779">
        <ele>412</ele>
        <time>2016-12-04T09:49:14.999Z</time>
      </trkpt>
      <trkpt lat="47.59609" lon="6.77777">
        <ele>412</ele>
        <time>2016-12-04T09:49:15.999Z</time>
      </trkpt>
      <trkpt lat="47.59606" lon="6.77776">
        <ele>412</ele>
        <time>2016-12-04T09:49:16.999Z</time>
      </trkpt>
      <trkpt lat="47.59603" lon="6.77775">
        <ele>412</ele>
        <time>2016-12-04T09:49:17.999Z</time>
      </trkpt>
      <trkpt lat="47.596" lon="6.77775">
        <ele>412</ele>
        <time>2016-12-04T09:49:18.999Z</time>
      </trkpt>
      <trkpt lat="47.59598" lon="6.77774">
        <ele>412</ele>
        <time>2016-12-04T09:49:19.999Z</time>
      </trkpt>
      <trkpt lat="47.59594" lon="6.77774">
        <ele>412</ele>
        <time>2016-12-04T09:49:20.999Z</time>
      </trkpt>
      <trkpt lat="47.59591" lon="6.77775">
        <ele>412</ele>
        <time>2016-12-04T09:49:21.999Z</time>
      </trkpt>
      <trkpt lat="47.59588" lon="6.77776">
        <ele>412</ele>
        <time>2016-12-04T09:49:22.999Z</time>
      </trkpt>
      <trkpt lat="47.59585" lon="6.77778">
        <ele>412</ele>
        <time>2016-12-04T09:49:23.999Z</time>
      </trkpt>
      <trkpt lat="47.59579" lon="6.77781">
        <ele>410</ele>
        <time>2016-12-04T09:49:24.999Z</time>
      </trkpt>
      <trkpt lat="47.59576" lon="6.77783">
        <ele>410</ele>
        <time>2016-12-04T09:49:25.999Z</time>
      </trkpt>
      <trkpt lat="47.59572" lon="6.77785">
        <ele>410</ele>
        <time>2016-12-04T09:49:26.999Z</time>
      </trkpt>
      <trkpt lat="47.59569" lon="6.7779">
        <ele>410</ele>
        <time>2016-12-04T09:49:27.999Z</time>
      </trkpt>
      <trkpt lat="47.59566" lon="6.77793">
        <ele>409</ele>
        <time>2016-12-04T09:49:28.999Z</time>
      </trkpt>
      <trkpt lat="47.59563" lon="6.77795">
        <ele>409</ele>
        <time>2016-12-04T09:49:29.999Z</time>
      </trkpt>
      <trkpt lat="47.5956" lon="6.77796">
        <ele>409</ele>
        <time>2016-12-04T09:49:30.999Z</time>
      </trkpt>
      <trkpt lat="47.59557" lon="6.77798">
        <ele>409</ele>
        <time>2016-12-04T09:49:31.999Z</time>
      </trkpt>
      <trkpt lat="47.59553" lon="6.77801">
        <ele>409</ele>
        <time>2016-12-04T09:49:32.999Z</time>
      </trkpt>
      <trkpt lat="47.5955" lon="6.77803">
        <ele>409</ele>
        <time>2016-12-04T09:49:33.999Z</time>
      </trkpt>
      <trkpt lat="47.59547" lon="6.77804">
        <ele>409</ele>
        <time>2016-12-04T09:49:34.999Z</time>
      </trkpt>
      <trkpt lat="47.59544" lon="6.77806">
        <ele>409</ele>
        <time>2016-12-04T09:49:35.999Z</time>
      </trkpt>
      <trkpt lat="47.59541" lon="6.77807">
        <ele>409</ele>
        <time>2016-12-04T09:49:36.999Z</time>
      </trkpt>
      <trkpt lat="47.59538" lon="6.77807">
        <ele>409</ele>
        <time>2016-12-04T09:49:37.999Z</time>
      </trkpt>
      <trkpt lat="47.59535" lon="6.77807">
        <ele>409</ele>
        <time>2016-12-04T09:49:38.999Z</time>
      </trkpt>
      <trkpt lat="47.59531" lon="6.77807">
        <ele>409</ele>
        <time>2016-12-04T09:49:40.999Z</time>
      </trkpt>
      <trkpt lat="47.5953" lon="6.77806">
        <ele>409</ele>
        <time>2016-12-04T09:49:41.999Z</time>
      </trkpt>
      <trkpt lat="47.59527" lon="6.77806">
        <ele>409</ele>
        <time>2016-12-04T09:49:42.999Z</time>
      </trkpt>
      <trkpt lat="47.59525" lon="6.77805">
        <ele>409</ele>
        <time>2016-12-04T09:49:43.999Z</time>
      </trkpt>
      <trkpt lat="47.59521" lon="6.77803">
        <ele>409</ele>
        <time>2016-12-04T09:49:45.999Z</time>
      </trkpt>
      <trkpt lat="47.59518" lon="6.77801">
        <ele>409</ele>
        <time>2016-12-04T09:49:46.999Z</time>
      </trkpt>
      <trkpt lat="47.59515" lon="6.77799">
        <ele>409</ele>
        <time>2016-12-04T09:49:47.999Z</time>
      </trkpt>
      <trkpt lat="47.59512" lon="6.77797">
        <ele>409</ele>
        <time>2016-12-04T09:49:48.999Z</time>
      </trkpt>
      <trkpt lat="47.59509" lon="6.77795">
        <ele>409</ele>
        <time>2016-12-04T09:49:49.999Z</time>
      </trkpt>
      <trkpt lat="47.59507" lon="6.77791">
        <ele>410</ele>
        <time>2016-12-04T09:49:50.999Z</time>
      </trkpt>
      <trkpt lat="47.59505" lon="6.77788">
        <ele>410</ele>
        <time>2016-12-04T09:49:51.999Z</time>
      </trkpt>
      <trkpt lat="47.59503" lon="6.77784">
        <ele>410</ele>
        <time>2016-12-04T09:49:52.999Z</time>
      </trkpt>
      <trkpt lat="47.59502" lon="6.7778">
        <ele>410</ele>
        <time>2016-12-04T09:49:53.999Z</time>
      </trkpt>
      <trkpt lat="47.595" lon="6.77776">
        <ele>409</ele>
        <time>2016-12-04T09:49:54.999Z</time>
      </trkpt>
      <trkpt lat="47.59499" lon="6.77773">
        <ele>409</ele>
        <time>2016-12-04T09:49:55.999Z</time>
      </trkpt>
      <trkpt lat="47.59497" lon="6.77771">
        <ele>409</ele>
        <time>2016-12-04T09:49:56.999Z</time>
      </trkpt>
      <trkpt lat="47.59495" lon="6.77767">
        <ele>409</ele>
        <time>2016-12-04T09:49:57.999Z</time>
      </trkpt>
      <trkpt lat="47.59494" lon="6.77765">
        <ele>409</ele>
        <time>2016-12-04T09:49:58.999Z</time>
      </trkpt>
      <trkpt lat="47.59493" lon="6.7776">
        <ele>410</ele>
        <time>2016-12-04T09:49:59.999Z</time>
      </trkpt>
      <trkpt lat="47.59491" lon="6.77757">
        <ele>410</ele>
        <time>2016-12-04T09:50:00.999Z</time>
      </trkpt>
      <trkpt lat="47.59489" lon="6.77752">
        <ele>410</ele>
        <time>2016-12-04T09:50:02.999Z</time>
      </trkpt>
      <trkpt lat="47.59488" lon="6.77748">
        <ele>412</ele>
        <time>2016-12-04T09:50:03.999Z</time>
      </trkpt>
      <trkpt lat="47.59486" lon="6.77743">
        <ele>412</ele>
        <time>2016-12-04T09:50:05.999Z</time>
      </trkpt>
      <trkpt lat="47.59485" lon="6.7774">
        <ele>412</ele>
        <time>2016-12-04T09:50:06.999Z</time>
      </trkpt>
      <trkpt lat="47.59483" lon="6.77737">
        <ele>412</ele>
        <time>2016-12-04T09:50:07.999Z</time>
      </trkpt>
      <trkpt lat="47.59482" lon="6.77734">
        <ele>412</ele>
        <time>2016-12-04T09:50:08.999Z</time>
      </trkpt>
      <trkpt lat="47.59481" lon="6.77731">
        <ele>413</ele>
        <time>2016-12-04T09:50:09.999Z</time>
      </trkpt>
      <trkpt lat="47.5948" lon="6.77727">
        <ele>413</ele>
        <time>2016-12-04T09:50:10.999Z</time>
      </trkpt>
      <trkpt lat="47.59478" lon="6.77724">
        <ele>413</ele>
        <time>2016-12-04T09:50:11.999Z</time>
      </trkpt>
      <trkpt lat="47.59476" lon="6.77721">
        <ele>413</ele>
        <time>2016-12-04T09:50:12.999Z</time>
      </trkpt>
      <trkpt lat="47.59473" lon="6.77717">
        <ele>413</ele>
        <time>2016-12-04T09:50:14.999Z</time>
      </trkpt>
      <trkpt lat="47.59472" lon="6.77714">
        <ele>413</ele>
        <time>2016-12-04T09:50:15.999Z</time>
      </trkpt>
      <trkpt lat="47.59471" lon="6.77711">
        <ele>413</ele>
        <time>2016-12-04T09:50:16.999Z</time>
      </trkpt>
      <trkpt lat="47.5947" lon="6.77708">
        <ele>414</ele>
        <time>2016-12-04T09:50:17.999Z</time>
      </trkpt>
      <trkpt lat="47.59469" lon="6.77704">
        <ele>414</ele>
        <time>2016-12-04T09:50:18.999Z</time>
      </trkpt>
      <trkpt lat="47.59468" lon="6.777">
        <ele>414</ele>
        <time>2016-12-04T09:50:19.999Z</time>
      </trkpt>
      <trkpt lat="47.59466" lon="6.77695">
        <ele>414</ele>
        <time>2016-12-04T09:50:20.999Z</time>
      </trkpt>
      <trkpt lat="47.59465" lon="6.77691">
        <ele>414</ele>
        <time>2016-12-04T09:50:21.999Z</time>
      </trkpt>
      <trkpt lat="47.59464" lon="6.77688">
        <ele>414</ele>
        <time>2016-12-04T09:50:22.999Z</time>
      </trkpt>
      <trkpt lat="47.59462" lon="6.77685">
        <ele>414</ele>
        <time>2016-12-04T09:50:23.999Z</time>
      </trkpt>
      <trkpt lat="47.59461" lon="6.77682">
        <ele>414</ele>
        <time>2016-12-04T09:50:24.999Z</time>
      </trkpt>
      <trkpt lat="47.59459" lon="6.77679">
        <ele>414</ele>
        <time>2016-12-04T09:50:25.999Z</time>
      </trkpt>
      <trkpt lat="47.59457" lon="6.77675">
        <ele>414</ele>
        <time>2016-12-04T09:50:27.999Z</time>
      </trkpt>
      <trkpt lat="47.59455" lon="6.77672">
        <ele>414</ele>
        <time>2016-12-04T09:50:28.999Z</time>
      </trkpt>
      <trkpt lat="47.59454" lon="6.77669">
        <ele>415</ele>
        <time>2016-12-04T09:50:29.999Z</time>
      </trkpt>
      <trkpt lat="47.59453" lon="6.77666">
        <ele>420</ele>
        <time>2016-12-04T09:50:30.999Z</time>
      </trkpt>
      <trkpt lat="47.59451" lon="6.77662">
        <ele>420</ele>
        <time>2016-12-04T09:50:31.999Z</time>
      </trkpt>
      <trkpt lat="47.5945" lon="6.7766">
        <ele>420</ele>
        <time>2016-12-04T09:50:32.999Z</time>
      </trkpt>
      <trkpt lat="47.59448" lon="6.77656">
        <ele>420</ele>
        <time>2016-12-04T09:50:34.999Z</time>
      </trkpt>
      <trkpt lat="47.59447" lon="6.77653">
        <ele>420</ele>
        <time>2016-12-04T09:50:35.999Z</time>
      </trkpt>
      <trkpt lat="47.59445" lon="6.77647">
        <ele>420</ele>
        <time>2016-12-04T09:50:37.999Z</time>
      </trkpt>
      <trkpt lat="47.59443" lon="6.77644">
        <ele>421</ele>
        <time>2016-12-04T09:50:38.999Z</time>
      </trkpt>
      <trkpt lat="47.59443" lon="6.7764">
        <ele>421</ele>
        <time>2016-12-04T09:50:39.999Z</time>
      </trkpt>
      <trkpt lat="47.59443" lon="6.77637">
        <ele>421</ele>
        <time>2016-12-04T09:50:40.999Z</time>
      </trkpt>
      <trkpt lat="47.59442" lon="6.77634">
        <ele>421</ele>
        <time>2016-12-04T09:50:41.999Z</time>
      </trkpt>
      <trkpt lat="47.59441" lon="6.77631">
        <ele>422</ele>
        <time>2016-12-04T09:50:42.999Z</time>
      </trkpt>
      <trkpt lat="47.5944" lon="6.77628">
        <ele>422</ele>
        <time>2016-12-04T09:50:43.999Z</time>
      </trkpt>
      <trkpt lat="47.5944" lon="6.77624">
        <ele>422</ele>
        <time>2016-12-04T09:50:44.999Z</time>
      </trkpt>
      <trkpt lat="47.5944" lon="6.77618">
        <ele>422</ele>
        <time>2016-12-04T09:50:46.999Z</time>
      </trkpt>
      <trkpt lat="47.59439" lon="6.77615">
        <ele>422</ele>
        <time>2016-12-04T09:50:47.999Z</time>
      </trkpt>
      <trkpt lat="47.59439" lon="6.7761">
        <ele>423</ele>
        <time>2016-12-04T09:50:49.999Z</time>
      </trkpt>
      <trkpt lat="47.59438" lon="6.77606">
        <ele>423</ele>
        <time>2016-12-04T09:50:50.999Z</time>
      </trkpt>
      <trkpt lat="47.59437" lon="6.77603">
        <ele>423</ele>
        <time>2016-12-04T09:50:51.999Z</time>
      </trkpt>
      <trkpt lat="47.59436" lon="6.77599">
        <ele>423</ele>
        <time>2016-12-04T09:50:52.999Z</time>
      </trkpt>
      <trkpt lat="47.59435" lon="6.77593">
        <ele>423</ele>
        <time>2016-12-04T09:50:54.999Z</time>
      </trkpt>
      <trkpt lat="47.59434" lon="6.7759">
        <ele>424</ele>
        <time>2016-12-04T09:50:55.999Z</time>
      </trkpt>
      <trkpt lat="47.59433" lon="6.77587">
        <ele>424</ele>
        <time>2016-12-04T09:50:56.999Z</time>
      </trkpt>
      <trkpt lat="47.59433" lon="6.77583">
        <ele>428</ele>
        <time>2016-12-04T09:50:57.999Z</time>
      </trkpt>
      <trkpt lat="47.59432" lon="6.7758">
        <ele>428</ele>
        <time>2016-12-04T09:50:58.999Z</time>
      </trkpt>
      <trkpt lat="47.59431" lon="6.77577">
        <ele>428</ele>
        <time>2016-12-04T09:50:59.999Z</time>
      </trkpt>
      <trkpt lat="47.5943" lon="6.77571">
        <ele>429</ele>
        <time>2016-12-04T09:51:01.999Z</time>
      </trkpt>
      <trkpt lat="47.5943" lon="6.77569">
        <ele>429</ele>
        <time>2016-12-04T09:51:02.999Z</time>
      </trkpt>
      <trkpt lat="47.59429" lon="6.77565">
        <ele>429</ele>
        <time>2016-12-04T09:51:03.999Z</time>
      </trkpt>
      <trkpt lat="47.5943" lon="6.77561">
        <ele>430</ele>
        <time>2016-12-04T09:51:04.999Z</time>
      </trkpt>
      <trkpt lat="47.59428" lon="6.77557">
        <ele>430</ele>
        <time>2016-12-04T09:51:05.999Z</time>
      </trkpt>
      <trkpt lat="47.59428" lon="6.77553">
        <ele>430</ele>
        <time>2016-12-04T09:51:06.999Z</time>
      </trkpt>
      <trkpt lat="47.59427" lon="6.77549">
        <ele>431</ele>
        <time>2016-12-04T09:51:07.999Z</time>
      </trkpt>
      <trkpt lat="47.59426" lon="6.77545">
        <ele>431</ele>
        <time>2016-12-04T09:51:08.999Z</time>
      </trkpt>
      <trkpt lat="47.59425" lon="6.77541">
        <ele>431</ele>
        <time>2016-12-04T09:51:09.999Z</time>
      </trkpt>
      <trkpt lat="47.59425" lon="6.77538">
        <ele>432</ele>
        <time>2016-12-04T09:51:10.999Z</time>
      </trkpt>
      <trkpt lat="47.59425" lon="6.77534">
        <ele>432</ele>
        <time>2016-12-04T09:51:11.999Z</time>
      </trkpt>
      <trkpt lat="47.59425" lon="6.77531">
        <ele>432</ele>
        <time>2016-12-04T09:51:12.999Z</time>
      </trkpt>
      <trkpt lat="47.59424" lon="6.77524">
        <ele>432</ele>
        <time>2016-12-04T09:51:14.999Z</time>
      </trkpt>
      <trkpt lat="47.59424" lon="6.77521">
        <ele>433</ele>
        <time>2016-12-04T09:51:15.999Z</time>
      </trkpt>
      <trkpt lat="47.59424" lon="6.77518">
        <ele>433</ele>
        <time>2016-12-04T09:51:16.999Z</time>
      </trkpt>
      <trkpt lat="47.59423" lon="6.77515">
        <ele>433</ele>
        <time>2016-12-04T09:51:17.999Z</time>
      </trkpt>
      <trkpt lat="47.59423" lon="6.77511">
        <ele>433</ele>
        <time>2016-12-04T09:51:18.999Z</time>
      </trkpt>
      <trkpt lat="47.59422" lon="6.77506">
        <ele>433</ele>
        <time>2016-12-04T09:51:19.999Z</time>
      </trkpt>
      <trkpt lat="47.59422" lon="6.77502">
        <ele>433</ele>
        <time>2016-12-04T09:51:20.999Z</time>
      </trkpt>
      <trkpt lat="47.59422" lon="6.77498">
        <ele>434</ele>
        <time>2016-12-04T09:51:21.999Z</time>
      </trkpt>
      <trkpt lat="47.59422" lon="6.77494">
        <ele>435</ele>
        <time>2016-12-04T09:51:22.999Z</time>
      </trkpt>
      <trkpt lat="47.59422" lon="6.77491">
        <ele>435</ele>
        <time>2016-12-04T09:51:23.999Z</time>
      </trkpt>
      <trkpt lat="47.59423" lon="6.77487">
        <ele>436</ele>
        <time>2016-12-04T09:51:25.999Z</time>
      </trkpt>
      <trkpt lat="47.59423" lon="6.77484">
        <ele>436</ele>
        <time>2016-12-04T09:51:26.999Z</time>
      </trkpt>
      <trkpt lat="47.59424" lon="6.7748">
        <ele>436</ele>
        <time>2016-12-04T09:51:28.999Z</time>
      </trkpt>
      <trkpt lat="47.59425" lon="6.77476">
        <ele>437</ele>
        <time>2016-12-04T09:51:29.999Z</time>
      </trkpt>
      <trkpt lat="47.59425" lon="6.7747">
        <ele>437</ele>
        <time>2016-12-04T09:51:31.999Z</time>
      </trkpt>
      <trkpt lat="47.59425" lon="6.77467">
        <ele>437</ele>
        <time>2016-12-04T09:51:32.999Z</time>
      </trkpt>
      <trkpt lat="47.59425" lon="6.77462">
        <ele>438</ele>
        <time>2016-12-04T09:51:33.999Z</time>
      </trkpt>
      <trkpt lat="47.59424" lon="6.77458">
        <ele>438</ele>
        <time>2016-12-04T09:51:34.999Z</time>
      </trkpt>
      <trkpt lat="47.59423" lon="6.77453">
        <ele>438</ele>
        <time>2016-12-04T09:51:35.999Z</time>
      </trkpt>
      <trkpt lat="47.59422" lon="6.77449">
        <ele>438</ele>
        <time>2016-12-04T09:51:36.999Z</time>
      </trkpt>
      <trkpt lat="47.59422" lon="6.77446">
        <ele>438</ele>
        <time>2016-12-04T09:51:37.999Z</time>
      </trkpt>
      <trkpt lat="47.59421" lon="6.77442">
        <ele>438</ele>
        <time>2016-12-04T09:51:38.999Z</time>
      </trkpt>
      <trkpt lat="47.5942" lon="6.77438">
        <ele>438</ele>
        <time>2016-12-04T09:51:39.999Z</time>
      </trkpt>
      <trkpt lat="47.59419" lon="6.77435">
        <ele>437</ele>
        <time>2016-12-04T09:51:40.999Z</time>
      </trkpt>
      <trkpt lat="47.59419" lon="6.77429">
        <ele>437</ele>
        <time>2016-12-04T09:51:42.999Z</time>
      </trkpt>
      <trkpt lat="47.59419" lon="6.77426">
        <ele>437</ele>
        <time>2016-12-04T09:51:43.999Z</time>
      </trkpt>
      <trkpt lat="47.59418" lon="6.77424">
        <ele>437</ele>
        <time>2016-12-04T09:51:44.999Z</time>
      </trkpt>
      <trkpt lat="47.59417" lon="6.77419">
        <ele>436</ele>
        <time>2016-12-04T09:51:45.999Z</time>
      </trkpt>
      <trkpt lat="47.59416" lon="6.77415">
        <ele>435</ele>
        <time>2016-12-04T09:51:46.999Z</time>
      </trkpt>
      <trkpt lat="47.59416" lon="6.77411">
        <ele>434</ele>
        <time>2016-12-04T09:51:47.999Z</time>
      </trkpt>
      <trkpt lat="47.59416" lon="6.77407">
        <ele>434</ele>
        <time>2016-12-04T09:51:48.999Z</time>
      </trkpt>
      <trkpt lat="47.59416" lon="6.77403">
        <ele>433</ele>
        <time>2016-12-04T09:51:49.999Z</time>
      </trkpt>
      <trkpt lat="47.59415" lon="6.77396">
        <ele>432</ele>
        <time>2016-12-04T09:51:50.999Z</time>
      </trkpt>
      <trkpt lat="47.59414" lon="6.77391">
        <ele>431</ele>
        <time>2016-12-04T09:51:51.999Z</time>
      </trkpt>
      <trkpt lat="47.59414" lon="6.77388">
        <ele>431</ele>
        <time>2016-12-04T09:51:52.999Z</time>
      </trkpt>
      <trkpt lat="47.59413" lon="6.77384">
        <ele>431</ele>
        <time>2016-12-04T09:51:53.999Z</time>
      </trkpt>
      <trkpt lat="47.59415" lon="6.7738">
        <ele>431</ele>
        <time>2016-12-04T09:51:56.999Z</time>
      </trkpt>
      <trkpt lat="47.59416" lon="6.77379">
        <ele>431</ele>
        <time>2016-12-04T09:51:57.999Z</time>
      </trkpt>
      <trkpt lat="47.59417" lon="6.77378">
        <ele>439</ele>
        <time>2016-12-04T09:51:58.999Z</time>
      </trkpt>
      <trkpt lat="47.59421" lon="6.77374">
        <ele>439</ele>
        <time>2016-12-04T09:51:59.999Z</time>
      </trkpt>
      <trkpt lat="47.59424" lon="6.77371">
        <ele>440</ele>
        <time>2016-12-04T09:52:01.999Z</time>
      </trkpt>
      <trkpt lat="47.59425" lon="6.7737">
        <ele>440</ele>
        <time>2016-12-04T09:52:02.999Z</time>
      </trkpt>
      <trkpt lat="47.59429" lon="6.77367">
        <ele>440</ele>
        <time>2016-12-04T09:52:04.999Z</time>
      </trkpt>
      <trkpt lat="47.59431" lon="6.77365">
        <ele>440</ele>
        <time>2016-12-04T09:52:05.999Z</time>
      </trkpt>
      <trkpt lat="47.59434" lon="6.77361">
        <ele>440</ele>
        <time>2016-12-04T09:52:08.999Z</time>
      </trkpt>
      <trkpt lat="47.59435" lon="6.7736">
        <ele>440</ele>
        <time>2016-12-04T09:52:09.999Z</time>
      </trkpt>
      <trkpt lat="47.59437" lon="6.77356">
        <ele>440</ele>
        <time>2016-12-04T09:52:11.999Z</time>
      </trkpt>
      <trkpt lat="47.59439" lon="6.77354">
        <ele>440</ele>
        <time>2016-12-04T09:52:12.999Z</time>
      </trkpt>
      <trkpt lat="47.59443" lon="6.7735">
        <ele>440</ele>
        <time>2016-12-04T09:52:15.999Z</time>
      </trkpt>
      <trkpt lat="47.59444" lon="6.77348">
        <ele>440</ele>
        <time>2016-12-04T09:52:16.999Z</time>
      </trkpt>
      <trkpt lat="47.59447" lon="6.77344">
        <ele>441</ele>
        <time>2016-12-04T09:52:18.999Z</time>
      </trkpt>
      <trkpt lat="47.59448" lon="6.77342">
        <ele>441</ele>
        <time>2016-12-04T09:52:19.999Z</time>
      </trkpt>
      <trkpt lat="47.59445" lon="6.7734">
        <ele>440</ele>
        <time>2016-12-04T09:52:29.999Z</time>
      </trkpt>
      <trkpt lat="47.59444" lon="6.77342">
        <ele>440</ele>
        <time>2016-12-04T09:52:30.999Z</time>
      </trkpt>
      <trkpt lat="47.59443" lon="6.77336">
        <ele>440</ele>
        <time>2016-12-04T09:52:37.999Z</time>
      </trkpt>
      <trkpt lat="47.59443" lon="6.77334">
        <ele>440</ele>
        <time>2016-12-04T09:52:38.999Z</time>
      </trkpt>
      <trkpt lat="47.59446" lon="6.77331">
        <ele>442</ele>
        <time>2016-12-04T09:52:39.999Z</time>
      </trkpt>
      <trkpt lat="47.59447" lon="6.77328">
        <ele>442</ele>
        <time>2016-12-04T09:52:40.999Z</time>
      </trkpt>
      <trkpt lat="47.5945" lon="6.77324">
        <ele>443</ele>
        <time>2016-12-04T09:52:43.999Z</time>
      </trkpt>
      <trkpt lat="47.59451" lon="6.77322">
        <ele>443</ele>
        <time>2016-12-04T09:52:44.999Z</time>
      </trkpt>
      <trkpt lat="47.59453" lon="6.77317">
        <ele>443</ele>
        <time>2016-12-04T09:52:46.999Z</time>
      </trkpt>
      <trkpt lat="47.59454" lon="6.77316">
        <ele>443</ele>
        <time>2016-12-04T09:52:47.999Z</time>
      </trkpt>
      <trkpt lat="47.59456" lon="6.77312">
        <ele>444</ele>
        <time>2016-12-04T09:52:49.999Z</time>
      </trkpt>
      <trkpt lat="47.59457" lon="6.77311">
        <ele>444</ele>
        <time>2016-12-04T09:52:50.999Z</time>
      </trkpt>
      <trkpt lat="47.5946" lon="6.77308">
        <ele>444</ele>
        <time>2016-12-04T09:52:54.999Z</time>
      </trkpt>
      <trkpt lat="47.59462" lon="6.77306">
        <ele>445</ele>
        <time>2016-12-04T09:52:55.999Z</time>
      </trkpt>
      <trkpt lat="47.59463" lon="6.77304">
        <ele>445</ele>
        <time>2016-12-04T09:52:56.999Z</time>
      </trkpt>
      <trkpt lat="47.59465" lon="6.77302">
        <ele>445</ele>
        <time>2016-12-04T09:52:57.999Z</time>
      </trkpt>
      <trkpt lat="47.59468" lon="6.77298">
        <ele>445</ele>
        <time>2016-12-04T09:53:00.999Z</time>
      </trkpt>
      <trkpt lat="47.59469" lon="6.77297">
        <ele>445</ele>
        <time>2016-12-04T09:53:01.999Z</time>
      </trkpt>
      <trkpt lat="47.59471" lon="6.77293">
        <ele>446</ele>
        <time>2016-12-04T09:53:04.999Z</time>
      </trkpt>
      <trkpt lat="47.59472" lon="6.77292">
        <ele>446</ele>
        <time>2016-12-04T09:53:05.999Z</time>
      </trkpt>
      <trkpt lat="47.59475" lon="6.77288">
        <ele>446</ele>
        <time>2016-12-04T09:53:08.999Z</time>
      </trkpt>
      <trkpt lat="47.59475" lon="6.77286">
        <ele>446</ele>
        <time>2016-12-04T09:53:09.999Z</time>
      </trkpt>
      <trkpt lat="47.59476" lon="6.77281">
        <ele>447</ele>
        <time>2016-12-04T09:53:13.999Z</time>
      </trkpt>
      <trkpt lat="47.59476" lon="6.77279">
        <ele>447</ele>
        <time>2016-12-04T09:53:14.999Z</time>
      </trkpt>
      <trkpt lat="47.59478" lon="6.77273">
        <ele>447</ele>
        <time>2016-12-04T09:53:18.999Z</time>
      </trkpt>
      <trkpt lat="47.59478" lon="6.77272">
        <ele>447</ele>
        <time>2016-12-04T09:53:19.999Z</time>
      </trkpt>
      <trkpt lat="47.59479" lon="6.77266">
        <ele>448</ele>
        <time>2016-12-04T09:53:23.999Z</time>
      </trkpt>
      <trkpt lat="47.59479" lon="6.77264">
        <ele>448</ele>
        <time>2016-12-04T09:53:24.999Z</time>
      </trkpt>
      <trkpt lat="47.5948" lon="6.77259">
        <ele>449</ele>
        <time>2016-12-04T09:53:27.999Z</time>
      </trkpt>
      <trkpt lat="47.59481" lon="6.77257">
        <ele>449</ele>
        <time>2016-12-04T09:53:28.999Z</time>
      </trkpt>
      <trkpt lat="47.59483" lon="6.77251">
        <ele>450</ele>
        <time>2016-12-04T09:53:31.999Z</time>
      </trkpt>
      <trkpt lat="47.59483" lon="6.77249">
        <ele>452</ele>
        <time>2016-12-04T09:53:32.999Z</time>
      </trkpt>
      <trkpt lat="47.59484" lon="6.77247">
        <ele>452</ele>
        <time>2016-12-04T09:53:34.999Z</time>
      </trkpt>
      <trkpt lat="47.59486" lon="6.77242">
        <ele>453</ele>
        <time>2016-12-04T09:53:35.999Z</time>
      </trkpt>
      <trkpt lat="47.59489" lon="6.77239">
        <ele>453</ele>
        <time>2016-12-04T09:53:37.999Z</time>
      </trkpt>
      <trkpt lat="47.59489" lon="6.77238">
        <ele>453</ele>
        <time>2016-12-04T09:53:38.999Z</time>
      </trkpt>
      <trkpt lat="47.59492" lon="6.77233">
        <ele>453</ele>
        <time>2016-12-04T09:53:41.999Z</time>
      </trkpt>
      <trkpt lat="47.59493" lon="6.77231">
        <ele>453</ele>
        <time>2016-12-04T09:53:42.999Z</time>
      </trkpt>
      <trkpt lat="47.59495" lon="6.77227">
        <ele>453</ele>
        <time>2016-12-04T09:53:44.999Z</time>
      </trkpt>
      <trkpt lat="47.59496" lon="6.77223">
        <ele>453</ele>
        <time>2016-12-04T09:53:45.999Z</time>
      </trkpt>
      <trkpt lat="47.59499" lon="6.77221">
        <ele>453</ele>
        <time>2016-12-04T09:53:47.999Z</time>
      </trkpt>
      <trkpt lat="47.59501" lon="6.77221">
        <ele>461</ele>
        <time>2016-12-04T09:53:48.999Z</time>
      </trkpt>
      <trkpt lat="47.59504" lon="6.7722">
        <ele>461</ele>
        <time>2016-12-04T09:53:49.999Z</time>
      </trkpt>
      <trkpt lat="47.59507" lon="6.77219">
        <ele>462</ele>
        <time>2016-12-04T09:53:50.999Z</time>
      </trkpt>
      <trkpt lat="47.5951" lon="6.77217">
        <ele>462</ele>
        <time>2016-12-04T09:53:52.999Z</time>
      </trkpt>
      <trkpt lat="47.59511" lon="6.77216">
        <ele>462</ele>
        <time>2016-12-04T09:53:53.999Z</time>
      </trkpt>
      <trkpt lat="47.59512" lon="6.77213">
        <ele>462</ele>
        <time>2016-12-04T09:53:56.999Z</time>
      </trkpt>
      <trkpt lat="47.59513" lon="6.7721">
        <ele>463</ele>
        <time>2016-12-04T09:53:57.999Z</time>
      </trkpt>
      <trkpt lat="47.59514" lon="6.77204">
        <ele>463</ele>
        <time>2016-12-04T09:53:59.999Z</time>
      </trkpt>
      <trkpt lat="47.59515" lon="6.77202">
        <ele>463</ele>
        <time>2016-12-04T09:54:00.999Z</time>
      </trkpt>
      <trkpt lat="47.59516" lon="6.77197">
        <ele>464</ele>
        <time>2016-12-04T09:54:05.999Z</time>
      </trkpt>
      <trkpt lat="47.59517" lon="6.77196">
        <ele>464</ele>
        <time>2016-12-04T09:54:06.999Z</time>
      </trkpt>
      <trkpt lat="47.59518" lon="6.7719">
        <ele>464</ele>
        <time>2016-12-04T09:54:11.999Z</time>
      </trkpt>
      <trkpt lat="47.59518" lon="6.77188">
        <ele>464</ele>
        <time>2016-12-04T09:54:12.999Z</time>
      </trkpt>
      <trkpt lat="47.59519" lon="6.77183">
        <ele>464</ele>
        <time>2016-12-04T09:54:17.999Z</time>
      </trkpt>
      <trkpt lat="47.59519" lon="6.77181">
        <ele>464</ele>
        <time>2016-12-04T09:54:18.999Z</time>
      </trkpt>
      <trkpt lat="47.59519" lon="6.77178">
        <ele>464</ele>
        <time>2016-12-04T09:54:19.999Z</time>
      </trkpt>
      <trkpt lat="47.59518" lon="6.7717">
        <ele>464</ele>
        <time>2016-12-04T09:54:20.999Z</time>
      </trkpt>
      <trkpt lat="47.59517" lon="6.77165">
        <ele>467</ele>
        <time>2016-12-04T09:54:21.999Z</time>
      </trkpt>
      <trkpt lat="47.59517" lon="6.77161">
        <ele>468</ele>
        <time>2016-12-04T09:54:22.999Z</time>
      </trkpt>
      <trkpt lat="47.59517" lon="6.77155">
        <ele>468</ele>
        <time>2016-12-04T09:54:24.999Z</time>
      </trkpt>
      <trkpt lat="47.59517" lon="6.77154">
        <ele>468</ele>
        <time>2016-12-04T09:54:25.999Z</time>
      </trkpt>
      <trkpt lat="47.59519" lon="6.77148">
        <ele>469</ele>
        <time>2016-12-04T09:54:31.999Z</time>
      </trkpt>
      <trkpt lat="47.59519" lon="6.77147">
        <ele>469</ele>
        <time>2016-12-04T09:54:32.999Z</time>
      </trkpt>
      <trkpt lat="47.59521" lon="6.77141">
        <ele>470</ele>
        <time>2016-12-04T09:54:34.999Z</time>
      </trkpt>
      <trkpt lat="47.59521" lon="6.77138">
        <ele>470</ele>
        <time>2016-12-04T09:54:35.999Z</time>
      </trkpt>
      <trkpt lat="47.59521" lon="6.77133">
        <ele>470</ele>
        <time>2016-12-04T09:54:37.999Z</time>
      </trkpt>
      <trkpt lat="47.59522" lon="6.77131">
        <ele>471</ele>
        <time>2016-12-04T09:54:38.999Z</time>
      </trkpt>
      <trkpt lat="47.59522" lon="6.77125">
        <ele>471</ele>
        <time>2016-12-04T09:54:40.999Z</time>
      </trkpt>
      <trkpt lat="47.59522" lon="6.77124">
        <ele>471</ele>
        <time>2016-12-04T09:54:41.999Z</time>
      </trkpt>
      <trkpt lat="47.59522" lon="6.77117">
        <ele>471</ele>
        <time>2016-12-04T09:54:46.999Z</time>
      </trkpt>
      <trkpt lat="47.59522" lon="6.77116">
        <ele>471</ele>
        <time>2016-12-04T09:54:47.999Z</time>
      </trkpt>
      <trkpt lat="47.59522" lon="6.7711">
        <ele>472</ele>
        <time>2016-12-04T09:54:51.999Z</time>
      </trkpt>
      <trkpt lat="47.59522" lon="6.77108">
        <ele>472</ele>
        <time>2016-12-04T09:54:52.999Z</time>
      </trkpt>
      <trkpt lat="47.59522" lon="6.77103">
        <ele>472</ele>
        <time>2016-12-04T09:54:55.999Z</time>
      </trkpt>
      <trkpt lat="47.59522" lon="6.77101">
        <ele>472</ele>
        <time>2016-12-04T09:54:56.999Z</time>
      </trkpt>
      <trkpt lat="47.59522" lon="6.77095">
        <ele>472</ele>
        <time>2016-12-04T09:55:00.999Z</time>
      </trkpt>
      <trkpt lat="47.59522" lon="6.77093">
        <ele>472</ele>
        <time>2016-12-04T09:55:01.999Z</time>
      </trkpt>
      <trkpt lat="47.59521" lon="6.77088">
        <ele>472</ele>
        <time>2016-12-04T09:55:05.999Z</time>
      </trkpt>
      <trkpt lat="47.59521" lon="6.77087">
        <ele>472</ele>
        <time>2016-12-04T09:55:06.999Z</time>
      </trkpt>
      <trkpt lat="47.5952" lon="6.77081">
        <ele>476</ele>
        <time>2016-12-04T09:55:12.999Z</time>
      </trkpt>
      <trkpt lat="47.5952" lon="6.7708">
        <ele>476</ele>
        <time>2016-12-04T09:55:13.999Z</time>
      </trkpt>
      <trkpt lat="47.5952" lon="6.77079">
        <ele>476</ele>
        <time>2016-12-04T09:55:14.999Z</time>
      </trkpt>
      <trkpt lat="47.59522" lon="6.77073">
        <ele>476</ele>
        <time>2016-12-04T09:55:15.999Z</time>
      </trkpt>
      <trkpt lat="47.59524" lon="6.77068">
        <ele>477</ele>
        <time>2016-12-04T09:55:17.999Z</time>
      </trkpt>
      <trkpt lat="47.59524" lon="6.77065">
        <ele>477</ele>
        <time>2016-12-04T09:55:18.999Z</time>
      </trkpt>
      <trkpt lat="47.59526" lon="6.7706">
        <ele>477</ele>
        <time>2016-12-04T09:55:19.999Z</time>
      </trkpt>
      <trkpt lat="47.59526" lon="6.77056">
        <ele>478</ele>
        <time>2016-12-04T09:55:20.999Z</time>
      </trkpt>
      <trkpt lat="47.59527" lon="6.7705">
        <ele>478</ele>
        <time>2016-12-04T09:55:22.999Z</time>
      </trkpt>
      <trkpt lat="47.59527" lon="6.77047">
        <ele>478</ele>
        <time>2016-12-04T09:55:23.999Z</time>
      </trkpt>
      <trkpt lat="47.59527" lon="6.77042">
        <ele>478</ele>
        <time>2016-12-04T09:55:26.999Z</time>
      </trkpt>
      <trkpt lat="47.59527" lon="6.7704">
        <ele>478</ele>
        <time>2016-12-04T09:55:27.999Z</time>
      </trkpt>
      <trkpt lat="47.59528" lon="6.77035">
        <ele>479</ele>
        <time>2016-12-04T09:55:30.999Z</time>
      </trkpt>
      <trkpt lat="47.59528" lon="6.77033">
        <ele>479</ele>
        <time>2016-12-04T09:55:31.999Z</time>
      </trkpt>
      <trkpt lat="47.59528" lon="6.77028">
        <ele>479</ele>
        <time>2016-12-04T09:55:34.999Z</time>
      </trkpt>
      <trkpt lat="47.59528" lon="6.77026">
        <ele>479</ele>
        <time>2016-12-04T09:55:35.999Z</time>
      </trkpt>
      <trkpt lat="47.59528" lon="6.7702">
        <ele>479</ele>
        <time>2016-12-04T09:55:40.999Z</time>
      </trkpt>
      <trkpt lat="47.59528" lon="6.77019">
        <ele>479</ele>
        <time>2016-12-04T09:55:41.999Z</time>
      </trkpt>
      <trkpt lat="47.59529" lon="6.77014">
        <ele>479</ele>
        <time>2016-12-04T09:55:44.999Z</time>
      </trkpt>
      <trkpt lat="47.59529" lon="6.77012">
        <ele>479</ele>
        <time>2016-12-04T09:55:45.999Z</time>
      </trkpt>
      <trkpt lat="47.5953" lon="6.77007">
        <ele>479</ele>
        <time>2016-12-04T09:55:47.999Z</time>
      </trkpt>
      <trkpt lat="47.5953" lon="6.77005">
        <ele>479</ele>
        <time>2016-12-04T09:55:48.999Z</time>
      </trkpt>
      <trkpt lat="47.59531" lon="6.76999">
        <ele>482</ele>
        <time>2016-12-04T09:55:51.999Z</time>
      </trkpt>
      <trkpt lat="47.59531" lon="6.76997">
        <ele>482</ele>
        <time>2016-12-04T09:55:52.999Z</time>
      </trkpt>
      <trkpt lat="47.59533" lon="6.76992">
        <ele>482</ele>
        <time>2016-12-04T09:55:54.999Z</time>
      </trkpt>
      <trkpt lat="47.59534" lon="6.76988">
        <ele>482</ele>
        <time>2016-12-04T09:55:55.999Z</time>
      </trkpt>
      <trkpt lat="47.59535" lon="6.76983">
        <ele>483</ele>
        <time>2016-12-04T09:55:57.999Z</time>
      </trkpt>
      <trkpt lat="47.59535" lon="6.76981">
        <ele>483</ele>
        <time>2016-12-04T09:55:58.999Z</time>
      </trkpt>
      <trkpt lat="47.59536" lon="6.76975">
        <ele>483</ele>
        <time>2016-12-04T09:56:02.999Z</time>
      </trkpt>
      <trkpt lat="47.59536" lon="6.76974">
        <ele>483</ele>
        <time>2016-12-04T09:56:03.999Z</time>
      </trkpt>
      <trkpt lat="47.59537" lon="6.76968">
        <ele>483</ele>
        <time>2016-12-04T09:56:09.999Z</time>
      </trkpt>
      <trkpt lat="47.59537" lon="6.76966">
        <ele>483</ele>
        <time>2016-12-04T09:56:10.999Z</time>
      </trkpt>
      <trkpt lat="47.59536" lon="6.76959">
        <ele>483</ele>
        <time>2016-12-04T09:56:11.999Z</time>
      </trkpt>
      <trkpt lat="47.59537" lon="6.76952">
        <ele>483</ele>
        <time>2016-12-04T09:56:13.999Z</time>
      </trkpt>
      <trkpt lat="47.59537" lon="6.7695">
        <ele>483</ele>
        <time>2016-12-04T09:56:14.999Z</time>
      </trkpt>
      <trkpt lat="47.59538" lon="6.76945">
        <ele>483</ele>
        <time>2016-12-04T09:56:16.999Z</time>
      </trkpt>
      <trkpt lat="47.59538" lon="6.76943">
        <ele>483</ele>
        <time>2016-12-04T09:56:17.999Z</time>
      </trkpt>
      <trkpt lat="47.59539" lon="6.76939">
        <ele>484</ele>
        <time>2016-12-04T09:56:20.999Z</time>
      </trkpt>
      <trkpt lat="47.59538" lon="6.76936">
        <ele>484</ele>
        <time>2016-12-04T09:56:21.999Z</time>
      </trkpt>
      <trkpt lat="47.59536" lon="6.7693">
        <ele>483</ele>
        <time>2016-12-04T09:56:23.999Z</time>
      </trkpt>
      <trkpt lat="47.59536" lon="6.76927">
        <ele>483</ele>
        <time>2016-12-04T09:56:24.999Z</time>
      </trkpt>
      <trkpt lat="47.59535" lon="6.76922">
        <ele>483</ele>
        <time>2016-12-04T09:56:27.999Z</time>
      </trkpt>
      <trkpt lat="47.59534" lon="6.7692">
        <ele>483</ele>
        <time>2016-12-04T09:56:28.999Z</time>
      </trkpt>
      <trkpt lat="47.59533" lon="6.76913">
        <ele>485</ele>
        <time>2016-12-04T09:56:32.999Z</time>
      </trkpt>
      <trkpt lat="47.59533" lon="6.76912">
        <ele>485</ele>
        <time>2016-12-04T09:56:33.999Z</time>
      </trkpt>
      <trkpt lat="47.59534" lon="6.76905">
        <ele>486</ele>
        <time>2016-12-04T09:56:36.999Z</time>
      </trkpt>
      <trkpt lat="47.59534" lon="6.76902">
        <ele>486</ele>
        <time>2016-12-04T09:56:37.999Z</time>
      </trkpt>
      <trkpt lat="47.59534" lon="6.76897">
        <ele>486</ele>
        <time>2016-12-04T09:56:40.999Z</time>
      </trkpt>
      <trkpt lat="47.59534" lon="6.76896">
        <ele>486</ele>
        <time>2016-12-04T09:56:41.999Z</time>
      </trkpt>
      <trkpt lat="47.59534" lon="6.7689">
        <ele>486</ele>
        <time>2016-12-04T09:56:44.999Z</time>
      </trkpt>
      <trkpt lat="47.59534" lon="6.76888">
        <ele>486</ele>
        <time>2016-12-04T09:56:45.999Z</time>
      </trkpt>
      <trkpt lat="47.59534" lon="6.76883">
        <ele>486</ele>
        <time>2016-12-04T09:56:48.999Z</time>
      </trkpt>
      <trkpt lat="47.59534" lon="6.76881">
        <ele>486</ele>
        <time>2016-12-04T09:56:49.999Z</time>
      </trkpt>
      <trkpt lat="47.59534" lon="6.76875">
        <ele>486</ele>
        <time>2016-12-04T09:56:53.999Z</time>
      </trkpt>
      <trkpt lat="47.59533" lon="6.76868">
        <ele>486</ele>
        <time>2016-12-04T09:56:54.999Z</time>
      </trkpt>
      <trkpt lat="47.59532" lon="6.76865">
        <ele>486</ele>
        <time>2016-12-04T09:56:55.999Z</time>
      </trkpt>
      <trkpt lat="47.59531" lon="6.76859">
        <ele>486</ele>
        <time>2016-12-04T09:56:56.999Z</time>
      </trkpt>
      <trkpt lat="47.59531" lon="6.76855">
        <ele>486</ele>
        <time>2016-12-04T09:56:57.999Z</time>
      </trkpt>
      <trkpt lat="47.59531" lon="6.76851">
        <ele>486</ele>
        <time>2016-12-04T09:56:58.999Z</time>
      </trkpt>
      <trkpt lat="47.59532" lon="6.76846">
        <ele>487</ele>
        <time>2016-12-04T09:57:00.999Z</time>
      </trkpt>
      <trkpt lat="47.59532" lon="6.76844">
        <ele>487</ele>
        <time>2016-12-04T09:57:01.999Z</time>
      </trkpt>
      <trkpt lat="47.59532" lon="6.76838">
        <ele>487</ele>
        <time>2016-12-04T09:57:05.999Z</time>
      </trkpt>
      <trkpt lat="47.59532" lon="6.76836">
        <ele>487</ele>
        <time>2016-12-04T09:57:06.999Z</time>
      </trkpt>
      <trkpt lat="47.59531" lon="6.76832">
        <ele>490</ele>
        <time>2016-12-04T09:57:08.999Z</time>
      </trkpt>
      <trkpt lat="47.59531" lon="6.76829">
        <ele>490</ele>
        <time>2016-12-04T09:57:09.999Z</time>
      </trkpt>
      <trkpt lat="47.59531" lon="6.76823">
        <ele>490</ele>
        <time>2016-12-04T09:57:13.999Z</time>
      </trkpt>
      <trkpt lat="47.59532" lon="6.76818">
        <ele>490</ele>
        <time>2016-12-04T09:57:14.999Z</time>
      </trkpt>
      <trkpt lat="47.59533" lon="6.76815">
        <ele>491</ele>
        <time>2016-12-04T09:57:15.999Z</time>
      </trkpt>
      <trkpt lat="47.59534" lon="6.76812">
        <ele>491</ele>
        <time>2016-12-04T09:57:16.999Z</time>
      </trkpt>
      <trkpt lat="47.59534" lon="6.76806">
        <ele>491</ele>
        <time>2016-12-04T09:57:18.999Z</time>
      </trkpt>
      <trkpt lat="47.59534" lon="6.76805">
        <ele>491</ele>
        <time>2016-12-04T09:57:19.999Z</time>
      </trkpt>
      <trkpt lat="47.59534" lon="6.768">
        <ele>492</ele>
        <time>2016-12-04T09:57:21.999Z</time>
      </trkpt>
      <trkpt lat="47.59535" lon="6.76798">
        <ele>492</ele>
        <time>2016-12-04T09:57:22.999Z</time>
      </trkpt>
      <trkpt lat="47.59537" lon="6.76793">
        <ele>492</ele>
        <time>2016-12-04T09:57:24.999Z</time>
      </trkpt>
      <trkpt lat="47.59537" lon="6.76791">
        <ele>492</ele>
        <time>2016-12-04T09:57:25.999Z</time>
      </trkpt>
      <trkpt lat="47.5954" lon="6.76786">
        <ele>493</ele>
        <time>2016-12-04T09:57:28.999Z</time>
      </trkpt>
      <trkpt lat="47.59541" lon="6.76783">
        <ele>493</ele>
        <time>2016-12-04T09:57:29.999Z</time>
      </trkpt>
      <trkpt lat="47.59543" lon="6.76778">
        <ele>493</ele>
        <time>2016-12-04T09:57:31.999Z</time>
      </trkpt>
      <trkpt lat="47.59543" lon="6.76774">
        <ele>493</ele>
        <time>2016-12-04T09:57:32.999Z</time>
      </trkpt>
      <trkpt lat="47.59544" lon="6.76768">
        <ele>494</ele>
        <time>2016-12-04T09:57:35.999Z</time>
      </trkpt>
      <trkpt lat="47.59544" lon="6.76766">
        <ele>494</ele>
        <time>2016-12-04T09:57:36.999Z</time>
      </trkpt>
      <trkpt lat="47.59544" lon="6.76761">
        <ele>494</ele>
        <time>2016-12-04T09:57:39.999Z</time>
      </trkpt>
      <trkpt lat="47.59544" lon="6.76759">
        <ele>494</ele>
        <time>2016-12-04T09:57:40.999Z</time>
      </trkpt>
      <trkpt lat="47.59546" lon="6.76753">
        <ele>494</ele>
        <time>2016-12-04T09:57:42.999Z</time>
      </trkpt>
      <trkpt lat="47.59548" lon="6.7675">
        <ele>498</ele>
        <time>2016-12-04T09:57:43.999Z</time>
      </trkpt>
      <trkpt lat="47.59549" lon="6.76744">
        <ele>499</ele>
        <time>2016-12-04T09:57:45.999Z</time>
      </trkpt>
      <trkpt lat="47.59549" lon="6.76742">
        <ele>499</ele>
        <time>2016-12-04T09:57:46.999Z</time>
      </trkpt>
      <trkpt lat="47.5955" lon="6.76737">
        <ele>499</ele>
        <time>2016-12-04T09:57:49.999Z</time>
      </trkpt>
      <trkpt lat="47.59551" lon="6.76735">
        <ele>499</ele>
        <time>2016-12-04T09:57:50.999Z</time>
      </trkpt>
      <trkpt lat="47.59552" lon="6.7673">
        <ele>499</ele>
        <time>2016-12-04T09:57:54.999Z</time>
      </trkpt>
      <trkpt lat="47.59552" lon="6.76728">
        <ele>499</ele>
        <time>2016-12-04T09:57:55.999Z</time>
      </trkpt>
      <trkpt lat="47.59553" lon="6.76724">
        <ele>499</ele>
        <time>2016-12-04T09:57:57.999Z</time>
      </trkpt>
      <trkpt lat="47.59554" lon="6.76721">
        <ele>499</ele>
        <time>2016-12-04T09:57:58.999Z</time>
      </trkpt>
      <trkpt lat="47.59556" lon="6.76717">
        <ele>500</ele>
        <time>2016-12-04T09:58:00.999Z</time>
      </trkpt>
      <trkpt lat="47.59559" lon="6.76714">
        <ele>500</ele>
        <time>2016-12-04T09:58:01.999Z</time>
      </trkpt>
      <trkpt lat="47.59561" lon="6.76712">
        <ele>500</ele>
        <time>2016-12-04T09:58:02.999Z</time>
      </trkpt>
      <trkpt lat="47.59564" lon="6.76708">
        <ele>500</ele>
        <time>2016-12-04T09:58:03.999Z</time>
      </trkpt>
      <trkpt lat="47.59566" lon="6.76705">
        <ele>501</ele>
        <time>2016-12-04T09:58:04.999Z</time>
      </trkpt>
      <trkpt lat="47.59568" lon="6.76701">
        <ele>501</ele>
        <time>2016-12-04T09:58:05.999Z</time>
      </trkpt>
      <trkpt lat="47.5957" lon="6.76698">
        <ele>501</ele>
        <time>2016-12-04T09:58:06.999Z</time>
      </trkpt>
      <trkpt lat="47.59572" lon="6.76694">
        <ele>502</ele>
        <time>2016-12-04T09:58:07.999Z</time>
      </trkpt>
      <trkpt lat="47.59574" lon="6.76691">
        <ele>502</ele>
        <time>2016-12-04T09:58:08.999Z</time>
      </trkpt>
      <trkpt lat="47.59575" lon="6.76688">
        <ele>503</ele>
        <time>2016-12-04T09:58:09.999Z</time>
      </trkpt>
      <trkpt lat="47.59576" lon="6.76684">
        <ele>503</ele>
        <time>2016-12-04T09:58:11.999Z</time>
      </trkpt>
      <trkpt lat="47.59577" lon="6.76682">
        <ele>504</ele>
        <time>2016-12-04T09:58:12.999Z</time>
      </trkpt>
      <trkpt lat="47.5958" lon="6.76678">
        <ele>505</ele>
        <time>2016-12-04T09:58:15.999Z</time>
      </trkpt>
      <trkpt lat="47.59581" lon="6.76676">
        <ele>505</ele>
        <time>2016-12-04T09:58:16.999Z</time>
      </trkpt>
      <trkpt lat="47.59583" lon="6.76671">
        <ele>507</ele>
        <time>2016-12-04T09:58:18.999Z</time>
      </trkpt>
      <trkpt lat="47.59584" lon="6.76669">
        <ele>508</ele>
        <time>2016-12-04T09:58:19.999Z</time>
      </trkpt>
      <trkpt lat="47.59587" lon="6.76665">
        <ele>509</ele>
        <time>2016-12-04T09:58:21.999Z</time>
      </trkpt>
      <trkpt lat="47.59588" lon="6.76661">
        <ele>509</ele>
        <time>2016-12-04T09:58:22.999Z</time>
      </trkpt>
      <trkpt lat="47.59589" lon="6.76658">
        <ele>509</ele>
        <time>2016-12-04T09:58:23.999Z</time>
      </trkpt>
      <trkpt lat="47.5959" lon="6.76656">
        <ele>509</ele>
        <time>2016-12-04T09:58:24.999Z</time>
      </trkpt>
      <trkpt lat="47.59591" lon="6.7665">
        <ele>510</ele>
        <time>2016-12-04T09:58:27.999Z</time>
      </trkpt>
      <trkpt lat="47.59592" lon="6.76648">
        <ele>510</ele>
        <time>2016-12-04T09:58:28.999Z</time>
      </trkpt>
      <trkpt lat="47.59592" lon="6.76643">
        <ele>510</ele>
        <time>2016-12-04T09:58:32.999Z</time>
      </trkpt>
      <trkpt lat="47.59592" lon="6.76641">
        <ele>510</ele>
        <time>2016-12-04T09:58:33.999Z</time>
      </trkpt>
      <trkpt lat="47.59594" lon="6.76637">
        <ele>510</ele>
        <time>2016-12-04T09:58:36.999Z</time>
      </trkpt>
      <trkpt lat="47.59595" lon="6.76634">
        <ele>510</ele>
        <time>2016-12-04T09:58:37.999Z</time>
      </trkpt>
      <trkpt lat="47.59597" lon="6.76628">
        <ele>511</ele>
        <time>2016-12-04T09:58:39.999Z</time>
      </trkpt>
      <trkpt lat="47.59598" lon="6.76627">
        <ele>511</ele>
        <time>2016-12-04T09:58:40.999Z</time>
      </trkpt>
      <trkpt lat="47.596" lon="6.76621">
        <ele>511</ele>
        <time>2016-12-04T09:58:42.999Z</time>
      </trkpt>
      <trkpt lat="47.596" lon="6.7662">
        <ele>511</ele>
        <time>2016-12-04T09:58:43.999Z</time>
      </trkpt>
      <trkpt lat="47.59601" lon="6.76615">
        <ele>511</ele>
        <time>2016-12-04T09:58:46.999Z</time>
      </trkpt>
      <trkpt lat="47.59602" lon="6.76612">
        <ele>511</ele>
        <time>2016-12-04T09:58:47.999Z</time>
      </trkpt>
      <trkpt lat="47.59603" lon="6.76608">
        <ele>511</ele>
        <time>2016-12-04T09:58:49.999Z</time>
      </trkpt>
      <trkpt lat="47.59604" lon="6.76605">
        <ele>511</ele>
        <time>2016-12-04T09:58:50.999Z</time>
      </trkpt>
      <trkpt lat="47.59605" lon="6.76603">
        <ele>511</ele>
        <time>2016-12-04T09:58:51.999Z</time>
      </trkpt>
      <trkpt lat="47.59607" lon="6.766">
        <ele>511</ele>
        <time>2016-12-04T09:58:52.999Z</time>
      </trkpt>
      <trkpt lat="47.59608" lon="6.76595">
        <ele>511</ele>
        <time>2016-12-04T09:58:54.999Z</time>
      </trkpt>
      <trkpt lat="47.59609" lon="6.76593">
        <ele>511</ele>
        <time>2016-12-04T09:58:55.999Z</time>
      </trkpt>
      <trkpt lat="47.5961" lon="6.76588">
        <ele>511</ele>
        <time>2016-12-04T09:58:58.999Z</time>
      </trkpt>
      <trkpt lat="47.59611" lon="6.76585">
        <ele>511</ele>
        <time>2016-12-04T09:58:59.999Z</time>
      </trkpt>
      <trkpt lat="47.59612" lon="6.7658">
        <ele>513</ele>
        <time>2016-12-04T09:59:02.999Z</time>
      </trkpt>
      <trkpt lat="47.59612" lon="6.76579">
        <ele>513</ele>
        <time>2016-12-04T09:59:03.999Z</time>
      </trkpt>
      <trkpt lat="47.59614" lon="6.76574">
        <ele>513</ele>
        <time>2016-12-04T09:59:05.999Z</time>
      </trkpt>
      <trkpt lat="47.59615" lon="6.76571">
        <ele>513</ele>
        <time>2016-12-04T09:59:06.999Z</time>
      </trkpt>
      <trkpt lat="47.59617" lon="6.76567">
        <ele>514</ele>
        <time>2016-12-04T09:59:08.999Z</time>
      </trkpt>
      <trkpt lat="47.59618" lon="6.76565">
        <ele>514</ele>
        <time>2016-12-04T09:59:09.999Z</time>
      </trkpt>
      <trkpt lat="47.59619" lon="6.7656">
        <ele>514</ele>
        <time>2016-12-04T09:59:11.999Z</time>
      </trkpt>
      <trkpt lat="47.5962" lon="6.76557">
        <ele>514</ele>
        <time>2016-12-04T09:59:12.999Z</time>
      </trkpt>
      <trkpt lat="47.5962" lon="6.7655">
        <ele>514</ele>
        <time>2016-12-04T09:59:16.999Z</time>
      </trkpt>
      <trkpt lat="47.59621" lon="6.7655">
        <ele>514</ele>
        <time>2016-12-04T09:59:17.999Z</time>
      </trkpt>
      <trkpt lat="47.59623" lon="6.76544">
        <ele>514</ele>
        <time>2016-12-04T09:59:21.999Z</time>
      </trkpt>
      <trkpt lat="47.59624" lon="6.76543">
        <ele>514</ele>
        <time>2016-12-04T09:59:22.999Z</time>
      </trkpt>
      <trkpt lat="47.59627" lon="6.7654">
        <ele>514</ele>
        <time>2016-12-04T09:59:26.999Z</time>
      </trkpt>
      <trkpt lat="47.59629" lon="6.76541">
        <ele>514</ele>
        <time>2016-12-04T09:59:27.999Z</time>
      </trkpt>
      <trkpt lat="47.59632" lon="6.76542">
        <ele>514</ele>
        <time>2016-12-04T09:59:28.999Z</time>
      </trkpt>
      <trkpt lat="47.59634" lon="6.76545">
        <ele>514</ele>
        <time>2016-12-04T09:59:29.999Z</time>
      </trkpt>
      <trkpt lat="47.59636" lon="6.76547">
        <ele>514</ele>
        <time>2016-12-04T09:59:30.999Z</time>
      </trkpt>
      <trkpt lat="47.59639" lon="6.7655">
        <ele>514</ele>
        <time>2016-12-04T09:59:31.999Z</time>
      </trkpt>
      <trkpt lat="47.59641" lon="6.76552">
        <ele>514</ele>
        <time>2016-12-04T09:59:32.999Z</time>
      </trkpt>
      <trkpt lat="47.59643" lon="6.76554">
        <ele>515</ele>
        <time>2016-12-04T09:59:33.999Z</time>
      </trkpt>
      <trkpt lat="47.59646" lon="6.76556">
        <ele>515</ele>
        <time>2016-12-04T09:59:35.999Z</time>
      </trkpt>
      <trkpt lat="47.59647" lon="6.76556">
        <ele>515</ele>
        <time>2016-12-04T09:59:36.999Z</time>
      </trkpt>
      <trkpt lat="47.5965" lon="6.76557">
        <ele>515</ele>
        <time>2016-12-04T09:59:37.999Z</time>
      </trkpt>
      <trkpt lat="47.59653" lon="6.76558">
        <ele>515</ele>
        <time>2016-12-04T09:59:38.999Z</time>
      </trkpt>
      <trkpt lat="47.59655" lon="6.76558">
        <ele>515</ele>
        <time>2016-12-04T09:59:39.999Z</time>
      </trkpt>
      <trkpt lat="47.59658" lon="6.76559">
        <ele>515</ele>
        <time>2016-12-04T09:59:40.999Z</time>
      </trkpt>
      <trkpt lat="47.59661" lon="6.76561">
        <ele>515</ele>
        <time>2016-12-04T09:59:42.999Z</time>
      </trkpt>
      <trkpt lat="47.59662" lon="6.76561">
        <ele>515</ele>
        <time>2016-12-04T09:59:43.999Z</time>
      </trkpt>
      <trkpt lat="47.59665" lon="6.76564">
        <ele>515</ele>
        <time>2016-12-04T09:59:46.999Z</time>
      </trkpt>
      <trkpt lat="47.59667" lon="6.76565">
        <ele>516</ele>
        <time>2016-12-04T09:59:47.999Z</time>
      </trkpt>
      <trkpt lat="47.59671" lon="6.76567">
        <ele>516</ele>
        <time>2016-12-04T09:59:49.999Z</time>
      </trkpt>
      <trkpt lat="47.59673" lon="6.76567">
        <ele>516</ele>
        <time>2016-12-04T09:59:50.999Z</time>
      </trkpt>
      <trkpt lat="47.59676" lon="6.76567">
        <ele>516</ele>
        <time>2016-12-04T09:59:52.999Z</time>
      </trkpt>
      <trkpt lat="47.59678" lon="6.76566">
        <ele>516</ele>
        <time>2016-12-04T09:59:53.999Z</time>
      </trkpt>
      <trkpt lat="47.5968" lon="6.76563">
        <ele>516</ele>
        <time>2016-12-04T09:59:55.999Z</time>
      </trkpt>
      <trkpt lat="47.59681" lon="6.7656">
        <ele>517</ele>
        <time>2016-12-04T09:59:56.999Z</time>
      </trkpt>
      <trkpt lat="47.59683" lon="6.76556">
        <ele>517</ele>
        <time>2016-12-04T09:59:57.999Z</time>
      </trkpt>
      <trkpt lat="47.59684" lon="6.76551">
        <ele>517</ele>
        <time>2016-12-04T09:59:58.999Z</time>
      </trkpt>
      <trkpt lat="47.59684" lon="6.76545">
        <ele>517</ele>
        <time>2016-12-04T10:00:00.999Z</time>
      </trkpt>
      <trkpt lat="47.59683" lon="6.76543">
        <ele>517</ele>
        <time>2016-12-04T10:00:01.999Z</time>
      </trkpt>
      <trkpt lat="47.59682" lon="6.76539">
        <ele>517</ele>
        <time>2016-12-04T10:00:03.999Z</time>
      </trkpt>
      <trkpt lat="47.59681" lon="6.76536">
        <ele>517</ele>
        <time>2016-12-04T10:00:04.999Z</time>
      </trkpt>
      <trkpt lat="47.5968" lon="6.76534">
        <ele>517</ele>
        <time>2016-12-04T10:00:05.999Z</time>
      </trkpt>
      <trkpt lat="47.59678" lon="6.76531">
        <ele>517</ele>
        <time>2016-12-04T10:00:06.999Z</time>
      </trkpt>
      <trkpt lat="47.59675" lon="6.76526">
        <ele>517</ele>
        <time>2016-12-04T10:00:07.999Z</time>
      </trkpt>
      <trkpt lat="47.59673" lon="6.76522">
        <ele>517</ele>
        <time>2016-12-04T10:00:08.999Z</time>
      </trkpt>
      <trkpt lat="47.59671" lon="6.7652">
        <ele>518</ele>
        <time>2016-12-04T10:00:09.999Z</time>
      </trkpt>
      <trkpt lat="47.59669" lon="6.76517">
        <ele>518</ele>
        <time>2016-12-04T10:00:10.999Z</time>
      </trkpt>
      <trkpt lat="47.59667" lon="6.76514">
        <ele>518</ele>
        <time>2016-12-04T10:00:11.999Z</time>
      </trkpt>
      <trkpt lat="47.59664" lon="6.76511">
        <ele>517</ele>
        <time>2016-12-04T10:00:12.999Z</time>
      </trkpt>
      <trkpt lat="47.59661" lon="6.76507">
        <ele>517</ele>
        <time>2016-12-04T10:00:13.999Z</time>
      </trkpt>
      <trkpt lat="47.59659" lon="6.76504">
        <ele>517</ele>
        <time>2016-12-04T10:00:14.999Z</time>
      </trkpt>
      <trkpt lat="47.59657" lon="6.76501">
        <ele>517</ele>
        <time>2016-12-04T10:00:15.999Z</time>
      </trkpt>
      <trkpt lat="47.59655" lon="6.765">
        <ele>518</ele>
        <time>2016-12-04T10:00:16.999Z</time>
      </trkpt>
      <trkpt lat="47.5965" lon="6.76497">
        <ele>517</ele>
        <time>2016-12-04T10:00:19.999Z</time>
      </trkpt>
      <trkpt lat="47.5965" lon="6.76496">
        <ele>517</ele>
        <time>2016-12-04T10:00:20.999Z</time>
      </trkpt>
      <trkpt lat="47.59649" lon="6.76492">
        <ele>517</ele>
        <time>2016-12-04T10:00:21.999Z</time>
      </trkpt>
      <trkpt lat="47.59647" lon="6.76489">
        <ele>517</ele>
        <time>2016-12-04T10:00:22.999Z</time>
      </trkpt>
      <trkpt lat="47.59644" lon="6.76486">
        <ele>517</ele>
        <time>2016-12-04T10:00:24.999Z</time>
      </trkpt>
      <trkpt lat="47.59643" lon="6.76484">
        <ele>517</ele>
        <time>2016-12-04T10:00:25.999Z</time>
      </trkpt>
      <trkpt lat="47.59642" lon="6.7649">
        <ele>517</ele>
        <time>2016-12-04T10:00:43.999Z</time>
      </trkpt>
      <trkpt lat="47.59643" lon="6.76491">
        <ele>517</ele>
        <time>2016-12-04T10:00:44.999Z</time>
      </trkpt>
      <trkpt lat="47.59646" lon="6.76494">
        <ele>517</ele>
        <time>2016-12-04T10:00:50.999Z</time>
      </trkpt>
      <trkpt lat="47.59647" lon="6.76495">
        <ele>517</ele>
        <time>2016-12-04T10:00:51.999Z</time>
      </trkpt>
      <trkpt lat="47.59648" lon="6.76496">
        <ele>517</ele>
        <time>2016-12-04T10:00:52.999Z</time>
      </trkpt>
      <trkpt lat="47.59651" lon="6.76499">
        <ele>517</ele>
        <time>2016-12-04T10:00:53.999Z</time>
      </trkpt>
      <trkpt lat="47.59654" lon="6.76502">
        <ele>516</ele>
        <time>2016-12-04T10:00:54.999Z</time>
      </trkpt>
      <trkpt lat="47.59656" lon="6.76503">
        <ele>517</ele>
        <time>2016-12-04T10:00:55.999Z</time>
      </trkpt>
      <trkpt lat="47.59659" lon="6.76507">
        <ele>517</ele>
        <time>2016-12-04T10:00:56.999Z</time>
      </trkpt>
      <trkpt lat="47.59662" lon="6.7651">
        <ele>517</ele>
        <time>2016-12-04T10:00:57.999Z</time>
      </trkpt>
      <trkpt lat="47.59666" lon="6.76513">
        <ele>517</ele>
        <time>2016-12-04T10:00:59.999Z</time>
      </trkpt>
      <trkpt lat="47.59667" lon="6.76515">
        <ele>518</ele>
        <time>2016-12-04T10:01:00.999Z</time>
      </trkpt>
      <trkpt lat="47.5967" lon="6.76517">
        <ele>518</ele>
        <time>2016-12-04T10:01:01.999Z</time>
      </trkpt>
      <trkpt lat="47.59672" lon="6.76519">
        <ele>518</ele>
        <time>2016-12-04T10:01:02.999Z</time>
      </trkpt>
      <trkpt lat="47.59675" lon="6.76521">
        <ele>517</ele>
        <time>2016-12-04T10:01:03.999Z</time>
      </trkpt>
      <trkpt lat="47.59677" lon="6.76523">
        <ele>517</ele>
        <time>2016-12-04T10:01:04.999Z</time>
      </trkpt>
      <trkpt lat="47.5968" lon="6.76525">
        <ele>517</ele>
        <time>2016-12-04T10:01:05.999Z</time>
      </trkpt>
      <trkpt lat="47.59682" lon="6.76527">
        <ele>517</ele>
        <time>2016-12-04T10:01:06.999Z</time>
      </trkpt>
      <trkpt lat="47.59685" lon="6.76529">
        <ele>517</ele>
        <time>2016-12-04T10:01:07.999Z</time>
      </trkpt>
      <trkpt lat="47.59687" lon="6.76531">
        <ele>517</ele>
        <time>2016-12-04T10:01:08.999Z</time>
      </trkpt>
      <trkpt lat="47.5969" lon="6.76532">
        <ele>517</ele>
        <time>2016-12-04T10:01:09.999Z</time>
      </trkpt>
      <trkpt lat="47.59693" lon="6.76535">
        <ele>517</ele>
        <time>2016-12-04T10:01:10.999Z</time>
      </trkpt>
      <trkpt lat="47.59697" lon="6.76534">
        <ele>517</ele>
        <time>2016-12-04T10:01:15.999Z</time>
      </trkpt>
      <trkpt lat="47.59698" lon="6.76534">
        <ele>517</ele>
        <time>2016-12-04T10:01:16.999Z</time>
      </trkpt>
      <trkpt lat="47.59701" lon="6.7653">
        <ele>517</ele>
        <time>2016-12-04T10:01:19.999Z</time>
      </trkpt>
      <trkpt lat="47.59702" lon="6.76528">
        <ele>517</ele>
        <time>2016-12-04T10:01:20.999Z</time>
      </trkpt>
      <trkpt lat="47.59704" lon="6.76523">
        <ele>518</ele>
        <time>2016-12-04T10:01:22.999Z</time>
      </trkpt>
      <trkpt lat="47.59705" lon="6.76519">
        <ele>518</ele>
        <time>2016-12-04T10:01:23.999Z</time>
      </trkpt>
      <trkpt lat="47.59706" lon="6.76516">
        <ele>518</ele>
        <time>2016-12-04T10:01:24.999Z</time>
      </trkpt>
      <trkpt lat="47.59707" lon="6.76513">
        <ele>518</ele>
        <time>2016-12-04T10:01:25.999Z</time>
      </trkpt>
      <trkpt lat="47.59708" lon="6.76506">
        <ele>518</ele>
        <time>2016-12-04T10:01:28.999Z</time>
      </trkpt>
      <trkpt lat="47.59707" lon="6.76503">
        <ele>518</ele>
        <time>2016-12-04T10:01:29.999Z</time>
      </trkpt>
      <trkpt lat="47.59706" lon="6.76497">
        <ele>520</ele>
        <time>2016-12-04T10:01:31.999Z</time>
      </trkpt>
      <trkpt lat="47.59705" lon="6.76495">
        <ele>520</ele>
        <time>2016-12-04T10:01:32.999Z</time>
      </trkpt>
      <trkpt lat="47.59705" lon="6.76492">
        <ele>520</ele>
        <time>2016-12-04T10:01:33.999Z</time>
      </trkpt>
      <trkpt lat="47.59704" lon="6.76487">
        <ele>520</ele>
        <time>2016-12-04T10:01:34.999Z</time>
      </trkpt>
      <trkpt lat="47.59704" lon="6.76482">
        <ele>520</ele>
        <time>2016-12-04T10:01:35.999Z</time>
      </trkpt>
      <trkpt lat="47.59704" lon="6.76479">
        <ele>520</ele>
        <time>2016-12-04T10:01:36.999Z</time>
      </trkpt>
      <trkpt lat="47.59703" lon="6.76477">
        <ele>520</ele>
        <time>2016-12-04T10:01:37.999Z</time>
      </trkpt>
      <trkpt lat="47.59701" lon="6.76473">
        <ele>520</ele>
        <time>2016-12-04T10:01:38.999Z</time>
      </trkpt>
      <trkpt lat="47.597" lon="6.76469">
        <ele>520</ele>
        <time>2016-12-04T10:01:39.999Z</time>
      </trkpt>
      <trkpt lat="47.59698" lon="6.76466">
        <ele>520</ele>
        <time>2016-12-04T10:01:40.999Z</time>
      </trkpt>
      <trkpt lat="47.59697" lon="6.76461">
        <ele>521</ele>
        <time>2016-12-04T10:01:41.999Z</time>
      </trkpt>
      <trkpt lat="47.59696" lon="6.76458">
        <ele>521</ele>
        <time>2016-12-04T10:01:42.999Z</time>
      </trkpt>
      <trkpt lat="47.59694" lon="6.76454">
        <ele>521</ele>
        <time>2016-12-04T10:01:43.999Z</time>
      </trkpt>
      <trkpt lat="47.59692" lon="6.76449">
        <ele>521</ele>
        <time>2016-12-04T10:01:44.999Z</time>
      </trkpt>
      <trkpt lat="47.59691" lon="6.76446">
        <ele>521</ele>
        <time>2016-12-04T10:01:45.999Z</time>
      </trkpt>
      <trkpt lat="47.5969" lon="6.76442">
        <ele>521</ele>
        <time>2016-12-04T10:01:46.999Z</time>
      </trkpt>
      <trkpt lat="47.59689" lon="6.76438">
        <ele>521</ele>
        <time>2016-12-04T10:01:47.999Z</time>
      </trkpt>
      <trkpt lat="47.59689" lon="6.76435">
        <ele>521</ele>
        <time>2016-12-04T10:01:48.999Z</time>
      </trkpt>
      <trkpt lat="47.59689" lon="6.76429">
        <ele>521</ele>
        <time>2016-12-04T10:01:50.999Z</time>
      </trkpt>
      <trkpt lat="47.59689" lon="6.76424">
        <ele>521</ele>
        <time>2016-12-04T10:01:51.999Z</time>
      </trkpt>
      <trkpt lat="47.59689" lon="6.76419">
        <ele>521</ele>
        <time>2016-12-04T10:01:52.999Z</time>
      </trkpt>
      <trkpt lat="47.59689" lon="6.76414">
        <ele>523</ele>
        <time>2016-12-04T10:01:53.999Z</time>
      </trkpt>
      <trkpt lat="47.59689" lon="6.7641">
        <ele>523</ele>
        <time>2016-12-04T10:01:54.999Z</time>
      </trkpt>
      <trkpt lat="47.59689" lon="6.76407">
        <ele>524</ele>
        <time>2016-12-04T10:01:55.999Z</time>
      </trkpt>
      <trkpt lat="47.59689" lon="6.76401">
        <ele>524</ele>
        <time>2016-12-04T10:01:57.999Z</time>
      </trkpt>
      <trkpt lat="47.59689" lon="6.76397">
        <ele>524</ele>
        <time>2016-12-04T10:01:58.999Z</time>
      </trkpt>
      <trkpt lat="47.59689" lon="6.76394">
        <ele>524</ele>
        <time>2016-12-04T10:01:59.999Z</time>
      </trkpt>
      <trkpt lat="47.59688" lon="6.7639">
        <ele>524</ele>
        <time>2016-12-04T10:02:00.999Z</time>
      </trkpt>
      <trkpt lat="47.59687" lon="6.76386">
        <ele>524</ele>
        <time>2016-12-04T10:02:01.999Z</time>
      </trkpt>
      <trkpt lat="47.59686" lon="6.76382">
        <ele>524</ele>
        <time>2016-12-04T10:02:02.999Z</time>
      </trkpt>
      <trkpt lat="47.59684" lon="6.76377">
        <ele>524</ele>
        <time>2016-12-04T10:02:03.999Z</time>
      </trkpt>
      <trkpt lat="47.59682" lon="6.76373">
        <ele>524</ele>
        <time>2016-12-04T10:02:04.999Z</time>
      </trkpt>
      <trkpt lat="47.5968" lon="6.76371">
        <ele>524</ele>
        <time>2016-12-04T10:02:05.999Z</time>
      </trkpt>
      <trkpt lat="47.59678" lon="6.76368">
        <ele>525</ele>
        <time>2016-12-04T10:02:06.999Z</time>
      </trkpt>
      <trkpt lat="47.59675" lon="6.76366">
        <ele>525</ele>
        <time>2016-12-04T10:02:07.999Z</time>
      </trkpt>
      <trkpt lat="47.59673" lon="6.76364">
        <ele>525</ele>
        <time>2016-12-04T10:02:08.999Z</time>
      </trkpt>
      <trkpt lat="47.59672" lon="6.76362">
        <ele>525</ele>
        <time>2016-12-04T10:02:09.999Z</time>
      </trkpt>
      <trkpt lat="47.59669" lon="6.7636">
        <ele>525</ele>
        <time>2016-12-04T10:02:10.999Z</time>
      </trkpt>
      <trkpt lat="47.59667" lon="6.76357">
        <ele>525</ele>
        <time>2016-12-04T10:02:11.999Z</time>
      </trkpt>
      <trkpt lat="47.59665" lon="6.76354">
        <ele>523</ele>
        <time>2016-12-04T10:02:12.999Z</time>
      </trkpt>
      <trkpt lat="47.59664" lon="6.76351">
        <ele>523</ele>
        <time>2016-12-04T10:02:13.999Z</time>
      </trkpt>
      <trkpt lat="47.59662" lon="6.76348">
        <ele>523</ele>
        <time>2016-12-04T10:02:14.999Z</time>
      </trkpt>
      <trkpt lat="47.59659" lon="6.76345">
        <ele>524</ele>
        <time>2016-12-04T10:02:15.999Z</time>
      </trkpt>
      <trkpt lat="47.59657" lon="6.76341">
        <ele>524</ele>
        <time>2016-12-04T10:02:16.999Z</time>
      </trkpt>
      <trkpt lat="47.59654" lon="6.76337">
        <ele>524</ele>
        <time>2016-12-04T10:02:17.999Z</time>
      </trkpt>
      <trkpt lat="47.59653" lon="6.76333">
        <ele>525</ele>
        <time>2016-12-04T10:02:18.999Z</time>
      </trkpt>
      <trkpt lat="47.59651" lon="6.76331">
        <ele>525</ele>
        <time>2016-12-04T10:02:19.999Z</time>
      </trkpt>
      <trkpt lat="47.59648" lon="6.76328">
        <ele>525</ele>
        <time>2016-12-04T10:02:20.999Z</time>
      </trkpt>
      <trkpt lat="47.59646" lon="6.76324">
        <ele>524</ele>
        <time>2016-12-04T10:02:21.999Z</time>
      </trkpt>
      <trkpt lat="47.59643" lon="6.7632">
        <ele>524</ele>
        <time>2016-12-04T10:02:22.999Z</time>
      </trkpt>
      <trkpt lat="47.59641" lon="6.76316">
        <ele>524</ele>
        <time>2016-12-04T10:02:23.999Z</time>
      </trkpt>
      <trkpt lat="47.59637" lon="6.76311">
        <ele>524</ele>
        <time>2016-12-04T10:02:24.999Z</time>
      </trkpt>
      <trkpt lat="47.59635" lon="6.76305">
        <ele>524</ele>
        <time>2016-12-04T10:02:25.999Z</time>
      </trkpt>
      <trkpt lat="47.59632" lon="6.76299">
        <ele>524</ele>
        <time>2016-12-04T10:02:26.999Z</time>
      </trkpt>
      <trkpt lat="47.59629" lon="6.76294">
        <ele>524</ele>
        <time>2016-12-04T10:02:27.999Z</time>
      </trkpt>
      <trkpt lat="47.59626" lon="6.76288">
        <ele>524</ele>
        <time>2016-12-04T10:02:28.999Z</time>
      </trkpt>
      <trkpt lat="47.59624" lon="6.76282">
        <ele>524</ele>
        <time>2016-12-04T10:02:29.999Z</time>
      </trkpt>
      <trkpt lat="47.59621" lon="6.76276">
        <ele>524</ele>
        <time>2016-12-04T10:02:30.999Z</time>
      </trkpt>
      <trkpt lat="47.59619" lon="6.76272">
        <ele>524</ele>
        <time>2016-12-04T10:02:31.999Z</time>
      </trkpt>
      <trkpt lat="47.59617" lon="6.76268">
        <ele>523</ele>
        <time>2016-12-04T10:02:32.999Z</time>
      </trkpt>
      <trkpt lat="47.59615" lon="6.76264">
        <ele>523</ele>
        <time>2016-12-04T10:02:33.999Z</time>
      </trkpt>
      <trkpt lat="47.59612" lon="6.76259">
        <ele>523</ele>
        <time>2016-12-04T10:02:34.999Z</time>
      </trkpt>
      <trkpt lat="47.59611" lon="6.76255">
        <ele>523</ele>
        <time>2016-12-04T10:02:35.999Z</time>
      </trkpt>
      <trkpt lat="47.59608" lon="6.76249">
        <ele>524</ele>
        <time>2016-12-04T10:02:36.999Z</time>
      </trkpt>
      <trkpt lat="47.59605" lon="6.76244">
        <ele>524</ele>
        <time>2016-12-04T10:02:37.999Z</time>
      </trkpt>
      <trkpt lat="47.59602" lon="6.76239">
        <ele>524</ele>
        <time>2016-12-04T10:02:38.999Z</time>
      </trkpt>
      <trkpt lat="47.59599" lon="6.76235">
        <ele>524</ele>
        <time>2016-12-04T10:02:39.999Z</time>
      </trkpt>
      <trkpt lat="47.59596" lon="6.7623">
        <ele>524</ele>
        <time>2016-12-04T10:02:40.999Z</time>
      </trkpt>
      <trkpt lat="47.59594" lon="6.76225">
        <ele>524</ele>
        <time>2016-12-04T10:02:41.999Z</time>
      </trkpt>
      <trkpt lat="47.59591" lon="6.7622">
        <ele>524</ele>
        <time>2016-12-04T10:02:43.999Z</time>
      </trkpt>
      <trkpt lat="47.59589" lon="6.76219">
        <ele>524</ele>
        <time>2016-12-04T10:02:44.999Z</time>
      </trkpt>
      <trkpt lat="47.59588" lon="6.76216">
        <ele>524</ele>
        <time>2016-12-04T10:02:45.999Z</time>
      </trkpt>
      <trkpt lat="47.59587" lon="6.76211">
        <ele>524</ele>
        <time>2016-12-04T10:02:46.999Z</time>
      </trkpt>
      <trkpt lat="47.59585" lon="6.76204">
        <ele>524</ele>
        <time>2016-12-04T10:02:47.999Z</time>
      </trkpt>
      <trkpt lat="47.59582" lon="6.76195">
        <ele>519</ele>
        <time>2016-12-04T10:02:48.999Z</time>
      </trkpt>
      <trkpt lat="47.5958" lon="6.76187">
        <ele>520</ele>
        <time>2016-12-04T10:02:49.999Z</time>
      </trkpt>
      <trkpt lat="47.59578" lon="6.76183">
        <ele>520</ele>
        <time>2016-12-04T10:02:50.999Z</time>
      </trkpt>
      <trkpt lat="47.59576" lon="6.76177">
        <ele>520</ele>
        <time>2016-12-04T10:02:51.999Z</time>
      </trkpt>
      <trkpt lat="47.59575" lon="6.76172">
        <ele>521</ele>
        <time>2016-12-04T10:02:52.999Z</time>
      </trkpt>
      <trkpt lat="47.59574" lon="6.76167">
        <ele>521</ele>
        <time>2016-12-04T10:02:53.999Z</time>
      </trkpt>
      <trkpt lat="47.59572" lon="6.76159">
        <ele>521</ele>
        <time>2016-12-04T10:02:54.999Z</time>
      </trkpt>
      <trkpt lat="47.59571" lon="6.76153">
        <ele>520</ele>
        <time>2016-12-04T10:02:55.999Z</time>
      </trkpt>
      <trkpt lat="47.5957" lon="6.76147">
        <ele>520</ele>
        <time>2016-12-04T10:02:56.999Z</time>
      </trkpt>
      <trkpt lat="47.59569" lon="6.76142">
        <ele>520</ele>
        <time>2016-12-04T10:02:57.999Z</time>
      </trkpt>
      <trkpt lat="47.59568" lon="6.76137">
        <ele>520</ele>
        <time>2016-12-04T10:02:58.999Z</time>
      </trkpt>
      <trkpt lat="47.59567" lon="6.76132">
        <ele>520</ele>
        <time>2016-12-04T10:02:59.999Z</time>
      </trkpt>
      <trkpt lat="47.59565" lon="6.76128">
        <ele>520</ele>
        <time>2016-12-04T10:03:00.999Z</time>
      </trkpt>
      <trkpt lat="47.59564" lon="6.76123">
        <ele>520</ele>
        <time>2016-12-04T10:03:01.999Z</time>
      </trkpt>
      <trkpt lat="47.59562" lon="6.76119">
        <ele>520</ele>
        <time>2016-12-04T10:03:02.999Z</time>
      </trkpt>
      <trkpt lat="47.59561" lon="6.76114">
        <ele>520</ele>
        <time>2016-12-04T10:03:03.999Z</time>
      </trkpt>
      <trkpt lat="47.59561" lon="6.76111">
        <ele>520</ele>
        <time>2016-12-04T10:03:04.999Z</time>
      </trkpt>
      <trkpt lat="47.59559" lon="6.76107">
        <ele>520</ele>
        <time>2016-12-04T10:03:05.999Z</time>
      </trkpt>
      <trkpt lat="47.59558" lon="6.76103">
        <ele>520</ele>
        <time>2016-12-04T10:03:06.999Z</time>
      </trkpt>
      <trkpt lat="47.59557" lon="6.76097">
        <ele>521</ele>
        <time>2016-12-04T10:03:07.999Z</time>
      </trkpt>
      <trkpt lat="47.59556" lon="6.76092">
        <ele>521</ele>
        <time>2016-12-04T10:03:08.999Z</time>
      </trkpt>
      <trkpt lat="47.59555" lon="6.76089">
        <ele>521</ele>
        <time>2016-12-04T10:03:09.999Z</time>
      </trkpt>
      <trkpt lat="47.59553" lon="6.76085">
        <ele>520</ele>
        <time>2016-12-04T10:03:10.999Z</time>
      </trkpt>
      <trkpt lat="47.59552" lon="6.76081">
        <ele>521</ele>
        <time>2016-12-04T10:03:11.999Z</time>
      </trkpt>
      <trkpt lat="47.5955" lon="6.76076">
        <ele>521</ele>
        <time>2016-12-04T10:03:12.999Z</time>
      </trkpt>
      <trkpt lat="47.59549" lon="6.76071">
        <ele>521</ele>
        <time>2016-12-04T10:03:13.999Z</time>
      </trkpt>
      <trkpt lat="47.59549" lon="6.76064">
        <ele>521</ele>
        <time>2016-12-04T10:03:14.999Z</time>
      </trkpt>
      <trkpt lat="47.59549" lon="6.7606">
        <ele>521</ele>
        <time>2016-12-04T10:03:15.999Z</time>
      </trkpt>
      <trkpt lat="47.59549" lon="6.76056">
        <ele>521</ele>
        <time>2016-12-04T10:03:16.999Z</time>
      </trkpt>
      <trkpt lat="47.59549" lon="6.76052">
        <ele>521</ele>
        <time>2016-12-04T10:03:17.999Z</time>
      </trkpt>
      <trkpt lat="47.59548" lon="6.76046">
        <ele>521</ele>
        <time>2016-12-04T10:03:19.999Z</time>
      </trkpt>
      <trkpt lat="47.59547" lon="6.76042">
        <ele>521</ele>
        <time>2016-12-04T10:03:20.999Z</time>
      </trkpt>
      <trkpt lat="47.59545" lon="6.76037">
        <ele>521</ele>
        <time>2016-12-04T10:03:21.999Z</time>
      </trkpt>
      <trkpt lat="47.59544" lon="6.76033">
        <ele>521</ele>
        <time>2016-12-04T10:03:22.999Z</time>
      </trkpt>
      <trkpt lat="47.59542" lon="6.76027">
        <ele>521</ele>
        <time>2016-12-04T10:03:23.999Z</time>
      </trkpt>
      <trkpt lat="47.59539" lon="6.76022">
        <ele>521</ele>
        <time>2016-12-04T10:03:24.999Z</time>
      </trkpt>
      <trkpt lat="47.59537" lon="6.76017">
        <ele>521</ele>
        <time>2016-12-04T10:03:25.999Z</time>
      </trkpt>
      <trkpt lat="47.59535" lon="6.76013">
        <ele>521</ele>
        <time>2016-12-04T10:03:26.999Z</time>
      </trkpt>
      <trkpt lat="47.59532" lon="6.76009">
        <ele>521</ele>
        <time>2016-12-04T10:03:27.999Z</time>
      </trkpt>
      <trkpt lat="47.59529" lon="6.76003">
        <ele>520</ele>
        <time>2016-12-04T10:03:28.999Z</time>
      </trkpt>
      <trkpt lat="47.59527" lon="6.75996">
        <ele>521</ele>
        <time>2016-12-04T10:03:29.999Z</time>
      </trkpt>
      <trkpt lat="47.59526" lon="6.7599">
        <ele>521</ele>
        <time>2016-12-04T10:03:30.999Z</time>
      </trkpt>
      <trkpt lat="47.59524" lon="6.75984">
        <ele>521</ele>
        <time>2016-12-04T10:03:31.999Z</time>
      </trkpt>
      <trkpt lat="47.59522" lon="6.75978">
        <ele>521</ele>
        <time>2016-12-04T10:03:32.999Z</time>
      </trkpt>
      <trkpt lat="47.59522" lon="6.75972">
        <ele>521</ele>
        <time>2016-12-04T10:03:33.999Z</time>
      </trkpt>
      <trkpt lat="47.59521" lon="6.75965">
        <ele>521</ele>
        <time>2016-12-04T10:03:34.999Z</time>
      </trkpt>
      <trkpt lat="47.5952" lon="6.75959">
        <ele>521</ele>
        <time>2016-12-04T10:03:35.999Z</time>
      </trkpt>
      <trkpt lat="47.59519" lon="6.75952">
        <ele>521</ele>
        <time>2016-12-04T10:03:36.999Z</time>
      </trkpt>
      <trkpt lat="47.59519" lon="6.75946">
        <ele>521</ele>
        <time>2016-12-04T10:03:37.999Z</time>
      </trkpt>
      <trkpt lat="47.59518" lon="6.75942">
        <ele>521</ele>
        <time>2016-12-04T10:03:38.999Z</time>
      </trkpt>
      <trkpt lat="47.59517" lon="6.75937">
        <ele>521</ele>
        <time>2016-12-04T10:03:39.999Z</time>
      </trkpt>
      <trkpt lat="47.59517" lon="6.75932">
        <ele>521</ele>
        <time>2016-12-04T10:03:40.999Z</time>
      </trkpt>
      <trkpt lat="47.59518" lon="6.75928">
        <ele>521</ele>
        <time>2016-12-04T10:03:41.999Z</time>
      </trkpt>
      <trkpt lat="47.59518" lon="6.75921">
        <ele>520</ele>
        <time>2016-12-04T10:03:42.999Z</time>
      </trkpt>
      <trkpt lat="47.59518" lon="6.75913">
        <ele>521</ele>
        <time>2016-12-04T10:03:43.999Z</time>
      </trkpt>
      <trkpt lat="47.59517" lon="6.75907">
        <ele>521</ele>
        <time>2016-12-04T10:03:44.999Z</time>
      </trkpt>
      <trkpt lat="47.59516" lon="6.75903">
        <ele>521</ele>
        <time>2016-12-04T10:03:45.999Z</time>
      </trkpt>
      <trkpt lat="47.59516" lon="6.75899">
        <ele>521</ele>
        <time>2016-12-04T10:03:46.999Z</time>
      </trkpt>
      <trkpt lat="47.59516" lon="6.75893">
        <ele>522</ele>
        <time>2016-12-04T10:03:47.999Z</time>
      </trkpt>
      <trkpt lat="47.59515" lon="6.75887">
        <ele>522</ele>
        <time>2016-12-04T10:03:48.999Z</time>
      </trkpt>
      <trkpt lat="47.59515" lon="6.75882">
        <ele>522</ele>
        <time>2016-12-04T10:03:49.999Z</time>
      </trkpt>
      <trkpt lat="47.59514" lon="6.75878">
        <ele>522</ele>
        <time>2016-12-04T10:03:50.999Z</time>
      </trkpt>
      <trkpt lat="47.59513" lon="6.75873">
        <ele>522</ele>
        <time>2016-12-04T10:03:51.999Z</time>
      </trkpt>
      <trkpt lat="47.59512" lon="6.75869">
        <ele>522</ele>
        <time>2016-12-04T10:03:52.999Z</time>
      </trkpt>
      <trkpt lat="47.5951" lon="6.75864">
        <ele>522</ele>
        <time>2016-12-04T10:03:53.999Z</time>
      </trkpt>
      <trkpt lat="47.59509" lon="6.75859">
        <ele>522</ele>
        <time>2016-12-04T10:03:54.999Z</time>
      </trkpt>
      <trkpt lat="47.59507" lon="6.75855">
        <ele>522</ele>
        <time>2016-12-04T10:03:55.999Z</time>
      </trkpt>
      <trkpt lat="47.59506" lon="6.7585">
        <ele>521</ele>
        <time>2016-12-04T10:03:56.999Z</time>
      </trkpt>
      <trkpt lat="47.59505" lon="6.75843">
        <ele>521</ele>
        <time>2016-12-04T10:03:57.999Z</time>
      </trkpt>
      <trkpt lat="47.59504" lon="6.75836">
        <ele>521</ele>
        <time>2016-12-04T10:03:58.999Z</time>
      </trkpt>
      <trkpt lat="47.59505" lon="6.75827">
        <ele>521</ele>
        <time>2016-12-04T10:03:59.999Z</time>
      </trkpt>
      <trkpt lat="47.59506" lon="6.75822">
        <ele>521</ele>
        <time>2016-12-04T10:04:00.999Z</time>
      </trkpt>
      <trkpt lat="47.59507" lon="6.75816">
        <ele>522</ele>
        <time>2016-12-04T10:04:01.999Z</time>
      </trkpt>
      <trkpt lat="47.59508" lon="6.7581">
        <ele>522</ele>
        <time>2016-12-04T10:04:02.999Z</time>
      </trkpt>
      <trkpt lat="47.59509" lon="6.75804">
        <ele>522</ele>
        <time>2016-12-04T10:04:03.999Z</time>
      </trkpt>
      <trkpt lat="47.5951" lon="6.75799">
        <ele>522</ele>
        <time>2016-12-04T10:04:04.999Z</time>
      </trkpt>
      <trkpt lat="47.59511" lon="6.75796">
        <ele>522</ele>
        <time>2016-12-04T10:04:05.999Z</time>
      </trkpt>
      <trkpt lat="47.59511" lon="6.75791">
        <ele>522</ele>
        <time>2016-12-04T10:04:06.999Z</time>
      </trkpt>
      <trkpt lat="47.59512" lon="6.75787">
        <ele>522</ele>
        <time>2016-12-04T10:04:07.999Z</time>
      </trkpt>
      <trkpt lat="47.59512" lon="6.75783">
        <ele>522</ele>
        <time>2016-12-04T10:04:08.999Z</time>
      </trkpt>
      <trkpt lat="47.59513" lon="6.75779">
        <ele>522</ele>
        <time>2016-12-04T10:04:09.999Z</time>
      </trkpt>
      <trkpt lat="47.59515" lon="6.75775">
        <ele>522</ele>
        <time>2016-12-04T10:04:11.999Z</time>
      </trkpt>
      <trkpt lat="47.59517" lon="6.75773">
        <ele>522</ele>
        <time>2016-12-04T10:04:12.999Z</time>
      </trkpt>
      <trkpt lat="47.59519" lon="6.75769">
        <ele>522</ele>
        <time>2016-12-04T10:04:15.999Z</time>
      </trkpt>
      <trkpt lat="47.5952" lon="6.75768">
        <ele>522</ele>
        <time>2016-12-04T10:04:16.999Z</time>
      </trkpt>
      <trkpt lat="47.59524" lon="6.75764">
        <ele>522</ele>
        <time>2016-12-04T10:04:20.999Z</time>
      </trkpt>
      <trkpt lat="47.59525" lon="6.75763">
        <ele>522</ele>
        <time>2016-12-04T10:04:21.999Z</time>
      </trkpt>
      <trkpt lat="47.59529" lon="6.75761">
        <ele>523</ele>
        <time>2016-12-04T10:04:23.999Z</time>
      </trkpt>
      <trkpt lat="47.5953" lon="6.7576">
        <ele>523</ele>
        <time>2016-12-04T10:04:24.999Z</time>
      </trkpt>
      <trkpt lat="47.59533" lon="6.75755">
        <ele>523</ele>
        <time>2016-12-04T10:04:26.999Z</time>
      </trkpt>
      <trkpt lat="47.59535" lon="6.75752">
        <ele>523</ele>
        <time>2016-12-04T10:04:27.999Z</time>
      </trkpt>
      <trkpt lat="47.59536" lon="6.75747">
        <ele>523</ele>
        <time>2016-12-04T10:04:30.999Z</time>
      </trkpt>
      <trkpt lat="47.59537" lon="6.75745">
        <ele>523</ele>
        <time>2016-12-04T10:04:31.999Z</time>
      </trkpt>
      <trkpt lat="47.5954" lon="6.75741">
        <ele>524</ele>
        <time>2016-12-04T10:04:33.999Z</time>
      </trkpt>
      <trkpt lat="47.5954" lon="6.75739">
        <ele>524</ele>
        <time>2016-12-04T10:04:34.999Z</time>
      </trkpt>
      <trkpt lat="47.59542" lon="6.75735">
        <ele>524</ele>
        <time>2016-12-04T10:04:35.999Z</time>
      </trkpt>
      <trkpt lat="47.59542" lon="6.75732">
        <ele>524</ele>
        <time>2016-12-04T10:04:36.999Z</time>
      </trkpt>
      <trkpt lat="47.59543" lon="6.75729">
        <ele>524</ele>
        <time>2016-12-04T10:04:37.999Z</time>
      </trkpt>
      <trkpt lat="47.59544" lon="6.75726">
        <ele>524</ele>
        <time>2016-12-04T10:04:38.999Z</time>
      </trkpt>
      <trkpt lat="47.59545" lon="6.75723">
        <ele>524</ele>
        <time>2016-12-04T10:04:39.999Z</time>
      </trkpt>
      <trkpt lat="47.59546" lon="6.7572">
        <ele>524</ele>
        <time>2016-12-04T10:04:40.999Z</time>
      </trkpt>
      <trkpt lat="47.59547" lon="6.75714">
        <ele>524</ele>
        <time>2016-12-04T10:04:42.999Z</time>
      </trkpt>
      <trkpt lat="47.59548" lon="6.75711">
        <ele>524</ele>
        <time>2016-12-04T10:04:43.999Z</time>
      </trkpt>
      <trkpt lat="47.59549" lon="6.75707">
        <ele>524</ele>
        <time>2016-12-04T10:04:44.999Z</time>
      </trkpt>
      <trkpt lat="47.5955" lon="6.75704">
        <ele>524</ele>
        <time>2016-12-04T10:04:45.999Z</time>
      </trkpt>
      <trkpt lat="47.59552" lon="6.75699">
        <ele>524</ele>
        <time>2016-12-04T10:04:48.999Z</time>
      </trkpt>
      <trkpt lat="47.59552" lon="6.75698">
        <ele>525</ele>
        <time>2016-12-04T10:04:49.999Z</time>
      </trkpt>
      <trkpt lat="47.59554" lon="6.75694">
        <ele>525</ele>
        <time>2016-12-04T10:04:51.999Z</time>
      </trkpt>
      <trkpt lat="47.59555" lon="6.75691">
        <ele>525</ele>
        <time>2016-12-04T10:04:52.999Z</time>
      </trkpt>
      <trkpt lat="47.59557" lon="6.75687">
        <ele>525</ele>
        <time>2016-12-04T10:04:55.999Z</time>
      </trkpt>
      <trkpt lat="47.59557" lon="6.75684">
        <ele>525</ele>
        <time>2016-12-04T10:04:56.999Z</time>
      </trkpt>
      <trkpt lat="47.59553" lon="6.7568">
        <ele>525</ele>
        <time>2016-12-04T10:05:06.999Z</time>
      </trkpt>
      <trkpt lat="47.59554" lon="6.75679">
        <ele>525</ele>
        <time>2016-12-04T10:05:07.999Z</time>
      </trkpt>
      <trkpt lat="47.59555" lon="6.75685">
        <ele>525</ele>
        <time>2016-12-04T10:05:47.999Z</time>
      </trkpt>
      <trkpt lat="47.59555" lon="6.75686">
        <ele>525</ele>
        <time>2016-12-04T10:05:48.999Z</time>
      </trkpt>
      <trkpt lat="47.59554" lon="6.75692">
        <ele>525</ele>
        <time>2016-12-04T10:07:21.999Z</time>
      </trkpt>
      <trkpt lat="47.59556" lon="6.75695">
        <ele>525</ele>
        <time>2016-12-04T10:07:22.999Z</time>
      </trkpt>
      <trkpt lat="47.5956" lon="6.75697">
        <ele>525</ele>
        <time>2016-12-04T10:07:23.999Z</time>
      </trkpt>
      <trkpt lat="47.59563" lon="6.75698">
        <ele>525</ele>
        <time>2016-12-04T10:07:24.999Z</time>
      </trkpt>
      <trkpt lat="47.59566" lon="6.75699">
        <ele>525</ele>
        <time>2016-12-04T10:07:25.999Z</time>
      </trkpt>
      <trkpt lat="47.59569" lon="6.75702">
        <ele>525</ele>
        <time>2016-12-04T10:07:26.999Z</time>
      </trkpt>
      <trkpt lat="47.59573" lon="6.75705">
        <ele>525</ele>
        <time>2016-12-04T10:07:28.999Z</time>
      </trkpt>
      <trkpt lat="47.59575" lon="6.75707">
        <ele>525</ele>
        <time>2016-12-04T10:07:29.999Z</time>
      </trkpt>
      <trkpt lat="47.59577" lon="6.75711">
        <ele>525</ele>
        <time>2016-12-04T10:07:34.999Z</time>
      </trkpt>
      <trkpt lat="47.59577" lon="6.75715">
        <ele>525</ele>
        <time>2016-12-04T10:07:35.999Z</time>
      </trkpt>
      <trkpt lat="47.59577" lon="6.75721">
        <ele>525</ele>
        <time>2016-12-04T10:07:37.999Z</time>
      </trkpt>
      <trkpt lat="47.59576" lon="6.75725">
        <ele>525</ele>
        <time>2016-12-04T10:07:38.999Z</time>
      </trkpt>
      <trkpt lat="47.59577" lon="6.75729">
        <ele>525</ele>
        <time>2016-12-04T10:07:40.999Z</time>
      </trkpt>
      <trkpt lat="47.59578" lon="6.75732">
        <ele>525</ele>
        <time>2016-12-04T10:07:41.999Z</time>
      </trkpt>
      <trkpt lat="47.59581" lon="6.75734">
        <ele>525</ele>
        <time>2016-12-04T10:07:42.999Z</time>
      </trkpt>
      <trkpt lat="47.59583" lon="6.75734">
        <ele>527</ele>
        <time>2016-12-04T10:07:43.999Z</time>
      </trkpt>
      <trkpt lat="47.59587" lon="6.75733">
        <ele>527</ele>
        <time>2016-12-04T10:07:45.999Z</time>
      </trkpt>
      <trkpt lat="47.59589" lon="6.75733">
        <ele>527</ele>
        <time>2016-12-04T10:07:46.999Z</time>
      </trkpt>
      <trkpt lat="47.59593" lon="6.75733">
        <ele>527</ele>
        <time>2016-12-04T10:07:49.999Z</time>
      </trkpt>
      <trkpt lat="47.59594" lon="6.75735">
        <ele>527</ele>
        <time>2016-12-04T10:07:50.999Z</time>
      </trkpt>
      <trkpt lat="47.59597" lon="6.75739">
        <ele>527</ele>
        <time>2016-12-04T10:07:53.999Z</time>
      </trkpt>
      <trkpt lat="47.59598" lon="6.7574">
        <ele>527</ele>
        <time>2016-12-04T10:07:54.999Z</time>
      </trkpt>
      <trkpt lat="47.59595" lon="6.75743">
        <ele>527</ele>
        <time>2016-12-04T10:07:59.999Z</time>
      </trkpt>
      <trkpt lat="47.59592" lon="6.75743">
        <ele>527</ele>
        <time>2016-12-04T10:08:00.999Z</time>
      </trkpt>
      <trkpt lat="47.59589" lon="6.75742">
        <ele>527</ele>
        <time>2016-12-04T10:08:01.999Z</time>
      </trkpt>
      <trkpt lat="47.59585" lon="6.7574">
        <ele>527</ele>
        <time>2016-12-04T10:08:02.999Z</time>
      </trkpt>
      <trkpt lat="47.59582" lon="6.75736">
        <ele>525</ele>
        <time>2016-12-04T10:08:03.999Z</time>
      </trkpt>
      <trkpt lat="47.5958" lon="6.75732">
        <ele>525</ele>
        <time>2016-12-04T10:08:04.999Z</time>
      </trkpt>
      <trkpt lat="47.59577" lon="6.75727">
        <ele>525</ele>
        <time>2016-12-04T10:08:05.999Z</time>
      </trkpt>
      <trkpt lat="47.59574" lon="6.75723">
        <ele>525</ele>
        <time>2016-12-04T10:08:06.999Z</time>
      </trkpt>
      <trkpt lat="47.59572" lon="6.75717">
        <ele>525</ele>
        <time>2016-12-04T10:08:07.999Z</time>
      </trkpt>
      <trkpt lat="47.59568" lon="6.75711">
        <ele>525</ele>
        <time>2016-12-04T10:08:08.999Z</time>
      </trkpt>
      <trkpt lat="47.59565" lon="6.75704">
        <ele>525</ele>
        <time>2016-12-04T10:08:09.999Z</time>
      </trkpt>
      <trkpt lat="47.59561" lon="6.75697">
        <ele>525</ele>
        <time>2016-12-04T10:08:10.999Z</time>
      </trkpt>
      <trkpt lat="47.59557" lon="6.75689">
        <ele>525</ele>
        <time>2016-12-04T10:08:11.999Z</time>
      </trkpt>
      <trkpt lat="47.59554" lon="6.75684">
        <ele>525</ele>
        <time>2016-12-04T10:08:12.999Z</time>
      </trkpt>
      <trkpt lat="47.59551" lon="6.75678">
        <ele>525</ele>
        <time>2016-12-04T10:08:13.999Z</time>
      </trkpt>
      <trkpt lat="47.59548" lon="6.75671">
        <ele>525</ele>
        <time>2016-12-04T10:08:14.999Z</time>
      </trkpt>
      <trkpt lat="47.59546" lon="6.75665">
        <ele>526</ele>
        <time>2016-12-04T10:08:15.999Z</time>
      </trkpt>
      <trkpt lat="47.59546" lon="6.75671">
        <ele>525</ele>
        <time>2016-12-04T10:08:25.999Z</time>
      </trkpt>
      <trkpt lat="47.59547" lon="6.75671">
        <ele>525</ele>
        <time>2016-12-04T10:08:26.999Z</time>
      </trkpt>
      <trkpt lat="47.59551" lon="6.75674">
        <ele>525</ele>
        <time>2016-12-04T10:08:30.999Z</time>
      </trkpt>
      <trkpt lat="47.59552" lon="6.75674">
        <ele>525</ele>
        <time>2016-12-04T10:08:31.999Z</time>
      </trkpt>
      <trkpt lat="47.59556" lon="6.75678">
        <ele>525</ele>
        <time>2016-12-04T10:08:35.999Z</time>
      </trkpt>
      <trkpt lat="47.59557" lon="6.75679">
        <ele>525</ele>
        <time>2016-12-04T10:08:36.999Z</time>
      </trkpt>
      <trkpt lat="47.5956" lon="6.75684">
        <ele>525</ele>
        <time>2016-12-04T10:08:39.999Z</time>
      </trkpt>
      <trkpt lat="47.59561" lon="6.75684">
        <ele>525</ele>
        <time>2016-12-04T10:08:40.999Z</time>
      </trkpt>
      <trkpt lat="47.59563" lon="6.75688">
        <ele>525</ele>
        <time>2016-12-04T10:08:47.999Z</time>
      </trkpt>
      <trkpt lat="47.59564" lon="6.75691">
        <ele>525</ele>
        <time>2016-12-04T10:08:48.999Z</time>
      </trkpt>
      <trkpt lat="47.59566" lon="6.75694">
        <ele>525</ele>
        <time>2016-12-04T10:08:49.999Z</time>
      </trkpt>
      <trkpt lat="47.59567" lon="6.75698">
        <ele>525</ele>
        <time>2016-12-04T10:08:50.999Z</time>
      </trkpt>
      <trkpt lat="47.59568" lon="6.75701">
        <ele>525</ele>
        <time>2016-12-04T10:08:51.999Z</time>
      </trkpt>
      <trkpt lat="47.5957" lon="6.75705">
        <ele>525</ele>
        <time>2016-12-04T10:08:52.999Z</time>
      </trkpt>
      <trkpt lat="47.59571" lon="6.75709">
        <ele>525</ele>
        <time>2016-12-04T10:08:53.999Z</time>
      </trkpt>
      <trkpt lat="47.59572" lon="6.75711">
        <ele>525</ele>
        <time>2016-12-04T10:08:54.999Z</time>
      </trkpt>
      <trkpt lat="47.59574" lon="6.75717">
        <ele>525</ele>
        <time>2016-12-04T10:08:56.999Z</time>
      </trkpt>
      <trkpt lat="47.59576" lon="6.7572">
        <ele>525</ele>
        <time>2016-12-04T10:08:57.999Z</time>
      </trkpt>
      <trkpt lat="47.59577" lon="6.75723">
        <ele>525</ele>
        <time>2016-12-04T10:08:58.999Z</time>
      </trkpt>
      <trkpt lat="47.59579" lon="6.75727">
        <ele>525</ele>
        <time>2016-12-04T10:08:59.999Z</time>
      </trkpt>
      <trkpt lat="47.59581" lon="6.75729">
        <ele>525</ele>
        <time>2016-12-04T10:09:00.999Z</time>
      </trkpt>
      <trkpt lat="47.59583" lon="6.75733">
        <ele>525</ele>
        <time>2016-12-04T10:09:01.999Z</time>
      </trkpt>
      <trkpt lat="47.59585" lon="6.75739">
        <ele>527</ele>
        <time>2016-12-04T10:09:03.999Z</time>
      </trkpt>
      <trkpt lat="47.59586" lon="6.75741">
        <ele>526</ele>
        <time>2016-12-04T10:09:04.999Z</time>
      </trkpt>
      <trkpt lat="47.59588" lon="6.75746">
        <ele>526</ele>
        <time>2016-12-04T10:09:06.999Z</time>
      </trkpt>
      <trkpt lat="47.5959" lon="6.75749">
        <ele>526</ele>
        <time>2016-12-04T10:09:07.999Z</time>
      </trkpt>
      <trkpt lat="47.59593" lon="6.75751">
        <ele>527</ele>
        <time>2016-12-04T10:09:09.999Z</time>
      </trkpt>
      <trkpt lat="47.59595" lon="6.7575">
        <ele>527</ele>
        <time>2016-12-04T10:09:10.999Z</time>
      </trkpt>
      <trkpt lat="47.59594" lon="6.75744">
        <ele>527</ele>
        <time>2016-12-04T10:09:12.999Z</time>
      </trkpt>
      <trkpt lat="47.59592" lon="6.75742">
        <ele>527</ele>
        <time>2016-12-04T10:09:13.999Z</time>
      </trkpt>
      <trkpt lat="47.59591" lon="6.75739">
        <ele>527</ele>
        <time>2016-12-04T10:09:14.999Z</time>
      </trkpt>
      <trkpt lat="47.59588" lon="6.75737">
        <ele>527</ele>
        <time>2016-12-04T10:09:15.999Z</time>
      </trkpt>
      <trkpt lat="47.59586" lon="6.75734">
        <ele>527</ele>
        <time>2016-12-04T10:09:16.999Z</time>
      </trkpt>
      <trkpt lat="47.59582" lon="6.7573">
        <ele>525</ele>
        <time>2016-12-04T10:09:17.999Z</time>
      </trkpt>
      <trkpt lat="47.59579" lon="6.75726">
        <ele>525</ele>
        <time>2016-12-04T10:09:18.999Z</time>
      </trkpt>
      <trkpt lat="47.59576" lon="6.75722">
        <ele>525</ele>
        <time>2016-12-04T10:09:19.999Z</time>
      </trkpt>
      <trkpt lat="47.59572" lon="6.75716">
        <ele>525</ele>
        <time>2016-12-04T10:09:20.999Z</time>
      </trkpt>
      <trkpt lat="47.59569" lon="6.7571">
        <ele>525</ele>
        <time>2016-12-04T10:09:21.999Z</time>
      </trkpt>
      <trkpt lat="47.59565" lon="6.75704">
        <ele>525</ele>
        <time>2016-12-04T10:09:22.999Z</time>
      </trkpt>
      <trkpt lat="47.59562" lon="6.75697">
        <ele>525</ele>
        <time>2016-12-04T10:09:23.999Z</time>
      </trkpt>
      <trkpt lat="47.59558" lon="6.7569">
        <ele>525</ele>
        <time>2016-12-04T10:09:24.999Z</time>
      </trkpt>
      <trkpt lat="47.59555" lon="6.75685">
        <ele>525</ele>
        <time>2016-12-04T10:09:25.999Z</time>
      </trkpt>
      <trkpt lat="47.59552" lon="6.75681">
        <ele>525</ele>
        <time>2016-12-04T10:09:26.999Z</time>
      </trkpt>
      <trkpt lat="47.59549" lon="6.75676">
        <ele>525</ele>
        <time>2016-12-04T10:09:27.999Z</time>
      </trkpt>
      <trkpt lat="47.59545" lon="6.7567">
        <ele>525</ele>
        <time>2016-12-04T10:09:28.999Z</time>
      </trkpt>
      <trkpt lat="47.59542" lon="6.75663">
        <ele>526</ele>
        <time>2016-12-04T10:09:29.999Z</time>
      </trkpt>
      <trkpt lat="47.59546" lon="6.75663">
        <ele>526</ele>
        <time>2016-12-04T10:09:37.999Z</time>
      </trkpt>
      <trkpt lat="47.59547" lon="6.75665">
        <ele>526</ele>
        <time>2016-12-04T10:09:38.999Z</time>
      </trkpt>
      <trkpt lat="47.59549" lon="6.75669">
        <ele>525</ele>
        <time>2016-12-04T10:09:41.999Z</time>
      </trkpt>
      <trkpt lat="47.5955" lon="6.75671">
        <ele>525</ele>
        <time>2016-12-04T10:09:42.999Z</time>
      </trkpt>
      <trkpt lat="47.59552" lon="6.75677">
        <ele>525</ele>
        <time>2016-12-04T10:09:47.999Z</time>
      </trkpt>
      <trkpt lat="47.59552" lon="6.75679">
        <ele>525</ele>
        <time>2016-12-04T10:09:48.999Z</time>
      </trkpt>
      <trkpt lat="47.59552" lon="6.75685">
        <ele>525</ele>
        <time>2016-12-04T10:10:07.999Z</time>
      </trkpt>
      <trkpt lat="47.59553" lon="6.75687">
        <ele>525</ele>
        <time>2016-12-04T10:10:08.999Z</time>
      </trkpt>
      <trkpt lat="47.59555" lon="6.75682">
        <ele>525</ele>
        <time>2016-12-04T10:10:20.999Z</time>
      </trkpt>
      <trkpt lat="47.59556" lon="6.75681">
        <ele>525</ele>
        <time>2016-12-04T10:10:21.999Z</time>
      </trkpt>
      <trkpt lat="47.5956" lon="6.75682">
        <ele>525</ele>
        <time>2016-12-04T10:10:43.999Z</time>
      </trkpt>
      <trkpt lat="47.5956" lon="6.75682">
        <ele>525</ele>
        <time>2016-12-04T10:10:44.999Z</time>
      </trkpt>
      <trkpt lat="47.59556" lon="6.75684">
        <ele>525</ele>
        <time>2016-12-04T10:11:00.999Z</time>
      </trkpt>
      <trkpt lat="47.59556" lon="6.75684">
        <ele>525</ele>
        <time>2016-12-04T10:11:01.999Z</time>
      </trkpt>
      <trkpt lat="47.59556" lon="6.75678">
        <ele>525</ele>
        <time>2016-12-04T10:11:13.000Z</time>
      </trkpt>
      <trkpt lat="47.59556" lon="6.75677">
        <ele>525</ele>
        <time>2016-12-04T10:11:13.999Z</time>
      </trkpt>
      <trkpt lat="47.59557" lon="6.75683">
        <ele>525</ele>
        <time>2016-12-04T10:11:35.000Z</time>
      </trkpt>
      <trkpt lat="47.59558" lon="6.75683">
        <ele>525</ele>
        <time>2016-12-04T10:11:36.000Z</time>
      </trkpt>
      <trkpt lat="47.59559" lon="6.75688">
        <ele>525</ele>
        <time>2016-12-04T10:11:41.000Z</time>
      </trkpt>
      <trkpt lat="47.59559" lon="6.7569">
        <ele>525</ele>
        <time>2016-12-04T10:11:42.000Z</time>
      </trkpt>
      <trkpt lat="47.59563" lon="6.75686">
        <ele>525</ele>
        <time>2016-12-04T10:12:06.000Z</time>
      </trkpt>
      <trkpt lat="47.59563" lon="6.75686">
        <ele>525</ele>
        <time>2016-12-04T10:12:07.000Z</time>
      </trkpt>
      <trkpt lat="47.59558" lon="6.75684">
        <ele>525</ele>
        <time>2016-12-04T10:12:14.000Z</time>
      </trkpt>
      <trkpt lat="47.59557" lon="6.75684">
        <ele>525</ele>
        <time>2016-12-04T10:12:15.000Z</time>
      </trkpt>
      <trkpt lat="47.59559" lon="6.75688">
        <ele>525</ele>
        <time>2016-12-04T10:13:13.000Z</time>
      </trkpt>
      <trkpt lat="47.59559" lon="6.75691">
        <ele>525</ele>
        <time>2016-12-04T10:13:14.000Z</time>
      </trkpt>
      <trkpt lat="47.59557" lon="6.75689">
        <ele>525</ele>
        <time>2016-12-04T10:14:01.000Z</time>
      </trkpt>
      <trkpt lat="47.59555" lon="6.75686">
        <ele>525</ele>
        <time>2016-12-04T10:14:02.000Z</time>
      </trkpt>
      <trkpt lat="47.59553" lon="6.75682">
        <ele>525</ele>
        <time>2016-12-04T10:14:04.000Z</time>
      </trkpt>
      <trkpt lat="47.59549" lon="6.75677">
        <ele>525</ele>
        <time>2016-12-04T10:14:05.000Z</time>
      </trkpt>
      <trkpt lat="47.59547" lon="6.75672">
        <ele>525</ele>
        <time>2016-12-04T10:14:06.000Z</time>
      </trkpt>
      <trkpt lat="47.59543" lon="6.75665">
        <ele>526</ele>
        <time>2016-12-04T10:14:07.000Z</time>
      </trkpt>
      <trkpt lat="47.59539" lon="6.75659">
        <ele>525</ele>
        <time>2016-12-04T10:14:08.000Z</time>
      </trkpt>
      <trkpt lat="47.59536" lon="6.75654">
        <ele>525</ele>
        <time>2016-12-04T10:14:09.000Z</time>
      </trkpt>
      <trkpt lat="47.59533" lon="6.75649">
        <ele>525</ele>
        <time>2016-12-04T10:14:10.000Z</time>
      </trkpt>
      <trkpt lat="47.5953" lon="6.75644">
        <ele>525</ele>
        <time>2016-12-04T10:14:11.000Z</time>
      </trkpt>
      <trkpt lat="47.59528" lon="6.75639">
        <ele>525</ele>
        <time>2016-12-04T10:14:12.000Z</time>
      </trkpt>
      <trkpt lat="47.59524" lon="6.75634">
        <ele>525</ele>
        <time>2016-12-04T10:14:13.000Z</time>
      </trkpt>
      <trkpt lat="47.59522" lon="6.75629">
        <ele>525</ele>
        <time>2016-12-04T10:14:14.000Z</time>
      </trkpt>
      <trkpt lat="47.59519" lon="6.75624">
        <ele>525</ele>
        <time>2016-12-04T10:14:15.000Z</time>
      </trkpt>
      <trkpt lat="47.59518" lon="6.75621">
        <ele>525</ele>
        <time>2016-12-04T10:14:16.000Z</time>
      </trkpt>
      <trkpt lat="47.59516" lon="6.75618">
        <ele>525</ele>
        <time>2016-12-04T10:14:17.000Z</time>
      </trkpt>
      <trkpt lat="47.59514" lon="6.75614">
        <ele>525</ele>
        <time>2016-12-04T10:14:18.000Z</time>
      </trkpt>
      <trkpt lat="47.59512" lon="6.7561">
        <ele>525</ele>
        <time>2016-12-04T10:14:19.000Z</time>
      </trkpt>
      <trkpt lat="47.5951" lon="6.75607">
        <ele>525</ele>
        <time>2016-12-04T10:14:20.000Z</time>
      </trkpt>
      <trkpt lat="47.59509" lon="6.75605">
        <ele>525</ele>
        <time>2016-12-04T10:14:21.000Z</time>
      </trkpt>
      <trkpt lat="47.59506" lon="6.756">
        <ele>525</ele>
        <time>2016-12-04T10:14:23.000Z</time>
      </trkpt>
      <trkpt lat="47.59504" lon="6.75599">
        <ele>525</ele>
        <time>2016-12-04T10:14:24.000Z</time>
      </trkpt>
      <trkpt lat="47.59501" lon="6.75596">
        <ele>525</ele>
        <time>2016-12-04T10:14:25.000Z</time>
      </trkpt>
      <trkpt lat="47.59498" lon="6.75592">
        <ele>523</ele>
        <time>2016-12-04T10:14:26.000Z</time>
      </trkpt>
      <trkpt lat="47.59495" lon="6.75587">
        <ele>523</ele>
        <time>2016-12-04T10:14:27.000Z</time>
      </trkpt>
      <trkpt lat="47.59492" lon="6.75583">
        <ele>524</ele>
        <time>2016-12-04T10:14:28.000Z</time>
      </trkpt>
      <trkpt lat="47.5949" lon="6.75578">
        <ele>523</ele>
        <time>2016-12-04T10:14:29.000Z</time>
      </trkpt>
      <trkpt lat="47.59487" lon="6.75575">
        <ele>523</ele>
        <time>2016-12-04T10:14:30.000Z</time>
      </trkpt>
      <trkpt lat="47.59483" lon="6.75575">
        <ele>523</ele>
        <time>2016-12-04T10:14:31.000Z</time>
      </trkpt>
      <trkpt lat="47.5948" lon="6.75572">
        <ele>522</ele>
        <time>2016-12-04T10:14:32.000Z</time>
      </trkpt>
      <trkpt lat="47.59479" lon="6.75568">
        <ele>522</ele>
        <time>2016-12-04T10:14:34.000Z</time>
      </trkpt>
      <trkpt lat="47.59477" lon="6.75565">
        <ele>522</ele>
        <time>2016-12-04T10:14:35.000Z</time>
      </trkpt>
      <trkpt lat="47.59474" lon="6.75563">
        <ele>522</ele>
        <time>2016-12-04T10:14:36.000Z</time>
      </trkpt>
      <trkpt lat="47.59471" lon="6.75561">
        <ele>522</ele>
        <time>2016-12-04T10:14:37.000Z</time>
      </trkpt>
      <trkpt lat="47.59468" lon="6.75556">
        <ele>521</ele>
        <time>2016-12-04T10:14:39.000Z</time>
      </trkpt>
      <trkpt lat="47.59467" lon="6.75555">
        <ele>521</ele>
        <time>2016-12-04T10:14:40.000Z</time>
      </trkpt>
      <trkpt lat="47.59467" lon="6.75551">
        <ele>521</ele>
        <time>2016-12-04T10:14:41.000Z</time>
      </trkpt>
      <trkpt lat="47.59466" lon="6.75548">
        <ele>521</ele>
        <time>2016-12-04T10:14:42.000Z</time>
      </trkpt>
      <trkpt lat="47.59465" lon="6.75543">
        <ele>521</ele>
        <time>2016-12-04T10:14:43.000Z</time>
      </trkpt>
      <trkpt lat="47.59464" lon="6.75538">
        <ele>521</ele>
        <time>2016-12-04T10:14:44.000Z</time>
      </trkpt>
      <trkpt lat="47.59463" lon="6.75534">
        <ele>521</ele>
        <time>2016-12-04T10:14:45.000Z</time>
      </trkpt>
      <trkpt lat="47.59462" lon="6.7553">
        <ele>521</ele>
        <time>2016-12-04T10:14:46.000Z</time>
      </trkpt>
      <trkpt lat="47.59461" lon="6.75525">
        <ele>521</ele>
        <time>2016-12-04T10:14:47.000Z</time>
      </trkpt>
      <trkpt lat="47.5946" lon="6.75522">
        <ele>521</ele>
        <time>2016-12-04T10:14:48.000Z</time>
      </trkpt>
      <trkpt lat="47.59459" lon="6.75519">
        <ele>521</ele>
        <time>2016-12-04T10:14:49.000Z</time>
      </trkpt>
      <trkpt lat="47.59458" lon="6.75515">
        <ele>521</ele>
        <time>2016-12-04T10:14:50.000Z</time>
      </trkpt>
      <trkpt lat="47.59456" lon="6.75511">
        <ele>521</ele>
        <time>2016-12-04T10:14:51.000Z</time>
      </trkpt>
      <trkpt lat="47.59455" lon="6.75506">
        <ele>521</ele>
        <time>2016-12-04T10:14:52.000Z</time>
      </trkpt>
      <trkpt lat="47.59455" lon="6.75502">
        <ele>521</ele>
        <time>2016-12-04T10:14:53.000Z</time>
      </trkpt>
      <trkpt lat="47.59454" lon="6.75498">
        <ele>520</ele>
        <time>2016-12-04T10:14:54.000Z</time>
      </trkpt>
      <trkpt lat="47.59454" lon="6.75495">
        <ele>520</ele>
        <time>2016-12-04T10:14:55.000Z</time>
      </trkpt>
      <trkpt lat="47.59455" lon="6.7549">
        <ele>520</ele>
        <time>2016-12-04T10:14:56.000Z</time>
      </trkpt>
      <trkpt lat="47.59456" lon="6.75485">
        <ele>520</ele>
        <time>2016-12-04T10:14:57.000Z</time>
      </trkpt>
      <trkpt lat="47.59457" lon="6.75479">
        <ele>520</ele>
        <time>2016-12-04T10:14:58.000Z</time>
      </trkpt>
      <trkpt lat="47.5946" lon="6.75474">
        <ele>520</ele>
        <time>2016-12-04T10:14:59.000Z</time>
      </trkpt>
      <trkpt lat="47.59462" lon="6.75469">
        <ele>519</ele>
        <time>2016-12-04T10:15:00.000Z</time>
      </trkpt>
      <trkpt lat="47.59464" lon="6.75465">
        <ele>519</ele>
        <time>2016-12-04T10:15:01.000Z</time>
      </trkpt>
      <trkpt lat="47.59465" lon="6.75463">
        <ele>519</ele>
        <time>2016-12-04T10:15:02.000Z</time>
      </trkpt>
      <trkpt lat="47.59466" lon="6.75458">
        <ele>519</ele>
        <time>2016-12-04T10:15:03.000Z</time>
      </trkpt>
      <trkpt lat="47.59467" lon="6.75455">
        <ele>519</ele>
        <time>2016-12-04T10:15:04.000Z</time>
      </trkpt>
      <trkpt lat="47.59467" lon="6.75449">
        <ele>519</ele>
        <time>2016-12-04T10:15:10.000Z</time>
      </trkpt>
      <trkpt lat="47.59467" lon="6.75449">
        <ele>519</ele>
        <time>2016-12-04T10:15:11.000Z</time>
      </trkpt>
      <trkpt lat="47.59463" lon="6.75446">
        <ele>519</ele>
        <time>2016-12-04T10:15:30.000Z</time>
      </trkpt>
      <trkpt lat="47.59463" lon="6.75445">
        <ele>519</ele>
        <time>2016-12-04T10:15:31.000Z</time>
      </trkpt>
      <trkpt lat="47.59462" lon="6.75439">
        <ele>518</ele>
        <time>2016-12-04T10:15:37.000Z</time>
      </trkpt>
      <trkpt lat="47.59462" lon="6.75436">
        <ele>518</ele>
        <time>2016-12-04T10:15:38.000Z</time>
      </trkpt>
      <trkpt lat="47.59461" lon="6.75432">
        <ele>518</ele>
        <time>2016-12-04T10:15:42.000Z</time>
      </trkpt>
      <trkpt lat="47.59459" lon="6.7543">
        <ele>518</ele>
        <time>2016-12-04T10:15:43.000Z</time>
      </trkpt>
      <trkpt lat="47.59454" lon="6.75427">
        <ele>518</ele>
        <time>2016-12-04T10:15:44.000Z</time>
      </trkpt>
      <trkpt lat="47.59449" lon="6.75424">
        <ele>518</ele>
        <time>2016-12-04T10:15:45.000Z</time>
      </trkpt>
      <trkpt lat="47.59445" lon="6.75421">
        <ele>518</ele>
        <time>2016-12-04T10:15:46.000Z</time>
      </trkpt>
      <trkpt lat="47.5944" lon="6.75416">
        <ele>512</ele>
        <time>2016-12-04T10:15:47.000Z</time>
      </trkpt>
      <trkpt lat="47.59435" lon="6.75411">
        <ele>512</ele>
        <time>2016-12-04T10:15:48.000Z</time>
      </trkpt>
      <trkpt lat="47.59432" lon="6.75407">
        <ele>513</ele>
        <time>2016-12-04T10:15:49.000Z</time>
      </trkpt>
      <trkpt lat="47.59428" lon="6.75404">
        <ele>513</ele>
        <time>2016-12-04T10:15:50.000Z</time>
      </trkpt>
      <trkpt lat="47.59424" lon="6.75402">
        <ele>513</ele>
        <time>2016-12-04T10:15:51.000Z</time>
      </trkpt>
      <trkpt lat="47.59421" lon="6.75402">
        <ele>513</ele>
        <time>2016-12-04T10:15:52.000Z</time>
      </trkpt>
      <trkpt lat="47.59417" lon="6.75397">
        <ele>512</ele>
        <time>2016-12-04T10:15:53.000Z</time>
      </trkpt>
      <trkpt lat="47.59413" lon="6.7539">
        <ele>513</ele>
        <time>2016-12-04T10:15:54.000Z</time>
      </trkpt>
      <trkpt lat="47.59409" lon="6.7538">
        <ele>512</ele>
        <time>2016-12-04T10:15:55.000Z</time>
      </trkpt>
      <trkpt lat="47.59406" lon="6.75373">
        <ele>512</ele>
        <time>2016-12-04T10:15:56.000Z</time>
      </trkpt>
      <trkpt lat="47.59402" lon="6.75366">
        <ele>511</ele>
        <time>2016-12-04T10:15:57.000Z</time>
      </trkpt>
      <trkpt lat="47.59398" lon="6.75358">
        <ele>510</ele>
        <time>2016-12-04T10:15:58.000Z</time>
      </trkpt>
      <trkpt lat="47.59396" lon="6.75356">
        <ele>510</ele>
        <time>2016-12-04T10:15:59.000Z</time>
      </trkpt>
      <trkpt lat="47.59394" lon="6.75354">
        <ele>510</ele>
        <time>2016-12-04T10:16:00.000Z</time>
      </trkpt>
      <trkpt lat="47.59392" lon="6.75351">
        <ele>510</ele>
        <time>2016-12-04T10:16:01.000Z</time>
      </trkpt>
      <trkpt lat="47.59387" lon="6.75349">
        <ele>510</ele>
        <time>2016-12-04T10:16:02.000Z</time>
      </trkpt>
      <trkpt lat="47.59383" lon="6.7535">
        <ele>511</ele>
        <time>2016-12-04T10:16:03.000Z</time>
      </trkpt>
      <trkpt lat="47.59381" lon="6.75352">
        <ele>511</ele>
        <time>2016-12-04T10:16:04.000Z</time>
      </trkpt>
      <trkpt lat="47.59378" lon="6.75353">
        <ele>511</ele>
        <time>2016-12-04T10:16:05.000Z</time>
      </trkpt>
      <trkpt lat="47.59375" lon="6.75356">
        <ele>511</ele>
        <time>2016-12-04T10:16:06.000Z</time>
      </trkpt>
      <trkpt lat="47.59371" lon="6.75358">
        <ele>511</ele>
        <time>2016-12-04T10:16:07.000Z</time>
      </trkpt>
      <trkpt lat="47.59368" lon="6.75361">
        <ele>511</ele>
        <time>2016-12-04T10:16:08.000Z</time>
      </trkpt>
      <trkpt lat="47.59364" lon="6.75363">
        <ele>511</ele>
        <time>2016-12-04T10:16:09.000Z</time>
      </trkpt>
      <trkpt lat="47.59361" lon="6.75367">
        <ele>511</ele>
        <time>2016-12-04T10:16:10.000Z</time>
      </trkpt>
      <trkpt lat="47.59359" lon="6.75372">
        <ele>512</ele>
        <time>2016-12-04T10:16:12.000Z</time>
      </trkpt>
      <trkpt lat="47.5936" lon="6.75374">
        <ele>512</ele>
        <time>2016-12-04T10:16:13.000Z</time>
      </trkpt>
      <trkpt lat="47.5936" lon="6.75378">
        <ele>512</ele>
        <time>2016-12-04T10:16:15.000Z</time>
      </trkpt>
      <trkpt lat="47.5936" lon="6.75382">
        <ele>512</ele>
        <time>2016-12-04T10:16:16.000Z</time>
      </trkpt>
      <trkpt lat="47.59361" lon="6.75386">
        <ele>512</ele>
        <time>2016-12-04T10:16:17.000Z</time>
      </trkpt>
      <trkpt lat="47.59361" lon="6.75393">
        <ele>512</ele>
        <time>2016-12-04T10:16:18.000Z</time>
      </trkpt>
      <trkpt lat="47.59359" lon="6.75394">
        <ele>512</ele>
        <time>2016-12-04T10:16:19.000Z</time>
      </trkpt>
      <trkpt lat="47.59355" lon="6.75396">
        <ele>512</ele>
        <time>2016-12-04T10:16:20.000Z</time>
      </trkpt>
      <trkpt lat="47.59352" lon="6.75401">
        <ele>512</ele>
        <time>2016-12-04T10:16:42.000Z</time>
      </trkpt>
      <trkpt lat="47.5935" lon="6.75402">
        <ele>513</ele>
        <time>2016-12-04T10:16:43.000Z</time>
      </trkpt>
      <trkpt lat="47.59348" lon="6.75406">
        <ele>513</ele>
        <time>2016-12-04T10:16:44.000Z</time>
      </trkpt>
      <trkpt lat="47.59345" lon="6.75409">
        <ele>513</ele>
        <time>2016-12-04T10:16:45.000Z</time>
      </trkpt>
      <trkpt lat="47.59342" lon="6.75413">
        <ele>513</ele>
        <time>2016-12-04T10:16:46.000Z</time>
      </trkpt>
      <trkpt lat="47.5934" lon="6.75416">
        <ele>513</ele>
        <time>2016-12-04T10:16:47.000Z</time>
      </trkpt>
      <trkpt lat="47.59338" lon="6.75419">
        <ele>513</ele>
        <time>2016-12-04T10:16:48.000Z</time>
      </trkpt>
      <trkpt lat="47.59336" lon="6.75423">
        <ele>513</ele>
        <time>2016-12-04T10:16:49.000Z</time>
      </trkpt>
      <trkpt lat="47.59335" lon="6.75428">
        <ele>514</ele>
        <time>2016-12-04T10:16:50.000Z</time>
      </trkpt>
      <trkpt lat="47.59333" lon="6.75433">
        <ele>510</ele>
        <time>2016-12-04T10:16:51.000Z</time>
      </trkpt>
      <trkpt lat="47.5933" lon="6.75434">
        <ele>510</ele>
        <time>2016-12-04T10:16:52.000Z</time>
      </trkpt>
      <trkpt lat="47.59328" lon="6.75432">
        <ele>510</ele>
        <time>2016-12-04T10:16:53.000Z</time>
      </trkpt>
      <trkpt lat="47.59326" lon="6.75429">
        <ele>511</ele>
        <time>2016-12-04T10:16:54.000Z</time>
      </trkpt>
      <trkpt lat="47.59325" lon="6.75426">
        <ele>511</ele>
        <time>2016-12-04T10:16:55.000Z</time>
      </trkpt>
      <trkpt lat="47.59324" lon="6.75422">
        <ele>511</ele>
        <time>2016-12-04T10:16:56.000Z</time>
      </trkpt>
      <trkpt lat="47.59323" lon="6.75417">
        <ele>511</ele>
        <time>2016-12-04T10:16:57.000Z</time>
      </trkpt>
      <trkpt lat="47.59322" lon="6.75413">
        <ele>511</ele>
        <time>2016-12-04T10:16:58.000Z</time>
      </trkpt>
      <trkpt lat="47.59321" lon="6.75409">
        <ele>511</ele>
        <time>2016-12-04T10:16:59.000Z</time>
      </trkpt>
      <trkpt lat="47.5932" lon="6.75406">
        <ele>510</ele>
        <time>2016-12-04T10:17:00.000Z</time>
      </trkpt>
      <trkpt lat="47.59319" lon="6.75402">
        <ele>510</ele>
        <time>2016-12-04T10:17:01.000Z</time>
      </trkpt>
      <trkpt lat="47.59317" lon="6.75398">
        <ele>510</ele>
        <time>2016-12-04T10:17:02.000Z</time>
      </trkpt>
      <trkpt lat="47.59316" lon="6.75393">
        <ele>509</ele>
        <time>2016-12-04T10:17:03.000Z</time>
      </trkpt>
      <trkpt lat="47.59315" lon="6.75389">
        <ele>509</ele>
        <time>2016-12-04T10:17:04.000Z</time>
      </trkpt>
      <trkpt lat="47.59314" lon="6.75384">
        <ele>509</ele>
        <time>2016-12-04T10:17:05.000Z</time>
      </trkpt>
      <trkpt lat="47.59313" lon="6.7538">
        <ele>509</ele>
        <time>2016-12-04T10:17:07.000Z</time>
      </trkpt>
      <trkpt lat="47.59312" lon="6.75377">
        <ele>508</ele>
        <time>2016-12-04T10:17:08.000Z</time>
      </trkpt>
      <trkpt lat="47.59311" lon="6.75374">
        <ele>508</ele>
        <time>2016-12-04T10:17:09.000Z</time>
      </trkpt>
      <trkpt lat="47.59309" lon="6.75372">
        <ele>508</ele>
        <time>2016-12-04T10:17:10.000Z</time>
      </trkpt>
      <trkpt lat="47.59305" lon="6.75369">
        <ele>508</ele>
        <time>2016-12-04T10:17:11.000Z</time>
      </trkpt>
      <trkpt lat="47.59301" lon="6.75369">
        <ele>508</ele>
        <time>2016-12-04T10:17:12.000Z</time>
      </trkpt>
      <trkpt lat="47.59296" lon="6.7537">
        <ele>508</ele>
        <time>2016-12-04T10:17:13.000Z</time>
      </trkpt>
      <trkpt lat="47.59292" lon="6.75371">
        <ele>507</ele>
        <time>2016-12-04T10:17:14.000Z</time>
      </trkpt>
      <trkpt lat="47.59288" lon="6.75372">
        <ele>507</ele>
        <time>2016-12-04T10:17:15.000Z</time>
      </trkpt>
      <trkpt lat="47.59286" lon="6.7537">
        <ele>507</ele>
        <time>2016-12-04T10:17:16.000Z</time>
      </trkpt>
      <trkpt lat="47.59284" lon="6.75366">
        <ele>507</ele>
        <time>2016-12-04T10:17:17.000Z</time>
      </trkpt>
      <trkpt lat="47.59282" lon="6.75361">
        <ele>507</ele>
        <time>2016-12-04T10:17:18.000Z</time>
      </trkpt>
      <trkpt lat="47.59279" lon="6.75357">
        <ele>507</ele>
        <time>2016-12-04T10:17:19.000Z</time>
      </trkpt>
      <trkpt lat="47.59277" lon="6.75351">
        <ele>506</ele>
        <time>2016-12-04T10:17:20.000Z</time>
      </trkpt>
      <trkpt lat="47.59275" lon="6.75345">
        <ele>506</ele>
        <time>2016-12-04T10:17:21.000Z</time>
      </trkpt>
      <trkpt lat="47.59272" lon="6.75341">
        <ele>506</ele>
        <time>2016-12-04T10:17:22.000Z</time>
      </trkpt>
      <trkpt lat="47.59268" lon="6.75337">
        <ele>505</ele>
        <time>2016-12-04T10:17:23.000Z</time>
      </trkpt>
      <trkpt lat="47.59263" lon="6.75336">
        <ele>505</ele>
        <time>2016-12-04T10:17:24.000Z</time>
      </trkpt>
      <trkpt lat="47.59258" lon="6.75334">
        <ele>504</ele>
        <time>2016-12-04T10:17:25.000Z</time>
      </trkpt>
      <trkpt lat="47.59254" lon="6.75331">
        <ele>503</ele>
        <time>2016-12-04T10:17:26.000Z</time>
      </trkpt>
      <trkpt lat="47.59251" lon="6.75329">
        <ele>503</ele>
        <time>2016-12-04T10:17:27.000Z</time>
      </trkpt>
      <trkpt lat="47.59247" lon="6.75328">
        <ele>501</ele>
        <time>2016-12-04T10:17:28.000Z</time>
      </trkpt>
      <trkpt lat="47.59243" lon="6.75326">
        <ele>500</ele>
        <time>2016-12-04T10:17:29.000Z</time>
      </trkpt>
      <trkpt lat="47.59239" lon="6.75322">
        <ele>499</ele>
        <time>2016-12-04T10:17:30.000Z</time>
      </trkpt>
      <trkpt lat="47.59236" lon="6.75319">
        <ele>498</ele>
        <time>2016-12-04T10:17:31.000Z</time>
      </trkpt>
      <trkpt lat="47.59233" lon="6.75315">
        <ele>497</ele>
        <time>2016-12-04T10:17:32.000Z</time>
      </trkpt>
      <trkpt lat="47.59229" lon="6.75312">
        <ele>496</ele>
        <time>2016-12-04T10:17:33.000Z</time>
      </trkpt>
      <trkpt lat="47.59224" lon="6.75308">
        <ele>496</ele>
        <time>2016-12-04T10:17:34.000Z</time>
      </trkpt>
      <trkpt lat="47.59219" lon="6.75304">
        <ele>495</ele>
        <time>2016-12-04T10:17:35.000Z</time>
      </trkpt>
      <trkpt lat="47.59215" lon="6.75299">
        <ele>495</ele>
        <time>2016-12-04T10:17:36.000Z</time>
      </trkpt>
      <trkpt lat="47.59211" lon="6.75296">
        <ele>494</ele>
        <time>2016-12-04T10:17:37.000Z</time>
      </trkpt>
      <trkpt lat="47.59208" lon="6.75295">
        <ele>494</ele>
        <time>2016-12-04T10:17:38.000Z</time>
      </trkpt>
      <trkpt lat="47.59204" lon="6.75291">
        <ele>494</ele>
        <time>2016-12-04T10:17:39.000Z</time>
      </trkpt>
      <trkpt lat="47.59201" lon="6.75286">
        <ele>493</ele>
        <time>2016-12-04T10:17:40.000Z</time>
      </trkpt>
      <trkpt lat="47.59198" lon="6.75281">
        <ele>493</ele>
        <time>2016-12-04T10:17:41.000Z</time>
      </trkpt>
      <trkpt lat="47.59194" lon="6.75277">
        <ele>493</ele>
        <time>2016-12-04T10:17:42.000Z</time>
      </trkpt>
      <trkpt lat="47.59189" lon="6.75274">
        <ele>492</ele>
        <time>2016-12-04T10:17:43.000Z</time>
      </trkpt>
      <trkpt lat="47.59186" lon="6.75276">
        <ele>492</ele>
        <time>2016-12-04T10:17:44.000Z</time>
      </trkpt>
      <trkpt lat="47.59183" lon="6.75277">
        <ele>492</ele>
        <time>2016-12-04T10:17:45.000Z</time>
      </trkpt>
      <trkpt lat="47.59179" lon="6.75279">
        <ele>492</ele>
        <time>2016-12-04T10:17:46.000Z</time>
      </trkpt>
      <trkpt lat="47.59174" lon="6.75282">
        <ele>492</ele>
        <time>2016-12-04T10:17:47.000Z</time>
      </trkpt>
      <trkpt lat="47.59169" lon="6.75286">
        <ele>492</ele>
        <time>2016-12-04T10:17:48.000Z</time>
      </trkpt>
      <trkpt lat="47.59163" lon="6.75287">
        <ele>485</ele>
        <time>2016-12-04T10:17:49.000Z</time>
      </trkpt>
      <trkpt lat="47.5916" lon="6.75292">
        <ele>485</ele>
        <time>2016-12-04T10:17:50.000Z</time>
      </trkpt>
      <trkpt lat="47.59157" lon="6.75289">
        <ele>485</ele>
        <time>2016-12-04T10:17:51.000Z</time>
      </trkpt>
      <trkpt lat="47.59153" lon="6.75287">
        <ele>484</ele>
        <time>2016-12-04T10:17:52.000Z</time>
      </trkpt>
      <trkpt lat="47.59149" lon="6.75287">
        <ele>484</ele>
        <time>2016-12-04T10:17:53.000Z</time>
      </trkpt>
      <trkpt lat="47.59145" lon="6.75286">
        <ele>484</ele>
        <time>2016-12-04T10:17:54.000Z</time>
      </trkpt>
      <trkpt lat="47.59142" lon="6.75283">
        <ele>484</ele>
        <time>2016-12-04T10:17:55.000Z</time>
      </trkpt>
      <trkpt lat="47.5914" lon="6.75282">
        <ele>483</ele>
        <time>2016-12-04T10:17:56.000Z</time>
      </trkpt>
      <trkpt lat="47.59137" lon="6.75281">
        <ele>483</ele>
        <time>2016-12-04T10:17:57.000Z</time>
      </trkpt>
      <trkpt lat="47.59135" lon="6.75279">
        <ele>483</ele>
        <time>2016-12-04T10:17:58.000Z</time>
      </trkpt>
      <trkpt lat="47.59132" lon="6.75276">
        <ele>483</ele>
        <time>2016-12-04T10:17:59.000Z</time>
      </trkpt>
      <trkpt lat="47.59128" lon="6.75272">
        <ele>483</ele>
        <time>2016-12-04T10:18:00.000Z</time>
      </trkpt>
      <trkpt lat="47.59125" lon="6.75268">
        <ele>482</ele>
        <time>2016-12-04T10:18:01.000Z</time>
      </trkpt>
      <trkpt lat="47.59122" lon="6.75265">
        <ele>482</ele>
        <time>2016-12-04T10:18:02.000Z</time>
      </trkpt>
      <trkpt lat="47.59119" lon="6.7526">
        <ele>482</ele>
        <time>2016-12-04T10:18:03.000Z</time>
      </trkpt>
      <trkpt lat="47.59116" lon="6.75256">
        <ele>481</ele>
        <time>2016-12-04T10:18:04.000Z</time>
      </trkpt>
      <trkpt lat="47.59113" lon="6.75254">
        <ele>481</ele>
        <time>2016-12-04T10:18:05.000Z</time>
      </trkpt>
      <trkpt lat="47.59109" lon="6.75249">
        <ele>478</ele>
        <time>2016-12-04T10:18:06.000Z</time>
      </trkpt>
      <trkpt lat="47.59105" lon="6.75244">
        <ele>477</ele>
        <time>2016-12-04T10:18:07.000Z</time>
      </trkpt>
      <trkpt lat="47.59102" lon="6.75239">
        <ele>477</ele>
        <time>2016-12-04T10:18:08.000Z</time>
      </trkpt>
      <trkpt lat="47.59096" lon="6.75236">
        <ele>477</ele>
        <time>2016-12-04T10:18:09.000Z</time>
      </trkpt>
      <trkpt lat="47.5909" lon="6.75233">
        <ele>477</ele>
        <time>2016-12-04T10:18:10.000Z</time>
      </trkpt>
      <trkpt lat="47.59088" lon="6.75227">
        <ele>477</ele>
        <time>2016-12-04T10:18:11.000Z</time>
      </trkpt>
      <trkpt lat="47.59085" lon="6.75222">
        <ele>477</ele>
        <time>2016-12-04T10:18:12.000Z</time>
      </trkpt>
      <trkpt lat="47.59082" lon="6.75218">
        <ele>470</ele>
        <time>2016-12-04T10:18:13.000Z</time>
      </trkpt>
      <trkpt lat="47.59079" lon="6.75213">
        <ele>470</ele>
        <time>2016-12-04T10:18:14.000Z</time>
      </trkpt>
      <trkpt lat="47.59078" lon="6.7521">
        <ele>470</ele>
        <time>2016-12-04T10:18:15.000Z</time>
      </trkpt>
      <trkpt lat="47.59075" lon="6.75208">
        <ele>470</ele>
        <time>2016-12-04T10:18:16.000Z</time>
      </trkpt>
      <trkpt lat="47.59071" lon="6.75202">
        <ele>469</ele>
        <time>2016-12-04T10:18:17.000Z</time>
      </trkpt>
      <trkpt lat="47.59066" lon="6.75196">
        <ele>469</ele>
        <time>2016-12-04T10:18:18.000Z</time>
      </trkpt>
      <trkpt lat="47.59064" lon="6.75191">
        <ele>469</ele>
        <time>2016-12-04T10:18:19.000Z</time>
      </trkpt>
      <trkpt lat="47.59062" lon="6.75183">
        <ele>469</ele>
        <time>2016-12-04T10:18:20.000Z</time>
      </trkpt>
      <trkpt lat="47.59062" lon="6.75175">
        <ele>469</ele>
        <time>2016-12-04T10:18:21.000Z</time>
      </trkpt>
      <trkpt lat="47.59062" lon="6.75167">
        <ele>469</ele>
        <time>2016-12-04T10:18:22.000Z</time>
      </trkpt>
      <trkpt lat="47.5906" lon="6.75158">
        <ele>465</ele>
        <time>2016-12-04T10:18:23.000Z</time>
      </trkpt>
      <trkpt lat="47.59059" lon="6.7515">
        <ele>465</ele>
        <time>2016-12-04T10:18:24.000Z</time>
      </trkpt>
      <trkpt lat="47.59058" lon="6.75143">
        <ele>464</ele>
        <time>2016-12-04T10:18:25.000Z</time>
      </trkpt>
      <trkpt lat="47.59057" lon="6.75137">
        <ele>463</ele>
        <time>2016-12-04T10:18:26.000Z</time>
      </trkpt>
      <trkpt lat="47.59056" lon="6.75135">
        <ele>463</ele>
        <time>2016-12-04T10:18:27.000Z</time>
      </trkpt>
      <trkpt lat="47.59054" lon="6.75133">
        <ele>463</ele>
        <time>2016-12-04T10:18:29.000Z</time>
      </trkpt>
      <trkpt lat="47.59051" lon="6.75131">
        <ele>463</ele>
        <time>2016-12-04T10:18:30.000Z</time>
      </trkpt>
      <trkpt lat="47.5905" lon="6.75128">
        <ele>462</ele>
        <time>2016-12-04T10:18:31.000Z</time>
      </trkpt>
      <trkpt lat="47.59048" lon="6.75125">
        <ele>462</ele>
        <time>2016-12-04T10:18:32.000Z</time>
      </trkpt>
      <trkpt lat="47.59046" lon="6.75121">
        <ele>462</ele>
        <time>2016-12-04T10:18:33.000Z</time>
      </trkpt>
      <trkpt lat="47.59044" lon="6.75119">
        <ele>461</ele>
        <time>2016-12-04T10:18:34.000Z</time>
      </trkpt>
      <trkpt lat="47.59041" lon="6.75123">
        <ele>462</ele>
        <time>2016-12-04T10:18:36.000Z</time>
      </trkpt>
      <trkpt lat="47.5904" lon="6.75124">
        <ele>462</ele>
        <time>2016-12-04T10:18:37.000Z</time>
      </trkpt>
      <trkpt lat="47.59037" lon="6.75129">
        <ele>462</ele>
        <time>2016-12-04T10:18:38.000Z</time>
      </trkpt>
      <trkpt lat="47.59034" lon="6.75133">
        <ele>462</ele>
        <time>2016-12-04T10:18:39.000Z</time>
      </trkpt>
      <trkpt lat="47.5903" lon="6.75135">
        <ele>462</ele>
        <time>2016-12-04T10:18:40.000Z</time>
      </trkpt>
      <trkpt lat="47.59024" lon="6.75133">
        <ele>461</ele>
        <time>2016-12-04T10:18:41.000Z</time>
      </trkpt>
      <trkpt lat="47.59019" lon="6.7513">
        <ele>461</ele>
        <time>2016-12-04T10:18:42.000Z</time>
      </trkpt>
      <trkpt lat="47.59014" lon="6.75125">
        <ele>461</ele>
        <time>2016-12-04T10:18:43.000Z</time>
      </trkpt>
      <trkpt lat="47.59009" lon="6.75121">
        <ele>460</ele>
        <time>2016-12-04T10:18:44.000Z</time>
      </trkpt>
      <trkpt lat="47.59008" lon="6.75121">
        <ele>460</ele>
        <time>2016-12-04T10:18:45.000Z</time>
      </trkpt>
      <trkpt lat="47.59005" lon="6.75123">
        <ele>460</ele>
        <time>2016-12-04T10:18:46.000Z</time>
      </trkpt>
      <trkpt lat="47.59001" lon="6.75124">
        <ele>460</ele>
        <time>2016-12-04T10:18:47.000Z</time>
      </trkpt>
      <trkpt lat="47.58996" lon="6.75121">
        <ele>454</ele>
        <time>2016-12-04T10:18:48.000Z</time>
      </trkpt>
      <trkpt lat="47.5899" lon="6.75119">
        <ele>454</ele>
        <time>2016-12-04T10:18:49.000Z</time>
      </trkpt>
      <trkpt lat="47.58987" lon="6.75114">
        <ele>454</ele>
        <time>2016-12-04T10:18:50.000Z</time>
      </trkpt>
      <trkpt lat="47.58985" lon="6.75107">
        <ele>454</ele>
        <time>2016-12-04T10:18:51.000Z</time>
      </trkpt>
      <trkpt lat="47.58984" lon="6.75101">
        <ele>454</ele>
        <time>2016-12-04T10:18:52.000Z</time>
      </trkpt>
      <trkpt lat="47.58981" lon="6.75097">
        <ele>454</ele>
        <time>2016-12-04T10:18:53.000Z</time>
      </trkpt>
      <trkpt lat="47.58977" lon="6.75093">
        <ele>453</ele>
        <time>2016-12-04T10:18:54.000Z</time>
      </trkpt>
      <trkpt lat="47.58973" lon="6.75089">
        <ele>453</ele>
        <time>2016-12-04T10:18:55.000Z</time>
      </trkpt>
      <trkpt lat="47.5897" lon="6.75083">
        <ele>449</ele>
        <time>2016-12-04T10:18:56.000Z</time>
      </trkpt>
      <trkpt lat="47.58966" lon="6.75076">
        <ele>448</ele>
        <time>2016-12-04T10:18:57.000Z</time>
      </trkpt>
      <trkpt lat="47.58963" lon="6.75071">
        <ele>447</ele>
        <time>2016-12-04T10:18:58.000Z</time>
      </trkpt>
      <trkpt lat="47.5896" lon="6.75068">
        <ele>447</ele>
        <time>2016-12-04T10:18:59.000Z</time>
      </trkpt>
      <trkpt lat="47.58956" lon="6.75067">
        <ele>447</ele>
        <time>2016-12-04T10:19:00.000Z</time>
      </trkpt>
      <trkpt lat="47.58952" lon="6.75068">
        <ele>447</ele>
        <time>2016-12-04T10:19:01.000Z</time>
      </trkpt>
      <trkpt lat="47.58949" lon="6.75067">
        <ele>446</ele>
        <time>2016-12-04T10:19:02.000Z</time>
      </trkpt>
      <trkpt lat="47.58944" lon="6.75063">
        <ele>446</ele>
        <time>2016-12-04T10:19:03.000Z</time>
      </trkpt>
      <trkpt lat="47.58939" lon="6.75062">
        <ele>446</ele>
        <time>2016-12-04T10:19:04.000Z</time>
      </trkpt>
      <trkpt lat="47.58937" lon="6.75063">
        <ele>446</ele>
        <time>2016-12-04T10:19:05.000Z</time>
      </trkpt>
      <trkpt lat="47.58934" lon="6.75064">
        <ele>446</ele>
        <time>2016-12-04T10:19:06.000Z</time>
      </trkpt>
      <trkpt lat="47.58931" lon="6.75062">
        <ele>445</ele>
        <time>2016-12-04T10:19:07.000Z</time>
      </trkpt>
      <trkpt lat="47.58928" lon="6.75061">
        <ele>445</ele>
        <time>2016-12-04T10:19:08.000Z</time>
      </trkpt>
      <trkpt lat="47.58926" lon="6.75057">
        <ele>445</ele>
        <time>2016-12-04T10:19:10.000Z</time>
      </trkpt>
      <trkpt lat="47.58923" lon="6.75052">
        <ele>445</ele>
        <time>2016-12-04T10:19:11.000Z</time>
      </trkpt>
      <trkpt lat="47.58919" lon="6.75048">
        <ele>445</ele>
        <time>2016-12-04T10:19:17.000Z</time>
      </trkpt>
      <trkpt lat="47.58918" lon="6.75049">
        <ele>445</ele>
        <time>2016-12-04T10:19:18.000Z</time>
      </trkpt>
      <trkpt lat="47.58914" lon="6.75046">
        <ele>440</ele>
        <time>2016-12-04T10:19:26.000Z</time>
      </trkpt>
      <trkpt lat="47.58913" lon="6.75046">
        <ele>440</ele>
        <time>2016-12-04T10:19:27.000Z</time>
      </trkpt>
      <trkpt lat="47.58911" lon="6.75041">
        <ele>440</ele>
        <time>2016-12-04T10:20:57.000Z</time>
      </trkpt>
      <trkpt lat="47.58909" lon="6.75038">
        <ele>440</ele>
        <time>2016-12-04T10:20:58.000Z</time>
      </trkpt>
      <trkpt lat="47.58905" lon="6.75034">
        <ele>440</ele>
        <time>2016-12-04T10:20:59.000Z</time>
      </trkpt>
      <trkpt lat="47.58902" lon="6.7503">
        <ele>439</ele>
        <time>2016-12-04T10:21:00.000Z</time>
      </trkpt>
      <trkpt lat="47.58897" lon="6.75022">
        <ele>439</ele>
        <time>2016-12-04T10:21:01.000Z</time>
      </trkpt>
      <trkpt lat="47.58891" lon="6.75015">
        <ele>439</ele>
        <time>2016-12-04T10:21:02.000Z</time>
      </trkpt>
      <trkpt lat="47.58886" lon="6.75011">
        <ele>439</ele>
        <time>2016-12-04T10:21:03.000Z</time>
      </trkpt>
      <trkpt lat="47.58882" lon="6.75008">
        <ele>438</ele>
        <time>2016-12-04T10:21:04.000Z</time>
      </trkpt>
      <trkpt lat="47.58877" lon="6.75007">
        <ele>438</ele>
        <time>2016-12-04T10:21:05.000Z</time>
      </trkpt>
      <trkpt lat="47.58871" lon="6.75008">
        <ele>438</ele>
        <time>2016-12-04T10:21:06.000Z</time>
      </trkpt>
      <trkpt lat="47.58866" lon="6.7501">
        <ele>437</ele>
        <time>2016-12-04T10:21:07.000Z</time>
      </trkpt>
      <trkpt lat="47.58861" lon="6.75012">
        <ele>437</ele>
        <time>2016-12-04T10:21:08.000Z</time>
      </trkpt>
      <trkpt lat="47.58858" lon="6.75012">
        <ele>437</ele>
        <time>2016-12-04T10:21:09.000Z</time>
      </trkpt>
      <trkpt lat="47.58855" lon="6.75011">
        <ele>437</ele>
        <time>2016-12-04T10:21:10.000Z</time>
      </trkpt>
      <trkpt lat="47.58852" lon="6.75007">
        <ele>436</ele>
        <time>2016-12-04T10:21:11.000Z</time>
      </trkpt>
      <trkpt lat="47.58845" lon="6.75006">
        <ele>436</ele>
        <time>2016-12-04T10:21:12.000Z</time>
      </trkpt>
      <trkpt lat="47.58841" lon="6.75004">
        <ele>435</ele>
        <time>2016-12-04T10:21:13.000Z</time>
      </trkpt>
      <trkpt lat="47.58836" lon="6.74999">
        <ele>434</ele>
        <time>2016-12-04T10:21:14.000Z</time>
      </trkpt>
      <trkpt lat="47.5883" lon="6.74993">
        <ele>431</ele>
        <time>2016-12-04T10:21:15.000Z</time>
      </trkpt>
      <trkpt lat="47.58825" lon="6.7499">
        <ele>430</ele>
        <time>2016-12-04T10:21:16.000Z</time>
      </trkpt>
      <trkpt lat="47.58823" lon="6.74987">
        <ele>429</ele>
        <time>2016-12-04T10:21:17.000Z</time>
      </trkpt>
      <trkpt lat="47.58821" lon="6.74986">
        <ele>428</ele>
        <time>2016-12-04T10:21:18.000Z</time>
      </trkpt>
      <trkpt lat="47.58817" lon="6.74983">
        <ele>427</ele>
        <time>2016-12-04T10:21:19.000Z</time>
      </trkpt>
      <trkpt lat="47.58813" lon="6.7498">
        <ele>426</ele>
        <time>2016-12-04T10:21:20.000Z</time>
      </trkpt>
      <trkpt lat="47.58808" lon="6.74975">
        <ele>426</ele>
        <time>2016-12-04T10:21:21.000Z</time>
      </trkpt>
      <trkpt lat="47.58803" lon="6.74974">
        <ele>425</ele>
        <time>2016-12-04T10:21:22.000Z</time>
      </trkpt>
      <trkpt lat="47.58798" lon="6.74972">
        <ele>424</ele>
        <time>2016-12-04T10:21:23.000Z</time>
      </trkpt>
      <trkpt lat="47.58793" lon="6.7497">
        <ele>424</ele>
        <time>2016-12-04T10:21:24.000Z</time>
      </trkpt>
      <trkpt lat="47.58786" lon="6.74969">
        <ele>423</ele>
        <time>2016-12-04T10:21:25.000Z</time>
      </trkpt>
      <trkpt lat="47.58782" lon="6.74968">
        <ele>423</ele>
        <time>2016-12-04T10:21:26.000Z</time>
      </trkpt>
      <trkpt lat="47.58774" lon="6.74965">
        <ele>422</ele>
        <time>2016-12-04T10:21:27.000Z</time>
      </trkpt>
      <trkpt lat="47.58769" lon="6.7496">
        <ele>422</ele>
        <time>2016-12-04T10:21:28.000Z</time>
      </trkpt>
      <trkpt lat="47.58765" lon="6.74954">
        <ele>421</ele>
        <time>2016-12-04T10:21:29.000Z</time>
      </trkpt>
      <trkpt lat="47.58761" lon="6.74949">
        <ele>421</ele>
        <time>2016-12-04T10:21:30.000Z</time>
      </trkpt>
      <trkpt lat="47.58759" lon="6.74942">
        <ele>420</ele>
        <time>2016-12-04T10:21:31.000Z</time>
      </trkpt>
      <trkpt lat="47.58757" lon="6.74934">
        <ele>419</ele>
        <time>2016-12-04T10:21:32.000Z</time>
      </trkpt>
      <trkpt lat="47.58758" lon="6.74929">
        <ele>418</ele>
        <time>2016-12-04T10:21:33.000Z</time>
      </trkpt>
      <trkpt lat="47.58759" lon="6.74924">
        <ele>417</ele>
        <time>2016-12-04T10:21:34.000Z</time>
      </trkpt>
      <trkpt lat="47.58758" lon="6.74918">
        <ele>417</ele>
        <time>2016-12-04T10:21:38.000Z</time>
      </trkpt>
      <trkpt lat="47.58757" lon="6.74916">
        <ele>414</ele>
        <time>2016-12-04T10:21:39.000Z</time>
      </trkpt>
      <trkpt lat="47.58755" lon="6.74908">
        <ele>414</ele>
        <time>2016-12-04T10:21:40.000Z</time>
      </trkpt>
      <trkpt lat="47.58753" lon="6.74903">
        <ele>414</ele>
        <time>2016-12-04T10:21:41.000Z</time>
      </trkpt>
      <trkpt lat="47.58752" lon="6.74896">
        <ele>414</ele>
        <time>2016-12-04T10:21:42.000Z</time>
      </trkpt>
      <trkpt lat="47.58751" lon="6.74891">
        <ele>414</ele>
        <time>2016-12-04T10:21:43.000Z</time>
      </trkpt>
      <trkpt lat="47.58751" lon="6.74886">
        <ele>413</ele>
        <time>2016-12-04T10:21:44.000Z</time>
      </trkpt>
      <trkpt lat="47.5875" lon="6.74873">
        <ele>405</ele>
        <time>2016-12-04T10:21:45.000Z</time>
      </trkpt>
      <trkpt lat="47.58751" lon="6.74867">
        <ele>412</ele>
        <time>2016-12-04T10:21:46.000Z</time>
      </trkpt>
      <trkpt lat="47.58751" lon="6.74864">
        <ele>412</ele>
        <time>2016-12-04T10:21:47.000Z</time>
      </trkpt>
      <trkpt lat="47.58751" lon="6.74859">
        <ele>411</ele>
        <time>2016-12-04T10:21:49.000Z</time>
      </trkpt>
      <trkpt lat="47.5875" lon="6.74856">
        <ele>405</ele>
        <time>2016-12-04T10:21:50.000Z</time>
      </trkpt>
      <trkpt lat="47.58748" lon="6.74851">
        <ele>405</ele>
        <time>2016-12-04T10:21:52.000Z</time>
      </trkpt>
      <trkpt lat="47.58746" lon="6.74847">
        <ele>405</ele>
        <time>2016-12-04T10:21:53.000Z</time>
      </trkpt>
      <trkpt lat="47.58744" lon="6.74842">
        <ele>405</ele>
        <time>2016-12-04T10:21:54.000Z</time>
      </trkpt>
      <trkpt lat="47.58743" lon="6.7484">
        <ele>405</ele>
        <time>2016-12-04T10:21:55.000Z</time>
      </trkpt>
      <trkpt lat="47.58742" lon="6.74836">
        <ele>405</ele>
        <time>2016-12-04T10:21:56.000Z</time>
      </trkpt>
      <trkpt lat="47.58741" lon="6.74834">
        <ele>405</ele>
        <time>2016-12-04T10:21:57.000Z</time>
      </trkpt>
      <trkpt lat="47.58738" lon="6.74829">
        <ele>401</ele>
        <time>2016-12-04T10:21:59.000Z</time>
      </trkpt>
      <trkpt lat="47.58735" lon="6.74828">
        <ele>400</ele>
        <time>2016-12-04T10:22:00.000Z</time>
      </trkpt>
      <trkpt lat="47.58732" lon="6.74826">
        <ele>399</ele>
        <time>2016-12-04T10:22:01.000Z</time>
      </trkpt>
      <trkpt lat="47.58728" lon="6.74822">
        <ele>397</ele>
        <time>2016-12-04T10:22:02.000Z</time>
      </trkpt>
      <trkpt lat="47.58723" lon="6.74819">
        <ele>396</ele>
        <time>2016-12-04T10:22:03.000Z</time>
      </trkpt>
      <trkpt lat="47.58717" lon="6.74816">
        <ele>395</ele>
        <time>2016-12-04T10:22:04.000Z</time>
      </trkpt>
      <trkpt lat="47.58714" lon="6.74815">
        <ele>395</ele>
        <time>2016-12-04T10:22:05.000Z</time>
      </trkpt>
      <trkpt lat="47.58709" lon="6.74813">
        <ele>394</ele>
        <time>2016-12-04T10:22:06.000Z</time>
      </trkpt>
      <trkpt lat="47.58705" lon="6.74811">
        <ele>394</ele>
        <time>2016-12-04T10:22:07.000Z</time>
      </trkpt>
      <trkpt lat="47.58702" lon="6.74811">
        <ele>394</ele>
        <time>2016-12-04T10:22:08.000Z</time>
      </trkpt>
      <trkpt lat="47.58699" lon="6.74812">
        <ele>394</ele>
        <time>2016-12-04T10:22:09.000Z</time>
      </trkpt>
      <trkpt lat="47.58696" lon="6.74813">
        <ele>394</ele>
        <time>2016-12-04T10:22:10.000Z</time>
      </trkpt>
      <trkpt lat="47.58692" lon="6.74813">
        <ele>394</ele>
        <time>2016-12-04T10:22:11.000Z</time>
      </trkpt>
      <trkpt lat="47.58688" lon="6.74813">
        <ele>393</ele>
        <time>2016-12-04T10:22:12.000Z</time>
      </trkpt>
      <trkpt lat="47.58684" lon="6.74813">
        <ele>393</ele>
        <time>2016-12-04T10:22:13.000Z</time>
      </trkpt>
      <trkpt lat="47.58679" lon="6.74814">
        <ele>393</ele>
        <time>2016-12-04T10:22:14.000Z</time>
      </trkpt>
      <trkpt lat="47.58676" lon="6.74814">
        <ele>393</ele>
        <time>2016-12-04T10:22:15.000Z</time>
      </trkpt>
      <trkpt lat="47.58675" lon="6.7481">
        <ele>393</ele>
        <time>2016-12-04T10:22:16.000Z</time>
      </trkpt>
      <trkpt lat="47.58673" lon="6.74808">
        <ele>393</ele>
        <time>2016-12-04T10:22:17.000Z</time>
      </trkpt>
      <trkpt lat="47.58669" lon="6.7481">
        <ele>393</ele>
        <time>2016-12-04T10:22:18.000Z</time>
      </trkpt>
      <trkpt lat="47.58665" lon="6.74812">
        <ele>387</ele>
        <time>2016-12-04T10:22:19.000Z</time>
      </trkpt>
      <trkpt lat="47.5866" lon="6.7481">
        <ele>386</ele>
        <time>2016-12-04T10:22:20.000Z</time>
      </trkpt>
      <trkpt lat="47.58657" lon="6.74805">
        <ele>385</ele>
        <time>2016-12-04T10:22:21.000Z</time>
      </trkpt>
      <trkpt lat="47.58653" lon="6.74804">
        <ele>384</ele>
        <time>2016-12-04T10:22:22.000Z</time>
      </trkpt>
      <trkpt lat="47.5865" lon="6.74806">
        <ele>384</ele>
        <time>2016-12-04T10:22:23.000Z</time>
      </trkpt>
      <trkpt lat="47.58646" lon="6.74806">
        <ele>384</ele>
        <time>2016-12-04T10:22:24.000Z</time>
      </trkpt>
      <trkpt lat="47.58641" lon="6.74809">
        <ele>383</ele>
        <time>2016-12-04T10:22:25.000Z</time>
      </trkpt>
      <trkpt lat="47.58638" lon="6.74812">
        <ele>383</ele>
        <time>2016-12-04T10:22:26.000Z</time>
      </trkpt>
      <trkpt lat="47.58635" lon="6.74814">
        <ele>383</ele>
        <time>2016-12-04T10:22:27.000Z</time>
      </trkpt>
      <trkpt lat="47.58633" lon="6.74819">
        <ele>383</ele>
        <time>2016-12-04T10:22:28.000Z</time>
      </trkpt>
      <trkpt lat="47.58632" lon="6.74822">
        <ele>383</ele>
        <time>2016-12-04T10:22:29.000Z</time>
      </trkpt>
      <trkpt lat="47.58631" lon="6.74827">
        <ele>383</ele>
        <time>2016-12-04T10:22:33.000Z</time>
      </trkpt>
      <trkpt lat="47.58631" lon="6.74829">
        <ele>383</ele>
        <time>2016-12-04T10:22:34.000Z</time>
      </trkpt>
      <trkpt lat="47.58631" lon="6.74835">
        <ele>385</ele>
        <time>2016-12-04T10:22:42.000Z</time>
      </trkpt>
      <trkpt lat="47.58631" lon="6.74836">
        <ele>385</ele>
        <time>2016-12-04T10:22:43.000Z</time>
      </trkpt>
      <trkpt lat="47.58628" lon="6.7484">
        <ele>384</ele>
        <time>2016-12-04T10:22:47.000Z</time>
      </trkpt>
      <trkpt lat="47.58623" lon="6.74841">
        <ele>383</ele>
        <time>2016-12-04T10:22:48.000Z</time>
      </trkpt>
      <trkpt lat="47.58618" lon="6.74841">
        <ele>382</ele>
        <time>2016-12-04T10:22:49.000Z</time>
      </trkpt>
      <trkpt lat="47.58614" lon="6.74842">
        <ele>381</ele>
        <time>2016-12-04T10:22:50.000Z</time>
      </trkpt>
      <trkpt lat="47.58612" lon="6.7484">
        <ele>381</ele>
        <time>2016-12-04T10:22:51.000Z</time>
      </trkpt>
      <trkpt lat="47.58609" lon="6.74837">
        <ele>380</ele>
        <time>2016-12-04T10:22:53.000Z</time>
      </trkpt>
      <trkpt lat="47.58606" lon="6.74839">
        <ele>380</ele>
        <time>2016-12-04T10:22:54.000Z</time>
      </trkpt>
      <trkpt lat="47.58603" lon="6.74839">
        <ele>379</ele>
        <time>2016-12-04T10:22:55.000Z</time>
      </trkpt>
      <trkpt lat="47.58601" lon="6.74839">
        <ele>378</ele>
        <time>2016-12-04T10:22:56.000Z</time>
      </trkpt>
      <trkpt lat="47.58598" lon="6.74837">
        <ele>378</ele>
        <time>2016-12-04T10:22:57.000Z</time>
      </trkpt>
      <trkpt lat="47.58594" lon="6.74835">
        <ele>377</ele>
        <time>2016-12-04T10:22:58.000Z</time>
      </trkpt>
      <trkpt lat="47.58592" lon="6.74835">
        <ele>376</ele>
        <time>2016-12-04T10:22:59.000Z</time>
      </trkpt>
      <trkpt lat="47.58588" lon="6.74835">
        <ele>375</ele>
        <time>2016-12-04T10:23:00.000Z</time>
      </trkpt>
      <trkpt lat="47.58586" lon="6.74829">
        <ele>374</ele>
        <time>2016-12-04T10:23:01.000Z</time>
      </trkpt>
      <trkpt lat="47.58585" lon="6.74823">
        <ele>375</ele>
        <time>2016-12-04T10:23:02.000Z</time>
      </trkpt>
      <trkpt lat="47.58583" lon="6.74818">
        <ele>369</ele>
        <time>2016-12-04T10:23:03.000Z</time>
      </trkpt>
      <trkpt lat="47.58582" lon="6.74816">
        <ele>369</ele>
        <time>2016-12-04T10:23:04.000Z</time>
      </trkpt>
      <trkpt lat="47.5858" lon="6.7481">
        <ele>368</ele>
        <time>2016-12-04T10:23:05.000Z</time>
      </trkpt>
      <trkpt lat="47.58578" lon="6.74801">
        <ele>367</ele>
        <time>2016-12-04T10:23:06.000Z</time>
      </trkpt>
      <trkpt lat="47.58579" lon="6.74793">
        <ele>366</ele>
        <time>2016-12-04T10:23:07.000Z</time>
      </trkpt>
      <trkpt lat="47.5858" lon="6.74787">
        <ele>366</ele>
        <time>2016-12-04T10:23:08.000Z</time>
      </trkpt>
      <trkpt lat="47.5858" lon="6.74781">
        <ele>366</ele>
        <time>2016-12-04T10:23:09.000Z</time>
      </trkpt>
      <trkpt lat="47.58577" lon="6.74777">
        <ele>366</ele>
        <time>2016-12-04T10:23:11.000Z</time>
      </trkpt>
      <trkpt lat="47.58575" lon="6.7478">
        <ele>366</ele>
        <time>2016-12-04T10:23:12.000Z</time>
      </trkpt>
      <trkpt lat="47.58574" lon="6.74787">
        <ele>366</ele>
        <time>2016-12-04T10:23:14.000Z</time>
      </trkpt>
      <trkpt lat="47.58575" lon="6.74788">
        <ele>366</ele>
        <time>2016-12-04T10:23:15.000Z</time>
      </trkpt>
      <trkpt lat="47.58573" lon="6.74783">
        <ele>366</ele>
        <time>2016-12-04T10:23:39.000Z</time>
      </trkpt>
      <trkpt lat="47.58573" lon="6.7478">
        <ele>366</ele>
        <time>2016-12-04T10:23:40.000Z</time>
      </trkpt>
      <trkpt lat="47.58572" lon="6.74774">
        <ele>366</ele>
        <time>2016-12-04T10:23:42.000Z</time>
      </trkpt>
      <trkpt lat="47.58572" lon="6.74771">
        <ele>366</ele>
        <time>2016-12-04T10:23:43.000Z</time>
      </trkpt>
      <trkpt lat="47.5857" lon="6.74767">
        <ele>366</ele>
        <time>2016-12-04T10:23:44.000Z</time>
      </trkpt>
      <trkpt lat="47.58569" lon="6.74763">
        <ele>366</ele>
        <time>2016-12-04T10:23:45.000Z</time>
      </trkpt>
      <trkpt lat="47.58567" lon="6.7476">
        <ele>366</ele>
        <time>2016-12-04T10:23:46.000Z</time>
      </trkpt>
      <trkpt lat="47.58565" lon="6.74756">
        <ele>366</ele>
        <time>2016-12-04T10:23:47.000Z</time>
      </trkpt>
      <trkpt lat="47.58563" lon="6.74752">
        <ele>366</ele>
        <time>2016-12-04T10:23:48.000Z</time>
      </trkpt>
      <trkpt lat="47.58561" lon="6.74748">
        <ele>364</ele>
        <time>2016-12-04T10:23:49.000Z</time>
      </trkpt>
      <trkpt lat="47.58559" lon="6.74744">
        <ele>363</ele>
        <time>2016-12-04T10:23:50.000Z</time>
      </trkpt>
      <trkpt lat="47.58557" lon="6.7474">
        <ele>363</ele>
        <time>2016-12-04T10:23:51.000Z</time>
      </trkpt>
      <trkpt lat="47.58554" lon="6.74737">
        <ele>362</ele>
        <time>2016-12-04T10:23:52.000Z</time>
      </trkpt>
      <trkpt lat="47.58551" lon="6.74733">
        <ele>362</ele>
        <time>2016-12-04T10:23:53.000Z</time>
      </trkpt>
      <trkpt lat="47.58548" lon="6.74729">
        <ele>362</ele>
        <time>2016-12-04T10:23:54.000Z</time>
      </trkpt>
      <trkpt lat="47.58545" lon="6.74726">
        <ele>361</ele>
        <time>2016-12-04T10:23:55.000Z</time>
      </trkpt>
      <trkpt lat="47.58543" lon="6.74723">
        <ele>361</ele>
        <time>2016-12-04T10:23:56.000Z</time>
      </trkpt>
      <trkpt lat="47.5854" lon="6.7472">
        <ele>361</ele>
        <time>2016-12-04T10:23:57.000Z</time>
      </trkpt>
      <trkpt lat="47.58537" lon="6.74718">
        <ele>360</ele>
        <time>2016-12-04T10:23:58.000Z</time>
      </trkpt>
      <trkpt lat="47.58534" lon="6.74715">
        <ele>360</ele>
        <time>2016-12-04T10:23:59.000Z</time>
      </trkpt>
      <trkpt lat="47.58531" lon="6.74712">
        <ele>360</ele>
        <time>2016-12-04T10:24:00.000Z</time>
      </trkpt>
      <trkpt lat="47.58528" lon="6.74707">
        <ele>360</ele>
        <time>2016-12-04T10:24:01.000Z</time>
      </trkpt>
      <trkpt lat="47.58527" lon="6.74703">
        <ele>360</ele>
        <time>2016-12-04T10:24:02.000Z</time>
      </trkpt>
      <trkpt lat="47.58527" lon="6.74697">
        <ele>359</ele>
        <time>2016-12-04T10:24:03.000Z</time>
      </trkpt>
      <trkpt lat="47.58527" lon="6.74691">
        <ele>359</ele>
        <time>2016-12-04T10:24:04.000Z</time>
      </trkpt>
      <trkpt lat="47.58527" lon="6.74684">
        <ele>359</ele>
        <time>2016-12-04T10:24:05.000Z</time>
      </trkpt>
      <trkpt lat="47.58527" lon="6.74676">
        <ele>359</ele>
        <time>2016-12-04T10:24:06.000Z</time>
      </trkpt>
      <trkpt lat="47.58528" lon="6.74667">
        <ele>359</ele>
        <time>2016-12-04T10:24:07.000Z</time>
      </trkpt>
      <trkpt lat="47.58528" lon="6.74657">
        <ele>357</ele>
        <time>2016-12-04T10:24:08.000Z</time>
      </trkpt>
      <trkpt lat="47.58528" lon="6.74645">
        <ele>357</ele>
        <time>2016-12-04T10:24:09.000Z</time>
      </trkpt>
      <trkpt lat="47.58528" lon="6.74633">
        <ele>357</ele>
        <time>2016-12-04T10:24:10.000Z</time>
      </trkpt>
      <trkpt lat="47.58528" lon="6.74621">
        <ele>356</ele>
        <time>2016-12-04T10:24:11.000Z</time>
      </trkpt>
      <trkpt lat="47.58528" lon="6.74608">
        <ele>356</ele>
        <time>2016-12-04T10:24:12.000Z</time>
      </trkpt>
      <trkpt lat="47.58528" lon="6.74599">
        <ele>356</ele>
        <time>2016-12-04T10:24:13.000Z</time>
      </trkpt>
      <trkpt lat="47.58529" lon="6.74587">
        <ele>356</ele>
        <time>2016-12-04T10:24:14.000Z</time>
      </trkpt>
      <trkpt lat="47.58528" lon="6.74576">
        <ele>354</ele>
        <time>2016-12-04T10:24:15.000Z</time>
      </trkpt>
      <trkpt lat="47.58528" lon="6.74565">
        <ele>353</ele>
        <time>2016-12-04T10:24:16.000Z</time>
      </trkpt>
      <trkpt lat="47.58528" lon="6.74553">
        <ele>353</ele>
        <time>2016-12-04T10:24:17.000Z</time>
      </trkpt>
      <trkpt lat="47.58529" lon="6.74541">
        <ele>353</ele>
        <time>2016-12-04T10:24:18.000Z</time>
      </trkpt>
      <trkpt lat="47.58529" lon="6.7453">
        <ele>353</ele>
        <time>2016-12-04T10:24:19.000Z</time>
      </trkpt>
      <trkpt lat="47.5853" lon="6.74517">
        <ele>352</ele>
        <time>2016-12-04T10:24:20.000Z</time>
      </trkpt>
      <trkpt lat="47.5853" lon="6.74504">
        <ele>352</ele>
        <time>2016-12-04T10:24:21.000Z</time>
      </trkpt>
      <trkpt lat="47.58531" lon="6.7449">
        <ele>349</ele>
        <time>2016-12-04T10:24:22.000Z</time>
      </trkpt>
      <trkpt lat="47.58532" lon="6.74476">
        <ele>349</ele>
        <time>2016-12-04T10:24:23.000Z</time>
      </trkpt>
      <trkpt lat="47.58533" lon="6.74463">
        <ele>348</ele>
        <time>2016-12-04T10:24:24.000Z</time>
      </trkpt>
      <trkpt lat="47.58534" lon="6.74453">
        <ele>348</ele>
        <time>2016-12-04T10:24:25.000Z</time>
      </trkpt>
      <trkpt lat="47.58535" lon="6.74444">
        <ele>348</ele>
        <time>2016-12-04T10:24:26.000Z</time>
      </trkpt>
      <trkpt lat="47.58536" lon="6.74431">
        <ele>347</ele>
        <time>2016-12-04T10:24:27.000Z</time>
      </trkpt>
      <trkpt lat="47.58537" lon="6.74421">
        <ele>347</ele>
        <time>2016-12-04T10:24:28.000Z</time>
      </trkpt>
      <trkpt lat="47.58538" lon="6.74409">
        <ele>343</ele>
        <time>2016-12-04T10:24:29.000Z</time>
      </trkpt>
      <trkpt lat="47.58539" lon="6.74397">
        <ele>343</ele>
        <time>2016-12-04T10:24:30.000Z</time>
      </trkpt>
      <trkpt lat="47.58541" lon="6.74385">
        <ele>342</ele>
        <time>2016-12-04T10:24:31.000Z</time>
      </trkpt>
      <trkpt lat="47.58543" lon="6.74372">
        <ele>342</ele>
        <time>2016-12-04T10:24:32.000Z</time>
      </trkpt>
      <trkpt lat="47.58545" lon="6.74357">
        <ele>341</ele>
        <time>2016-12-04T10:24:33.000Z</time>
      </trkpt>
      <trkpt lat="47.58549" lon="6.74341">
        <ele>340</ele>
        <time>2016-12-04T10:24:34.000Z</time>
      </trkpt>
      <trkpt lat="47.58551" lon="6.74326">
        <ele>336</ele>
        <time>2016-12-04T10:24:35.000Z</time>
      </trkpt>
      <trkpt lat="47.58555" lon="6.7431">
        <ele>335</ele>
        <time>2016-12-04T10:24:36.000Z</time>
      </trkpt>
      <trkpt lat="47.58559" lon="6.74295">
        <ele>335</ele>
        <time>2016-12-04T10:24:37.000Z</time>
      </trkpt>
      <trkpt lat="47.58563" lon="6.74283">
        <ele>334</ele>
        <time>2016-12-04T10:24:38.000Z</time>
      </trkpt>
      <trkpt lat="47.58567" lon="6.74267">
        <ele>333</ele>
        <time>2016-12-04T10:24:39.000Z</time>
      </trkpt>
      <trkpt lat="47.58571" lon="6.74253">
        <ele>331</ele>
        <time>2016-12-04T10:24:40.000Z</time>
      </trkpt>
      <trkpt lat="47.58575" lon="6.74239">
        <ele>330</ele>
        <time>2016-12-04T10:24:41.000Z</time>
      </trkpt>
      <trkpt lat="47.58578" lon="6.74226">
        <ele>330</ele>
        <time>2016-12-04T10:24:42.000Z</time>
      </trkpt>
      <trkpt lat="47.5858" lon="6.74213">
        <ele>330</ele>
        <time>2016-12-04T10:24:43.000Z</time>
      </trkpt>
      <trkpt lat="47.58582" lon="6.74202">
        <ele>330</ele>
        <time>2016-12-04T10:24:44.000Z</time>
      </trkpt>
      <trkpt lat="47.58584" lon="6.74191">
        <ele>330</ele>
        <time>2016-12-04T10:24:45.000Z</time>
      </trkpt>
      <trkpt lat="47.58586" lon="6.74182">
        <ele>329</ele>
        <time>2016-12-04T10:24:46.000Z</time>
      </trkpt>
      <trkpt lat="47.58588" lon="6.74177">
        <ele>329</ele>
        <time>2016-12-04T10:24:47.000Z</time>
      </trkpt>
      <trkpt lat="47.58589" lon="6.74175">
        <ele>329</ele>
        <time>2016-12-04T10:24:48.000Z</time>
      </trkpt>
      <trkpt lat="47.58591" lon="6.74172">
        <ele>329</ele>
        <time>2016-12-04T10:24:49.000Z</time>
      </trkpt>
      <trkpt lat="47.58592" lon="6.74168">
        <ele>329</ele>
        <time>2016-12-04T10:24:50.000Z</time>
      </trkpt>
      <trkpt lat="47.58592" lon="6.74163">
        <ele>329</ele>
        <time>2016-12-04T10:24:52.000Z</time>
      </trkpt>
      <trkpt lat="47.5859" lon="6.74161">
        <ele>329</ele>
        <time>2016-12-04T10:24:53.000Z</time>
      </trkpt>
      <trkpt lat="47.58587" lon="6.74159">
        <ele>329</ele>
        <time>2016-12-04T10:24:54.000Z</time>
      </trkpt>
      <trkpt lat="47.58583" lon="6.74158">
        <ele>329</ele>
        <time>2016-12-04T10:24:55.000Z</time>
      </trkpt>
      <trkpt lat="47.58579" lon="6.74156">
        <ele>329</ele>
        <time>2016-12-04T10:24:57.000Z</time>
      </trkpt>
      <trkpt lat="47.58578" lon="6.74155">
        <ele>329</ele>
        <time>2016-12-04T10:24:58.000Z</time>
      </trkpt>
      <trkpt lat="47.58576" lon="6.74154">
        <ele>329</ele>
        <time>2016-12-04T10:25:03.000Z</time>
      </trkpt>
      <trkpt lat="47.58569" lon="6.74154">
        <ele>329</ele>
        <time>2016-12-04T10:25:04.000Z</time>
      </trkpt>
      <trkpt lat="47.58566" lon="6.74153">
        <ele>329</ele>
        <time>2016-12-04T10:25:05.000Z</time>
      </trkpt>
      <trkpt lat="47.58563" lon="6.74151">
        <ele>329</ele>
        <time>2016-12-04T10:25:06.000Z</time>
      </trkpt>
      <trkpt lat="47.5856" lon="6.74148">
        <ele>329</ele>
        <time>2016-12-04T10:25:07.000Z</time>
      </trkpt>
      <trkpt lat="47.58558" lon="6.74146">
        <ele>329</ele>
        <time>2016-12-04T10:25:08.000Z</time>
      </trkpt>
      <trkpt lat="47.58555" lon="6.74143">
        <ele>329</ele>
        <time>2016-12-04T10:25:09.000Z</time>
      </trkpt>
      <trkpt lat="47.58552" lon="6.74141">
        <ele>329</ele>
        <time>2016-12-04T10:25:10.000Z</time>
      </trkpt>
      <trkpt lat="47.58552" lon="6.74141">
        <ele>329</ele>
        <time>2016-12-04T10:25:12.000Z</time>
      </trkpt>
      <trkpt lat="47.58545" lon="6.74135">
        <ele>329</ele>
        <time>2016-12-04T10:25:13.000Z</time>
      </trkpt>
      <trkpt lat="47.58543" lon="6.74137">
        <ele>329</ele>
        <time>2016-12-04T10:25:19.000Z</time>
      </trkpt>
      <trkpt lat="47.58529" lon="6.74129">
        <ele>330</ele>
        <time>2016-12-04T10:25:20.000Z</time>
      </trkpt>
      <trkpt lat="47.58526" lon="6.74127">
        <ele>330</ele>
        <time>2016-12-04T10:25:21.000Z</time>
      </trkpt>
      <trkpt lat="47.58524" lon="6.74126">
        <ele>330</ele>
        <time>2016-12-04T10:25:22.000Z</time>
      </trkpt>
      <trkpt lat="47.58524" lon="6.74126">
        <ele>330</ele>
        <time>2016-12-04T10:25:32.000Z</time>
      </trkpt>
      <trkpt lat="47.58524" lon="6.74115">
        <ele>330</ele>
        <time>2016-12-04T10:25:33.000Z</time>
      </trkpt>
      <trkpt lat="47.58524" lon="6.7411">
        <ele>330</ele>
        <time>2016-12-04T10:25:35.000Z</time>
      </trkpt>
      <trkpt lat="47.58525" lon="6.74108">
        <ele>330</ele>
        <time>2016-12-04T10:25:36.000Z</time>
      </trkpt>
      <trkpt lat="47.58525" lon="6.74108">
        <ele>330</ele>
        <time>2016-12-04T10:26:13.000Z</time>
      </trkpt>
      <trkpt lat="47.58524" lon="6.74119">
        <ele>330</ele>
        <time>2016-12-04T10:26:14.000Z</time>
      </trkpt>
      <trkpt lat="47.58524" lon="6.74119">
        <ele>330</ele>
        <time>2016-12-04T10:26:20.000Z</time>
      </trkpt>
      <trkpt lat="47.58526" lon="6.74132">
        <ele>330</ele>
        <time>2016-12-04T10:26:21.000Z</time>
      </trkpt>
      <trkpt lat="47.58526" lon="6.74132">
        <ele>330</ele>
        <time>2016-12-04T10:26:31.000Z</time>
      </trkpt>
      <trkpt lat="47.58531" lon="6.74144">
        <ele>330</ele>
        <time>2016-12-04T10:26:32.000Z</time>
      </trkpt>
      <trkpt lat="47.58531" lon="6.74144">
        <ele>330</ele>
        <time>2016-12-04T10:26:46.000Z</time>
      </trkpt>
      <trkpt lat="47.58537" lon="6.7413">
        <ele>330</ele>
        <time>2016-12-04T10:26:47.000Z</time>
      </trkpt>
      <trkpt lat="47.58538" lon="6.74127">
        <ele>330</ele>
        <time>2016-12-04T10:26:48.000Z</time>
      </trkpt>
      <trkpt lat="47.58539" lon="6.74124">
        <ele>330</ele>
        <time>2016-12-04T10:26:49.000Z</time>
      </trkpt>
      <trkpt lat="47.58541" lon="6.74118">
        <ele>330</ele>
        <time>2016-12-04T10:26:51.000Z</time>
      </trkpt>
      <trkpt lat="47.58541" lon="6.74113">
        <ele>330</ele>
        <time>2016-12-04T10:26:52.000Z</time>
      </trkpt>
      <trkpt lat="47.58543" lon="6.74108">
        <ele>329</ele>
        <time>2016-12-04T10:26:55.000Z</time>
      </trkpt>
      <trkpt lat="47.58543" lon="6.74106">
        <ele>329</ele>
        <time>2016-12-04T10:26:56.000Z</time>
      </trkpt>
      <trkpt lat="47.58544" lon="6.74101">
        <ele>329</ele>
        <time>2016-12-04T10:26:59.000Z</time>
      </trkpt>
      <trkpt lat="47.58545" lon="6.74098">
        <ele>329</ele>
        <time>2016-12-04T10:27:00.000Z</time>
      </trkpt>
      <trkpt lat="47.58546" lon="6.74092">
        <ele>329</ele>
        <time>2016-12-04T10:27:02.000Z</time>
      </trkpt>
      <trkpt lat="47.58547" lon="6.74088">
        <ele>329</ele>
        <time>2016-12-04T10:27:03.000Z</time>
      </trkpt>
      <trkpt lat="47.58547" lon="6.74085">
        <ele>329</ele>
        <time>2016-12-04T10:27:04.000Z</time>
      </trkpt>
      <trkpt lat="47.58548" lon="6.74082">
        <ele>330</ele>
        <time>2016-12-04T10:27:05.000Z</time>
      </trkpt>
      <trkpt lat="47.58549" lon="6.74079">
        <ele>330</ele>
        <time>2016-12-04T10:27:06.000Z</time>
      </trkpt>
      <trkpt lat="47.58549" lon="6.74074">
        <ele>330</ele>
        <time>2016-12-04T10:27:07.000Z</time>
      </trkpt>
      <trkpt lat="47.5855" lon="6.74071">
        <ele>330</ele>
        <time>2016-12-04T10:27:08.000Z</time>
      </trkpt>
      <trkpt lat="47.58552" lon="6.74068">
        <ele>330</ele>
        <time>2016-12-04T10:27:09.000Z</time>
      </trkpt>
      <trkpt lat="47.58554" lon="6.74062">
        <ele>330</ele>
        <time>2016-12-04T10:27:11.000Z</time>
      </trkpt>
      <trkpt lat="47.58555" lon="6.74059">
        <ele>330</ele>
        <time>2016-12-04T10:27:12.000Z</time>
      </trkpt>
      <trkpt lat="47.58557" lon="6.74054">
        <ele>330</ele>
        <time>2016-12-04T10:27:14.000Z</time>
      </trkpt>
      <trkpt lat="47.58558" lon="6.7405">
        <ele>330</ele>
        <time>2016-12-04T10:27:15.000Z</time>
      </trkpt>
      <trkpt lat="47.58559" lon="6.74047">
        <ele>330</ele>
        <time>2016-12-04T10:27:16.000Z</time>
      </trkpt>
      <trkpt lat="47.5856" lon="6.74044">
        <ele>330</ele>
        <time>2016-12-04T10:27:17.000Z</time>
      </trkpt>
      <trkpt lat="47.58561" lon="6.74041">
        <ele>330</ele>
        <time>2016-12-04T10:27:18.000Z</time>
      </trkpt>
      <trkpt lat="47.58562" lon="6.74037">
        <ele>330</ele>
        <time>2016-12-04T10:27:19.000Z</time>
      </trkpt>
      <trkpt lat="47.58561" lon="6.74033">
        <ele>330</ele>
        <time>2016-12-04T10:27:20.000Z</time>
      </trkpt>
      <trkpt lat="47.58561" lon="6.7403">
        <ele>330</ele>
        <time>2016-12-04T10:27:21.000Z</time>
      </trkpt>
      <trkpt lat="47.58561" lon="6.74026">
        <ele>330</ele>
        <time>2016-12-04T10:27:22.000Z</time>
      </trkpt>
      <trkpt lat="47.58559" lon="6.74022">
        <ele>330</ele>
        <time>2016-12-04T10:27:23.000Z</time>
      </trkpt>
      <trkpt lat="47.58558" lon="6.74019">
        <ele>330</ele>
        <time>2016-12-04T10:27:24.000Z</time>
      </trkpt>
      <trkpt lat="47.58557" lon="6.74016">
        <ele>331</ele>
        <time>2016-12-04T10:27:25.000Z</time>
      </trkpt>
      <trkpt lat="47.58555" lon="6.74012">
        <ele>331</ele>
        <time>2016-12-04T10:27:26.000Z</time>
      </trkpt>
      <trkpt lat="47.58553" lon="6.74008">
        <ele>331</ele>
        <time>2016-12-04T10:27:27.000Z</time>
      </trkpt>
      <trkpt lat="47.58553" lon="6.74002">
        <ele>331</ele>
        <time>2016-12-04T10:27:28.000Z</time>
      </trkpt>
      <trkpt lat="47.58555" lon="6.73997">
        <ele>331</ele>
        <time>2016-12-04T10:27:29.000Z</time>
      </trkpt>
      <trkpt lat="47.58556" lon="6.73993">
        <ele>331</ele>
        <time>2016-12-04T10:27:30.000Z</time>
      </trkpt>
      <trkpt lat="47.58558" lon="6.73987">
        <ele>331</ele>
        <time>2016-12-04T10:27:31.000Z</time>
      </trkpt>
      <trkpt lat="47.58561" lon="6.73981">
        <ele>331</ele>
        <time>2016-12-04T10:27:32.000Z</time>
      </trkpt>
      <trkpt lat="47.58563" lon="6.73976">
        <ele>331</ele>
        <time>2016-12-04T10:27:33.000Z</time>
      </trkpt>
      <trkpt lat="47.58565" lon="6.73972">
        <ele>331</ele>
        <time>2016-12-04T10:27:34.000Z</time>
      </trkpt>
      <trkpt lat="47.58566" lon="6.73968">
        <ele>331</ele>
        <time>2016-12-04T10:27:35.000Z</time>
      </trkpt>
      <trkpt lat="47.5857" lon="6.73964">
        <ele>331</ele>
        <time>2016-12-04T10:27:36.000Z</time>
      </trkpt>
      <trkpt lat="47.58571" lon="6.7396">
        <ele>331</ele>
        <time>2016-12-04T10:27:37.000Z</time>
      </trkpt>
      <trkpt lat="47.58573" lon="6.73957">
        <ele>331</ele>
        <time>2016-12-04T10:27:38.000Z</time>
      </trkpt>
      <trkpt lat="47.58574" lon="6.73953">
        <ele>331</ele>
        <time>2016-12-04T10:27:39.000Z</time>
      </trkpt>
      <trkpt lat="47.58577" lon="6.7395">
        <ele>331</ele>
        <time>2016-12-04T10:27:40.000Z</time>
      </trkpt>
      <trkpt lat="47.58579" lon="6.73947">
        <ele>331</ele>
        <time>2016-12-04T10:27:41.000Z</time>
      </trkpt>
      <trkpt lat="47.58582" lon="6.73941">
        <ele>331</ele>
        <time>2016-12-04T10:27:42.000Z</time>
      </trkpt>
      <trkpt lat="47.58584" lon="6.73936">
        <ele>329</ele>
        <time>2016-12-04T10:27:43.000Z</time>
      </trkpt>
      <trkpt lat="47.58586" lon="6.73934">
        <ele>329</ele>
        <time>2016-12-04T10:27:44.000Z</time>
      </trkpt>
      <trkpt lat="47.58589" lon="6.73933">
        <ele>329</ele>
        <time>2016-12-04T10:27:45.000Z</time>
      </trkpt>
      <trkpt lat="47.58592" lon="6.73933">
        <ele>329</ele>
        <time>2016-12-04T10:27:46.000Z</time>
      </trkpt>
      <trkpt lat="47.58595" lon="6.73931">
        <ele>329</ele>
        <time>2016-12-04T10:27:48.000Z</time>
      </trkpt>
      <trkpt lat="47.58597" lon="6.7393">
        <ele>329</ele>
        <time>2016-12-04T10:27:49.000Z</time>
      </trkpt>
      <trkpt lat="47.58598" lon="6.73929">
        <ele>329</ele>
        <time>2016-12-04T10:27:53.000Z</time>
      </trkpt>
      <trkpt lat="47.5861" lon="6.73944">
        <ele>329</ele>
        <time>2016-12-04T10:27:54.000Z</time>
      </trkpt>
      <trkpt lat="47.58613" lon="6.73949">
        <ele>329</ele>
        <time>2016-12-04T10:27:55.000Z</time>
      </trkpt>
      <trkpt lat="47.58615" lon="6.73952">
        <ele>329</ele>
        <time>2016-12-04T10:27:56.000Z</time>
      </trkpt>
      <trkpt lat="47.58619" lon="6.73957">
        <ele>329</ele>
        <time>2016-12-04T10:27:57.000Z</time>
      </trkpt>
      <trkpt lat="47.58621" lon="6.73962">
        <ele>329</ele>
        <time>2016-12-04T10:27:58.000Z</time>
      </trkpt>
      <trkpt lat="47.58622" lon="6.73964">
        <ele>329</ele>
        <time>2016-12-04T10:27:59.000Z</time>
      </trkpt>
      <trkpt lat="47.58623" lon="6.73966">
        <ele>329</ele>
        <time>2016-12-04T10:28:08.000Z</time>
      </trkpt>
      <trkpt lat="47.58621" lon="6.73952">
        <ele>329</ele>
        <time>2016-12-04T10:28:09.000Z</time>
      </trkpt>
      <trkpt lat="47.58619" lon="6.73949">
        <ele>329</ele>
        <time>2016-12-04T10:28:10.000Z</time>
      </trkpt>
      <trkpt lat="47.58616" lon="6.73949">
        <ele>329</ele>
        <time>2016-12-04T10:28:11.000Z</time>
      </trkpt>
      <trkpt lat="47.58614" lon="6.73948">
        <ele>329</ele>
        <time>2016-12-04T10:28:12.000Z</time>
      </trkpt>
      <trkpt lat="47.58611" lon="6.73946">
        <ele>329</ele>
        <time>2016-12-04T10:28:13.000Z</time>
      </trkpt>
      <trkpt lat="47.58609" lon="6.73945">
        <ele>329</ele>
        <time>2016-12-04T10:28:22.000Z</time>
      </trkpt>
      <trkpt lat="47.58588" lon="6.73952">
        <ele>329</ele>
        <time>2016-12-04T10:28:23.000Z</time>
      </trkpt>
      <trkpt lat="47.58584" lon="6.73956">
        <ele>329</ele>
        <time>2016-12-04T10:28:24.000Z</time>
      </trkpt>
      <trkpt lat="47.5858" lon="6.73959">
        <ele>331</ele>
        <time>2016-12-04T10:28:25.000Z</time>
      </trkpt>
      <trkpt lat="47.58577" lon="6.73961">
        <ele>331</ele>
        <time>2016-12-04T10:28:26.000Z</time>
      </trkpt>
      <trkpt lat="47.58573" lon="6.73965">
        <ele>331</ele>
        <time>2016-12-04T10:28:27.000Z</time>
      </trkpt>
      <trkpt lat="47.58569" lon="6.73969">
        <ele>331</ele>
        <time>2016-12-04T10:28:28.000Z</time>
      </trkpt>
      <trkpt lat="47.58567" lon="6.73972">
        <ele>331</ele>
        <time>2016-12-04T10:28:29.000Z</time>
      </trkpt>
      <trkpt lat="47.58565" lon="6.73976">
        <ele>331</ele>
        <time>2016-12-04T10:28:30.000Z</time>
      </trkpt>
      <trkpt lat="47.58562" lon="6.7398">
        <ele>331</ele>
        <time>2016-12-04T10:28:31.000Z</time>
      </trkpt>
      <trkpt lat="47.5856" lon="6.73984">
        <ele>331</ele>
        <time>2016-12-04T10:28:32.000Z</time>
      </trkpt>
      <trkpt lat="47.58558" lon="6.73988">
        <ele>331</ele>
        <time>2016-12-04T10:28:33.000Z</time>
      </trkpt>
      <trkpt lat="47.58555" lon="6.73994">
        <ele>331</ele>
        <time>2016-12-04T10:28:34.000Z</time>
      </trkpt>
      <trkpt lat="47.58553" lon="6.74">
        <ele>331</ele>
        <time>2016-12-04T10:28:35.000Z</time>
      </trkpt>
      <trkpt lat="47.58552" lon="6.74006">
        <ele>331</ele>
        <time>2016-12-04T10:28:36.000Z</time>
      </trkpt>
      <trkpt lat="47.58552" lon="6.74011">
        <ele>331</ele>
        <time>2016-12-04T10:28:37.000Z</time>
      </trkpt>
      <trkpt lat="47.58554" lon="6.74016">
        <ele>331</ele>
        <time>2016-12-04T10:28:38.000Z</time>
      </trkpt>
      <trkpt lat="47.58559" lon="6.74017">
        <ele>330</ele>
        <time>2016-12-04T10:28:40.000Z</time>
      </trkpt>
      <trkpt lat="47.58562" lon="6.74016">
        <ele>330</ele>
        <time>2016-12-04T10:28:41.000Z</time>
      </trkpt>
      <trkpt lat="47.58564" lon="6.74013">
        <ele>330</ele>
        <time>2016-12-04T10:28:42.000Z</time>
      </trkpt>
      <trkpt lat="47.58565" lon="6.7401">
        <ele>330</ele>
        <time>2016-12-04T10:28:43.000Z</time>
      </trkpt>
      <trkpt lat="47.58567" lon="6.74005">
        <ele>330</ele>
        <time>2016-12-04T10:28:45.000Z</time>
      </trkpt>
      <trkpt lat="47.58568" lon="6.74003">
        <ele>330</ele>
        <time>2016-12-04T10:28:46.000Z</time>
      </trkpt>
      <trkpt lat="47.58569" lon="6.73999">
        <ele>330</ele>
        <time>2016-12-04T10:28:47.000Z</time>
      </trkpt>
      <trkpt lat="47.5857" lon="6.73996">
        <ele>330</ele>
        <time>2016-12-04T10:28:48.000Z</time>
      </trkpt>
      <trkpt lat="47.58573" lon="6.7399">
        <ele>330</ele>
        <time>2016-12-04T10:28:50.000Z</time>
      </trkpt>
      <trkpt lat="47.58574" lon="6.73988">
        <ele>330</ele>
        <time>2016-12-04T10:28:51.000Z</time>
      </trkpt>
      <trkpt lat="47.58575" lon="6.73985">
        <ele>331</ele>
        <time>2016-12-04T10:28:52.000Z</time>
      </trkpt>
      <trkpt lat="47.58577" lon="6.73981">
        <ele>331</ele>
        <time>2016-12-04T10:28:53.000Z</time>
      </trkpt>
      <trkpt lat="47.58579" lon="6.73976">
        <ele>331</ele>
        <time>2016-12-04T10:28:54.000Z</time>
      </trkpt>
      <trkpt lat="47.58581" lon="6.7397">
        <ele>331</ele>
        <time>2016-12-04T10:28:55.000Z</time>
      </trkpt>
      <trkpt lat="47.58584" lon="6.73965">
        <ele>329</ele>
        <time>2016-12-04T10:28:56.000Z</time>
      </trkpt>
      <trkpt lat="47.58586" lon="6.73961">
        <ele>329</ele>
        <time>2016-12-04T10:28:57.000Z</time>
      </trkpt>
      <trkpt lat="47.58588" lon="6.73955">
        <ele>329</ele>
        <time>2016-12-04T10:28:58.000Z</time>
      </trkpt>
      <trkpt lat="47.5859" lon="6.73949">
        <ele>329</ele>
        <time>2016-12-04T10:28:59.000Z</time>
      </trkpt>
      <trkpt lat="47.58592" lon="6.73944">
        <ele>329</ele>
        <time>2016-12-04T10:29:00.000Z</time>
      </trkpt>
      <trkpt lat="47.58594" lon="6.73938">
        <ele>329</ele>
        <time>2016-12-04T10:29:01.000Z</time>
      </trkpt>
      <trkpt lat="47.58596" lon="6.73933">
        <ele>329</ele>
        <time>2016-12-04T10:29:02.000Z</time>
      </trkpt>
      <trkpt lat="47.58597" lon="6.73928">
        <ele>329</ele>
        <time>2016-12-04T10:29:03.000Z</time>
      </trkpt>
      <trkpt lat="47.58599" lon="6.73922">
        <ele>329</ele>
        <time>2016-12-04T10:29:04.000Z</time>
      </trkpt>
      <trkpt lat="47.58601" lon="6.73917">
        <ele>329</ele>
        <time>2016-12-04T10:29:05.000Z</time>
      </trkpt>
      <trkpt lat="47.58602" lon="6.73912">
        <ele>329</ele>
        <time>2016-12-04T10:29:06.000Z</time>
      </trkpt>
      <trkpt lat="47.58604" lon="6.73906">
        <ele>329</ele>
        <time>2016-12-04T10:29:07.000Z</time>
      </trkpt>
      <trkpt lat="47.58605" lon="6.73901">
        <ele>329</ele>
        <time>2016-12-04T10:29:08.000Z</time>
      </trkpt>
      <trkpt lat="47.58606" lon="6.73893">
        <ele>329</ele>
        <time>2016-12-04T10:29:09.000Z</time>
      </trkpt>
      <trkpt lat="47.58608" lon="6.73885">
        <ele>329</ele>
        <time>2016-12-04T10:29:10.000Z</time>
      </trkpt>
      <trkpt lat="47.5861" lon="6.73876">
        <ele>329</ele>
        <time>2016-12-04T10:29:11.000Z</time>
      </trkpt>
      <trkpt lat="47.58612" lon="6.73867">
        <ele>329</ele>
        <time>2016-12-04T10:29:12.000Z</time>
      </trkpt>
      <trkpt lat="47.58615" lon="6.73859">
        <ele>329</ele>
        <time>2016-12-04T10:29:13.000Z</time>
      </trkpt>
      <trkpt lat="47.58617" lon="6.73851">
        <ele>329</ele>
        <time>2016-12-04T10:29:14.000Z</time>
      </trkpt>
      <trkpt lat="47.58619" lon="6.73843">
        <ele>329</ele>
        <time>2016-12-04T10:29:15.000Z</time>
      </trkpt>
      <trkpt lat="47.58621" lon="6.73835">
        <ele>329</ele>
        <time>2016-12-04T10:29:16.000Z</time>
      </trkpt>
      <trkpt lat="47.58623" lon="6.73827">
        <ele>329</ele>
        <time>2016-12-04T10:29:17.000Z</time>
      </trkpt>
      <trkpt lat="47.58625" lon="6.73818">
        <ele>329</ele>
        <time>2016-12-04T10:29:18.000Z</time>
      </trkpt>
      <trkpt lat="47.58628" lon="6.7381">
        <ele>329</ele>
        <time>2016-12-04T10:29:19.000Z</time>
      </trkpt>
      <trkpt lat="47.5863" lon="6.73803">
        <ele>329</ele>
        <time>2016-12-04T10:29:20.000Z</time>
      </trkpt>
      <trkpt lat="47.58633" lon="6.73796">
        <ele>329</ele>
        <time>2016-12-04T10:29:21.000Z</time>
      </trkpt>
      <trkpt lat="47.58635" lon="6.73788">
        <ele>329</ele>
        <time>2016-12-04T10:29:22.000Z</time>
      </trkpt>
      <trkpt lat="47.58637" lon="6.73782">
        <ele>330</ele>
        <time>2016-12-04T10:29:23.000Z</time>
      </trkpt>
      <trkpt lat="47.58639" lon="6.73775">
        <ele>330</ele>
        <time>2016-12-04T10:29:24.000Z</time>
      </trkpt>
      <trkpt lat="47.58641" lon="6.73768">
        <ele>330</ele>
        <time>2016-12-04T10:29:25.000Z</time>
      </trkpt>
      <trkpt lat="47.58643" lon="6.73762">
        <ele>330</ele>
        <time>2016-12-04T10:29:26.000Z</time>
      </trkpt>
      <trkpt lat="47.58645" lon="6.73755">
        <ele>330</ele>
        <time>2016-12-04T10:29:27.000Z</time>
      </trkpt>
      <trkpt lat="47.58647" lon="6.73748">
        <ele>330</ele>
        <time>2016-12-04T10:29:28.000Z</time>
      </trkpt>
      <trkpt lat="47.58649" lon="6.73741">
        <ele>330</ele>
        <time>2016-12-04T10:29:29.000Z</time>
      </trkpt>
      <trkpt lat="47.58651" lon="6.73735">
        <ele>330</ele>
        <time>2016-12-04T10:29:30.000Z</time>
      </trkpt>
      <trkpt lat="47.58653" lon="6.73729">
        <ele>331</ele>
        <time>2016-12-04T10:29:31.000Z</time>
      </trkpt>
      <trkpt lat="47.58655" lon="6.73724">
        <ele>331</ele>
        <time>2016-12-04T10:29:32.000Z</time>
      </trkpt>
      <trkpt lat="47.58657" lon="6.73718">
        <ele>331</ele>
        <time>2016-12-04T10:29:33.000Z</time>
      </trkpt>
      <trkpt lat="47.58659" lon="6.73712">
        <ele>331</ele>
        <time>2016-12-04T10:29:34.000Z</time>
      </trkpt>
      <trkpt lat="47.58661" lon="6.73708">
        <ele>331</ele>
        <time>2016-12-04T10:29:35.000Z</time>
      </trkpt>
      <trkpt lat="47.58663" lon="6.73703">
        <ele>331</ele>
        <time>2016-12-04T10:29:36.000Z</time>
      </trkpt>
      <trkpt lat="47.58665" lon="6.73698">
        <ele>331</ele>
        <time>2016-12-04T10:29:37.000Z</time>
      </trkpt>
      <trkpt lat="47.58667" lon="6.73693">
        <ele>331</ele>
        <time>2016-12-04T10:29:38.000Z</time>
      </trkpt>
      <trkpt lat="47.58669" lon="6.73688">
        <ele>331</ele>
        <time>2016-12-04T10:29:39.000Z</time>
      </trkpt>
      <trkpt lat="47.58671" lon="6.73683">
        <ele>331</ele>
        <time>2016-12-04T10:29:40.000Z</time>
      </trkpt>
      <trkpt lat="47.58674" lon="6.73677">
        <ele>331</ele>
        <time>2016-12-04T10:29:41.000Z</time>
      </trkpt>
      <trkpt lat="47.58677" lon="6.73672">
        <ele>331</ele>
        <time>2016-12-04T10:29:42.000Z</time>
      </trkpt>
      <trkpt lat="47.5868" lon="6.73668">
        <ele>331</ele>
        <time>2016-12-04T10:29:43.000Z</time>
      </trkpt>
      <trkpt lat="47.58683" lon="6.73664">
        <ele>331</ele>
        <time>2016-12-04T10:29:44.000Z</time>
      </trkpt>
      <trkpt lat="47.58685" lon="6.73659">
        <ele>331</ele>
        <time>2016-12-04T10:29:45.000Z</time>
      </trkpt>
      <trkpt lat="47.58688" lon="6.73654">
        <ele>331</ele>
        <time>2016-12-04T10:29:46.000Z</time>
      </trkpt>
      <trkpt lat="47.58691" lon="6.7365">
        <ele>331</ele>
        <time>2016-12-04T10:29:47.000Z</time>
      </trkpt>
      <trkpt lat="47.58694" lon="6.73644">
        <ele>331</ele>
        <time>2016-12-04T10:29:48.000Z</time>
      </trkpt>
      <trkpt lat="47.58697" lon="6.73639">
        <ele>331</ele>
        <time>2016-12-04T10:29:49.000Z</time>
      </trkpt>
      <trkpt lat="47.58699" lon="6.73635">
        <ele>331</ele>
        <time>2016-12-04T10:29:50.000Z</time>
      </trkpt>
      <trkpt lat="47.58701" lon="6.73632">
        <ele>331</ele>
        <time>2016-12-04T10:29:51.000Z</time>
      </trkpt>
      <trkpt lat="47.58703" lon="6.73627">
        <ele>331</ele>
        <time>2016-12-04T10:29:52.000Z</time>
      </trkpt>
      <trkpt lat="47.58704" lon="6.73621">
        <ele>331</ele>
        <time>2016-12-04T10:29:53.000Z</time>
      </trkpt>
      <trkpt lat="47.58703" lon="6.73616">
        <ele>331</ele>
        <time>2016-12-04T10:29:54.000Z</time>
      </trkpt>
      <trkpt lat="47.58701" lon="6.73613">
        <ele>331</ele>
        <time>2016-12-04T10:29:55.000Z</time>
      </trkpt>
      <trkpt lat="47.58697" lon="6.73611">
        <ele>331</ele>
        <time>2016-12-04T10:29:56.000Z</time>
      </trkpt>
      <trkpt lat="47.58692" lon="6.73609">
        <ele>331</ele>
        <time>2016-12-04T10:29:57.000Z</time>
      </trkpt>
      <trkpt lat="47.58688" lon="6.7361">
        <ele>331</ele>
        <time>2016-12-04T10:29:58.000Z</time>
      </trkpt>
      <trkpt lat="47.58684" lon="6.73612">
        <ele>331</ele>
        <time>2016-12-04T10:29:59.000Z</time>
      </trkpt>
      <trkpt lat="47.58679" lon="6.73613">
        <ele>331</ele>
        <time>2016-12-04T10:30:00.000Z</time>
      </trkpt>
      <trkpt lat="47.58676" lon="6.73614">
        <ele>331</ele>
        <time>2016-12-04T10:30:01.000Z</time>
      </trkpt>
      <trkpt lat="47.58671" lon="6.73614">
        <ele>331</ele>
        <time>2016-12-04T10:30:02.000Z</time>
      </trkpt>
      <trkpt lat="47.58668" lon="6.73615">
        <ele>331</ele>
        <time>2016-12-04T10:30:03.000Z</time>
      </trkpt>
      <trkpt lat="47.58664" lon="6.73616">
        <ele>331</ele>
        <time>2016-12-04T10:30:04.000Z</time>
      </trkpt>
      <trkpt lat="47.58659" lon="6.73617">
        <ele>331</ele>
        <time>2016-12-04T10:30:05.000Z</time>
      </trkpt>
      <trkpt lat="47.58656" lon="6.73617">
        <ele>331</ele>
        <time>2016-12-04T10:30:06.000Z</time>
      </trkpt>
      <trkpt lat="47.58651" lon="6.73618">
        <ele>331</ele>
        <time>2016-12-04T10:30:07.000Z</time>
      </trkpt>
      <trkpt lat="47.58646" lon="6.73618">
        <ele>331</ele>
        <time>2016-12-04T10:30:08.000Z</time>
      </trkpt>
      <trkpt lat="47.5864" lon="6.73619">
        <ele>331</ele>
        <time>2016-12-04T10:30:09.000Z</time>
      </trkpt>
      <trkpt lat="47.58636" lon="6.7362">
        <ele>331</ele>
        <time>2016-12-04T10:30:10.000Z</time>
      </trkpt>
      <trkpt lat="47.58631" lon="6.73622">
        <ele>331</ele>
        <time>2016-12-04T10:30:11.000Z</time>
      </trkpt>
      <trkpt lat="47.58626" lon="6.73623">
        <ele>331</ele>
        <time>2016-12-04T10:30:12.000Z</time>
      </trkpt>
      <trkpt lat="47.58624" lon="6.73624">
        <ele>331</ele>
        <time>2016-12-04T10:30:13.000Z</time>
      </trkpt>
      <trkpt lat="47.5862" lon="6.73625">
        <ele>331</ele>
        <time>2016-12-04T10:30:14.000Z</time>
      </trkpt>
      <trkpt lat="47.58616" lon="6.73626">
        <ele>331</ele>
        <time>2016-12-04T10:30:15.000Z</time>
      </trkpt>
      <trkpt lat="47.58612" lon="6.73627">
        <ele>331</ele>
        <time>2016-12-04T10:30:16.000Z</time>
      </trkpt>
      <trkpt lat="47.58607" lon="6.73628">
        <ele>331</ele>
        <time>2016-12-04T10:30:17.000Z</time>
      </trkpt>
      <trkpt lat="47.58602" lon="6.73628">
        <ele>331</ele>
        <time>2016-12-04T10:30:18.000Z</time>
      </trkpt>
      <trkpt lat="47.58597" lon="6.73629">
        <ele>331</ele>
        <time>2016-12-04T10:30:19.000Z</time>
      </trkpt>
      <trkpt lat="47.58594" lon="6.7363">
        <ele>331</ele>
        <time>2016-12-04T10:30:20.000Z</time>
      </trkpt>
      <trkpt lat="47.58589" lon="6.73631">
        <ele>331</ele>
        <time>2016-12-04T10:30:21.000Z</time>
      </trkpt>
      <trkpt lat="47.58585" lon="6.73632">
        <ele>331</ele>
        <time>2016-12-04T10:30:22.000Z</time>
      </trkpt>
      <trkpt lat="47.58581" lon="6.73633">
        <ele>332</ele>
        <time>2016-12-04T10:30:23.000Z</time>
      </trkpt>
      <trkpt lat="47.58576" lon="6.73635">
        <ele>332</ele>
        <time>2016-12-04T10:30:24.000Z</time>
      </trkpt>
      <trkpt lat="47.58572" lon="6.73636">
        <ele>332</ele>
        <time>2016-12-04T10:30:25.000Z</time>
      </trkpt>
      <trkpt lat="47.58567" lon="6.73637">
        <ele>332</ele>
        <time>2016-12-04T10:30:26.000Z</time>
      </trkpt>
      <trkpt lat="47.58562" lon="6.73638">
        <ele>332</ele>
        <time>2016-12-04T10:30:27.000Z</time>
      </trkpt>
      <trkpt lat="47.58557" lon="6.73639">
        <ele>333</ele>
        <time>2016-12-04T10:30:28.000Z</time>
      </trkpt>
      <trkpt lat="47.58553" lon="6.7364">
        <ele>333</ele>
        <time>2016-12-04T10:30:29.000Z</time>
      </trkpt>
      <trkpt lat="47.58549" lon="6.73641">
        <ele>333</ele>
        <time>2016-12-04T10:30:30.000Z</time>
      </trkpt>
      <trkpt lat="47.58546" lon="6.73641">
        <ele>333</ele>
        <time>2016-12-04T10:30:31.000Z</time>
      </trkpt>
      <trkpt lat="47.58543" lon="6.73643">
        <ele>333</ele>
        <time>2016-12-04T10:30:32.000Z</time>
      </trkpt>
      <trkpt lat="47.58539" lon="6.73645">
        <ele>333</ele>
        <time>2016-12-04T10:30:33.000Z</time>
      </trkpt>
      <trkpt lat="47.58536" lon="6.73646">
        <ele>333</ele>
        <time>2016-12-04T10:30:34.000Z</time>
      </trkpt>
      <trkpt lat="47.58532" lon="6.73648">
        <ele>333</ele>
        <time>2016-12-04T10:30:35.000Z</time>
      </trkpt>
      <trkpt lat="47.5853" lon="6.73649">
        <ele>333</ele>
        <time>2016-12-04T10:30:36.000Z</time>
      </trkpt>
      <trkpt lat="47.58528" lon="6.7365">
        <ele>333</ele>
        <time>2016-12-04T10:30:37.000Z</time>
      </trkpt>
      <trkpt lat="47.58526" lon="6.73651">
        <ele>334</ele>
        <time>2016-12-04T10:30:38.000Z</time>
      </trkpt>
      <trkpt lat="47.58523" lon="6.73652">
        <ele>334</ele>
        <time>2016-12-04T10:30:39.000Z</time>
      </trkpt>
      <trkpt lat="47.5852" lon="6.73654">
        <ele>334</ele>
        <time>2016-12-04T10:30:40.000Z</time>
      </trkpt>
      <trkpt lat="47.58516" lon="6.73658">
        <ele>334</ele>
        <time>2016-12-04T10:30:42.000Z</time>
      </trkpt>
      <trkpt lat="47.58513" lon="6.73661">
        <ele>334</ele>
        <time>2016-12-04T10:30:43.000Z</time>
      </trkpt>
      <trkpt lat="47.58511" lon="6.73663">
        <ele>334</ele>
        <time>2016-12-04T10:30:44.000Z</time>
      </trkpt>
      <trkpt lat="47.58509" lon="6.73662">
        <ele>334</ele>
        <time>2016-12-04T10:30:45.000Z</time>
      </trkpt>
      <trkpt lat="47.58505" lon="6.73658">
        <ele>334</ele>
        <time>2016-12-04T10:30:47.000Z</time>
      </trkpt>
      <trkpt lat="47.58504" lon="6.73655">
        <ele>334</ele>
        <time>2016-12-04T10:30:48.000Z</time>
      </trkpt>
      <trkpt lat="47.58503" lon="6.73651">
        <ele>334</ele>
        <time>2016-12-04T10:30:49.000Z</time>
      </trkpt>
      <trkpt lat="47.58504" lon="6.73646">
        <ele>334</ele>
        <time>2016-12-04T10:30:50.000Z</time>
      </trkpt>
      <trkpt lat="47.58504" lon="6.7364">
        <ele>334</ele>
        <time>2016-12-04T10:30:51.000Z</time>
      </trkpt>
      <trkpt lat="47.58505" lon="6.73634">
        <ele>334</ele>
        <time>2016-12-04T10:30:52.000Z</time>
      </trkpt>
      <trkpt lat="47.58505" lon="6.7363">
        <ele>334</ele>
        <time>2016-12-04T10:30:53.000Z</time>
      </trkpt>
      <trkpt lat="47.58507" lon="6.73624">
        <ele>334</ele>
        <time>2016-12-04T10:30:54.000Z</time>
      </trkpt>
      <trkpt lat="47.58508" lon="6.7362">
        <ele>334</ele>
        <time>2016-12-04T10:30:55.000Z</time>
      </trkpt>
      <trkpt lat="47.58509" lon="6.73616">
        <ele>334</ele>
        <time>2016-12-04T10:30:56.000Z</time>
      </trkpt>
      <trkpt lat="47.58511" lon="6.73611">
        <ele>334</ele>
        <time>2016-12-04T10:30:57.000Z</time>
      </trkpt>
      <trkpt lat="47.58512" lon="6.73606">
        <ele>334</ele>
        <time>2016-12-04T10:30:58.000Z</time>
      </trkpt>
      <trkpt lat="47.58514" lon="6.73601">
        <ele>334</ele>
        <time>2016-12-04T10:30:59.000Z</time>
      </trkpt>
      <trkpt lat="47.58515" lon="6.73596">
        <ele>334</ele>
        <time>2016-12-04T10:31:00.000Z</time>
      </trkpt>
      <trkpt lat="47.58517" lon="6.7359">
        <ele>334</ele>
        <time>2016-12-04T10:31:01.000Z</time>
      </trkpt>
      <trkpt lat="47.58519" lon="6.73585">
        <ele>334</ele>
        <time>2016-12-04T10:31:02.000Z</time>
      </trkpt>
      <trkpt lat="47.58521" lon="6.7358">
        <ele>334</ele>
        <time>2016-12-04T10:31:03.000Z</time>
      </trkpt>
      <trkpt lat="47.58524" lon="6.73574">
        <ele>334</ele>
        <time>2016-12-04T10:31:04.000Z</time>
      </trkpt>
      <trkpt lat="47.58525" lon="6.73569">
        <ele>334</ele>
        <time>2016-12-04T10:31:05.000Z</time>
      </trkpt>
      <trkpt lat="47.58527" lon="6.73565">
        <ele>334</ele>
        <time>2016-12-04T10:31:06.000Z</time>
      </trkpt>
      <trkpt lat="47.58529" lon="6.73559">
        <ele>334</ele>
        <time>2016-12-04T10:31:07.000Z</time>
      </trkpt>
      <trkpt lat="47.5853" lon="6.73554">
        <ele>334</ele>
        <time>2016-12-04T10:31:08.000Z</time>
      </trkpt>
      <trkpt lat="47.58532" lon="6.73548">
        <ele>334</ele>
        <time>2016-12-04T10:31:09.000Z</time>
      </trkpt>
      <trkpt lat="47.58534" lon="6.73542">
        <ele>334</ele>
        <time>2016-12-04T10:31:10.000Z</time>
      </trkpt>
      <trkpt lat="47.58535" lon="6.73537">
        <ele>334</ele>
        <time>2016-12-04T10:31:11.000Z</time>
      </trkpt>
      <trkpt lat="47.58536" lon="6.73531">
        <ele>334</ele>
        <time>2016-12-04T10:31:12.000Z</time>
      </trkpt>
      <trkpt lat="47.58538" lon="6.73525">
        <ele>334</ele>
        <time>2016-12-04T10:31:13.000Z</time>
      </trkpt>
      <trkpt lat="47.58539" lon="6.73519">
        <ele>334</ele>
        <time>2016-12-04T10:31:14.000Z</time>
      </trkpt>
      <trkpt lat="47.58541" lon="6.73513">
        <ele>334</ele>
        <time>2016-12-04T10:31:15.000Z</time>
      </trkpt>
      <trkpt lat="47.58543" lon="6.73507">
        <ele>334</ele>
        <time>2016-12-04T10:31:16.000Z</time>
      </trkpt>
      <trkpt lat="47.58545" lon="6.73501">
        <ele>334</ele>
        <time>2016-12-04T10:31:17.000Z</time>
      </trkpt>
      <trkpt lat="47.58547" lon="6.73496">
        <ele>335</ele>
        <time>2016-12-04T10:31:18.000Z</time>
      </trkpt>
      <trkpt lat="47.58549" lon="6.73491">
        <ele>335</ele>
        <time>2016-12-04T10:31:19.000Z</time>
      </trkpt>
      <trkpt lat="47.58551" lon="6.73486">
        <ele>335</ele>
        <time>2016-12-04T10:31:20.000Z</time>
      </trkpt>
      <trkpt lat="47.58553" lon="6.73482">
        <ele>335</ele>
        <time>2016-12-04T10:31:21.000Z</time>
      </trkpt>
      <trkpt lat="47.58555" lon="6.73478">
        <ele>335</ele>
        <time>2016-12-04T10:31:22.000Z</time>
      </trkpt>
      <trkpt lat="47.58557" lon="6.73474">
        <ele>335</ele>
        <time>2016-12-04T10:31:23.000Z</time>
      </trkpt>
      <trkpt lat="47.58558" lon="6.7347">
        <ele>335</ele>
        <time>2016-12-04T10:31:24.000Z</time>
      </trkpt>
      <trkpt lat="47.5856" lon="6.73466">
        <ele>335</ele>
        <time>2016-12-04T10:31:25.000Z</time>
      </trkpt>
      <trkpt lat="47.58562" lon="6.73461">
        <ele>335</ele>
        <time>2016-12-04T10:31:27.000Z</time>
      </trkpt>
      <trkpt lat="47.58564" lon="6.73458">
        <ele>335</ele>
        <time>2016-12-04T10:31:28.000Z</time>
      </trkpt>
      <trkpt lat="47.58566" lon="6.73455">
        <ele>334</ele>
        <time>2016-12-04T10:31:30.000Z</time>
      </trkpt>
      <trkpt lat="47.58568" lon="6.73453">
        <ele>334</ele>
        <time>2016-12-04T10:31:31.000Z</time>
      </trkpt>
      <trkpt lat="47.58569" lon="6.73449">
        <ele>334</ele>
        <time>2016-12-04T10:31:32.000Z</time>
      </trkpt>
      <trkpt lat="47.5857" lon="6.73446">
        <ele>334</ele>
        <time>2016-12-04T10:31:33.000Z</time>
      </trkpt>
      <trkpt lat="47.58571" lon="6.73441">
        <ele>334</ele>
        <time>2016-12-04T10:31:34.000Z</time>
      </trkpt>
      <trkpt lat="47.58571" lon="6.73436">
        <ele>334</ele>
        <time>2016-12-04T10:31:35.000Z</time>
      </trkpt>
      <trkpt lat="47.58571" lon="6.73433">
        <ele>334</ele>
        <time>2016-12-04T10:31:36.000Z</time>
      </trkpt>
      <trkpt lat="47.5857" lon="6.73429">
        <ele>334</ele>
        <time>2016-12-04T10:31:37.000Z</time>
      </trkpt>
      <trkpt lat="47.58568" lon="6.73427">
        <ele>334</ele>
        <time>2016-12-04T10:31:38.000Z</time>
      </trkpt>
      <trkpt lat="47.58566" lon="6.73424">
        <ele>334</ele>
        <time>2016-12-04T10:31:39.000Z</time>
      </trkpt>
      <trkpt lat="47.58562" lon="6.73424">
        <ele>334</ele>
        <time>2016-12-04T10:31:40.000Z</time>
      </trkpt>
      <trkpt lat="47.58558" lon="6.73424">
        <ele>334</ele>
        <time>2016-12-04T10:31:41.000Z</time>
      </trkpt>
      <trkpt lat="47.58555" lon="6.73425">
        <ele>335</ele>
        <time>2016-12-04T10:31:42.000Z</time>
      </trkpt>
      <trkpt lat="47.58552" lon="6.73425">
        <ele>335</ele>
        <time>2016-12-04T10:31:43.000Z</time>
      </trkpt>
      <trkpt lat="47.58549" lon="6.73425">
        <ele>335</ele>
        <time>2016-12-04T10:31:44.000Z</time>
      </trkpt>
      <trkpt lat="47.58545" lon="6.73426">
        <ele>335</ele>
        <time>2016-12-04T10:31:45.000Z</time>
      </trkpt>
      <trkpt lat="47.58542" lon="6.73427">
        <ele>335</ele>
        <time>2016-12-04T10:31:46.000Z</time>
      </trkpt>
      <trkpt lat="47.58539" lon="6.73428">
        <ele>336</ele>
        <time>2016-12-04T10:31:47.000Z</time>
      </trkpt>
      <trkpt lat="47.58535" lon="6.73431">
        <ele>336</ele>
        <time>2016-12-04T10:31:48.000Z</time>
      </trkpt>
      <trkpt lat="47.58533" lon="6.73434">
        <ele>336</ele>
        <time>2016-12-04T10:31:49.000Z</time>
      </trkpt>
      <trkpt lat="47.5853" lon="6.73438">
        <ele>336</ele>
        <time>2016-12-04T10:31:50.000Z</time>
      </trkpt>
      <trkpt lat="47.58528" lon="6.73442">
        <ele>336</ele>
        <time>2016-12-04T10:31:51.000Z</time>
      </trkpt>
      <trkpt lat="47.58526" lon="6.73444">
        <ele>336</ele>
        <time>2016-12-04T10:31:52.000Z</time>
      </trkpt>
      <trkpt lat="47.58524" lon="6.73447">
        <ele>336</ele>
        <time>2016-12-04T10:31:53.000Z</time>
      </trkpt>
      <trkpt lat="47.58522" lon="6.73449">
        <ele>336</ele>
        <time>2016-12-04T10:31:54.000Z</time>
      </trkpt>
      <trkpt lat="47.5852" lon="6.73452">
        <ele>336</ele>
        <time>2016-12-04T10:31:55.000Z</time>
      </trkpt>
      <trkpt lat="47.58517" lon="6.73455">
        <ele>336</ele>
        <time>2016-12-04T10:31:56.000Z</time>
      </trkpt>
      <trkpt lat="47.58515" lon="6.73456">
        <ele>336</ele>
        <time>2016-12-04T10:31:57.000Z</time>
      </trkpt>
      <trkpt lat="47.58512" lon="6.73459">
        <ele>336</ele>
        <time>2016-12-04T10:31:58.000Z</time>
      </trkpt>
      <trkpt lat="47.58509" lon="6.73462">
        <ele>336</ele>
        <time>2016-12-04T10:31:59.000Z</time>
      </trkpt>
      <trkpt lat="47.58507" lon="6.73465">
        <ele>336</ele>
        <time>2016-12-04T10:32:00.000Z</time>
      </trkpt>
      <trkpt lat="47.58505" lon="6.73468">
        <ele>336</ele>
        <time>2016-12-04T10:32:01.000Z</time>
      </trkpt>
      <trkpt lat="47.58502" lon="6.73471">
        <ele>336</ele>
        <time>2016-12-04T10:32:02.000Z</time>
      </trkpt>
      <trkpt lat="47.58499" lon="6.73474">
        <ele>342</ele>
        <time>2016-12-04T10:32:03.000Z</time>
      </trkpt>
      <trkpt lat="47.58497" lon="6.73477">
        <ele>342</ele>
        <time>2016-12-04T10:32:04.000Z</time>
      </trkpt>
      <trkpt lat="47.58494" lon="6.7348">
        <ele>342</ele>
        <time>2016-12-04T10:32:05.000Z</time>
      </trkpt>
      <trkpt lat="47.58491" lon="6.73482">
        <ele>342</ele>
        <time>2016-12-04T10:32:06.000Z</time>
      </trkpt>
      <trkpt lat="47.58489" lon="6.73485">
        <ele>341</ele>
        <time>2016-12-04T10:32:07.000Z</time>
      </trkpt>
      <trkpt lat="47.58487" lon="6.73488">
        <ele>341</ele>
        <time>2016-12-04T10:32:08.000Z</time>
      </trkpt>
      <trkpt lat="47.58484" lon="6.73491">
        <ele>341</ele>
        <time>2016-12-04T10:32:09.000Z</time>
      </trkpt>
      <trkpt lat="47.58482" lon="6.73493">
        <ele>342</ele>
        <time>2016-12-04T10:32:10.000Z</time>
      </trkpt>
      <trkpt lat="47.5848" lon="6.73496">
        <ele>342</ele>
        <time>2016-12-04T10:32:11.000Z</time>
      </trkpt>
      <trkpt lat="47.58477" lon="6.73499">
        <ele>342</ele>
        <time>2016-12-04T10:32:12.000Z</time>
      </trkpt>
      <trkpt lat="47.58474" lon="6.73504">
        <ele>340</ele>
        <time>2016-12-04T10:32:13.000Z</time>
      </trkpt>
      <trkpt lat="47.58471" lon="6.73508">
        <ele>340</ele>
        <time>2016-12-04T10:32:14.000Z</time>
      </trkpt>
      <trkpt lat="47.58469" lon="6.73511">
        <ele>341</ele>
        <time>2016-12-04T10:32:15.000Z</time>
      </trkpt>
      <trkpt lat="47.58467" lon="6.73513">
        <ele>341</ele>
        <time>2016-12-04T10:32:16.000Z</time>
      </trkpt>
      <trkpt lat="47.58464" lon="6.73516">
        <ele>341</ele>
        <time>2016-12-04T10:32:17.000Z</time>
      </trkpt>
      <trkpt lat="47.58462" lon="6.73519">
        <ele>341</ele>
        <time>2016-12-04T10:32:18.000Z</time>
      </trkpt>
      <trkpt lat="47.58459" lon="6.73523">
        <ele>341</ele>
        <time>2016-12-04T10:32:19.000Z</time>
      </trkpt>
      <trkpt lat="47.58456" lon="6.73527">
        <ele>341</ele>
        <time>2016-12-04T10:32:20.000Z</time>
      </trkpt>
      <trkpt lat="47.58454" lon="6.7353">
        <ele>342</ele>
        <time>2016-12-04T10:32:21.000Z</time>
      </trkpt>
      <trkpt lat="47.58452" lon="6.73533">
        <ele>342</ele>
        <time>2016-12-04T10:32:22.000Z</time>
      </trkpt>
      <trkpt lat="47.58449" lon="6.73536">
        <ele>342</ele>
        <time>2016-12-04T10:32:23.000Z</time>
      </trkpt>
      <trkpt lat="47.58446" lon="6.73538">
        <ele>342</ele>
        <time>2016-12-04T10:32:24.000Z</time>
      </trkpt>
      <trkpt lat="47.58443" lon="6.7354">
        <ele>342</ele>
        <time>2016-12-04T10:32:25.000Z</time>
      </trkpt>
      <trkpt lat="47.5844" lon="6.73543">
        <ele>342</ele>
        <time>2016-12-04T10:32:26.000Z</time>
      </trkpt>
      <trkpt lat="47.58437" lon="6.73546">
        <ele>342</ele>
        <time>2016-12-04T10:32:27.000Z</time>
      </trkpt>
      <trkpt lat="47.58434" lon="6.7355">
        <ele>342</ele>
        <time>2016-12-04T10:32:28.000Z</time>
      </trkpt>
      <trkpt lat="47.58432" lon="6.73553">
        <ele>342</ele>
        <time>2016-12-04T10:32:29.000Z</time>
      </trkpt>
      <trkpt lat="47.58429" lon="6.73556">
        <ele>342</ele>
        <time>2016-12-04T10:32:30.000Z</time>
      </trkpt>
      <trkpt lat="47.58426" lon="6.7356">
        <ele>342</ele>
        <time>2016-12-04T10:32:31.000Z</time>
      </trkpt>
      <trkpt lat="47.58423" lon="6.73564">
        <ele>342</ele>
        <time>2016-12-04T10:32:32.000Z</time>
      </trkpt>
      <trkpt lat="47.58421" lon="6.73565">
        <ele>342</ele>
        <time>2016-12-04T10:32:33.000Z</time>
      </trkpt>
      <trkpt lat="47.58418" lon="6.73569">
        <ele>342</ele>
        <time>2016-12-04T10:32:34.000Z</time>
      </trkpt>
      <trkpt lat="47.58416" lon="6.73572">
        <ele>347</ele>
        <time>2016-12-04T10:32:35.000Z</time>
      </trkpt>
      <trkpt lat="47.58413" lon="6.73575">
        <ele>347</ele>
        <time>2016-12-04T10:32:36.000Z</time>
      </trkpt>
      <trkpt lat="47.58411" lon="6.73578">
        <ele>347</ele>
        <time>2016-12-04T10:32:37.000Z</time>
      </trkpt>
      <trkpt lat="47.58408" lon="6.73582">
        <ele>347</ele>
        <time>2016-12-04T10:32:38.000Z</time>
      </trkpt>
      <trkpt lat="47.58405" lon="6.73585">
        <ele>346</ele>
        <time>2016-12-04T10:32:39.000Z</time>
      </trkpt>
      <trkpt lat="47.58402" lon="6.73588">
        <ele>347</ele>
        <time>2016-12-04T10:32:40.000Z</time>
      </trkpt>
      <trkpt lat="47.58401" lon="6.7359">
        <ele>347</ele>
        <time>2016-12-04T10:32:41.000Z</time>
      </trkpt>
      <trkpt lat="47.58399" lon="6.73592">
        <ele>347</ele>
        <time>2016-12-04T10:32:42.000Z</time>
      </trkpt>
      <trkpt lat="47.58396" lon="6.73596">
        <ele>348</ele>
        <time>2016-12-04T10:32:43.000Z</time>
      </trkpt>
      <trkpt lat="47.58393" lon="6.73599">
        <ele>348</ele>
        <time>2016-12-04T10:32:44.000Z</time>
      </trkpt>
      <trkpt lat="47.5839" lon="6.73601">
        <ele>349</ele>
        <time>2016-12-04T10:32:45.000Z</time>
      </trkpt>
      <trkpt lat="47.58387" lon="6.73604">
        <ele>349</ele>
        <time>2016-12-04T10:32:46.000Z</time>
      </trkpt>
      <trkpt lat="47.58385" lon="6.73606">
        <ele>349</ele>
        <time>2016-12-04T10:32:47.000Z</time>
      </trkpt>
      <trkpt lat="47.58382" lon="6.73608">
        <ele>350</ele>
        <time>2016-12-04T10:32:48.000Z</time>
      </trkpt>
      <trkpt lat="47.5838" lon="6.73609">
        <ele>350</ele>
        <time>2016-12-04T10:32:49.000Z</time>
      </trkpt>
      <trkpt lat="47.58379" lon="6.73611">
        <ele>350</ele>
        <time>2016-12-04T10:32:50.000Z</time>
      </trkpt>
      <trkpt lat="47.58377" lon="6.73614">
        <ele>350</ele>
        <time>2016-12-04T10:32:51.000Z</time>
      </trkpt>
      <trkpt lat="47.58375" lon="6.73616">
        <ele>350</ele>
        <time>2016-12-04T10:32:52.000Z</time>
      </trkpt>
      <trkpt lat="47.58373" lon="6.73619">
        <ele>351</ele>
        <time>2016-12-04T10:32:53.000Z</time>
      </trkpt>
      <trkpt lat="47.5837" lon="6.7362">
        <ele>351</ele>
        <time>2016-12-04T10:32:54.000Z</time>
      </trkpt>
      <trkpt lat="47.58368" lon="6.73622">
        <ele>351</ele>
        <time>2016-12-04T10:32:55.000Z</time>
      </trkpt>
      <trkpt lat="47.58366" lon="6.73624">
        <ele>351</ele>
        <time>2016-12-04T10:32:56.000Z</time>
      </trkpt>
      <trkpt lat="47.58365" lon="6.73626">
        <ele>351</ele>
        <time>2016-12-04T10:32:57.000Z</time>
      </trkpt>
      <trkpt lat="47.58363" lon="6.73629">
        <ele>351</ele>
        <time>2016-12-04T10:32:58.000Z</time>
      </trkpt>
      <trkpt lat="47.58362" lon="6.73632">
        <ele>351</ele>
        <time>2016-12-04T10:32:59.000Z</time>
      </trkpt>
      <trkpt lat="47.58359" lon="6.73635">
        <ele>351</ele>
        <time>2016-12-04T10:33:01.000Z</time>
      </trkpt>
      <trkpt lat="47.58358" lon="6.73637">
        <ele>351</ele>
        <time>2016-12-04T10:33:02.000Z</time>
      </trkpt>
      <trkpt lat="47.58355" lon="6.73641">
        <ele>352</ele>
        <time>2016-12-04T10:33:05.000Z</time>
      </trkpt>
      <trkpt lat="47.58354" lon="6.73641">
        <ele>352</ele>
        <time>2016-12-04T10:33:06.000Z</time>
      </trkpt>
      <trkpt lat="47.58354" lon="6.73641">
        <ele>352</ele>
        <time>2016-12-04T10:33:09.000Z</time>
      </trkpt>
      <trkpt lat="47.58347" lon="6.73646">
        <ele>352</ele>
        <time>2016-12-04T10:33:10.000Z</time>
      </trkpt>
      <trkpt lat="47.58344" lon="6.73649">
        <ele>352</ele>
        <time>2016-12-04T10:33:12.000Z</time>
      </trkpt>
      <trkpt lat="47.58342" lon="6.73651">
        <ele>352</ele>
        <time>2016-12-04T10:33:13.000Z</time>
      </trkpt>
      <trkpt lat="47.5834" lon="6.73653">
        <ele>353</ele>
        <time>2016-12-04T10:33:14.000Z</time>
      </trkpt>
      <trkpt lat="47.58337" lon="6.73656">
        <ele>353</ele>
        <time>2016-12-04T10:33:15.000Z</time>
      </trkpt>
      <trkpt lat="47.58335" lon="6.73658">
        <ele>353</ele>
        <time>2016-12-04T10:33:16.000Z</time>
      </trkpt>
      <trkpt lat="47.58334" lon="6.7366">
        <ele>353</ele>
        <time>2016-12-04T10:33:17.000Z</time>
      </trkpt>
      <trkpt lat="47.58331" lon="6.73663">
        <ele>354</ele>
        <time>2016-12-04T10:33:18.000Z</time>
      </trkpt>
      <trkpt lat="47.58329" lon="6.73665">
        <ele>354</ele>
        <time>2016-12-04T10:33:19.000Z</time>
      </trkpt>
      <trkpt lat="47.58326" lon="6.73666">
        <ele>355</ele>
        <time>2016-12-04T10:33:20.000Z</time>
      </trkpt>
      <trkpt lat="47.58323" lon="6.73667">
        <ele>353</ele>
        <time>2016-12-04T10:33:21.000Z</time>
      </trkpt>
      <trkpt lat="47.58321" lon="6.7367">
        <ele>353</ele>
        <time>2016-12-04T10:33:22.000Z</time>
      </trkpt>
      <trkpt lat="47.58319" lon="6.73673">
        <ele>353</ele>
        <time>2016-12-04T10:33:23.000Z</time>
      </trkpt>
      <trkpt lat="47.58317" lon="6.73675">
        <ele>353</ele>
        <time>2016-12-04T10:33:24.000Z</time>
      </trkpt>
      <trkpt lat="47.58314" lon="6.73678">
        <ele>352</ele>
        <time>2016-12-04T10:33:25.000Z</time>
      </trkpt>
      <trkpt lat="47.58311" lon="6.73683">
        <ele>352</ele>
        <time>2016-12-04T10:33:26.000Z</time>
      </trkpt>
      <trkpt lat="47.58308" lon="6.73688">
        <ele>352</ele>
        <time>2016-12-04T10:33:27.000Z</time>
      </trkpt>
      <trkpt lat="47.58305" lon="6.73692">
        <ele>352</ele>
        <time>2016-12-04T10:33:28.000Z</time>
      </trkpt>
      <trkpt lat="47.58303" lon="6.73696">
        <ele>352</ele>
        <time>2016-12-04T10:33:29.000Z</time>
      </trkpt>
      <trkpt lat="47.583" lon="6.737">
        <ele>352</ele>
        <time>2016-12-04T10:33:30.000Z</time>
      </trkpt>
      <trkpt lat="47.58298" lon="6.73702">
        <ele>352</ele>
        <time>2016-12-04T10:33:31.000Z</time>
      </trkpt>
      <trkpt lat="47.58296" lon="6.73704">
        <ele>351</ele>
        <time>2016-12-04T10:33:32.000Z</time>
      </trkpt>
      <trkpt lat="47.58293" lon="6.73707">
        <ele>351</ele>
        <time>2016-12-04T10:33:33.000Z</time>
      </trkpt>
      <trkpt lat="47.5829" lon="6.73709">
        <ele>351</ele>
        <time>2016-12-04T10:33:34.000Z</time>
      </trkpt>
      <trkpt lat="47.58286" lon="6.73712">
        <ele>351</ele>
        <time>2016-12-04T10:33:35.000Z</time>
      </trkpt>
      <trkpt lat="47.58283" lon="6.73714">
        <ele>351</ele>
        <time>2016-12-04T10:33:36.000Z</time>
      </trkpt>
      <trkpt lat="47.5828" lon="6.73715">
        <ele>351</ele>
        <time>2016-12-04T10:33:37.000Z</time>
      </trkpt>
      <trkpt lat="47.58277" lon="6.73716">
        <ele>351</ele>
        <time>2016-12-04T10:33:38.000Z</time>
      </trkpt>
      <trkpt lat="47.58274" lon="6.73716">
        <ele>350</ele>
        <time>2016-12-04T10:33:39.000Z</time>
      </trkpt>
      <trkpt lat="47.5827" lon="6.73717">
        <ele>350</ele>
        <time>2016-12-04T10:33:41.000Z</time>
      </trkpt>
      <trkpt lat="47.58268" lon="6.73718">
        <ele>350</ele>
        <time>2016-12-04T10:33:42.000Z</time>
      </trkpt>
      <trkpt lat="47.58265" lon="6.73719">
        <ele>350</ele>
        <time>2016-12-04T10:33:43.000Z</time>
      </trkpt>
      <trkpt lat="47.58262" lon="6.73718">
        <ele>350</ele>
        <time>2016-12-04T10:33:44.000Z</time>
      </trkpt>
      <trkpt lat="47.58258" lon="6.73717">
        <ele>350</ele>
        <time>2016-12-04T10:33:45.000Z</time>
      </trkpt>
      <trkpt lat="47.58255" lon="6.73715">
        <ele>350</ele>
        <time>2016-12-04T10:33:46.000Z</time>
      </trkpt>
      <trkpt lat="47.58251" lon="6.73714">
        <ele>350</ele>
        <time>2016-12-04T10:33:47.000Z</time>
      </trkpt>
      <trkpt lat="47.58248" lon="6.73715">
        <ele>346</ele>
        <time>2016-12-04T10:33:48.000Z</time>
      </trkpt>
      <trkpt lat="47.58245" lon="6.73715">
        <ele>346</ele>
        <time>2016-12-04T10:33:49.000Z</time>
      </trkpt>
      <trkpt lat="47.58242" lon="6.73715">
        <ele>346</ele>
        <time>2016-12-04T10:33:50.000Z</time>
      </trkpt>
      <trkpt lat="47.58238" lon="6.73716">
        <ele>346</ele>
        <time>2016-12-04T10:33:51.000Z</time>
      </trkpt>
      <trkpt lat="47.58236" lon="6.73717">
        <ele>346</ele>
        <time>2016-12-04T10:33:52.000Z</time>
      </trkpt>
      <trkpt lat="47.58233" lon="6.7372">
        <ele>346</ele>
        <time>2016-12-04T10:33:53.000Z</time>
      </trkpt>
      <trkpt lat="47.5823" lon="6.7372">
        <ele>346</ele>
        <time>2016-12-04T10:33:54.000Z</time>
      </trkpt>
      <trkpt lat="47.58226" lon="6.7372">
        <ele>346</ele>
        <time>2016-12-04T10:33:55.000Z</time>
      </trkpt>
      <trkpt lat="47.58222" lon="6.73718">
        <ele>346</ele>
        <time>2016-12-04T10:33:56.000Z</time>
      </trkpt>
      <trkpt lat="47.58219" lon="6.73717">
        <ele>346</ele>
        <time>2016-12-04T10:33:57.000Z</time>
      </trkpt>
      <trkpt lat="47.58215" lon="6.73714">
        <ele>346</ele>
        <time>2016-12-04T10:33:58.000Z</time>
      </trkpt>
      <trkpt lat="47.58211" lon="6.73711">
        <ele>346</ele>
        <time>2016-12-04T10:33:59.000Z</time>
      </trkpt>
      <trkpt lat="47.58208" lon="6.73706">
        <ele>346</ele>
        <time>2016-12-04T10:34:00.000Z</time>
      </trkpt>
      <trkpt lat="47.58205" lon="6.73702">
        <ele>346</ele>
        <time>2016-12-04T10:34:01.000Z</time>
      </trkpt>
      <trkpt lat="47.58201" lon="6.73697">
        <ele>346</ele>
        <time>2016-12-04T10:34:02.000Z</time>
      </trkpt>
      <trkpt lat="47.58198" lon="6.73693">
        <ele>346</ele>
        <time>2016-12-04T10:34:03.000Z</time>
      </trkpt>
      <trkpt lat="47.58195" lon="6.7369">
        <ele>346</ele>
        <time>2016-12-04T10:34:04.000Z</time>
      </trkpt>
      <trkpt lat="47.58199" lon="6.73686">
        <ele>346</ele>
        <time>2016-12-04T10:34:20.000Z</time>
      </trkpt>
      <trkpt lat="47.58199" lon="6.73686">
        <ele>346</ele>
        <time>2016-12-04T10:34:21.000Z</time>
      </trkpt>
      <trkpt lat="47.58203" lon="6.73687">
        <ele>346</ele>
        <time>2016-12-04T10:34:29.000Z</time>
      </trkpt>
      <trkpt lat="47.58204" lon="6.73687">
        <ele>346</ele>
        <time>2016-12-04T10:34:30.000Z</time>
      </trkpt>
      <trkpt lat="47.58201" lon="6.73683">
        <ele>346</ele>
        <time>2016-12-04T10:34:54.000Z</time>
      </trkpt>
      <trkpt lat="47.58199" lon="6.73681">
        <ele>346</ele>
        <time>2016-12-04T10:34:55.000Z</time>
      </trkpt>
      <trkpt lat="47.58197" lon="6.73679">
        <ele>346</ele>
        <time>2016-12-04T10:34:56.000Z</time>
      </trkpt>
      <trkpt lat="47.58194" lon="6.73676">
        <ele>346</ele>
        <time>2016-12-04T10:34:57.000Z</time>
      </trkpt>
      <trkpt lat="47.58191" lon="6.73674">
        <ele>346</ele>
        <time>2016-12-04T10:34:58.000Z</time>
      </trkpt>
      <trkpt lat="47.58188" lon="6.73671">
        <ele>346</ele>
        <time>2016-12-04T10:34:59.000Z</time>
      </trkpt>
      <trkpt lat="47.58186" lon="6.73669">
        <ele>346</ele>
        <time>2016-12-04T10:35:00.000Z</time>
      </trkpt>
      <trkpt lat="47.58184" lon="6.73666">
        <ele>348</ele>
        <time>2016-12-04T10:35:01.000Z</time>
      </trkpt>
      <trkpt lat="47.58181" lon="6.73663">
        <ele>348</ele>
        <time>2016-12-04T10:35:02.000Z</time>
      </trkpt>
      <trkpt lat="47.58179" lon="6.73661">
        <ele>348</ele>
        <time>2016-12-04T10:35:03.000Z</time>
      </trkpt>
      <trkpt lat="47.58176" lon="6.73658">
        <ele>348</ele>
        <time>2016-12-04T10:35:04.000Z</time>
      </trkpt>
      <trkpt lat="47.58173" lon="6.73655">
        <ele>348</ele>
        <time>2016-12-04T10:35:05.000Z</time>
      </trkpt>
      <trkpt lat="47.5817" lon="6.73651">
        <ele>348</ele>
        <time>2016-12-04T10:35:06.000Z</time>
      </trkpt>
      <trkpt lat="47.58168" lon="6.73648">
        <ele>349</ele>
        <time>2016-12-04T10:35:07.000Z</time>
      </trkpt>
      <trkpt lat="47.58165" lon="6.73645">
        <ele>347</ele>
        <time>2016-12-04T10:35:08.000Z</time>
      </trkpt>
      <trkpt lat="47.58163" lon="6.73641">
        <ele>347</ele>
        <time>2016-12-04T10:35:09.000Z</time>
      </trkpt>
      <trkpt lat="47.5816" lon="6.73638">
        <ele>347</ele>
        <time>2016-12-04T10:35:10.000Z</time>
      </trkpt>
      <trkpt lat="47.58157" lon="6.73634">
        <ele>347</ele>
        <time>2016-12-04T10:35:11.000Z</time>
      </trkpt>
      <trkpt lat="47.58155" lon="6.73631">
        <ele>347</ele>
        <time>2016-12-04T10:35:12.000Z</time>
      </trkpt>
      <trkpt lat="47.58153" lon="6.73628">
        <ele>347</ele>
        <time>2016-12-04T10:35:13.000Z</time>
      </trkpt>
      <trkpt lat="47.5815" lon="6.73625">
        <ele>348</ele>
        <time>2016-12-04T10:35:14.000Z</time>
      </trkpt>
      <trkpt lat="47.58147" lon="6.73622">
        <ele>348</ele>
        <time>2016-12-04T10:35:15.000Z</time>
      </trkpt>
      <trkpt lat="47.58145" lon="6.7362">
        <ele>348</ele>
        <time>2016-12-04T10:35:16.000Z</time>
      </trkpt>
      <trkpt lat="47.58142" lon="6.73617">
        <ele>348</ele>
        <time>2016-12-04T10:35:17.000Z</time>
      </trkpt>
      <trkpt lat="47.58139" lon="6.73615">
        <ele>348</ele>
        <time>2016-12-04T10:35:18.000Z</time>
      </trkpt>
      <trkpt lat="47.58136" lon="6.73613">
        <ele>348</ele>
        <time>2016-12-04T10:35:19.000Z</time>
      </trkpt>
      <trkpt lat="47.58134" lon="6.7361">
        <ele>348</ele>
        <time>2016-12-04T10:35:20.000Z</time>
      </trkpt>
      <trkpt lat="47.58131" lon="6.73608">
        <ele>348</ele>
        <time>2016-12-04T10:35:21.000Z</time>
      </trkpt>
      <trkpt lat="47.58128" lon="6.73605">
        <ele>348</ele>
        <time>2016-12-04T10:35:22.000Z</time>
      </trkpt>
      <trkpt lat="47.58125" lon="6.73603">
        <ele>348</ele>
        <time>2016-12-04T10:35:23.000Z</time>
      </trkpt>
      <trkpt lat="47.58123" lon="6.73601">
        <ele>348</ele>
        <time>2016-12-04T10:35:24.000Z</time>
      </trkpt>
      <trkpt lat="47.5812" lon="6.73599">
        <ele>348</ele>
        <time>2016-12-04T10:35:25.000Z</time>
      </trkpt>
      <trkpt lat="47.58117" lon="6.73597">
        <ele>348</ele>
        <time>2016-12-04T10:35:26.000Z</time>
      </trkpt>
      <trkpt lat="47.58114" lon="6.73594">
        <ele>348</ele>
        <time>2016-12-04T10:35:27.000Z</time>
      </trkpt>
      <trkpt lat="47.58111" lon="6.73591">
        <ele>348</ele>
        <time>2016-12-04T10:35:28.000Z</time>
      </trkpt>
      <trkpt lat="47.58108" lon="6.7359">
        <ele>347</ele>
        <time>2016-12-04T10:35:29.000Z</time>
      </trkpt>
      <trkpt lat="47.58104" lon="6.73588">
        <ele>347</ele>
        <time>2016-12-04T10:35:30.000Z</time>
      </trkpt>
      <trkpt lat="47.58101" lon="6.73587">
        <ele>347</ele>
        <time>2016-12-04T10:35:31.000Z</time>
      </trkpt>
      <trkpt lat="47.58097" lon="6.73586">
        <ele>347</ele>
        <time>2016-12-04T10:35:32.000Z</time>
      </trkpt>
      <trkpt lat="47.58094" lon="6.73585">
        <ele>347</ele>
        <time>2016-12-04T10:35:33.000Z</time>
      </trkpt>
      <trkpt lat="47.58091" lon="6.73584">
        <ele>347</ele>
        <time>2016-12-04T10:35:34.000Z</time>
      </trkpt>
      <trkpt lat="47.58087" lon="6.73583">
        <ele>348</ele>
        <time>2016-12-04T10:35:35.000Z</time>
      </trkpt>
      <trkpt lat="47.58085" lon="6.73581">
        <ele>348</ele>
        <time>2016-12-04T10:35:36.000Z</time>
      </trkpt>
      <trkpt lat="47.58083" lon="6.7358">
        <ele>347</ele>
        <time>2016-12-04T10:35:37.000Z</time>
      </trkpt>
      <trkpt lat="47.5808" lon="6.73579">
        <ele>348</ele>
        <time>2016-12-04T10:35:38.000Z</time>
      </trkpt>
      <trkpt lat="47.58078" lon="6.73578">
        <ele>348</ele>
        <time>2016-12-04T10:35:39.000Z</time>
      </trkpt>
      <trkpt lat="47.58075" lon="6.73576">
        <ele>348</ele>
        <time>2016-12-04T10:35:41.000Z</time>
      </trkpt>
      <trkpt lat="47.58072" lon="6.73575">
        <ele>348</ele>
        <time>2016-12-04T10:35:42.000Z</time>
      </trkpt>
      <trkpt lat="47.5807" lon="6.73574">
        <ele>349</ele>
        <time>2016-12-04T10:35:43.000Z</time>
      </trkpt>
      <trkpt lat="47.58068" lon="6.73573">
        <ele>349</ele>
        <time>2016-12-04T10:35:44.000Z</time>
      </trkpt>
      <trkpt lat="47.58063" lon="6.73573">
        <ele>349</ele>
        <time>2016-12-04T10:35:46.000Z</time>
      </trkpt>
      <trkpt lat="47.58061" lon="6.73573">
        <ele>349</ele>
        <time>2016-12-04T10:35:47.000Z</time>
      </trkpt>
      <trkpt lat="47.58058" lon="6.73574">
        <ele>349</ele>
        <time>2016-12-04T10:35:49.000Z</time>
      </trkpt>
      <trkpt lat="47.58056" lon="6.73574">
        <ele>349</ele>
        <time>2016-12-04T10:35:50.000Z</time>
      </trkpt>
      <trkpt lat="47.58053" lon="6.73576">
        <ele>349</ele>
        <time>2016-12-04T10:35:55.000Z</time>
      </trkpt>
      <trkpt lat="47.58052" lon="6.73579">
        <ele>349</ele>
        <time>2016-12-04T10:35:56.000Z</time>
      </trkpt>
      <trkpt lat="47.58051" lon="6.73584">
        <ele>346</ele>
        <time>2016-12-04T10:36:12.000Z</time>
      </trkpt>
      <trkpt lat="47.58051" lon="6.73585">
        <ele>346</ele>
        <time>2016-12-04T10:36:13.000Z</time>
      </trkpt>
      <trkpt lat="47.58054" lon="6.73586">
        <ele>346</ele>
        <time>2016-12-04T10:36:16.000Z</time>
      </trkpt>
      <trkpt lat="47.58056" lon="6.73586">
        <ele>346</ele>
        <time>2016-12-04T10:36:17.000Z</time>
      </trkpt>
      <trkpt lat="47.58058" lon="6.73587">
        <ele>346</ele>
        <time>2016-12-04T10:36:18.000Z</time>
      </trkpt>
      <trkpt lat="47.58061" lon="6.73588">
        <ele>346</ele>
        <time>2016-12-04T10:36:19.000Z</time>
      </trkpt>
      <trkpt lat="47.58063" lon="6.7359">
        <ele>346</ele>
        <time>2016-12-04T10:36:20.000Z</time>
      </trkpt>
      <trkpt lat="47.58066" lon="6.73592">
        <ele>346</ele>
        <time>2016-12-04T10:36:21.000Z</time>
      </trkpt>
      <trkpt lat="47.58069" lon="6.73593">
        <ele>346</ele>
        <time>2016-12-04T10:36:22.000Z</time>
      </trkpt>
      <trkpt lat="47.58072" lon="6.73594">
        <ele>346</ele>
        <time>2016-12-04T10:36:23.000Z</time>
      </trkpt>
      <trkpt lat="47.58076" lon="6.73595">
        <ele>346</ele>
        <time>2016-12-04T10:36:25.000Z</time>
      </trkpt>
      <trkpt lat="47.58078" lon="6.73596">
        <ele>346</ele>
        <time>2016-12-04T10:36:26.000Z</time>
      </trkpt>
      <trkpt lat="47.58081" lon="6.73598">
        <ele>346</ele>
        <time>2016-12-04T10:36:27.000Z</time>
      </trkpt>
      <trkpt lat="47.58084" lon="6.73599">
        <ele>347</ele>
        <time>2016-12-04T10:36:28.000Z</time>
      </trkpt>
      <trkpt lat="47.58087" lon="6.73601">
        <ele>347</ele>
        <time>2016-12-04T10:36:29.000Z</time>
      </trkpt>
      <trkpt lat="47.5809" lon="6.73606">
        <ele>347</ele>
        <time>2016-12-04T10:36:30.000Z</time>
      </trkpt>
      <trkpt lat="47.58092" lon="6.7361">
        <ele>347</ele>
        <time>2016-12-04T10:36:31.000Z</time>
      </trkpt>
      <trkpt lat="47.58095" lon="6.73614">
        <ele>347</ele>
        <time>2016-12-04T10:36:32.000Z</time>
      </trkpt>
      <trkpt lat="47.58098" lon="6.73617">
        <ele>347</ele>
        <time>2016-12-04T10:36:33.000Z</time>
      </trkpt>
      <trkpt lat="47.58102" lon="6.7362">
        <ele>347</ele>
        <time>2016-12-04T10:36:34.000Z</time>
      </trkpt>
      <trkpt lat="47.58106" lon="6.73623">
        <ele>347</ele>
        <time>2016-12-04T10:36:35.000Z</time>
      </trkpt>
      <trkpt lat="47.58109" lon="6.73625">
        <ele>347</ele>
        <time>2016-12-04T10:36:36.000Z</time>
      </trkpt>
      <trkpt lat="47.58112" lon="6.73627">
        <ele>347</ele>
        <time>2016-12-04T10:36:37.000Z</time>
      </trkpt>
      <trkpt lat="47.58113" lon="6.73629">
        <ele>347</ele>
        <time>2016-12-04T10:36:38.000Z</time>
      </trkpt>
      <trkpt lat="47.58111" lon="6.73628">
        <ele>347</ele>
        <time>2016-12-04T10:37:08.000Z</time>
      </trkpt>
      <trkpt lat="47.58109" lon="6.73627">
        <ele>347</ele>
        <time>2016-12-04T10:37:09.000Z</time>
      </trkpt>
      <trkpt lat="47.58105" lon="6.73626">
        <ele>347</ele>
        <time>2016-12-04T10:37:11.000Z</time>
      </trkpt>
      <trkpt lat="47.58103" lon="6.73627">
        <ele>347</ele>
        <time>2016-12-04T10:37:12.000Z</time>
      </trkpt>
      <trkpt lat="47.58099" lon="6.7363">
        <ele>347</ele>
        <time>2016-12-04T10:37:13.000Z</time>
      </trkpt>
      <trkpt lat="47.58092" lon="6.73632">
        <ele>347</ele>
        <time>2016-12-04T10:37:14.000Z</time>
      </trkpt>
      <trkpt lat="47.58087" lon="6.73628">
        <ele>347</ele>
        <time>2016-12-04T10:37:15.000Z</time>
      </trkpt>
      <trkpt lat="47.58083" lon="6.73624">
        <ele>346</ele>
        <time>2016-12-04T10:37:16.000Z</time>
      </trkpt>
      <trkpt lat="47.58077" lon="6.73621">
        <ele>346</ele>
        <time>2016-12-04T10:37:17.000Z</time>
      </trkpt>
      <trkpt lat="47.58073" lon="6.73619">
        <ele>346</ele>
        <time>2016-12-04T10:37:18.000Z</time>
      </trkpt>
      <trkpt lat="47.58069" lon="6.73617">
        <ele>346</ele>
        <time>2016-12-04T10:37:19.000Z</time>
      </trkpt>
      <trkpt lat="47.58065" lon="6.73615">
        <ele>346</ele>
        <time>2016-12-04T10:37:20.000Z</time>
      </trkpt>
      <trkpt lat="47.58061" lon="6.73614">
        <ele>346</ele>
        <time>2016-12-04T10:37:21.000Z</time>
      </trkpt>
      <trkpt lat="47.58058" lon="6.73614">
        <ele>346</ele>
        <time>2016-12-04T10:37:22.000Z</time>
      </trkpt>
      <trkpt lat="47.58054" lon="6.73614">
        <ele>346</ele>
        <time>2016-12-04T10:37:23.000Z</time>
      </trkpt>
      <trkpt lat="47.58049" lon="6.73614">
        <ele>346</ele>
        <time>2016-12-04T10:37:24.000Z</time>
      </trkpt>
      <trkpt lat="47.58045" lon="6.73613">
        <ele>346</ele>
        <time>2016-12-04T10:37:25.000Z</time>
      </trkpt>
      <trkpt lat="47.58041" lon="6.73614">
        <ele>345</ele>
        <time>2016-12-04T10:37:26.000Z</time>
      </trkpt>
      <trkpt lat="47.58037" lon="6.73615">
        <ele>345</ele>
        <time>2016-12-04T10:37:27.000Z</time>
      </trkpt>
      <trkpt lat="47.58033" lon="6.73615">
        <ele>345</ele>
        <time>2016-12-04T10:37:28.000Z</time>
      </trkpt>
      <trkpt lat="47.58029" lon="6.73615">
        <ele>345</ele>
        <time>2016-12-04T10:37:29.000Z</time>
      </trkpt>
      <trkpt lat="47.58026" lon="6.73614">
        <ele>345</ele>
        <time>2016-12-04T10:37:30.000Z</time>
      </trkpt>
      <trkpt lat="47.58022" lon="6.73613">
        <ele>345</ele>
        <time>2016-12-04T10:37:31.000Z</time>
      </trkpt>
      <trkpt lat="47.58018" lon="6.73611">
        <ele>345</ele>
        <time>2016-12-04T10:37:32.000Z</time>
      </trkpt>
      <trkpt lat="47.58014" lon="6.73607">
        <ele>345</ele>
        <time>2016-12-04T10:37:33.000Z</time>
      </trkpt>
      <trkpt lat="47.58012" lon="6.73603">
        <ele>345</ele>
        <time>2016-12-04T10:37:34.000Z</time>
      </trkpt>
      <trkpt lat="47.58011" lon="6.73599">
        <ele>345</ele>
        <time>2016-12-04T10:37:35.000Z</time>
      </trkpt>
      <trkpt lat="47.58009" lon="6.73593">
        <ele>345</ele>
        <time>2016-12-04T10:37:36.000Z</time>
      </trkpt>
      <trkpt lat="47.58007" lon="6.73587">
        <ele>344</ele>
        <time>2016-12-04T10:37:37.000Z</time>
      </trkpt>
      <trkpt lat="47.58004" lon="6.73581">
        <ele>345</ele>
        <time>2016-12-04T10:37:38.000Z</time>
      </trkpt>
      <trkpt lat="47.58001" lon="6.73579">
        <ele>345</ele>
        <time>2016-12-04T10:37:39.000Z</time>
      </trkpt>
      <trkpt lat="47.57998" lon="6.73578">
        <ele>345</ele>
        <time>2016-12-04T10:37:40.000Z</time>
      </trkpt>
      <trkpt lat="47.57994" lon="6.73577">
        <ele>346</ele>
        <time>2016-12-04T10:37:41.000Z</time>
      </trkpt>
      <trkpt lat="47.57989" lon="6.73576">
        <ele>347</ele>
        <time>2016-12-04T10:37:42.000Z</time>
      </trkpt>
      <trkpt lat="47.57984" lon="6.73576">
        <ele>347</ele>
        <time>2016-12-04T10:37:43.000Z</time>
      </trkpt>
      <trkpt lat="47.5798" lon="6.73575">
        <ele>347</ele>
        <time>2016-12-04T10:37:44.000Z</time>
      </trkpt>
      <trkpt lat="47.57975" lon="6.73574">
        <ele>348</ele>
        <time>2016-12-04T10:37:45.000Z</time>
      </trkpt>
      <trkpt lat="47.5797" lon="6.73574">
        <ele>348</ele>
        <time>2016-12-04T10:37:46.000Z</time>
      </trkpt>
      <trkpt lat="47.57966" lon="6.73575">
        <ele>348</ele>
        <time>2016-12-04T10:37:47.000Z</time>
      </trkpt>
      <trkpt lat="47.57962" lon="6.73576">
        <ele>348</ele>
        <time>2016-12-04T10:37:48.000Z</time>
      </trkpt>
      <trkpt lat="47.57956" lon="6.73576">
        <ele>348</ele>
        <time>2016-12-04T10:37:49.000Z</time>
      </trkpt>
      <trkpt lat="47.5795" lon="6.73576">
        <ele>348</ele>
        <time>2016-12-04T10:37:50.000Z</time>
      </trkpt>
      <trkpt lat="47.57945" lon="6.73577">
        <ele>348</ele>
        <time>2016-12-04T10:37:51.000Z</time>
      </trkpt>
      <trkpt lat="47.57941" lon="6.73578">
        <ele>348</ele>
        <time>2016-12-04T10:37:52.000Z</time>
      </trkpt>
      <trkpt lat="47.57937" lon="6.7358">
        <ele>348</ele>
        <time>2016-12-04T10:37:53.000Z</time>
      </trkpt>
      <trkpt lat="47.57933" lon="6.73582">
        <ele>347</ele>
        <time>2016-12-04T10:37:54.000Z</time>
      </trkpt>
      <trkpt lat="47.57929" lon="6.73585">
        <ele>345</ele>
        <time>2016-12-04T10:37:55.000Z</time>
      </trkpt>
      <trkpt lat="47.57925" lon="6.73588">
        <ele>345</ele>
        <time>2016-12-04T10:37:56.000Z</time>
      </trkpt>
      <trkpt lat="47.57921" lon="6.73592">
        <ele>345</ele>
        <time>2016-12-04T10:37:57.000Z</time>
      </trkpt>
      <trkpt lat="47.57918" lon="6.73594">
        <ele>345</ele>
        <time>2016-12-04T10:37:58.000Z</time>
      </trkpt>
      <trkpt lat="47.57912" lon="6.73597">
        <ele>345</ele>
        <time>2016-12-04T10:37:59.000Z</time>
      </trkpt>
      <trkpt lat="47.57909" lon="6.73599">
        <ele>345</ele>
        <time>2016-12-04T10:38:00.000Z</time>
      </trkpt>
      <trkpt lat="47.57905" lon="6.73601">
        <ele>345</ele>
        <time>2016-12-04T10:38:01.000Z</time>
      </trkpt>
      <trkpt lat="47.57902" lon="6.73603">
        <ele>345</ele>
        <time>2016-12-04T10:38:02.000Z</time>
      </trkpt>
      <trkpt lat="47.57899" lon="6.73604">
        <ele>345</ele>
        <time>2016-12-04T10:38:03.000Z</time>
      </trkpt>
      <trkpt lat="47.57894" lon="6.73606">
        <ele>345</ele>
        <time>2016-12-04T10:38:04.000Z</time>
      </trkpt>
      <trkpt lat="47.57889" lon="6.73607">
        <ele>345</ele>
        <time>2016-12-04T10:38:05.000Z</time>
      </trkpt>
      <trkpt lat="47.57885" lon="6.73608">
        <ele>345</ele>
        <time>2016-12-04T10:38:06.000Z</time>
      </trkpt>
      <trkpt lat="47.57881" lon="6.73609">
        <ele>346</ele>
        <time>2016-12-04T10:38:07.000Z</time>
      </trkpt>
      <trkpt lat="47.57876" lon="6.73612">
        <ele>346</ele>
        <time>2016-12-04T10:38:08.000Z</time>
      </trkpt>
      <trkpt lat="47.57872" lon="6.73614">
        <ele>346</ele>
        <time>2016-12-04T10:38:09.000Z</time>
      </trkpt>
      <trkpt lat="47.57868" lon="6.73616">
        <ele>346</ele>
        <time>2016-12-04T10:38:10.000Z</time>
      </trkpt>
      <trkpt lat="47.57863" lon="6.73619">
        <ele>346</ele>
        <time>2016-12-04T10:38:11.000Z</time>
      </trkpt>
      <trkpt lat="47.57859" lon="6.73621">
        <ele>346</ele>
        <time>2016-12-04T10:38:12.000Z</time>
      </trkpt>
      <trkpt lat="47.57856" lon="6.73623">
        <ele>346</ele>
        <time>2016-12-04T10:38:13.000Z</time>
      </trkpt>
      <trkpt lat="47.57852" lon="6.73625">
        <ele>346</ele>
        <time>2016-12-04T10:38:14.000Z</time>
      </trkpt>
      <trkpt lat="47.57848" lon="6.73626">
        <ele>346</ele>
        <time>2016-12-04T10:38:15.000Z</time>
      </trkpt>
      <trkpt lat="47.57844" lon="6.73628">
        <ele>346</ele>
        <time>2016-12-04T10:38:16.000Z</time>
      </trkpt>
      <trkpt lat="47.5784" lon="6.73629">
        <ele>345</ele>
        <time>2016-12-04T10:38:17.000Z</time>
      </trkpt>
      <trkpt lat="47.57836" lon="6.73631">
        <ele>345</ele>
        <time>2016-12-04T10:38:18.000Z</time>
      </trkpt>
      <trkpt lat="47.57832" lon="6.73632">
        <ele>346</ele>
        <time>2016-12-04T10:38:19.000Z</time>
      </trkpt>
      <trkpt lat="47.5783" lon="6.73633">
        <ele>346</ele>
        <time>2016-12-04T10:38:20.000Z</time>
      </trkpt>
      <trkpt lat="47.57825" lon="6.73635">
        <ele>346</ele>
        <time>2016-12-04T10:38:21.000Z</time>
      </trkpt>
      <trkpt lat="47.5782" lon="6.73636">
        <ele>346</ele>
        <time>2016-12-04T10:38:22.000Z</time>
      </trkpt>
      <trkpt lat="47.57816" lon="6.73637">
        <ele>346</ele>
        <time>2016-12-04T10:38:23.000Z</time>
      </trkpt>
      <trkpt lat="47.57813" lon="6.73638">
        <ele>346</ele>
        <time>2016-12-04T10:38:24.000Z</time>
      </trkpt>
      <trkpt lat="47.57809" lon="6.7364">
        <ele>346</ele>
        <time>2016-12-04T10:38:25.000Z</time>
      </trkpt>
      <trkpt lat="47.57805" lon="6.73641">
        <ele>346</ele>
        <time>2016-12-04T10:38:26.000Z</time>
      </trkpt>
      <trkpt lat="47.57802" lon="6.73642">
        <ele>346</ele>
        <time>2016-12-04T10:38:27.000Z</time>
      </trkpt>
      <trkpt lat="47.57799" lon="6.73644">
        <ele>346</ele>
        <time>2016-12-04T10:38:28.000Z</time>
      </trkpt>
      <trkpt lat="47.57795" lon="6.73646">
        <ele>346</ele>
        <time>2016-12-04T10:38:29.000Z</time>
      </trkpt>
      <trkpt lat="47.57792" lon="6.73648">
        <ele>346</ele>
        <time>2016-12-04T10:38:30.000Z</time>
      </trkpt>
      <trkpt lat="47.57788" lon="6.7365">
        <ele>347</ele>
        <time>2016-12-04T10:38:31.000Z</time>
      </trkpt>
      <trkpt lat="47.57786" lon="6.73652">
        <ele>347</ele>
        <time>2016-12-04T10:38:32.000Z</time>
      </trkpt>
      <trkpt lat="47.57782" lon="6.73654">
        <ele>347</ele>
        <time>2016-12-04T10:38:33.000Z</time>
      </trkpt>
      <trkpt lat="47.57779" lon="6.73656">
        <ele>347</ele>
        <time>2016-12-04T10:38:34.000Z</time>
      </trkpt>
      <trkpt lat="47.57775" lon="6.73658">
        <ele>347</ele>
        <time>2016-12-04T10:38:35.000Z</time>
      </trkpt>
      <trkpt lat="47.57772" lon="6.7366">
        <ele>347</ele>
        <time>2016-12-04T10:38:36.000Z</time>
      </trkpt>
      <trkpt lat="47.57768" lon="6.73662">
        <ele>347</ele>
        <time>2016-12-04T10:38:37.000Z</time>
      </trkpt>
      <trkpt lat="47.57764" lon="6.73664">
        <ele>347</ele>
        <time>2016-12-04T10:38:38.000Z</time>
      </trkpt>
      <trkpt lat="47.5776" lon="6.73667">
        <ele>348</ele>
        <time>2016-12-04T10:38:39.000Z</time>
      </trkpt>
      <trkpt lat="47.57756" lon="6.73669">
        <ele>348</ele>
        <time>2016-12-04T10:38:40.000Z</time>
      </trkpt>
      <trkpt lat="47.57752" lon="6.7367">
        <ele>347</ele>
        <time>2016-12-04T10:38:41.000Z</time>
      </trkpt>
      <trkpt lat="47.57748" lon="6.73672">
        <ele>347</ele>
        <time>2016-12-04T10:38:42.000Z</time>
      </trkpt>
      <trkpt lat="47.57745" lon="6.73673">
        <ele>347</ele>
        <time>2016-12-04T10:38:43.000Z</time>
      </trkpt>
      <trkpt lat="47.5774" lon="6.73675">
        <ele>348</ele>
        <time>2016-12-04T10:38:44.000Z</time>
      </trkpt>
      <trkpt lat="47.57736" lon="6.73676">
        <ele>348</ele>
        <time>2016-12-04T10:38:45.000Z</time>
      </trkpt>
      <trkpt lat="47.57732" lon="6.73677">
        <ele>348</ele>
        <time>2016-12-04T10:38:46.000Z</time>
      </trkpt>
      <trkpt lat="47.57727" lon="6.73679">
        <ele>348</ele>
        <time>2016-12-04T10:38:47.000Z</time>
      </trkpt>
      <trkpt lat="47.57722" lon="6.7368">
        <ele>348</ele>
        <time>2016-12-04T10:38:48.000Z</time>
      </trkpt>
      <trkpt lat="47.57718" lon="6.73682">
        <ele>348</ele>
        <time>2016-12-04T10:38:49.000Z</time>
      </trkpt>
      <trkpt lat="47.57714" lon="6.73684">
        <ele>348</ele>
        <time>2016-12-04T10:38:50.000Z</time>
      </trkpt>
      <trkpt lat="47.5771" lon="6.73686">
        <ele>348</ele>
        <time>2016-12-04T10:38:51.000Z</time>
      </trkpt>
      <trkpt lat="47.57706" lon="6.73688">
        <ele>348</ele>
        <time>2016-12-04T10:38:52.000Z</time>
      </trkpt>
      <trkpt lat="47.57701" lon="6.7369">
        <ele>348</ele>
        <time>2016-12-04T10:38:53.000Z</time>
      </trkpt>
      <trkpt lat="47.57697" lon="6.73691">
        <ele>348</ele>
        <time>2016-12-04T10:38:54.000Z</time>
      </trkpt>
      <trkpt lat="47.57693" lon="6.73692">
        <ele>347</ele>
        <time>2016-12-04T10:38:55.000Z</time>
      </trkpt>
      <trkpt lat="47.5769" lon="6.73692">
        <ele>347</ele>
        <time>2016-12-04T10:38:56.000Z</time>
      </trkpt>
      <trkpt lat="47.57685" lon="6.73693">
        <ele>347</ele>
        <time>2016-12-04T10:38:57.000Z</time>
      </trkpt>
      <trkpt lat="47.57681" lon="6.73693">
        <ele>347</ele>
        <time>2016-12-04T10:38:58.000Z</time>
      </trkpt>
      <trkpt lat="47.57677" lon="6.73692">
        <ele>347</ele>
        <time>2016-12-04T10:38:59.000Z</time>
      </trkpt>
      <trkpt lat="47.57672" lon="6.7369">
        <ele>347</ele>
        <time>2016-12-04T10:39:00.000Z</time>
      </trkpt>
      <trkpt lat="47.57667" lon="6.73689">
        <ele>346</ele>
        <time>2016-12-04T10:39:01.000Z</time>
      </trkpt>
      <trkpt lat="47.57662" lon="6.73687">
        <ele>344</ele>
        <time>2016-12-04T10:39:02.000Z</time>
      </trkpt>
      <trkpt lat="47.57656" lon="6.73686">
        <ele>344</ele>
        <time>2016-12-04T10:39:03.000Z</time>
      </trkpt>
      <trkpt lat="47.57651" lon="6.73684">
        <ele>344</ele>
        <time>2016-12-04T10:39:04.000Z</time>
      </trkpt>
      <trkpt lat="47.57646" lon="6.73681">
        <ele>344</ele>
        <time>2016-12-04T10:39:05.000Z</time>
      </trkpt>
      <trkpt lat="47.57641" lon="6.73678">
        <ele>344</ele>
        <time>2016-12-04T10:39:06.000Z</time>
      </trkpt>
      <trkpt lat="47.57637" lon="6.73675">
        <ele>344</ele>
        <time>2016-12-04T10:39:07.000Z</time>
      </trkpt>
      <trkpt lat="47.57631" lon="6.73673">
        <ele>344</ele>
        <time>2016-12-04T10:39:08.000Z</time>
      </trkpt>
      <trkpt lat="47.57627" lon="6.7367">
        <ele>344</ele>
        <time>2016-12-04T10:39:09.000Z</time>
      </trkpt>
      <trkpt lat="47.57621" lon="6.73667">
        <ele>344</ele>
        <time>2016-12-04T10:39:10.000Z</time>
      </trkpt>
      <trkpt lat="47.57616" lon="6.73664">
        <ele>343</ele>
        <time>2016-12-04T10:39:11.000Z</time>
      </trkpt>
      <trkpt lat="47.5761" lon="6.7366">
        <ele>343</ele>
        <time>2016-12-04T10:39:12.000Z</time>
      </trkpt>
      <trkpt lat="47.57605" lon="6.73657">
        <ele>343</ele>
        <time>2016-12-04T10:39:13.000Z</time>
      </trkpt>
      <trkpt lat="47.57599" lon="6.73654">
        <ele>343</ele>
        <time>2016-12-04T10:39:14.000Z</time>
      </trkpt>
      <trkpt lat="47.57593" lon="6.73651">
        <ele>343</ele>
        <time>2016-12-04T10:39:15.000Z</time>
      </trkpt>
      <trkpt lat="47.57587" lon="6.73647">
        <ele>343</ele>
        <time>2016-12-04T10:39:16.000Z</time>
      </trkpt>
      <trkpt lat="47.57581" lon="6.73642">
        <ele>341</ele>
        <time>2016-12-04T10:39:17.000Z</time>
      </trkpt>
      <trkpt lat="47.57576" lon="6.73637">
        <ele>341</ele>
        <time>2016-12-04T10:39:18.000Z</time>
      </trkpt>
      <trkpt lat="47.5757" lon="6.73632">
        <ele>341</ele>
        <time>2016-12-04T10:39:19.000Z</time>
      </trkpt>
      <trkpt lat="47.57566" lon="6.73626">
        <ele>341</ele>
        <time>2016-12-04T10:39:20.000Z</time>
      </trkpt>
      <trkpt lat="47.57561" lon="6.7362">
        <ele>341</ele>
        <time>2016-12-04T10:39:21.000Z</time>
      </trkpt>
      <trkpt lat="47.57558" lon="6.73613">
        <ele>341</ele>
        <time>2016-12-04T10:39:22.000Z</time>
      </trkpt>
      <trkpt lat="47.57554" lon="6.73606">
        <ele>341</ele>
        <time>2016-12-04T10:39:23.000Z</time>
      </trkpt>
      <trkpt lat="47.57551" lon="6.73601">
        <ele>341</ele>
        <time>2016-12-04T10:39:24.000Z</time>
      </trkpt>
      <trkpt lat="47.57548" lon="6.73595">
        <ele>341</ele>
        <time>2016-12-04T10:39:25.000Z</time>
      </trkpt>
      <trkpt lat="47.57545" lon="6.73588">
        <ele>340</ele>
        <time>2016-12-04T10:39:26.000Z</time>
      </trkpt>
      <trkpt lat="47.57542" lon="6.73581">
        <ele>342</ele>
        <time>2016-12-04T10:39:27.000Z</time>
      </trkpt>
      <trkpt lat="47.57539" lon="6.73574">
        <ele>342</ele>
        <time>2016-12-04T10:39:28.000Z</time>
      </trkpt>
      <trkpt lat="47.57535" lon="6.73568">
        <ele>342</ele>
        <time>2016-12-04T10:39:29.000Z</time>
      </trkpt>
      <trkpt lat="47.57532" lon="6.73561">
        <ele>342</ele>
        <time>2016-12-04T10:39:30.000Z</time>
      </trkpt>
      <trkpt lat="47.57528" lon="6.73554">
        <ele>343</ele>
        <time>2016-12-04T10:39:31.000Z</time>
      </trkpt>
      <trkpt lat="47.57524" lon="6.73547">
        <ele>343</ele>
        <time>2016-12-04T10:39:32.000Z</time>
      </trkpt>
      <trkpt lat="47.57521" lon="6.73541">
        <ele>343</ele>
        <time>2016-12-04T10:39:33.000Z</time>
      </trkpt>
      <trkpt lat="47.57519" lon="6.73537">
        <ele>343</ele>
        <time>2016-12-04T10:39:34.000Z</time>
      </trkpt>
      <trkpt lat="47.57517" lon="6.73533">
        <ele>343</ele>
        <time>2016-12-04T10:39:35.000Z</time>
      </trkpt>
      <trkpt lat="47.57516" lon="6.7353">
        <ele>343</ele>
        <time>2016-12-04T10:39:36.000Z</time>
      </trkpt>
      <trkpt lat="47.57514" lon="6.73527">
        <ele>343</ele>
        <time>2016-12-04T10:39:37.000Z</time>
      </trkpt>
      <trkpt lat="47.57512" lon="6.73523">
        <ele>343</ele>
        <time>2016-12-04T10:39:38.000Z</time>
      </trkpt>
      <trkpt lat="47.57509" lon="6.7352">
        <ele>343</ele>
        <time>2016-12-04T10:39:39.000Z</time>
      </trkpt>
      <trkpt lat="47.57507" lon="6.73516">
        <ele>344</ele>
        <time>2016-12-04T10:39:40.000Z</time>
      </trkpt>
      <trkpt lat="47.57505" lon="6.73513">
        <ele>344</ele>
        <time>2016-12-04T10:39:41.000Z</time>
      </trkpt>
      <trkpt lat="47.57502" lon="6.73508">
        <ele>344</ele>
        <time>2016-12-04T10:39:42.000Z</time>
      </trkpt>
      <trkpt lat="47.575" lon="6.73504">
        <ele>344</ele>
        <time>2016-12-04T10:39:43.000Z</time>
      </trkpt>
      <trkpt lat="47.57498" lon="6.73499">
        <ele>344</ele>
        <time>2016-12-04T10:39:44.000Z</time>
      </trkpt>
      <trkpt lat="47.57494" lon="6.73492">
        <ele>344</ele>
        <time>2016-12-04T10:39:45.000Z</time>
      </trkpt>
      <trkpt lat="47.5749" lon="6.73485">
        <ele>344</ele>
        <time>2016-12-04T10:39:46.000Z</time>
      </trkpt>
      <trkpt lat="47.57486" lon="6.7348">
        <ele>345</ele>
        <time>2016-12-04T10:39:47.000Z</time>
      </trkpt>
      <trkpt lat="47.57483" lon="6.73476">
        <ele>345</ele>
        <time>2016-12-04T10:39:48.000Z</time>
      </trkpt>
      <trkpt lat="47.57479" lon="6.73472">
        <ele>345</ele>
        <time>2016-12-04T10:39:49.000Z</time>
      </trkpt>
      <trkpt lat="47.57474" lon="6.73468">
        <ele>345</ele>
        <time>2016-12-04T10:39:50.000Z</time>
      </trkpt>
      <trkpt lat="47.57469" lon="6.73465">
        <ele>345</ele>
        <time>2016-12-04T10:39:51.000Z</time>
      </trkpt>
      <trkpt lat="47.57464" lon="6.73463">
        <ele>345</ele>
        <time>2016-12-04T10:39:52.000Z</time>
      </trkpt>
      <trkpt lat="47.57458" lon="6.7346">
        <ele>345</ele>
        <time>2016-12-04T10:39:53.000Z</time>
      </trkpt>
      <trkpt lat="47.57452" lon="6.73457">
        <ele>345</ele>
        <time>2016-12-04T10:39:54.000Z</time>
      </trkpt>
      <trkpt lat="47.57447" lon="6.73455">
        <ele>345</ele>
        <time>2016-12-04T10:39:55.000Z</time>
      </trkpt>
      <trkpt lat="47.57443" lon="6.73453">
        <ele>344</ele>
        <time>2016-12-04T10:39:56.000Z</time>
      </trkpt>
      <trkpt lat="47.57438" lon="6.73451">
        <ele>344</ele>
        <time>2016-12-04T10:39:57.000Z</time>
      </trkpt>
      <trkpt lat="47.57433" lon="6.73449">
        <ele>344</ele>
        <time>2016-12-04T10:39:58.000Z</time>
      </trkpt>
      <trkpt lat="47.57427" lon="6.73447">
        <ele>344</ele>
        <time>2016-12-04T10:39:59.000Z</time>
      </trkpt>
      <trkpt lat="47.57422" lon="6.73446">
        <ele>344</ele>
        <time>2016-12-04T10:40:00.000Z</time>
      </trkpt>
      <trkpt lat="47.57417" lon="6.73444">
        <ele>342</ele>
        <time>2016-12-04T10:40:01.000Z</time>
      </trkpt>
      <trkpt lat="47.57412" lon="6.73443">
        <ele>342</ele>
        <time>2016-12-04T10:40:02.000Z</time>
      </trkpt>
      <trkpt lat="47.57407" lon="6.73442">
        <ele>342</ele>
        <time>2016-12-04T10:40:03.000Z</time>
      </trkpt>
      <trkpt lat="47.57402" lon="6.73441">
        <ele>342</ele>
        <time>2016-12-04T10:40:04.000Z</time>
      </trkpt>
      <trkpt lat="47.57397" lon="6.7344">
        <ele>342</ele>
        <time>2016-12-04T10:40:05.000Z</time>
      </trkpt>
      <trkpt lat="47.57393" lon="6.73438">
        <ele>342</ele>
        <time>2016-12-04T10:40:06.000Z</time>
      </trkpt>
      <trkpt lat="47.57389" lon="6.73436">
        <ele>342</ele>
        <time>2016-12-04T10:40:07.000Z</time>
      </trkpt>
      <trkpt lat="47.57384" lon="6.73436">
        <ele>341</ele>
        <time>2016-12-04T10:40:08.000Z</time>
      </trkpt>
      <trkpt lat="47.5738" lon="6.73435">
        <ele>341</ele>
        <time>2016-12-04T10:40:09.000Z</time>
      </trkpt>
      <trkpt lat="47.57376" lon="6.73433">
        <ele>341</ele>
        <time>2016-12-04T10:40:10.000Z</time>
      </trkpt>
      <trkpt lat="47.57372" lon="6.73431">
        <ele>341</ele>
        <time>2016-12-04T10:40:11.000Z</time>
      </trkpt>
      <trkpt lat="47.57368" lon="6.73429">
        <ele>341</ele>
        <time>2016-12-04T10:40:12.000Z</time>
      </trkpt>
      <trkpt lat="47.57364" lon="6.73427">
        <ele>341</ele>
        <time>2016-12-04T10:40:13.000Z</time>
      </trkpt>
      <trkpt lat="47.57362" lon="6.73425">
        <ele>341</ele>
        <time>2016-12-04T10:40:14.000Z</time>
      </trkpt>
      <trkpt lat="47.57358" lon="6.73423">
        <ele>341</ele>
        <time>2016-12-04T10:40:15.000Z</time>
      </trkpt>
      <trkpt lat="47.57355" lon="6.7342">
        <ele>341</ele>
        <time>2016-12-04T10:40:16.000Z</time>
      </trkpt>
      <trkpt lat="47.57351" lon="6.73417">
        <ele>341</ele>
        <time>2016-12-04T10:40:17.000Z</time>
      </trkpt>
      <trkpt lat="47.57347" lon="6.73414">
        <ele>343</ele>
        <time>2016-12-04T10:40:18.000Z</time>
      </trkpt>
      <trkpt lat="47.57343" lon="6.7341">
        <ele>342</ele>
        <time>2016-12-04T10:40:19.000Z</time>
      </trkpt>
      <trkpt lat="47.5734" lon="6.73406">
        <ele>343</ele>
        <time>2016-12-04T10:40:20.000Z</time>
      </trkpt>
      <trkpt lat="47.57337" lon="6.73402">
        <ele>343</ele>
        <time>2016-12-04T10:40:21.000Z</time>
      </trkpt>
      <trkpt lat="47.57333" lon="6.73399">
        <ele>341</ele>
        <time>2016-12-04T10:40:22.000Z</time>
      </trkpt>
      <trkpt lat="47.57328" lon="6.73395">
        <ele>341</ele>
        <time>2016-12-04T10:40:23.000Z</time>
      </trkpt>
      <trkpt lat="47.57324" lon="6.73393">
        <ele>341</ele>
        <time>2016-12-04T10:40:24.000Z</time>
      </trkpt>
      <trkpt lat="47.57319" lon="6.7339">
        <ele>340</ele>
        <time>2016-12-04T10:40:25.000Z</time>
      </trkpt>
      <trkpt lat="47.57314" lon="6.73388">
        <ele>340</ele>
        <time>2016-12-04T10:40:26.000Z</time>
      </trkpt>
      <trkpt lat="47.57309" lon="6.73385">
        <ele>340</ele>
        <time>2016-12-04T10:40:27.000Z</time>
      </trkpt>
      <trkpt lat="47.57304" lon="6.73381">
        <ele>340</ele>
        <time>2016-12-04T10:40:28.000Z</time>
      </trkpt>
      <trkpt lat="47.57299" lon="6.73379">
        <ele>340</ele>
        <time>2016-12-04T10:40:29.000Z</time>
      </trkpt>
      <trkpt lat="47.57295" lon="6.73376">
        <ele>340</ele>
        <time>2016-12-04T10:40:30.000Z</time>
      </trkpt>
      <trkpt lat="47.57289" lon="6.73375">
        <ele>340</ele>
        <time>2016-12-04T10:40:31.000Z</time>
      </trkpt>
      <trkpt lat="47.57283" lon="6.73377">
        <ele>340</ele>
        <time>2016-12-04T10:40:32.000Z</time>
      </trkpt>
      <trkpt lat="47.57279" lon="6.73379">
        <ele>340</ele>
        <time>2016-12-04T10:40:33.000Z</time>
      </trkpt>
      <trkpt lat="47.57275" lon="6.73381">
        <ele>340</ele>
        <time>2016-12-04T10:40:34.000Z</time>
      </trkpt>
      <trkpt lat="47.57271" lon="6.73384">
        <ele>339</ele>
        <time>2016-12-04T10:40:35.000Z</time>
      </trkpt>
      <trkpt lat="47.57266" lon="6.73387">
        <ele>339</ele>
        <time>2016-12-04T10:40:36.000Z</time>
      </trkpt>
      <trkpt lat="47.57262" lon="6.73389">
        <ele>339</ele>
        <time>2016-12-04T10:40:37.000Z</time>
      </trkpt>
      <trkpt lat="47.57257" lon="6.73392">
        <ele>339</ele>
        <time>2016-12-04T10:40:38.000Z</time>
      </trkpt>
      <trkpt lat="47.57252" lon="6.73394">
        <ele>339</ele>
        <time>2016-12-04T10:40:39.000Z</time>
      </trkpt>
      <trkpt lat="47.57248" lon="6.73397">
        <ele>339</ele>
        <time>2016-12-04T10:40:40.000Z</time>
      </trkpt>
      <trkpt lat="47.57243" lon="6.73399">
        <ele>339</ele>
        <time>2016-12-04T10:40:41.000Z</time>
      </trkpt>
      <trkpt lat="47.57238" lon="6.73401">
        <ele>339</ele>
        <time>2016-12-04T10:40:42.000Z</time>
      </trkpt>
      <trkpt lat="47.57233" lon="6.73404">
        <ele>339</ele>
        <time>2016-12-04T10:40:43.000Z</time>
      </trkpt>
      <trkpt lat="47.57227" lon="6.73407">
        <ele>339</ele>
        <time>2016-12-04T10:40:44.000Z</time>
      </trkpt>
      <trkpt lat="47.57222" lon="6.73412">
        <ele>339</ele>
        <time>2016-12-04T10:40:45.000Z</time>
      </trkpt>
      <trkpt lat="47.57218" lon="6.73417">
        <ele>339</ele>
        <time>2016-12-04T10:40:46.000Z</time>
      </trkpt>
      <trkpt lat="47.57215" lon="6.73421">
        <ele>338</ele>
        <time>2016-12-04T10:40:47.000Z</time>
      </trkpt>
      <trkpt lat="47.57212" lon="6.73426">
        <ele>338</ele>
        <time>2016-12-04T10:40:48.000Z</time>
      </trkpt>
      <trkpt lat="47.5721" lon="6.73431">
        <ele>338</ele>
        <time>2016-12-04T10:40:49.000Z</time>
      </trkpt>
      <trkpt lat="47.57206" lon="6.73437">
        <ele>338</ele>
        <time>2016-12-04T10:40:50.000Z</time>
      </trkpt>
      <trkpt lat="47.57204" lon="6.73442">
        <ele>338</ele>
        <time>2016-12-04T10:40:51.000Z</time>
      </trkpt>
      <trkpt lat="47.57201" lon="6.73448">
        <ele>338</ele>
        <time>2016-12-04T10:40:52.000Z</time>
      </trkpt>
      <trkpt lat="47.57199" lon="6.73453">
        <ele>338</ele>
        <time>2016-12-04T10:40:53.000Z</time>
      </trkpt>
      <trkpt lat="47.57196" lon="6.73457">
        <ele>338</ele>
        <time>2016-12-04T10:40:54.000Z</time>
      </trkpt>
      <trkpt lat="47.57194" lon="6.73462">
        <ele>338</ele>
        <time>2016-12-04T10:40:55.000Z</time>
      </trkpt>
      <trkpt lat="47.57191" lon="6.73466">
        <ele>338</ele>
        <time>2016-12-04T10:40:56.000Z</time>
      </trkpt>
      <trkpt lat="47.57188" lon="6.73469">
        <ele>338</ele>
        <time>2016-12-04T10:40:57.000Z</time>
      </trkpt>
      <trkpt lat="47.57185" lon="6.73473">
        <ele>338</ele>
        <time>2016-12-04T10:40:58.000Z</time>
      </trkpt>
      <trkpt lat="47.57182" lon="6.73477">
        <ele>338</ele>
        <time>2016-12-04T10:40:59.000Z</time>
      </trkpt>
      <trkpt lat="47.57179" lon="6.73481">
        <ele>338</ele>
        <time>2016-12-04T10:41:00.000Z</time>
      </trkpt>
      <trkpt lat="47.57175" lon="6.73484">
        <ele>338</ele>
        <time>2016-12-04T10:41:01.000Z</time>
      </trkpt>
      <trkpt lat="47.57171" lon="6.73488">
        <ele>338</ele>
        <time>2016-12-04T10:41:02.000Z</time>
      </trkpt>
      <trkpt lat="47.57167" lon="6.73491">
        <ele>338</ele>
        <time>2016-12-04T10:41:03.000Z</time>
      </trkpt>
      <trkpt lat="47.57164" lon="6.73493">
        <ele>340</ele>
        <time>2016-12-04T10:41:04.000Z</time>
      </trkpt>
      <trkpt lat="47.5716" lon="6.73496">
        <ele>340</ele>
        <time>2016-12-04T10:41:05.000Z</time>
      </trkpt>
      <trkpt lat="47.57155" lon="6.73499">
        <ele>340</ele>
        <time>2016-12-04T10:41:06.000Z</time>
      </trkpt>
      <trkpt lat="47.5715" lon="6.73502">
        <ele>339</ele>
        <time>2016-12-04T10:41:07.000Z</time>
      </trkpt>
      <trkpt lat="47.57146" lon="6.73504">
        <ele>339</ele>
        <time>2016-12-04T10:41:08.000Z</time>
      </trkpt>
      <trkpt lat="47.57142" lon="6.73507">
        <ele>339</ele>
        <time>2016-12-04T10:41:09.000Z</time>
      </trkpt>
      <trkpt lat="47.57138" lon="6.73509">
        <ele>340</ele>
        <time>2016-12-04T10:41:10.000Z</time>
      </trkpt>
      <trkpt lat="47.57134" lon="6.7351">
        <ele>340</ele>
        <time>2016-12-04T10:41:11.000Z</time>
      </trkpt>
      <trkpt lat="47.5713" lon="6.73512">
        <ele>340</ele>
        <time>2016-12-04T10:41:12.000Z</time>
      </trkpt>
      <trkpt lat="47.57127" lon="6.73514">
        <ele>340</ele>
        <time>2016-12-04T10:41:13.000Z</time>
      </trkpt>
      <trkpt lat="47.57123" lon="6.73515">
        <ele>340</ele>
        <time>2016-12-04T10:41:14.000Z</time>
      </trkpt>
      <trkpt lat="47.57119" lon="6.73517">
        <ele>341</ele>
        <time>2016-12-04T10:41:15.000Z</time>
      </trkpt>
      <trkpt lat="47.57116" lon="6.73518">
        <ele>341</ele>
        <time>2016-12-04T10:41:16.000Z</time>
      </trkpt>
      <trkpt lat="47.57112" lon="6.73519">
        <ele>341</ele>
        <time>2016-12-04T10:41:17.000Z</time>
      </trkpt>
      <trkpt lat="47.57109" lon="6.7352">
        <ele>341</ele>
        <time>2016-12-04T10:41:18.000Z</time>
      </trkpt>
      <trkpt lat="47.57106" lon="6.73522">
        <ele>341</ele>
        <time>2016-12-04T10:41:19.000Z</time>
      </trkpt>
      <trkpt lat="47.57102" lon="6.73523">
        <ele>341</ele>
        <time>2016-12-04T10:41:20.000Z</time>
      </trkpt>
      <trkpt lat="47.57099" lon="6.73524">
        <ele>341</ele>
        <time>2016-12-04T10:41:21.000Z</time>
      </trkpt>
      <trkpt lat="47.57095" lon="6.73525">
        <ele>341</ele>
        <time>2016-12-04T10:41:22.000Z</time>
      </trkpt>
      <trkpt lat="47.57092" lon="6.73525">
        <ele>342</ele>
        <time>2016-12-04T10:41:23.000Z</time>
      </trkpt>
      <trkpt lat="47.57089" lon="6.73525">
        <ele>342</ele>
        <time>2016-12-04T10:41:24.000Z</time>
      </trkpt>
      <trkpt lat="47.57084" lon="6.73525">
        <ele>342</ele>
        <time>2016-12-04T10:41:25.000Z</time>
      </trkpt>
      <trkpt lat="47.57081" lon="6.73525">
        <ele>346</ele>
        <time>2016-12-04T10:41:26.000Z</time>
      </trkpt>
      <trkpt lat="47.57078" lon="6.73526">
        <ele>347</ele>
        <time>2016-12-04T10:41:27.000Z</time>
      </trkpt>
      <trkpt lat="47.57075" lon="6.73527">
        <ele>347</ele>
        <time>2016-12-04T10:41:28.000Z</time>
      </trkpt>
      <trkpt lat="47.57072" lon="6.73527">
        <ele>347</ele>
        <time>2016-12-04T10:41:29.000Z</time>
      </trkpt>
      <trkpt lat="47.57068" lon="6.73527">
        <ele>347</ele>
        <time>2016-12-04T10:41:30.000Z</time>
      </trkpt>
      <trkpt lat="47.57064" lon="6.73527">
        <ele>347</ele>
        <time>2016-12-04T10:41:31.000Z</time>
      </trkpt>
      <trkpt lat="47.57061" lon="6.73527">
        <ele>347</ele>
        <time>2016-12-04T10:41:32.000Z</time>
      </trkpt>
      <trkpt lat="47.57057" lon="6.73528">
        <ele>348</ele>
        <time>2016-12-04T10:41:33.000Z</time>
      </trkpt>
      <trkpt lat="47.57053" lon="6.73528">
        <ele>348</ele>
        <time>2016-12-04T10:41:34.000Z</time>
      </trkpt>
      <trkpt lat="47.5705" lon="6.73529">
        <ele>348</ele>
        <time>2016-12-04T10:41:35.000Z</time>
      </trkpt>
      <trkpt lat="47.57047" lon="6.73529">
        <ele>348</ele>
        <time>2016-12-04T10:41:36.000Z</time>
      </trkpt>
      <trkpt lat="47.57043" lon="6.73528">
        <ele>349</ele>
        <time>2016-12-04T10:41:37.000Z</time>
      </trkpt>
      <trkpt lat="47.5704" lon="6.73528">
        <ele>349</ele>
        <time>2016-12-04T10:41:38.000Z</time>
      </trkpt>
      <trkpt lat="47.57035" lon="6.73528">
        <ele>350</ele>
        <time>2016-12-04T10:41:39.000Z</time>
      </trkpt>
      <trkpt lat="47.57033" lon="6.73528">
        <ele>350</ele>
        <time>2016-12-04T10:41:40.000Z</time>
      </trkpt>
      <trkpt lat="47.57029" lon="6.73528">
        <ele>350</ele>
        <time>2016-12-04T10:41:41.000Z</time>
      </trkpt>
      <trkpt lat="47.57026" lon="6.73529">
        <ele>350</ele>
        <time>2016-12-04T10:41:42.000Z</time>
      </trkpt>
      <trkpt lat="47.57022" lon="6.73529">
        <ele>351</ele>
        <time>2016-12-04T10:41:43.000Z</time>
      </trkpt>
      <trkpt lat="47.5702" lon="6.7353">
        <ele>351</ele>
        <time>2016-12-04T10:41:44.000Z</time>
      </trkpt>
      <trkpt lat="47.57017" lon="6.73532">
        <ele>351</ele>
        <time>2016-12-04T10:41:45.000Z</time>
      </trkpt>
      <trkpt lat="47.57015" lon="6.73533">
        <ele>351</ele>
        <time>2016-12-04T10:41:46.000Z</time>
      </trkpt>
      <trkpt lat="47.57013" lon="6.73535">
        <ele>351</ele>
        <time>2016-12-04T10:41:47.000Z</time>
      </trkpt>
      <trkpt lat="47.5701" lon="6.73536">
        <ele>351</ele>
        <time>2016-12-04T10:41:48.000Z</time>
      </trkpt>
      <trkpt lat="47.57007" lon="6.73537">
        <ele>351</ele>
        <time>2016-12-04T10:41:49.000Z</time>
      </trkpt>
      <trkpt lat="47.57005" lon="6.73539">
        <ele>350</ele>
        <time>2016-12-04T10:41:50.000Z</time>
      </trkpt>
      <trkpt lat="47.57002" lon="6.7354">
        <ele>350</ele>
        <time>2016-12-04T10:41:51.000Z</time>
      </trkpt>
      <trkpt lat="47.56999" lon="6.73541">
        <ele>356</ele>
        <time>2016-12-04T10:41:52.000Z</time>
      </trkpt>
      <trkpt lat="47.56997" lon="6.73542">
        <ele>356</ele>
        <time>2016-12-04T10:41:53.000Z</time>
      </trkpt>
      <trkpt lat="47.56994" lon="6.73544">
        <ele>355</ele>
        <time>2016-12-04T10:41:54.000Z</time>
      </trkpt>
      <trkpt lat="47.56991" lon="6.73546">
        <ele>355</ele>
        <time>2016-12-04T10:41:55.000Z</time>
      </trkpt>
      <trkpt lat="47.56989" lon="6.73548">
        <ele>355</ele>
        <time>2016-12-04T10:41:56.000Z</time>
      </trkpt>
      <trkpt lat="47.56985" lon="6.73549">
        <ele>355</ele>
        <time>2016-12-04T10:41:57.000Z</time>
      </trkpt>
      <trkpt lat="47.56982" lon="6.73551">
        <ele>355</ele>
        <time>2016-12-04T10:41:58.000Z</time>
      </trkpt>
      <trkpt lat="47.56979" lon="6.73553">
        <ele>355</ele>
        <time>2016-12-04T10:41:59.000Z</time>
      </trkpt>
      <trkpt lat="47.56977" lon="6.73554">
        <ele>355</ele>
        <time>2016-12-04T10:42:00.000Z</time>
      </trkpt>
      <trkpt lat="47.56975" lon="6.73555">
        <ele>355</ele>
        <time>2016-12-04T10:42:01.000Z</time>
      </trkpt>
      <trkpt lat="47.56971" lon="6.73558">
        <ele>355</ele>
        <time>2016-12-04T10:42:03.000Z</time>
      </trkpt>
      <trkpt lat="47.56968" lon="6.7356">
        <ele>355</ele>
        <time>2016-12-04T10:42:04.000Z</time>
      </trkpt>
      <trkpt lat="47.56965" lon="6.73562">
        <ele>355</ele>
        <time>2016-12-04T10:42:05.000Z</time>
      </trkpt>
      <trkpt lat="47.56962" lon="6.73563">
        <ele>355</ele>
        <time>2016-12-04T10:42:06.000Z</time>
      </trkpt>
      <trkpt lat="47.56959" lon="6.73566">
        <ele>355</ele>
        <time>2016-12-04T10:42:07.000Z</time>
      </trkpt>
      <trkpt lat="47.56957" lon="6.73568">
        <ele>355</ele>
        <time>2016-12-04T10:42:08.000Z</time>
      </trkpt>
      <trkpt lat="47.56955" lon="6.7357">
        <ele>354</ele>
        <time>2016-12-04T10:42:09.000Z</time>
      </trkpt>
      <trkpt lat="47.56952" lon="6.73573">
        <ele>354</ele>
        <time>2016-12-04T10:42:10.000Z</time>
      </trkpt>
      <trkpt lat="47.56948" lon="6.73577">
        <ele>354</ele>
        <time>2016-12-04T10:42:11.000Z</time>
      </trkpt>
      <trkpt lat="47.56945" lon="6.73581">
        <ele>354</ele>
        <time>2016-12-04T10:42:12.000Z</time>
      </trkpt>
      <trkpt lat="47.56943" lon="6.73585">
        <ele>348</ele>
        <time>2016-12-04T10:42:13.000Z</time>
      </trkpt>
      <trkpt lat="47.56941" lon="6.7359">
        <ele>348</ele>
        <time>2016-12-04T10:42:14.000Z</time>
      </trkpt>
      <trkpt lat="47.5694" lon="6.73595">
        <ele>348</ele>
        <time>2016-12-04T10:42:15.000Z</time>
      </trkpt>
      <trkpt lat="47.56939" lon="6.73599">
        <ele>348</ele>
        <time>2016-12-04T10:42:16.000Z</time>
      </trkpt>
      <trkpt lat="47.56937" lon="6.73604">
        <ele>348</ele>
        <time>2016-12-04T10:42:17.000Z</time>
      </trkpt>
      <trkpt lat="47.56935" lon="6.73609">
        <ele>348</ele>
        <time>2016-12-04T10:42:18.000Z</time>
      </trkpt>
      <trkpt lat="47.56933" lon="6.73614">
        <ele>348</ele>
        <time>2016-12-04T10:42:19.000Z</time>
      </trkpt>
      <trkpt lat="47.56932" lon="6.73619">
        <ele>348</ele>
        <time>2016-12-04T10:42:20.000Z</time>
      </trkpt>
      <trkpt lat="47.56931" lon="6.73624">
        <ele>348</ele>
        <time>2016-12-04T10:42:21.000Z</time>
      </trkpt>
      <trkpt lat="47.56931" lon="6.73628">
        <ele>347</ele>
        <time>2016-12-04T10:42:22.000Z</time>
      </trkpt>
      <trkpt lat="47.5693" lon="6.73633">
        <ele>348</ele>
        <time>2016-12-04T10:42:23.000Z</time>
      </trkpt>
      <trkpt lat="47.56929" lon="6.73638">
        <ele>348</ele>
        <time>2016-12-04T10:42:24.000Z</time>
      </trkpt>
      <trkpt lat="47.56929" lon="6.73643">
        <ele>348</ele>
        <time>2016-12-04T10:42:25.000Z</time>
      </trkpt>
      <trkpt lat="47.56928" lon="6.73649">
        <ele>348</ele>
        <time>2016-12-04T10:42:26.000Z</time>
      </trkpt>
      <trkpt lat="47.56927" lon="6.73653">
        <ele>348</ele>
        <time>2016-12-04T10:42:27.000Z</time>
      </trkpt>
      <trkpt lat="47.56927" lon="6.73659">
        <ele>348</ele>
        <time>2016-12-04T10:42:28.000Z</time>
      </trkpt>
      <trkpt lat="47.56926" lon="6.73666">
        <ele>349</ele>
        <time>2016-12-04T10:42:29.000Z</time>
      </trkpt>
      <trkpt lat="47.56925" lon="6.73671">
        <ele>348</ele>
        <time>2016-12-04T10:42:30.000Z</time>
      </trkpt>
      <trkpt lat="47.56924" lon="6.73677">
        <ele>347</ele>
        <time>2016-12-04T10:42:31.000Z</time>
      </trkpt>
      <trkpt lat="47.56922" lon="6.73687">
        <ele>346</ele>
        <time>2016-12-04T10:42:32.000Z</time>
      </trkpt>
      <trkpt lat="47.5692" lon="6.73695">
        <ele>346</ele>
        <time>2016-12-04T10:42:33.000Z</time>
      </trkpt>
      <trkpt lat="47.56919" lon="6.73701">
        <ele>345</ele>
        <time>2016-12-04T10:42:34.000Z</time>
      </trkpt>
      <trkpt lat="47.56917" lon="6.73706">
        <ele>345</ele>
        <time>2016-12-04T10:42:35.000Z</time>
      </trkpt>
      <trkpt lat="47.56915" lon="6.73713">
        <ele>354</ele>
        <time>2016-12-04T10:42:36.000Z</time>
      </trkpt>
      <trkpt lat="47.56913" lon="6.73717">
        <ele>354</ele>
        <time>2016-12-04T10:42:37.000Z</time>
      </trkpt>
      <trkpt lat="47.56911" lon="6.73722">
        <ele>354</ele>
        <time>2016-12-04T10:42:38.000Z</time>
      </trkpt>
      <trkpt lat="47.56908" lon="6.73728">
        <ele>353</ele>
        <time>2016-12-04T10:42:39.000Z</time>
      </trkpt>
      <trkpt lat="47.56906" lon="6.73731">
        <ele>353</ele>
        <time>2016-12-04T10:42:40.000Z</time>
      </trkpt>
      <trkpt lat="47.56902" lon="6.73737">
        <ele>353</ele>
        <time>2016-12-04T10:42:41.000Z</time>
      </trkpt>
      <trkpt lat="47.56898" lon="6.73743">
        <ele>353</ele>
        <time>2016-12-04T10:42:42.000Z</time>
      </trkpt>
      <trkpt lat="47.56896" lon="6.73749">
        <ele>353</ele>
        <time>2016-12-04T10:42:43.000Z</time>
      </trkpt>
      <trkpt lat="47.56893" lon="6.73752">
        <ele>351</ele>
        <time>2016-12-04T10:42:44.000Z</time>
      </trkpt>
      <trkpt lat="47.56891" lon="6.73756">
        <ele>351</ele>
        <time>2016-12-04T10:42:45.000Z</time>
      </trkpt>
      <trkpt lat="47.56889" lon="6.7376">
        <ele>351</ele>
        <time>2016-12-04T10:42:46.000Z</time>
      </trkpt>
      <trkpt lat="47.56887" lon="6.73764">
        <ele>352</ele>
        <time>2016-12-04T10:42:47.000Z</time>
      </trkpt>
      <trkpt lat="47.56884" lon="6.73768">
        <ele>352</ele>
        <time>2016-12-04T10:42:48.000Z</time>
      </trkpt>
      <trkpt lat="47.56881" lon="6.73773">
        <ele>352</ele>
        <time>2016-12-04T10:42:49.000Z</time>
      </trkpt>
      <trkpt lat="47.56878" lon="6.73777">
        <ele>353</ele>
        <time>2016-12-04T10:42:50.000Z</time>
      </trkpt>
      <trkpt lat="47.56876" lon="6.73779">
        <ele>353</ele>
        <time>2016-12-04T10:42:51.000Z</time>
      </trkpt>
      <trkpt lat="47.56874" lon="6.73783">
        <ele>353</ele>
        <time>2016-12-04T10:42:52.000Z</time>
      </trkpt>
      <trkpt lat="47.56871" lon="6.73786">
        <ele>353</ele>
        <time>2016-12-04T10:42:53.000Z</time>
      </trkpt>
      <trkpt lat="47.56869" lon="6.73789">
        <ele>353</ele>
        <time>2016-12-04T10:42:54.000Z</time>
      </trkpt>
      <trkpt lat="47.56867" lon="6.73792">
        <ele>353</ele>
        <time>2016-12-04T10:42:55.000Z</time>
      </trkpt>
      <trkpt lat="47.56864" lon="6.73796">
        <ele>353</ele>
        <time>2016-12-04T10:42:56.000Z</time>
      </trkpt>
      <trkpt lat="47.56862" lon="6.73799">
        <ele>353</ele>
        <time>2016-12-04T10:42:57.000Z</time>
      </trkpt>
      <trkpt lat="47.56859" lon="6.73803">
        <ele>353</ele>
        <time>2016-12-04T10:42:58.000Z</time>
      </trkpt>
      <trkpt lat="47.56857" lon="6.73807">
        <ele>353</ele>
        <time>2016-12-04T10:42:59.000Z</time>
      </trkpt>
      <trkpt lat="47.56855" lon="6.7381">
        <ele>353</ele>
        <time>2016-12-04T10:43:00.000Z</time>
      </trkpt>
      <trkpt lat="47.56853" lon="6.73814">
        <ele>354</ele>
        <time>2016-12-04T10:43:01.000Z</time>
      </trkpt>
      <trkpt lat="47.56849" lon="6.73819">
        <ele>354</ele>
        <time>2016-12-04T10:43:02.000Z</time>
      </trkpt>
      <trkpt lat="47.56847" lon="6.73823">
        <ele>354</ele>
        <time>2016-12-04T10:43:03.000Z</time>
      </trkpt>
      <trkpt lat="47.56844" lon="6.73827">
        <ele>355</ele>
        <time>2016-12-04T10:43:04.000Z</time>
      </trkpt>
      <trkpt lat="47.56841" lon="6.73831">
        <ele>355</ele>
        <time>2016-12-04T10:43:05.000Z</time>
      </trkpt>
      <trkpt lat="47.56839" lon="6.73835">
        <ele>354</ele>
        <time>2016-12-04T10:43:06.000Z</time>
      </trkpt>
      <trkpt lat="47.56836" lon="6.73839">
        <ele>353</ele>
        <time>2016-12-04T10:43:07.000Z</time>
      </trkpt>
      <trkpt lat="47.56834" lon="6.73842">
        <ele>353</ele>
        <time>2016-12-04T10:43:08.000Z</time>
      </trkpt>
      <trkpt lat="47.56831" lon="6.73845">
        <ele>356</ele>
        <time>2016-12-04T10:43:09.000Z</time>
      </trkpt>
      <trkpt lat="47.56829" lon="6.73849">
        <ele>356</ele>
        <time>2016-12-04T10:43:10.000Z</time>
      </trkpt>
      <trkpt lat="47.56826" lon="6.73852">
        <ele>356</ele>
        <time>2016-12-04T10:43:11.000Z</time>
      </trkpt>
      <trkpt lat="47.56823" lon="6.73856">
        <ele>356</ele>
        <time>2016-12-04T10:43:12.000Z</time>
      </trkpt>
      <trkpt lat="47.5682" lon="6.73859">
        <ele>356</ele>
        <time>2016-12-04T10:43:13.000Z</time>
      </trkpt>
      <trkpt lat="47.56817" lon="6.73863">
        <ele>356</ele>
        <time>2016-12-04T10:43:14.000Z</time>
      </trkpt>
      <trkpt lat="47.56815" lon="6.73864">
        <ele>356</ele>
        <time>2016-12-04T10:43:15.000Z</time>
      </trkpt>
      <trkpt lat="47.56812" lon="6.73864">
        <ele>356</ele>
        <time>2016-12-04T10:43:16.000Z</time>
      </trkpt>
      <trkpt lat="47.56809" lon="6.73867">
        <ele>356</ele>
        <time>2016-12-04T10:43:17.000Z</time>
      </trkpt>
      <trkpt lat="47.56807" lon="6.7387">
        <ele>356</ele>
        <time>2016-12-04T10:43:18.000Z</time>
      </trkpt>
      <trkpt lat="47.56805" lon="6.73871">
        <ele>356</ele>
        <time>2016-12-04T10:43:19.000Z</time>
      </trkpt>
      <trkpt lat="47.56802" lon="6.73874">
        <ele>356</ele>
        <time>2016-12-04T10:43:20.000Z</time>
      </trkpt>
      <trkpt lat="47.56798" lon="6.73877">
        <ele>356</ele>
        <time>2016-12-04T10:43:21.000Z</time>
      </trkpt>
      <trkpt lat="47.56795" lon="6.73879">
        <ele>356</ele>
        <time>2016-12-04T10:43:22.000Z</time>
      </trkpt>
      <trkpt lat="47.56792" lon="6.7388">
        <ele>356</ele>
        <time>2016-12-04T10:43:23.000Z</time>
      </trkpt>
      <trkpt lat="47.56789" lon="6.73883">
        <ele>356</ele>
        <time>2016-12-04T10:43:24.000Z</time>
      </trkpt>
      <trkpt lat="47.56786" lon="6.73886">
        <ele>356</ele>
        <time>2016-12-04T10:43:25.000Z</time>
      </trkpt>
      <trkpt lat="47.56783" lon="6.73887">
        <ele>356</ele>
        <time>2016-12-04T10:43:26.000Z</time>
      </trkpt>
      <trkpt lat="47.5678" lon="6.73887">
        <ele>357</ele>
        <time>2016-12-04T10:43:27.000Z</time>
      </trkpt>
      <trkpt lat="47.56777" lon="6.73888">
        <ele>357</ele>
        <time>2016-12-04T10:43:28.000Z</time>
      </trkpt>
      <trkpt lat="47.56774" lon="6.7389">
        <ele>357</ele>
        <time>2016-12-04T10:43:29.000Z</time>
      </trkpt>
      <trkpt lat="47.56771" lon="6.7389">
        <ele>357</ele>
        <time>2016-12-04T10:43:30.000Z</time>
      </trkpt>
      <trkpt lat="47.56769" lon="6.73891">
        <ele>357</ele>
        <time>2016-12-04T10:43:31.000Z</time>
      </trkpt>
      <trkpt lat="47.56767" lon="6.73892">
        <ele>357</ele>
        <time>2016-12-04T10:43:32.000Z</time>
      </trkpt>
      <trkpt lat="47.56765" lon="6.73894">
        <ele>357</ele>
        <time>2016-12-04T10:43:33.000Z</time>
      </trkpt>
      <trkpt lat="47.56761" lon="6.73895">
        <ele>357</ele>
        <time>2016-12-04T10:43:34.000Z</time>
      </trkpt>
      <trkpt lat="47.56759" lon="6.73896">
        <ele>357</ele>
        <time>2016-12-04T10:43:35.000Z</time>
      </trkpt>
      <trkpt lat="47.56756" lon="6.73897">
        <ele>357</ele>
        <time>2016-12-04T10:43:36.000Z</time>
      </trkpt>
      <trkpt lat="47.56753" lon="6.73898">
        <ele>357</ele>
        <time>2016-12-04T10:43:37.000Z</time>
      </trkpt>
      <trkpt lat="47.5675" lon="6.73899">
        <ele>357</ele>
        <time>2016-12-04T10:43:38.000Z</time>
      </trkpt>
      <trkpt lat="47.56747" lon="6.739">
        <ele>361</ele>
        <time>2016-12-04T10:43:39.000Z</time>
      </trkpt>
      <trkpt lat="47.56745" lon="6.739">
        <ele>361</ele>
        <time>2016-12-04T10:43:40.000Z</time>
      </trkpt>
      <trkpt lat="47.56742" lon="6.739">
        <ele>361</ele>
        <time>2016-12-04T10:43:41.000Z</time>
      </trkpt>
      <trkpt lat="47.5674" lon="6.73901">
        <ele>361</ele>
        <time>2016-12-04T10:43:42.000Z</time>
      </trkpt>
      <trkpt lat="47.56737" lon="6.73902">
        <ele>362</ele>
        <time>2016-12-04T10:43:43.000Z</time>
      </trkpt>
      <trkpt lat="47.56734" lon="6.73901">
        <ele>362</ele>
        <time>2016-12-04T10:43:44.000Z</time>
      </trkpt>
      <trkpt lat="47.56731" lon="6.73901">
        <ele>363</ele>
        <time>2016-12-04T10:43:45.000Z</time>
      </trkpt>
      <trkpt lat="47.56728" lon="6.73901">
        <ele>363</ele>
        <time>2016-12-04T10:43:46.000Z</time>
      </trkpt>
      <trkpt lat="47.56725" lon="6.73901">
        <ele>363</ele>
        <time>2016-12-04T10:43:47.000Z</time>
      </trkpt>
      <trkpt lat="47.56722" lon="6.73902">
        <ele>363</ele>
        <time>2016-12-04T10:43:48.000Z</time>
      </trkpt>
      <trkpt lat="47.56719" lon="6.73903">
        <ele>364</ele>
        <time>2016-12-04T10:43:49.000Z</time>
      </trkpt>
      <trkpt lat="47.56715" lon="6.73905">
        <ele>364</ele>
        <time>2016-12-04T10:43:50.000Z</time>
      </trkpt>
      <trkpt lat="47.56713" lon="6.73907">
        <ele>364</ele>
        <time>2016-12-04T10:43:51.000Z</time>
      </trkpt>
      <trkpt lat="47.56709" lon="6.73909">
        <ele>364</ele>
        <time>2016-12-04T10:43:52.000Z</time>
      </trkpt>
      <trkpt lat="47.56706" lon="6.73911">
        <ele>364</ele>
        <time>2016-12-04T10:43:53.000Z</time>
      </trkpt>
      <trkpt lat="47.56703" lon="6.73911">
        <ele>364</ele>
        <time>2016-12-04T10:43:54.000Z</time>
      </trkpt>
      <trkpt lat="47.567" lon="6.73913">
        <ele>364</ele>
        <time>2016-12-04T10:43:55.000Z</time>
      </trkpt>
      <trkpt lat="47.56698" lon="6.73914">
        <ele>364</ele>
        <time>2016-12-04T10:43:56.000Z</time>
      </trkpt>
      <trkpt lat="47.56694" lon="6.73916">
        <ele>363</ele>
        <time>2016-12-04T10:43:57.000Z</time>
      </trkpt>
      <trkpt lat="47.5669" lon="6.73918">
        <ele>355</ele>
        <time>2016-12-04T10:43:58.000Z</time>
      </trkpt>
      <trkpt lat="47.56686" lon="6.7392">
        <ele>356</ele>
        <time>2016-12-04T10:43:59.000Z</time>
      </trkpt>
      <trkpt lat="47.56682" lon="6.73922">
        <ele>356</ele>
        <time>2016-12-04T10:44:00.000Z</time>
      </trkpt>
      <trkpt lat="47.56678" lon="6.73924">
        <ele>356</ele>
        <time>2016-12-04T10:44:01.000Z</time>
      </trkpt>
      <trkpt lat="47.56675" lon="6.73926">
        <ele>356</ele>
        <time>2016-12-04T10:44:02.000Z</time>
      </trkpt>
      <trkpt lat="47.5667" lon="6.73928">
        <ele>357</ele>
        <time>2016-12-04T10:44:03.000Z</time>
      </trkpt>
      <trkpt lat="47.56666" lon="6.7393">
        <ele>357</ele>
        <time>2016-12-04T10:44:04.000Z</time>
      </trkpt>
      <trkpt lat="47.56661" lon="6.73931">
        <ele>357</ele>
        <time>2016-12-04T10:44:05.000Z</time>
      </trkpt>
      <trkpt lat="47.56656" lon="6.73933">
        <ele>357</ele>
        <time>2016-12-04T10:44:06.000Z</time>
      </trkpt>
      <trkpt lat="47.56652" lon="6.73934">
        <ele>357</ele>
        <time>2016-12-04T10:44:07.000Z</time>
      </trkpt>
      <trkpt lat="47.56648" lon="6.73935">
        <ele>357</ele>
        <time>2016-12-04T10:44:08.000Z</time>
      </trkpt>
      <trkpt lat="47.56642" lon="6.73937">
        <ele>356</ele>
        <time>2016-12-04T10:44:09.000Z</time>
      </trkpt>
      <trkpt lat="47.56637" lon="6.73938">
        <ele>356</ele>
        <time>2016-12-04T10:44:10.000Z</time>
      </trkpt>
      <trkpt lat="47.56632" lon="6.73939">
        <ele>356</ele>
        <time>2016-12-04T10:44:11.000Z</time>
      </trkpt>
      <trkpt lat="47.56627" lon="6.7394">
        <ele>356</ele>
        <time>2016-12-04T10:44:12.000Z</time>
      </trkpt>
      <trkpt lat="47.56622" lon="6.73941">
        <ele>356</ele>
        <time>2016-12-04T10:44:13.000Z</time>
      </trkpt>
      <trkpt lat="47.56617" lon="6.73942">
        <ele>356</ele>
        <time>2016-12-04T10:44:14.000Z</time>
      </trkpt>
      <trkpt lat="47.56612" lon="6.73942">
        <ele>356</ele>
        <time>2016-12-04T10:44:15.000Z</time>
      </trkpt>
      <trkpt lat="47.56607" lon="6.73943">
        <ele>356</ele>
        <time>2016-12-04T10:44:16.000Z</time>
      </trkpt>
      <trkpt lat="47.56603" lon="6.73943">
        <ele>356</ele>
        <time>2016-12-04T10:44:17.000Z</time>
      </trkpt>
      <trkpt lat="47.56598" lon="6.73943">
        <ele>357</ele>
        <time>2016-12-04T10:44:18.000Z</time>
      </trkpt>
      <trkpt lat="47.56594" lon="6.73942">
        <ele>357</ele>
        <time>2016-12-04T10:44:19.000Z</time>
      </trkpt>
      <trkpt lat="47.5659" lon="6.73941">
        <ele>357</ele>
        <time>2016-12-04T10:44:20.000Z</time>
      </trkpt>
      <trkpt lat="47.56585" lon="6.7394">
        <ele>357</ele>
        <time>2016-12-04T10:44:21.000Z</time>
      </trkpt>
      <trkpt lat="47.5658" lon="6.73939">
        <ele>358</ele>
        <time>2016-12-04T10:44:22.000Z</time>
      </trkpt>
      <trkpt lat="47.56576" lon="6.73939">
        <ele>358</ele>
        <time>2016-12-04T10:44:23.000Z</time>
      </trkpt>
      <trkpt lat="47.56573" lon="6.73938">
        <ele>358</ele>
        <time>2016-12-04T10:44:24.000Z</time>
      </trkpt>
      <trkpt lat="47.56569" lon="6.73938">
        <ele>358</ele>
        <time>2016-12-04T10:44:25.000Z</time>
      </trkpt>
      <trkpt lat="47.56565" lon="6.73938">
        <ele>358</ele>
        <time>2016-12-04T10:44:26.000Z</time>
      </trkpt>
      <trkpt lat="47.56561" lon="6.73938">
        <ele>358</ele>
        <time>2016-12-04T10:44:27.000Z</time>
      </trkpt>
      <trkpt lat="47.56555" lon="6.73938">
        <ele>358</ele>
        <time>2016-12-04T10:44:28.000Z</time>
      </trkpt>
      <trkpt lat="47.56551" lon="6.73938">
        <ele>358</ele>
        <time>2016-12-04T10:44:29.000Z</time>
      </trkpt>
      <trkpt lat="47.56547" lon="6.73938">
        <ele>358</ele>
        <time>2016-12-04T10:44:30.000Z</time>
      </trkpt>
      <trkpt lat="47.56543" lon="6.73938">
        <ele>359</ele>
        <time>2016-12-04T10:44:31.000Z</time>
      </trkpt>
      <trkpt lat="47.56538" lon="6.73938">
        <ele>359</ele>
        <time>2016-12-04T10:44:32.000Z</time>
      </trkpt>
      <trkpt lat="47.56534" lon="6.73939">
        <ele>359</ele>
        <time>2016-12-04T10:44:33.000Z</time>
      </trkpt>
      <trkpt lat="47.56531" lon="6.7394">
        <ele>359</ele>
        <time>2016-12-04T10:44:34.000Z</time>
      </trkpt>
      <trkpt lat="47.56528" lon="6.7394">
        <ele>359</ele>
        <time>2016-12-04T10:44:35.000Z</time>
      </trkpt>
      <trkpt lat="47.56525" lon="6.73943">
        <ele>359</ele>
        <time>2016-12-04T10:44:36.000Z</time>
      </trkpt>
      <trkpt lat="47.56521" lon="6.73945">
        <ele>359</ele>
        <time>2016-12-04T10:44:37.000Z</time>
      </trkpt>
      <trkpt lat="47.56517" lon="6.73948">
        <ele>359</ele>
        <time>2016-12-04T10:44:38.000Z</time>
      </trkpt>
      <trkpt lat="47.56514" lon="6.7395">
        <ele>359</ele>
        <time>2016-12-04T10:44:39.000Z</time>
      </trkpt>
      <trkpt lat="47.56511" lon="6.73951">
        <ele>359</ele>
        <time>2016-12-04T10:44:40.000Z</time>
      </trkpt>
      <trkpt lat="47.56509" lon="6.73951">
        <ele>359</ele>
        <time>2016-12-04T10:44:41.000Z</time>
      </trkpt>
      <trkpt lat="47.56506" lon="6.7395">
        <ele>359</ele>
        <time>2016-12-04T10:44:42.000Z</time>
      </trkpt>
      <trkpt lat="47.56503" lon="6.7395">
        <ele>359</ele>
        <time>2016-12-04T10:44:43.000Z</time>
      </trkpt>
      <trkpt lat="47.565" lon="6.73949">
        <ele>362</ele>
        <time>2016-12-04T10:44:44.000Z</time>
      </trkpt>
      <trkpt lat="47.56497" lon="6.73949">
        <ele>362</ele>
        <time>2016-12-04T10:44:45.000Z</time>
      </trkpt>
      <trkpt lat="47.56493" lon="6.73947">
        <ele>362</ele>
        <time>2016-12-04T10:44:46.000Z</time>
      </trkpt>
      <trkpt lat="47.5649" lon="6.73946">
        <ele>363</ele>
        <time>2016-12-04T10:44:47.000Z</time>
      </trkpt>
      <trkpt lat="47.56488" lon="6.73946">
        <ele>363</ele>
        <time>2016-12-04T10:44:48.000Z</time>
      </trkpt>
      <trkpt lat="47.56485" lon="6.73945">
        <ele>363</ele>
        <time>2016-12-04T10:44:49.000Z</time>
      </trkpt>
      <trkpt lat="47.56482" lon="6.73944">
        <ele>363</ele>
        <time>2016-12-04T10:44:50.000Z</time>
      </trkpt>
      <trkpt lat="47.56479" lon="6.73943">
        <ele>363</ele>
        <time>2016-12-04T10:44:51.000Z</time>
      </trkpt>
      <trkpt lat="47.56476" lon="6.73941">
        <ele>363</ele>
        <time>2016-12-04T10:44:52.000Z</time>
      </trkpt>
      <trkpt lat="47.56474" lon="6.73938">
        <ele>363</ele>
        <time>2016-12-04T10:44:53.000Z</time>
      </trkpt>
      <trkpt lat="47.56471" lon="6.73936">
        <ele>363</ele>
        <time>2016-12-04T10:44:54.000Z</time>
      </trkpt>
      <trkpt lat="47.56467" lon="6.73936">
        <ele>363</ele>
        <time>2016-12-04T10:44:56.000Z</time>
      </trkpt>
      <trkpt lat="47.56463" lon="6.73935">
        <ele>363</ele>
        <time>2016-12-04T10:44:57.000Z</time>
      </trkpt>
      <trkpt lat="47.5646" lon="6.73936">
        <ele>364</ele>
        <time>2016-12-04T10:44:58.000Z</time>
      </trkpt>
      <trkpt lat="47.56458" lon="6.73936">
        <ele>364</ele>
        <time>2016-12-04T10:44:59.000Z</time>
      </trkpt>
      <trkpt lat="47.56456" lon="6.73937">
        <ele>364</ele>
        <time>2016-12-04T10:45:00.000Z</time>
      </trkpt>
      <trkpt lat="47.56454" lon="6.73937">
        <ele>364</ele>
        <time>2016-12-04T10:45:01.000Z</time>
      </trkpt>
      <trkpt lat="47.56452" lon="6.73938">
        <ele>364</ele>
        <time>2016-12-04T10:45:02.000Z</time>
      </trkpt>
      <trkpt lat="47.56449" lon="6.73938">
        <ele>364</ele>
        <time>2016-12-04T10:45:03.000Z</time>
      </trkpt>
      <trkpt lat="47.56448" lon="6.73939">
        <ele>364</ele>
        <time>2016-12-04T10:45:04.000Z</time>
      </trkpt>
      <trkpt lat="47.56445" lon="6.73941">
        <ele>364</ele>
        <time>2016-12-04T10:45:05.000Z</time>
      </trkpt>
      <trkpt lat="47.56441" lon="6.73942">
        <ele>365</ele>
        <time>2016-12-04T10:45:07.000Z</time>
      </trkpt>
      <trkpt lat="47.56439" lon="6.73943">
        <ele>365</ele>
        <time>2016-12-04T10:45:08.000Z</time>
      </trkpt>
      <trkpt lat="47.56435" lon="6.73945">
        <ele>365</ele>
        <time>2016-12-04T10:45:10.000Z</time>
      </trkpt>
      <trkpt lat="47.56433" lon="6.73946">
        <ele>365</ele>
        <time>2016-12-04T10:45:11.000Z</time>
      </trkpt>
      <trkpt lat="47.56429" lon="6.73948">
        <ele>365</ele>
        <time>2016-12-04T10:45:13.000Z</time>
      </trkpt>
      <trkpt lat="47.56426" lon="6.73949">
        <ele>365</ele>
        <time>2016-12-04T10:45:14.000Z</time>
      </trkpt>
      <trkpt lat="47.56423" lon="6.7395">
        <ele>365</ele>
        <time>2016-12-04T10:45:16.000Z</time>
      </trkpt>
      <trkpt lat="47.56421" lon="6.73951">
        <ele>365</ele>
        <time>2016-12-04T10:45:17.000Z</time>
      </trkpt>
      <trkpt lat="47.56417" lon="6.7395">
        <ele>365</ele>
        <time>2016-12-04T10:45:19.000Z</time>
      </trkpt>
      <trkpt lat="47.56414" lon="6.73949">
        <ele>371</ele>
        <time>2016-12-04T10:45:20.000Z</time>
      </trkpt>
      <trkpt lat="47.5641" lon="6.73949">
        <ele>371</ele>
        <time>2016-12-04T10:45:22.000Z</time>
      </trkpt>
      <trkpt lat="47.56408" lon="6.7395">
        <ele>371</ele>
        <time>2016-12-04T10:45:23.000Z</time>
      </trkpt>
      <trkpt lat="47.56405" lon="6.73951">
        <ele>371</ele>
        <time>2016-12-04T10:45:25.000Z</time>
      </trkpt>
      <trkpt lat="47.56404" lon="6.73952">
        <ele>371</ele>
        <time>2016-12-04T10:45:26.000Z</time>
      </trkpt>
      <trkpt lat="47.56402" lon="6.73958">
        <ele>372</ele>
        <time>2016-12-04T10:45:28.000Z</time>
      </trkpt>
      <trkpt lat="47.56402" lon="6.73961">
        <ele>372</ele>
        <time>2016-12-04T10:45:29.000Z</time>
      </trkpt>
      <trkpt lat="47.56402" lon="6.73964">
        <ele>372</ele>
        <time>2016-12-04T10:45:30.000Z</time>
      </trkpt>
      <trkpt lat="47.56401" lon="6.7397">
        <ele>372</ele>
        <time>2016-12-04T10:45:31.000Z</time>
      </trkpt>
      <trkpt lat="47.56401" lon="6.73977">
        <ele>372</ele>
        <time>2016-12-04T10:45:32.000Z</time>
      </trkpt>
      <trkpt lat="47.564" lon="6.73982">
        <ele>372</ele>
        <time>2016-12-04T10:45:34.000Z</time>
      </trkpt>
      <trkpt lat="47.564" lon="6.73983">
        <ele>372</ele>
        <time>2016-12-04T10:45:35.000Z</time>
      </trkpt>
      <trkpt lat="47.56398" lon="6.73988">
        <ele>372</ele>
        <time>2016-12-04T10:45:38.000Z</time>
      </trkpt>
      <trkpt lat="47.56397" lon="6.73989">
        <ele>372</ele>
        <time>2016-12-04T10:45:39.000Z</time>
      </trkpt>
      <trkpt lat="47.56393" lon="6.7399">
        <ele>373</ele>
        <time>2016-12-04T10:45:42.000Z</time>
      </trkpt>
      <trkpt lat="47.56391" lon="6.73991">
        <ele>373</ele>
        <time>2016-12-04T10:45:43.000Z</time>
      </trkpt>
      <trkpt lat="47.56388" lon="6.73993">
        <ele>373</ele>
        <time>2016-12-04T10:45:46.000Z</time>
      </trkpt>
      <trkpt lat="47.56386" lon="6.73994">
        <ele>373</ele>
        <time>2016-12-04T10:45:47.000Z</time>
      </trkpt>
      <trkpt lat="47.56383" lon="6.73997">
        <ele>373</ele>
        <time>2016-12-04T10:45:49.000Z</time>
      </trkpt>
      <trkpt lat="47.56382" lon="6.73998">
        <ele>374</ele>
        <time>2016-12-04T10:45:50.000Z</time>
      </trkpt>
      <trkpt lat="47.5638" lon="6.74002">
        <ele>377</ele>
        <time>2016-12-04T10:45:52.000Z</time>
      </trkpt>
      <trkpt lat="47.56378" lon="6.74003">
        <ele>377</ele>
        <time>2016-12-04T10:45:53.000Z</time>
      </trkpt>
      <trkpt lat="47.56375" lon="6.74005">
        <ele>378</ele>
        <time>2016-12-04T10:45:55.000Z</time>
      </trkpt>
      <trkpt lat="47.56373" lon="6.74006">
        <ele>378</ele>
        <time>2016-12-04T10:45:56.000Z</time>
      </trkpt>
      <trkpt lat="47.56369" lon="6.74008">
        <ele>378</ele>
        <time>2016-12-04T10:45:59.000Z</time>
      </trkpt>
      <trkpt lat="47.56367" lon="6.74009">
        <ele>379</ele>
        <time>2016-12-04T10:46:00.000Z</time>
      </trkpt>
      <trkpt lat="47.56364" lon="6.74011">
        <ele>379</ele>
        <time>2016-12-04T10:46:02.000Z</time>
      </trkpt>
      <trkpt lat="47.56362" lon="6.74012">
        <ele>379</ele>
        <time>2016-12-04T10:46:03.000Z</time>
      </trkpt>
      <trkpt lat="47.5636" lon="6.74015">
        <ele>379</ele>
        <time>2016-12-04T10:46:05.000Z</time>
      </trkpt>
      <trkpt lat="47.56358" lon="6.74017">
        <ele>379</ele>
        <time>2016-12-04T10:46:06.000Z</time>
      </trkpt>
      <trkpt lat="47.56355" lon="6.74021">
        <ele>380</ele>
        <time>2016-12-04T10:46:08.000Z</time>
      </trkpt>
      <trkpt lat="47.56353" lon="6.74023">
        <ele>380</ele>
        <time>2016-12-04T10:46:09.000Z</time>
      </trkpt>
      <trkpt lat="47.5635" lon="6.74026">
        <ele>380</ele>
        <time>2016-12-04T10:46:12.000Z</time>
      </trkpt>
      <trkpt lat="47.56349" lon="6.74027">
        <ele>380</ele>
        <time>2016-12-04T10:46:13.000Z</time>
      </trkpt>
      <trkpt lat="47.56346" lon="6.74031">
        <ele>380</ele>
        <time>2016-12-04T10:46:15.000Z</time>
      </trkpt>
      <trkpt lat="47.56345" lon="6.74033">
        <ele>380</ele>
        <time>2016-12-04T10:46:16.000Z</time>
      </trkpt>
      <trkpt lat="47.56343" lon="6.74036">
        <ele>381</ele>
        <time>2016-12-04T10:46:18.000Z</time>
      </trkpt>
      <trkpt lat="47.56341" lon="6.74037">
        <ele>381</ele>
        <time>2016-12-04T10:46:19.000Z</time>
      </trkpt>
      <trkpt lat="47.56337" lon="6.7404">
        <ele>381</ele>
        <time>2016-12-04T10:46:22.000Z</time>
      </trkpt>
      <trkpt lat="47.56336" lon="6.74041">
        <ele>381</ele>
        <time>2016-12-04T10:46:23.000Z</time>
      </trkpt>
      <trkpt lat="47.56334" lon="6.74045">
        <ele>381</ele>
        <time>2016-12-04T10:46:25.000Z</time>
      </trkpt>
      <trkpt lat="47.56333" lon="6.74047">
        <ele>389</ele>
        <time>2016-12-04T10:46:26.000Z</time>
      </trkpt>
      <trkpt lat="47.56329" lon="6.74051">
        <ele>389</ele>
        <time>2016-12-04T10:46:28.000Z</time>
      </trkpt>
      <trkpt lat="47.56328" lon="6.74054">
        <ele>389</ele>
        <time>2016-12-04T10:46:29.000Z</time>
      </trkpt>
      <trkpt lat="47.56325" lon="6.74059">
        <ele>390</ele>
        <time>2016-12-04T10:46:33.000Z</time>
      </trkpt>
      <trkpt lat="47.56324" lon="6.7406">
        <ele>390</ele>
        <time>2016-12-04T10:46:34.000Z</time>
      </trkpt>
      <trkpt lat="47.56321" lon="6.74064">
        <ele>390</ele>
        <time>2016-12-04T10:46:36.000Z</time>
      </trkpt>
      <trkpt lat="47.56319" lon="6.74065">
        <ele>390</ele>
        <time>2016-12-04T10:46:37.000Z</time>
      </trkpt>
      <trkpt lat="47.56317" lon="6.74067">
        <ele>390</ele>
        <time>2016-12-04T10:46:39.000Z</time>
      </trkpt>
      <trkpt lat="47.56315" lon="6.74069">
        <ele>390</ele>
        <time>2016-12-04T10:46:40.000Z</time>
      </trkpt>
      <trkpt lat="47.56312" lon="6.74072">
        <ele>390</ele>
        <time>2016-12-04T10:46:43.000Z</time>
      </trkpt>
      <trkpt lat="47.56311" lon="6.74073">
        <ele>390</ele>
        <time>2016-12-04T10:46:44.000Z</time>
      </trkpt>
      <trkpt lat="47.56307" lon="6.74074">
        <ele>391</ele>
        <time>2016-12-04T10:46:48.000Z</time>
      </trkpt>
      <trkpt lat="47.56305" lon="6.74075">
        <ele>391</ele>
        <time>2016-12-04T10:46:49.000Z</time>
      </trkpt>
      <trkpt lat="47.56303" lon="6.74076">
        <ele>391</ele>
        <time>2016-12-04T10:46:50.000Z</time>
      </trkpt>
      <trkpt lat="47.563" lon="6.74077">
        <ele>391</ele>
        <time>2016-12-04T10:46:51.000Z</time>
      </trkpt>
      <trkpt lat="47.56297" lon="6.74079">
        <ele>392</ele>
        <time>2016-12-04T10:46:57.000Z</time>
      </trkpt>
      <trkpt lat="47.56296" lon="6.74079">
        <ele>392</ele>
        <time>2016-12-04T10:46:58.000Z</time>
      </trkpt>
      <trkpt lat="47.56292" lon="6.74075">
        <ele>392</ele>
        <time>2016-12-04T10:47:04.000Z</time>
      </trkpt>
      <trkpt lat="47.56291" lon="6.74075">
        <ele>392</ele>
        <time>2016-12-04T10:47:05.000Z</time>
      </trkpt>
      <trkpt lat="47.56286" lon="6.74075">
        <ele>393</ele>
        <time>2016-12-04T10:47:08.000Z</time>
      </trkpt>
      <trkpt lat="47.56285" lon="6.74075">
        <ele>393</ele>
        <time>2016-12-04T10:47:09.000Z</time>
      </trkpt>
      <trkpt lat="47.56281" lon="6.74076">
        <ele>393</ele>
        <time>2016-12-04T10:47:12.000Z</time>
      </trkpt>
      <trkpt lat="47.5628" lon="6.74076">
        <ele>394</ele>
        <time>2016-12-04T10:47:13.000Z</time>
      </trkpt>
      <trkpt lat="47.56277" lon="6.74077">
        <ele>394</ele>
        <time>2016-12-04T10:47:15.000Z</time>
      </trkpt>
      <trkpt lat="47.56275" lon="6.7408">
        <ele>394</ele>
        <time>2016-12-04T10:47:16.000Z</time>
      </trkpt>
      <trkpt lat="47.56272" lon="6.74084">
        <ele>399</ele>
        <time>2016-12-04T10:47:19.000Z</time>
      </trkpt>
      <trkpt lat="47.56271" lon="6.74084">
        <ele>399</ele>
        <time>2016-12-04T10:47:20.000Z</time>
      </trkpt>
      <trkpt lat="47.56267" lon="6.74086">
        <ele>399</ele>
        <time>2016-12-04T10:47:23.000Z</time>
      </trkpt>
      <trkpt lat="47.56266" lon="6.74086">
        <ele>399</ele>
        <time>2016-12-04T10:47:24.000Z</time>
      </trkpt>
      <trkpt lat="47.56262" lon="6.74086">
        <ele>399</ele>
        <time>2016-12-04T10:47:26.000Z</time>
      </trkpt>
      <trkpt lat="47.56261" lon="6.74087">
        <ele>399</ele>
        <time>2016-12-04T10:47:27.000Z</time>
      </trkpt>
      <trkpt lat="47.56258" lon="6.74091">
        <ele>400</ele>
        <time>2016-12-04T10:47:30.000Z</time>
      </trkpt>
      <trkpt lat="47.56256" lon="6.74092">
        <ele>400</ele>
        <time>2016-12-04T10:47:31.000Z</time>
      </trkpt>
      <trkpt lat="47.56253" lon="6.74096">
        <ele>400</ele>
        <time>2016-12-04T10:47:34.000Z</time>
      </trkpt>
      <trkpt lat="47.56251" lon="6.74097">
        <ele>400</ele>
        <time>2016-12-04T10:47:35.000Z</time>
      </trkpt>
      <trkpt lat="47.56247" lon="6.74099">
        <ele>404</ele>
        <time>2016-12-04T10:47:38.000Z</time>
      </trkpt>
      <trkpt lat="47.56246" lon="6.74099">
        <ele>404</ele>
        <time>2016-12-04T10:47:39.000Z</time>
      </trkpt>
      <trkpt lat="47.56242" lon="6.741">
        <ele>404</ele>
        <time>2016-12-04T10:47:44.000Z</time>
      </trkpt>
      <trkpt lat="47.56241" lon="6.74101">
        <ele>404</ele>
        <time>2016-12-04T10:47:45.000Z</time>
      </trkpt>
      <trkpt lat="47.56237" lon="6.74101">
        <ele>405</ele>
        <time>2016-12-04T10:47:49.000Z</time>
      </trkpt>
      <trkpt lat="47.56236" lon="6.74102">
        <ele>405</ele>
        <time>2016-12-04T10:47:50.000Z</time>
      </trkpt>
      <trkpt lat="47.56232" lon="6.74104">
        <ele>405</ele>
        <time>2016-12-04T10:47:54.000Z</time>
      </trkpt>
      <trkpt lat="47.56231" lon="6.74104">
        <ele>405</ele>
        <time>2016-12-04T10:47:55.000Z</time>
      </trkpt>
      <trkpt lat="47.56227" lon="6.74106">
        <ele>406</ele>
        <time>2016-12-04T10:47:57.000Z</time>
      </trkpt>
      <trkpt lat="47.56226" lon="6.74107">
        <ele>406</ele>
        <time>2016-12-04T10:47:58.000Z</time>
      </trkpt>
      <trkpt lat="47.56225" lon="6.74113">
        <ele>407</ele>
        <time>2016-12-04T10:48:01.000Z</time>
      </trkpt>
      <trkpt lat="47.56224" lon="6.74113">
        <ele>407</ele>
        <time>2016-12-04T10:48:02.000Z</time>
      </trkpt>
      <trkpt lat="47.56221" lon="6.74117">
        <ele>407</ele>
        <time>2016-12-04T10:48:06.000Z</time>
      </trkpt>
      <trkpt lat="47.56219" lon="6.74119">
        <ele>407</ele>
        <time>2016-12-04T10:48:07.000Z</time>
      </trkpt>
      <trkpt lat="47.56216" lon="6.74122">
        <ele>408</ele>
        <time>2016-12-04T10:48:09.000Z</time>
      </trkpt>
      <trkpt lat="47.56215" lon="6.74124">
        <ele>408</ele>
        <time>2016-12-04T10:48:10.000Z</time>
      </trkpt>
      <trkpt lat="47.56212" lon="6.74128">
        <ele>408</ele>
        <time>2016-12-04T10:48:15.000Z</time>
      </trkpt>
      <trkpt lat="47.56211" lon="6.74129">
        <ele>408</ele>
        <time>2016-12-04T10:48:16.000Z</time>
      </trkpt>
      <trkpt lat="47.56207" lon="6.74131">
        <ele>408</ele>
        <time>2016-12-04T10:48:20.000Z</time>
      </trkpt>
      <trkpt lat="47.56206" lon="6.74131">
        <ele>408</ele>
        <time>2016-12-04T10:48:21.000Z</time>
      </trkpt>
      <trkpt lat="47.56203" lon="6.74133">
        <ele>409</ele>
        <time>2016-12-04T10:48:25.000Z</time>
      </trkpt>
      <trkpt lat="47.562" lon="6.74136">
        <ele>409</ele>
        <time>2016-12-04T10:48:26.000Z</time>
      </trkpt>
      <trkpt lat="47.56198" lon="6.74139">
        <ele>409</ele>
        <time>2016-12-04T10:48:27.000Z</time>
      </trkpt>
      <trkpt lat="47.56197" lon="6.74141">
        <ele>410</ele>
        <time>2016-12-04T10:48:28.000Z</time>
      </trkpt>
      <trkpt lat="47.56194" lon="6.74144">
        <ele>410</ele>
        <time>2016-12-04T10:48:31.000Z</time>
      </trkpt>
      <trkpt lat="47.56192" lon="6.74146">
        <ele>410</ele>
        <time>2016-12-04T10:48:32.000Z</time>
      </trkpt>
      <trkpt lat="47.56189" lon="6.74149">
        <ele>411</ele>
        <time>2016-12-04T10:48:35.000Z</time>
      </trkpt>
      <trkpt lat="47.56188" lon="6.7415">
        <ele>411</ele>
        <time>2016-12-04T10:48:36.000Z</time>
      </trkpt>
      <trkpt lat="47.56184" lon="6.74153">
        <ele>412</ele>
        <time>2016-12-04T10:48:40.000Z</time>
      </trkpt>
      <trkpt lat="47.56182" lon="6.74155">
        <ele>412</ele>
        <time>2016-12-04T10:48:41.000Z</time>
      </trkpt>
      <trkpt lat="47.56179" lon="6.74158">
        <ele>413</ele>
        <time>2016-12-04T10:48:43.000Z</time>
      </trkpt>
      <trkpt lat="47.56177" lon="6.7416">
        <ele>413</ele>
        <time>2016-12-04T10:48:44.000Z</time>
      </trkpt>
      <trkpt lat="47.56174" lon="6.74162">
        <ele>414</ele>
        <time>2016-12-04T10:48:46.000Z</time>
      </trkpt>
      <trkpt lat="47.56171" lon="6.74163">
        <ele>415</ele>
        <time>2016-12-04T10:48:47.000Z</time>
      </trkpt>
      <trkpt lat="47.56168" lon="6.74166">
        <ele>416</ele>
        <time>2016-12-04T10:48:49.000Z</time>
      </trkpt>
      <trkpt lat="47.56167" lon="6.74167">
        <ele>417</ele>
        <time>2016-12-04T10:48:50.000Z</time>
      </trkpt>
      <trkpt lat="47.56164" lon="6.74169">
        <ele>417</ele>
        <time>2016-12-04T10:48:52.000Z</time>
      </trkpt>
      <trkpt lat="47.56162" lon="6.7417">
        <ele>417</ele>
        <time>2016-12-04T10:48:53.000Z</time>
      </trkpt>
      <trkpt lat="47.56158" lon="6.74171">
        <ele>418</ele>
        <time>2016-12-04T10:48:56.000Z</time>
      </trkpt>
      <trkpt lat="47.56155" lon="6.74172">
        <ele>418</ele>
        <time>2016-12-04T10:48:57.000Z</time>
      </trkpt>
      <trkpt lat="47.56151" lon="6.74174">
        <ele>418</ele>
        <time>2016-12-04T10:48:59.000Z</time>
      </trkpt>
      <trkpt lat="47.5615" lon="6.74175">
        <ele>418</ele>
        <time>2016-12-04T10:49:00.000Z</time>
      </trkpt>
      <trkpt lat="47.56145" lon="6.74175">
        <ele>418</ele>
        <time>2016-12-04T10:49:04.000Z</time>
      </trkpt>
      <trkpt lat="47.56144" lon="6.74175">
        <ele>418</ele>
        <time>2016-12-04T10:49:05.000Z</time>
      </trkpt>
      <trkpt lat="47.56141" lon="6.74178">
        <ele>418</ele>
        <time>2016-12-04T10:49:08.000Z</time>
      </trkpt>
      <trkpt lat="47.5614" lon="6.74178">
        <ele>418</ele>
        <time>2016-12-04T10:49:09.000Z</time>
      </trkpt>
      <trkpt lat="47.56138" lon="6.7418">
        <ele>418</ele>
        <time>2016-12-04T10:49:11.000Z</time>
      </trkpt>
      <trkpt lat="47.56136" lon="6.74181">
        <ele>418</ele>
        <time>2016-12-04T10:49:12.000Z</time>
      </trkpt>
      <trkpt lat="47.56133" lon="6.74184">
        <ele>418</ele>
        <time>2016-12-04T10:49:15.000Z</time>
      </trkpt>
      <trkpt lat="47.56132" lon="6.74184">
        <ele>418</ele>
        <time>2016-12-04T10:49:16.000Z</time>
      </trkpt>
      <trkpt lat="47.56128" lon="6.74187">
        <ele>418</ele>
        <time>2016-12-04T10:49:18.000Z</time>
      </trkpt>
      <trkpt lat="47.56127" lon="6.74188">
        <ele>418</ele>
        <time>2016-12-04T10:49:19.000Z</time>
      </trkpt>
      <trkpt lat="47.56124" lon="6.74192">
        <ele>418</ele>
        <time>2016-12-04T10:49:21.000Z</time>
      </trkpt>
      <trkpt lat="47.56123" lon="6.74193">
        <ele>418</ele>
        <time>2016-12-04T10:49:22.000Z</time>
      </trkpt>
      <trkpt lat="47.56119" lon="6.74195">
        <ele>418</ele>
        <time>2016-12-04T10:49:24.000Z</time>
      </trkpt>
      <trkpt lat="47.56117" lon="6.74197">
        <ele>418</ele>
        <time>2016-12-04T10:49:25.000Z</time>
      </trkpt>
      <trkpt lat="47.56115" lon="6.74198">
        <ele>418</ele>
        <time>2016-12-04T10:49:26.000Z</time>
      </trkpt>
      <trkpt lat="47.56113" lon="6.74199">
        <ele>418</ele>
        <time>2016-12-04T10:49:27.000Z</time>
      </trkpt>
      <trkpt lat="47.56109" lon="6.742">
        <ele>418</ele>
        <time>2016-12-04T10:49:29.000Z</time>
      </trkpt>
      <trkpt lat="47.56107" lon="6.74201">
        <ele>418</ele>
        <time>2016-12-04T10:49:30.000Z</time>
      </trkpt>
      <trkpt lat="47.56103" lon="6.74201">
        <ele>418</ele>
        <time>2016-12-04T10:49:32.000Z</time>
      </trkpt>
      <trkpt lat="47.561" lon="6.74201">
        <ele>418</ele>
        <time>2016-12-04T10:49:33.000Z</time>
      </trkpt>
      <trkpt lat="47.56097" lon="6.74201">
        <ele>418</ele>
        <time>2016-12-04T10:49:35.000Z</time>
      </trkpt>
      <trkpt lat="47.56095" lon="6.74202">
        <ele>418</ele>
        <time>2016-12-04T10:49:36.000Z</time>
      </trkpt>
      <trkpt lat="47.56093" lon="6.74203">
        <ele>418</ele>
        <time>2016-12-04T10:49:37.000Z</time>
      </trkpt>
      <trkpt lat="47.5609" lon="6.74205">
        <ele>418</ele>
        <time>2016-12-04T10:49:38.000Z</time>
      </trkpt>
      <trkpt lat="47.56088" lon="6.74206">
        <ele>418</ele>
        <time>2016-12-04T10:49:39.000Z</time>
      </trkpt>
      <trkpt lat="47.56086" lon="6.74208">
        <ele>418</ele>
        <time>2016-12-04T10:49:40.000Z</time>
      </trkpt>
      <trkpt lat="47.56083" lon="6.74209">
        <ele>417</ele>
        <time>2016-12-04T10:49:41.000Z</time>
      </trkpt>
      <trkpt lat="47.56081" lon="6.7421">
        <ele>417</ele>
        <time>2016-12-04T10:49:42.000Z</time>
      </trkpt>
      <trkpt lat="47.56077" lon="6.74212">
        <ele>417</ele>
        <time>2016-12-04T10:49:44.000Z</time>
      </trkpt>
      <trkpt lat="47.56075" lon="6.74214">
        <ele>417</ele>
        <time>2016-12-04T10:49:45.000Z</time>
      </trkpt>
      <trkpt lat="47.56073" lon="6.74215">
        <ele>417</ele>
        <time>2016-12-04T10:49:46.000Z</time>
      </trkpt>
      <trkpt lat="47.5607" lon="6.74216">
        <ele>417</ele>
        <time>2016-12-04T10:49:47.000Z</time>
      </trkpt>
      <trkpt lat="47.56066" lon="6.74219">
        <ele>417</ele>
        <time>2016-12-04T10:49:49.000Z</time>
      </trkpt>
      <trkpt lat="47.56064" lon="6.7422">
        <ele>417</ele>
        <time>2016-12-04T10:49:50.000Z</time>
      </trkpt>
      <trkpt lat="47.56061" lon="6.74221">
        <ele>417</ele>
        <time>2016-12-04T10:49:51.000Z</time>
      </trkpt>
      <trkpt lat="47.56059" lon="6.74221">
        <ele>417</ele>
        <time>2016-12-04T10:49:52.000Z</time>
      </trkpt>
      <trkpt lat="47.56057" lon="6.74224">
        <ele>417</ele>
        <time>2016-12-04T10:49:54.000Z</time>
      </trkpt>
      <trkpt lat="47.56055" lon="6.74226">
        <ele>417</ele>
        <time>2016-12-04T10:49:55.000Z</time>
      </trkpt>
      <trkpt lat="47.56051" lon="6.74229">
        <ele>417</ele>
        <time>2016-12-04T10:49:57.000Z</time>
      </trkpt>
      <trkpt lat="47.5605" lon="6.74229">
        <ele>417</ele>
        <time>2016-12-04T10:49:58.000Z</time>
      </trkpt>
      <trkpt lat="47.56046" lon="6.7423">
        <ele>417</ele>
        <time>2016-12-04T10:50:02.000Z</time>
      </trkpt>
      <trkpt lat="47.56043" lon="6.74231">
        <ele>417</ele>
        <time>2016-12-04T10:50:03.000Z</time>
      </trkpt>
      <trkpt lat="47.56041" lon="6.74231">
        <ele>417</ele>
        <time>2016-12-04T10:50:04.000Z</time>
      </trkpt>
      <trkpt lat="47.56038" lon="6.74231">
        <ele>417</ele>
        <time>2016-12-04T10:50:05.000Z</time>
      </trkpt>
      <trkpt lat="47.56036" lon="6.74232">
        <ele>417</ele>
        <time>2016-12-04T10:50:06.000Z</time>
      </trkpt>
      <trkpt lat="47.56033" lon="6.74234">
        <ele>417</ele>
        <time>2016-12-04T10:50:07.000Z</time>
      </trkpt>
      <trkpt lat="47.56029" lon="6.74236">
        <ele>417</ele>
        <time>2016-12-04T10:50:09.000Z</time>
      </trkpt>
      <trkpt lat="47.56027" lon="6.74237">
        <ele>417</ele>
        <time>2016-12-04T10:50:10.000Z</time>
      </trkpt>
      <trkpt lat="47.56025" lon="6.74238">
        <ele>418</ele>
        <time>2016-12-04T10:50:11.000Z</time>
      </trkpt>
      <trkpt lat="47.56022" lon="6.74239">
        <ele>418</ele>
        <time>2016-12-04T10:50:12.000Z</time>
      </trkpt>
      <trkpt lat="47.56019" lon="6.74239">
        <ele>418</ele>
        <time>2016-12-04T10:50:13.000Z</time>
      </trkpt>
      <trkpt lat="47.56017" lon="6.7424">
        <ele>418</ele>
        <time>2016-12-04T10:50:14.000Z</time>
      </trkpt>
      <trkpt lat="47.56013" lon="6.7424">
        <ele>418</ele>
        <time>2016-12-04T10:50:16.000Z</time>
      </trkpt>
      <trkpt lat="47.56011" lon="6.74241">
        <ele>418</ele>
        <time>2016-12-04T10:50:17.000Z</time>
      </trkpt>
      <trkpt lat="47.56007" lon="6.74242">
        <ele>418</ele>
        <time>2016-12-04T10:50:19.000Z</time>
      </trkpt>
      <trkpt lat="47.56005" lon="6.74242">
        <ele>418</ele>
        <time>2016-12-04T10:50:20.000Z</time>
      </trkpt>
      <trkpt lat="47.56003" lon="6.74243">
        <ele>418</ele>
        <time>2016-12-04T10:50:21.000Z</time>
      </trkpt>
      <trkpt lat="47.56" lon="6.74242">
        <ele>418</ele>
        <time>2016-12-04T10:50:22.000Z</time>
      </trkpt>
      <trkpt lat="47.55998" lon="6.74242">
        <ele>418</ele>
        <time>2016-12-04T10:50:23.000Z</time>
      </trkpt>
      <trkpt lat="47.55995" lon="6.74242">
        <ele>418</ele>
        <time>2016-12-04T10:50:24.000Z</time>
      </trkpt>
      <trkpt lat="47.55993" lon="6.74243">
        <ele>418</ele>
        <time>2016-12-04T10:50:25.000Z</time>
      </trkpt>
      <trkpt lat="47.5599" lon="6.74244">
        <ele>418</ele>
        <time>2016-12-04T10:50:26.000Z</time>
      </trkpt>
      <trkpt lat="47.55987" lon="6.74244">
        <ele>418</ele>
        <time>2016-12-04T10:50:27.000Z</time>
      </trkpt>
      <trkpt lat="47.55985" lon="6.74245">
        <ele>418</ele>
        <time>2016-12-04T10:50:28.000Z</time>
      </trkpt>
      <trkpt lat="47.55989" lon="6.74243">
        <ele>418</ele>
        <time>2016-12-04T10:50:44.000Z</time>
      </trkpt>
      <trkpt lat="47.55989" lon="6.74243">
        <ele>418</ele>
        <time>2016-12-04T10:50:45.000Z</time>
      </trkpt>
      <trkpt lat="47.55991" lon="6.74237">
        <ele>418</ele>
        <time>2016-12-04T10:51:00.000Z</time>
      </trkpt>
      <trkpt lat="47.55991" lon="6.74236">
        <ele>418</ele>
        <time>2016-12-04T10:51:01.000Z</time>
      </trkpt>
      <trkpt lat="47.55987" lon="6.74233">
        <ele>418</ele>
        <time>2016-12-04T10:51:14.000Z</time>
      </trkpt>
      <trkpt lat="47.55987" lon="6.74233">
        <ele>418</ele>
        <time>2016-12-04T10:51:15.000Z</time>
      </trkpt>
      <trkpt lat="47.55984" lon="6.74237">
        <ele>418</ele>
        <time>2016-12-04T10:51:34.000Z</time>
      </trkpt>
      <trkpt lat="47.55984" lon="6.74239">
        <ele>418</ele>
        <time>2016-12-04T10:51:35.000Z</time>
      </trkpt>
      <trkpt lat="47.55987" lon="6.74244">
        <ele>418</ele>
        <time>2016-12-04T10:52:46.000Z</time>
      </trkpt>
      <trkpt lat="47.55987" lon="6.74244">
        <ele>418</ele>
        <time>2016-12-04T10:52:47.000Z</time>
      </trkpt>
      <trkpt lat="47.55983" lon="6.74242">
        <ele>418</ele>
        <time>2016-12-04T10:54:05.000Z</time>
      </trkpt>
      <trkpt lat="47.5598" lon="6.74242">
        <ele>418</ele>
        <time>2016-12-04T10:54:06.000Z</time>
      </trkpt>
      <trkpt lat="47.55977" lon="6.74243">
        <ele>418</ele>
        <time>2016-12-04T10:54:07.000Z</time>
      </trkpt>
      <trkpt lat="47.55974" lon="6.74243">
        <ele>418</ele>
        <time>2016-12-04T10:54:08.000Z</time>
      </trkpt>
      <trkpt lat="47.55971" lon="6.74244">
        <ele>417</ele>
        <time>2016-12-04T10:54:09.000Z</time>
      </trkpt>
      <trkpt lat="47.55969" lon="6.74244">
        <ele>417</ele>
        <time>2016-12-04T10:54:10.000Z</time>
      </trkpt>
      <trkpt lat="47.55966" lon="6.74245">
        <ele>417</ele>
        <time>2016-12-04T10:54:11.000Z</time>
      </trkpt>
      <trkpt lat="47.55964" lon="6.74247">
        <ele>417</ele>
        <time>2016-12-04T10:54:12.000Z</time>
      </trkpt>
      <trkpt lat="47.55961" lon="6.74249">
        <ele>417</ele>
        <time>2016-12-04T10:54:13.000Z</time>
      </trkpt>
      <trkpt lat="47.55957" lon="6.7425">
        <ele>417</ele>
        <time>2016-12-04T10:54:14.000Z</time>
      </trkpt>
      <trkpt lat="47.55955" lon="6.74251">
        <ele>419</ele>
        <time>2016-12-04T10:54:15.000Z</time>
      </trkpt>
      <trkpt lat="47.55952" lon="6.74253">
        <ele>419</ele>
        <time>2016-12-04T10:54:16.000Z</time>
      </trkpt>
      <trkpt lat="47.5595" lon="6.74254">
        <ele>419</ele>
        <time>2016-12-04T10:54:17.000Z</time>
      </trkpt>
      <trkpt lat="47.55947" lon="6.74256">
        <ele>419</ele>
        <time>2016-12-04T10:54:18.000Z</time>
      </trkpt>
      <trkpt lat="47.55944" lon="6.74257">
        <ele>419</ele>
        <time>2016-12-04T10:54:19.000Z</time>
      </trkpt>
      <trkpt lat="47.55941" lon="6.74259">
        <ele>419</ele>
        <time>2016-12-04T10:54:20.000Z</time>
      </trkpt>
      <trkpt lat="47.55937" lon="6.74261">
        <ele>419</ele>
        <time>2016-12-04T10:54:21.000Z</time>
      </trkpt>
      <trkpt lat="47.55934" lon="6.74262">
        <ele>419</ele>
        <time>2016-12-04T10:54:22.000Z</time>
      </trkpt>
      <trkpt lat="47.5593" lon="6.74264">
        <ele>419</ele>
        <time>2016-12-04T10:54:23.000Z</time>
      </trkpt>
      <trkpt lat="47.55926" lon="6.74265">
        <ele>419</ele>
        <time>2016-12-04T10:54:24.000Z</time>
      </trkpt>
      <trkpt lat="47.55923" lon="6.74266">
        <ele>419</ele>
        <time>2016-12-04T10:54:25.000Z</time>
      </trkpt>
      <trkpt lat="47.55919" lon="6.74266">
        <ele>419</ele>
        <time>2016-12-04T10:54:26.000Z</time>
      </trkpt>
      <trkpt lat="47.55915" lon="6.74268">
        <ele>419</ele>
        <time>2016-12-04T10:54:27.000Z</time>
      </trkpt>
      <trkpt lat="47.55912" lon="6.74269">
        <ele>419</ele>
        <time>2016-12-04T10:54:28.000Z</time>
      </trkpt>
      <trkpt lat="47.55907" lon="6.7427">
        <ele>419</ele>
        <time>2016-12-04T10:54:29.000Z</time>
      </trkpt>
      <trkpt lat="47.55903" lon="6.74273">
        <ele>419</ele>
        <time>2016-12-04T10:54:30.000Z</time>
      </trkpt>
      <trkpt lat="47.55898" lon="6.74271">
        <ele>419</ele>
        <time>2016-12-04T10:54:31.000Z</time>
      </trkpt>
      <trkpt lat="47.55897" lon="6.74268">
        <ele>419</ele>
        <time>2016-12-04T10:54:32.000Z</time>
      </trkpt>
      <trkpt lat="47.55897" lon="6.74264">
        <ele>419</ele>
        <time>2016-12-04T10:54:33.000Z</time>
      </trkpt>
      <trkpt lat="47.55897" lon="6.7426">
        <ele>419</ele>
        <time>2016-12-04T10:54:34.000Z</time>
      </trkpt>
      <trkpt lat="47.55896" lon="6.74255">
        <ele>419</ele>
        <time>2016-12-04T10:54:35.000Z</time>
      </trkpt>
      <trkpt lat="47.55896" lon="6.7425">
        <ele>418</ele>
        <time>2016-12-04T10:54:36.000Z</time>
      </trkpt>
      <trkpt lat="47.55896" lon="6.74245">
        <ele>417</ele>
        <time>2016-12-04T10:54:37.000Z</time>
      </trkpt>
      <trkpt lat="47.55895" lon="6.7424">
        <ele>417</ele>
        <time>2016-12-04T10:54:38.000Z</time>
      </trkpt>
      <trkpt lat="47.55895" lon="6.74235">
        <ele>417</ele>
        <time>2016-12-04T10:54:39.000Z</time>
      </trkpt>
      <trkpt lat="47.55894" lon="6.74229">
        <ele>417</ele>
        <time>2016-12-04T10:54:40.000Z</time>
      </trkpt>
      <trkpt lat="47.55894" lon="6.74223">
        <ele>417</ele>
        <time>2016-12-04T10:54:41.000Z</time>
      </trkpt>
      <trkpt lat="47.55893" lon="6.74217">
        <ele>417</ele>
        <time>2016-12-04T10:54:42.000Z</time>
      </trkpt>
      <trkpt lat="47.55892" lon="6.74211">
        <ele>416</ele>
        <time>2016-12-04T10:54:43.000Z</time>
      </trkpt>
      <trkpt lat="47.55891" lon="6.74204">
        <ele>416</ele>
        <time>2016-12-04T10:54:44.000Z</time>
      </trkpt>
      <trkpt lat="47.55891" lon="6.74198">
        <ele>416</ele>
        <time>2016-12-04T10:54:45.000Z</time>
      </trkpt>
      <trkpt lat="47.5589" lon="6.74193">
        <ele>416</ele>
        <time>2016-12-04T10:54:46.000Z</time>
      </trkpt>
      <trkpt lat="47.55889" lon="6.74186">
        <ele>416</ele>
        <time>2016-12-04T10:54:47.000Z</time>
      </trkpt>
      <trkpt lat="47.55888" lon="6.74178">
        <ele>415</ele>
        <time>2016-12-04T10:54:48.000Z</time>
      </trkpt>
      <trkpt lat="47.55887" lon="6.74172">
        <ele>415</ele>
        <time>2016-12-04T10:54:49.000Z</time>
      </trkpt>
      <trkpt lat="47.55886" lon="6.74165">
        <ele>413</ele>
        <time>2016-12-04T10:54:50.000Z</time>
      </trkpt>
      <trkpt lat="47.55885" lon="6.74158">
        <ele>413</ele>
        <time>2016-12-04T10:54:51.000Z</time>
      </trkpt>
      <trkpt lat="47.55884" lon="6.74151">
        <ele>413</ele>
        <time>2016-12-04T10:54:52.000Z</time>
      </trkpt>
      <trkpt lat="47.55883" lon="6.74145">
        <ele>413</ele>
        <time>2016-12-04T10:54:53.000Z</time>
      </trkpt>
      <trkpt lat="47.55882" lon="6.74137">
        <ele>413</ele>
        <time>2016-12-04T10:54:54.000Z</time>
      </trkpt>
      <trkpt lat="47.55881" lon="6.74131">
        <ele>413</ele>
        <time>2016-12-04T10:54:55.000Z</time>
      </trkpt>
      <trkpt lat="47.5588" lon="6.74122">
        <ele>412</ele>
        <time>2016-12-04T10:54:56.000Z</time>
      </trkpt>
      <trkpt lat="47.55878" lon="6.74114">
        <ele>412</ele>
        <time>2016-12-04T10:54:57.000Z</time>
      </trkpt>
      <trkpt lat="47.55877" lon="6.74107">
        <ele>412</ele>
        <time>2016-12-04T10:54:58.000Z</time>
      </trkpt>
      <trkpt lat="47.55876" lon="6.74099">
        <ele>412</ele>
        <time>2016-12-04T10:54:59.000Z</time>
      </trkpt>
      <trkpt lat="47.55875" lon="6.7409">
        <ele>412</ele>
        <time>2016-12-04T10:55:00.000Z</time>
      </trkpt>
      <trkpt lat="47.55874" lon="6.74083">
        <ele>410</ele>
        <time>2016-12-04T10:55:01.000Z</time>
      </trkpt>
      <trkpt lat="47.55873" lon="6.74075">
        <ele>410</ele>
        <time>2016-12-04T10:55:02.000Z</time>
      </trkpt>
      <trkpt lat="47.55871" lon="6.74069">
        <ele>410</ele>
        <time>2016-12-04T10:55:03.000Z</time>
      </trkpt>
      <trkpt lat="47.5587" lon="6.74063">
        <ele>410</ele>
        <time>2016-12-04T10:55:04.000Z</time>
      </trkpt>
      <trkpt lat="47.55869" lon="6.74057">
        <ele>410</ele>
        <time>2016-12-04T10:55:05.000Z</time>
      </trkpt>
      <trkpt lat="47.55868" lon="6.74049">
        <ele>409</ele>
        <time>2016-12-04T10:55:06.000Z</time>
      </trkpt>
      <trkpt lat="47.55867" lon="6.74042">
        <ele>409</ele>
        <time>2016-12-04T10:55:07.000Z</time>
      </trkpt>
      <trkpt lat="47.55865" lon="6.74034">
        <ele>409</ele>
        <time>2016-12-04T10:55:08.000Z</time>
      </trkpt>
      <trkpt lat="47.55864" lon="6.74027">
        <ele>409</ele>
        <time>2016-12-04T10:55:09.000Z</time>
      </trkpt>
      <trkpt lat="47.55863" lon="6.74019">
        <ele>409</ele>
        <time>2016-12-04T10:55:10.000Z</time>
      </trkpt>
      <trkpt lat="47.55862" lon="6.74012">
        <ele>409</ele>
        <time>2016-12-04T10:55:11.000Z</time>
      </trkpt>
      <trkpt lat="47.5586" lon="6.74004">
        <ele>409</ele>
        <time>2016-12-04T10:55:12.000Z</time>
      </trkpt>
      <trkpt lat="47.55859" lon="6.73997">
        <ele>406</ele>
        <time>2016-12-04T10:55:13.000Z</time>
      </trkpt>
      <trkpt lat="47.55858" lon="6.73988">
        <ele>406</ele>
        <time>2016-12-04T10:55:14.000Z</time>
      </trkpt>
      <trkpt lat="47.55858" lon="6.7398">
        <ele>406</ele>
        <time>2016-12-04T10:55:15.000Z</time>
      </trkpt>
      <trkpt lat="47.55857" lon="6.73972">
        <ele>406</ele>
        <time>2016-12-04T10:55:16.000Z</time>
      </trkpt>
      <trkpt lat="47.55855" lon="6.73964">
        <ele>405</ele>
        <time>2016-12-04T10:55:17.000Z</time>
      </trkpt>
      <trkpt lat="47.55854" lon="6.73956">
        <ele>405</ele>
        <time>2016-12-04T10:55:18.000Z</time>
      </trkpt>
      <trkpt lat="47.55852" lon="6.73947">
        <ele>405</ele>
        <time>2016-12-04T10:55:19.000Z</time>
      </trkpt>
      <trkpt lat="47.5585" lon="6.73938">
        <ele>405</ele>
        <time>2016-12-04T10:55:20.000Z</time>
      </trkpt>
      <trkpt lat="47.55849" lon="6.7393">
        <ele>404</ele>
        <time>2016-12-04T10:55:21.000Z</time>
      </trkpt>
      <trkpt lat="47.55847" lon="6.73921">
        <ele>404</ele>
        <time>2016-12-04T10:55:22.000Z</time>
      </trkpt>
      <trkpt lat="47.55846" lon="6.73912">
        <ele>402</ele>
        <time>2016-12-04T10:55:23.000Z</time>
      </trkpt>
      <trkpt lat="47.55845" lon="6.73904">
        <ele>402</ele>
        <time>2016-12-04T10:55:24.000Z</time>
      </trkpt>
      <trkpt lat="47.55844" lon="6.73895">
        <ele>402</ele>
        <time>2016-12-04T10:55:25.000Z</time>
      </trkpt>
      <trkpt lat="47.55842" lon="6.73886">
        <ele>401</ele>
        <time>2016-12-04T10:55:26.000Z</time>
      </trkpt>
      <trkpt lat="47.5584" lon="6.73879">
        <ele>401</ele>
        <time>2016-12-04T10:55:27.000Z</time>
      </trkpt>
      <trkpt lat="47.55837" lon="6.73875">
        <ele>401</ele>
        <time>2016-12-04T10:55:28.000Z</time>
      </trkpt>
      <trkpt lat="47.55834" lon="6.73871">
        <ele>400</ele>
        <time>2016-12-04T10:55:29.000Z</time>
      </trkpt>
      <trkpt lat="47.55831" lon="6.73868">
        <ele>401</ele>
        <time>2016-12-04T10:55:30.000Z</time>
      </trkpt>
      <trkpt lat="47.55827" lon="6.73868">
        <ele>401</ele>
        <time>2016-12-04T10:55:31.000Z</time>
      </trkpt>
      <trkpt lat="47.55824" lon="6.73869">
        <ele>401</ele>
        <time>2016-12-04T10:55:32.000Z</time>
      </trkpt>
      <trkpt lat="47.5582" lon="6.73869">
        <ele>401</ele>
        <time>2016-12-04T10:55:33.000Z</time>
      </trkpt>
      <trkpt lat="47.55817" lon="6.7387">
        <ele>401</ele>
        <time>2016-12-04T10:55:34.000Z</time>
      </trkpt>
      <trkpt lat="47.55812" lon="6.7387">
        <ele>401</ele>
        <time>2016-12-04T10:55:35.000Z</time>
      </trkpt>
      <trkpt lat="47.55807" lon="6.7387">
        <ele>402</ele>
        <time>2016-12-04T10:55:36.000Z</time>
      </trkpt>
      <trkpt lat="47.55802" lon="6.73869">
        <ele>402</ele>
        <time>2016-12-04T10:55:37.000Z</time>
      </trkpt>
      <trkpt lat="47.55798" lon="6.73869">
        <ele>402</ele>
        <time>2016-12-04T10:55:38.000Z</time>
      </trkpt>
      <trkpt lat="47.55794" lon="6.7387">
        <ele>402</ele>
        <time>2016-12-04T10:55:39.000Z</time>
      </trkpt>
      <trkpt lat="47.55789" lon="6.7387">
        <ele>402</ele>
        <time>2016-12-04T10:55:40.000Z</time>
      </trkpt>
      <trkpt lat="47.55785" lon="6.73871">
        <ele>402</ele>
        <time>2016-12-04T10:55:41.000Z</time>
      </trkpt>
      <trkpt lat="47.5578" lon="6.73871">
        <ele>402</ele>
        <time>2016-12-04T10:55:42.000Z</time>
      </trkpt>
      <trkpt lat="47.55777" lon="6.73872">
        <ele>402</ele>
        <time>2016-12-04T10:55:43.000Z</time>
      </trkpt>
      <trkpt lat="47.55772" lon="6.73873">
        <ele>402</ele>
        <time>2016-12-04T10:55:44.000Z</time>
      </trkpt>
      <trkpt lat="47.55768" lon="6.73874">
        <ele>402</ele>
        <time>2016-12-04T10:55:45.000Z</time>
      </trkpt>
      <trkpt lat="47.55765" lon="6.73875">
        <ele>402</ele>
        <time>2016-12-04T10:55:46.000Z</time>
      </trkpt>
      <trkpt lat="47.55761" lon="6.73878">
        <ele>403</ele>
        <time>2016-12-04T10:55:47.000Z</time>
      </trkpt>
      <trkpt lat="47.55759" lon="6.73881">
        <ele>403</ele>
        <time>2016-12-04T10:55:48.000Z</time>
      </trkpt>
      <trkpt lat="47.55757" lon="6.73883">
        <ele>403</ele>
        <time>2016-12-04T10:55:49.000Z</time>
      </trkpt>
      <trkpt lat="47.55755" lon="6.73885">
        <ele>403</ele>
        <time>2016-12-04T10:55:50.000Z</time>
      </trkpt>
      <trkpt lat="47.55752" lon="6.73887">
        <ele>403</ele>
        <time>2016-12-04T10:55:51.000Z</time>
      </trkpt>
      <trkpt lat="47.5575" lon="6.73889">
        <ele>403</ele>
        <time>2016-12-04T10:55:52.000Z</time>
      </trkpt>
      <trkpt lat="47.55748" lon="6.73892">
        <ele>406</ele>
        <time>2016-12-04T10:55:53.000Z</time>
      </trkpt>
      <trkpt lat="47.55746" lon="6.73895">
        <ele>406</ele>
        <time>2016-12-04T10:55:54.000Z</time>
      </trkpt>
      <trkpt lat="47.55743" lon="6.739">
        <ele>406</ele>
        <time>2016-12-04T10:55:56.000Z</time>
      </trkpt>
      <trkpt lat="47.55741" lon="6.73902">
        <ele>406</ele>
        <time>2016-12-04T10:55:57.000Z</time>
      </trkpt>
      <trkpt lat="47.55738" lon="6.73907">
        <ele>406</ele>
        <time>2016-12-04T10:55:59.000Z</time>
      </trkpt>
      <trkpt lat="47.55736" lon="6.73909">
        <ele>406</ele>
        <time>2016-12-04T10:56:00.000Z</time>
      </trkpt>
      <trkpt lat="47.55733" lon="6.73913">
        <ele>406</ele>
        <time>2016-12-04T10:56:02.000Z</time>
      </trkpt>
      <trkpt lat="47.55732" lon="6.73915">
        <ele>406</ele>
        <time>2016-12-04T10:56:03.000Z</time>
      </trkpt>
      <trkpt lat="47.5573" lon="6.73918">
        <ele>408</ele>
        <time>2016-12-04T10:56:04.000Z</time>
      </trkpt>
      <trkpt lat="47.55729" lon="6.7392">
        <ele>409</ele>
        <time>2016-12-04T10:56:05.000Z</time>
      </trkpt>
      <trkpt lat="47.55728" lon="6.73923">
        <ele>409</ele>
        <time>2016-12-04T10:56:06.000Z</time>
      </trkpt>
      <trkpt lat="47.55726" lon="6.73926">
        <ele>409</ele>
        <time>2016-12-04T10:56:07.000Z</time>
      </trkpt>
      <trkpt lat="47.55724" lon="6.73931">
        <ele>409</ele>
        <time>2016-12-04T10:56:09.000Z</time>
      </trkpt>
      <trkpt lat="47.55723" lon="6.73934">
        <ele>409</ele>
        <time>2016-12-04T10:56:10.000Z</time>
      </trkpt>
      <trkpt lat="47.55721" lon="6.73937">
        <ele>410</ele>
        <time>2016-12-04T10:56:11.000Z</time>
      </trkpt>
      <trkpt lat="47.5572" lon="6.7394">
        <ele>410</ele>
        <time>2016-12-04T10:56:12.000Z</time>
      </trkpt>
      <trkpt lat="47.55718" lon="6.73943">
        <ele>410</ele>
        <time>2016-12-04T10:56:13.000Z</time>
      </trkpt>
      <trkpt lat="47.55716" lon="6.73947">
        <ele>410</ele>
        <time>2016-12-04T10:56:14.000Z</time>
      </trkpt>
      <trkpt lat="47.55714" lon="6.73952">
        <ele>410</ele>
        <time>2016-12-04T10:56:16.000Z</time>
      </trkpt>
      <trkpt lat="47.55713" lon="6.73956">
        <ele>410</ele>
        <time>2016-12-04T10:56:17.000Z</time>
      </trkpt>
      <trkpt lat="47.55711" lon="6.73959">
        <ele>410</ele>
        <time>2016-12-04T10:56:18.000Z</time>
      </trkpt>
      <trkpt lat="47.5571" lon="6.73962">
        <ele>411</ele>
        <time>2016-12-04T10:56:19.000Z</time>
      </trkpt>
      <trkpt lat="47.55709" lon="6.73966">
        <ele>411</ele>
        <time>2016-12-04T10:56:20.000Z</time>
      </trkpt>
      <trkpt lat="47.55708" lon="6.73968">
        <ele>411</ele>
        <time>2016-12-04T10:56:21.000Z</time>
      </trkpt>
      <trkpt lat="47.55707" lon="6.73972">
        <ele>411</ele>
        <time>2016-12-04T10:56:22.000Z</time>
      </trkpt>
      <trkpt lat="47.55706" lon="6.73974">
        <ele>411</ele>
        <time>2016-12-04T10:56:23.000Z</time>
      </trkpt>
      <trkpt lat="47.55704" lon="6.73979">
        <ele>411</ele>
        <time>2016-12-04T10:56:25.000Z</time>
      </trkpt>
      <trkpt lat="47.55704" lon="6.73981">
        <ele>411</ele>
        <time>2016-12-04T10:56:26.000Z</time>
      </trkpt>
      <trkpt lat="47.55702" lon="6.73987">
        <ele>411</ele>
        <time>2016-12-04T10:56:28.000Z</time>
      </trkpt>
      <trkpt lat="47.55701" lon="6.7399">
        <ele>411</ele>
        <time>2016-12-04T10:56:29.000Z</time>
      </trkpt>
      <trkpt lat="47.557" lon="6.73994">
        <ele>412</ele>
        <time>2016-12-04T10:56:30.000Z</time>
      </trkpt>
      <trkpt lat="47.55699" lon="6.73997">
        <ele>412</ele>
        <time>2016-12-04T10:56:31.000Z</time>
      </trkpt>
      <trkpt lat="47.55697" lon="6.74001">
        <ele>415</ele>
        <time>2016-12-04T10:56:32.000Z</time>
      </trkpt>
      <trkpt lat="47.55696" lon="6.74003">
        <ele>415</ele>
        <time>2016-12-04T10:56:33.000Z</time>
      </trkpt>
      <trkpt lat="47.55695" lon="6.74007">
        <ele>415</ele>
        <time>2016-12-04T10:56:34.000Z</time>
      </trkpt>
      <trkpt lat="47.55693" lon="6.74009">
        <ele>415</ele>
        <time>2016-12-04T10:56:35.000Z</time>
      </trkpt>
      <trkpt lat="47.55691" lon="6.74015">
        <ele>415</ele>
        <time>2016-12-04T10:56:37.000Z</time>
      </trkpt>
      <trkpt lat="47.5569" lon="6.74017">
        <ele>415</ele>
        <time>2016-12-04T10:56:38.000Z</time>
      </trkpt>
      <trkpt lat="47.55689" lon="6.7402">
        <ele>415</ele>
        <time>2016-12-04T10:56:39.000Z</time>
      </trkpt>
      <trkpt lat="47.55687" lon="6.74023">
        <ele>415</ele>
        <time>2016-12-04T10:56:40.000Z</time>
      </trkpt>
      <trkpt lat="47.55685" lon="6.74026">
        <ele>415</ele>
        <time>2016-12-04T10:56:41.000Z</time>
      </trkpt>
      <trkpt lat="47.55684" lon="6.74029">
        <ele>415</ele>
        <time>2016-12-04T10:56:42.000Z</time>
      </trkpt>
      <trkpt lat="47.55682" lon="6.74034">
        <ele>415</ele>
        <time>2016-12-04T10:56:44.000Z</time>
      </trkpt>
      <trkpt lat="47.5568" lon="6.74037">
        <ele>415</ele>
        <time>2016-12-04T10:56:45.000Z</time>
      </trkpt>
      <trkpt lat="47.55678" lon="6.74041">
        <ele>415</ele>
        <time>2016-12-04T10:56:47.000Z</time>
      </trkpt>
      <trkpt lat="47.55678" lon="6.74042">
        <ele>415</ele>
        <time>2016-12-04T10:56:48.000Z</time>
      </trkpt>
      <trkpt lat="47.55675" lon="6.74046">
        <ele>415</ele>
        <time>2016-12-04T10:56:50.000Z</time>
      </trkpt>
      <trkpt lat="47.55674" lon="6.74047">
        <ele>416</ele>
        <time>2016-12-04T10:56:51.000Z</time>
      </trkpt>
      <trkpt lat="47.55672" lon="6.74051">
        <ele>416</ele>
        <time>2016-12-04T10:56:53.000Z</time>
      </trkpt>
      <trkpt lat="47.55671" lon="6.74055">
        <ele>416</ele>
        <time>2016-12-04T10:56:54.000Z</time>
      </trkpt>
      <trkpt lat="47.55667" lon="6.74058">
        <ele>416</ele>
        <time>2016-12-04T10:56:56.000Z</time>
      </trkpt>
      <trkpt lat="47.55666" lon="6.74061">
        <ele>417</ele>
        <time>2016-12-04T10:56:57.000Z</time>
      </trkpt>
      <trkpt lat="47.55665" lon="6.74064">
        <ele>417</ele>
        <time>2016-12-04T10:56:58.000Z</time>
      </trkpt>
      <trkpt lat="47.55664" lon="6.74068">
        <ele>417</ele>
        <time>2016-12-04T10:56:59.000Z</time>
      </trkpt>
      <trkpt lat="47.55663" lon="6.74072">
        <ele>417</ele>
        <time>2016-12-04T10:57:00.000Z</time>
      </trkpt>
      <trkpt lat="47.55662" lon="6.74074">
        <ele>417</ele>
        <time>2016-12-04T10:57:01.000Z</time>
      </trkpt>
      <trkpt lat="47.55659" lon="6.7408">
        <ele>417</ele>
        <time>2016-12-04T10:57:03.000Z</time>
      </trkpt>
      <trkpt lat="47.55658" lon="6.74082">
        <ele>417</ele>
        <time>2016-12-04T10:57:04.000Z</time>
      </trkpt>
      <trkpt lat="47.55656" lon="6.74085">
        <ele>418</ele>
        <time>2016-12-04T10:57:05.000Z</time>
      </trkpt>
      <trkpt lat="47.55654" lon="6.74089">
        <ele>418</ele>
        <time>2016-12-04T10:57:06.000Z</time>
      </trkpt>
      <trkpt lat="47.55652" lon="6.74092">
        <ele>418</ele>
        <time>2016-12-04T10:57:07.000Z</time>
      </trkpt>
      <trkpt lat="47.5565" lon="6.74095">
        <ele>418</ele>
        <time>2016-12-04T10:57:08.000Z</time>
      </trkpt>
      <trkpt lat="47.55648" lon="6.74099">
        <ele>418</ele>
        <time>2016-12-04T10:57:09.000Z</time>
      </trkpt>
      <trkpt lat="47.55645" lon="6.74104">
        <ele>419</ele>
        <time>2016-12-04T10:57:10.000Z</time>
      </trkpt>
      <trkpt lat="47.55641" lon="6.74106">
        <ele>419</ele>
        <time>2016-12-04T10:57:11.000Z</time>
      </trkpt>
      <trkpt lat="47.5564" lon="6.74105">
        <ele>419</ele>
        <time>2016-12-04T10:57:12.000Z</time>
      </trkpt>
      <trkpt lat="47.55639" lon="6.741">
        <ele>419</ele>
        <time>2016-12-04T10:57:15.000Z</time>
      </trkpt>
      <trkpt lat="47.55638" lon="6.74097">
        <ele>419</ele>
        <time>2016-12-04T10:57:16.000Z</time>
      </trkpt>
      <trkpt lat="47.55637" lon="6.74094">
        <ele>418</ele>
        <time>2016-12-04T10:57:17.000Z</time>
      </trkpt>
      <trkpt lat="47.55635" lon="6.74091">
        <ele>418</ele>
        <time>2016-12-04T10:57:18.000Z</time>
      </trkpt>
      <trkpt lat="47.55634" lon="6.74088">
        <ele>418</ele>
        <time>2016-12-04T10:57:19.000Z</time>
      </trkpt>
      <trkpt lat="47.55632" lon="6.74085">
        <ele>419</ele>
        <time>2016-12-04T10:57:20.000Z</time>
      </trkpt>
      <trkpt lat="47.55631" lon="6.74083">
        <ele>417</ele>
        <time>2016-12-04T10:57:21.000Z</time>
      </trkpt>
      <trkpt lat="47.55629" lon="6.74079">
        <ele>417</ele>
        <time>2016-12-04T10:57:22.000Z</time>
      </trkpt>
      <trkpt lat="47.55626" lon="6.74074">
        <ele>417</ele>
        <time>2016-12-04T10:57:23.000Z</time>
      </trkpt>
      <trkpt lat="47.55625" lon="6.74071">
        <ele>417</ele>
        <time>2016-12-04T10:57:24.000Z</time>
      </trkpt>
      <trkpt lat="47.55623" lon="6.74067">
        <ele>417</ele>
        <time>2016-12-04T10:57:25.000Z</time>
      </trkpt>
      <trkpt lat="47.55621" lon="6.74064">
        <ele>417</ele>
        <time>2016-12-04T10:57:26.000Z</time>
      </trkpt>
      <trkpt lat="47.55619" lon="6.74059">
        <ele>417</ele>
        <time>2016-12-04T10:57:27.000Z</time>
      </trkpt>
      <trkpt lat="47.55617" lon="6.74055">
        <ele>417</ele>
        <time>2016-12-04T10:57:28.000Z</time>
      </trkpt>
      <trkpt lat="47.55615" lon="6.74051">
        <ele>417</ele>
        <time>2016-12-04T10:57:29.000Z</time>
      </trkpt>
      <trkpt lat="47.55613" lon="6.74046">
        <ele>417</ele>
        <time>2016-12-04T10:57:30.000Z</time>
      </trkpt>
      <trkpt lat="47.5561" lon="6.74042">
        <ele>417</ele>
        <time>2016-12-04T10:57:31.000Z</time>
      </trkpt>
      <trkpt lat="47.55607" lon="6.74037">
        <ele>417</ele>
        <time>2016-12-04T10:57:32.000Z</time>
      </trkpt>
      <trkpt lat="47.55605" lon="6.74034">
        <ele>417</ele>
        <time>2016-12-04T10:57:33.000Z</time>
      </trkpt>
      <trkpt lat="47.55602" lon="6.74029">
        <ele>417</ele>
        <time>2016-12-04T10:57:34.000Z</time>
      </trkpt>
      <trkpt lat="47.55597" lon="6.74021">
        <ele>417</ele>
        <time>2016-12-04T10:57:36.000Z</time>
      </trkpt>
      <trkpt lat="47.55594" lon="6.74017">
        <ele>417</ele>
        <time>2016-12-04T10:57:37.000Z</time>
      </trkpt>
      <trkpt lat="47.55592" lon="6.74014">
        <ele>417</ele>
        <time>2016-12-04T10:57:38.000Z</time>
      </trkpt>
      <trkpt lat="47.5559" lon="6.7401">
        <ele>417</ele>
        <time>2016-12-04T10:57:39.000Z</time>
      </trkpt>
      <trkpt lat="47.55588" lon="6.74006">
        <ele>417</ele>
        <time>2016-12-04T10:57:40.000Z</time>
      </trkpt>
      <trkpt lat="47.55585" lon="6.74003">
        <ele>417</ele>
        <time>2016-12-04T10:57:41.000Z</time>
      </trkpt>
      <trkpt lat="47.55583" lon="6.73998">
        <ele>417</ele>
        <time>2016-12-04T10:57:42.000Z</time>
      </trkpt>
      <trkpt lat="47.55581" lon="6.73993">
        <ele>417</ele>
        <time>2016-12-04T10:57:43.000Z</time>
      </trkpt>
      <trkpt lat="47.55579" lon="6.7399">
        <ele>417</ele>
        <time>2016-12-04T10:57:43.999Z</time>
      </trkpt>
      <trkpt lat="47.55576" lon="6.73984">
        <ele>417</ele>
        <time>2016-12-04T10:57:44.999Z</time>
      </trkpt>
      <trkpt lat="47.55573" lon="6.73979">
        <ele>416</ele>
        <time>2016-12-04T10:57:45.999Z</time>
      </trkpt>
      <trkpt lat="47.55571" lon="6.73975">
        <ele>416</ele>
        <time>2016-12-04T10:57:46.999Z</time>
      </trkpt>
      <trkpt lat="47.55568" lon="6.73971">
        <ele>416</ele>
        <time>2016-12-04T10:57:47.999Z</time>
      </trkpt>
      <trkpt lat="47.55565" lon="6.73968">
        <ele>416</ele>
        <time>2016-12-04T10:57:48.999Z</time>
      </trkpt>
      <trkpt lat="47.55562" lon="6.73963">
        <ele>416</ele>
        <time>2016-12-04T10:57:49.999Z</time>
      </trkpt>
      <trkpt lat="47.55558" lon="6.73957">
        <ele>416</ele>
        <time>2016-12-04T10:57:50.999Z</time>
      </trkpt>
      <trkpt lat="47.55554" lon="6.73949">
        <ele>416</ele>
        <time>2016-12-04T10:57:51.999Z</time>
      </trkpt>
      <trkpt lat="47.5555" lon="6.73943">
        <ele>416</ele>
        <time>2016-12-04T10:57:52.999Z</time>
      </trkpt>
      <trkpt lat="47.55546" lon="6.73938">
        <ele>416</ele>
        <time>2016-12-04T10:57:53.999Z</time>
      </trkpt>
      <trkpt lat="47.55543" lon="6.73933">
        <ele>416</ele>
        <time>2016-12-04T10:57:54.999Z</time>
      </trkpt>
      <trkpt lat="47.5554" lon="6.73927">
        <ele>416</ele>
        <time>2016-12-04T10:57:55.999Z</time>
      </trkpt>
      <trkpt lat="47.55536" lon="6.7392">
        <ele>416</ele>
        <time>2016-12-04T10:57:56.999Z</time>
      </trkpt>
      <trkpt lat="47.55532" lon="6.73912">
        <ele>414</ele>
        <time>2016-12-04T10:57:57.999Z</time>
      </trkpt>
      <trkpt lat="47.55528" lon="6.73903">
        <ele>414</ele>
        <time>2016-12-04T10:57:58.999Z</time>
      </trkpt>
      <trkpt lat="47.55524" lon="6.73894">
        <ele>414</ele>
        <time>2016-12-04T10:57:59.999Z</time>
      </trkpt>
      <trkpt lat="47.5552" lon="6.73887">
        <ele>414</ele>
        <time>2016-12-04T10:58:00.999Z</time>
      </trkpt>
      <trkpt lat="47.55517" lon="6.73879">
        <ele>414</ele>
        <time>2016-12-04T10:58:01.999Z</time>
      </trkpt>
      <trkpt lat="47.55513" lon="6.73874">
        <ele>413</ele>
        <time>2016-12-04T10:58:02.999Z</time>
      </trkpt>
      <trkpt lat="47.55509" lon="6.73867">
        <ele>413</ele>
        <time>2016-12-04T10:58:03.999Z</time>
      </trkpt>
      <trkpt lat="47.55504" lon="6.73859">
        <ele>413</ele>
        <time>2016-12-04T10:58:04.999Z</time>
      </trkpt>
      <trkpt lat="47.55499" lon="6.73854">
        <ele>414</ele>
        <time>2016-12-04T10:58:05.999Z</time>
      </trkpt>
      <trkpt lat="47.55495" lon="6.73849">
        <ele>414</ele>
        <time>2016-12-04T10:58:06.999Z</time>
      </trkpt>
      <trkpt lat="47.5549" lon="6.73845">
        <ele>414</ele>
        <time>2016-12-04T10:58:07.999Z</time>
      </trkpt>
      <trkpt lat="47.55486" lon="6.73839">
        <ele>413</ele>
        <time>2016-12-04T10:58:08.999Z</time>
      </trkpt>
      <trkpt lat="47.55482" lon="6.73833">
        <ele>412</ele>
        <time>2016-12-04T10:58:09.999Z</time>
      </trkpt>
      <trkpt lat="47.55478" lon="6.73828">
        <ele>412</ele>
        <time>2016-12-04T10:58:10.999Z</time>
      </trkpt>
      <trkpt lat="47.55475" lon="6.73823">
        <ele>412</ele>
        <time>2016-12-04T10:58:11.999Z</time>
      </trkpt>
      <trkpt lat="47.55471" lon="6.73819">
        <ele>412</ele>
        <time>2016-12-04T10:58:12.999Z</time>
      </trkpt>
      <trkpt lat="47.55467" lon="6.73815">
        <ele>411</ele>
        <time>2016-12-04T10:58:13.999Z</time>
      </trkpt>
      <trkpt lat="47.55462" lon="6.73809">
        <ele>411</ele>
        <time>2016-12-04T10:58:14.999Z</time>
      </trkpt>
      <trkpt lat="47.55457" lon="6.73802">
        <ele>411</ele>
        <time>2016-12-04T10:58:15.999Z</time>
      </trkpt>
      <trkpt lat="47.55452" lon="6.73799">
        <ele>411</ele>
        <time>2016-12-04T10:58:16.999Z</time>
      </trkpt>
      <trkpt lat="47.55448" lon="6.73794">
        <ele>411</ele>
        <time>2016-12-04T10:58:17.999Z</time>
      </trkpt>
      <trkpt lat="47.55443" lon="6.73787">
        <ele>411</ele>
        <time>2016-12-04T10:58:18.999Z</time>
      </trkpt>
      <trkpt lat="47.55439" lon="6.73781">
        <ele>411</ele>
        <time>2016-12-04T10:58:19.999Z</time>
      </trkpt>
      <trkpt lat="47.55436" lon="6.73775">
        <ele>411</ele>
        <time>2016-12-04T10:58:20.999Z</time>
      </trkpt>
      <trkpt lat="47.55432" lon="6.73769">
        <ele>411</ele>
        <time>2016-12-04T10:58:21.999Z</time>
      </trkpt>
      <trkpt lat="47.55428" lon="6.73759">
        <ele>410</ele>
        <time>2016-12-04T10:58:22.999Z</time>
      </trkpt>
      <trkpt lat="47.55421" lon="6.73748">
        <ele>410</ele>
        <time>2016-12-04T10:58:23.999Z</time>
      </trkpt>
      <trkpt lat="47.55415" lon="6.73741">
        <ele>410</ele>
        <time>2016-12-04T10:58:24.999Z</time>
      </trkpt>
      <trkpt lat="47.55408" lon="6.73732">
        <ele>410</ele>
        <time>2016-12-04T10:58:25.999Z</time>
      </trkpt>
      <trkpt lat="47.55402" lon="6.73724">
        <ele>410</ele>
        <time>2016-12-04T10:58:26.999Z</time>
      </trkpt>
      <trkpt lat="47.55395" lon="6.73719">
        <ele>410</ele>
        <time>2016-12-04T10:58:27.999Z</time>
      </trkpt>
      <trkpt lat="47.5539" lon="6.73712">
        <ele>410</ele>
        <time>2016-12-04T10:58:28.999Z</time>
      </trkpt>
      <trkpt lat="47.55385" lon="6.73704">
        <ele>410</ele>
        <time>2016-12-04T10:58:29.999Z</time>
      </trkpt>
      <trkpt lat="47.5538" lon="6.73698">
        <ele>410</ele>
        <time>2016-12-04T10:58:30.999Z</time>
      </trkpt>
      <trkpt lat="47.55375" lon="6.73692">
        <ele>410</ele>
        <time>2016-12-04T10:58:31.999Z</time>
      </trkpt>
      <trkpt lat="47.5537" lon="6.73686">
        <ele>410</ele>
        <time>2016-12-04T10:58:32.999Z</time>
      </trkpt>
      <trkpt lat="47.55365" lon="6.73679">
        <ele>410</ele>
        <time>2016-12-04T10:58:33.999Z</time>
      </trkpt>
      <trkpt lat="47.5536" lon="6.73672">
        <ele>411</ele>
        <time>2016-12-04T10:58:34.999Z</time>
      </trkpt>
      <trkpt lat="47.55355" lon="6.73667">
        <ele>411</ele>
        <time>2016-12-04T10:58:35.999Z</time>
      </trkpt>
      <trkpt lat="47.5535" lon="6.73662">
        <ele>408</ele>
        <time>2016-12-04T10:58:36.999Z</time>
      </trkpt>
      <trkpt lat="47.55345" lon="6.73655">
        <ele>408</ele>
        <time>2016-12-04T10:58:37.999Z</time>
      </trkpt>
      <trkpt lat="47.5534" lon="6.73649">
        <ele>407</ele>
        <time>2016-12-04T10:58:38.999Z</time>
      </trkpt>
      <trkpt lat="47.55334" lon="6.73641">
        <ele>407</ele>
        <time>2016-12-04T10:58:39.999Z</time>
      </trkpt>
      <trkpt lat="47.5533" lon="6.73635">
        <ele>409</ele>
        <time>2016-12-04T10:58:40.999Z</time>
      </trkpt>
      <trkpt lat="47.55325" lon="6.73629">
        <ele>408</ele>
        <time>2016-12-04T10:58:41.999Z</time>
      </trkpt>
      <trkpt lat="47.55321" lon="6.73623">
        <ele>408</ele>
        <time>2016-12-04T10:58:42.999Z</time>
      </trkpt>
      <trkpt lat="47.55317" lon="6.73618">
        <ele>407</ele>
        <time>2016-12-04T10:58:43.999Z</time>
      </trkpt>
      <trkpt lat="47.55312" lon="6.73613">
        <ele>407</ele>
        <time>2016-12-04T10:58:44.999Z</time>
      </trkpt>
      <trkpt lat="47.55306" lon="6.73606">
        <ele>407</ele>
        <time>2016-12-04T10:58:45.999Z</time>
      </trkpt>
      <trkpt lat="47.553" lon="6.73599">
        <ele>407</ele>
        <time>2016-12-04T10:58:46.999Z</time>
      </trkpt>
      <trkpt lat="47.55294" lon="6.73593">
        <ele>407</ele>
        <time>2016-12-04T10:58:47.999Z</time>
      </trkpt>
      <trkpt lat="47.55288" lon="6.73586">
        <ele>407</ele>
        <time>2016-12-04T10:58:48.999Z</time>
      </trkpt>
      <trkpt lat="47.55282" lon="6.73582">
        <ele>402</ele>
        <time>2016-12-04T10:58:49.999Z</time>
      </trkpt>
      <trkpt lat="47.55275" lon="6.73578">
        <ele>402</ele>
        <time>2016-12-04T10:58:50.999Z</time>
      </trkpt>
      <trkpt lat="47.55268" lon="6.73572">
        <ele>402</ele>
        <time>2016-12-04T10:58:51.999Z</time>
      </trkpt>
      <trkpt lat="47.55262" lon="6.73568">
        <ele>402</ele>
        <time>2016-12-04T10:58:52.999Z</time>
      </trkpt>
      <trkpt lat="47.55256" lon="6.73563">
        <ele>402</ele>
        <time>2016-12-04T10:58:53.999Z</time>
      </trkpt>
      <trkpt lat="47.5525" lon="6.73556">
        <ele>402</ele>
        <time>2016-12-04T10:58:54.999Z</time>
      </trkpt>
      <trkpt lat="47.55245" lon="6.7355">
        <ele>403</ele>
        <time>2016-12-04T10:58:55.999Z</time>
      </trkpt>
      <trkpt lat="47.55239" lon="6.73544">
        <ele>403</ele>
        <time>2016-12-04T10:58:56.999Z</time>
      </trkpt>
      <trkpt lat="47.55233" lon="6.73539">
        <ele>403</ele>
        <time>2016-12-04T10:58:57.999Z</time>
      </trkpt>
      <trkpt lat="47.55228" lon="6.73534">
        <ele>403</ele>
        <time>2016-12-04T10:58:58.999Z</time>
      </trkpt>
      <trkpt lat="47.55223" lon="6.73528">
        <ele>402</ele>
        <time>2016-12-04T10:58:59.999Z</time>
      </trkpt>
      <trkpt lat="47.55218" lon="6.73522">
        <ele>402</ele>
        <time>2016-12-04T10:59:00.999Z</time>
      </trkpt>
      <trkpt lat="47.55212" lon="6.73517">
        <ele>402</ele>
        <time>2016-12-04T10:59:01.999Z</time>
      </trkpt>
      <trkpt lat="47.55206" lon="6.73514">
        <ele>402</ele>
        <time>2016-12-04T10:59:02.999Z</time>
      </trkpt>
      <trkpt lat="47.552" lon="6.73511">
        <ele>402</ele>
        <time>2016-12-04T10:59:03.999Z</time>
      </trkpt>
      <trkpt lat="47.55194" lon="6.73509">
        <ele>402</ele>
        <time>2016-12-04T10:59:04.999Z</time>
      </trkpt>
      <trkpt lat="47.55188" lon="6.73507">
        <ele>401</ele>
        <time>2016-12-04T10:59:05.999Z</time>
      </trkpt>
      <trkpt lat="47.55182" lon="6.73505">
        <ele>401</ele>
        <time>2016-12-04T10:59:06.999Z</time>
      </trkpt>
      <trkpt lat="47.55177" lon="6.73503">
        <ele>400</ele>
        <time>2016-12-04T10:59:07.999Z</time>
      </trkpt>
      <trkpt lat="47.55171" lon="6.73502">
        <ele>400</ele>
        <time>2016-12-04T10:59:08.999Z</time>
      </trkpt>
      <trkpt lat="47.55166" lon="6.73499">
        <ele>399</ele>
        <time>2016-12-04T10:59:09.999Z</time>
      </trkpt>
      <trkpt lat="47.5516" lon="6.73497">
        <ele>398</ele>
        <time>2016-12-04T10:59:10.999Z</time>
      </trkpt>
      <trkpt lat="47.55155" lon="6.73495">
        <ele>397</ele>
        <time>2016-12-04T10:59:11.999Z</time>
      </trkpt>
      <trkpt lat="47.5515" lon="6.73494">
        <ele>396</ele>
        <time>2016-12-04T10:59:12.999Z</time>
      </trkpt>
      <trkpt lat="47.55146" lon="6.73491">
        <ele>396</ele>
        <time>2016-12-04T10:59:13.999Z</time>
      </trkpt>
      <trkpt lat="47.55141" lon="6.73489">
        <ele>395</ele>
        <time>2016-12-04T10:59:14.999Z</time>
      </trkpt>
      <trkpt lat="47.55137" lon="6.73488">
        <ele>395</ele>
        <time>2016-12-04T10:59:15.999Z</time>
      </trkpt>
      <trkpt lat="47.55133" lon="6.73488">
        <ele>395</ele>
        <time>2016-12-04T10:59:16.999Z</time>
      </trkpt>
      <trkpt lat="47.55129" lon="6.7349">
        <ele>395</ele>
        <time>2016-12-04T10:59:17.999Z</time>
      </trkpt>
      <trkpt lat="47.55126" lon="6.73492">
        <ele>395</ele>
        <time>2016-12-04T10:59:18.999Z</time>
      </trkpt>
      <trkpt lat="47.55124" lon="6.73496">
        <ele>395</ele>
        <time>2016-12-04T10:59:19.999Z</time>
      </trkpt>
      <trkpt lat="47.55122" lon="6.735">
        <ele>395</ele>
        <time>2016-12-04T10:59:20.999Z</time>
      </trkpt>
      <trkpt lat="47.55121" lon="6.73502">
        <ele>401</ele>
        <time>2016-12-04T10:59:21.999Z</time>
      </trkpt>
      <trkpt lat="47.5512" lon="6.73506">
        <ele>401</ele>
        <time>2016-12-04T10:59:22.999Z</time>
      </trkpt>
      <trkpt lat="47.55118" lon="6.7351">
        <ele>401</ele>
        <time>2016-12-04T10:59:23.999Z</time>
      </trkpt>
      <trkpt lat="47.55117" lon="6.73513">
        <ele>401</ele>
        <time>2016-12-04T10:59:24.999Z</time>
      </trkpt>
      <trkpt lat="47.55114" lon="6.73518">
        <ele>401</ele>
        <time>2016-12-04T10:59:26.999Z</time>
      </trkpt>
      <trkpt lat="47.55112" lon="6.73521">
        <ele>401</ele>
        <time>2016-12-04T10:59:27.999Z</time>
      </trkpt>
      <trkpt lat="47.55111" lon="6.73525">
        <ele>402</ele>
        <time>2016-12-04T10:59:28.999Z</time>
      </trkpt>
      <trkpt lat="47.55108" lon="6.73529">
        <ele>402</ele>
        <time>2016-12-04T10:59:29.999Z</time>
      </trkpt>
      <trkpt lat="47.55106" lon="6.73533">
        <ele>402</ele>
        <time>2016-12-04T10:59:30.999Z</time>
      </trkpt>
      <trkpt lat="47.55105" lon="6.73537">
        <ele>402</ele>
        <time>2016-12-04T10:59:31.999Z</time>
      </trkpt>
      <trkpt lat="47.55103" lon="6.7354">
        <ele>402</ele>
        <time>2016-12-04T10:59:32.999Z</time>
      </trkpt>
      <trkpt lat="47.55102" lon="6.73542">
        <ele>403</ele>
        <time>2016-12-04T10:59:33.999Z</time>
      </trkpt>
      <trkpt lat="47.55101" lon="6.73545">
        <ele>403</ele>
        <time>2016-12-04T10:59:34.999Z</time>
      </trkpt>
      <trkpt lat="47.551" lon="6.73548">
        <ele>403</ele>
        <time>2016-12-04T10:59:35.999Z</time>
      </trkpt>
      <trkpt lat="47.55099" lon="6.73551">
        <ele>403</ele>
        <time>2016-12-04T10:59:36.999Z</time>
      </trkpt>
      <trkpt lat="47.55098" lon="6.73555">
        <ele>404</ele>
        <time>2016-12-04T10:59:37.999Z</time>
      </trkpt>
      <trkpt lat="47.55098" lon="6.73558">
        <ele>404</ele>
        <time>2016-12-04T10:59:38.999Z</time>
      </trkpt>
      <trkpt lat="47.55097" lon="6.73562">
        <ele>404</ele>
        <time>2016-12-04T10:59:39.999Z</time>
      </trkpt>
      <trkpt lat="47.55096" lon="6.73565">
        <ele>405</ele>
        <time>2016-12-04T10:59:40.999Z</time>
      </trkpt>
      <trkpt lat="47.55096" lon="6.73569">
        <ele>405</ele>
        <time>2016-12-04T10:59:41.999Z</time>
      </trkpt>
      <trkpt lat="47.55094" lon="6.73574">
        <ele>405</ele>
        <time>2016-12-04T10:59:43.999Z</time>
      </trkpt>
      <trkpt lat="47.55094" lon="6.73576">
        <ele>405</ele>
        <time>2016-12-04T10:59:44.999Z</time>
      </trkpt>
      <trkpt lat="47.55093" lon="6.73582">
        <ele>406</ele>
        <time>2016-12-04T10:59:46.999Z</time>
      </trkpt>
      <trkpt lat="47.55093" lon="6.73584">
        <ele>409</ele>
        <time>2016-12-04T10:59:47.999Z</time>
      </trkpt>
      <trkpt lat="47.55093" lon="6.7359">
        <ele>409</ele>
        <time>2016-12-04T10:59:49.999Z</time>
      </trkpt>
      <trkpt lat="47.55093" lon="6.73593">
        <ele>409</ele>
        <time>2016-12-04T10:59:50.999Z</time>
      </trkpt>
      <trkpt lat="47.55095" lon="6.73599">
        <ele>410</ele>
        <time>2016-12-04T10:59:52.999Z</time>
      </trkpt>
      <trkpt lat="47.55095" lon="6.73602">
        <ele>410</ele>
        <time>2016-12-04T10:59:53.999Z</time>
      </trkpt>
      <trkpt lat="47.55096" lon="6.73608">
        <ele>411</ele>
        <time>2016-12-04T10:59:56.999Z</time>
      </trkpt>
      <trkpt lat="47.55096" lon="6.7361">
        <ele>411</ele>
        <time>2016-12-04T10:59:57.999Z</time>
      </trkpt>
      <trkpt lat="47.55097" lon="6.73616">
        <ele>412</ele>
        <time>2016-12-04T10:59:59.999Z</time>
      </trkpt>
      <trkpt lat="47.55097" lon="6.7362">
        <ele>412</ele>
        <time>2016-12-04T11:00:00.999Z</time>
      </trkpt>
      <trkpt lat="47.55096" lon="6.73625">
        <ele>412</ele>
        <time>2016-12-04T11:00:01.999Z</time>
      </trkpt>
      <trkpt lat="47.55097" lon="6.73628">
        <ele>412</ele>
        <time>2016-12-04T11:00:02.999Z</time>
      </trkpt>
      <trkpt lat="47.55097" lon="6.73631">
        <ele>413</ele>
        <time>2016-12-04T11:00:03.999Z</time>
      </trkpt>
      <trkpt lat="47.55097" lon="6.73635">
        <ele>413</ele>
        <time>2016-12-04T11:00:04.999Z</time>
      </trkpt>
      <trkpt lat="47.55096" lon="6.73641">
        <ele>413</ele>
        <time>2016-12-04T11:00:07.999Z</time>
      </trkpt>
      <trkpt lat="47.55097" lon="6.73645">
        <ele>413</ele>
        <time>2016-12-04T11:00:08.999Z</time>
      </trkpt>
      <trkpt lat="47.55097" lon="6.73649">
        <ele>413</ele>
        <time>2016-12-04T11:00:09.999Z</time>
      </trkpt>
      <trkpt lat="47.55096" lon="6.73653">
        <ele>414</ele>
        <time>2016-12-04T11:00:10.999Z</time>
      </trkpt>
      <trkpt lat="47.55096" lon="6.73657">
        <ele>414</ele>
        <time>2016-12-04T11:00:11.999Z</time>
      </trkpt>
      <trkpt lat="47.55096" lon="6.73661">
        <ele>414</ele>
        <time>2016-12-04T11:00:12.999Z</time>
      </trkpt>
      <trkpt lat="47.55097" lon="6.73666">
        <ele>414</ele>
        <time>2016-12-04T11:00:14.999Z</time>
      </trkpt>
      <trkpt lat="47.55097" lon="6.73668">
        <ele>417</ele>
        <time>2016-12-04T11:00:15.999Z</time>
      </trkpt>
      <trkpt lat="47.55096" lon="6.73674">
        <ele>417</ele>
        <time>2016-12-04T11:00:17.999Z</time>
      </trkpt>
      <trkpt lat="47.55096" lon="6.73678">
        <ele>418</ele>
        <time>2016-12-04T11:00:18.999Z</time>
      </trkpt>
      <trkpt lat="47.55096" lon="6.73682">
        <ele>418</ele>
        <time>2016-12-04T11:00:19.999Z</time>
      </trkpt>
      <trkpt lat="47.55095" lon="6.73685">
        <ele>418</ele>
        <time>2016-12-04T11:00:20.999Z</time>
      </trkpt>
      <trkpt lat="47.55095" lon="6.73689">
        <ele>419</ele>
        <time>2016-12-04T11:00:21.999Z</time>
      </trkpt>
      <trkpt lat="47.55094" lon="6.73693">
        <ele>419</ele>
        <time>2016-12-04T11:00:22.999Z</time>
      </trkpt>
      <trkpt lat="47.55093" lon="6.73698">
        <ele>419</ele>
        <time>2016-12-04T11:00:23.999Z</time>
      </trkpt>
      <trkpt lat="47.55092" lon="6.73702">
        <ele>420</ele>
        <time>2016-12-04T11:00:24.999Z</time>
      </trkpt>
      <trkpt lat="47.55091" lon="6.73707">
        <ele>420</ele>
        <time>2016-12-04T11:00:25.999Z</time>
      </trkpt>
      <trkpt lat="47.5509" lon="6.7371">
        <ele>420</ele>
        <time>2016-12-04T11:00:26.999Z</time>
      </trkpt>
      <trkpt lat="47.55089" lon="6.73714">
        <ele>420</ele>
        <time>2016-12-04T11:00:27.999Z</time>
      </trkpt>
      <trkpt lat="47.55087" lon="6.73719">
        <ele>420</ele>
        <time>2016-12-04T11:00:28.999Z</time>
      </trkpt>
      <trkpt lat="47.55087" lon="6.73725">
        <ele>421</ele>
        <time>2016-12-04T11:00:31.999Z</time>
      </trkpt>
      <trkpt lat="47.55087" lon="6.73727">
        <ele>421</ele>
        <time>2016-12-04T11:00:32.999Z</time>
      </trkpt>
      <trkpt lat="47.55086" lon="6.73732">
        <ele>421</ele>
        <time>2016-12-04T11:00:33.999Z</time>
      </trkpt>
      <trkpt lat="47.55085" lon="6.73737">
        <ele>421</ele>
        <time>2016-12-04T11:00:34.999Z</time>
      </trkpt>
      <trkpt lat="47.55083" lon="6.73741">
        <ele>419</ele>
        <time>2016-12-04T11:00:35.999Z</time>
      </trkpt>
      <trkpt lat="47.55083" lon="6.73745">
        <ele>420</ele>
        <time>2016-12-04T11:00:36.999Z</time>
      </trkpt>
      <trkpt lat="47.55082" lon="6.73751">
        <ele>421</ele>
        <time>2016-12-04T11:00:38.999Z</time>
      </trkpt>
      <trkpt lat="47.55081" lon="6.73753">
        <ele>421</ele>
        <time>2016-12-04T11:00:39.999Z</time>
      </trkpt>
      <trkpt lat="47.55079" lon="6.73759">
        <ele>420</ele>
        <time>2016-12-04T11:00:41.999Z</time>
      </trkpt>
      <trkpt lat="47.55079" lon="6.73762">
        <ele>420</ele>
        <time>2016-12-04T11:00:42.999Z</time>
      </trkpt>
      <trkpt lat="47.55077" lon="6.73768">
        <ele>420</ele>
        <time>2016-12-04T11:00:44.999Z</time>
      </trkpt>
      <trkpt lat="47.55077" lon="6.7377">
        <ele>420</ele>
        <time>2016-12-04T11:00:45.999Z</time>
      </trkpt>
      <trkpt lat="47.55074" lon="6.73775">
        <ele>420</ele>
        <time>2016-12-04T11:00:47.999Z</time>
      </trkpt>
      <trkpt lat="47.55072" lon="6.73777">
        <ele>420</ele>
        <time>2016-12-04T11:00:48.999Z</time>
      </trkpt>
      <trkpt lat="47.55071" lon="6.73782">
        <ele>420</ele>
        <time>2016-12-04T11:00:50.999Z</time>
      </trkpt>
      <trkpt lat="47.5507" lon="6.73785">
        <ele>420</ele>
        <time>2016-12-04T11:00:51.999Z</time>
      </trkpt>
      <trkpt lat="47.55068" lon="6.7379">
        <ele>421</ele>
        <time>2016-12-04T11:00:53.999Z</time>
      </trkpt>
      <trkpt lat="47.55067" lon="6.73793">
        <ele>421</ele>
        <time>2016-12-04T11:00:54.999Z</time>
      </trkpt>
      <trkpt lat="47.55067" lon="6.73796">
        <ele>421</ele>
        <time>2016-12-04T11:00:55.999Z</time>
      </trkpt>
      <trkpt lat="47.55066" lon="6.738">
        <ele>421</ele>
        <time>2016-12-04T11:00:56.999Z</time>
      </trkpt>
      <trkpt lat="47.55065" lon="6.73805">
        <ele>421</ele>
        <time>2016-12-04T11:00:57.999Z</time>
      </trkpt>
      <trkpt lat="47.55064" lon="6.73809">
        <ele>421</ele>
        <time>2016-12-04T11:00:58.999Z</time>
      </trkpt>
      <trkpt lat="47.55064" lon="6.73813">
        <ele>422</ele>
        <time>2016-12-04T11:00:59.999Z</time>
      </trkpt>
      <trkpt lat="47.55063" lon="6.73817">
        <ele>422</ele>
        <time>2016-12-04T11:01:00.999Z</time>
      </trkpt>
      <trkpt lat="47.55062" lon="6.7382">
        <ele>422</ele>
        <time>2016-12-04T11:01:01.999Z</time>
      </trkpt>
      <trkpt lat="47.55061" lon="6.73824">
        <ele>422</ele>
        <time>2016-12-04T11:01:02.999Z</time>
      </trkpt>
      <trkpt lat="47.5506" lon="6.7383">
        <ele>422</ele>
        <time>2016-12-04T11:01:04.999Z</time>
      </trkpt>
      <trkpt lat="47.55059" lon="6.73833">
        <ele>422</ele>
        <time>2016-12-04T11:01:05.999Z</time>
      </trkpt>
      <trkpt lat="47.55058" lon="6.73838">
        <ele>425</ele>
        <time>2016-12-04T11:01:07.999Z</time>
      </trkpt>
      <trkpt lat="47.55058" lon="6.73841">
        <ele>425</ele>
        <time>2016-12-04T11:01:08.999Z</time>
      </trkpt>
      <trkpt lat="47.55057" lon="6.73844">
        <ele>425</ele>
        <time>2016-12-04T11:01:09.999Z</time>
      </trkpt>
      <trkpt lat="47.55056" lon="6.73848">
        <ele>425</ele>
        <time>2016-12-04T11:01:10.999Z</time>
      </trkpt>
      <trkpt lat="47.55054" lon="6.73853">
        <ele>425</ele>
        <time>2016-12-04T11:01:11.999Z</time>
      </trkpt>
      <trkpt lat="47.55053" lon="6.73857">
        <ele>425</ele>
        <time>2016-12-04T11:01:12.999Z</time>
      </trkpt>
      <trkpt lat="47.55052" lon="6.73862">
        <ele>425</ele>
        <time>2016-12-04T11:01:13.999Z</time>
      </trkpt>
      <trkpt lat="47.55051" lon="6.73867">
        <ele>425</ele>
        <time>2016-12-04T11:01:14.999Z</time>
      </trkpt>
      <trkpt lat="47.55049" lon="6.73873">
        <ele>425</ele>
        <time>2016-12-04T11:01:15.999Z</time>
      </trkpt>
      <trkpt lat="47.55047" lon="6.73878">
        <ele>425</ele>
        <time>2016-12-04T11:01:16.999Z</time>
      </trkpt>
      <trkpt lat="47.55045" lon="6.73885">
        <ele>425</ele>
        <time>2016-12-04T11:01:17.999Z</time>
      </trkpt>
      <trkpt lat="47.55043" lon="6.73893">
        <ele>425</ele>
        <time>2016-12-04T11:01:18.999Z</time>
      </trkpt>
      <trkpt lat="47.55042" lon="6.73901">
        <ele>425</ele>
        <time>2016-12-04T11:01:19.999Z</time>
      </trkpt>
      <trkpt lat="47.55041" lon="6.73909">
        <ele>425</ele>
        <time>2016-12-04T11:01:20.999Z</time>
      </trkpt>
      <trkpt lat="47.55039" lon="6.73915">
        <ele>425</ele>
        <time>2016-12-04T11:01:21.999Z</time>
      </trkpt>
      <trkpt lat="47.55038" lon="6.73921">
        <ele>428</ele>
        <time>2016-12-04T11:01:22.999Z</time>
      </trkpt>
      <trkpt lat="47.55037" lon="6.73928">
        <ele>428</ele>
        <time>2016-12-04T11:01:23.999Z</time>
      </trkpt>
      <trkpt lat="47.55035" lon="6.73934">
        <ele>428</ele>
        <time>2016-12-04T11:01:24.999Z</time>
      </trkpt>
      <trkpt lat="47.55033" lon="6.73942">
        <ele>428</ele>
        <time>2016-12-04T11:01:25.999Z</time>
      </trkpt>
      <trkpt lat="47.5503" lon="6.73948">
        <ele>428</ele>
        <time>2016-12-04T11:01:26.999Z</time>
      </trkpt>
      <trkpt lat="47.55027" lon="6.73955">
        <ele>428</ele>
        <time>2016-12-04T11:01:27.999Z</time>
      </trkpt>
      <trkpt lat="47.55025" lon="6.7396">
        <ele>428</ele>
        <time>2016-12-04T11:01:28.999Z</time>
      </trkpt>
      <trkpt lat="47.55023" lon="6.73967">
        <ele>428</ele>
        <time>2016-12-04T11:01:29.999Z</time>
      </trkpt>
      <trkpt lat="47.55022" lon="6.73973">
        <ele>428</ele>
        <time>2016-12-04T11:01:30.999Z</time>
      </trkpt>
      <trkpt lat="47.5502" lon="6.73978">
        <ele>428</ele>
        <time>2016-12-04T11:01:31.999Z</time>
      </trkpt>
      <trkpt lat="47.55018" lon="6.73984">
        <ele>427</ele>
        <time>2016-12-04T11:01:32.999Z</time>
      </trkpt>
      <trkpt lat="47.55016" lon="6.7399">
        <ele>427</ele>
        <time>2016-12-04T11:01:33.999Z</time>
      </trkpt>
      <trkpt lat="47.55014" lon="6.73995">
        <ele>426</ele>
        <time>2016-12-04T11:01:34.999Z</time>
      </trkpt>
      <trkpt lat="47.55012" lon="6.74">
        <ele>426</ele>
        <time>2016-12-04T11:01:35.999Z</time>
      </trkpt>
      <trkpt lat="47.55012" lon="6.74006">
        <ele>427</ele>
        <time>2016-12-04T11:01:36.999Z</time>
      </trkpt>
      <trkpt lat="47.55011" lon="6.74011">
        <ele>428</ele>
        <time>2016-12-04T11:01:37.999Z</time>
      </trkpt>
      <trkpt lat="47.55009" lon="6.74017">
        <ele>428</ele>
        <time>2016-12-04T11:01:38.999Z</time>
      </trkpt>
      <trkpt lat="47.55007" lon="6.74022">
        <ele>428</ele>
        <time>2016-12-04T11:01:39.999Z</time>
      </trkpt>
      <trkpt lat="47.55004" lon="6.74031">
        <ele>429</ele>
        <time>2016-12-04T11:01:40.999Z</time>
      </trkpt>
      <trkpt lat="47.55002" lon="6.74035">
        <ele>429</ele>
        <time>2016-12-04T11:01:41.999Z</time>
      </trkpt>
      <trkpt lat="47.55001" lon="6.74041">
        <ele>429</ele>
        <time>2016-12-04T11:01:42.999Z</time>
      </trkpt>
      <trkpt lat="47.54999" lon="6.74051">
        <ele>420</ele>
        <time>2016-12-04T11:01:43.999Z</time>
      </trkpt>
      <trkpt lat="47.54997" lon="6.74056">
        <ele>420</ele>
        <time>2016-12-04T11:01:44.999Z</time>
      </trkpt>
      <trkpt lat="47.54996" lon="6.7406">
        <ele>420</ele>
        <time>2016-12-04T11:01:45.999Z</time>
      </trkpt>
      <trkpt lat="47.54995" lon="6.74065">
        <ele>421</ele>
        <time>2016-12-04T11:01:46.999Z</time>
      </trkpt>
      <trkpt lat="47.54993" lon="6.74071">
        <ele>421</ele>
        <time>2016-12-04T11:01:47.999Z</time>
      </trkpt>
      <trkpt lat="47.54992" lon="6.74076">
        <ele>422</ele>
        <time>2016-12-04T11:01:48.999Z</time>
      </trkpt>
      <trkpt lat="47.54991" lon="6.7408">
        <ele>422</ele>
        <time>2016-12-04T11:01:49.999Z</time>
      </trkpt>
      <trkpt lat="47.5499" lon="6.74085">
        <ele>423</ele>
        <time>2016-12-04T11:01:50.999Z</time>
      </trkpt>
      <trkpt lat="47.54989" lon="6.74089">
        <ele>423</ele>
        <time>2016-12-04T11:01:51.999Z</time>
      </trkpt>
      <trkpt lat="47.54989" lon="6.74092">
        <ele>423</ele>
        <time>2016-12-04T11:01:52.999Z</time>
      </trkpt>
      <trkpt lat="47.5499" lon="6.74097">
        <ele>423</ele>
        <time>2016-12-04T11:01:53.999Z</time>
      </trkpt>
      <trkpt lat="47.54992" lon="6.74103">
        <ele>422</ele>
        <time>2016-12-04T11:01:54.999Z</time>
      </trkpt>
      <trkpt lat="47.54993" lon="6.74108">
        <ele>422</ele>
        <time>2016-12-04T11:01:55.999Z</time>
      </trkpt>
      <trkpt lat="47.54994" lon="6.74115">
        <ele>422</ele>
        <time>2016-12-04T11:01:56.999Z</time>
      </trkpt>
      <trkpt lat="47.54995" lon="6.7412">
        <ele>422</ele>
        <time>2016-12-04T11:01:57.999Z</time>
      </trkpt>
      <trkpt lat="47.54997" lon="6.74126">
        <ele>422</ele>
        <time>2016-12-04T11:01:58.999Z</time>
      </trkpt>
      <trkpt lat="47.54997" lon="6.7413">
        <ele>423</ele>
        <time>2016-12-04T11:01:59.999Z</time>
      </trkpt>
      <trkpt lat="47.54998" lon="6.74133">
        <ele>423</ele>
        <time>2016-12-04T11:02:00.999Z</time>
      </trkpt>
      <trkpt lat="47.54999" lon="6.74138">
        <ele>423</ele>
        <time>2016-12-04T11:02:02.999Z</time>
      </trkpt>
      <trkpt lat="47.55" lon="6.74141">
        <ele>430</ele>
        <time>2016-12-04T11:02:03.999Z</time>
      </trkpt>
      <trkpt lat="47.55002" lon="6.74145">
        <ele>430</ele>
        <time>2016-12-04T11:02:04.999Z</time>
      </trkpt>
      <trkpt lat="47.55005" lon="6.74148">
        <ele>430</ele>
        <time>2016-12-04T11:02:05.999Z</time>
      </trkpt>
      <trkpt lat="47.55007" lon="6.74153">
        <ele>430</ele>
        <time>2016-12-04T11:02:06.999Z</time>
      </trkpt>
      <trkpt lat="47.55008" lon="6.74158">
        <ele>429</ele>
        <time>2016-12-04T11:02:07.999Z</time>
      </trkpt>
      <trkpt lat="47.55008" lon="6.74162">
        <ele>429</ele>
        <time>2016-12-04T11:02:08.999Z</time>
      </trkpt>
      <trkpt lat="47.55009" lon="6.74166">
        <ele>429</ele>
        <time>2016-12-04T11:02:09.999Z</time>
      </trkpt>
      <trkpt lat="47.5501" lon="6.74169">
        <ele>430</ele>
        <time>2016-12-04T11:02:10.999Z</time>
      </trkpt>
      <trkpt lat="47.55013" lon="6.74171">
        <ele>431</ele>
        <time>2016-12-04T11:02:11.999Z</time>
      </trkpt>
      <trkpt lat="47.55015" lon="6.74176">
        <ele>431</ele>
        <time>2016-12-04T11:02:12.999Z</time>
      </trkpt>
      <trkpt lat="47.55016" lon="6.74179">
        <ele>432</ele>
        <time>2016-12-04T11:02:13.999Z</time>
      </trkpt>
      <trkpt lat="47.55017" lon="6.74182">
        <ele>432</ele>
        <time>2016-12-04T11:02:14.999Z</time>
      </trkpt>
      <trkpt lat="47.55019" lon="6.74185">
        <ele>432</ele>
        <time>2016-12-04T11:02:15.999Z</time>
      </trkpt>
      <trkpt lat="47.55019" lon="6.7419">
        <ele>433</ele>
        <time>2016-12-04T11:02:16.999Z</time>
      </trkpt>
      <trkpt lat="47.5502" lon="6.74194">
        <ele>433</ele>
        <time>2016-12-04T11:02:17.999Z</time>
      </trkpt>
      <trkpt lat="47.5502" lon="6.74201">
        <ele>433</ele>
        <time>2016-12-04T11:02:19.999Z</time>
      </trkpt>
      <trkpt lat="47.55021" lon="6.74204">
        <ele>434</ele>
        <time>2016-12-04T11:02:20.999Z</time>
      </trkpt>
      <trkpt lat="47.55021" lon="6.74207">
        <ele>434</ele>
        <time>2016-12-04T11:02:21.999Z</time>
      </trkpt>
      <trkpt lat="47.55021" lon="6.74212">
        <ele>434</ele>
        <time>2016-12-04T11:02:22.999Z</time>
      </trkpt>
      <trkpt lat="47.55023" lon="6.74217">
        <ele>434</ele>
        <time>2016-12-04T11:02:24.999Z</time>
      </trkpt>
      <trkpt lat="47.55023" lon="6.74221">
        <ele>434</ele>
        <time>2016-12-04T11:02:25.999Z</time>
      </trkpt>
      <trkpt lat="47.55025" lon="6.74224">
        <ele>434</ele>
        <time>2016-12-04T11:02:28.999Z</time>
      </trkpt>
      <trkpt lat="47.55025" lon="6.74229">
        <ele>434</ele>
        <time>2016-12-04T11:02:29.999Z</time>
      </trkpt>
      <trkpt lat="47.55026" lon="6.74235">
        <ele>434</ele>
        <time>2016-12-04T11:02:31.999Z</time>
      </trkpt>
      <trkpt lat="47.55028" lon="6.74239">
        <ele>434</ele>
        <time>2016-12-04T11:02:32.999Z</time>
      </trkpt>
      <trkpt lat="47.55028" lon="6.74243">
        <ele>434</ele>
        <time>2016-12-04T11:02:33.999Z</time>
      </trkpt>
      <trkpt lat="47.55029" lon="6.74248">
        <ele>434</ele>
        <time>2016-12-04T11:02:34.999Z</time>
      </trkpt>
      <trkpt lat="47.55029" lon="6.74252">
        <ele>435</ele>
        <time>2016-12-04T11:02:35.999Z</time>
      </trkpt>
      <trkpt lat="47.5503" lon="6.74254">
        <ele>435</ele>
        <time>2016-12-04T11:02:36.999Z</time>
      </trkpt>
      <trkpt lat="47.55031" lon="6.74258">
        <ele>436</ele>
        <time>2016-12-04T11:02:37.999Z</time>
      </trkpt>
      <trkpt lat="47.55032" lon="6.74261">
        <ele>436</ele>
        <time>2016-12-04T11:02:38.999Z</time>
      </trkpt>
      <trkpt lat="47.55033" lon="6.74264">
        <ele>436</ele>
        <time>2016-12-04T11:02:39.999Z</time>
      </trkpt>
      <trkpt lat="47.55034" lon="6.74267">
        <ele>436</ele>
        <time>2016-12-04T11:02:40.999Z</time>
      </trkpt>
      <trkpt lat="47.55036" lon="6.74272">
        <ele>436</ele>
        <time>2016-12-04T11:02:41.999Z</time>
      </trkpt>
      <trkpt lat="47.55036" lon="6.74278">
        <ele>437</ele>
        <time>2016-12-04T11:02:42.999Z</time>
      </trkpt>
      <trkpt lat="47.55036" lon="6.74284">
        <ele>437</ele>
        <time>2016-12-04T11:02:43.999Z</time>
      </trkpt>
      <trkpt lat="47.55036" lon="6.74288">
        <ele>437</ele>
        <time>2016-12-04T11:02:44.999Z</time>
      </trkpt>
      <trkpt lat="47.55036" lon="6.74292">
        <ele>437</ele>
        <time>2016-12-04T11:02:45.999Z</time>
      </trkpt>
      <trkpt lat="47.55036" lon="6.74296">
        <ele>437</ele>
        <time>2016-12-04T11:02:46.999Z</time>
      </trkpt>
      <trkpt lat="47.55036" lon="6.74303">
        <ele>437</ele>
        <time>2016-12-04T11:02:48.999Z</time>
      </trkpt>
      <trkpt lat="47.55037" lon="6.74306">
        <ele>437</ele>
        <time>2016-12-04T11:02:49.999Z</time>
      </trkpt>
      <trkpt lat="47.55037" lon="6.74309">
        <ele>437</ele>
        <time>2016-12-04T11:02:51.999Z</time>
      </trkpt>
      <trkpt lat="47.55037" lon="6.74315">
        <ele>437</ele>
        <time>2016-12-04T11:02:52.999Z</time>
      </trkpt>
      <trkpt lat="47.55034" lon="6.74317">
        <ele>437</ele>
        <time>2016-12-04T11:02:55.999Z</time>
      </trkpt>
      <trkpt lat="47.55032" lon="6.7432">
        <ele>437</ele>
        <time>2016-12-04T11:02:56.999Z</time>
      </trkpt>
      <trkpt lat="47.55029" lon="6.74322">
        <ele>437</ele>
        <time>2016-12-04T11:02:57.999Z</time>
      </trkpt>
      <trkpt lat="47.55026" lon="6.74325">
        <ele>437</ele>
        <time>2016-12-04T11:02:58.999Z</time>
      </trkpt>
      <trkpt lat="47.55024" lon="6.74328">
        <ele>437</ele>
        <time>2016-12-04T11:02:59.999Z</time>
      </trkpt>
      <trkpt lat="47.55021" lon="6.7433">
        <ele>437</ele>
        <time>2016-12-04T11:03:00.999Z</time>
      </trkpt>
      <trkpt lat="47.55019" lon="6.74332">
        <ele>437</ele>
        <time>2016-12-04T11:03:01.999Z</time>
      </trkpt>
      <trkpt lat="47.55017" lon="6.74334">
        <ele>438</ele>
        <time>2016-12-04T11:03:02.999Z</time>
      </trkpt>
      <trkpt lat="47.55014" lon="6.74338">
        <ele>438</ele>
        <time>2016-12-04T11:03:07.999Z</time>
      </trkpt>
      <trkpt lat="47.55011" lon="6.7434">
        <ele>438</ele>
        <time>2016-12-04T11:03:08.999Z</time>
      </trkpt>
      <trkpt lat="47.55009" lon="6.74343">
        <ele>438</ele>
        <time>2016-12-04T11:03:09.999Z</time>
      </trkpt>
      <trkpt lat="47.55006" lon="6.74346">
        <ele>438</ele>
        <time>2016-12-04T11:03:10.999Z</time>
      </trkpt>
      <trkpt lat="47.55003" lon="6.7435">
        <ele>438</ele>
        <time>2016-12-04T11:03:11.999Z</time>
      </trkpt>
      <trkpt lat="47.55001" lon="6.74352">
        <ele>439</ele>
        <time>2016-12-04T11:03:12.999Z</time>
      </trkpt>
      <trkpt lat="47.54998" lon="6.74355">
        <ele>439</ele>
        <time>2016-12-04T11:03:16.999Z</time>
      </trkpt>
      <trkpt lat="47.54997" lon="6.74357">
        <ele>440</ele>
        <time>2016-12-04T11:03:17.999Z</time>
      </trkpt>
      <trkpt lat="47.54995" lon="6.74359">
        <ele>440</ele>
        <time>2016-12-04T11:03:18.999Z</time>
      </trkpt>
      <trkpt lat="47.54993" lon="6.74362">
        <ele>440</ele>
        <time>2016-12-04T11:03:19.999Z</time>
      </trkpt>
      <trkpt lat="47.54989" lon="6.74367">
        <ele>440</ele>
        <time>2016-12-04T11:03:21.999Z</time>
      </trkpt>
      <trkpt lat="47.54987" lon="6.74369">
        <ele>441</ele>
        <time>2016-12-04T11:03:22.999Z</time>
      </trkpt>
      <trkpt lat="47.54986" lon="6.74371">
        <ele>441</ele>
        <time>2016-12-04T11:03:23.999Z</time>
      </trkpt>
      <trkpt lat="47.54984" lon="6.74374">
        <ele>441</ele>
        <time>2016-12-04T11:03:24.999Z</time>
      </trkpt>
      <trkpt lat="47.54981" lon="6.74376">
        <ele>441</ele>
        <time>2016-12-04T11:03:27.999Z</time>
      </trkpt>
      <trkpt lat="47.5498" lon="6.74379">
        <ele>441</ele>
        <time>2016-12-04T11:03:28.999Z</time>
      </trkpt>
      <trkpt lat="47.54977" lon="6.74382">
        <ele>442</ele>
        <time>2016-12-04T11:03:31.999Z</time>
      </trkpt>
      <trkpt lat="47.54975" lon="6.74383">
        <ele>442</ele>
        <time>2016-12-04T11:03:32.999Z</time>
      </trkpt>
      <trkpt lat="47.54971" lon="6.74386">
        <ele>442</ele>
        <time>2016-12-04T11:03:36.999Z</time>
      </trkpt>
      <trkpt lat="47.5497" lon="6.74387">
        <ele>442</ele>
        <time>2016-12-04T11:03:37.999Z</time>
      </trkpt>
      <trkpt lat="47.54966" lon="6.74387">
        <ele>442</ele>
        <time>2016-12-04T11:03:40.999Z</time>
      </trkpt>
      <trkpt lat="47.54964" lon="6.74386">
        <ele>442</ele>
        <time>2016-12-04T11:03:41.999Z</time>
      </trkpt>
      <trkpt lat="47.5496" lon="6.74385">
        <ele>442</ele>
        <time>2016-12-04T11:03:43.999Z</time>
      </trkpt>
      <trkpt lat="47.54958" lon="6.74385">
        <ele>442</ele>
        <time>2016-12-04T11:03:44.999Z</time>
      </trkpt>
      <trkpt lat="47.54956" lon="6.74386">
        <ele>442</ele>
        <time>2016-12-04T11:03:45.999Z</time>
      </trkpt>
      <trkpt lat="47.54953" lon="6.74387">
        <ele>442</ele>
        <time>2016-12-04T11:03:46.999Z</time>
      </trkpt>
      <trkpt lat="47.54949" lon="6.74387">
        <ele>442</ele>
        <time>2016-12-04T11:03:50.999Z</time>
      </trkpt>
      <trkpt lat="47.54948" lon="6.74387">
        <ele>442</ele>
        <time>2016-12-04T11:03:51.999Z</time>
      </trkpt>
      <trkpt lat="47.54945" lon="6.74388">
        <ele>442</ele>
        <time>2016-12-04T11:03:53.999Z</time>
      </trkpt>
      <trkpt lat="47.54942" lon="6.74391">
        <ele>442</ele>
        <time>2016-12-04T11:03:54.999Z</time>
      </trkpt>
      <trkpt lat="47.5494" lon="6.74396">
        <ele>443</ele>
        <time>2016-12-04T11:03:57.999Z</time>
      </trkpt>
      <trkpt lat="47.54938" lon="6.74397">
        <ele>443</ele>
        <time>2016-12-04T11:03:58.999Z</time>
      </trkpt>
      <trkpt lat="47.54934" lon="6.74399">
        <ele>443</ele>
        <time>2016-12-04T11:04:01.999Z</time>
      </trkpt>
      <trkpt lat="47.54933" lon="6.744">
        <ele>443</ele>
        <time>2016-12-04T11:04:02.999Z</time>
      </trkpt>
      <trkpt lat="47.54929" lon="6.74401">
        <ele>443</ele>
        <time>2016-12-04T11:04:05.999Z</time>
      </trkpt>
      <trkpt lat="47.54928" lon="6.74401">
        <ele>443</ele>
        <time>2016-12-04T11:04:06.999Z</time>
      </trkpt>
      <trkpt lat="47.54924" lon="6.744">
        <ele>443</ele>
        <time>2016-12-04T11:04:08.999Z</time>
      </trkpt>
      <trkpt lat="47.54923" lon="6.74401">
        <ele>443</ele>
        <time>2016-12-04T11:04:09.999Z</time>
      </trkpt>
      <trkpt lat="47.54919" lon="6.74402">
        <ele>444</ele>
        <time>2016-12-04T11:04:13.999Z</time>
      </trkpt>
      <trkpt lat="47.54919" lon="6.74403">
        <ele>444</ele>
        <time>2016-12-04T11:04:14.999Z</time>
      </trkpt>
      <trkpt lat="47.54916" lon="6.74408">
        <ele>444</ele>
        <time>2016-12-04T11:04:18.999Z</time>
      </trkpt>
      <trkpt lat="47.54915" lon="6.74408">
        <ele>444</ele>
        <time>2016-12-04T11:04:19.999Z</time>
      </trkpt>
      <trkpt lat="47.54913" lon="6.74411">
        <ele>444</ele>
        <time>2016-12-04T11:04:22.999Z</time>
      </trkpt>
      <trkpt lat="47.5491" lon="6.74414">
        <ele>444</ele>
        <time>2016-12-04T11:04:23.999Z</time>
      </trkpt>
      <trkpt lat="47.54908" lon="6.74416">
        <ele>444</ele>
        <time>2016-12-04T11:04:26.999Z</time>
      </trkpt>
      <trkpt lat="47.54907" lon="6.74419">
        <ele>445</ele>
        <time>2016-12-04T11:04:27.999Z</time>
      </trkpt>
      <trkpt lat="47.54905" lon="6.74424">
        <ele>445</ele>
        <time>2016-12-04T11:04:30.999Z</time>
      </trkpt>
      <trkpt lat="47.54904" lon="6.74426">
        <ele>445</ele>
        <time>2016-12-04T11:04:31.999Z</time>
      </trkpt>
      <trkpt lat="47.54901" lon="6.74431">
        <ele>444</ele>
        <time>2016-12-04T11:04:32.999Z</time>
      </trkpt>
      <trkpt lat="47.549" lon="6.74435">
        <ele>444</ele>
        <time>2016-12-04T11:04:33.999Z</time>
      </trkpt>
      <trkpt lat="47.54898" lon="6.7444">
        <ele>444</ele>
        <time>2016-12-04T11:04:34.999Z</time>
      </trkpt>
      <trkpt lat="47.54896" lon="6.74445">
        <ele>444</ele>
        <time>2016-12-04T11:04:35.999Z</time>
      </trkpt>
      <trkpt lat="47.54895" lon="6.7445">
        <ele>444</ele>
        <time>2016-12-04T11:04:36.999Z</time>
      </trkpt>
      <trkpt lat="47.54894" lon="6.74455">
        <ele>444</ele>
        <time>2016-12-04T11:04:37.999Z</time>
      </trkpt>
      <trkpt lat="47.54893" lon="6.7446">
        <ele>444</ele>
        <time>2016-12-04T11:04:38.999Z</time>
      </trkpt>
      <trkpt lat="47.54892" lon="6.74465">
        <ele>444</ele>
        <time>2016-12-04T11:04:39.999Z</time>
      </trkpt>
      <trkpt lat="47.54891" lon="6.74469">
        <ele>444</ele>
        <time>2016-12-04T11:04:41.999Z</time>
      </trkpt>
      <trkpt lat="47.54891" lon="6.74472">
        <ele>444</ele>
        <time>2016-12-04T11:04:42.999Z</time>
      </trkpt>
      <trkpt lat="47.54889" lon="6.74476">
        <ele>444</ele>
        <time>2016-12-04T11:04:43.999Z</time>
      </trkpt>
      <trkpt lat="47.54888" lon="6.74479">
        <ele>444</ele>
        <time>2016-12-04T11:04:44.999Z</time>
      </trkpt>
      <trkpt lat="47.54886" lon="6.74483">
        <ele>444</ele>
        <time>2016-12-04T11:04:45.999Z</time>
      </trkpt>
      <trkpt lat="47.54885" lon="6.74487">
        <ele>444</ele>
        <time>2016-12-04T11:04:46.999Z</time>
      </trkpt>
      <trkpt lat="47.54882" lon="6.74492">
        <ele>444</ele>
        <time>2016-12-04T11:04:48.999Z</time>
      </trkpt>
      <trkpt lat="47.5488" lon="6.74495">
        <ele>444</ele>
        <time>2016-12-04T11:04:49.999Z</time>
      </trkpt>
      <trkpt lat="47.54878" lon="6.74498">
        <ele>444</ele>
        <time>2016-12-04T11:04:50.999Z</time>
      </trkpt>
      <trkpt lat="47.54876" lon="6.745">
        <ele>444</ele>
        <time>2016-12-04T11:04:51.999Z</time>
      </trkpt>
      <trkpt lat="47.54873" lon="6.74502">
        <ele>444</ele>
        <time>2016-12-04T11:04:53.999Z</time>
      </trkpt>
      <trkpt lat="47.5487" lon="6.74503">
        <ele>444</ele>
        <time>2016-12-04T11:04:54.999Z</time>
      </trkpt>
      <trkpt lat="47.54868" lon="6.74504">
        <ele>444</ele>
        <time>2016-12-04T11:04:55.999Z</time>
      </trkpt>
      <trkpt lat="47.54865" lon="6.74505">
        <ele>444</ele>
        <time>2016-12-04T11:04:56.999Z</time>
      </trkpt>
      <trkpt lat="47.54861" lon="6.74507">
        <ele>443</ele>
        <time>2016-12-04T11:04:58.999Z</time>
      </trkpt>
      <trkpt lat="47.54859" lon="6.74508">
        <ele>443</ele>
        <time>2016-12-04T11:04:59.999Z</time>
      </trkpt>
      <trkpt lat="47.54856" lon="6.74512">
        <ele>443</ele>
        <time>2016-12-04T11:05:01.999Z</time>
      </trkpt>
      <trkpt lat="47.54854" lon="6.74514">
        <ele>443</ele>
        <time>2016-12-04T11:05:02.999Z</time>
      </trkpt>
      <trkpt lat="47.5485" lon="6.74515">
        <ele>443</ele>
        <time>2016-12-04T11:05:04.999Z</time>
      </trkpt>
      <trkpt lat="47.54848" lon="6.74517">
        <ele>443</ele>
        <time>2016-12-04T11:05:05.999Z</time>
      </trkpt>
      <trkpt lat="47.54845" lon="6.7452">
        <ele>443</ele>
        <time>2016-12-04T11:05:07.999Z</time>
      </trkpt>
      <trkpt lat="47.54842" lon="6.74522">
        <ele>443</ele>
        <time>2016-12-04T11:05:08.999Z</time>
      </trkpt>
      <trkpt lat="47.54839" lon="6.74524">
        <ele>443</ele>
        <time>2016-12-04T11:05:09.999Z</time>
      </trkpt>
      <trkpt lat="47.54836" lon="6.74526">
        <ele>443</ele>
        <time>2016-12-04T11:05:10.999Z</time>
      </trkpt>
      <trkpt lat="47.54833" lon="6.74528">
        <ele>441</ele>
        <time>2016-12-04T11:05:11.999Z</time>
      </trkpt>
      <trkpt lat="47.5483" lon="6.7453">
        <ele>441</ele>
        <time>2016-12-04T11:05:12.999Z</time>
      </trkpt>
      <trkpt lat="47.54828" lon="6.74531">
        <ele>441</ele>
        <time>2016-12-04T11:05:13.999Z</time>
      </trkpt>
      <trkpt lat="47.54825" lon="6.74533">
        <ele>441</ele>
        <time>2016-12-04T11:05:14.999Z</time>
      </trkpt>
      <trkpt lat="47.54823" lon="6.74535">
        <ele>441</ele>
        <time>2016-12-04T11:05:15.999Z</time>
      </trkpt>
      <trkpt lat="47.5482" lon="6.74537">
        <ele>440</ele>
        <time>2016-12-04T11:05:16.999Z</time>
      </trkpt>
      <trkpt lat="47.54817" lon="6.74541">
        <ele>440</ele>
        <time>2016-12-04T11:05:19.999Z</time>
      </trkpt>
      <trkpt lat="47.54816" lon="6.74544">
        <ele>440</ele>
        <time>2016-12-04T11:05:20.999Z</time>
      </trkpt>
      <trkpt lat="47.54814" lon="6.74548">
        <ele>440</ele>
        <time>2016-12-04T11:05:21.999Z</time>
      </trkpt>
      <trkpt lat="47.54811" lon="6.74552">
        <ele>440</ele>
        <time>2016-12-04T11:05:22.999Z</time>
      </trkpt>
      <trkpt lat="47.54807" lon="6.74557">
        <ele>440</ele>
        <time>2016-12-04T11:05:23.999Z</time>
      </trkpt>
      <trkpt lat="47.54804" lon="6.74562">
        <ele>440</ele>
        <time>2016-12-04T11:05:24.999Z</time>
      </trkpt>
      <trkpt lat="47.54801" lon="6.74566">
        <ele>440</ele>
        <time>2016-12-04T11:05:25.999Z</time>
      </trkpt>
      <trkpt lat="47.54798" lon="6.7457">
        <ele>440</ele>
        <time>2016-12-04T11:05:26.999Z</time>
      </trkpt>
      <trkpt lat="47.54797" lon="6.74573">
        <ele>440</ele>
        <time>2016-12-04T11:05:27.999Z</time>
      </trkpt>
      <trkpt lat="47.54796" lon="6.74576">
        <ele>440</ele>
        <time>2016-12-04T11:05:28.999Z</time>
      </trkpt>
      <trkpt lat="47.54796" lon="6.7458">
        <ele>440</ele>
        <time>2016-12-04T11:05:29.999Z</time>
      </trkpt>
      <trkpt lat="47.54795" lon="6.74583">
        <ele>440</ele>
        <time>2016-12-04T11:05:30.999Z</time>
      </trkpt>
      <trkpt lat="47.54794" lon="6.74588">
        <ele>441</ele>
        <time>2016-12-04T11:05:31.999Z</time>
      </trkpt>
      <trkpt lat="47.54794" lon="6.74592">
        <ele>441</ele>
        <time>2016-12-04T11:05:32.999Z</time>
      </trkpt>
      <trkpt lat="47.54794" lon="6.74597">
        <ele>441</ele>
        <time>2016-12-04T11:05:33.999Z</time>
      </trkpt>
      <trkpt lat="47.54793" lon="6.74601">
        <ele>441</ele>
        <time>2016-12-04T11:05:34.999Z</time>
      </trkpt>
      <trkpt lat="47.54792" lon="6.74606">
        <ele>441</ele>
        <time>2016-12-04T11:05:35.999Z</time>
      </trkpt>
      <trkpt lat="47.5479" lon="6.74611">
        <ele>442</ele>
        <time>2016-12-04T11:05:37.999Z</time>
      </trkpt>
      <trkpt lat="47.5479" lon="6.74616">
        <ele>442</ele>
        <time>2016-12-04T11:05:38.999Z</time>
      </trkpt>
      <trkpt lat="47.54788" lon="6.74621">
        <ele>442</ele>
        <time>2016-12-04T11:05:39.999Z</time>
      </trkpt>
      <trkpt lat="47.54788" lon="6.74623">
        <ele>442</ele>
        <time>2016-12-04T11:05:40.999Z</time>
      </trkpt>
      <trkpt lat="47.54789" lon="6.74626">
        <ele>442</ele>
        <time>2016-12-04T11:05:41.999Z</time>
      </trkpt>
      <trkpt lat="47.54789" lon="6.74632">
        <ele>442</ele>
        <time>2016-12-04T11:05:42.999Z</time>
      </trkpt>
      <trkpt lat="47.5479" lon="6.74638">
        <ele>442</ele>
        <time>2016-12-04T11:05:43.999Z</time>
      </trkpt>
      <trkpt lat="47.54791" lon="6.74646">
        <ele>442</ele>
        <time>2016-12-04T11:05:44.999Z</time>
      </trkpt>
      <trkpt lat="47.54792" lon="6.74652">
        <ele>442</ele>
        <time>2016-12-04T11:05:45.999Z</time>
      </trkpt>
      <trkpt lat="47.54792" lon="6.74656">
        <ele>442</ele>
        <time>2016-12-04T11:05:46.999Z</time>
      </trkpt>
      <trkpt lat="47.54791" lon="6.74659">
        <ele>442</ele>
        <time>2016-12-04T11:05:49.999Z</time>
      </trkpt>
      <trkpt lat="47.54791" lon="6.74663">
        <ele>442</ele>
        <time>2016-12-04T11:05:50.999Z</time>
      </trkpt>
      <trkpt lat="47.54791" lon="6.74669">
        <ele>444</ele>
        <time>2016-12-04T11:05:51.999Z</time>
      </trkpt>
      <trkpt lat="47.54791" lon="6.74675">
        <ele>444</ele>
        <time>2016-12-04T11:05:52.999Z</time>
      </trkpt>
      <trkpt lat="47.54791" lon="6.74681">
        <ele>444</ele>
        <time>2016-12-04T11:05:53.999Z</time>
      </trkpt>
      <trkpt lat="47.54791" lon="6.74686">
        <ele>444</ele>
        <time>2016-12-04T11:05:54.999Z</time>
      </trkpt>
      <trkpt lat="47.54792" lon="6.74691">
        <ele>444</ele>
        <time>2016-12-04T11:05:56.999Z</time>
      </trkpt>
      <trkpt lat="47.54791" lon="6.74693">
        <ele>444</ele>
        <time>2016-12-04T11:05:57.999Z</time>
      </trkpt>
      <trkpt lat="47.5479" lon="6.74697">
        <ele>444</ele>
        <time>2016-12-04T11:05:58.999Z</time>
      </trkpt>
      <trkpt lat="47.5479" lon="6.74701">
        <ele>444</ele>
        <time>2016-12-04T11:05:59.999Z</time>
      </trkpt>
      <trkpt lat="47.54791" lon="6.74705">
        <ele>444</ele>
        <time>2016-12-04T11:06:00.999Z</time>
      </trkpt>
      <trkpt lat="47.54793" lon="6.74709">
        <ele>444</ele>
        <time>2016-12-04T11:06:01.999Z</time>
      </trkpt>
      <trkpt lat="47.54795" lon="6.74714">
        <ele>444</ele>
        <time>2016-12-04T11:06:03.999Z</time>
      </trkpt>
      <trkpt lat="47.54796" lon="6.74716">
        <ele>444</ele>
        <time>2016-12-04T11:06:04.999Z</time>
      </trkpt>
      <trkpt lat="47.54796" lon="6.74721">
        <ele>444</ele>
        <time>2016-12-04T11:06:05.999Z</time>
      </trkpt>
      <trkpt lat="47.54797" lon="6.74726">
        <ele>444</ele>
        <time>2016-12-04T11:06:06.999Z</time>
      </trkpt>
      <trkpt lat="47.54797" lon="6.74731">
        <ele>445</ele>
        <time>2016-12-04T11:06:07.999Z</time>
      </trkpt>
      <trkpt lat="47.54798" lon="6.74733">
        <ele>445</ele>
        <time>2016-12-04T11:06:08.999Z</time>
      </trkpt>
      <trkpt lat="47.548" lon="6.74737">
        <ele>445</ele>
        <time>2016-12-04T11:06:09.999Z</time>
      </trkpt>
      <trkpt lat="47.548" lon="6.7474">
        <ele>445</ele>
        <time>2016-12-04T11:06:10.999Z</time>
      </trkpt>
      <trkpt lat="47.54801" lon="6.74745">
        <ele>445</ele>
        <time>2016-12-04T11:06:12.999Z</time>
      </trkpt>
      <trkpt lat="47.54801" lon="6.7475">
        <ele>445</ele>
        <time>2016-12-04T11:06:13.999Z</time>
      </trkpt>
      <trkpt lat="47.54801" lon="6.74755">
        <ele>446</ele>
        <time>2016-12-04T11:06:15.999Z</time>
      </trkpt>
      <trkpt lat="47.54801" lon="6.74758">
        <ele>446</ele>
        <time>2016-12-04T11:06:16.999Z</time>
      </trkpt>
      <trkpt lat="47.54802" lon="6.74762">
        <ele>446</ele>
        <time>2016-12-04T11:06:17.999Z</time>
      </trkpt>
      <trkpt lat="47.54802" lon="6.74765">
        <ele>446</ele>
        <time>2016-12-04T11:06:18.999Z</time>
      </trkpt>
      <trkpt lat="47.54803" lon="6.74771">
        <ele>446</ele>
        <time>2016-12-04T11:06:20.999Z</time>
      </trkpt>
      <trkpt lat="47.54804" lon="6.74773">
        <ele>446</ele>
        <time>2016-12-04T11:06:21.999Z</time>
      </trkpt>
      <trkpt lat="47.54805" lon="6.74778">
        <ele>446</ele>
        <time>2016-12-04T11:06:23.999Z</time>
      </trkpt>
      <trkpt lat="47.54806" lon="6.74781">
        <ele>446</ele>
        <time>2016-12-04T11:06:24.999Z</time>
      </trkpt>
      <trkpt lat="47.54808" lon="6.74785">
        <ele>446</ele>
        <time>2016-12-04T11:06:26.999Z</time>
      </trkpt>
      <trkpt lat="47.54809" lon="6.74787">
        <ele>446</ele>
        <time>2016-12-04T11:06:27.999Z</time>
      </trkpt>
      <trkpt lat="47.5481" lon="6.74791">
        <ele>446</ele>
        <time>2016-12-04T11:06:31.999Z</time>
      </trkpt>
      <trkpt lat="47.5481" lon="6.74793">
        <ele>446</ele>
        <time>2016-12-04T11:06:32.999Z</time>
      </trkpt>
      <trkpt lat="47.54811" lon="6.74797">
        <ele>446</ele>
        <time>2016-12-04T11:06:34.999Z</time>
      </trkpt>
      <trkpt lat="47.54812" lon="6.748">
        <ele>446</ele>
        <time>2016-12-04T11:06:35.999Z</time>
      </trkpt>
      <trkpt lat="47.54812" lon="6.74804">
        <ele>446</ele>
        <time>2016-12-04T11:06:37.999Z</time>
      </trkpt>
      <trkpt lat="47.54813" lon="6.74806">
        <ele>446</ele>
        <time>2016-12-04T11:06:38.999Z</time>
      </trkpt>
      <trkpt lat="47.54813" lon="6.74812">
        <ele>446</ele>
        <time>2016-12-04T11:06:40.999Z</time>
      </trkpt>
      <trkpt lat="47.54812" lon="6.74815">
        <ele>446</ele>
        <time>2016-12-04T11:06:41.999Z</time>
      </trkpt>
      <trkpt lat="47.54812" lon="6.74822">
        <ele>446</ele>
        <time>2016-12-04T11:06:45.999Z</time>
      </trkpt>
      <trkpt lat="47.54812" lon="6.74823">
        <ele>446</ele>
        <time>2016-12-04T11:06:46.999Z</time>
      </trkpt>
      <trkpt lat="47.54815" lon="6.74828">
        <ele>445</ele>
        <time>2016-12-04T11:06:49.999Z</time>
      </trkpt>
      <trkpt lat="47.54815" lon="6.74831">
        <ele>445</ele>
        <time>2016-12-04T11:06:50.999Z</time>
      </trkpt>
      <trkpt lat="47.54815" lon="6.74835">
        <ele>446</ele>
        <time>2016-12-04T11:06:51.999Z</time>
      </trkpt>
      <trkpt lat="47.54815" lon="6.74839">
        <ele>446</ele>
        <time>2016-12-04T11:06:52.999Z</time>
      </trkpt>
      <trkpt lat="47.54815" lon="6.74844">
        <ele>446</ele>
        <time>2016-12-04T11:06:54.999Z</time>
      </trkpt>
      <trkpt lat="47.54815" lon="6.74846">
        <ele>446</ele>
        <time>2016-12-04T11:06:55.999Z</time>
      </trkpt>
      <trkpt lat="47.54813" lon="6.74851">
        <ele>446</ele>
        <time>2016-12-04T11:07:00.999Z</time>
      </trkpt>
      <trkpt lat="47.54812" lon="6.74851">
        <ele>446</ele>
        <time>2016-12-04T11:07:01.999Z</time>
      </trkpt>
      <trkpt lat="47.54809" lon="6.74852">
        <ele>446</ele>
        <time>2016-12-04T11:07:06.999Z</time>
      </trkpt>
      <trkpt lat="47.54807" lon="6.74851">
        <ele>446</ele>
        <time>2016-12-04T11:07:07.999Z</time>
      </trkpt>
      <trkpt lat="47.54804" lon="6.7485">
        <ele>446</ele>
        <time>2016-12-04T11:07:08.999Z</time>
      </trkpt>
      <trkpt lat="47.54802" lon="6.74849">
        <ele>446</ele>
        <time>2016-12-04T11:07:09.999Z</time>
      </trkpt>
      <trkpt lat="47.54798" lon="6.7485">
        <ele>447</ele>
        <time>2016-12-04T11:07:12.999Z</time>
      </trkpt>
      <trkpt lat="47.54797" lon="6.74851">
        <ele>447</ele>
        <time>2016-12-04T11:07:13.999Z</time>
      </trkpt>
      <trkpt lat="47.54796" lon="6.74857">
        <ele>447</ele>
        <time>2016-12-04T11:07:43.999Z</time>
      </trkpt>
      <trkpt lat="47.54798" lon="6.74858">
        <ele>447</ele>
        <time>2016-12-04T11:07:44.999Z</time>
      </trkpt>
      <trkpt lat="47.548" lon="6.7486">
        <ele>447</ele>
        <time>2016-12-04T11:07:45.999Z</time>
      </trkpt>
      <trkpt lat="47.54802" lon="6.74863">
        <ele>447</ele>
        <time>2016-12-04T11:07:46.999Z</time>
      </trkpt>
      <trkpt lat="47.54803" lon="6.74866">
        <ele>447</ele>
        <time>2016-12-04T11:07:47.999Z</time>
      </trkpt>
      <trkpt lat="47.54805" lon="6.74872">
        <ele>446</ele>
        <time>2016-12-04T11:07:48.999Z</time>
      </trkpt>
      <trkpt lat="47.54806" lon="6.74877">
        <ele>446</ele>
        <time>2016-12-04T11:07:49.999Z</time>
      </trkpt>
      <trkpt lat="47.54807" lon="6.74881">
        <ele>446</ele>
        <time>2016-12-04T11:07:50.999Z</time>
      </trkpt>
      <trkpt lat="47.54808" lon="6.74887">
        <ele>446</ele>
        <time>2016-12-04T11:07:54.999Z</time>
      </trkpt>
      <trkpt lat="47.54808" lon="6.74892">
        <ele>446</ele>
        <time>2016-12-04T11:07:55.999Z</time>
      </trkpt>
      <trkpt lat="47.54808" lon="6.74896">
        <ele>446</ele>
        <time>2016-12-04T11:07:56.999Z</time>
      </trkpt>
      <trkpt lat="47.54808" lon="6.749">
        <ele>446</ele>
        <time>2016-12-04T11:07:57.999Z</time>
      </trkpt>
      <trkpt lat="47.54808" lon="6.74904">
        <ele>446</ele>
        <time>2016-12-04T11:07:59.999Z</time>
      </trkpt>
      <trkpt lat="47.54808" lon="6.74908">
        <ele>446</ele>
        <time>2016-12-04T11:08:00.999Z</time>
      </trkpt>
      <trkpt lat="47.54809" lon="6.74917">
        <ele>445</ele>
        <time>2016-12-04T11:08:01.999Z</time>
      </trkpt>
      <trkpt lat="47.54809" lon="6.74924">
        <ele>445</ele>
        <time>2016-12-04T11:08:03.999Z</time>
      </trkpt>
      <trkpt lat="47.54809" lon="6.74928">
        <ele>445</ele>
        <time>2016-12-04T11:08:04.999Z</time>
      </trkpt>
      <trkpt lat="47.54807" lon="6.74932">
        <ele>445</ele>
        <time>2016-12-04T11:08:07.999Z</time>
      </trkpt>
      <trkpt lat="47.54807" lon="6.74935">
        <ele>445</ele>
        <time>2016-12-04T11:08:08.999Z</time>
      </trkpt>
      <trkpt lat="47.54805" lon="6.74938">
        <ele>445</ele>
        <time>2016-12-04T11:08:10.999Z</time>
      </trkpt>
      <trkpt lat="47.54804" lon="6.7494">
        <ele>445</ele>
        <time>2016-12-04T11:08:11.999Z</time>
      </trkpt>
      <trkpt lat="47.54801" lon="6.74944">
        <ele>445</ele>
        <time>2016-12-04T11:08:13.999Z</time>
      </trkpt>
      <trkpt lat="47.548" lon="6.74945">
        <ele>445</ele>
        <time>2016-12-04T11:08:14.999Z</time>
      </trkpt>
      <trkpt lat="47.54797" lon="6.74946">
        <ele>445</ele>
        <time>2016-12-04T11:08:15.999Z</time>
      </trkpt>
      <trkpt lat="47.54795" lon="6.74949">
        <ele>445</ele>
        <time>2016-12-04T11:08:16.999Z</time>
      </trkpt>
      <trkpt lat="47.54792" lon="6.74951">
        <ele>445</ele>
        <time>2016-12-04T11:08:17.999Z</time>
      </trkpt>
      <trkpt lat="47.54791" lon="6.74953">
        <ele>445</ele>
        <time>2016-12-04T11:08:18.999Z</time>
      </trkpt>
      <trkpt lat="47.54788" lon="6.74955">
        <ele>446</ele>
        <time>2016-12-04T11:08:19.999Z</time>
      </trkpt>
      <trkpt lat="47.54785" lon="6.74956">
        <ele>446</ele>
        <time>2016-12-04T11:08:20.999Z</time>
      </trkpt>
      <trkpt lat="47.54783" lon="6.74958">
        <ele>446</ele>
        <time>2016-12-04T11:08:21.999Z</time>
      </trkpt>
      <trkpt lat="47.54781" lon="6.7496">
        <ele>446</ele>
        <time>2016-12-04T11:08:22.999Z</time>
      </trkpt>
      <trkpt lat="47.54777" lon="6.74964">
        <ele>446</ele>
        <time>2016-12-04T11:08:23.999Z</time>
      </trkpt>
      <trkpt lat="47.54775" lon="6.74967">
        <ele>446</ele>
        <time>2016-12-04T11:08:24.999Z</time>
      </trkpt>
      <trkpt lat="47.54772" lon="6.74971">
        <ele>446</ele>
        <time>2016-12-04T11:08:25.999Z</time>
      </trkpt>
      <trkpt lat="47.54768" lon="6.74974">
        <ele>446</ele>
        <time>2016-12-04T11:08:26.999Z</time>
      </trkpt>
      <trkpt lat="47.54766" lon="6.74976">
        <ele>447</ele>
        <time>2016-12-04T11:08:27.999Z</time>
      </trkpt>
      <trkpt lat="47.54762" lon="6.74978">
        <ele>447</ele>
        <time>2016-12-04T11:08:28.999Z</time>
      </trkpt>
      <trkpt lat="47.54759" lon="6.74981">
        <ele>447</ele>
        <time>2016-12-04T11:08:29.999Z</time>
      </trkpt>
      <trkpt lat="47.54756" lon="6.74983">
        <ele>447</ele>
        <time>2016-12-04T11:08:30.999Z</time>
      </trkpt>
      <trkpt lat="47.54753" lon="6.74985">
        <ele>447</ele>
        <time>2016-12-04T11:08:31.999Z</time>
      </trkpt>
      <trkpt lat="47.5475" lon="6.74985">
        <ele>450</ele>
        <time>2016-12-04T11:08:32.999Z</time>
      </trkpt>
      <trkpt lat="47.54747" lon="6.74986">
        <ele>450</ele>
        <time>2016-12-04T11:08:33.999Z</time>
      </trkpt>
      <trkpt lat="47.54745" lon="6.74987">
        <ele>450</ele>
        <time>2016-12-04T11:08:34.999Z</time>
      </trkpt>
      <trkpt lat="47.54742" lon="6.74989">
        <ele>450</ele>
        <time>2016-12-04T11:08:35.999Z</time>
      </trkpt>
      <trkpt lat="47.54739" lon="6.7499">
        <ele>450</ele>
        <time>2016-12-04T11:08:36.999Z</time>
      </trkpt>
      <trkpt lat="47.54736" lon="6.74991">
        <ele>450</ele>
        <time>2016-12-04T11:08:37.999Z</time>
      </trkpt>
      <trkpt lat="47.54734" lon="6.74991">
        <ele>450</ele>
        <time>2016-12-04T11:08:38.999Z</time>
      </trkpt>
      <trkpt lat="47.54731" lon="6.74991">
        <ele>450</ele>
        <time>2016-12-04T11:08:39.999Z</time>
      </trkpt>
      <trkpt lat="47.54729" lon="6.74992">
        <ele>451</ele>
        <time>2016-12-04T11:08:40.999Z</time>
      </trkpt>
      <trkpt lat="47.54726" lon="6.74993">
        <ele>451</ele>
        <time>2016-12-04T11:08:41.999Z</time>
      </trkpt>
      <trkpt lat="47.54724" lon="6.74993">
        <ele>451</ele>
        <time>2016-12-04T11:08:42.999Z</time>
      </trkpt>
      <trkpt lat="47.54722" lon="6.74994">
        <ele>451</ele>
        <time>2016-12-04T11:08:43.999Z</time>
      </trkpt>
      <trkpt lat="47.54719" lon="6.74994">
        <ele>451</ele>
        <time>2016-12-04T11:08:44.999Z</time>
      </trkpt>
      <trkpt lat="47.54717" lon="6.74994">
        <ele>451</ele>
        <time>2016-12-04T11:08:45.999Z</time>
      </trkpt>
      <trkpt lat="47.54714" lon="6.74996">
        <ele>451</ele>
        <time>2016-12-04T11:08:46.999Z</time>
      </trkpt>
      <trkpt lat="47.54712" lon="6.74997">
        <ele>451</ele>
        <time>2016-12-04T11:08:47.999Z</time>
      </trkpt>
      <trkpt lat="47.5471" lon="6.74999">
        <ele>451</ele>
        <time>2016-12-04T11:08:48.999Z</time>
      </trkpt>
      <trkpt lat="47.54708" lon="6.75001">
        <ele>452</ele>
        <time>2016-12-04T11:08:49.999Z</time>
      </trkpt>
      <trkpt lat="47.54706" lon="6.75003">
        <ele>452</ele>
        <time>2016-12-04T11:08:50.999Z</time>
      </trkpt>
      <trkpt lat="47.54704" lon="6.75006">
        <ele>452</ele>
        <time>2016-12-04T11:08:51.999Z</time>
      </trkpt>
      <trkpt lat="47.54703" lon="6.75008">
        <ele>452</ele>
        <time>2016-12-04T11:08:52.999Z</time>
      </trkpt>
      <trkpt lat="47.54701" lon="6.75011">
        <ele>452</ele>
        <time>2016-12-04T11:08:53.999Z</time>
      </trkpt>
      <trkpt lat="47.54699" lon="6.75013">
        <ele>452</ele>
        <time>2016-12-04T11:08:54.999Z</time>
      </trkpt>
      <trkpt lat="47.54696" lon="6.75015">
        <ele>452</ele>
        <time>2016-12-04T11:08:56.999Z</time>
      </trkpt>
      <trkpt lat="47.54693" lon="6.75017">
        <ele>452</ele>
        <time>2016-12-04T11:08:57.999Z</time>
      </trkpt>
      <trkpt lat="47.54689" lon="6.75018">
        <ele>453</ele>
        <time>2016-12-04T11:08:59.999Z</time>
      </trkpt>
      <trkpt lat="47.54687" lon="6.75019">
        <ele>453</ele>
        <time>2016-12-04T11:09:00.999Z</time>
      </trkpt>
      <trkpt lat="47.54684" lon="6.75021">
        <ele>453</ele>
        <time>2016-12-04T11:09:02.999Z</time>
      </trkpt>
      <trkpt lat="47.54682" lon="6.75021">
        <ele>453</ele>
        <time>2016-12-04T11:09:03.999Z</time>
      </trkpt>
      <trkpt lat="47.5468" lon="6.75021">
        <ele>453</ele>
        <time>2016-12-04T11:09:04.999Z</time>
      </trkpt>
      <trkpt lat="47.54677" lon="6.75021">
        <ele>453</ele>
        <time>2016-12-04T11:09:05.999Z</time>
      </trkpt>
      <trkpt lat="47.54674" lon="6.75021">
        <ele>453</ele>
        <time>2016-12-04T11:09:06.999Z</time>
      </trkpt>
      <trkpt lat="47.54673" lon="6.75022">
        <ele>453</ele>
        <time>2016-12-04T11:09:07.999Z</time>
      </trkpt>
      <trkpt lat="47.54669" lon="6.75024">
        <ele>453</ele>
        <time>2016-12-04T11:09:10.999Z</time>
      </trkpt>
      <trkpt lat="47.54667" lon="6.75025">
        <ele>453</ele>
        <time>2016-12-04T11:09:11.999Z</time>
      </trkpt>
      <trkpt lat="47.54663" lon="6.75026">
        <ele>457</ele>
        <time>2016-12-04T11:09:14.999Z</time>
      </trkpt>
      <trkpt lat="47.54661" lon="6.75026">
        <ele>457</ele>
        <time>2016-12-04T11:09:15.999Z</time>
      </trkpt>
      <trkpt lat="47.54658" lon="6.75026">
        <ele>457</ele>
        <time>2016-12-04T11:09:17.999Z</time>
      </trkpt>
      <trkpt lat="47.54656" lon="6.75027">
        <ele>457</ele>
        <time>2016-12-04T11:09:18.999Z</time>
      </trkpt>
      <trkpt lat="47.54652" lon="6.75029">
        <ele>458</ele>
        <time>2016-12-04T11:09:20.999Z</time>
      </trkpt>
      <trkpt lat="47.54651" lon="6.7503">
        <ele>458</ele>
        <time>2016-12-04T11:09:21.999Z</time>
      </trkpt>
      <trkpt lat="47.54647" lon="6.75032">
        <ele>458</ele>
        <time>2016-12-04T11:09:23.999Z</time>
      </trkpt>
      <trkpt lat="47.54645" lon="6.75033">
        <ele>458</ele>
        <time>2016-12-04T11:09:24.999Z</time>
      </trkpt>
      <trkpt lat="47.54641" lon="6.75034">
        <ele>458</ele>
        <time>2016-12-04T11:09:26.999Z</time>
      </trkpt>
      <trkpt lat="47.5464" lon="6.75034">
        <ele>458</ele>
        <time>2016-12-04T11:09:27.999Z</time>
      </trkpt>
      <trkpt lat="47.54636" lon="6.75037">
        <ele>459</ele>
        <time>2016-12-04T11:09:29.999Z</time>
      </trkpt>
      <trkpt lat="47.54635" lon="6.75038">
        <ele>459</ele>
        <time>2016-12-04T11:09:30.999Z</time>
      </trkpt>
      <trkpt lat="47.54632" lon="6.75041">
        <ele>459</ele>
        <time>2016-12-04T11:09:33.999Z</time>
      </trkpt>
      <trkpt lat="47.54631" lon="6.75042">
        <ele>459</ele>
        <time>2016-12-04T11:09:34.999Z</time>
      </trkpt>
      <trkpt lat="47.54627" lon="6.75044">
        <ele>459</ele>
        <time>2016-12-04T11:09:36.999Z</time>
      </trkpt>
      <trkpt lat="47.54625" lon="6.75046">
        <ele>459</ele>
        <time>2016-12-04T11:09:37.999Z</time>
      </trkpt>
      <trkpt lat="47.54621" lon="6.75048">
        <ele>460</ele>
        <time>2016-12-04T11:09:39.999Z</time>
      </trkpt>
      <trkpt lat="47.54619" lon="6.75049">
        <ele>460</ele>
        <time>2016-12-04T11:09:40.999Z</time>
      </trkpt>
      <trkpt lat="47.54615" lon="6.7505">
        <ele>460</ele>
        <time>2016-12-04T11:09:42.999Z</time>
      </trkpt>
      <trkpt lat="47.54614" lon="6.7505">
        <ele>460</ele>
        <time>2016-12-04T11:09:43.999Z</time>
      </trkpt>
      <trkpt lat="47.5461" lon="6.75052">
        <ele>460</ele>
        <time>2016-12-04T11:09:45.999Z</time>
      </trkpt>
      <trkpt lat="47.54608" lon="6.75053">
        <ele>460</ele>
        <time>2016-12-04T11:09:46.999Z</time>
      </trkpt>
      <trkpt lat="47.54605" lon="6.75055">
        <ele>460</ele>
        <time>2016-12-04T11:09:47.999Z</time>
      </trkpt>
      <trkpt lat="47.54603" lon="6.75055">
        <ele>460</ele>
        <time>2016-12-04T11:09:48.999Z</time>
      </trkpt>
      <trkpt lat="47.546" lon="6.75056">
        <ele>460</ele>
        <time>2016-12-04T11:09:50.999Z</time>
      </trkpt>
      <trkpt lat="47.54599" lon="6.75057">
        <ele>461</ele>
        <time>2016-12-04T11:09:51.999Z</time>
      </trkpt>
      <trkpt lat="47.54596" lon="6.75058">
        <ele>461</ele>
        <time>2016-12-04T11:09:52.999Z</time>
      </trkpt>
      <trkpt lat="47.54593" lon="6.75059">
        <ele>461</ele>
        <time>2016-12-04T11:09:53.999Z</time>
      </trkpt>
      <trkpt lat="47.54589" lon="6.75061">
        <ele>461</ele>
        <time>2016-12-04T11:09:55.999Z</time>
      </trkpt>
      <trkpt lat="47.54586" lon="6.75061">
        <ele>461</ele>
        <time>2016-12-04T11:09:56.999Z</time>
      </trkpt>
      <trkpt lat="47.54584" lon="6.75062">
        <ele>461</ele>
        <time>2016-12-04T11:09:57.999Z</time>
      </trkpt>
      <trkpt lat="47.54582" lon="6.75062">
        <ele>465</ele>
        <time>2016-12-04T11:09:58.999Z</time>
      </trkpt>
      <trkpt lat="47.54578" lon="6.75064">
        <ele>465</ele>
        <time>2016-12-04T11:10:00.999Z</time>
      </trkpt>
      <trkpt lat="47.54577" lon="6.75065">
        <ele>465</ele>
        <time>2016-12-04T11:10:01.999Z</time>
      </trkpt>
      <trkpt lat="47.54574" lon="6.7507">
        <ele>465</ele>
        <time>2016-12-04T11:10:04.999Z</time>
      </trkpt>
      <trkpt lat="47.54573" lon="6.75072">
        <ele>465</ele>
        <time>2016-12-04T11:10:05.999Z</time>
      </trkpt>
      <trkpt lat="47.5457" lon="6.75076">
        <ele>465</ele>
        <time>2016-12-04T11:10:09.999Z</time>
      </trkpt>
      <trkpt lat="47.54569" lon="6.75077">
        <ele>465</ele>
        <time>2016-12-04T11:10:10.999Z</time>
      </trkpt>
      <trkpt lat="47.54566" lon="6.7508">
        <ele>465</ele>
        <time>2016-12-04T11:10:12.999Z</time>
      </trkpt>
      <trkpt lat="47.54564" lon="6.75081">
        <ele>465</ele>
        <time>2016-12-04T11:10:13.999Z</time>
      </trkpt>
      <trkpt lat="47.5456" lon="6.75083">
        <ele>465</ele>
        <time>2016-12-04T11:10:15.999Z</time>
      </trkpt>
      <trkpt lat="47.54558" lon="6.75084">
        <ele>466</ele>
        <time>2016-12-04T11:10:16.999Z</time>
      </trkpt>
      <trkpt lat="47.54555" lon="6.75086">
        <ele>466</ele>
        <time>2016-12-04T11:10:18.999Z</time>
      </trkpt>
      <trkpt lat="47.54553" lon="6.75086">
        <ele>466</ele>
        <time>2016-12-04T11:10:19.999Z</time>
      </trkpt>
      <trkpt lat="47.5455" lon="6.75089">
        <ele>467</ele>
        <time>2016-12-04T11:10:21.999Z</time>
      </trkpt>
      <trkpt lat="47.54549" lon="6.75091">
        <ele>467</ele>
        <time>2016-12-04T11:10:22.999Z</time>
      </trkpt>
      <trkpt lat="47.54545" lon="6.75095">
        <ele>467</ele>
        <time>2016-12-04T11:10:25.999Z</time>
      </trkpt>
      <trkpt lat="47.54545" lon="6.75096">
        <ele>467</ele>
        <time>2016-12-04T11:10:26.999Z</time>
      </trkpt>
      <trkpt lat="47.54542" lon="6.75098">
        <ele>467</ele>
        <time>2016-12-04T11:10:28.999Z</time>
      </trkpt>
      <trkpt lat="47.54541" lon="6.751">
        <ele>467</ele>
        <time>2016-12-04T11:10:29.999Z</time>
      </trkpt>
      <trkpt lat="47.54538" lon="6.75103">
        <ele>467</ele>
        <time>2016-12-04T11:10:31.999Z</time>
      </trkpt>
      <trkpt lat="47.54537" lon="6.75105">
        <ele>467</ele>
        <time>2016-12-04T11:10:32.999Z</time>
      </trkpt>
      <trkpt lat="47.54534" lon="6.75108">
        <ele>468</ele>
        <time>2016-12-04T11:10:34.999Z</time>
      </trkpt>
      <trkpt lat="47.54532" lon="6.7511">
        <ele>468</ele>
        <time>2016-12-04T11:10:35.999Z</time>
      </trkpt>
      <trkpt lat="47.54529" lon="6.75112">
        <ele>468</ele>
        <time>2016-12-04T11:10:37.999Z</time>
      </trkpt>
      <trkpt lat="47.54528" lon="6.75113">
        <ele>468</ele>
        <time>2016-12-04T11:10:38.999Z</time>
      </trkpt>
      <trkpt lat="47.54526" lon="6.75117">
        <ele>468</ele>
        <time>2016-12-04T11:10:40.999Z</time>
      </trkpt>
      <trkpt lat="47.54524" lon="6.75118">
        <ele>468</ele>
        <time>2016-12-04T11:10:41.999Z</time>
      </trkpt>
      <trkpt lat="47.54521" lon="6.7512">
        <ele>468</ele>
        <time>2016-12-04T11:10:43.999Z</time>
      </trkpt>
      <trkpt lat="47.5452" lon="6.7512">
        <ele>468</ele>
        <time>2016-12-04T11:10:44.999Z</time>
      </trkpt>
      <trkpt lat="47.54516" lon="6.75122">
        <ele>468</ele>
        <time>2016-12-04T11:10:47.999Z</time>
      </trkpt>
      <trkpt lat="47.54515" lon="6.75123">
        <ele>468</ele>
        <time>2016-12-04T11:10:48.999Z</time>
      </trkpt>
      <trkpt lat="47.54512" lon="6.75125">
        <ele>468</ele>
        <time>2016-12-04T11:10:49.999Z</time>
      </trkpt>
      <trkpt lat="47.54511" lon="6.75126">
        <ele>468</ele>
        <time>2016-12-04T11:10:50.999Z</time>
      </trkpt>
      <trkpt lat="47.54508" lon="6.75127">
        <ele>468</ele>
        <time>2016-12-04T11:10:51.999Z</time>
      </trkpt>
      <trkpt lat="47.54506" lon="6.75127">
        <ele>468</ele>
        <time>2016-12-04T11:10:52.999Z</time>
      </trkpt>
      <trkpt lat="47.54504" lon="6.75127">
        <ele>468</ele>
        <time>2016-12-04T11:10:53.999Z</time>
      </trkpt>
      <trkpt lat="47.54501" lon="6.75126">
        <ele>468</ele>
        <time>2016-12-04T11:10:54.999Z</time>
      </trkpt>
      <trkpt lat="47.54498" lon="6.75128">
        <ele>470</ele>
        <time>2016-12-04T11:10:56.999Z</time>
      </trkpt>
      <trkpt lat="47.54496" lon="6.75131">
        <ele>470</ele>
        <time>2016-12-04T11:10:57.999Z</time>
      </trkpt>
      <trkpt lat="47.54495" lon="6.75134">
        <ele>470</ele>
        <time>2016-12-04T11:10:58.999Z</time>
      </trkpt>
      <trkpt lat="47.54494" lon="6.75136">
        <ele>470</ele>
        <time>2016-12-04T11:10:59.999Z</time>
      </trkpt>
      <trkpt lat="47.54492" lon="6.75142">
        <ele>470</ele>
        <time>2016-12-04T11:11:01.999Z</time>
      </trkpt>
      <trkpt lat="47.5449" lon="6.75145">
        <ele>470</ele>
        <time>2016-12-04T11:11:02.999Z</time>
      </trkpt>
      <trkpt lat="47.54488" lon="6.75147">
        <ele>470</ele>
        <time>2016-12-04T11:11:03.999Z</time>
      </trkpt>
      <trkpt lat="47.54486" lon="6.75149">
        <ele>470</ele>
        <time>2016-12-04T11:11:04.999Z</time>
      </trkpt>
      <trkpt lat="47.54484" lon="6.75151">
        <ele>470</ele>
        <time>2016-12-04T11:11:05.999Z</time>
      </trkpt>
      <trkpt lat="47.54482" lon="6.75153">
        <ele>470</ele>
        <time>2016-12-04T11:11:06.999Z</time>
      </trkpt>
      <trkpt lat="47.5448" lon="6.75155">
        <ele>470</ele>
        <time>2016-12-04T11:11:07.999Z</time>
      </trkpt>
      <trkpt lat="47.54478" lon="6.75158">
        <ele>470</ele>
        <time>2016-12-04T11:11:08.999Z</time>
      </trkpt>
      <trkpt lat="47.54476" lon="6.75159">
        <ele>470</ele>
        <time>2016-12-04T11:11:09.999Z</time>
      </trkpt>
      <trkpt lat="47.54473" lon="6.7516">
        <ele>471</ele>
        <time>2016-12-04T11:11:10.999Z</time>
      </trkpt>
      <trkpt lat="47.54471" lon="6.75162">
        <ele>471</ele>
        <time>2016-12-04T11:11:11.999Z</time>
      </trkpt>
      <trkpt lat="47.54467" lon="6.75163">
        <ele>471</ele>
        <time>2016-12-04T11:11:12.999Z</time>
      </trkpt>
      <trkpt lat="47.54463" lon="6.75165">
        <ele>471</ele>
        <time>2016-12-04T11:11:14.999Z</time>
      </trkpt>
      <trkpt lat="47.54461" lon="6.75167">
        <ele>470</ele>
        <time>2016-12-04T11:11:15.999Z</time>
      </trkpt>
      <trkpt lat="47.54459" lon="6.75169">
        <ele>470</ele>
        <time>2016-12-04T11:11:16.999Z</time>
      </trkpt>
      <trkpt lat="47.54457" lon="6.75171">
        <ele>471</ele>
        <time>2016-12-04T11:11:17.999Z</time>
      </trkpt>
      <trkpt lat="47.54453" lon="6.75173">
        <ele>471</ele>
        <time>2016-12-04T11:11:19.999Z</time>
      </trkpt>
      <trkpt lat="47.54452" lon="6.75176">
        <ele>471</ele>
        <time>2016-12-04T11:11:20.999Z</time>
      </trkpt>
      <trkpt lat="47.54449" lon="6.7518">
        <ele>471</ele>
        <time>2016-12-04T11:11:22.999Z</time>
      </trkpt>
      <trkpt lat="47.54447" lon="6.75181">
        <ele>471</ele>
        <time>2016-12-04T11:11:23.999Z</time>
      </trkpt>
      <trkpt lat="47.54442" lon="6.75181">
        <ele>471</ele>
        <time>2016-12-04T11:11:51.999Z</time>
      </trkpt>
      <trkpt lat="47.54442" lon="6.75181">
        <ele>471</ele>
        <time>2016-12-04T11:11:52.999Z</time>
      </trkpt>
      <trkpt lat="47.5444" lon="6.75187">
        <ele>471</ele>
        <time>2016-12-04T11:12:11.999Z</time>
      </trkpt>
      <trkpt lat="47.5444" lon="6.75188">
        <ele>471</ele>
        <time>2016-12-04T11:12:12.999Z</time>
      </trkpt>
      <trkpt lat="47.54437" lon="6.75192">
        <ele>471</ele>
        <time>2016-12-04T11:13:20.999Z</time>
      </trkpt>
      <trkpt lat="47.54436" lon="6.75194">
        <ele>471</ele>
        <time>2016-12-04T11:13:21.999Z</time>
      </trkpt>
      <trkpt lat="47.54432" lon="6.75198">
        <ele>471</ele>
        <time>2016-12-04T11:13:23.999Z</time>
      </trkpt>
      <trkpt lat="47.5443" lon="6.75199">
        <ele>471</ele>
        <time>2016-12-04T11:13:24.999Z</time>
      </trkpt>
      <trkpt lat="47.54427" lon="6.75201">
        <ele>471</ele>
        <time>2016-12-04T11:13:25.999Z</time>
      </trkpt>
      <trkpt lat="47.54424" lon="6.75203">
        <ele>471</ele>
        <time>2016-12-04T11:13:26.999Z</time>
      </trkpt>
      <trkpt lat="47.5442" lon="6.75205">
        <ele>471</ele>
        <time>2016-12-04T11:13:27.999Z</time>
      </trkpt>
      <trkpt lat="47.54418" lon="6.75208">
        <ele>471</ele>
        <time>2016-12-04T11:13:28.999Z</time>
      </trkpt>
      <trkpt lat="47.54416" lon="6.7521">
        <ele>469</ele>
        <time>2016-12-04T11:13:29.999Z</time>
      </trkpt>
      <trkpt lat="47.54411" lon="6.75212">
        <ele>469</ele>
        <time>2016-12-04T11:14:03.999Z</time>
      </trkpt>
      <trkpt lat="47.5441" lon="6.75212">
        <ele>469</ele>
        <time>2016-12-04T11:14:04.999Z</time>
      </trkpt>
      <trkpt lat="47.54406" lon="6.75212">
        <ele>469</ele>
        <time>2016-12-04T11:14:06.999Z</time>
      </trkpt>
      <trkpt lat="47.54404" lon="6.75213">
        <ele>469</ele>
        <time>2016-12-04T11:14:07.999Z</time>
      </trkpt>
      <trkpt lat="47.54402" lon="6.75215">
        <ele>469</ele>
        <time>2016-12-04T11:14:09.999Z</time>
      </trkpt>
      <trkpt lat="47.544" lon="6.75217">
        <ele>469</ele>
        <time>2016-12-04T11:14:10.999Z</time>
      </trkpt>
      <trkpt lat="47.54398" lon="6.75219">
        <ele>469</ele>
        <time>2016-12-04T11:14:11.999Z</time>
      </trkpt>
      <trkpt lat="47.54396" lon="6.75221">
        <ele>469</ele>
        <time>2016-12-04T11:14:12.999Z</time>
      </trkpt>
      <trkpt lat="47.54392" lon="6.75225">
        <ele>469</ele>
        <time>2016-12-04T11:14:13.999Z</time>
      </trkpt>
      <trkpt lat="47.54391" lon="6.75228">
        <ele>469</ele>
        <time>2016-12-04T11:14:14.999Z</time>
      </trkpt>
      <trkpt lat="47.54389" lon="6.75231">
        <ele>469</ele>
        <time>2016-12-04T11:14:15.999Z</time>
      </trkpt>
      <trkpt lat="47.54388" lon="6.75233">
        <ele>469</ele>
        <time>2016-12-04T11:14:16.999Z</time>
      </trkpt>
      <trkpt lat="47.54385" lon="6.75237">
        <ele>469</ele>
        <time>2016-12-04T11:14:17.999Z</time>
      </trkpt>
      <trkpt lat="47.54383" lon="6.75241">
        <ele>469</ele>
        <time>2016-12-04T11:14:18.999Z</time>
      </trkpt>
      <trkpt lat="47.5438" lon="6.75246">
        <ele>469</ele>
        <time>2016-12-04T11:14:19.999Z</time>
      </trkpt>
      <trkpt lat="47.54377" lon="6.7525">
        <ele>469</ele>
        <time>2016-12-04T11:14:20.999Z</time>
      </trkpt>
      <trkpt lat="47.54374" lon="6.75254">
        <ele>468</ele>
        <time>2016-12-04T11:14:21.999Z</time>
      </trkpt>
      <trkpt lat="47.54372" lon="6.75257">
        <ele>468</ele>
        <time>2016-12-04T11:14:22.999Z</time>
      </trkpt>
      <trkpt lat="47.5437" lon="6.7526">
        <ele>468</ele>
        <time>2016-12-04T11:14:23.999Z</time>
      </trkpt>
      <trkpt lat="47.54368" lon="6.75264">
        <ele>468</ele>
        <time>2016-12-04T11:14:24.999Z</time>
      </trkpt>
      <trkpt lat="47.54364" lon="6.75272">
        <ele>468</ele>
        <time>2016-12-04T11:14:25.999Z</time>
      </trkpt>
      <trkpt lat="47.54362" lon="6.75275">
        <ele>468</ele>
        <time>2016-12-04T11:14:26.999Z</time>
      </trkpt>
      <trkpt lat="47.5436" lon="6.75279">
        <ele>468</ele>
        <time>2016-12-04T11:14:27.999Z</time>
      </trkpt>
      <trkpt lat="47.54358" lon="6.75282">
        <ele>468</ele>
        <time>2016-12-04T11:14:28.999Z</time>
      </trkpt>
      <trkpt lat="47.54357" lon="6.75285">
        <ele>468</ele>
        <time>2016-12-04T11:14:29.999Z</time>
      </trkpt>
      <trkpt lat="47.54355" lon="6.7529">
        <ele>468</ele>
        <time>2016-12-04T11:14:31.999Z</time>
      </trkpt>
      <trkpt lat="47.54353" lon="6.75294">
        <ele>468</ele>
        <time>2016-12-04T11:14:32.999Z</time>
      </trkpt>
      <trkpt lat="47.5435" lon="6.75299">
        <ele>468</ele>
        <time>2016-12-04T11:14:33.999Z</time>
      </trkpt>
      <trkpt lat="47.54347" lon="6.75306">
        <ele>467</ele>
        <time>2016-12-04T11:14:34.999Z</time>
      </trkpt>
      <trkpt lat="47.54344" lon="6.75314">
        <ele>467</ele>
        <time>2016-12-04T11:14:35.999Z</time>
      </trkpt>
      <trkpt lat="47.54341" lon="6.75322">
        <ele>467</ele>
        <time>2016-12-04T11:14:36.999Z</time>
      </trkpt>
      <trkpt lat="47.54337" lon="6.75326">
        <ele>467</ele>
        <time>2016-12-04T11:14:37.999Z</time>
      </trkpt>
      <trkpt lat="47.54333" lon="6.75332">
        <ele>466</ele>
        <time>2016-12-04T11:14:38.999Z</time>
      </trkpt>
      <trkpt lat="47.54329" lon="6.75338">
        <ele>465</ele>
        <time>2016-12-04T11:14:39.999Z</time>
      </trkpt>
      <trkpt lat="47.54324" lon="6.75345">
        <ele>464</ele>
        <time>2016-12-04T11:14:40.999Z</time>
      </trkpt>
      <trkpt lat="47.54319" lon="6.75351">
        <ele>464</ele>
        <time>2016-12-04T11:14:41.999Z</time>
      </trkpt>
      <trkpt lat="47.54315" lon="6.75354">
        <ele>464</ele>
        <time>2016-12-04T11:14:42.999Z</time>
      </trkpt>
      <trkpt lat="47.54313" lon="6.75358">
        <ele>463</ele>
        <time>2016-12-04T11:14:43.999Z</time>
      </trkpt>
      <trkpt lat="47.5431" lon="6.75361">
        <ele>463</ele>
        <time>2016-12-04T11:14:44.999Z</time>
      </trkpt>
      <trkpt lat="47.54307" lon="6.75367">
        <ele>463</ele>
        <time>2016-12-04T11:14:45.999Z</time>
      </trkpt>
      <trkpt lat="47.54301" lon="6.75379">
        <ele>463</ele>
        <time>2016-12-04T11:14:46.999Z</time>
      </trkpt>
      <trkpt lat="47.54296" lon="6.75388">
        <ele>462</ele>
        <time>2016-12-04T11:14:47.999Z</time>
      </trkpt>
      <trkpt lat="47.54294" lon="6.75392">
        <ele>462</ele>
        <time>2016-12-04T11:14:48.999Z</time>
      </trkpt>
      <trkpt lat="47.54292" lon="6.75397">
        <ele>462</ele>
        <time>2016-12-04T11:14:49.999Z</time>
      </trkpt>
      <trkpt lat="47.54291" lon="6.75401">
        <ele>462</ele>
        <time>2016-12-04T11:14:50.999Z</time>
      </trkpt>
      <trkpt lat="47.54288" lon="6.75404">
        <ele>462</ele>
        <time>2016-12-04T11:14:51.999Z</time>
      </trkpt>
      <trkpt lat="47.54286" lon="6.75406">
        <ele>462</ele>
        <time>2016-12-04T11:14:52.999Z</time>
      </trkpt>
      <trkpt lat="47.54282" lon="6.7541">
        <ele>462</ele>
        <time>2016-12-04T11:14:53.999Z</time>
      </trkpt>
      <trkpt lat="47.5428" lon="6.75412">
        <ele>462</ele>
        <time>2016-12-04T11:14:54.999Z</time>
      </trkpt>
      <trkpt lat="47.54278" lon="6.75414">
        <ele>462</ele>
        <time>2016-12-04T11:14:55.999Z</time>
      </trkpt>
      <trkpt lat="47.54275" lon="6.75416">
        <ele>462</ele>
        <time>2016-12-04T11:14:57.999Z</time>
      </trkpt>
      <trkpt lat="47.54274" lon="6.75419">
        <ele>460</ele>
        <time>2016-12-04T11:14:58.999Z</time>
      </trkpt>
      <trkpt lat="47.54273" lon="6.75421">
        <ele>460</ele>
        <time>2016-12-04T11:14:59.999Z</time>
      </trkpt>
      <trkpt lat="47.5427" lon="6.75424">
        <ele>460</ele>
        <time>2016-12-04T11:15:00.999Z</time>
      </trkpt>
      <trkpt lat="47.54268" lon="6.75428">
        <ele>460</ele>
        <time>2016-12-04T11:15:01.999Z</time>
      </trkpt>
      <trkpt lat="47.54266" lon="6.75435">
        <ele>460</ele>
        <time>2016-12-04T11:15:02.999Z</time>
      </trkpt>
      <trkpt lat="47.54266" lon="6.7544">
        <ele>460</ele>
        <time>2016-12-04T11:15:03.999Z</time>
      </trkpt>
      <trkpt lat="47.54265" lon="6.75443">
        <ele>460</ele>
        <time>2016-12-04T11:15:04.999Z</time>
      </trkpt>
      <trkpt lat="47.54265" lon="6.75446">
        <ele>460</ele>
        <time>2016-12-04T11:15:05.999Z</time>
      </trkpt>
      <trkpt lat="47.54264" lon="6.75451">
        <ele>460</ele>
        <time>2016-12-04T11:15:06.999Z</time>
      </trkpt>
      <trkpt lat="47.54262" lon="6.75457">
        <ele>460</ele>
        <time>2016-12-04T11:15:07.999Z</time>
      </trkpt>
      <trkpt lat="47.54259" lon="6.75463">
        <ele>460</ele>
        <time>2016-12-04T11:15:08.999Z</time>
      </trkpt>
      <trkpt lat="47.54256" lon="6.75471">
        <ele>460</ele>
        <time>2016-12-04T11:15:09.999Z</time>
      </trkpt>
      <trkpt lat="47.54254" lon="6.75476">
        <ele>459</ele>
        <time>2016-12-04T11:15:10.999Z</time>
      </trkpt>
      <trkpt lat="47.5425" lon="6.75481">
        <ele>459</ele>
        <time>2016-12-04T11:15:11.999Z</time>
      </trkpt>
      <trkpt lat="47.54247" lon="6.75488">
        <ele>458</ele>
        <time>2016-12-04T11:15:12.999Z</time>
      </trkpt>
      <trkpt lat="47.54246" lon="6.75495">
        <ele>458</ele>
        <time>2016-12-04T11:15:13.999Z</time>
      </trkpt>
      <trkpt lat="47.54244" lon="6.75501">
        <ele>457</ele>
        <time>2016-12-04T11:15:14.999Z</time>
      </trkpt>
      <trkpt lat="47.54243" lon="6.75506">
        <ele>457</ele>
        <time>2016-12-04T11:15:15.999Z</time>
      </trkpt>
      <trkpt lat="47.54242" lon="6.7551">
        <ele>457</ele>
        <time>2016-12-04T11:15:16.999Z</time>
      </trkpt>
      <trkpt lat="47.54239" lon="6.75514">
        <ele>457</ele>
        <time>2016-12-04T11:15:17.999Z</time>
      </trkpt>
      <trkpt lat="47.54233" lon="6.75523">
        <ele>456</ele>
        <time>2016-12-04T11:15:18.999Z</time>
      </trkpt>
      <trkpt lat="47.54229" lon="6.75528">
        <ele>456</ele>
        <time>2016-12-04T11:15:19.999Z</time>
      </trkpt>
      <trkpt lat="47.54226" lon="6.75534">
        <ele>456</ele>
        <time>2016-12-04T11:15:20.999Z</time>
      </trkpt>
      <trkpt lat="47.54224" lon="6.75537">
        <ele>456</ele>
        <time>2016-12-04T11:15:22.999Z</time>
      </trkpt>
      <trkpt lat="47.54223" lon="6.75539">
        <ele>456</ele>
        <time>2016-12-04T11:15:23.999Z</time>
      </trkpt>
      <trkpt lat="47.54221" lon="6.75543">
        <ele>455</ele>
        <time>2016-12-04T11:15:25.999Z</time>
      </trkpt>
      <trkpt lat="47.5422" lon="6.7555">
        <ele>455</ele>
        <time>2016-12-04T11:15:26.999Z</time>
      </trkpt>
      <trkpt lat="47.54218" lon="6.75554">
        <ele>455</ele>
        <time>2016-12-04T11:15:27.999Z</time>
      </trkpt>
      <trkpt lat="47.54216" lon="6.75561">
        <ele>455</ele>
        <time>2016-12-04T11:15:28.999Z</time>
      </trkpt>
      <trkpt lat="47.54214" lon="6.75568">
        <ele>455</ele>
        <time>2016-12-04T11:15:29.999Z</time>
      </trkpt>
      <trkpt lat="47.54211" lon="6.75579">
        <ele>455</ele>
        <time>2016-12-04T11:15:30.999Z</time>
      </trkpt>
      <trkpt lat="47.5421" lon="6.75588">
        <ele>454</ele>
        <time>2016-12-04T11:15:31.999Z</time>
      </trkpt>
      <trkpt lat="47.54209" lon="6.75593">
        <ele>454</ele>
        <time>2016-12-04T11:15:32.999Z</time>
      </trkpt>
      <trkpt lat="47.54207" lon="6.75602">
        <ele>453</ele>
        <time>2016-12-04T11:15:33.999Z</time>
      </trkpt>
      <trkpt lat="47.54206" lon="6.75609">
        <ele>453</ele>
        <time>2016-12-04T11:15:34.999Z</time>
      </trkpt>
      <trkpt lat="47.54204" lon="6.75616">
        <ele>453</ele>
        <time>2016-12-04T11:15:35.999Z</time>
      </trkpt>
      <trkpt lat="47.54202" lon="6.75624">
        <ele>453</ele>
        <time>2016-12-04T11:15:36.999Z</time>
      </trkpt>
      <trkpt lat="47.54201" lon="6.75628">
        <ele>453</ele>
        <time>2016-12-04T11:15:37.999Z</time>
      </trkpt>
      <trkpt lat="47.542" lon="6.75632">
        <ele>453</ele>
        <time>2016-12-04T11:15:38.999Z</time>
      </trkpt>
      <trkpt lat="47.54198" lon="6.75638">
        <ele>453</ele>
        <time>2016-12-04T11:15:39.999Z</time>
      </trkpt>
      <trkpt lat="47.54195" lon="6.75649">
        <ele>452</ele>
        <time>2016-12-04T11:15:40.999Z</time>
      </trkpt>
      <trkpt lat="47.54193" lon="6.75657">
        <ele>452</ele>
        <time>2016-12-04T11:15:41.999Z</time>
      </trkpt>
      <trkpt lat="47.54192" lon="6.7566">
        <ele>452</ele>
        <time>2016-12-04T11:15:42.999Z</time>
      </trkpt>
      <trkpt lat="47.54191" lon="6.75665">
        <ele>452</ele>
        <time>2016-12-04T11:15:43.999Z</time>
      </trkpt>
      <trkpt lat="47.54189" lon="6.75669">
        <ele>451</ele>
        <time>2016-12-04T11:15:44.999Z</time>
      </trkpt>
      <trkpt lat="47.54188" lon="6.75674">
        <ele>451</ele>
        <time>2016-12-04T11:15:45.999Z</time>
      </trkpt>
      <trkpt lat="47.54186" lon="6.75679">
        <ele>451</ele>
        <time>2016-12-04T11:15:46.999Z</time>
      </trkpt>
      <trkpt lat="47.54185" lon="6.75685">
        <ele>451</ele>
        <time>2016-12-04T11:15:47.999Z</time>
      </trkpt>
      <trkpt lat="47.54185" lon="6.75691">
        <ele>450</ele>
        <time>2016-12-04T11:15:48.999Z</time>
      </trkpt>
      <trkpt lat="47.54183" lon="6.75701">
        <ele>450</ele>
        <time>2016-12-04T11:15:49.999Z</time>
      </trkpt>
      <trkpt lat="47.54181" lon="6.75714">
        <ele>450</ele>
        <time>2016-12-04T11:15:50.999Z</time>
      </trkpt>
      <trkpt lat="47.54178" lon="6.75725">
        <ele>450</ele>
        <time>2016-12-04T11:15:51.999Z</time>
      </trkpt>
      <trkpt lat="47.54176" lon="6.75735">
        <ele>450</ele>
        <time>2016-12-04T11:15:52.999Z</time>
      </trkpt>
      <trkpt lat="47.54175" lon="6.75743">
        <ele>449</ele>
        <time>2016-12-04T11:15:53.999Z</time>
      </trkpt>
      <trkpt lat="47.54174" lon="6.75751">
        <ele>448</ele>
        <time>2016-12-04T11:15:54.999Z</time>
      </trkpt>
      <trkpt lat="47.54172" lon="6.75755">
        <ele>448</ele>
        <time>2016-12-04T11:15:56.999Z</time>
      </trkpt>
      <trkpt lat="47.54171" lon="6.75757">
        <ele>448</ele>
        <time>2016-12-04T11:15:57.999Z</time>
      </trkpt>
      <trkpt lat="47.54169" lon="6.75761">
        <ele>448</ele>
        <time>2016-12-04T11:15:58.999Z</time>
      </trkpt>
      <trkpt lat="47.54168" lon="6.75767">
        <ele>447</ele>
        <time>2016-12-04T11:15:59.999Z</time>
      </trkpt>
      <trkpt lat="47.54167" lon="6.75772">
        <ele>445</ele>
        <time>2016-12-04T11:16:00.999Z</time>
      </trkpt>
      <trkpt lat="47.54166" lon="6.75777">
        <ele>445</ele>
        <time>2016-12-04T11:16:01.999Z</time>
      </trkpt>
      <trkpt lat="47.54164" lon="6.75783">
        <ele>444</ele>
        <time>2016-12-04T11:16:02.999Z</time>
      </trkpt>
      <trkpt lat="47.54162" lon="6.75789">
        <ele>444</ele>
        <time>2016-12-04T11:16:03.999Z</time>
      </trkpt>
      <trkpt lat="47.5416" lon="6.75792">
        <ele>444</ele>
        <time>2016-12-04T11:16:04.999Z</time>
      </trkpt>
      <trkpt lat="47.54157" lon="6.75795">
        <ele>444</ele>
        <time>2016-12-04T11:16:05.999Z</time>
      </trkpt>
      <trkpt lat="47.54154" lon="6.75797">
        <ele>443</ele>
        <time>2016-12-04T11:17:35.999Z</time>
      </trkpt>
      <trkpt lat="47.54153" lon="6.75799">
        <ele>443</ele>
        <time>2016-12-04T11:17:36.999Z</time>
      </trkpt>
      <trkpt lat="47.54152" lon="6.75801">
        <ele>443</ele>
        <time>2016-12-04T11:17:37.999Z</time>
      </trkpt>
      <trkpt lat="47.5415" lon="6.75807">
        <ele>443</ele>
        <time>2016-12-04T11:17:38.999Z</time>
      </trkpt>
      <trkpt lat="47.54149" lon="6.75812">
        <ele>443</ele>
        <time>2016-12-04T11:17:39.999Z</time>
      </trkpt>
      <trkpt lat="47.54147" lon="6.75816">
        <ele>443</ele>
        <time>2016-12-04T11:17:40.999Z</time>
      </trkpt>
      <trkpt lat="47.54145" lon="6.75821">
        <ele>443</ele>
        <time>2016-12-04T11:17:41.999Z</time>
      </trkpt>
      <trkpt lat="47.54144" lon="6.75826">
        <ele>443</ele>
        <time>2016-12-04T11:17:42.999Z</time>
      </trkpt>
      <trkpt lat="47.54144" lon="6.75831">
        <ele>443</ele>
        <time>2016-12-04T11:17:43.999Z</time>
      </trkpt>
      <trkpt lat="47.54144" lon="6.75835">
        <ele>441</ele>
        <time>2016-12-04T11:17:44.999Z</time>
      </trkpt>
      <trkpt lat="47.54142" lon="6.7584">
        <ele>440</ele>
        <time>2016-12-04T11:17:45.999Z</time>
      </trkpt>
      <trkpt lat="47.54137" lon="6.75848">
        <ele>440</ele>
        <time>2016-12-04T11:17:46.999Z</time>
      </trkpt>
      <trkpt lat="47.54135" lon="6.75856">
        <ele>440</ele>
        <time>2016-12-04T11:17:47.999Z</time>
      </trkpt>
      <trkpt lat="47.54134" lon="6.75864">
        <ele>439</ele>
        <time>2016-12-04T11:17:48.999Z</time>
      </trkpt>
      <trkpt lat="47.54134" lon="6.75867">
        <ele>439</ele>
        <time>2016-12-04T11:17:49.999Z</time>
      </trkpt>
      <trkpt lat="47.54134" lon="6.75871">
        <ele>439</ele>
        <time>2016-12-04T11:17:50.999Z</time>
      </trkpt>
      <trkpt lat="47.54135" lon="6.75877">
        <ele>439</ele>
        <time>2016-12-04T11:17:51.999Z</time>
      </trkpt>
      <trkpt lat="47.54135" lon="6.75883">
        <ele>439</ele>
        <time>2016-12-04T11:17:52.999Z</time>
      </trkpt>
      <trkpt lat="47.54135" lon="6.75889">
        <ele>439</ele>
        <time>2016-12-04T11:17:53.999Z</time>
      </trkpt>
      <trkpt lat="47.54136" lon="6.75893">
        <ele>439</ele>
        <time>2016-12-04T11:17:54.999Z</time>
      </trkpt>
      <trkpt lat="47.54139" lon="6.759">
        <ele>439</ele>
        <time>2016-12-04T11:17:55.999Z</time>
      </trkpt>
      <trkpt lat="47.54139" lon="6.75906">
        <ele>438</ele>
        <time>2016-12-04T11:17:56.999Z</time>
      </trkpt>
      <trkpt lat="47.54138" lon="6.75911">
        <ele>438</ele>
        <time>2016-12-04T11:17:57.999Z</time>
      </trkpt>
      <trkpt lat="47.54137" lon="6.75915">
        <ele>438</ele>
        <time>2016-12-04T11:17:58.999Z</time>
      </trkpt>
      <trkpt lat="47.54136" lon="6.7592">
        <ele>437</ele>
        <time>2016-12-04T11:17:59.999Z</time>
      </trkpt>
      <trkpt lat="47.54134" lon="6.7593">
        <ele>437</ele>
        <time>2016-12-04T11:18:00.999Z</time>
      </trkpt>
      <trkpt lat="47.54133" lon="6.75936">
        <ele>437</ele>
        <time>2016-12-04T11:18:01.999Z</time>
      </trkpt>
      <trkpt lat="47.54132" lon="6.75942">
        <ele>437</ele>
        <time>2016-12-04T11:18:02.999Z</time>
      </trkpt>
      <trkpt lat="47.54131" lon="6.75947">
        <ele>437</ele>
        <time>2016-12-04T11:18:03.999Z</time>
      </trkpt>
      <trkpt lat="47.5413" lon="6.7595">
        <ele>437</ele>
        <time>2016-12-04T11:18:04.999Z</time>
      </trkpt>
      <trkpt lat="47.5413" lon="6.75957">
        <ele>436</ele>
        <time>2016-12-04T11:18:05.999Z</time>
      </trkpt>
      <trkpt lat="47.54129" lon="6.75961">
        <ele>436</ele>
        <time>2016-12-04T11:18:06.999Z</time>
      </trkpt>
      <trkpt lat="47.54127" lon="6.75967">
        <ele>436</ele>
        <time>2016-12-04T11:18:07.999Z</time>
      </trkpt>
      <trkpt lat="47.54126" lon="6.75974">
        <ele>436</ele>
        <time>2016-12-04T11:18:08.999Z</time>
      </trkpt>
      <trkpt lat="47.54125" lon="6.75979">
        <ele>436</ele>
        <time>2016-12-04T11:18:09.999Z</time>
      </trkpt>
      <trkpt lat="47.54123" lon="6.75984">
        <ele>436</ele>
        <time>2016-12-04T11:18:10.999Z</time>
      </trkpt>
      <trkpt lat="47.54122" lon="6.75991">
        <ele>436</ele>
        <time>2016-12-04T11:18:11.999Z</time>
      </trkpt>
      <trkpt lat="47.5412" lon="6.75997">
        <ele>436</ele>
        <time>2016-12-04T11:18:12.999Z</time>
      </trkpt>
      <trkpt lat="47.54117" lon="6.76004">
        <ele>436</ele>
        <time>2016-12-04T11:18:13.999Z</time>
      </trkpt>
      <trkpt lat="47.54115" lon="6.7601">
        <ele>436</ele>
        <time>2016-12-04T11:18:14.999Z</time>
      </trkpt>
      <trkpt lat="47.54113" lon="6.76017">
        <ele>436</ele>
        <time>2016-12-04T11:18:15.999Z</time>
      </trkpt>
      <trkpt lat="47.54111" lon="6.76023">
        <ele>436</ele>
        <time>2016-12-04T11:18:16.999Z</time>
      </trkpt>
      <trkpt lat="47.54109" lon="6.76026">
        <ele>436</ele>
        <time>2016-12-04T11:18:17.999Z</time>
      </trkpt>
      <trkpt lat="47.54108" lon="6.76031">
        <ele>436</ele>
        <time>2016-12-04T11:18:18.999Z</time>
      </trkpt>
      <trkpt lat="47.54106" lon="6.76036">
        <ele>436</ele>
        <time>2016-12-04T11:18:19.999Z</time>
      </trkpt>
      <trkpt lat="47.54105" lon="6.76041">
        <ele>436</ele>
        <time>2016-12-04T11:18:20.999Z</time>
      </trkpt>
      <trkpt lat="47.54104" lon="6.76046">
        <ele>436</ele>
        <time>2016-12-04T11:18:21.999Z</time>
      </trkpt>
      <trkpt lat="47.54103" lon="6.7605">
        <ele>436</ele>
        <time>2016-12-04T11:18:22.999Z</time>
      </trkpt>
      <trkpt lat="47.54102" lon="6.76054">
        <ele>436</ele>
        <time>2016-12-04T11:18:23.999Z</time>
      </trkpt>
      <trkpt lat="47.54098" lon="6.76061">
        <ele>436</ele>
        <time>2016-12-04T11:18:24.999Z</time>
      </trkpt>
      <trkpt lat="47.54096" lon="6.76065">
        <ele>437</ele>
        <time>2016-12-04T11:18:25.999Z</time>
      </trkpt>
      <trkpt lat="47.54094" lon="6.76069">
        <ele>437</ele>
        <time>2016-12-04T11:18:26.999Z</time>
      </trkpt>
      <trkpt lat="47.54091" lon="6.76072">
        <ele>437</ele>
        <time>2016-12-04T11:18:28.999Z</time>
      </trkpt>
      <trkpt lat="47.5409" lon="6.76074">
        <ele>437</ele>
        <time>2016-12-04T11:18:29.999Z</time>
      </trkpt>
      <trkpt lat="47.5409" lon="6.7608">
        <ele>437</ele>
        <time>2016-12-04T11:18:31.999Z</time>
      </trkpt>
      <trkpt lat="47.54091" lon="6.76083">
        <ele>437</ele>
        <time>2016-12-04T11:18:32.999Z</time>
      </trkpt>
      <trkpt lat="47.54091" lon="6.76086">
        <ele>438</ele>
        <time>2016-12-04T11:18:33.999Z</time>
      </trkpt>
      <trkpt lat="47.54093" lon="6.76091">
        <ele>437</ele>
        <time>2016-12-04T11:18:34.999Z</time>
      </trkpt>
      <trkpt lat="47.54095" lon="6.76094">
        <ele>437</ele>
        <time>2016-12-04T11:18:35.999Z</time>
      </trkpt>
      <trkpt lat="47.54097" lon="6.76097">
        <ele>437</ele>
        <time>2016-12-04T11:18:36.999Z</time>
      </trkpt>
      <trkpt lat="47.54096" lon="6.76103">
        <ele>437</ele>
        <time>2016-12-04T11:18:39.999Z</time>
      </trkpt>
      <trkpt lat="47.54096" lon="6.76105">
        <ele>437</ele>
        <time>2016-12-04T11:18:40.999Z</time>
      </trkpt>
      <trkpt lat="47.54095" lon="6.7611">
        <ele>437</ele>
        <time>2016-12-04T11:18:42.999Z</time>
      </trkpt>
      <trkpt lat="47.54095" lon="6.76113">
        <ele>437</ele>
        <time>2016-12-04T11:18:43.999Z</time>
      </trkpt>
      <trkpt lat="47.54094" lon="6.76118">
        <ele>437</ele>
        <time>2016-12-04T11:18:44.999Z</time>
      </trkpt>
      <trkpt lat="47.54093" lon="6.76121">
        <ele>437</ele>
        <time>2016-12-04T11:18:45.999Z</time>
      </trkpt>
      <trkpt lat="47.54093" lon="6.76124">
        <ele>437</ele>
        <time>2016-12-04T11:18:46.999Z</time>
      </trkpt>
      <trkpt lat="47.54092" lon="6.76127">
        <ele>437</ele>
        <time>2016-12-04T11:18:47.999Z</time>
      </trkpt>
      <trkpt lat="47.5409" lon="6.76133">
        <ele>437</ele>
        <time>2016-12-04T11:18:49.999Z</time>
      </trkpt>
      <trkpt lat="47.54089" lon="6.76137">
        <ele>437</ele>
        <time>2016-12-04T11:18:50.999Z</time>
      </trkpt>
      <trkpt lat="47.54088" lon="6.76141">
        <ele>437</ele>
        <time>2016-12-04T11:18:51.999Z</time>
      </trkpt>
      <trkpt lat="47.54087" lon="6.76145">
        <ele>437</ele>
        <time>2016-12-04T11:18:52.999Z</time>
      </trkpt>
      <trkpt lat="47.54086" lon="6.76149">
        <ele>437</ele>
        <time>2016-12-04T11:18:53.999Z</time>
      </trkpt>
      <trkpt lat="47.54084" lon="6.76153">
        <ele>437</ele>
        <time>2016-12-04T11:18:54.999Z</time>
      </trkpt>
      <trkpt lat="47.54082" lon="6.76159">
        <ele>437</ele>
        <time>2016-12-04T11:18:56.999Z</time>
      </trkpt>
      <trkpt lat="47.5408" lon="6.76162">
        <ele>438</ele>
        <time>2016-12-04T11:18:57.999Z</time>
      </trkpt>
      <trkpt lat="47.54079" lon="6.76165">
        <ele>438</ele>
        <time>2016-12-04T11:18:58.999Z</time>
      </trkpt>
      <trkpt lat="47.54077" lon="6.7617">
        <ele>437</ele>
        <time>2016-12-04T11:18:59.999Z</time>
      </trkpt>
      <trkpt lat="47.54076" lon="6.76174">
        <ele>437</ele>
        <time>2016-12-04T11:19:01.999Z</time>
      </trkpt>
      <trkpt lat="47.54075" lon="6.76177">
        <ele>437</ele>
        <time>2016-12-04T11:19:02.999Z</time>
      </trkpt>
      <trkpt lat="47.54073" lon="6.76183">
        <ele>437</ele>
        <time>2016-12-04T11:19:03.999Z</time>
      </trkpt>
      <trkpt lat="47.54071" lon="6.76189">
        <ele>436</ele>
        <time>2016-12-04T11:19:04.999Z</time>
      </trkpt>
      <trkpt lat="47.5407" lon="6.76196">
        <ele>436</ele>
        <time>2016-12-04T11:19:05.999Z</time>
      </trkpt>
      <trkpt lat="47.54068" lon="6.76203">
        <ele>436</ele>
        <time>2016-12-04T11:19:06.999Z</time>
      </trkpt>
      <trkpt lat="47.54067" lon="6.7621">
        <ele>436</ele>
        <time>2016-12-04T11:19:07.999Z</time>
      </trkpt>
      <trkpt lat="47.54066" lon="6.76216">
        <ele>436</ele>
        <time>2016-12-04T11:19:08.999Z</time>
      </trkpt>
      <trkpt lat="47.54066" lon="6.76222">
        <ele>436</ele>
        <time>2016-12-04T11:19:09.999Z</time>
      </trkpt>
      <trkpt lat="47.54065" lon="6.76227">
        <ele>436</ele>
        <time>2016-12-04T11:19:10.999Z</time>
      </trkpt>
      <trkpt lat="47.54064" lon="6.76232">
        <ele>436</ele>
        <time>2016-12-04T11:19:11.999Z</time>
      </trkpt>
      <trkpt lat="47.54063" lon="6.76236">
        <ele>436</ele>
        <time>2016-12-04T11:19:12.999Z</time>
      </trkpt>
      <trkpt lat="47.54062" lon="6.76242">
        <ele>436</ele>
        <time>2016-12-04T11:19:13.999Z</time>
      </trkpt>
      <trkpt lat="47.54061" lon="6.76248">
        <ele>436</ele>
        <time>2016-12-04T11:19:14.999Z</time>
      </trkpt>
      <trkpt lat="47.5406" lon="6.76252">
        <ele>436</ele>
        <time>2016-12-04T11:19:15.999Z</time>
      </trkpt>
      <trkpt lat="47.54059" lon="6.76258">
        <ele>436</ele>
        <time>2016-12-04T11:19:16.999Z</time>
      </trkpt>
      <trkpt lat="47.54057" lon="6.76263">
        <ele>436</ele>
        <time>2016-12-04T11:19:17.999Z</time>
      </trkpt>
      <trkpt lat="47.54055" lon="6.76268">
        <ele>435</ele>
        <time>2016-12-04T11:19:18.999Z</time>
      </trkpt>
      <trkpt lat="47.54054" lon="6.76272">
        <ele>435</ele>
        <time>2016-12-04T11:19:19.999Z</time>
      </trkpt>
      <trkpt lat="47.54053" lon="6.76277">
        <ele>435</ele>
        <time>2016-12-04T11:19:20.999Z</time>
      </trkpt>
      <trkpt lat="47.54052" lon="6.76283">
        <ele>435</ele>
        <time>2016-12-04T11:19:21.999Z</time>
      </trkpt>
      <trkpt lat="47.54049" lon="6.7629">
        <ele>435</ele>
        <time>2016-12-04T11:19:22.999Z</time>
      </trkpt>
      <trkpt lat="47.54046" lon="6.76296">
        <ele>436</ele>
        <time>2016-12-04T11:19:23.999Z</time>
      </trkpt>
      <trkpt lat="47.54044" lon="6.76304">
        <ele>436</ele>
        <time>2016-12-04T11:19:24.999Z</time>
      </trkpt>
      <trkpt lat="47.54042" lon="6.76311">
        <ele>436</ele>
        <time>2016-12-04T11:19:25.999Z</time>
      </trkpt>
      <trkpt lat="47.54039" lon="6.76318">
        <ele>436</ele>
        <time>2016-12-04T11:19:26.999Z</time>
      </trkpt>
      <trkpt lat="47.54037" lon="6.76325">
        <ele>436</ele>
        <time>2016-12-04T11:19:27.999Z</time>
      </trkpt>
      <trkpt lat="47.54033" lon="6.76332">
        <ele>436</ele>
        <time>2016-12-04T11:19:28.999Z</time>
      </trkpt>
      <trkpt lat="47.5403" lon="6.76336">
        <ele>436</ele>
        <time>2016-12-04T11:19:29.999Z</time>
      </trkpt>
      <trkpt lat="47.54026" lon="6.76339">
        <ele>436</ele>
        <time>2016-12-04T11:19:30.999Z</time>
      </trkpt>
      <trkpt lat="47.54023" lon="6.76343">
        <ele>436</ele>
        <time>2016-12-04T11:19:31.999Z</time>
      </trkpt>
      <trkpt lat="47.54019" lon="6.76348">
        <ele>436</ele>
        <time>2016-12-04T11:19:32.999Z</time>
      </trkpt>
      <trkpt lat="47.54017" lon="6.76352">
        <ele>436</ele>
        <time>2016-12-04T11:19:33.999Z</time>
      </trkpt>
      <trkpt lat="47.54015" lon="6.76356">
        <ele>436</ele>
        <time>2016-12-04T11:19:34.999Z</time>
      </trkpt>
      <trkpt lat="47.54013" lon="6.76361">
        <ele>436</ele>
        <time>2016-12-04T11:19:35.999Z</time>
      </trkpt>
      <trkpt lat="47.5401" lon="6.76366">
        <ele>436</ele>
        <time>2016-12-04T11:19:36.999Z</time>
      </trkpt>
      <trkpt lat="47.54006" lon="6.76374">
        <ele>436</ele>
        <time>2016-12-04T11:19:37.999Z</time>
      </trkpt>
      <trkpt lat="47.54003" lon="6.76381">
        <ele>436</ele>
        <time>2016-12-04T11:19:38.999Z</time>
      </trkpt>
      <trkpt lat="47.53999" lon="6.76389">
        <ele>436</ele>
        <time>2016-12-04T11:19:39.999Z</time>
      </trkpt>
      <trkpt lat="47.53996" lon="6.76398">
        <ele>436</ele>
        <time>2016-12-04T11:19:40.999Z</time>
      </trkpt>
      <trkpt lat="47.53993" lon="6.76406">
        <ele>436</ele>
        <time>2016-12-04T11:19:41.999Z</time>
      </trkpt>
      <trkpt lat="47.5399" lon="6.76411">
        <ele>436</ele>
        <time>2016-12-04T11:19:42.999Z</time>
      </trkpt>
      <trkpt lat="47.53987" lon="6.76417">
        <ele>436</ele>
        <time>2016-12-04T11:19:43.999Z</time>
      </trkpt>
      <trkpt lat="47.53984" lon="6.76423">
        <ele>436</ele>
        <time>2016-12-04T11:19:44.999Z</time>
      </trkpt>
      <trkpt lat="47.53982" lon="6.76428">
        <ele>436</ele>
        <time>2016-12-04T11:19:45.999Z</time>
      </trkpt>
      <trkpt lat="47.53979" lon="6.76434">
        <ele>436</ele>
        <time>2016-12-04T11:19:46.999Z</time>
      </trkpt>
      <trkpt lat="47.53978" lon="6.7644">
        <ele>435</ele>
        <time>2016-12-04T11:19:47.999Z</time>
      </trkpt>
      <trkpt lat="47.53976" lon="6.76444">
        <ele>435</ele>
        <time>2016-12-04T11:19:48.999Z</time>
      </trkpt>
      <trkpt lat="47.53975" lon="6.7645">
        <ele>435</ele>
        <time>2016-12-04T11:19:49.999Z</time>
      </trkpt>
      <trkpt lat="47.53973" lon="6.76456">
        <ele>435</ele>
        <time>2016-12-04T11:19:50.999Z</time>
      </trkpt>
      <trkpt lat="47.53971" lon="6.76461">
        <ele>435</ele>
        <time>2016-12-04T11:19:51.999Z</time>
      </trkpt>
      <trkpt lat="47.53969" lon="6.76466">
        <ele>435</ele>
        <time>2016-12-04T11:19:52.999Z</time>
      </trkpt>
      <trkpt lat="47.53966" lon="6.76471">
        <ele>435</ele>
        <time>2016-12-04T11:19:53.999Z</time>
      </trkpt>
      <trkpt lat="47.53965" lon="6.76476">
        <ele>435</ele>
        <time>2016-12-04T11:19:54.999Z</time>
      </trkpt>
      <trkpt lat="47.53963" lon="6.7648">
        <ele>435</ele>
        <time>2016-12-04T11:19:55.999Z</time>
      </trkpt>
      <trkpt lat="47.53959" lon="6.76486">
        <ele>435</ele>
        <time>2016-12-04T11:19:56.999Z</time>
      </trkpt>
      <trkpt lat="47.53956" lon="6.76491">
        <ele>435</ele>
        <time>2016-12-04T11:19:57.999Z</time>
      </trkpt>
      <trkpt lat="47.53953" lon="6.76495">
        <ele>435</ele>
        <time>2016-12-04T11:19:58.999Z</time>
      </trkpt>
      <trkpt lat="47.5395" lon="6.76499">
        <ele>435</ele>
        <time>2016-12-04T11:19:59.999Z</time>
      </trkpt>
      <trkpt lat="47.53948" lon="6.76504">
        <ele>435</ele>
        <time>2016-12-04T11:20:00.999Z</time>
      </trkpt>
      <trkpt lat="47.53945" lon="6.76507">
        <ele>435</ele>
        <time>2016-12-04T11:20:01.999Z</time>
      </trkpt>
      <trkpt lat="47.53943" lon="6.76509">
        <ele>435</ele>
        <time>2016-12-04T11:20:02.999Z</time>
      </trkpt>
      <trkpt lat="47.53939" lon="6.76513">
        <ele>435</ele>
        <time>2016-12-04T11:20:03.999Z</time>
      </trkpt>
      <trkpt lat="47.53936" lon="6.76517">
        <ele>435</ele>
        <time>2016-12-04T11:20:04.999Z</time>
      </trkpt>
      <trkpt lat="47.53933" lon="6.76523">
        <ele>435</ele>
        <time>2016-12-04T11:20:05.999Z</time>
      </trkpt>
      <trkpt lat="47.53931" lon="6.76527">
        <ele>435</ele>
        <time>2016-12-04T11:20:06.999Z</time>
      </trkpt>
      <trkpt lat="47.53929" lon="6.7653">
        <ele>435</ele>
        <time>2016-12-04T11:20:07.999Z</time>
      </trkpt>
      <trkpt lat="47.53928" lon="6.76533">
        <ele>435</ele>
        <time>2016-12-04T11:20:08.999Z</time>
      </trkpt>
      <trkpt lat="47.53926" lon="6.76536">
        <ele>435</ele>
        <time>2016-12-04T11:20:09.999Z</time>
      </trkpt>
      <trkpt lat="47.53924" lon="6.7654">
        <ele>435</ele>
        <time>2016-12-04T11:20:10.999Z</time>
      </trkpt>
      <trkpt lat="47.53923" lon="6.76544">
        <ele>435</ele>
        <time>2016-12-04T11:20:11.999Z</time>
      </trkpt>
      <trkpt lat="47.53919" lon="6.76551">
        <ele>435</ele>
        <time>2016-12-04T11:20:12.999Z</time>
      </trkpt>
      <trkpt lat="47.53918" lon="6.76555">
        <ele>435</ele>
        <time>2016-12-04T11:20:13.999Z</time>
      </trkpt>
      <trkpt lat="47.53916" lon="6.76559">
        <ele>437</ele>
        <time>2016-12-04T11:20:14.999Z</time>
      </trkpt>
      <trkpt lat="47.53913" lon="6.76564">
        <ele>437</ele>
        <time>2016-12-04T11:20:15.999Z</time>
      </trkpt>
      <trkpt lat="47.53911" lon="6.76568">
        <ele>437</ele>
        <time>2016-12-04T11:20:16.999Z</time>
      </trkpt>
      <trkpt lat="47.5391" lon="6.76572">
        <ele>437</ele>
        <time>2016-12-04T11:20:17.999Z</time>
      </trkpt>
      <trkpt lat="47.53908" lon="6.76574">
        <ele>437</ele>
        <time>2016-12-04T11:20:18.999Z</time>
      </trkpt>
      <trkpt lat="47.53905" lon="6.76577">
        <ele>437</ele>
        <time>2016-12-04T11:20:19.999Z</time>
      </trkpt>
      <trkpt lat="47.53901" lon="6.7658">
        <ele>437</ele>
        <time>2016-12-04T11:20:20.999Z</time>
      </trkpt>
      <trkpt lat="47.53898" lon="6.76581">
        <ele>437</ele>
        <time>2016-12-04T11:20:21.999Z</time>
      </trkpt>
      <trkpt lat="47.53896" lon="6.76582">
        <ele>437</ele>
        <time>2016-12-04T11:20:22.999Z</time>
      </trkpt>
      <trkpt lat="47.53892" lon="6.76584">
        <ele>436</ele>
        <time>2016-12-04T11:20:23.999Z</time>
      </trkpt>
      <trkpt lat="47.53891" lon="6.76587">
        <ele>436</ele>
        <time>2016-12-04T11:20:24.999Z</time>
      </trkpt>
      <trkpt lat="47.53889" lon="6.76589">
        <ele>436</ele>
        <time>2016-12-04T11:20:25.999Z</time>
      </trkpt>
      <trkpt lat="47.53888" lon="6.76592">
        <ele>436</ele>
        <time>2016-12-04T11:20:26.999Z</time>
      </trkpt>
      <trkpt lat="47.53887" lon="6.76597">
        <ele>436</ele>
        <time>2016-12-04T11:20:27.999Z</time>
      </trkpt>
      <trkpt lat="47.53886" lon="6.766">
        <ele>436</ele>
        <time>2016-12-04T11:20:28.999Z</time>
      </trkpt>
      <trkpt lat="47.53884" lon="6.76606">
        <ele>436</ele>
        <time>2016-12-04T11:20:30.999Z</time>
      </trkpt>
      <trkpt lat="47.53883" lon="6.7661">
        <ele>436</ele>
        <time>2016-12-04T11:20:31.999Z</time>
      </trkpt>
      <trkpt lat="47.53882" lon="6.76613">
        <ele>436</ele>
        <time>2016-12-04T11:20:32.999Z</time>
      </trkpt>
      <trkpt lat="47.5388" lon="6.76617">
        <ele>436</ele>
        <time>2016-12-04T11:20:33.999Z</time>
      </trkpt>
      <trkpt lat="47.53878" lon="6.76621">
        <ele>436</ele>
        <time>2016-12-04T11:20:34.999Z</time>
      </trkpt>
      <trkpt lat="47.53876" lon="6.76625">
        <ele>436</ele>
        <time>2016-12-04T11:20:35.999Z</time>
      </trkpt>
      <trkpt lat="47.53874" lon="6.76628">
        <ele>435</ele>
        <time>2016-12-04T11:20:36.999Z</time>
      </trkpt>
      <trkpt lat="47.53871" lon="6.76632">
        <ele>435</ele>
        <time>2016-12-04T11:20:37.999Z</time>
      </trkpt>
      <trkpt lat="47.53869" lon="6.76637">
        <ele>435</ele>
        <time>2016-12-04T11:20:38.999Z</time>
      </trkpt>
      <trkpt lat="47.53867" lon="6.76641">
        <ele>435</ele>
        <time>2016-12-04T11:20:39.999Z</time>
      </trkpt>
      <trkpt lat="47.53864" lon="6.76645">
        <ele>435</ele>
        <time>2016-12-04T11:20:40.999Z</time>
      </trkpt>
      <trkpt lat="47.53861" lon="6.76649">
        <ele>435</ele>
        <time>2016-12-04T11:20:41.999Z</time>
      </trkpt>
      <trkpt lat="47.53858" lon="6.76654">
        <ele>435</ele>
        <time>2016-12-04T11:20:42.999Z</time>
      </trkpt>
      <trkpt lat="47.53855" lon="6.76658">
        <ele>435</ele>
        <time>2016-12-04T11:20:43.999Z</time>
      </trkpt>
      <trkpt lat="47.53853" lon="6.76662">
        <ele>435</ele>
        <time>2016-12-04T11:20:44.999Z</time>
      </trkpt>
      <trkpt lat="47.53851" lon="6.76663">
        <ele>435</ele>
        <time>2016-12-04T11:20:45.999Z</time>
      </trkpt>
      <trkpt lat="47.53849" lon="6.76665">
        <ele>435</ele>
        <time>2016-12-04T11:20:46.999Z</time>
      </trkpt>
      <trkpt lat="47.53846" lon="6.76666">
        <ele>435</ele>
        <time>2016-12-04T11:20:47.999Z</time>
      </trkpt>
      <trkpt lat="47.53843" lon="6.76669">
        <ele>434</ele>
        <time>2016-12-04T11:20:48.999Z</time>
      </trkpt>
      <trkpt lat="47.53841" lon="6.76671">
        <ele>434</ele>
        <time>2016-12-04T11:20:49.999Z</time>
      </trkpt>
      <trkpt lat="47.53839" lon="6.76674">
        <ele>434</ele>
        <time>2016-12-04T11:20:50.999Z</time>
      </trkpt>
      <trkpt lat="47.53837" lon="6.76678">
        <ele>434</ele>
        <time>2016-12-04T11:20:51.999Z</time>
      </trkpt>
      <trkpt lat="47.53834" lon="6.76682">
        <ele>434</ele>
        <time>2016-12-04T11:20:52.999Z</time>
      </trkpt>
      <trkpt lat="47.53832" lon="6.76686">
        <ele>433</ele>
        <time>2016-12-04T11:20:53.999Z</time>
      </trkpt>
      <trkpt lat="47.5383" lon="6.76691">
        <ele>432</ele>
        <time>2016-12-04T11:20:54.999Z</time>
      </trkpt>
      <trkpt lat="47.53827" lon="6.76695">
        <ele>432</ele>
        <time>2016-12-04T11:20:55.999Z</time>
      </trkpt>
      <trkpt lat="47.53824" lon="6.76701">
        <ele>432</ele>
        <time>2016-12-04T11:20:56.999Z</time>
      </trkpt>
      <trkpt lat="47.53823" lon="6.76706">
        <ele>432</ele>
        <time>2016-12-04T11:20:57.999Z</time>
      </trkpt>
      <trkpt lat="47.53821" lon="6.76712">
        <ele>432</ele>
        <time>2016-12-04T11:20:58.999Z</time>
      </trkpt>
      <trkpt lat="47.53819" lon="6.76719">
        <ele>432</ele>
        <time>2016-12-04T11:20:59.999Z</time>
      </trkpt>
      <trkpt lat="47.53817" lon="6.76726">
        <ele>432</ele>
        <time>2016-12-04T11:21:00.999Z</time>
      </trkpt>
      <trkpt lat="47.53813" lon="6.76735">
        <ele>431</ele>
        <time>2016-12-04T11:21:01.999Z</time>
      </trkpt>
      <trkpt lat="47.53809" lon="6.76742">
        <ele>431</ele>
        <time>2016-12-04T11:21:02.999Z</time>
      </trkpt>
      <trkpt lat="47.53806" lon="6.7675">
        <ele>431</ele>
        <time>2016-12-04T11:21:03.999Z</time>
      </trkpt>
      <trkpt lat="47.53804" lon="6.76758">
        <ele>429</ele>
        <time>2016-12-04T11:21:04.999Z</time>
      </trkpt>
      <trkpt lat="47.53801" lon="6.76766">
        <ele>428</ele>
        <time>2016-12-04T11:21:05.999Z</time>
      </trkpt>
      <trkpt lat="47.53798" lon="6.76774">
        <ele>428</ele>
        <time>2016-12-04T11:21:06.999Z</time>
      </trkpt>
      <trkpt lat="47.53796" lon="6.76783">
        <ele>428</ele>
        <time>2016-12-04T11:21:07.999Z</time>
      </trkpt>
      <trkpt lat="47.53794" lon="6.76792">
        <ele>427</ele>
        <time>2016-12-04T11:21:08.999Z</time>
      </trkpt>
      <trkpt lat="47.53792" lon="6.76803">
        <ele>427</ele>
        <time>2016-12-04T11:21:09.999Z</time>
      </trkpt>
      <trkpt lat="47.53792" lon="6.76812">
        <ele>427</ele>
        <time>2016-12-04T11:21:10.999Z</time>
      </trkpt>
      <trkpt lat="47.53791" lon="6.7682">
        <ele>427</ele>
        <time>2016-12-04T11:21:11.999Z</time>
      </trkpt>
      <trkpt lat="47.5379" lon="6.76829">
        <ele>426</ele>
        <time>2016-12-04T11:21:12.999Z</time>
      </trkpt>
      <trkpt lat="47.53789" lon="6.7684">
        <ele>424</ele>
        <time>2016-12-04T11:21:13.999Z</time>
      </trkpt>
      <trkpt lat="47.53788" lon="6.76851">
        <ele>424</ele>
        <time>2016-12-04T11:21:14.999Z</time>
      </trkpt>
      <trkpt lat="47.53788" lon="6.76864">
        <ele>424</ele>
        <time>2016-12-04T11:21:15.999Z</time>
      </trkpt>
      <trkpt lat="47.53789" lon="6.76875">
        <ele>424</ele>
        <time>2016-12-04T11:21:16.999Z</time>
      </trkpt>
      <trkpt lat="47.53789" lon="6.76882">
        <ele>424</ele>
        <time>2016-12-04T11:21:17.999Z</time>
      </trkpt>
      <trkpt lat="47.53789" lon="6.76888">
        <ele>424</ele>
        <time>2016-12-04T11:21:18.999Z</time>
      </trkpt>
      <trkpt lat="47.53788" lon="6.76896">
        <ele>424</ele>
        <time>2016-12-04T11:21:19.999Z</time>
      </trkpt>
      <trkpt lat="47.53789" lon="6.76905">
        <ele>423</ele>
        <time>2016-12-04T11:21:20.999Z</time>
      </trkpt>
      <trkpt lat="47.53789" lon="6.76914">
        <ele>423</ele>
        <time>2016-12-04T11:21:21.999Z</time>
      </trkpt>
      <trkpt lat="47.53789" lon="6.76924">
        <ele>422</ele>
        <time>2016-12-04T11:21:22.999Z</time>
      </trkpt>
      <trkpt lat="47.53789" lon="6.76935">
        <ele>422</ele>
        <time>2016-12-04T11:21:23.999Z</time>
      </trkpt>
      <trkpt lat="47.53789" lon="6.76947">
        <ele>422</ele>
        <time>2016-12-04T11:21:24.999Z</time>
      </trkpt>
      <trkpt lat="47.53788" lon="6.76957">
        <ele>422</ele>
        <time>2016-12-04T11:21:25.999Z</time>
      </trkpt>
      <trkpt lat="47.53787" lon="6.76967">
        <ele>422</ele>
        <time>2016-12-04T11:21:26.999Z</time>
      </trkpt>
      <trkpt lat="47.53786" lon="6.7698">
        <ele>421</ele>
        <time>2016-12-04T11:21:27.999Z</time>
      </trkpt>
      <trkpt lat="47.53785" lon="6.7699">
        <ele>421</ele>
        <time>2016-12-04T11:21:28.999Z</time>
      </trkpt>
      <trkpt lat="47.53784" lon="6.77">
        <ele>421</ele>
        <time>2016-12-04T11:21:29.999Z</time>
      </trkpt>
      <trkpt lat="47.53784" lon="6.77009">
        <ele>419</ele>
        <time>2016-12-04T11:21:30.999Z</time>
      </trkpt>
      <trkpt lat="47.53784" lon="6.77018">
        <ele>419</ele>
        <time>2016-12-04T11:21:31.999Z</time>
      </trkpt>
      <trkpt lat="47.53784" lon="6.77026">
        <ele>419</ele>
        <time>2016-12-04T11:21:32.999Z</time>
      </trkpt>
      <trkpt lat="47.53784" lon="6.77036">
        <ele>419</ele>
        <time>2016-12-04T11:21:33.999Z</time>
      </trkpt>
      <trkpt lat="47.53784" lon="6.77046">
        <ele>419</ele>
        <time>2016-12-04T11:21:34.999Z</time>
      </trkpt>
      <trkpt lat="47.53783" lon="6.7706">
        <ele>418</ele>
        <time>2016-12-04T11:21:35.999Z</time>
      </trkpt>
      <trkpt lat="47.53782" lon="6.77072">
        <ele>418</ele>
        <time>2016-12-04T11:21:36.999Z</time>
      </trkpt>
      <trkpt lat="47.53781" lon="6.77084">
        <ele>415</ele>
        <time>2016-12-04T11:21:37.999Z</time>
      </trkpt>
      <trkpt lat="47.53782" lon="6.77092">
        <ele>415</ele>
        <time>2016-12-04T11:21:38.999Z</time>
      </trkpt>
      <trkpt lat="47.53781" lon="6.77104">
        <ele>415</ele>
        <time>2016-12-04T11:21:39.999Z</time>
      </trkpt>
      <trkpt lat="47.53781" lon="6.77119">
        <ele>415</ele>
        <time>2016-12-04T11:21:40.999Z</time>
      </trkpt>
      <trkpt lat="47.5378" lon="6.7713">
        <ele>414</ele>
        <time>2016-12-04T11:21:41.999Z</time>
      </trkpt>
      <trkpt lat="47.53779" lon="6.77141">
        <ele>414</ele>
        <time>2016-12-04T11:21:42.999Z</time>
      </trkpt>
      <trkpt lat="47.53778" lon="6.77154">
        <ele>413</ele>
        <time>2016-12-04T11:21:43.999Z</time>
      </trkpt>
      <trkpt lat="47.53778" lon="6.77166">
        <ele>413</ele>
        <time>2016-12-04T11:21:44.999Z</time>
      </trkpt>
      <trkpt lat="47.53778" lon="6.77177">
        <ele>410</ele>
        <time>2016-12-04T11:21:45.999Z</time>
      </trkpt>
      <trkpt lat="47.53775" lon="6.77186">
        <ele>410</ele>
        <time>2016-12-04T11:21:46.999Z</time>
      </trkpt>
      <trkpt lat="47.53771" lon="6.77197">
        <ele>409</ele>
        <time>2016-12-04T11:21:47.999Z</time>
      </trkpt>
      <trkpt lat="47.53768" lon="6.77209">
        <ele>408</ele>
        <time>2016-12-04T11:21:48.999Z</time>
      </trkpt>
      <trkpt lat="47.53766" lon="6.77221">
        <ele>407</ele>
        <time>2016-12-04T11:21:49.999Z</time>
      </trkpt>
      <trkpt lat="47.53765" lon="6.77236">
        <ele>406</ele>
        <time>2016-12-04T11:21:50.999Z</time>
      </trkpt>
      <trkpt lat="47.53765" lon="6.7725">
        <ele>402</ele>
        <time>2016-12-04T11:21:51.999Z</time>
      </trkpt>
      <trkpt lat="47.53761" lon="6.77263">
        <ele>402</ele>
        <time>2016-12-04T11:21:52.999Z</time>
      </trkpt>
      <trkpt lat="47.53757" lon="6.77272">
        <ele>402</ele>
        <time>2016-12-04T11:21:53.999Z</time>
      </trkpt>
      <trkpt lat="47.53752" lon="6.77281">
        <ele>402</ele>
        <time>2016-12-04T11:21:54.999Z</time>
      </trkpt>
      <trkpt lat="47.53746" lon="6.77289">
        <ele>397</ele>
        <time>2016-12-04T11:21:55.999Z</time>
      </trkpt>
      <trkpt lat="47.53741" lon="6.773">
        <ele>396</ele>
        <time>2016-12-04T11:21:56.999Z</time>
      </trkpt>
      <trkpt lat="47.53735" lon="6.77311">
        <ele>396</ele>
        <time>2016-12-04T11:21:57.999Z</time>
      </trkpt>
      <trkpt lat="47.53728" lon="6.77318">
        <ele>396</ele>
        <time>2016-12-04T11:21:58.999Z</time>
      </trkpt>
      <trkpt lat="47.53721" lon="6.77325">
        <ele>396</ele>
        <time>2016-12-04T11:21:59.999Z</time>
      </trkpt>
      <trkpt lat="47.53714" lon="6.77331">
        <ele>395</ele>
        <time>2016-12-04T11:22:00.999Z</time>
      </trkpt>
      <trkpt lat="47.53706" lon="6.77335">
        <ele>391</ele>
        <time>2016-12-04T11:22:01.999Z</time>
      </trkpt>
      <trkpt lat="47.537" lon="6.77337">
        <ele>391</ele>
        <time>2016-12-04T11:22:02.999Z</time>
      </trkpt>
      <trkpt lat="47.53693" lon="6.77335">
        <ele>391</ele>
        <time>2016-12-04T11:22:03.999Z</time>
      </trkpt>
      <trkpt lat="47.53687" lon="6.77332">
        <ele>393</ele>
        <time>2016-12-04T11:22:04.999Z</time>
      </trkpt>
      <trkpt lat="47.53682" lon="6.77329">
        <ele>393</ele>
        <time>2016-12-04T11:22:05.999Z</time>
      </trkpt>
      <trkpt lat="47.53675" lon="6.77324">
        <ele>392</ele>
        <time>2016-12-04T11:22:06.999Z</time>
      </trkpt>
      <trkpt lat="47.5367" lon="6.77319">
        <ele>393</ele>
        <time>2016-12-04T11:22:07.999Z</time>
      </trkpt>
      <trkpt lat="47.53665" lon="6.77314">
        <ele>390</ele>
        <time>2016-12-04T11:22:08.999Z</time>
      </trkpt>
      <trkpt lat="47.53659" lon="6.77308">
        <ele>390</ele>
        <time>2016-12-04T11:22:09.999Z</time>
      </trkpt>
      <trkpt lat="47.53653" lon="6.77302">
        <ele>390</ele>
        <time>2016-12-04T11:22:10.999Z</time>
      </trkpt>
      <trkpt lat="47.53645" lon="6.77299">
        <ele>389</ele>
        <time>2016-12-04T11:22:11.999Z</time>
      </trkpt>
      <trkpt lat="47.53636" lon="6.77295">
        <ele>389</ele>
        <time>2016-12-04T11:22:12.999Z</time>
      </trkpt>
      <trkpt lat="47.53628" lon="6.77294">
        <ele>389</ele>
        <time>2016-12-04T11:22:13.999Z</time>
      </trkpt>
      <trkpt lat="47.53623" lon="6.77291">
        <ele>388</ele>
        <time>2016-12-04T11:22:14.999Z</time>
      </trkpt>
      <trkpt lat="47.53616" lon="6.77288">
        <ele>388</ele>
        <time>2016-12-04T11:22:15.999Z</time>
      </trkpt>
      <trkpt lat="47.53611" lon="6.77284">
        <ele>388</ele>
        <time>2016-12-04T11:22:16.999Z</time>
      </trkpt>
      <trkpt lat="47.53606" lon="6.77283">
        <ele>388</ele>
        <time>2016-12-04T11:22:17.999Z</time>
      </trkpt>
      <trkpt lat="47.53601" lon="6.77281">
        <ele>388</ele>
        <time>2016-12-04T11:22:18.999Z</time>
      </trkpt>
      <trkpt lat="47.53595" lon="6.77279">
        <ele>387</ele>
        <time>2016-12-04T11:22:19.999Z</time>
      </trkpt>
      <trkpt lat="47.53587" lon="6.77277">
        <ele>387</ele>
        <time>2016-12-04T11:22:20.999Z</time>
      </trkpt>
      <trkpt lat="47.53579" lon="6.77276">
        <ele>381</ele>
        <time>2016-12-04T11:22:21.999Z</time>
      </trkpt>
      <trkpt lat="47.53571" lon="6.77273">
        <ele>380</ele>
        <time>2016-12-04T11:22:22.999Z</time>
      </trkpt>
      <trkpt lat="47.53561" lon="6.77269">
        <ele>380</ele>
        <time>2016-12-04T11:22:23.999Z</time>
      </trkpt>
      <trkpt lat="47.5355" lon="6.77264">
        <ele>379</ele>
        <time>2016-12-04T11:22:24.999Z</time>
      </trkpt>
      <trkpt lat="47.53542" lon="6.77263">
        <ele>378</ele>
        <time>2016-12-04T11:22:25.999Z</time>
      </trkpt>
      <trkpt lat="47.53535" lon="6.7726">
        <ele>377</ele>
        <time>2016-12-04T11:22:26.999Z</time>
      </trkpt>
      <trkpt lat="47.53528" lon="6.77259">
        <ele>376</ele>
        <time>2016-12-04T11:22:27.999Z</time>
      </trkpt>
      <trkpt lat="47.53523" lon="6.7726">
        <ele>376</ele>
        <time>2016-12-04T11:22:28.999Z</time>
      </trkpt>
      <trkpt lat="47.53516" lon="6.7726">
        <ele>375</ele>
        <time>2016-12-04T11:22:29.999Z</time>
      </trkpt>
      <trkpt lat="47.53509" lon="6.77258">
        <ele>374</ele>
        <time>2016-12-04T11:22:30.999Z</time>
      </trkpt>
      <trkpt lat="47.53503" lon="6.77254">
        <ele>373</ele>
        <time>2016-12-04T11:22:31.999Z</time>
      </trkpt>
      <trkpt lat="47.53496" lon="6.77248">
        <ele>371</ele>
        <time>2016-12-04T11:22:32.999Z</time>
      </trkpt>
      <trkpt lat="47.53491" lon="6.77244">
        <ele>371</ele>
        <time>2016-12-04T11:22:33.999Z</time>
      </trkpt>
      <trkpt lat="47.53485" lon="6.77241">
        <ele>370</ele>
        <time>2016-12-04T11:22:34.999Z</time>
      </trkpt>
      <trkpt lat="47.53478" lon="6.77239">
        <ele>370</ele>
        <time>2016-12-04T11:22:35.999Z</time>
      </trkpt>
      <trkpt lat="47.5347" lon="6.77238">
        <ele>369</ele>
        <time>2016-12-04T11:22:36.999Z</time>
      </trkpt>
      <trkpt lat="47.53462" lon="6.77238">
        <ele>369</ele>
        <time>2016-12-04T11:22:37.999Z</time>
      </trkpt>
      <trkpt lat="47.53452" lon="6.77236">
        <ele>368</ele>
        <time>2016-12-04T11:22:38.999Z</time>
      </trkpt>
      <trkpt lat="47.53441" lon="6.77235">
        <ele>368</ele>
        <time>2016-12-04T11:22:39.999Z</time>
      </trkpt>
      <trkpt lat="47.53422" lon="6.7723">
        <ele>367</ele>
        <time>2016-12-04T11:22:40.999Z</time>
      </trkpt>
      <trkpt lat="47.53407" lon="6.77228">
        <ele>365</ele>
        <time>2016-12-04T11:22:41.999Z</time>
      </trkpt>
      <trkpt lat="47.53395" lon="6.77226">
        <ele>365</ele>
        <time>2016-12-04T11:22:42.999Z</time>
      </trkpt>
      <trkpt lat="47.53381" lon="6.77221">
        <ele>365</ele>
        <time>2016-12-04T11:22:43.999Z</time>
      </trkpt>
      <trkpt lat="47.53374" lon="6.7722">
        <ele>365</ele>
        <time>2016-12-04T11:22:44.999Z</time>
      </trkpt>
      <trkpt lat="47.53368" lon="6.77219">
        <ele>365</ele>
        <time>2016-12-04T11:22:45.999Z</time>
      </trkpt>
      <trkpt lat="47.53358" lon="6.77218">
        <ele>365</ele>
        <time>2016-12-04T11:22:46.999Z</time>
      </trkpt>
      <trkpt lat="47.53351" lon="6.77217">
        <ele>365</ele>
        <time>2016-12-04T11:22:47.999Z</time>
      </trkpt>
      <trkpt lat="47.53345" lon="6.77216">
        <ele>365</ele>
        <time>2016-12-04T11:22:48.999Z</time>
      </trkpt>
      <trkpt lat="47.5334" lon="6.77216">
        <ele>365</ele>
        <time>2016-12-04T11:22:49.999Z</time>
      </trkpt>
      <trkpt lat="47.53333" lon="6.77216">
        <ele>366</ele>
        <time>2016-12-04T11:22:50.999Z</time>
      </trkpt>
      <trkpt lat="47.53328" lon="6.77217">
        <ele>366</ele>
        <time>2016-12-04T11:22:51.999Z</time>
      </trkpt>
      <trkpt lat="47.5332" lon="6.77217">
        <ele>366</ele>
        <time>2016-12-04T11:22:52.999Z</time>
      </trkpt>
      <trkpt lat="47.53316" lon="6.77218">
        <ele>366</ele>
        <time>2016-12-04T11:22:53.999Z</time>
      </trkpt>
      <trkpt lat="47.53311" lon="6.7722">
        <ele>366</ele>
        <time>2016-12-04T11:22:54.999Z</time>
      </trkpt>
      <trkpt lat="47.53308" lon="6.7722">
        <ele>366</ele>
        <time>2016-12-04T11:22:55.999Z</time>
      </trkpt>
      <trkpt lat="47.53305" lon="6.77219">
        <ele>367</ele>
        <time>2016-12-04T11:22:56.999Z</time>
      </trkpt>
      <trkpt lat="47.53301" lon="6.77219">
        <ele>367</ele>
        <time>2016-12-04T11:22:57.999Z</time>
      </trkpt>
      <trkpt lat="47.53301" lon="6.77219">
        <ele>367</ele>
        <time>2016-12-04T11:23:02.999Z</time>
      </trkpt>
      <trkpt lat="47.53288" lon="6.77219">
        <ele>367</ele>
        <time>2016-12-04T11:23:03.999Z</time>
      </trkpt>
      <trkpt lat="47.53288" lon="6.77219">
        <ele>367</ele>
        <time>2016-12-04T11:23:04.999Z</time>
      </trkpt>
      <trkpt lat="47.53279" lon="6.7722">
        <ele>367</ele>
        <time>2016-12-04T11:23:05.999Z</time>
      </trkpt>
      <trkpt lat="47.53274" lon="6.77221">
        <ele>367</ele>
        <time>2016-12-04T11:23:06.999Z</time>
      </trkpt>
      <trkpt lat="47.53271" lon="6.77221">
        <ele>367</ele>
        <time>2016-12-04T11:23:07.999Z</time>
      </trkpt>
      <trkpt lat="47.53269" lon="6.77222">
        <ele>368</ele>
        <time>2016-12-04T11:23:08.999Z</time>
      </trkpt>
      <trkpt lat="47.53266" lon="6.77223">
        <ele>368</ele>
        <time>2016-12-04T11:23:09.999Z</time>
      </trkpt>
      <trkpt lat="47.53263" lon="6.77222">
        <ele>368</ele>
        <time>2016-12-04T11:23:11.999Z</time>
      </trkpt>
      <trkpt lat="47.5326" lon="6.77219">
        <ele>368</ele>
        <time>2016-12-04T11:23:12.999Z</time>
      </trkpt>
      <trkpt lat="47.53256" lon="6.77218">
        <ele>368</ele>
        <time>2016-12-04T11:23:14.999Z</time>
      </trkpt>
      <trkpt lat="47.53254" lon="6.77218">
        <ele>368</ele>
        <time>2016-12-04T11:23:15.999Z</time>
      </trkpt>
      <trkpt lat="47.5325" lon="6.77218">
        <ele>368</ele>
        <time>2016-12-04T11:23:17.999Z</time>
      </trkpt>
      <trkpt lat="47.53248" lon="6.77219">
        <ele>370</ele>
        <time>2016-12-04T11:23:18.999Z</time>
      </trkpt>
      <trkpt lat="47.53244" lon="6.7722">
        <ele>370</ele>
        <time>2016-12-04T11:23:19.999Z</time>
      </trkpt>
      <trkpt lat="47.53241" lon="6.77221">
        <ele>370</ele>
        <time>2016-12-04T11:23:20.999Z</time>
      </trkpt>
      <trkpt lat="47.53237" lon="6.77222">
        <ele>370</ele>
        <time>2016-12-04T11:23:21.999Z</time>
      </trkpt>
      <trkpt lat="47.53234" lon="6.77222">
        <ele>370</ele>
        <time>2016-12-04T11:23:22.999Z</time>
      </trkpt>
      <trkpt lat="47.53231" lon="6.77222">
        <ele>370</ele>
        <time>2016-12-04T11:23:23.999Z</time>
      </trkpt>
      <trkpt lat="47.53226" lon="6.77224">
        <ele>370</ele>
        <time>2016-12-04T11:23:24.999Z</time>
      </trkpt>
      <trkpt lat="47.53222" lon="6.77225">
        <ele>370</ele>
        <time>2016-12-04T11:23:25.999Z</time>
      </trkpt>
      <trkpt lat="47.53218" lon="6.77226">
        <ele>370</ele>
        <time>2016-12-04T11:23:26.999Z</time>
      </trkpt>
      <trkpt lat="47.53216" lon="6.77227">
        <ele>370</ele>
        <time>2016-12-04T11:23:27.999Z</time>
      </trkpt>
      <trkpt lat="47.53214" lon="6.77227">
        <ele>370</ele>
        <time>2016-12-04T11:23:28.999Z</time>
      </trkpt>
      <trkpt lat="47.53211" lon="6.77227">
        <ele>370</ele>
        <time>2016-12-04T11:23:29.999Z</time>
      </trkpt>
      <trkpt lat="47.53208" lon="6.77227">
        <ele>370</ele>
        <time>2016-12-04T11:23:31.999Z</time>
      </trkpt>
      <trkpt lat="47.53205" lon="6.77228">
        <ele>370</ele>
        <time>2016-12-04T11:23:32.999Z</time>
      </trkpt>
      <trkpt lat="47.53203" lon="6.77229">
        <ele>370</ele>
        <time>2016-12-04T11:23:33.999Z</time>
      </trkpt>
      <trkpt lat="47.532" lon="6.77229">
        <ele>370</ele>
        <time>2016-12-04T11:23:34.999Z</time>
      </trkpt>
      <trkpt lat="47.53197" lon="6.77228">
        <ele>370</ele>
        <time>2016-12-04T11:23:35.999Z</time>
      </trkpt>
      <trkpt lat="47.53194" lon="6.77227">
        <ele>370</ele>
        <time>2016-12-04T11:23:36.999Z</time>
      </trkpt>
      <trkpt lat="47.53192" lon="6.77228">
        <ele>370</ele>
        <time>2016-12-04T11:23:37.999Z</time>
      </trkpt>
      <trkpt lat="47.53189" lon="6.77228">
        <ele>370</ele>
        <time>2016-12-04T11:23:38.999Z</time>
      </trkpt>
      <trkpt lat="47.53186" lon="6.77227">
        <ele>370</ele>
        <time>2016-12-04T11:23:39.999Z</time>
      </trkpt>
      <trkpt lat="47.53183" lon="6.77227">
        <ele>370</ele>
        <time>2016-12-04T11:23:40.999Z</time>
      </trkpt>
      <trkpt lat="47.53179" lon="6.77227">
        <ele>370</ele>
        <time>2016-12-04T11:23:41.999Z</time>
      </trkpt>
      <trkpt lat="47.53177" lon="6.77229">
        <ele>370</ele>
        <time>2016-12-04T11:23:42.999Z</time>
      </trkpt>
      <trkpt lat="47.53173" lon="6.77231">
        <ele>370</ele>
        <time>2016-12-04T11:23:44.999Z</time>
      </trkpt>
      <trkpt lat="47.53171" lon="6.77231">
        <ele>370</ele>
        <time>2016-12-04T11:23:45.999Z</time>
      </trkpt>
      <trkpt lat="47.53169" lon="6.77231">
        <ele>370</ele>
        <time>2016-12-04T11:23:46.999Z</time>
      </trkpt>
      <trkpt lat="47.53166" lon="6.77232">
        <ele>370</ele>
        <time>2016-12-04T11:23:47.999Z</time>
      </trkpt>
      <trkpt lat="47.53163" lon="6.77232">
        <ele>370</ele>
        <time>2016-12-04T11:23:48.999Z</time>
      </trkpt>
      <trkpt lat="47.53161" lon="6.77233">
        <ele>370</ele>
        <time>2016-12-04T11:23:49.999Z</time>
      </trkpt>
      <trkpt lat="47.53159" lon="6.77234">
        <ele>370</ele>
        <time>2016-12-04T11:23:50.999Z</time>
      </trkpt>
      <trkpt lat="47.53156" lon="6.77234">
        <ele>370</ele>
        <time>2016-12-04T11:23:51.999Z</time>
      </trkpt>
      <trkpt lat="47.53152" lon="6.77234">
        <ele>370</ele>
        <time>2016-12-04T11:23:52.999Z</time>
      </trkpt>
      <trkpt lat="47.5315" lon="6.77234">
        <ele>370</ele>
        <time>2016-12-04T11:23:53.999Z</time>
      </trkpt>
      <trkpt lat="47.53147" lon="6.77233">
        <ele>370</ele>
        <time>2016-12-04T11:23:54.999Z</time>
      </trkpt>
      <trkpt lat="47.53144" lon="6.77233">
        <ele>370</ele>
        <time>2016-12-04T11:23:55.999Z</time>
      </trkpt>
      <trkpt lat="47.53141" lon="6.77233">
        <ele>370</ele>
        <time>2016-12-04T11:23:56.999Z</time>
      </trkpt>
      <trkpt lat="47.53138" lon="6.77232">
        <ele>370</ele>
        <time>2016-12-04T11:23:57.999Z</time>
      </trkpt>
      <trkpt lat="47.53132" lon="6.77232">
        <ele>370</ele>
        <time>2016-12-04T11:23:58.999Z</time>
      </trkpt>
      <trkpt lat="47.5312" lon="6.77234">
        <ele>370</ele>
        <time>2016-12-04T11:23:59.999Z</time>
      </trkpt>
      <trkpt lat="47.53111" lon="6.77234">
        <ele>370</ele>
        <time>2016-12-04T11:24:00.999Z</time>
      </trkpt>
      <trkpt lat="47.53102" lon="6.77234">
        <ele>370</ele>
        <time>2016-12-04T11:24:01.999Z</time>
      </trkpt>
      <trkpt lat="47.53092" lon="6.77233">
        <ele>370</ele>
        <time>2016-12-04T11:24:02.999Z</time>
      </trkpt>
      <trkpt lat="47.53087" lon="6.77233">
        <ele>370</ele>
        <time>2016-12-04T11:24:03.999Z</time>
      </trkpt>
      <trkpt lat="47.53082" lon="6.77232">
        <ele>370</ele>
        <time>2016-12-04T11:24:04.999Z</time>
      </trkpt>
      <trkpt lat="47.53076" lon="6.77232">
        <ele>370</ele>
        <time>2016-12-04T11:24:05.999Z</time>
      </trkpt>
      <trkpt lat="47.53072" lon="6.77232">
        <ele>370</ele>
        <time>2016-12-04T11:24:06.999Z</time>
      </trkpt>
      <trkpt lat="47.53068" lon="6.77231">
        <ele>371</ele>
        <time>2016-12-04T11:24:07.999Z</time>
      </trkpt>
      <trkpt lat="47.53065" lon="6.77231">
        <ele>371</ele>
        <time>2016-12-04T11:24:08.999Z</time>
      </trkpt>
      <trkpt lat="47.53061" lon="6.77231">
        <ele>371</ele>
        <time>2016-12-04T11:24:09.999Z</time>
      </trkpt>
      <trkpt lat="47.53058" lon="6.77231">
        <ele>371</ele>
        <time>2016-12-04T11:24:10.999Z</time>
      </trkpt>
      <trkpt lat="47.53053" lon="6.7723">
        <ele>371</ele>
        <time>2016-12-04T11:24:11.999Z</time>
      </trkpt>
      <trkpt lat="47.53049" lon="6.7723">
        <ele>371</ele>
        <time>2016-12-04T11:24:12.999Z</time>
      </trkpt>
      <trkpt lat="47.53045" lon="6.7723">
        <ele>371</ele>
        <time>2016-12-04T11:24:13.999Z</time>
      </trkpt>
      <trkpt lat="47.5304" lon="6.77231">
        <ele>371</ele>
        <time>2016-12-04T11:24:14.999Z</time>
      </trkpt>
      <trkpt lat="47.53036" lon="6.77231">
        <ele>371</ele>
        <time>2016-12-04T11:24:15.999Z</time>
      </trkpt>
      <trkpt lat="47.53032" lon="6.77231">
        <ele>371</ele>
        <time>2016-12-04T11:24:16.999Z</time>
      </trkpt>
      <trkpt lat="47.53029" lon="6.77232">
        <ele>371</ele>
        <time>2016-12-04T11:24:17.999Z</time>
      </trkpt>
      <trkpt lat="47.53025" lon="6.77232">
        <ele>371</ele>
        <time>2016-12-04T11:24:18.999Z</time>
      </trkpt>
      <trkpt lat="47.53021" lon="6.77232">
        <ele>371</ele>
        <time>2016-12-04T11:24:19.999Z</time>
      </trkpt>
      <trkpt lat="47.53016" lon="6.77232">
        <ele>371</ele>
        <time>2016-12-04T11:24:20.999Z</time>
      </trkpt>
      <trkpt lat="47.53013" lon="6.77232">
        <ele>371</ele>
        <time>2016-12-04T11:24:21.999Z</time>
      </trkpt>
      <trkpt lat="47.53009" lon="6.77232">
        <ele>371</ele>
        <time>2016-12-04T11:24:22.999Z</time>
      </trkpt>
      <trkpt lat="47.53005" lon="6.77233">
        <ele>371</ele>
        <time>2016-12-04T11:24:23.999Z</time>
      </trkpt>
      <trkpt lat="47.53002" lon="6.77235">
        <ele>371</ele>
        <time>2016-12-04T11:24:24.999Z</time>
      </trkpt>
      <trkpt lat="47.53" lon="6.77237">
        <ele>372</ele>
        <time>2016-12-04T11:24:25.999Z</time>
      </trkpt>
      <trkpt lat="47.52997" lon="6.77237">
        <ele>372</ele>
        <time>2016-12-04T11:24:26.999Z</time>
      </trkpt>
      <trkpt lat="47.52994" lon="6.77236">
        <ele>372</ele>
        <time>2016-12-04T11:24:27.999Z</time>
      </trkpt>
      <trkpt lat="47.52989" lon="6.77236">
        <ele>372</ele>
        <time>2016-12-04T11:24:28.999Z</time>
      </trkpt>
      <trkpt lat="47.52986" lon="6.77234">
        <ele>373</ele>
        <time>2016-12-04T11:24:29.999Z</time>
      </trkpt>
      <trkpt lat="47.52983" lon="6.77232">
        <ele>373</ele>
        <time>2016-12-04T11:24:30.999Z</time>
      </trkpt>
      <trkpt lat="47.52981" lon="6.77231">
        <ele>373</ele>
        <time>2016-12-04T11:24:31.999Z</time>
      </trkpt>
      <trkpt lat="47.52979" lon="6.77231">
        <ele>373</ele>
        <time>2016-12-04T11:24:32.999Z</time>
      </trkpt>
      <trkpt lat="47.52976" lon="6.77231">
        <ele>373</ele>
        <time>2016-12-04T11:24:34.999Z</time>
      </trkpt>
      <trkpt lat="47.52973" lon="6.77232">
        <ele>373</ele>
        <time>2016-12-04T11:24:35.999Z</time>
      </trkpt>
      <trkpt lat="47.52971" lon="6.77232">
        <ele>373</ele>
        <time>2016-12-04T11:24:36.999Z</time>
      </trkpt>
      <trkpt lat="47.52968" lon="6.77232">
        <ele>373</ele>
        <time>2016-12-04T11:24:37.999Z</time>
      </trkpt>
      <trkpt lat="47.52965" lon="6.77233">
        <ele>373</ele>
        <time>2016-12-04T11:24:38.999Z</time>
      </trkpt>
      <trkpt lat="47.52962" lon="6.77234">
        <ele>373</ele>
        <time>2016-12-04T11:24:39.999Z</time>
      </trkpt>
      <trkpt lat="47.52958" lon="6.77234">
        <ele>373</ele>
        <time>2016-12-04T11:24:43.999Z</time>
      </trkpt>
      <trkpt lat="47.5295" lon="6.77233">
        <ele>374</ele>
        <time>2016-12-04T11:24:44.999Z</time>
      </trkpt>
      <trkpt lat="47.52947" lon="6.77232">
        <ele>374</ele>
        <time>2016-12-04T11:24:45.999Z</time>
      </trkpt>
      <trkpt lat="47.52943" lon="6.77233">
        <ele>374</ele>
        <time>2016-12-04T11:24:46.999Z</time>
      </trkpt>
      <trkpt lat="47.5294" lon="6.77233">
        <ele>374</ele>
        <time>2016-12-04T11:24:47.999Z</time>
      </trkpt>
      <trkpt lat="47.52937" lon="6.77234">
        <ele>374</ele>
        <time>2016-12-04T11:24:48.999Z</time>
      </trkpt>
      <trkpt lat="47.52934" lon="6.77235">
        <ele>374</ele>
        <time>2016-12-04T11:24:50.999Z</time>
      </trkpt>
      <trkpt lat="47.52932" lon="6.77235">
        <ele>374</ele>
        <time>2016-12-04T11:24:51.999Z</time>
      </trkpt>
      <trkpt lat="47.52928" lon="6.77234">
        <ele>374</ele>
        <time>2016-12-04T11:24:53.999Z</time>
      </trkpt>
      <trkpt lat="47.52927" lon="6.77234">
        <ele>374</ele>
        <time>2016-12-04T11:24:54.999Z</time>
      </trkpt>
      <trkpt lat="47.52925" lon="6.77234">
        <ele>374</ele>
        <time>2016-12-04T11:24:55.999Z</time>
      </trkpt>
      <trkpt lat="47.52922" lon="6.77235">
        <ele>374</ele>
        <time>2016-12-04T11:24:56.999Z</time>
      </trkpt>
      <trkpt lat="47.52919" lon="6.77236">
        <ele>374</ele>
        <time>2016-12-04T11:24:57.999Z</time>
      </trkpt>
      <trkpt lat="47.52917" lon="6.77236">
        <ele>375</ele>
        <time>2016-12-04T11:24:58.999Z</time>
      </trkpt>
      <trkpt lat="47.52914" lon="6.77238">
        <ele>375</ele>
        <time>2016-12-04T11:24:59.999Z</time>
      </trkpt>
      <trkpt lat="47.52911" lon="6.77239">
        <ele>375</ele>
        <time>2016-12-04T11:25:00.999Z</time>
      </trkpt>
      <trkpt lat="47.52909" lon="6.7724">
        <ele>375</ele>
        <time>2016-12-04T11:25:01.999Z</time>
      </trkpt>
      <trkpt lat="47.52906" lon="6.77241">
        <ele>375</ele>
        <time>2016-12-04T11:25:02.999Z</time>
      </trkpt>
      <trkpt lat="47.52903" lon="6.77242">
        <ele>375</ele>
        <time>2016-12-04T11:25:04.999Z</time>
      </trkpt>
      <trkpt lat="47.52902" lon="6.77243">
        <ele>375</ele>
        <time>2016-12-04T11:25:05.999Z</time>
      </trkpt>
      <trkpt lat="47.52899" lon="6.77243">
        <ele>376</ele>
        <time>2016-12-04T11:25:07.999Z</time>
      </trkpt>
      <trkpt lat="47.52897" lon="6.77244">
        <ele>376</ele>
        <time>2016-12-04T11:25:08.999Z</time>
      </trkpt>
      <trkpt lat="47.52895" lon="6.77245">
        <ele>376</ele>
        <time>2016-12-04T11:25:11.999Z</time>
      </trkpt>
      <trkpt lat="47.52884" lon="6.77249">
        <ele>376</ele>
        <time>2016-12-04T11:25:12.999Z</time>
      </trkpt>
      <trkpt lat="47.52879" lon="6.7725">
        <ele>377</ele>
        <time>2016-12-04T11:25:13.999Z</time>
      </trkpt>
      <trkpt lat="47.52873" lon="6.7725">
        <ele>377</ele>
        <time>2016-12-04T11:25:14.999Z</time>
      </trkpt>
      <trkpt lat="47.52869" lon="6.77249">
        <ele>377</ele>
        <time>2016-12-04T11:25:15.999Z</time>
      </trkpt>
      <trkpt lat="47.52869" lon="6.77249">
        <ele>377</ele>
        <time>2016-12-04T11:25:16.999Z</time>
      </trkpt>
      <trkpt lat="47.52853" lon="6.7725">
        <ele>378</ele>
        <time>2016-12-04T11:25:17.999Z</time>
      </trkpt>
      <trkpt lat="47.52853" lon="6.7725">
        <ele>378</ele>
        <time>2016-12-04T11:25:19.999Z</time>
      </trkpt>
      <trkpt lat="47.52839" lon="6.77247">
        <ele>379</ele>
        <time>2016-12-04T11:25:20.999Z</time>
      </trkpt>
      <trkpt lat="47.52835" lon="6.77246">
        <ele>379</ele>
        <time>2016-12-04T11:25:33.999Z</time>
      </trkpt>
      <trkpt lat="47.52824" lon="6.77245">
        <ele>380</ele>
        <time>2016-12-04T11:25:34.999Z</time>
      </trkpt>
      <trkpt lat="47.52824" lon="6.77245">
        <ele>380</ele>
        <time>2016-12-04T11:25:37.999Z</time>
      </trkpt>
      <trkpt lat="47.52814" lon="6.77246">
        <ele>380</ele>
        <time>2016-12-04T11:25:38.999Z</time>
      </trkpt>
      <trkpt lat="47.52814" lon="6.77246">
        <ele>380</ele>
        <time>2016-12-04T11:25:41.999Z</time>
      </trkpt>
      <trkpt lat="47.52806" lon="6.77248">
        <ele>380</ele>
        <time>2016-12-04T11:25:42.999Z</time>
      </trkpt>
      <trkpt lat="47.52806" lon="6.77248">
        <ele>380</ele>
        <time>2016-12-04T11:25:47.999Z</time>
      </trkpt>
      <trkpt lat="47.52795" lon="6.77246">
        <ele>381</ele>
        <time>2016-12-04T11:25:48.999Z</time>
      </trkpt>
      <trkpt lat="47.52795" lon="6.77246">
        <ele>381</ele>
        <time>2016-12-04T11:25:53.999Z</time>
      </trkpt>
      <trkpt lat="47.52784" lon="6.77245">
        <ele>381</ele>
        <time>2016-12-04T11:25:54.999Z</time>
      </trkpt>
      <trkpt lat="47.52784" lon="6.77245">
        <ele>381</ele>
        <time>2016-12-04T11:26:00.999Z</time>
      </trkpt>
      <trkpt lat="47.5277" lon="6.77244">
        <ele>382</ele>
        <time>2016-12-04T11:26:01.999Z</time>
      </trkpt>
      <trkpt lat="47.5277" lon="6.77244">
        <ele>382</ele>
        <time>2016-12-04T11:26:07.999Z</time>
      </trkpt>
      <trkpt lat="47.52757" lon="6.77243">
        <ele>383</ele>
        <time>2016-12-04T11:26:08.999Z</time>
      </trkpt>
      <trkpt lat="47.52757" lon="6.77243">
        <ele>383</ele>
        <time>2016-12-04T11:26:14.999Z</time>
      </trkpt>
      <trkpt lat="47.52747" lon="6.77242">
        <ele>384</ele>
        <time>2016-12-04T11:26:15.999Z</time>
      </trkpt>
      <trkpt lat="47.52747" lon="6.77242">
        <ele>384</ele>
        <time>2016-12-04T11:26:23.999Z</time>
      </trkpt>
      <trkpt lat="47.52735" lon="6.77246">
        <ele>384</ele>
        <time>2016-12-04T11:26:24.999Z</time>
      </trkpt>
      <trkpt lat="47.52735" lon="6.77246">
        <ele>384</ele>
        <time>2016-12-04T11:26:31.999Z</time>
      </trkpt>
      <trkpt lat="47.52719" lon="6.77253">
        <ele>387</ele>
        <time>2016-12-04T11:26:32.999Z</time>
      </trkpt>
      <trkpt lat="47.52719" lon="6.77253">
        <ele>387</ele>
        <time>2016-12-04T11:26:41.999Z</time>
      </trkpt>
      <trkpt lat="47.52702" lon="6.77257">
        <ele>388</ele>
        <time>2016-12-04T11:26:42.999Z</time>
      </trkpt>
      <trkpt lat="47.52698" lon="6.77258">
        <ele>388</ele>
        <time>2016-12-04T11:26:43.999Z</time>
      </trkpt>
      <trkpt lat="47.52692" lon="6.7726">
        <ele>388</ele>
        <time>2016-12-04T11:26:44.999Z</time>
      </trkpt>
      <trkpt lat="47.52692" lon="6.7726">
        <ele>388</ele>
        <time>2016-12-04T11:26:49.999Z</time>
      </trkpt>
      <trkpt lat="47.52662" lon="6.77274">
        <ele>387</ele>
        <time>2016-12-04T11:26:50.999Z</time>
      </trkpt>
      <trkpt lat="47.52662" lon="6.77274">
        <ele>387</ele>
        <time>2016-12-04T11:26:58.999Z</time>
      </trkpt>
      <trkpt lat="47.52639" lon="6.77284">
        <ele>388</ele>
        <time>2016-12-04T11:26:59.999Z</time>
      </trkpt>
      <trkpt lat="47.52639" lon="6.77284">
        <ele>388</ele>
        <time>2016-12-04T11:27:00.999Z</time>
      </trkpt>
      <trkpt lat="47.52632" lon="6.77288">
        <ele>388</ele>
        <time>2016-12-04T11:27:01.999Z</time>
      </trkpt>
      <trkpt lat="47.52628" lon="6.7729">
        <ele>388</ele>
        <time>2016-12-04T11:27:02.999Z</time>
      </trkpt>
      <trkpt lat="47.52624" lon="6.77292">
        <ele>387</ele>
        <time>2016-12-04T11:27:03.999Z</time>
      </trkpt>
      <trkpt lat="47.52619" lon="6.77297">
        <ele>387</ele>
        <time>2016-12-04T11:27:04.999Z</time>
      </trkpt>
      <trkpt lat="47.52616" lon="6.77299">
        <ele>387</ele>
        <time>2016-12-04T11:27:05.999Z</time>
      </trkpt>
      <trkpt lat="47.52614" lon="6.773">
        <ele>387</ele>
        <time>2016-12-04T11:27:06.999Z</time>
      </trkpt>
      <trkpt lat="47.52609" lon="6.77301">
        <ele>387</ele>
        <time>2016-12-04T11:27:08.999Z</time>
      </trkpt>
      <trkpt lat="47.52607" lon="6.77302">
        <ele>387</ele>
        <time>2016-12-04T11:27:09.999Z</time>
      </trkpt>
      <trkpt lat="47.52604" lon="6.77304">
        <ele>387</ele>
        <time>2016-12-04T11:27:11.999Z</time>
      </trkpt>
      <trkpt lat="47.52602" lon="6.77304">
        <ele>387</ele>
        <time>2016-12-04T11:27:12.999Z</time>
      </trkpt>
      <trkpt lat="47.526" lon="6.77305">
        <ele>387</ele>
        <time>2016-12-04T11:27:13.999Z</time>
      </trkpt>
      <trkpt lat="47.52598" lon="6.77307">
        <ele>387</ele>
        <time>2016-12-04T11:27:14.999Z</time>
      </trkpt>
      <trkpt lat="47.52594" lon="6.77311">
        <ele>387</ele>
        <time>2016-12-04T11:27:16.999Z</time>
      </trkpt>
      <trkpt lat="47.52592" lon="6.77312">
        <ele>387</ele>
        <time>2016-12-04T11:27:17.999Z</time>
      </trkpt>
      <trkpt lat="47.52589" lon="6.77317">
        <ele>387</ele>
        <time>2016-12-04T11:27:19.999Z</time>
      </trkpt>
      <trkpt lat="47.52588" lon="6.77319">
        <ele>387</ele>
        <time>2016-12-04T11:27:20.999Z</time>
      </trkpt>
      <trkpt lat="47.52586" lon="6.77324">
        <ele>387</ele>
        <time>2016-12-04T11:27:21.999Z</time>
      </trkpt>
      <trkpt lat="47.52583" lon="6.77329">
        <ele>386</ele>
        <time>2016-12-04T11:27:22.999Z</time>
      </trkpt>
      <trkpt lat="47.52581" lon="6.77332">
        <ele>386</ele>
        <time>2016-12-04T11:27:23.999Z</time>
      </trkpt>
      <trkpt lat="47.52579" lon="6.77335">
        <ele>386</ele>
        <time>2016-12-04T11:27:24.999Z</time>
      </trkpt>
      <trkpt lat="47.52578" lon="6.77338">
        <ele>387</ele>
        <time>2016-12-04T11:27:25.999Z</time>
      </trkpt>
      <trkpt lat="47.52575" lon="6.77342">
        <ele>387</ele>
        <time>2016-12-04T11:27:26.999Z</time>
      </trkpt>
      <trkpt lat="47.5257" lon="6.77345">
        <ele>387</ele>
        <time>2016-12-04T11:27:27.999Z</time>
      </trkpt>
      <trkpt lat="47.52566" lon="6.77348">
        <ele>387</ele>
        <time>2016-12-04T11:27:28.999Z</time>
      </trkpt>
      <trkpt lat="47.52562" lon="6.77351">
        <ele>388</ele>
        <time>2016-12-04T11:27:29.999Z</time>
      </trkpt>
      <trkpt lat="47.52559" lon="6.77353">
        <ele>388</ele>
        <time>2016-12-04T11:27:30.999Z</time>
      </trkpt>
      <trkpt lat="47.52556" lon="6.77355">
        <ele>388</ele>
        <time>2016-12-04T11:27:31.999Z</time>
      </trkpt>
      <trkpt lat="47.52554" lon="6.77358">
        <ele>388</ele>
        <time>2016-12-04T11:27:32.999Z</time>
      </trkpt>
      <trkpt lat="47.5255" lon="6.7736">
        <ele>388</ele>
        <time>2016-12-04T11:27:33.999Z</time>
      </trkpt>
      <trkpt lat="47.52546" lon="6.77364">
        <ele>388</ele>
        <time>2016-12-04T11:27:34.999Z</time>
      </trkpt>
      <trkpt lat="47.52541" lon="6.77367">
        <ele>388</ele>
        <time>2016-12-04T11:27:35.999Z</time>
      </trkpt>
      <trkpt lat="47.52537" lon="6.7737">
        <ele>388</ele>
        <time>2016-12-04T11:27:36.999Z</time>
      </trkpt>
      <trkpt lat="47.52532" lon="6.77373">
        <ele>388</ele>
        <time>2016-12-04T11:27:37.999Z</time>
      </trkpt>
      <trkpt lat="47.52529" lon="6.77377">
        <ele>389</ele>
        <time>2016-12-04T11:27:38.999Z</time>
      </trkpt>
      <trkpt lat="47.52526" lon="6.7738">
        <ele>389</ele>
        <time>2016-12-04T11:27:39.999Z</time>
      </trkpt>
      <trkpt lat="47.52522" lon="6.77383">
        <ele>389</ele>
        <time>2016-12-04T11:27:40.999Z</time>
      </trkpt>
      <trkpt lat="47.52518" lon="6.77384">
        <ele>389</ele>
        <time>2016-12-04T11:27:41.999Z</time>
      </trkpt>
      <trkpt lat="47.52515" lon="6.77385">
        <ele>389</ele>
        <time>2016-12-04T11:27:42.999Z</time>
      </trkpt>
      <trkpt lat="47.52512" lon="6.77386">
        <ele>389</ele>
        <time>2016-12-04T11:27:43.999Z</time>
      </trkpt>
      <trkpt lat="47.52509" lon="6.77387">
        <ele>389</ele>
        <time>2016-12-04T11:27:44.999Z</time>
      </trkpt>
      <trkpt lat="47.52506" lon="6.77389">
        <ele>389</ele>
        <time>2016-12-04T11:27:45.999Z</time>
      </trkpt>
      <trkpt lat="47.52503" lon="6.77391">
        <ele>389</ele>
        <time>2016-12-04T11:27:46.999Z</time>
      </trkpt>
      <trkpt lat="47.525" lon="6.77392">
        <ele>391</ele>
        <time>2016-12-04T11:27:47.999Z</time>
      </trkpt>
      <trkpt lat="47.52497" lon="6.77393">
        <ele>391</ele>
        <time>2016-12-04T11:27:48.999Z</time>
      </trkpt>
      <trkpt lat="47.52494" lon="6.77394">
        <ele>391</ele>
        <time>2016-12-04T11:27:49.999Z</time>
      </trkpt>
      <trkpt lat="47.52491" lon="6.77395">
        <ele>391</ele>
        <time>2016-12-04T11:27:50.999Z</time>
      </trkpt>
      <trkpt lat="47.52489" lon="6.77396">
        <ele>391</ele>
        <time>2016-12-04T11:27:51.999Z</time>
      </trkpt>
      <trkpt lat="47.52486" lon="6.77398">
        <ele>391</ele>
        <time>2016-12-04T11:27:52.999Z</time>
      </trkpt>
      <trkpt lat="47.52484" lon="6.77399">
        <ele>391</ele>
        <time>2016-12-04T11:27:53.999Z</time>
      </trkpt>
      <trkpt lat="47.52481" lon="6.774">
        <ele>391</ele>
        <time>2016-12-04T11:27:54.999Z</time>
      </trkpt>
      <trkpt lat="47.52478" lon="6.77401">
        <ele>391</ele>
        <time>2016-12-04T11:27:55.999Z</time>
      </trkpt>
      <trkpt lat="47.52475" lon="6.77402">
        <ele>391</ele>
        <time>2016-12-04T11:27:56.999Z</time>
      </trkpt>
      <trkpt lat="47.52472" lon="6.77404">
        <ele>391</ele>
        <time>2016-12-04T11:27:57.999Z</time>
      </trkpt>
      <trkpt lat="47.5247" lon="6.77405">
        <ele>391</ele>
        <time>2016-12-04T11:27:58.999Z</time>
      </trkpt>
      <trkpt lat="47.52468" lon="6.77406">
        <ele>391</ele>
        <time>2016-12-04T11:27:59.999Z</time>
      </trkpt>
      <trkpt lat="47.52465" lon="6.77406">
        <ele>391</ele>
        <time>2016-12-04T11:28:00.999Z</time>
      </trkpt>
      <trkpt lat="47.52462" lon="6.77407">
        <ele>391</ele>
        <time>2016-12-04T11:28:01.999Z</time>
      </trkpt>
      <trkpt lat="47.5246" lon="6.77409">
        <ele>391</ele>
        <time>2016-12-04T11:28:02.999Z</time>
      </trkpt>
      <trkpt lat="47.52457" lon="6.7741">
        <ele>391</ele>
        <time>2016-12-04T11:28:03.999Z</time>
      </trkpt>
      <trkpt lat="47.52454" lon="6.77412">
        <ele>391</ele>
        <time>2016-12-04T11:28:04.999Z</time>
      </trkpt>
      <trkpt lat="47.52451" lon="6.77414">
        <ele>391</ele>
        <time>2016-12-04T11:28:05.999Z</time>
      </trkpt>
      <trkpt lat="47.52448" lon="6.77416">
        <ele>391</ele>
        <time>2016-12-04T11:28:06.999Z</time>
      </trkpt>
      <trkpt lat="47.52445" lon="6.77418">
        <ele>393</ele>
        <time>2016-12-04T11:28:07.999Z</time>
      </trkpt>
      <trkpt lat="47.52443" lon="6.77421">
        <ele>393</ele>
        <time>2016-12-04T11:28:08.999Z</time>
      </trkpt>
      <trkpt lat="47.5244" lon="6.77425">
        <ele>393</ele>
        <time>2016-12-04T11:28:09.999Z</time>
      </trkpt>
      <trkpt lat="47.52437" lon="6.77429">
        <ele>393</ele>
        <time>2016-12-04T11:28:11.999Z</time>
      </trkpt>
      <trkpt lat="47.52434" lon="6.77433">
        <ele>393</ele>
        <time>2016-12-04T11:28:12.999Z</time>
      </trkpt>
      <trkpt lat="47.52431" lon="6.77437">
        <ele>393</ele>
        <time>2016-12-04T11:28:13.999Z</time>
      </trkpt>
      <trkpt lat="47.52428" lon="6.7744">
        <ele>393</ele>
        <time>2016-12-04T11:28:14.999Z</time>
      </trkpt>
      <trkpt lat="47.52426" lon="6.77443">
        <ele>393</ele>
        <time>2016-12-04T11:28:15.999Z</time>
      </trkpt>
      <trkpt lat="47.52424" lon="6.77446">
        <ele>393</ele>
        <time>2016-12-04T11:28:16.999Z</time>
      </trkpt>
      <trkpt lat="47.52421" lon="6.77448">
        <ele>393</ele>
        <time>2016-12-04T11:28:17.999Z</time>
      </trkpt>
      <trkpt lat="47.52419" lon="6.7745">
        <ele>393</ele>
        <time>2016-12-04T11:28:18.999Z</time>
      </trkpt>
      <trkpt lat="47.52417" lon="6.77452">
        <ele>393</ele>
        <time>2016-12-04T11:28:19.999Z</time>
      </trkpt>
      <trkpt lat="47.52415" lon="6.77455">
        <ele>392</ele>
        <time>2016-12-04T11:28:20.999Z</time>
      </trkpt>
      <trkpt lat="47.52413" lon="6.77457">
        <ele>392</ele>
        <time>2016-12-04T11:28:21.999Z</time>
      </trkpt>
      <trkpt lat="47.52411" lon="6.77459">
        <ele>391</ele>
        <time>2016-12-04T11:28:22.999Z</time>
      </trkpt>
      <trkpt lat="47.52408" lon="6.77464">
        <ele>391</ele>
        <time>2016-12-04T11:28:25.999Z</time>
      </trkpt>
      <trkpt lat="47.52406" lon="6.77465">
        <ele>391</ele>
        <time>2016-12-04T11:28:26.999Z</time>
      </trkpt>
      <trkpt lat="47.52403" lon="6.77469">
        <ele>391</ele>
        <time>2016-12-04T11:28:28.999Z</time>
      </trkpt>
      <trkpt lat="47.52402" lon="6.77471">
        <ele>391</ele>
        <time>2016-12-04T11:28:29.999Z</time>
      </trkpt>
      <trkpt lat="47.52398" lon="6.77473">
        <ele>391</ele>
        <time>2016-12-04T11:28:31.999Z</time>
      </trkpt>
      <trkpt lat="47.52396" lon="6.77474">
        <ele>391</ele>
        <time>2016-12-04T11:28:32.999Z</time>
      </trkpt>
      <trkpt lat="47.52392" lon="6.77476">
        <ele>391</ele>
        <time>2016-12-04T11:28:34.999Z</time>
      </trkpt>
      <trkpt lat="47.5239" lon="6.77478">
        <ele>391</ele>
        <time>2016-12-04T11:28:35.999Z</time>
      </trkpt>
      <trkpt lat="47.52388" lon="6.7748">
        <ele>391</ele>
        <time>2016-12-04T11:28:36.999Z</time>
      </trkpt>
      <trkpt lat="47.52386" lon="6.77482">
        <ele>391</ele>
        <time>2016-12-04T11:28:37.999Z</time>
      </trkpt>
      <trkpt lat="47.52384" lon="6.77484">
        <ele>391</ele>
        <time>2016-12-04T11:28:38.999Z</time>
      </trkpt>
      <trkpt lat="47.52381" lon="6.77486">
        <ele>391</ele>
        <time>2016-12-04T11:28:39.999Z</time>
      </trkpt>
      <trkpt lat="47.52378" lon="6.77488">
        <ele>391</ele>
        <time>2016-12-04T11:28:40.999Z</time>
      </trkpt>
      <trkpt lat="47.52376" lon="6.77489">
        <ele>391</ele>
        <time>2016-12-04T11:28:41.999Z</time>
      </trkpt>
      <trkpt lat="47.52374" lon="6.7749">
        <ele>391</ele>
        <time>2016-12-04T11:28:42.999Z</time>
      </trkpt>
      <trkpt lat="47.52371" lon="6.77491">
        <ele>391</ele>
        <time>2016-12-04T11:28:43.999Z</time>
      </trkpt>
      <trkpt lat="47.52368" lon="6.77493">
        <ele>391</ele>
        <time>2016-12-04T11:28:45.999Z</time>
      </trkpt>
      <trkpt lat="47.52365" lon="6.77494">
        <ele>391</ele>
        <time>2016-12-04T11:28:46.999Z</time>
      </trkpt>
      <trkpt lat="47.52363" lon="6.77496">
        <ele>391</ele>
        <time>2016-12-04T11:28:47.999Z</time>
      </trkpt>
      <trkpt lat="47.52361" lon="6.77497">
        <ele>390</ele>
        <time>2016-12-04T11:28:48.999Z</time>
      </trkpt>
      <trkpt lat="47.52358" lon="6.77498">
        <ele>390</ele>
        <time>2016-12-04T11:28:49.999Z</time>
      </trkpt>
      <trkpt lat="47.52356" lon="6.77499">
        <ele>390</ele>
        <time>2016-12-04T11:28:50.999Z</time>
      </trkpt>
      <trkpt lat="47.52353" lon="6.77501">
        <ele>389</ele>
        <time>2016-12-04T11:28:51.999Z</time>
      </trkpt>
      <trkpt lat="47.5235" lon="6.77503">
        <ele>389</ele>
        <time>2016-12-04T11:28:52.999Z</time>
      </trkpt>
      <trkpt lat="47.52347" lon="6.77504">
        <ele>389</ele>
        <time>2016-12-04T11:28:53.999Z</time>
      </trkpt>
      <trkpt lat="47.52343" lon="6.77506">
        <ele>389</ele>
        <time>2016-12-04T11:28:54.999Z</time>
      </trkpt>
      <trkpt lat="47.5234" lon="6.77509">
        <ele>389</ele>
        <time>2016-12-04T11:28:55.999Z</time>
      </trkpt>
      <trkpt lat="47.52337" lon="6.77512">
        <ele>389</ele>
        <time>2016-12-04T11:28:56.999Z</time>
      </trkpt>
      <trkpt lat="47.52334" lon="6.77515">
        <ele>389</ele>
        <time>2016-12-04T11:28:57.999Z</time>
      </trkpt>
      <trkpt lat="47.52332" lon="6.77517">
        <ele>388</ele>
        <time>2016-12-04T11:28:58.999Z</time>
      </trkpt>
      <trkpt lat="47.52328" lon="6.7752">
        <ele>388</ele>
        <time>2016-12-04T11:28:59.999Z</time>
      </trkpt>
      <trkpt lat="47.52325" lon="6.77522">
        <ele>388</ele>
        <time>2016-12-04T11:29:00.999Z</time>
      </trkpt>
      <trkpt lat="47.52323" lon="6.77524">
        <ele>388</ele>
        <time>2016-12-04T11:29:01.999Z</time>
      </trkpt>
      <trkpt lat="47.52319" lon="6.77527">
        <ele>388</ele>
        <time>2016-12-04T11:29:02.999Z</time>
      </trkpt>
      <trkpt lat="47.52316" lon="6.77529">
        <ele>388</ele>
        <time>2016-12-04T11:29:03.999Z</time>
      </trkpt>
      <trkpt lat="47.52312" lon="6.77532">
        <ele>388</ele>
        <time>2016-12-04T11:29:04.999Z</time>
      </trkpt>
      <trkpt lat="47.5231" lon="6.77535">
        <ele>387</ele>
        <time>2016-12-04T11:29:05.999Z</time>
      </trkpt>
      <trkpt lat="47.52306" lon="6.77538">
        <ele>387</ele>
        <time>2016-12-04T11:29:06.999Z</time>
      </trkpt>
      <trkpt lat="47.52303" lon="6.77539">
        <ele>387</ele>
        <time>2016-12-04T11:29:07.999Z</time>
      </trkpt>
      <trkpt lat="47.52299" lon="6.77541">
        <ele>387</ele>
        <time>2016-12-04T11:29:08.999Z</time>
      </trkpt>
      <trkpt lat="47.52296" lon="6.77543">
        <ele>387</ele>
        <time>2016-12-04T11:29:09.999Z</time>
      </trkpt>
      <trkpt lat="47.52293" lon="6.77545">
        <ele>387</ele>
        <time>2016-12-04T11:29:10.999Z</time>
      </trkpt>
      <trkpt lat="47.52289" lon="6.77547">
        <ele>387</ele>
        <time>2016-12-04T11:29:11.999Z</time>
      </trkpt>
      <trkpt lat="47.52285" lon="6.77549">
        <ele>387</ele>
        <time>2016-12-04T11:29:12.999Z</time>
      </trkpt>
      <trkpt lat="47.52282" lon="6.77551">
        <ele>387</ele>
        <time>2016-12-04T11:29:13.999Z</time>
      </trkpt>
      <trkpt lat="47.52278" lon="6.77554">
        <ele>387</ele>
        <time>2016-12-04T11:29:14.999Z</time>
      </trkpt>
      <trkpt lat="47.52275" lon="6.77556">
        <ele>387</ele>
        <time>2016-12-04T11:29:15.999Z</time>
      </trkpt>
      <trkpt lat="47.52271" lon="6.77559">
        <ele>387</ele>
        <time>2016-12-04T11:29:16.999Z</time>
      </trkpt>
      <trkpt lat="47.52267" lon="6.77561">
        <ele>387</ele>
        <time>2016-12-04T11:29:17.999Z</time>
      </trkpt>
      <trkpt lat="47.52263" lon="6.77564">
        <ele>387</ele>
        <time>2016-12-04T11:29:18.999Z</time>
      </trkpt>
      <trkpt lat="47.52259" lon="6.77566">
        <ele>387</ele>
        <time>2016-12-04T11:29:19.999Z</time>
      </trkpt>
      <trkpt lat="47.52256" lon="6.77569">
        <ele>387</ele>
        <time>2016-12-04T11:29:20.999Z</time>
      </trkpt>
      <trkpt lat="47.52252" lon="6.77571">
        <ele>386</ele>
        <time>2016-12-04T11:29:21.999Z</time>
      </trkpt>
      <trkpt lat="47.52248" lon="6.77574">
        <ele>386</ele>
        <time>2016-12-04T11:29:22.999Z</time>
      </trkpt>
      <trkpt lat="47.52244" lon="6.77575">
        <ele>386</ele>
        <time>2016-12-04T11:29:23.999Z</time>
      </trkpt>
      <trkpt lat="47.5224" lon="6.77578">
        <ele>387</ele>
        <time>2016-12-04T11:29:24.999Z</time>
      </trkpt>
      <trkpt lat="47.52237" lon="6.7758">
        <ele>387</ele>
        <time>2016-12-04T11:29:25.999Z</time>
      </trkpt>
      <trkpt lat="47.52233" lon="6.77582">
        <ele>387</ele>
        <time>2016-12-04T11:29:26.999Z</time>
      </trkpt>
      <trkpt lat="47.52229" lon="6.77585">
        <ele>386</ele>
        <time>2016-12-04T11:29:27.999Z</time>
      </trkpt>
      <trkpt lat="47.52225" lon="6.77587">
        <ele>386</ele>
        <time>2016-12-04T11:29:28.999Z</time>
      </trkpt>
      <trkpt lat="47.52222" lon="6.77589">
        <ele>386</ele>
        <time>2016-12-04T11:29:29.999Z</time>
      </trkpt>
      <trkpt lat="47.52218" lon="6.77591">
        <ele>386</ele>
        <time>2016-12-04T11:29:30.999Z</time>
      </trkpt>
      <trkpt lat="47.52214" lon="6.77594">
        <ele>387</ele>
        <time>2016-12-04T11:29:31.999Z</time>
      </trkpt>
      <trkpt lat="47.5221" lon="6.77596">
        <ele>387</ele>
        <time>2016-12-04T11:29:32.999Z</time>
      </trkpt>
      <trkpt lat="47.52205" lon="6.77599">
        <ele>387</ele>
        <time>2016-12-04T11:29:33.999Z</time>
      </trkpt>
      <trkpt lat="47.52202" lon="6.77601">
        <ele>387</ele>
        <time>2016-12-04T11:29:34.999Z</time>
      </trkpt>
      <trkpt lat="47.522" lon="6.77603">
        <ele>387</ele>
        <time>2016-12-04T11:29:35.999Z</time>
      </trkpt>
      <trkpt lat="47.52196" lon="6.77606">
        <ele>387</ele>
        <time>2016-12-04T11:29:36.999Z</time>
      </trkpt>
      <trkpt lat="47.52193" lon="6.77609">
        <ele>387</ele>
        <time>2016-12-04T11:29:37.999Z</time>
      </trkpt>
      <trkpt lat="47.52188" lon="6.77612">
        <ele>387</ele>
        <time>2016-12-04T11:29:38.999Z</time>
      </trkpt>
      <trkpt lat="47.52185" lon="6.77614">
        <ele>387</ele>
        <time>2016-12-04T11:29:39.999Z</time>
      </trkpt>
      <trkpt lat="47.52183" lon="6.77616">
        <ele>387</ele>
        <time>2016-12-04T11:29:40.999Z</time>
      </trkpt>
      <trkpt lat="47.5218" lon="6.77618">
        <ele>387</ele>
        <time>2016-12-04T11:29:41.999Z</time>
      </trkpt>
      <trkpt lat="47.52176" lon="6.7762">
        <ele>387</ele>
        <time>2016-12-04T11:29:42.999Z</time>
      </trkpt>
      <trkpt lat="47.52173" lon="6.77622">
        <ele>387</ele>
        <time>2016-12-04T11:29:43.999Z</time>
      </trkpt>
      <trkpt lat="47.52169" lon="6.77624">
        <ele>387</ele>
        <time>2016-12-04T11:29:44.999Z</time>
      </trkpt>
      <trkpt lat="47.52166" lon="6.77626">
        <ele>390</ele>
        <time>2016-12-04T11:29:45.999Z</time>
      </trkpt>
      <trkpt lat="47.52163" lon="6.77628">
        <ele>390</ele>
        <time>2016-12-04T11:29:46.999Z</time>
      </trkpt>
      <trkpt lat="47.52161" lon="6.7763">
        <ele>390</ele>
        <time>2016-12-04T11:29:47.999Z</time>
      </trkpt>
      <trkpt lat="47.52159" lon="6.77631">
        <ele>390</ele>
        <time>2016-12-04T11:29:48.999Z</time>
      </trkpt>
      <trkpt lat="47.52156" lon="6.77633">
        <ele>390</ele>
        <time>2016-12-04T11:29:49.999Z</time>
      </trkpt>
      <trkpt lat="47.52154" lon="6.77635">
        <ele>390</ele>
        <time>2016-12-04T11:29:50.999Z</time>
      </trkpt>
      <trkpt lat="47.52151" lon="6.77637">
        <ele>390</ele>
        <time>2016-12-04T11:29:51.999Z</time>
      </trkpt>
      <trkpt lat="47.52148" lon="6.7764">
        <ele>390</ele>
        <time>2016-12-04T11:29:52.999Z</time>
      </trkpt>
      <trkpt lat="47.52145" lon="6.77643">
        <ele>390</ele>
        <time>2016-12-04T11:29:53.999Z</time>
      </trkpt>
      <trkpt lat="47.52143" lon="6.77645">
        <ele>390</ele>
        <time>2016-12-04T11:29:54.999Z</time>
      </trkpt>
      <trkpt lat="47.5214" lon="6.77646">
        <ele>390</ele>
        <time>2016-12-04T11:29:55.999Z</time>
      </trkpt>
      <trkpt lat="47.52137" lon="6.77649">
        <ele>390</ele>
        <time>2016-12-04T11:29:56.999Z</time>
      </trkpt>
      <trkpt lat="47.52135" lon="6.77651">
        <ele>390</ele>
        <time>2016-12-04T11:29:57.999Z</time>
      </trkpt>
      <trkpt lat="47.52132" lon="6.77653">
        <ele>390</ele>
        <time>2016-12-04T11:29:58.999Z</time>
      </trkpt>
      <trkpt lat="47.52129" lon="6.77654">
        <ele>391</ele>
        <time>2016-12-04T11:29:59.999Z</time>
      </trkpt>
      <trkpt lat="47.52126" lon="6.77656">
        <ele>391</ele>
        <time>2016-12-04T11:30:00.999Z</time>
      </trkpt>
      <trkpt lat="47.52123" lon="6.77657">
        <ele>391</ele>
        <time>2016-12-04T11:30:01.999Z</time>
      </trkpt>
      <trkpt lat="47.5212" lon="6.77658">
        <ele>391</ele>
        <time>2016-12-04T11:30:02.999Z</time>
      </trkpt>
      <trkpt lat="47.52117" lon="6.77659">
        <ele>391</ele>
        <time>2016-12-04T11:30:03.999Z</time>
      </trkpt>
      <trkpt lat="47.52113" lon="6.77661">
        <ele>391</ele>
        <time>2016-12-04T11:30:04.999Z</time>
      </trkpt>
      <trkpt lat="47.52111" lon="6.77663">
        <ele>391</ele>
        <time>2016-12-04T11:30:05.999Z</time>
      </trkpt>
      <trkpt lat="47.52108" lon="6.77666">
        <ele>391</ele>
        <time>2016-12-04T11:30:06.999Z</time>
      </trkpt>
      <trkpt lat="47.52105" lon="6.77668">
        <ele>391</ele>
        <time>2016-12-04T11:30:07.999Z</time>
      </trkpt>
      <trkpt lat="47.52103" lon="6.7767">
        <ele>392</ele>
        <time>2016-12-04T11:30:08.999Z</time>
      </trkpt>
      <trkpt lat="47.521" lon="6.77671">
        <ele>392</ele>
        <time>2016-12-04T11:30:09.999Z</time>
      </trkpt>
      <trkpt lat="47.52098" lon="6.77672">
        <ele>392</ele>
        <time>2016-12-04T11:30:10.999Z</time>
      </trkpt>
      <trkpt lat="47.52095" lon="6.77671">
        <ele>392</ele>
        <time>2016-12-04T11:30:11.999Z</time>
      </trkpt>
      <trkpt lat="47.52094" lon="6.77667">
        <ele>392</ele>
        <time>2016-12-04T11:30:12.999Z</time>
      </trkpt>
      <trkpt lat="47.52093" lon="6.77664">
        <ele>392</ele>
        <time>2016-12-04T11:30:13.999Z</time>
      </trkpt>
      <trkpt lat="47.52094" lon="6.7766">
        <ele>392</ele>
        <time>2016-12-04T11:30:14.999Z</time>
      </trkpt>
      <trkpt lat="47.52094" lon="6.77657">
        <ele>392</ele>
        <time>2016-12-04T11:30:15.999Z</time>
      </trkpt>
      <trkpt lat="47.52095" lon="6.77653">
        <ele>392</ele>
        <time>2016-12-04T11:30:16.999Z</time>
      </trkpt>
      <trkpt lat="47.52095" lon="6.77649">
        <ele>392</ele>
        <time>2016-12-04T11:30:17.999Z</time>
      </trkpt>
      <trkpt lat="47.52095" lon="6.77645">
        <ele>391</ele>
        <time>2016-12-04T11:30:18.999Z</time>
      </trkpt>
      <trkpt lat="47.52095" lon="6.77641">
        <ele>391</ele>
        <time>2016-12-04T11:30:19.999Z</time>
      </trkpt>
      <trkpt lat="47.52096" lon="6.77638">
        <ele>391</ele>
        <time>2016-12-04T11:30:20.999Z</time>
      </trkpt>
      <trkpt lat="47.52096" lon="6.77634">
        <ele>391</ele>
        <time>2016-12-04T11:30:21.999Z</time>
      </trkpt>
      <trkpt lat="47.52096" lon="6.7763">
        <ele>391</ele>
        <time>2016-12-04T11:30:22.999Z</time>
      </trkpt>
      <trkpt lat="47.52096" lon="6.77626">
        <ele>391</ele>
        <time>2016-12-04T11:30:23.999Z</time>
      </trkpt>
      <trkpt lat="47.52096" lon="6.77623">
        <ele>391</ele>
        <time>2016-12-04T11:30:24.999Z</time>
      </trkpt>
      <trkpt lat="47.52096" lon="6.77619">
        <ele>391</ele>
        <time>2016-12-04T11:30:25.999Z</time>
      </trkpt>
      <trkpt lat="47.52096" lon="6.77613">
        <ele>391</ele>
        <time>2016-12-04T11:30:27.999Z</time>
      </trkpt>
      <trkpt lat="47.52097" lon="6.7761">
        <ele>391</ele>
        <time>2016-12-04T11:30:28.999Z</time>
      </trkpt>
      <trkpt lat="47.52097" lon="6.77606">
        <ele>391</ele>
        <time>2016-12-04T11:30:29.999Z</time>
      </trkpt>
      <trkpt lat="47.52097" lon="6.77602">
        <ele>391</ele>
        <time>2016-12-04T11:30:30.999Z</time>
      </trkpt>
      <trkpt lat="47.52097" lon="6.77596">
        <ele>391</ele>
        <time>2016-12-04T11:30:31.999Z</time>
      </trkpt>
      <trkpt lat="47.52097" lon="6.77591">
        <ele>391</ele>
        <time>2016-12-04T11:30:32.999Z</time>
      </trkpt>
      <trkpt lat="47.52097" lon="6.77585">
        <ele>391</ele>
        <time>2016-12-04T11:30:33.999Z</time>
      </trkpt>
      <trkpt lat="47.52096" lon="6.77579">
        <ele>391</ele>
        <time>2016-12-04T11:30:34.999Z</time>
      </trkpt>
      <trkpt lat="47.52095" lon="6.77573">
        <ele>391</ele>
        <time>2016-12-04T11:30:35.999Z</time>
      </trkpt>
      <trkpt lat="47.52092" lon="6.77568">
        <ele>390</ele>
        <time>2016-12-04T11:30:36.999Z</time>
      </trkpt>
      <trkpt lat="47.5209" lon="6.77564">
        <ele>390</ele>
        <time>2016-12-04T11:30:37.999Z</time>
      </trkpt>
      <trkpt lat="47.52085" lon="6.77559">
        <ele>390</ele>
        <time>2016-12-04T11:30:38.999Z</time>
      </trkpt>
      <trkpt lat="47.52082" lon="6.77556">
        <ele>391</ele>
        <time>2016-12-04T11:30:39.999Z</time>
      </trkpt>
      <trkpt lat="47.52078" lon="6.77553">
        <ele>391</ele>
        <time>2016-12-04T11:30:40.999Z</time>
      </trkpt>
      <trkpt lat="47.52075" lon="6.77551">
        <ele>391</ele>
        <time>2016-12-04T11:30:41.999Z</time>
      </trkpt>
      <trkpt lat="47.5207" lon="6.77549">
        <ele>391</ele>
        <time>2016-12-04T11:30:42.999Z</time>
      </trkpt>
      <trkpt lat="47.52067" lon="6.77547">
        <ele>391</ele>
        <time>2016-12-04T11:30:43.999Z</time>
      </trkpt>
      <trkpt lat="47.52064" lon="6.77547">
        <ele>391</ele>
        <time>2016-12-04T11:30:44.999Z</time>
      </trkpt>
      <trkpt lat="47.52062" lon="6.77547">
        <ele>391</ele>
        <time>2016-12-04T11:30:45.999Z</time>
      </trkpt>
      <trkpt lat="47.52058" lon="6.77546">
        <ele>391</ele>
        <time>2016-12-04T11:30:46.999Z</time>
      </trkpt>
      <trkpt lat="47.52054" lon="6.77544">
        <ele>391</ele>
        <time>2016-12-04T11:30:48.999Z</time>
      </trkpt>
      <trkpt lat="47.52051" lon="6.77542">
        <ele>391</ele>
        <time>2016-12-04T11:30:49.999Z</time>
      </trkpt>
      <trkpt lat="47.52048" lon="6.77541">
        <ele>390</ele>
        <time>2016-12-04T11:30:50.999Z</time>
      </trkpt>
      <trkpt lat="47.52045" lon="6.77539">
        <ele>390</ele>
        <time>2016-12-04T11:30:51.999Z</time>
      </trkpt>
      <trkpt lat="47.52042" lon="6.77538">
        <ele>390</ele>
        <time>2016-12-04T11:30:52.999Z</time>
      </trkpt>
      <trkpt lat="47.52039" lon="6.77537">
        <ele>390</ele>
        <time>2016-12-04T11:30:53.999Z</time>
      </trkpt>
      <trkpt lat="47.52035" lon="6.77536">
        <ele>390</ele>
        <time>2016-12-04T11:30:54.999Z</time>
      </trkpt>
      <trkpt lat="47.52031" lon="6.77534">
        <ele>390</ele>
        <time>2016-12-04T11:30:55.999Z</time>
      </trkpt>
      <trkpt lat="47.52028" lon="6.77533">
        <ele>390</ele>
        <time>2016-12-04T11:30:56.999Z</time>
      </trkpt>
      <trkpt lat="47.52024" lon="6.77532">
        <ele>390</ele>
        <time>2016-12-04T11:30:57.999Z</time>
      </trkpt>
      <trkpt lat="47.52021" lon="6.77531">
        <ele>390</ele>
        <time>2016-12-04T11:30:58.999Z</time>
      </trkpt>
      <trkpt lat="47.52018" lon="6.7753">
        <ele>390</ele>
        <time>2016-12-04T11:30:59.999Z</time>
      </trkpt>
      <trkpt lat="47.52015" lon="6.77529">
        <ele>390</ele>
        <time>2016-12-04T11:31:00.999Z</time>
      </trkpt>
      <trkpt lat="47.52011" lon="6.77529">
        <ele>390</ele>
        <time>2016-12-04T11:31:01.999Z</time>
      </trkpt>
      <trkpt lat="47.52008" lon="6.77527">
        <ele>390</ele>
        <time>2016-12-04T11:31:02.999Z</time>
      </trkpt>
      <trkpt lat="47.52005" lon="6.77526">
        <ele>390</ele>
        <time>2016-12-04T11:31:03.999Z</time>
      </trkpt>
      <trkpt lat="47.52002" lon="6.77526">
        <ele>390</ele>
        <time>2016-12-04T11:31:04.999Z</time>
      </trkpt>
      <trkpt lat="47.51997" lon="6.77525">
        <ele>390</ele>
        <time>2016-12-04T11:31:05.999Z</time>
      </trkpt>
      <trkpt lat="47.51993" lon="6.77524">
        <ele>390</ele>
        <time>2016-12-04T11:31:06.999Z</time>
      </trkpt>
      <trkpt lat="47.5199" lon="6.77522">
        <ele>390</ele>
        <time>2016-12-04T11:31:07.999Z</time>
      </trkpt>
      <trkpt lat="47.51987" lon="6.77521">
        <ele>390</ele>
        <time>2016-12-04T11:31:08.999Z</time>
      </trkpt>
      <trkpt lat="47.51985" lon="6.77521">
        <ele>390</ele>
        <time>2016-12-04T11:31:09.999Z</time>
      </trkpt>
      <trkpt lat="47.51981" lon="6.7752">
        <ele>390</ele>
        <time>2016-12-04T11:31:10.999Z</time>
      </trkpt>
      <trkpt lat="47.51978" lon="6.77519">
        <ele>390</ele>
        <time>2016-12-04T11:31:11.999Z</time>
      </trkpt>
      <trkpt lat="47.51975" lon="6.77519">
        <ele>390</ele>
        <time>2016-12-04T11:31:12.999Z</time>
      </trkpt>
      <trkpt lat="47.51972" lon="6.77519">
        <ele>390</ele>
        <time>2016-12-04T11:31:13.999Z</time>
      </trkpt>
      <trkpt lat="47.5197" lon="6.7752">
        <ele>390</ele>
        <time>2016-12-04T11:31:14.999Z</time>
      </trkpt>
      <trkpt lat="47.51967" lon="6.77521">
        <ele>390</ele>
        <time>2016-12-04T11:31:15.999Z</time>
      </trkpt>
      <trkpt lat="47.51963" lon="6.77521">
        <ele>390</ele>
        <time>2016-12-04T11:31:16.999Z</time>
      </trkpt>
      <trkpt lat="47.51959" lon="6.77521">
        <ele>390</ele>
        <time>2016-12-04T11:31:17.999Z</time>
      </trkpt>
      <trkpt lat="47.51955" lon="6.7752">
        <ele>390</ele>
        <time>2016-12-04T11:31:18.999Z</time>
      </trkpt>
      <trkpt lat="47.51951" lon="6.77519">
        <ele>390</ele>
        <time>2016-12-04T11:31:19.999Z</time>
      </trkpt>
      <trkpt lat="47.51947" lon="6.77517">
        <ele>389</ele>
        <time>2016-12-04T11:31:20.999Z</time>
      </trkpt>
      <trkpt lat="47.51943" lon="6.77517">
        <ele>389</ele>
        <time>2016-12-04T11:31:21.999Z</time>
      </trkpt>
      <trkpt lat="47.51939" lon="6.77516">
        <ele>389</ele>
        <time>2016-12-04T11:31:22.999Z</time>
      </trkpt>
      <trkpt lat="47.51936" lon="6.77515">
        <ele>389</ele>
        <time>2016-12-04T11:31:23.999Z</time>
      </trkpt>
      <trkpt lat="47.51932" lon="6.77514">
        <ele>389</ele>
        <time>2016-12-04T11:31:24.999Z</time>
      </trkpt>
      <trkpt lat="47.51928" lon="6.77513">
        <ele>389</ele>
        <time>2016-12-04T11:31:25.999Z</time>
      </trkpt>
      <trkpt lat="47.51925" lon="6.77512">
        <ele>389</ele>
        <time>2016-12-04T11:31:26.999Z</time>
      </trkpt>
      <trkpt lat="47.51921" lon="6.77511">
        <ele>389</ele>
        <time>2016-12-04T11:31:27.999Z</time>
      </trkpt>
      <trkpt lat="47.51917" lon="6.7751">
        <ele>389</ele>
        <time>2016-12-04T11:31:28.999Z</time>
      </trkpt>
      <trkpt lat="47.51913" lon="6.77509">
        <ele>388</ele>
        <time>2016-12-04T11:31:29.999Z</time>
      </trkpt>
      <trkpt lat="47.51909" lon="6.77507">
        <ele>388</ele>
        <time>2016-12-04T11:31:30.999Z</time>
      </trkpt>
      <trkpt lat="47.51905" lon="6.77506">
        <ele>388</ele>
        <time>2016-12-04T11:31:31.999Z</time>
      </trkpt>
      <trkpt lat="47.519" lon="6.77505">
        <ele>388</ele>
        <time>2016-12-04T11:31:32.999Z</time>
      </trkpt>
      <trkpt lat="47.51896" lon="6.77504">
        <ele>388</ele>
        <time>2016-12-04T11:31:33.999Z</time>
      </trkpt>
      <trkpt lat="47.51891" lon="6.77503">
        <ele>388</ele>
        <time>2016-12-04T11:31:34.999Z</time>
      </trkpt>
      <trkpt lat="47.51885" lon="6.77502">
        <ele>388</ele>
        <time>2016-12-04T11:31:35.999Z</time>
      </trkpt>
      <trkpt lat="47.5188" lon="6.775">
        <ele>388</ele>
        <time>2016-12-04T11:31:36.999Z</time>
      </trkpt>
      <trkpt lat="47.51875" lon="6.77499">
        <ele>387</ele>
        <time>2016-12-04T11:31:37.999Z</time>
      </trkpt>
      <trkpt lat="47.51871" lon="6.77497">
        <ele>387</ele>
        <time>2016-12-04T11:31:38.999Z</time>
      </trkpt>
      <trkpt lat="47.51867" lon="6.77496">
        <ele>387</ele>
        <time>2016-12-04T11:31:39.999Z</time>
      </trkpt>
      <trkpt lat="47.51862" lon="6.77496">
        <ele>387</ele>
        <time>2016-12-04T11:31:40.999Z</time>
      </trkpt>
      <trkpt lat="47.51856" lon="6.77497">
        <ele>387</ele>
        <time>2016-12-04T11:31:41.999Z</time>
      </trkpt>
      <trkpt lat="47.51852" lon="6.77498">
        <ele>387</ele>
        <time>2016-12-04T11:31:42.999Z</time>
      </trkpt>
      <trkpt lat="47.51848" lon="6.77498">
        <ele>387</ele>
        <time>2016-12-04T11:31:43.999Z</time>
      </trkpt>
      <trkpt lat="47.51844" lon="6.77497">
        <ele>387</ele>
        <time>2016-12-04T11:31:44.999Z</time>
      </trkpt>
      <trkpt lat="47.5184" lon="6.77496">
        <ele>387</ele>
        <time>2016-12-04T11:31:45.999Z</time>
      </trkpt>
      <trkpt lat="47.51836" lon="6.77495">
        <ele>387</ele>
        <time>2016-12-04T11:31:46.999Z</time>
      </trkpt>
      <trkpt lat="47.5183" lon="6.77495">
        <ele>387</ele>
        <time>2016-12-04T11:31:47.999Z</time>
      </trkpt>
      <trkpt lat="47.51825" lon="6.77493">
        <ele>387</ele>
        <time>2016-12-04T11:31:48.999Z</time>
      </trkpt>
      <trkpt lat="47.5182" lon="6.77491">
        <ele>387</ele>
        <time>2016-12-04T11:31:49.999Z</time>
      </trkpt>
      <trkpt lat="47.51816" lon="6.7749">
        <ele>387</ele>
        <time>2016-12-04T11:31:50.999Z</time>
      </trkpt>
      <trkpt lat="47.51812" lon="6.77489">
        <ele>388</ele>
        <time>2016-12-04T11:31:51.999Z</time>
      </trkpt>
      <trkpt lat="47.51809" lon="6.77487">
        <ele>388</ele>
        <time>2016-12-04T11:31:52.999Z</time>
      </trkpt>
      <trkpt lat="47.51807" lon="6.77486">
        <ele>388</ele>
        <time>2016-12-04T11:31:53.999Z</time>
      </trkpt>
      <trkpt lat="47.51805" lon="6.77485">
        <ele>388</ele>
        <time>2016-12-04T11:31:54.999Z</time>
      </trkpt>
      <trkpt lat="47.51803" lon="6.7748">
        <ele>388</ele>
        <time>2016-12-04T11:31:57.999Z</time>
      </trkpt>
      <trkpt lat="47.51803" lon="6.77478">
        <ele>388</ele>
        <time>2016-12-04T11:31:58.999Z</time>
      </trkpt>
      <trkpt lat="47.51806" lon="6.77475">
        <ele>388</ele>
        <time>2016-12-04T11:33:00.999Z</time>
      </trkpt>
      <trkpt lat="47.51807" lon="6.77474">
        <ele>388</ele>
        <time>2016-12-04T11:33:01.999Z</time>
      </trkpt>
      <trkpt lat="47.51806" lon="6.77468">
        <ele>388</ele>
        <time>2016-12-04T11:33:13.999Z</time>
      </trkpt>
      <trkpt lat="47.51806" lon="6.77468">
        <ele>388</ele>
        <time>2016-12-04T11:33:14.999Z</time>
      </trkpt>
      <trkpt lat="47.51803" lon="6.77462">
        <ele>388</ele>
        <time>2016-12-04T11:33:32.999Z</time>
      </trkpt>
    </trkseg>
  </trk>
</gpx>